<?xml version="1.0" encoding="UTF-8"?>
<gpx version="1.1" creator="https://www.youtrack.es" xsi:schemaLocation="http://www.topografix.com/GPX/1/1 http://www.topografix.com/GPX/1/1/gpx.xsd http://www.garmin.com/xmlschemas/GpxExtensions/v3 http://www.garmin.com/xmlschemas/GpxExtensionsv3.xsd http://www.garmin.com/xmlschemas/TrackPointExtension/v1 http://www.garmin.com/xmlschemas/TrackPointExtensionv1.xsd" xmlns:gpxtpx="http://www.garmin.com/xmlschemas/TrackPointExtension/v1" xmlns:gpxx="http://www.garmin.com/xmlschemas/GpxExtensions/v3" xmlns:xsi="http://www.w3.org/2001/XMLSchema-instance">
  <metadata>
    <link href="https://www.youtrack.es">
      <text>YouTrack.es</text>
    </link>
    <time>2026-05-08T10:45:36Z</time>
  </metadata>
  <trk>
    <src>https://www.youtrack.es</src>
    <link href="https://www.youtrack.es/ruta/24863-els-gegants-de-les-3-nacions">
      <text>YouTrack.es</text>
    </link>
    <trkseg>
      <trkpt lat="42.6191160" lon="1.5381000">
        <ele>1569.4</ele>
        <time>2021-08-09T11:09:12Z</time>
      </trkpt>
      <trkpt lat="42.6191250" lon="1.5380890">
        <ele>1569.3</ele>
        <time>2021-08-09T11:09:13Z</time>
      </trkpt>
      <trkpt lat="42.6191280" lon="1.5380660">
        <ele>1569.2</ele>
        <time>2021-08-09T11:09:15Z</time>
      </trkpt>
      <trkpt lat="42.6191230" lon="1.5380440">
        <ele>1569.0</ele>
        <time>2021-08-09T11:09:17Z</time>
      </trkpt>
      <trkpt lat="42.6191200" lon="1.5380330">
        <ele>1568.9</ele>
        <time>2021-08-09T11:09:18Z</time>
      </trkpt>
      <trkpt lat="42.6191070" lon="1.5380100">
        <ele>1568.7</ele>
        <time>2021-08-09T11:09:20Z</time>
      </trkpt>
      <trkpt lat="42.6190960" lon="1.5379890">
        <ele>1568.6</ele>
        <time>2021-08-09T11:09:22Z</time>
      </trkpt>
      <trkpt lat="42.6190890" lon="1.5379830">
        <ele>1568.5</ele>
        <time>2021-08-09T11:09:23Z</time>
      </trkpt>
      <trkpt lat="42.6190830" lon="1.5379760">
        <ele>1568.4</ele>
        <time>2021-08-09T11:09:24Z</time>
      </trkpt>
      <trkpt lat="42.6190160" lon="1.5378960">
        <ele>1567.6</ele>
        <time>2021-08-09T11:09:34Z</time>
      </trkpt>
      <trkpt lat="42.6189970" lon="1.5378750">
        <ele>1567.4</ele>
        <time>2021-08-09T11:09:37Z</time>
      </trkpt>
      <trkpt lat="42.6189840" lon="1.5378560">
        <ele>1567.3</ele>
        <time>2021-08-09T11:09:39Z</time>
      </trkpt>
      <trkpt lat="42.6189350" lon="1.5377970">
        <ele>1566.7</ele>
        <time>2021-08-09T11:09:46Z</time>
      </trkpt>
      <trkpt lat="42.6189150" lon="1.5377930">
        <ele>1565.9</ele>
        <time>2021-08-09T11:09:50Z</time>
      </trkpt>
      <trkpt lat="42.6189180" lon="1.5377850">
        <ele>1565.8</ele>
        <time>2021-08-09T11:09:53Z</time>
      </trkpt>
      <trkpt lat="42.6189220" lon="1.5377690">
        <ele>1565.7</ele>
        <time>2021-08-09T11:09:56Z</time>
      </trkpt>
      <trkpt lat="42.6189330" lon="1.5377360">
        <ele>1565.3</ele>
        <time>2021-08-09T11:10:00Z</time>
      </trkpt>
      <trkpt lat="42.6189350" lon="1.5377280">
        <ele>1565.3</ele>
        <time>2021-08-09T11:10:15Z</time>
      </trkpt>
      <trkpt lat="42.6189350" lon="1.5377800">
        <ele>1564.8</ele>
        <time>2021-08-09T11:10:27Z</time>
      </trkpt>
      <trkpt lat="42.6189150" lon="1.5378210">
        <ele>1564.3</ele>
        <time>2021-08-09T11:10:31Z</time>
      </trkpt>
      <trkpt lat="42.6188740" lon="1.5378870">
        <ele>1563.5</ele>
        <time>2021-08-09T11:10:37Z</time>
      </trkpt>
      <trkpt lat="42.6188300" lon="1.5379640">
        <ele>1562.7</ele>
        <time>2021-08-09T11:10:44Z</time>
      </trkpt>
      <trkpt lat="42.6187100" lon="1.5381590">
        <ele>1560.5</ele>
        <time>2021-08-09T11:11:01Z</time>
      </trkpt>
      <trkpt lat="42.6185430" lon="1.5382420">
        <ele>1558.5</ele>
        <time>2021-08-09T11:11:18Z</time>
      </trkpt>
      <trkpt lat="42.6184350" lon="1.5382200">
        <ele>1556.3</ele>
        <time>2021-08-09T11:11:29Z</time>
      </trkpt>
      <trkpt lat="42.6184240" lon="1.5381570">
        <ele>1555.9</ele>
        <time>2021-08-09T11:11:34Z</time>
      </trkpt>
      <trkpt lat="42.6184570" lon="1.5379030">
        <ele>1554.4</ele>
        <time>2021-08-09T11:11:50Z</time>
      </trkpt>
      <trkpt lat="42.6185500" lon="1.5376850">
        <ele>1553.0</ele>
        <time>2021-08-09T11:12:06Z</time>
      </trkpt>
      <trkpt lat="42.6186740" lon="1.5374890">
        <ele>1551.7</ele>
        <time>2021-08-09T11:12:22Z</time>
      </trkpt>
      <trkpt lat="42.6186990" lon="1.5374520">
        <ele>1551.5</ele>
        <time>2021-08-09T11:12:25Z</time>
      </trkpt>
      <trkpt lat="42.6187390" lon="1.5373720">
        <ele>1551.1</ele>
        <time>2021-08-09T11:12:31Z</time>
      </trkpt>
      <trkpt lat="42.6188440" lon="1.5371690">
        <ele>1550.1</ele>
        <time>2021-08-09T11:12:46Z</time>
      </trkpt>
      <trkpt lat="42.6188520" lon="1.5371550">
        <ele>1550.0</ele>
        <time>2021-08-09T11:12:47Z</time>
      </trkpt>
      <trkpt lat="42.6188610" lon="1.5371400">
        <ele>1549.9</ele>
        <time>2021-08-09T11:12:48Z</time>
      </trkpt>
      <trkpt lat="42.6188870" lon="1.5368990">
        <ele>1548.7</ele>
        <time>2021-08-09T11:13:03Z</time>
      </trkpt>
      <trkpt lat="42.6187760" lon="1.5368050">
        <ele>1547.6</ele>
        <time>2021-08-09T11:13:13Z</time>
      </trkpt>
      <trkpt lat="42.6187430" lon="1.5367730">
        <ele>1546.5</ele>
        <time>2021-08-09T11:13:17Z</time>
      </trkpt>
      <trkpt lat="42.6187400" lon="1.5367550">
        <ele>1546.2</ele>
        <time>2021-08-09T11:13:18Z</time>
      </trkpt>
      <trkpt lat="42.6187450" lon="1.5367280">
        <ele>1546.3</ele>
        <time>2021-08-09T11:13:20Z</time>
      </trkpt>
      <trkpt lat="42.6188760" lon="1.5365550">
        <ele>1548.2</ele>
        <time>2021-08-09T11:13:38Z</time>
      </trkpt>
      <trkpt lat="42.6190200" lon="1.5363890">
        <ele>1549.7</ele>
        <time>2021-08-09T11:13:55Z</time>
      </trkpt>
      <trkpt lat="42.6191650" lon="1.5362290">
        <ele>1551.3</ele>
        <time>2021-08-09T11:14:13Z</time>
      </trkpt>
      <trkpt lat="42.6193170" lon="1.5360850">
        <ele>1553.3</ele>
        <time>2021-08-09T11:14:30Z</time>
      </trkpt>
      <trkpt lat="42.6194500" lon="1.5359120">
        <ele>1554.2</ele>
        <time>2021-08-09T11:14:48Z</time>
      </trkpt>
      <trkpt lat="42.6195410" lon="1.5358050">
        <ele>1555.2</ele>
        <time>2021-08-09T11:15:00Z</time>
      </trkpt>
      <trkpt lat="42.6196690" lon="1.5356180">
        <ele>1557.1</ele>
        <time>2021-08-09T11:15:21Z</time>
      </trkpt>
      <trkpt lat="42.6198200" lon="1.5354670">
        <ele>1560.1</ele>
        <time>2021-08-09T11:15:42Z</time>
      </trkpt>
      <trkpt lat="42.6199650" lon="1.5353090">
        <ele>1563.0</ele>
        <time>2021-08-09T11:16:01Z</time>
      </trkpt>
      <trkpt lat="42.6200850" lon="1.5351270">
        <ele>1566.0</ele>
        <time>2021-08-09T11:16:22Z</time>
      </trkpt>
      <trkpt lat="42.6201270" lon="1.5350450">
        <ele>1566.4</ele>
        <time>2021-08-09T11:16:31Z</time>
      </trkpt>
      <trkpt lat="42.6201300" lon="1.5350400">
        <ele>1567.4</ele>
        <time>2021-08-09T11:16:32Z</time>
      </trkpt>
      <trkpt lat="42.6201390" lon="1.5350210">
        <ele>1567.1</ele>
        <time>2021-08-09T11:16:34Z</time>
      </trkpt>
      <trkpt lat="42.6201540" lon="1.5349890">
        <ele>1566.8</ele>
        <time>2021-08-09T11:16:37Z</time>
      </trkpt>
      <trkpt lat="42.6201560" lon="1.5349780">
        <ele>1566.8</ele>
        <time>2021-08-09T11:16:38Z</time>
      </trkpt>
      <trkpt lat="42.6201630" lon="1.5349580">
        <ele>1567.8</ele>
        <time>2021-08-09T11:16:40Z</time>
      </trkpt>
      <trkpt lat="42.6201690" lon="1.5349490">
        <ele>1567.5</ele>
        <time>2021-08-09T11:16:41Z</time>
      </trkpt>
      <trkpt lat="42.6201980" lon="1.5349150">
        <ele>1568.5</ele>
        <time>2021-08-09T11:16:45Z</time>
      </trkpt>
      <trkpt lat="42.6202140" lon="1.5349040">
        <ele>1568.1</ele>
        <time>2021-08-09T11:16:47Z</time>
      </trkpt>
      <trkpt lat="42.6203720" lon="1.5347590">
        <ele>1572.2</ele>
        <time>2021-08-09T11:17:05Z</time>
      </trkpt>
      <trkpt lat="42.6204700" lon="1.5346480">
        <ele>1573.5</ele>
        <time>2021-08-09T11:17:19Z</time>
      </trkpt>
      <trkpt lat="42.6205170" lon="1.5345880">
        <ele>1575.0</ele>
        <time>2021-08-09T11:17:26Z</time>
      </trkpt>
      <trkpt lat="42.6206190" lon="1.5344800">
        <ele>1576.8</ele>
        <time>2021-08-09T11:17:40Z</time>
      </trkpt>
      <trkpt lat="42.6206690" lon="1.5344130">
        <ele>1578.4</ele>
        <time>2021-08-09T11:17:47Z</time>
      </trkpt>
      <trkpt lat="42.6207060" lon="1.5343160">
        <ele>1578.4</ele>
        <time>2021-08-09T11:17:56Z</time>
      </trkpt>
      <trkpt lat="42.6207710" lon="1.5342110">
        <ele>1579.4</ele>
        <time>2021-08-09T11:18:07Z</time>
      </trkpt>
      <trkpt lat="42.6207980" lon="1.5341160">
        <ele>1579.9</ele>
        <time>2021-08-09T11:18:16Z</time>
      </trkpt>
      <trkpt lat="42.6208320" lon="1.5339940">
        <ele>1580.0</ele>
        <time>2021-08-09T11:18:27Z</time>
      </trkpt>
      <trkpt lat="42.6209530" lon="1.5338100">
        <ele>1582.9</ele>
        <time>2021-08-09T11:18:45Z</time>
      </trkpt>
      <trkpt lat="42.6210460" lon="1.5335990">
        <ele>1584.9</ele>
        <time>2021-08-09T11:19:05Z</time>
      </trkpt>
      <trkpt lat="42.6210850" lon="1.5334840">
        <ele>1585.5</ele>
        <time>2021-08-09T11:19:15Z</time>
      </trkpt>
      <trkpt lat="42.6211610" lon="1.5333180">
        <ele>1587.1</ele>
        <time>2021-08-09T11:19:31Z</time>
      </trkpt>
      <trkpt lat="42.6211950" lon="1.5332430">
        <ele>1588.0</ele>
        <time>2021-08-09T11:19:38Z</time>
      </trkpt>
      <trkpt lat="42.6212370" lon="1.5331190">
        <ele>1589.4</ele>
        <time>2021-08-09T11:19:49Z</time>
      </trkpt>
      <trkpt lat="42.6213420" lon="1.5329160">
        <ele>1591.8</ele>
        <time>2021-08-09T11:20:07Z</time>
      </trkpt>
      <trkpt lat="42.6214470" lon="1.5327180">
        <ele>1594.6</ele>
        <time>2021-08-09T11:20:25Z</time>
      </trkpt>
      <trkpt lat="42.6214740" lon="1.5325390">
        <ele>1595.3</ele>
        <time>2021-08-09T11:20:40Z</time>
      </trkpt>
      <trkpt lat="42.6215000" lon="1.5324710">
        <ele>1596.0</ele>
        <time>2021-08-09T11:20:46Z</time>
      </trkpt>
      <trkpt lat="42.6215010" lon="1.5324570">
        <ele>1596.0</ele>
        <time>2021-08-09T11:20:47Z</time>
      </trkpt>
      <trkpt lat="42.6215100" lon="1.5324480">
        <ele>1596.0</ele>
        <time>2021-08-09T11:20:48Z</time>
      </trkpt>
      <trkpt lat="42.6215130" lon="1.5324360">
        <ele>1596.0</ele>
        <time>2021-08-09T11:20:49Z</time>
      </trkpt>
      <trkpt lat="42.6215150" lon="1.5324230">
        <ele>1596.0</ele>
        <time>2021-08-09T11:20:50Z</time>
      </trkpt>
      <trkpt lat="42.6215190" lon="1.5323980">
        <ele>1596.7</ele>
        <time>2021-08-09T11:20:52Z</time>
      </trkpt>
      <trkpt lat="42.6215470" lon="1.5322980">
        <ele>1596.8</ele>
        <time>2021-08-09T11:21:00Z</time>
      </trkpt>
      <trkpt lat="42.6215510" lon="1.5322890">
        <ele>1597.5</ele>
        <time>2021-08-09T11:21:01Z</time>
      </trkpt>
      <trkpt lat="42.6215550" lon="1.5322770">
        <ele>1597.5</ele>
        <time>2021-08-09T11:21:02Z</time>
      </trkpt>
      <trkpt lat="42.6215590" lon="1.5322690">
        <ele>1597.6</ele>
        <time>2021-08-09T11:21:03Z</time>
      </trkpt>
      <trkpt lat="42.6215720" lon="1.5322510">
        <ele>1597.6</ele>
        <time>2021-08-09T11:21:05Z</time>
      </trkpt>
      <trkpt lat="42.6215810" lon="1.5322070">
        <ele>1597.7</ele>
        <time>2021-08-09T11:21:09Z</time>
      </trkpt>
      <trkpt lat="42.6215790" lon="1.5321450">
        <ele>1598.1</ele>
        <time>2021-08-09T11:21:14Z</time>
      </trkpt>
      <trkpt lat="42.6215800" lon="1.5321330">
        <ele>1598.1</ele>
        <time>2021-08-09T11:21:15Z</time>
      </trkpt>
      <trkpt lat="42.6215790" lon="1.5321170">
        <ele>1598.3</ele>
        <time>2021-08-09T11:21:16Z</time>
      </trkpt>
      <trkpt lat="42.6215810" lon="1.5320550">
        <ele>1598.6</ele>
        <time>2021-08-09T11:21:20Z</time>
      </trkpt>
      <trkpt lat="42.6215870" lon="1.5320330">
        <ele>1599.4</ele>
        <time>2021-08-09T11:21:22Z</time>
      </trkpt>
      <trkpt lat="42.6215920" lon="1.5319860">
        <ele>1599.7</ele>
        <time>2021-08-09T11:21:25Z</time>
      </trkpt>
      <trkpt lat="42.6215920" lon="1.5319710">
        <ele>1599.8</ele>
        <time>2021-08-09T11:21:26Z</time>
      </trkpt>
      <trkpt lat="42.6216010" lon="1.5319170">
        <ele>1600.1</ele>
        <time>2021-08-09T11:21:30Z</time>
      </trkpt>
      <trkpt lat="42.6216050" lon="1.5318880">
        <ele>1600.5</ele>
        <time>2021-08-09T11:21:32Z</time>
      </trkpt>
      <trkpt lat="42.6216070" lon="1.5318740">
        <ele>1600.5</ele>
        <time>2021-08-09T11:21:33Z</time>
      </trkpt>
      <trkpt lat="42.6216100" lon="1.5318610">
        <ele>1600.9</ele>
        <time>2021-08-09T11:21:34Z</time>
      </trkpt>
      <trkpt lat="42.6216580" lon="1.5316500">
        <ele>1603.3</ele>
        <time>2021-08-09T11:21:51Z</time>
      </trkpt>
      <trkpt lat="42.6216600" lon="1.5314300">
        <ele>1605.6</ele>
        <time>2021-08-09T11:22:14Z</time>
      </trkpt>
      <trkpt lat="42.6217070" lon="1.5312890">
        <ele>1607.3</ele>
        <time>2021-08-09T11:22:38Z</time>
      </trkpt>
      <trkpt lat="42.6217130" lon="1.5312970">
        <ele>1607.6</ele>
        <time>2021-08-09T11:22:39Z</time>
      </trkpt>
      <trkpt lat="42.6217180" lon="1.5313000">
        <ele>1607.6</ele>
        <time>2021-08-09T11:22:40Z</time>
      </trkpt>
      <trkpt lat="42.6218900" lon="1.5312830">
        <ele>1609.7</ele>
        <time>2021-08-09T11:23:14Z</time>
      </trkpt>
      <trkpt lat="42.6219090" lon="1.5312770">
        <ele>1610.3</ele>
        <time>2021-08-09T11:23:19Z</time>
      </trkpt>
      <trkpt lat="42.6219230" lon="1.5312700">
        <ele>1610.3</ele>
        <time>2021-08-09T11:23:24Z</time>
      </trkpt>
      <trkpt lat="42.6219190" lon="1.5311050">
        <ele>1611.8</ele>
        <time>2021-08-09T11:24:08Z</time>
      </trkpt>
      <trkpt lat="42.6219340" lon="1.5310540">
        <ele>1612.8</ele>
        <time>2021-08-09T11:24:19Z</time>
      </trkpt>
      <trkpt lat="42.6219270" lon="1.5310430">
        <ele>1612.7</ele>
        <time>2021-08-09T11:24:24Z</time>
      </trkpt>
      <trkpt lat="42.6219270" lon="1.5310350">
        <ele>1612.7</ele>
        <time>2021-08-09T11:24:30Z</time>
      </trkpt>
      <trkpt lat="42.6219390" lon="1.5310480">
        <ele>1612.9</ele>
        <time>2021-08-09T11:24:38Z</time>
      </trkpt>
      <trkpt lat="42.6219970" lon="1.5310230">
        <ele>1614.7</ele>
        <time>2021-08-09T11:24:47Z</time>
      </trkpt>
      <trkpt lat="42.6220260" lon="1.5309920">
        <ele>1615.8</ele>
        <time>2021-08-09T11:25:04Z</time>
      </trkpt>
      <trkpt lat="42.6220230" lon="1.5309340">
        <ele>1615.7</ele>
        <time>2021-08-09T11:25:13Z</time>
      </trkpt>
      <trkpt lat="42.6220060" lon="1.5309130">
        <ele>1616.2</ele>
        <time>2021-08-09T11:25:16Z</time>
      </trkpt>
      <trkpt lat="42.6220180" lon="1.5308530">
        <ele>1616.8</ele>
        <time>2021-08-09T11:25:23Z</time>
      </trkpt>
      <trkpt lat="42.6220280" lon="1.5308370">
        <ele>1617.4</ele>
        <time>2021-08-09T11:25:26Z</time>
      </trkpt>
      <trkpt lat="42.6220570" lon="1.5307980">
        <ele>1618.5</ele>
        <time>2021-08-09T11:25:35Z</time>
      </trkpt>
      <trkpt lat="42.6220510" lon="1.5307960">
        <ele>1618.0</ele>
        <time>2021-08-09T11:25:36Z</time>
      </trkpt>
      <trkpt lat="42.6220470" lon="1.5307980">
        <ele>1618.0</ele>
        <time>2021-08-09T11:25:39Z</time>
      </trkpt>
      <trkpt lat="42.6220460" lon="1.5307980">
        <ele>1618.0</ele>
        <time>2021-08-09T11:25:40Z</time>
      </trkpt>
      <trkpt lat="42.6220440" lon="1.5307950">
        <ele>1618.1</ele>
        <time>2021-08-09T11:25:41Z</time>
      </trkpt>
      <trkpt lat="42.6220480" lon="1.5307750">
        <ele>1618.6</ele>
        <time>2021-08-09T11:25:43Z</time>
      </trkpt>
      <trkpt lat="42.6220510" lon="1.5307700">
        <ele>1618.6</ele>
        <time>2021-08-09T11:25:44Z</time>
      </trkpt>
      <trkpt lat="42.6220610" lon="1.5307240">
        <ele>1619.8</ele>
        <time>2021-08-09T11:25:54Z</time>
      </trkpt>
      <trkpt lat="42.6220600" lon="1.5306960">
        <ele>1620.3</ele>
        <time>2021-08-09T11:26:02Z</time>
      </trkpt>
      <trkpt lat="42.6220580" lon="1.5307000">
        <ele>1620.4</ele>
        <time>2021-08-09T11:26:12Z</time>
      </trkpt>
      <trkpt lat="42.6220620" lon="1.5307110">
        <ele>1619.8</ele>
        <time>2021-08-09T11:26:26Z</time>
      </trkpt>
      <trkpt lat="42.6220730" lon="1.5306780">
        <ele>1620.4</ele>
        <time>2021-08-09T11:26:36Z</time>
      </trkpt>
      <trkpt lat="42.6220700" lon="1.5306560">
        <ele>1621.0</ele>
        <time>2021-08-09T11:26:43Z</time>
      </trkpt>
      <trkpt lat="42.6220680" lon="1.5306400">
        <ele>1621.1</ele>
        <time>2021-08-09T11:26:46Z</time>
      </trkpt>
      <trkpt lat="42.6220690" lon="1.5306240">
        <ele>1621.1</ele>
        <time>2021-08-09T11:26:49Z</time>
      </trkpt>
      <trkpt lat="42.6220790" lon="1.5305970">
        <ele>1621.8</ele>
        <time>2021-08-09T11:26:55Z</time>
      </trkpt>
      <trkpt lat="42.6220790" lon="1.5305900">
        <ele>1621.8</ele>
        <time>2021-08-09T11:26:56Z</time>
      </trkpt>
      <trkpt lat="42.6220690" lon="1.5305710">
        <ele>1622.5</ele>
        <time>2021-08-09T11:27:00Z</time>
      </trkpt>
      <trkpt lat="42.6220700" lon="1.5305550">
        <ele>1622.5</ele>
        <time>2021-08-09T11:27:02Z</time>
      </trkpt>
      <trkpt lat="42.6220560" lon="1.5305180">
        <ele>1623.3</ele>
        <time>2021-08-09T11:27:06Z</time>
      </trkpt>
      <trkpt lat="42.6220550" lon="1.5305050">
        <ele>1623.3</ele>
        <time>2021-08-09T11:27:07Z</time>
      </trkpt>
      <trkpt lat="42.6220390" lon="1.5304710">
        <ele>1623.6</ele>
        <time>2021-08-09T11:27:10Z</time>
      </trkpt>
      <trkpt lat="42.6220260" lon="1.5304280">
        <ele>1624.4</ele>
        <time>2021-08-09T11:27:15Z</time>
      </trkpt>
      <trkpt lat="42.6220220" lon="1.5304060">
        <ele>1623.9</ele>
        <time>2021-08-09T11:27:17Z</time>
      </trkpt>
      <trkpt lat="42.6220220" lon="1.5303970">
        <ele>1624.7</ele>
        <time>2021-08-09T11:27:18Z</time>
      </trkpt>
      <trkpt lat="42.6220230" lon="1.5303860">
        <ele>1624.7</ele>
        <time>2021-08-09T11:27:19Z</time>
      </trkpt>
      <trkpt lat="42.6220190" lon="1.5303490">
        <ele>1625.5</ele>
        <time>2021-08-09T11:27:22Z</time>
      </trkpt>
      <trkpt lat="42.6220640" lon="1.5301880">
        <ele>1629.4</ele>
        <time>2021-08-09T11:27:45Z</time>
      </trkpt>
      <trkpt lat="42.6220860" lon="1.5301080">
        <ele>1630.2</ele>
        <time>2021-08-09T11:27:56Z</time>
      </trkpt>
      <trkpt lat="42.6220820" lon="1.5299980">
        <ele>1633.1</ele>
        <time>2021-08-09T11:28:18Z</time>
      </trkpt>
      <trkpt lat="42.6220790" lon="1.5299070">
        <ele>1635.1</ele>
        <time>2021-08-09T11:28:37Z</time>
      </trkpt>
      <trkpt lat="42.6220330" lon="1.5296720">
        <ele>1640.7</ele>
        <time>2021-08-09T11:29:06Z</time>
      </trkpt>
      <trkpt lat="42.6219320" lon="1.5295470">
        <ele>1641.7</ele>
        <time>2021-08-09T11:29:35Z</time>
      </trkpt>
      <trkpt lat="42.6218020" lon="1.5294240">
        <ele>1643.7</ele>
        <time>2021-08-09T11:30:05Z</time>
      </trkpt>
      <trkpt lat="42.6217870" lon="1.5294160">
        <ele>1644.7</ele>
        <time>2021-08-09T11:30:11Z</time>
      </trkpt>
      <trkpt lat="42.6217750" lon="1.5294190">
        <ele>1643.7</ele>
        <time>2021-08-09T11:30:13Z</time>
      </trkpt>
      <trkpt lat="42.6217590" lon="1.5294340">
        <ele>1643.7</ele>
        <time>2021-08-09T11:30:16Z</time>
      </trkpt>
      <trkpt lat="42.6217010" lon="1.5294620">
        <ele>1642.8</ele>
        <time>2021-08-09T11:30:26Z</time>
      </trkpt>
      <trkpt lat="42.6216790" lon="1.5294610">
        <ele>1642.9</ele>
        <time>2021-08-09T11:30:30Z</time>
      </trkpt>
      <trkpt lat="42.6216520" lon="1.5294640">
        <ele>1643.1</ele>
        <time>2021-08-09T11:30:37Z</time>
      </trkpt>
      <trkpt lat="42.6216450" lon="1.5294640">
        <ele>1643.1</ele>
        <time>2021-08-09T11:30:39Z</time>
      </trkpt>
      <trkpt lat="42.6216890" lon="1.5292340">
        <ele>1648.9</ele>
        <time>2021-08-09T11:31:22Z</time>
      </trkpt>
      <trkpt lat="42.6217070" lon="1.5290170">
        <ele>1653.8</ele>
        <time>2021-08-09T11:32:07Z</time>
      </trkpt>
      <trkpt lat="42.6217090" lon="1.5289780">
        <ele>1654.7</ele>
        <time>2021-08-09T11:32:12Z</time>
      </trkpt>
      <trkpt lat="42.6217120" lon="1.5289700">
        <ele>1654.7</ele>
        <time>2021-08-09T11:32:14Z</time>
      </trkpt>
      <trkpt lat="42.6217380" lon="1.5289490">
        <ele>1654.7</ele>
        <time>2021-08-09T11:32:19Z</time>
      </trkpt>
      <trkpt lat="42.6217420" lon="1.5289440">
        <ele>1655.6</ele>
        <time>2021-08-09T11:32:20Z</time>
      </trkpt>
      <trkpt lat="42.6217450" lon="1.5289380">
        <ele>1655.6</ele>
        <time>2021-08-09T11:32:21Z</time>
      </trkpt>
      <trkpt lat="42.6217480" lon="1.5289350">
        <ele>1655.7</ele>
        <time>2021-08-09T11:32:22Z</time>
      </trkpt>
      <trkpt lat="42.6217470" lon="1.5289180">
        <ele>1655.7</ele>
        <time>2021-08-09T11:32:24Z</time>
      </trkpt>
      <trkpt lat="42.6217580" lon="1.5288780">
        <ele>1656.5</ele>
        <time>2021-08-09T11:32:30Z</time>
      </trkpt>
      <trkpt lat="42.6217730" lon="1.5286870">
        <ele>1660.6</ele>
        <time>2021-08-09T11:33:01Z</time>
      </trkpt>
      <trkpt lat="42.6217640" lon="1.5286240">
        <ele>1661.1</ele>
        <time>2021-08-09T11:33:14Z</time>
      </trkpt>
      <trkpt lat="42.6217790" lon="1.5285670">
        <ele>1662.2</ele>
        <time>2021-08-09T11:33:23Z</time>
      </trkpt>
      <trkpt lat="42.6218250" lon="1.5283270">
        <ele>1666.1</ele>
        <time>2021-08-09T11:34:04Z</time>
      </trkpt>
      <trkpt lat="42.6219420" lon="1.5281440">
        <ele>1671.1</ele>
        <time>2021-08-09T11:34:33Z</time>
      </trkpt>
      <trkpt lat="42.6219480" lon="1.5281320">
        <ele>1671.1</ele>
        <time>2021-08-09T11:34:34Z</time>
      </trkpt>
      <trkpt lat="42.6219560" lon="1.5281180">
        <ele>1671.7</ele>
        <time>2021-08-09T11:34:36Z</time>
      </trkpt>
      <trkpt lat="42.6220170" lon="1.5280030">
        <ele>1674.0</ele>
        <time>2021-08-09T11:34:51Z</time>
      </trkpt>
      <trkpt lat="42.6220540" lon="1.5279560">
        <ele>1675.6</ele>
        <time>2021-08-09T11:35:00Z</time>
      </trkpt>
      <trkpt lat="42.6220680" lon="1.5278560">
        <ele>1677.1</ele>
        <time>2021-08-09T11:35:09Z</time>
      </trkpt>
      <trkpt lat="42.6221060" lon="1.5276600">
        <ele>1679.5</ele>
        <time>2021-08-09T11:35:37Z</time>
      </trkpt>
      <trkpt lat="42.6221480" lon="1.5275280">
        <ele>1681.4</ele>
        <time>2021-08-09T11:35:54Z</time>
      </trkpt>
      <trkpt lat="42.6221480" lon="1.5275220">
        <ele>1681.4</ele>
        <time>2021-08-09T11:35:55Z</time>
      </trkpt>
      <trkpt lat="42.6221510" lon="1.5275130">
        <ele>1681.9</ele>
        <time>2021-08-09T11:35:56Z</time>
      </trkpt>
      <trkpt lat="42.6221530" lon="1.5275060">
        <ele>1681.9</ele>
        <time>2021-08-09T11:35:57Z</time>
      </trkpt>
      <trkpt lat="42.6221560" lon="1.5274760">
        <ele>1682.3</ele>
        <time>2021-08-09T11:36:01Z</time>
      </trkpt>
      <trkpt lat="42.6221640" lon="1.5274280">
        <ele>1682.6</ele>
        <time>2021-08-09T11:36:05Z</time>
      </trkpt>
      <trkpt lat="42.6222000" lon="1.5273590">
        <ele>1683.4</ele>
        <time>2021-08-09T11:36:14Z</time>
      </trkpt>
      <trkpt lat="42.6222120" lon="1.5273370">
        <ele>1683.7</ele>
        <time>2021-08-09T11:36:17Z</time>
      </trkpt>
      <trkpt lat="42.6222480" lon="1.5273020">
        <ele>1684.9</ele>
        <time>2021-08-09T11:36:24Z</time>
      </trkpt>
      <trkpt lat="42.6223130" lon="1.5272810">
        <ele>1685.6</ele>
        <time>2021-08-09T11:37:03Z</time>
      </trkpt>
      <trkpt lat="42.6223300" lon="1.5273600">
        <ele>1685.0</ele>
        <time>2021-08-09T11:37:17Z</time>
      </trkpt>
      <trkpt lat="42.6223360" lon="1.5273400">
        <ele>1685.3</ele>
        <time>2021-08-09T11:37:25Z</time>
      </trkpt>
      <trkpt lat="42.6223380" lon="1.5273360">
        <ele>1685.4</ele>
        <time>2021-08-09T11:37:30Z</time>
      </trkpt>
      <trkpt lat="42.6223360" lon="1.5273250">
        <ele>1685.4</ele>
        <time>2021-08-09T11:37:35Z</time>
      </trkpt>
      <trkpt lat="42.6223350" lon="1.5273080">
        <ele>1685.7</ele>
        <time>2021-08-09T11:37:38Z</time>
      </trkpt>
      <trkpt lat="42.6223370" lon="1.5273070">
        <ele>1685.7</ele>
        <time>2021-08-09T11:37:39Z</time>
      </trkpt>
      <trkpt lat="42.6223340" lon="1.5273100">
        <ele>1685.8</ele>
        <time>2021-08-09T11:37:43Z</time>
      </trkpt>
      <trkpt lat="42.6223300" lon="1.5273100">
        <ele>1685.8</ele>
        <time>2021-08-09T11:37:44Z</time>
      </trkpt>
      <trkpt lat="42.6223270" lon="1.5273050">
        <ele>1685.8</ele>
        <time>2021-08-09T11:37:45Z</time>
      </trkpt>
      <trkpt lat="42.6223270" lon="1.5272930">
        <ele>1685.8</ele>
        <time>2021-08-09T11:37:48Z</time>
      </trkpt>
      <trkpt lat="42.6223310" lon="1.5272890">
        <ele>1685.9</ele>
        <time>2021-08-09T11:37:49Z</time>
      </trkpt>
      <trkpt lat="42.6223340" lon="1.5272860">
        <ele>1685.9</ele>
        <time>2021-08-09T11:37:50Z</time>
      </trkpt>
      <trkpt lat="42.6223500" lon="1.5272750">
        <ele>1686.2</ele>
        <time>2021-08-09T11:37:53Z</time>
      </trkpt>
      <trkpt lat="42.6223360" lon="1.5272630">
        <ele>1686.2</ele>
        <time>2021-08-09T11:38:00Z</time>
      </trkpt>
      <trkpt lat="42.6223260" lon="1.5272750">
        <ele>1686.0</ele>
        <time>2021-08-09T11:38:17Z</time>
      </trkpt>
      <trkpt lat="42.6223300" lon="1.5272700">
        <ele>1686.3</ele>
        <time>2021-08-09T11:38:34Z</time>
      </trkpt>
      <trkpt lat="42.6222760" lon="1.5272530">
        <ele>1686.0</ele>
        <time>2021-08-09T11:38:55Z</time>
      </trkpt>
      <trkpt lat="42.6222890" lon="1.5272420">
        <ele>1686.0</ele>
        <time>2021-08-09T11:39:06Z</time>
      </trkpt>
      <trkpt lat="42.6223910" lon="1.5272430">
        <ele>1686.9</ele>
        <time>2021-08-09T11:39:31Z</time>
      </trkpt>
      <trkpt lat="42.6223980" lon="1.5272550">
        <ele>1686.9</ele>
        <time>2021-08-09T11:39:37Z</time>
      </trkpt>
      <trkpt lat="42.6223890" lon="1.5272650">
        <ele>1686.9</ele>
        <time>2021-08-09T11:39:39Z</time>
      </trkpt>
      <trkpt lat="42.6223820" lon="1.5272700">
        <ele>1686.9</ele>
        <time>2021-08-09T11:39:40Z</time>
      </trkpt>
      <trkpt lat="42.6223470" lon="1.5272390">
        <ele>1686.7</ele>
        <time>2021-08-09T11:40:08Z</time>
      </trkpt>
      <trkpt lat="42.6223450" lon="1.5272390">
        <ele>1686.7</ele>
        <time>2021-08-09T11:40:13Z</time>
      </trkpt>
      <trkpt lat="42.6223420" lon="1.5272430">
        <ele>1686.8</ele>
        <time>2021-08-09T11:40:25Z</time>
      </trkpt>
      <trkpt lat="42.6223570" lon="1.5272520">
        <ele>1686.8</ele>
        <time>2021-08-09T11:40:31Z</time>
      </trkpt>
      <trkpt lat="42.6223690" lon="1.5272600">
        <ele>1686.8</ele>
        <time>2021-08-09T11:40:34Z</time>
      </trkpt>
      <trkpt lat="42.6223720" lon="1.5272620">
        <ele>1687.1</ele>
        <time>2021-08-09T11:40:35Z</time>
      </trkpt>
      <trkpt lat="42.6223740" lon="1.5272680">
        <ele>1687.1</ele>
        <time>2021-08-09T11:40:36Z</time>
      </trkpt>
      <trkpt lat="42.6223740" lon="1.5272810">
        <ele>1686.9</ele>
        <time>2021-08-09T11:40:38Z</time>
      </trkpt>
      <trkpt lat="42.6224110" lon="1.5272640">
        <ele>1687.4</ele>
        <time>2021-08-09T11:40:49Z</time>
      </trkpt>
      <trkpt lat="42.6224080" lon="1.5272640">
        <ele>1687.5</ele>
        <time>2021-08-09T11:40:53Z</time>
      </trkpt>
      <trkpt lat="42.6224110" lon="1.5272540">
        <ele>1687.5</ele>
        <time>2021-08-09T11:40:55Z</time>
      </trkpt>
      <trkpt lat="42.6224100" lon="1.5271970">
        <ele>1687.8</ele>
        <time>2021-08-09T11:41:02Z</time>
      </trkpt>
      <trkpt lat="42.6224210" lon="1.5271770">
        <ele>1688.0</ele>
        <time>2021-08-09T11:41:05Z</time>
      </trkpt>
      <trkpt lat="42.6224300" lon="1.5271700">
        <ele>1688.0</ele>
        <time>2021-08-09T11:41:07Z</time>
      </trkpt>
      <trkpt lat="42.6224520" lon="1.5271610">
        <ele>1688.3</ele>
        <time>2021-08-09T11:41:10Z</time>
      </trkpt>
      <trkpt lat="42.6224610" lon="1.5271560">
        <ele>1688.3</ele>
        <time>2021-08-09T11:41:12Z</time>
      </trkpt>
      <trkpt lat="42.6224870" lon="1.5271580">
        <ele>1688.6</ele>
        <time>2021-08-09T11:41:16Z</time>
      </trkpt>
      <trkpt lat="42.6225750" lon="1.5271690">
        <ele>1689.4</ele>
        <time>2021-08-09T11:41:35Z</time>
      </trkpt>
      <trkpt lat="42.6226500" lon="1.5271310">
        <ele>1690.1</ele>
        <time>2021-08-09T11:42:02Z</time>
      </trkpt>
      <trkpt lat="42.6227650" lon="1.5270750">
        <ele>1692.0</ele>
        <time>2021-08-09T11:42:25Z</time>
      </trkpt>
      <trkpt lat="42.6229270" lon="1.5270460">
        <ele>1695.1</ele>
        <time>2021-08-09T11:43:08Z</time>
      </trkpt>
      <trkpt lat="42.6230500" lon="1.5269790">
        <ele>1697.9</ele>
        <time>2021-08-09T11:43:37Z</time>
      </trkpt>
      <trkpt lat="42.6231320" lon="1.5269070">
        <ele>1700.7</ele>
        <time>2021-08-09T11:43:57Z</time>
      </trkpt>
      <trkpt lat="42.6231440" lon="1.5269100">
        <ele>1700.8</ele>
        <time>2021-08-09T11:44:12Z</time>
      </trkpt>
      <trkpt lat="42.6231310" lon="1.5269250">
        <ele>1700.8</ele>
        <time>2021-08-09T11:44:18Z</time>
      </trkpt>
      <trkpt lat="42.6231300" lon="1.5269220">
        <ele>1700.8</ele>
        <time>2021-08-09T11:44:21Z</time>
      </trkpt>
      <trkpt lat="42.6231280" lon="1.5269150">
        <ele>1700.1</ele>
        <time>2021-08-09T11:44:24Z</time>
      </trkpt>
      <trkpt lat="42.6231270" lon="1.5269120">
        <ele>1700.1</ele>
        <time>2021-08-09T11:44:32Z</time>
      </trkpt>
      <trkpt lat="42.6231300" lon="1.5269100">
        <ele>1700.9</ele>
        <time>2021-08-09T11:44:35Z</time>
      </trkpt>
      <trkpt lat="42.6231300" lon="1.5269100">
        <ele>1700.9</ele>
        <time>2021-08-09T11:44:36Z</time>
      </trkpt>
      <trkpt lat="42.6231300" lon="1.5269100">
        <ele>1700.9</ele>
        <time>2021-08-09T11:44:37Z</time>
      </trkpt>
      <trkpt lat="42.6231310" lon="1.5269090">
        <ele>1701.0</ele>
        <time>2021-08-09T11:44:38Z</time>
      </trkpt>
      <trkpt lat="42.6231340" lon="1.5269100">
        <ele>1701.0</ele>
        <time>2021-08-09T11:44:45Z</time>
      </trkpt>
      <trkpt lat="42.6231470" lon="1.5269210">
        <ele>1701.0</ele>
        <time>2021-08-09T11:44:55Z</time>
      </trkpt>
      <trkpt lat="42.6231590" lon="1.5269220">
        <ele>1701.0</ele>
        <time>2021-08-09T11:45:02Z</time>
      </trkpt>
      <trkpt lat="42.6231590" lon="1.5269220">
        <ele>1701.1</ele>
        <time>2021-08-09T11:45:05Z</time>
      </trkpt>
      <trkpt lat="42.6231590" lon="1.5269220">
        <ele>1701.1</ele>
        <time>2021-08-09T11:45:08Z</time>
      </trkpt>
      <trkpt lat="42.6231590" lon="1.5269220">
        <ele>1701.1</ele>
        <time>2021-08-09T11:45:11Z</time>
      </trkpt>
      <trkpt lat="42.6231590" lon="1.5269200">
        <ele>1701.1</ele>
        <time>2021-08-09T11:45:15Z</time>
      </trkpt>
      <trkpt lat="42.6231600" lon="1.5269190">
        <ele>1701.9</ele>
        <time>2021-08-09T11:45:20Z</time>
      </trkpt>
      <trkpt lat="42.6231660" lon="1.5269090">
        <ele>1701.9</ele>
        <time>2021-08-09T11:45:26Z</time>
      </trkpt>
      <trkpt lat="42.6231730" lon="1.5269050">
        <ele>1702.0</ele>
        <time>2021-08-09T11:45:33Z</time>
      </trkpt>
      <trkpt lat="42.6231750" lon="1.5269090">
        <ele>1702.0</ele>
        <time>2021-08-09T11:45:40Z</time>
      </trkpt>
      <trkpt lat="42.6231650" lon="1.5268480">
        <ele>1702.3</ele>
        <time>2021-08-09T11:45:47Z</time>
      </trkpt>
      <trkpt lat="42.6231430" lon="1.5268490">
        <ele>1701.6</ele>
        <time>2021-08-09T11:45:55Z</time>
      </trkpt>
      <trkpt lat="42.6231430" lon="1.5268760">
        <ele>1701.6</ele>
        <time>2021-08-09T11:46:26Z</time>
      </trkpt>
      <trkpt lat="42.6231440" lon="1.5268610">
        <ele>1701.6</ele>
        <time>2021-08-09T11:46:38Z</time>
      </trkpt>
      <trkpt lat="42.6231430" lon="1.5268600">
        <ele>1701.7</ele>
        <time>2021-08-09T11:46:41Z</time>
      </trkpt>
      <trkpt lat="42.6231430" lon="1.5268590">
        <ele>1701.7</ele>
        <time>2021-08-09T11:46:46Z</time>
      </trkpt>
      <trkpt lat="42.6231510" lon="1.5268650">
        <ele>1701.7</ele>
        <time>2021-08-09T11:47:15Z</time>
      </trkpt>
      <trkpt lat="42.6231550" lon="1.5268760">
        <ele>1701.7</ele>
        <time>2021-08-09T11:47:39Z</time>
      </trkpt>
      <trkpt lat="42.6230970" lon="1.5267800">
        <ele>1701.5</ele>
        <time>2021-08-09T11:48:20Z</time>
      </trkpt>
      <trkpt lat="42.6231000" lon="1.5267740">
        <ele>1701.6</ele>
        <time>2021-08-09T11:48:26Z</time>
      </trkpt>
      <trkpt lat="42.6231040" lon="1.5267750">
        <ele>1701.6</ele>
        <time>2021-08-09T11:48:32Z</time>
      </trkpt>
      <trkpt lat="42.6231030" lon="1.5267740">
        <ele>1701.6</ele>
        <time>2021-08-09T11:48:33Z</time>
      </trkpt>
      <trkpt lat="42.6231690" lon="1.5269380">
        <ele>1702.0</ele>
        <time>2021-08-09T11:54:19Z</time>
      </trkpt>
      <trkpt lat="42.6231690" lon="1.5269380">
        <ele>1702.0</ele>
        <time>2021-08-09T11:54:20Z</time>
      </trkpt>
      <trkpt lat="42.6231780" lon="1.5269230">
        <ele>1702.4</ele>
        <time>2021-08-09T11:54:25Z</time>
      </trkpt>
      <trkpt lat="42.6231840" lon="1.5268940">
        <ele>1702.4</ele>
        <time>2021-08-09T11:54:29Z</time>
      </trkpt>
      <trkpt lat="42.6231920" lon="1.5268780">
        <ele>1703.4</ele>
        <time>2021-08-09T11:54:31Z</time>
      </trkpt>
      <trkpt lat="42.6231950" lon="1.5268760">
        <ele>1703.5</ele>
        <time>2021-08-09T11:54:32Z</time>
      </trkpt>
      <trkpt lat="42.6232030" lon="1.5268690">
        <ele>1703.5</ele>
        <time>2021-08-09T11:54:34Z</time>
      </trkpt>
      <trkpt lat="42.6232280" lon="1.5268460">
        <ele>1704.3</ele>
        <time>2021-08-09T11:54:40Z</time>
      </trkpt>
      <trkpt lat="42.6232510" lon="1.5268350">
        <ele>1704.6</ele>
        <time>2021-08-09T11:54:43Z</time>
      </trkpt>
      <trkpt lat="42.6232510" lon="1.5268270">
        <ele>1704.6</ele>
        <time>2021-08-09T11:54:45Z</time>
      </trkpt>
      <trkpt lat="42.6233010" lon="1.5268370">
        <ele>1706.3</ele>
        <time>2021-08-09T11:55:05Z</time>
      </trkpt>
      <trkpt lat="42.6233020" lon="1.5268370">
        <ele>1706.3</ele>
        <time>2021-08-09T11:55:06Z</time>
      </trkpt>
      <trkpt lat="42.6233000" lon="1.5268390">
        <ele>1706.3</ele>
        <time>2021-08-09T11:55:07Z</time>
      </trkpt>
      <trkpt lat="42.6233160" lon="1.5268350">
        <ele>1706.3</ele>
        <time>2021-08-09T11:55:11Z</time>
      </trkpt>
      <trkpt lat="42.6233360" lon="1.5268170">
        <ele>1707.3</ele>
        <time>2021-08-09T11:55:15Z</time>
      </trkpt>
      <trkpt lat="42.6233430" lon="1.5268120">
        <ele>1707.3</ele>
        <time>2021-08-09T11:55:18Z</time>
      </trkpt>
      <trkpt lat="42.6233460" lon="1.5268080">
        <ele>1707.3</ele>
        <time>2021-08-09T11:55:19Z</time>
      </trkpt>
      <trkpt lat="42.6233500" lon="1.5268060">
        <ele>1708.3</ele>
        <time>2021-08-09T11:55:21Z</time>
      </trkpt>
      <trkpt lat="42.6234050" lon="1.5267840">
        <ele>1709.6</ele>
        <time>2021-08-09T11:55:31Z</time>
      </trkpt>
      <trkpt lat="42.6235330" lon="1.5266290">
        <ele>1713.2</ele>
        <time>2021-08-09T11:56:04Z</time>
      </trkpt>
      <trkpt lat="42.6235820" lon="1.5265570">
        <ele>1714.7</ele>
        <time>2021-08-09T11:56:16Z</time>
      </trkpt>
      <trkpt lat="42.6237580" lon="1.5264910">
        <ele>1718.8</ele>
        <time>2021-08-09T11:56:42Z</time>
      </trkpt>
      <trkpt lat="42.6238750" lon="1.5263390">
        <ele>1721.6</ele>
        <time>2021-08-09T11:57:00Z</time>
      </trkpt>
      <trkpt lat="42.6239940" lon="1.5261520">
        <ele>1720.7</ele>
        <time>2021-08-09T11:57:26Z</time>
      </trkpt>
      <trkpt lat="42.6241220" lon="1.5259870">
        <ele>1721.3</ele>
        <time>2021-08-09T11:57:47Z</time>
      </trkpt>
      <trkpt lat="42.6243080" lon="1.5260150">
        <ele>1723.9</ele>
        <time>2021-08-09T11:58:18Z</time>
      </trkpt>
      <trkpt lat="42.6243210" lon="1.5260150">
        <ele>1724.0</ele>
        <time>2021-08-09T11:58:20Z</time>
      </trkpt>
      <trkpt lat="42.6243460" lon="1.5260100">
        <ele>1724.4</ele>
        <time>2021-08-09T11:58:23Z</time>
      </trkpt>
      <trkpt lat="42.6244430" lon="1.5259930">
        <ele>1725.6</ele>
        <time>2021-08-09T11:58:44Z</time>
      </trkpt>
      <trkpt lat="42.6245160" lon="1.5259260">
        <ele>1725.2</ele>
        <time>2021-08-09T11:58:59Z</time>
      </trkpt>
      <trkpt lat="42.6245340" lon="1.5259170">
        <ele>1725.6</ele>
        <time>2021-08-09T11:59:02Z</time>
      </trkpt>
      <trkpt lat="42.6245390" lon="1.5259060">
        <ele>1725.6</ele>
        <time>2021-08-09T11:59:03Z</time>
      </trkpt>
      <trkpt lat="42.6245520" lon="1.5258900">
        <ele>1725.4</ele>
        <time>2021-08-09T11:59:06Z</time>
      </trkpt>
      <trkpt lat="42.6245790" lon="1.5258790">
        <ele>1725.5</ele>
        <time>2021-08-09T11:59:10Z</time>
      </trkpt>
      <trkpt lat="42.6245990" lon="1.5258810">
        <ele>1725.8</ele>
        <time>2021-08-09T11:59:12Z</time>
      </trkpt>
      <trkpt lat="42.6246810" lon="1.5258850">
        <ele>1726.7</ele>
        <time>2021-08-09T11:59:19Z</time>
      </trkpt>
      <trkpt lat="42.6247150" lon="1.5258810">
        <ele>1727.0</ele>
        <time>2021-08-09T11:59:23Z</time>
      </trkpt>
      <trkpt lat="42.6247240" lon="1.5258830">
        <ele>1727.0</ele>
        <time>2021-08-09T11:59:24Z</time>
      </trkpt>
      <trkpt lat="42.6247520" lon="1.5259090">
        <ele>1727.7</ele>
        <time>2021-08-09T11:59:29Z</time>
      </trkpt>
      <trkpt lat="42.6247500" lon="1.5259180">
        <ele>1727.8</ele>
        <time>2021-08-09T11:59:30Z</time>
      </trkpt>
      <trkpt lat="42.6247470" lon="1.5259560">
        <ele>1728.2</ele>
        <time>2021-08-09T11:59:35Z</time>
      </trkpt>
      <trkpt lat="42.6247580" lon="1.5259960">
        <ele>1728.6</ele>
        <time>2021-08-09T11:59:39Z</time>
      </trkpt>
      <trkpt lat="42.6248550" lon="1.5260820">
        <ele>1729.7</ele>
        <time>2021-08-09T12:00:09Z</time>
      </trkpt>
      <trkpt lat="42.6248430" lon="1.5261050">
        <ele>1729.8</ele>
        <time>2021-08-09T12:00:14Z</time>
      </trkpt>
      <trkpt lat="42.6248420" lon="1.5261090">
        <ele>1729.8</ele>
        <time>2021-08-09T12:00:18Z</time>
      </trkpt>
      <trkpt lat="42.6248340" lon="1.5261110">
        <ele>1729.8</ele>
        <time>2021-08-09T12:00:23Z</time>
      </trkpt>
      <trkpt lat="42.6248290" lon="1.5261140">
        <ele>1730.1</ele>
        <time>2021-08-09T12:00:28Z</time>
      </trkpt>
      <trkpt lat="42.6248270" lon="1.5261140">
        <ele>1730.1</ele>
        <time>2021-08-09T12:00:32Z</time>
      </trkpt>
      <trkpt lat="42.6248220" lon="1.5261050">
        <ele>1729.8</ele>
        <time>2021-08-09T12:00:41Z</time>
      </trkpt>
      <trkpt lat="42.6248190" lon="1.5261010">
        <ele>1729.9</ele>
        <time>2021-08-09T12:00:45Z</time>
      </trkpt>
      <trkpt lat="42.6248250" lon="1.5261390">
        <ele>1730.2</ele>
        <time>2021-08-09T12:08:36Z</time>
      </trkpt>
      <trkpt lat="42.6248280" lon="1.5261460">
        <ele>1730.2</ele>
        <time>2021-08-09T12:08:37Z</time>
      </trkpt>
      <trkpt lat="42.6248400" lon="1.5261640">
        <ele>1730.5</ele>
        <time>2021-08-09T12:08:40Z</time>
      </trkpt>
      <trkpt lat="42.6248890" lon="1.5261820">
        <ele>1730.6</ele>
        <time>2021-08-09T12:08:45Z</time>
      </trkpt>
      <trkpt lat="42.6248980" lon="1.5261850">
        <ele>1730.6</ele>
        <time>2021-08-09T12:08:46Z</time>
      </trkpt>
      <trkpt lat="42.6249390" lon="1.5261800">
        <ele>1730.7</ele>
        <time>2021-08-09T12:08:50Z</time>
      </trkpt>
      <trkpt lat="42.6249640" lon="1.5261650">
        <ele>1730.7</ele>
        <time>2021-08-09T12:08:52Z</time>
      </trkpt>
      <trkpt lat="42.6249770" lon="1.5261630">
        <ele>1730.8</ele>
        <time>2021-08-09T12:08:53Z</time>
      </trkpt>
      <trkpt lat="42.6249860" lon="1.5261620">
        <ele>1730.8</ele>
        <time>2021-08-09T12:08:54Z</time>
      </trkpt>
      <trkpt lat="42.6250190" lon="1.5261390">
        <ele>1730.8</ele>
        <time>2021-08-09T12:08:57Z</time>
      </trkpt>
      <trkpt lat="42.6250860" lon="1.5260930">
        <ele>1730.9</ele>
        <time>2021-08-09T12:09:04Z</time>
      </trkpt>
      <trkpt lat="42.6251810" lon="1.5260360">
        <ele>1731.5</ele>
        <time>2021-08-09T12:09:14Z</time>
      </trkpt>
      <trkpt lat="42.6253320" lon="1.5258910">
        <ele>1732.4</ele>
        <time>2021-08-09T12:09:33Z</time>
      </trkpt>
      <trkpt lat="42.6253570" lon="1.5258730">
        <ele>1732.5</ele>
        <time>2021-08-09T12:09:36Z</time>
      </trkpt>
      <trkpt lat="42.6254800" lon="1.5256840">
        <ele>1733.4</ele>
        <time>2021-08-09T12:09:58Z</time>
      </trkpt>
      <trkpt lat="42.6256230" lon="1.5255400">
        <ele>1733.9</ele>
        <time>2021-08-09T12:10:15Z</time>
      </trkpt>
      <trkpt lat="42.6257820" lon="1.5254140">
        <ele>1733.9</ele>
        <time>2021-08-09T12:10:33Z</time>
      </trkpt>
      <trkpt lat="42.6259490" lon="1.5252980">
        <ele>1733.5</ele>
        <time>2021-08-09T12:10:52Z</time>
      </trkpt>
      <trkpt lat="42.6260230" lon="1.5251990">
        <ele>1733.4</ele>
        <time>2021-08-09T12:11:05Z</time>
      </trkpt>
      <trkpt lat="42.6260900" lon="1.5249670">
        <ele>1733.7</ele>
        <time>2021-08-09T12:11:23Z</time>
      </trkpt>
      <trkpt lat="42.6262170" lon="1.5247770">
        <ele>1735.1</ele>
        <time>2021-08-09T12:11:39Z</time>
      </trkpt>
      <trkpt lat="42.6262840" lon="1.5246530">
        <ele>1736.5</ele>
        <time>2021-08-09T12:11:54Z</time>
      </trkpt>
      <trkpt lat="42.6262950" lon="1.5246420">
        <ele>1736.7</ele>
        <time>2021-08-09T12:11:56Z</time>
      </trkpt>
      <trkpt lat="42.6263080" lon="1.5246230">
        <ele>1736.9</ele>
        <time>2021-08-09T12:11:58Z</time>
      </trkpt>
      <trkpt lat="42.6263180" lon="1.5246180">
        <ele>1737.1</ele>
        <time>2021-08-09T12:11:59Z</time>
      </trkpt>
      <trkpt lat="42.6263220" lon="1.5246060">
        <ele>1737.2</ele>
        <time>2021-08-09T12:12:00Z</time>
      </trkpt>
      <trkpt lat="42.6263290" lon="1.5245970">
        <ele>1737.4</ele>
        <time>2021-08-09T12:12:01Z</time>
      </trkpt>
      <trkpt lat="42.6263340" lon="1.5245810">
        <ele>1737.6</ele>
        <time>2021-08-09T12:12:02Z</time>
      </trkpt>
      <trkpt lat="42.6263410" lon="1.5245730">
        <ele>1737.7</ele>
        <time>2021-08-09T12:12:03Z</time>
      </trkpt>
      <trkpt lat="42.6264210" lon="1.5244350">
        <ele>1739.8</ele>
        <time>2021-08-09T12:12:18Z</time>
      </trkpt>
      <trkpt lat="42.6264530" lon="1.5243750">
        <ele>1740.7</ele>
        <time>2021-08-09T12:12:26Z</time>
      </trkpt>
      <trkpt lat="42.6265070" lon="1.5242800">
        <ele>1742.4</ele>
        <time>2021-08-09T12:12:41Z</time>
      </trkpt>
      <trkpt lat="42.6265160" lon="1.5242290">
        <ele>1743.2</ele>
        <time>2021-08-09T12:12:46Z</time>
      </trkpt>
      <trkpt lat="42.6265380" lon="1.5241830">
        <ele>1744.0</ele>
        <time>2021-08-09T12:12:51Z</time>
      </trkpt>
      <trkpt lat="42.6265760" lon="1.5241310">
        <ele>1745.1</ele>
        <time>2021-08-09T12:12:58Z</time>
      </trkpt>
      <trkpt lat="42.6265880" lon="1.5240880">
        <ele>1745.8</ele>
        <time>2021-08-09T12:13:02Z</time>
      </trkpt>
      <trkpt lat="42.6266730" lon="1.5238670">
        <ele>1749.2</ele>
        <time>2021-08-09T12:13:35Z</time>
      </trkpt>
      <trkpt lat="42.6266690" lon="1.5236880">
        <ele>1750.6</ele>
        <time>2021-08-09T12:13:48Z</time>
      </trkpt>
      <trkpt lat="42.6266760" lon="1.5236080">
        <ele>1750.9</ele>
        <time>2021-08-09T12:13:54Z</time>
      </trkpt>
      <trkpt lat="42.6266870" lon="1.5235510">
        <ele>1751.1</ele>
        <time>2021-08-09T12:13:59Z</time>
      </trkpt>
      <trkpt lat="42.6266910" lon="1.5235430">
        <ele>1751.1</ele>
        <time>2021-08-09T12:14:00Z</time>
      </trkpt>
      <trkpt lat="42.6266930" lon="1.5235330">
        <ele>1751.1</ele>
        <time>2021-08-09T12:14:01Z</time>
      </trkpt>
      <trkpt lat="42.6267110" lon="1.5235120">
        <ele>1751.1</ele>
        <time>2021-08-09T12:14:04Z</time>
      </trkpt>
      <trkpt lat="42.6267250" lon="1.5234980">
        <ele>1751.2</ele>
        <time>2021-08-09T12:14:06Z</time>
      </trkpt>
      <trkpt lat="42.6267310" lon="1.5234900">
        <ele>1751.2</ele>
        <time>2021-08-09T12:14:07Z</time>
      </trkpt>
      <trkpt lat="42.6267350" lon="1.5234830">
        <ele>1751.2</ele>
        <time>2021-08-09T12:14:08Z</time>
      </trkpt>
      <trkpt lat="42.6267400" lon="1.5234760">
        <ele>1751.2</ele>
        <time>2021-08-09T12:14:09Z</time>
      </trkpt>
      <trkpt lat="42.6267440" lon="1.5234680">
        <ele>1751.2</ele>
        <time>2021-08-09T12:14:10Z</time>
      </trkpt>
      <trkpt lat="42.6267970" lon="1.5234420">
        <ele>1751.3</ele>
        <time>2021-08-09T12:14:18Z</time>
      </trkpt>
      <trkpt lat="42.6268070" lon="1.5234420">
        <ele>1751.3</ele>
        <time>2021-08-09T12:14:19Z</time>
      </trkpt>
      <trkpt lat="42.6268150" lon="1.5234410">
        <ele>1751.3</ele>
        <time>2021-08-09T12:14:20Z</time>
      </trkpt>
      <trkpt lat="42.6268210" lon="1.5234400">
        <ele>1751.3</ele>
        <time>2021-08-09T12:14:21Z</time>
      </trkpt>
      <trkpt lat="42.6269380" lon="1.5234140">
        <ele>1751.2</ele>
        <time>2021-08-09T12:14:36Z</time>
      </trkpt>
      <trkpt lat="42.6269710" lon="1.5234390">
        <ele>1751.1</ele>
        <time>2021-08-09T12:14:39Z</time>
      </trkpt>
      <trkpt lat="42.6269780" lon="1.5234420">
        <ele>1751.1</ele>
        <time>2021-08-09T12:14:40Z</time>
      </trkpt>
      <trkpt lat="42.6269870" lon="1.5234460">
        <ele>1751.1</ele>
        <time>2021-08-09T12:14:41Z</time>
      </trkpt>
      <trkpt lat="42.6270190" lon="1.5234680">
        <ele>1750.9</ele>
        <time>2021-08-09T12:14:46Z</time>
      </trkpt>
      <trkpt lat="42.6270270" lon="1.5234710">
        <ele>1750.9</ele>
        <time>2021-08-09T12:14:47Z</time>
      </trkpt>
      <trkpt lat="42.6271140" lon="1.5234880">
        <ele>1750.9</ele>
        <time>2021-08-09T12:14:54Z</time>
      </trkpt>
      <trkpt lat="42.6271590" lon="1.5234560">
        <ele>1751.4</ele>
        <time>2021-08-09T12:15:07Z</time>
      </trkpt>
      <trkpt lat="42.6271670" lon="1.5234610">
        <ele>1751.5</ele>
        <time>2021-08-09T12:15:10Z</time>
      </trkpt>
      <trkpt lat="42.6271720" lon="1.5234620">
        <ele>1751.5</ele>
        <time>2021-08-09T12:15:11Z</time>
      </trkpt>
      <trkpt lat="42.6271750" lon="1.5234650">
        <ele>1751.6</ele>
        <time>2021-08-09T12:15:12Z</time>
      </trkpt>
      <trkpt lat="42.6272060" lon="1.5234690">
        <ele>1751.9</ele>
        <time>2021-08-09T12:15:34Z</time>
      </trkpt>
      <trkpt lat="42.6272130" lon="1.5234640">
        <ele>1751.9</ele>
        <time>2021-08-09T12:15:39Z</time>
      </trkpt>
      <trkpt lat="42.6272760" lon="1.5234650">
        <ele>1752.5</ele>
        <time>2021-08-09T12:15:48Z</time>
      </trkpt>
      <trkpt lat="42.6272910" lon="1.5234590">
        <ele>1752.7</ele>
        <time>2021-08-09T12:15:49Z</time>
      </trkpt>
      <trkpt lat="42.6273040" lon="1.5234580">
        <ele>1752.8</ele>
        <time>2021-08-09T12:15:50Z</time>
      </trkpt>
      <trkpt lat="42.6273180" lon="1.5234590">
        <ele>1752.9</ele>
        <time>2021-08-09T12:15:51Z</time>
      </trkpt>
      <trkpt lat="42.6273280" lon="1.5234530">
        <ele>1753.0</ele>
        <time>2021-08-09T12:15:52Z</time>
      </trkpt>
      <trkpt lat="42.6273350" lon="1.5234470">
        <ele>1753.1</ele>
        <time>2021-08-09T12:15:53Z</time>
      </trkpt>
      <trkpt lat="42.6273510" lon="1.5234370">
        <ele>1753.3</ele>
        <time>2021-08-09T12:15:55Z</time>
      </trkpt>
      <trkpt lat="42.6274690" lon="1.5233450">
        <ele>1754.5</ele>
        <time>2021-08-09T12:16:12Z</time>
      </trkpt>
      <trkpt lat="42.6275420" lon="1.5231230">
        <ele>1756.2</ele>
        <time>2021-08-09T12:16:32Z</time>
      </trkpt>
      <trkpt lat="42.6277020" lon="1.5230130">
        <ele>1757.9</ele>
        <time>2021-08-09T12:16:53Z</time>
      </trkpt>
      <trkpt lat="42.6278660" lon="1.5229220">
        <ele>1759.5</ele>
        <time>2021-08-09T12:17:17Z</time>
      </trkpt>
      <trkpt lat="42.6280270" lon="1.5227970">
        <ele>1761.3</ele>
        <time>2021-08-09T12:17:39Z</time>
      </trkpt>
      <trkpt lat="42.6281780" lon="1.5226610">
        <ele>1763.0</ele>
        <time>2021-08-09T12:17:59Z</time>
      </trkpt>
      <trkpt lat="42.6283250" lon="1.5225150">
        <ele>1764.6</ele>
        <time>2021-08-09T12:18:17Z</time>
      </trkpt>
      <trkpt lat="42.6284050" lon="1.5223980">
        <ele>1765.7</ele>
        <time>2021-08-09T12:18:31Z</time>
      </trkpt>
      <trkpt lat="42.6285270" lon="1.5222060">
        <ele>1767.5</ele>
        <time>2021-08-09T12:18:53Z</time>
      </trkpt>
      <trkpt lat="42.6286640" lon="1.5220670">
        <ele>1769.1</ele>
        <time>2021-08-09T12:19:09Z</time>
      </trkpt>
      <trkpt lat="42.6287780" lon="1.5218660">
        <ele>1770.8</ele>
        <time>2021-08-09T12:19:28Z</time>
      </trkpt>
      <trkpt lat="42.6288900" lon="1.5216640">
        <ele>1772.6</ele>
        <time>2021-08-09T12:19:51Z</time>
      </trkpt>
      <trkpt lat="42.6289430" lon="1.5215490">
        <ele>1773.5</ele>
        <time>2021-08-09T12:20:03Z</time>
      </trkpt>
      <trkpt lat="42.6290120" lon="1.5213640">
        <ele>1774.9</ele>
        <time>2021-08-09T12:20:24Z</time>
      </trkpt>
      <trkpt lat="42.6291640" lon="1.5212190">
        <ele>1776.7</ele>
        <time>2021-08-09T12:20:48Z</time>
      </trkpt>
      <trkpt lat="42.6292520" lon="1.5210010">
        <ele>1778.4</ele>
        <time>2021-08-09T12:21:04Z</time>
      </trkpt>
      <trkpt lat="42.6293650" lon="1.5208020">
        <ele>1780.1</ele>
        <time>2021-08-09T12:21:23Z</time>
      </trkpt>
      <trkpt lat="42.6294680" lon="1.5205850">
        <ele>1781.9</ele>
        <time>2021-08-09T12:21:47Z</time>
      </trkpt>
      <trkpt lat="42.6295380" lon="1.5203510">
        <ele>1783.6</ele>
        <time>2021-08-09T12:22:12Z</time>
      </trkpt>
      <trkpt lat="42.6295520" lon="1.5202240">
        <ele>1784.5</ele>
        <time>2021-08-09T12:22:24Z</time>
      </trkpt>
      <trkpt lat="42.6295820" lon="1.5199840">
        <ele>1786.1</ele>
        <time>2021-08-09T12:22:46Z</time>
      </trkpt>
      <trkpt lat="42.6297300" lon="1.5198810">
        <ele>1787.7</ele>
        <time>2021-08-09T12:23:21Z</time>
      </trkpt>
      <trkpt lat="42.6297970" lon="1.5198550">
        <ele>1788.3</ele>
        <time>2021-08-09T12:23:30Z</time>
      </trkpt>
      <trkpt lat="42.6298210" lon="1.5198030">
        <ele>1788.8</ele>
        <time>2021-08-09T12:23:38Z</time>
      </trkpt>
      <trkpt lat="42.6298290" lon="1.5197680">
        <ele>1789.0</ele>
        <time>2021-08-09T12:23:41Z</time>
      </trkpt>
      <trkpt lat="42.6298320" lon="1.5197590">
        <ele>1789.1</ele>
        <time>2021-08-09T12:23:42Z</time>
      </trkpt>
      <trkpt lat="42.6298330" lon="1.5197470">
        <ele>1789.2</ele>
        <time>2021-08-09T12:23:43Z</time>
      </trkpt>
      <trkpt lat="42.6298350" lon="1.5197360">
        <ele>1789.2</ele>
        <time>2021-08-09T12:23:44Z</time>
      </trkpt>
      <trkpt lat="42.6298390" lon="1.5197300">
        <ele>1789.3</ele>
        <time>2021-08-09T12:23:45Z</time>
      </trkpt>
      <trkpt lat="42.6298640" lon="1.5197070">
        <ele>1789.6</ele>
        <time>2021-08-09T12:23:48Z</time>
      </trkpt>
      <trkpt lat="42.6299040" lon="1.5196670">
        <ele>1790.0</ele>
        <time>2021-08-09T12:23:54Z</time>
      </trkpt>
      <trkpt lat="42.6299340" lon="1.5196380">
        <ele>1790.4</ele>
        <time>2021-08-09T12:23:58Z</time>
      </trkpt>
      <trkpt lat="42.6299410" lon="1.5196280">
        <ele>1790.5</ele>
        <time>2021-08-09T12:23:59Z</time>
      </trkpt>
      <trkpt lat="42.6299490" lon="1.5196210">
        <ele>1790.6</ele>
        <time>2021-08-09T12:24:00Z</time>
      </trkpt>
      <trkpt lat="42.6300680" lon="1.5195130">
        <ele>1791.9</ele>
        <time>2021-08-09T12:24:13Z</time>
      </trkpt>
      <trkpt lat="42.6301070" lon="1.5194800">
        <ele>1792.3</ele>
        <time>2021-08-09T12:24:18Z</time>
      </trkpt>
      <trkpt lat="42.6301320" lon="1.5194180">
        <ele>1792.8</ele>
        <time>2021-08-09T12:24:23Z</time>
      </trkpt>
      <trkpt lat="42.6301810" lon="1.5193560">
        <ele>1793.4</ele>
        <time>2021-08-09T12:24:29Z</time>
      </trkpt>
      <trkpt lat="42.6302230" lon="1.5192380">
        <ele>1794.3</ele>
        <time>2021-08-09T12:24:38Z</time>
      </trkpt>
      <trkpt lat="42.6302880" lon="1.5190000">
        <ele>1796.1</ele>
        <time>2021-08-09T12:24:55Z</time>
      </trkpt>
      <trkpt lat="42.6303600" lon="1.5188020">
        <ele>1797.6</ele>
        <time>2021-08-09T12:25:08Z</time>
      </trkpt>
      <trkpt lat="42.6304060" lon="1.5185540">
        <ele>1799.4</ele>
        <time>2021-08-09T12:25:30Z</time>
      </trkpt>
      <trkpt lat="42.6304890" lon="1.5183280">
        <ele>1801.1</ele>
        <time>2021-08-09T12:25:50Z</time>
      </trkpt>
      <trkpt lat="42.6305390" lon="1.5181000">
        <ele>1802.7</ele>
        <time>2021-08-09T12:26:11Z</time>
      </trkpt>
      <trkpt lat="42.6305440" lon="1.5180520">
        <ele>1803.1</ele>
        <time>2021-08-09T12:26:15Z</time>
      </trkpt>
      <trkpt lat="42.6305470" lon="1.5180340">
        <ele>1803.2</ele>
        <time>2021-08-09T12:26:16Z</time>
      </trkpt>
      <trkpt lat="42.6305510" lon="1.5180260">
        <ele>1803.3</ele>
        <time>2021-08-09T12:26:17Z</time>
      </trkpt>
      <trkpt lat="42.6305560" lon="1.5180040">
        <ele>1803.4</ele>
        <time>2021-08-09T12:26:19Z</time>
      </trkpt>
      <trkpt lat="42.6305560" lon="1.5179710">
        <ele>1803.6</ele>
        <time>2021-08-09T12:26:22Z</time>
      </trkpt>
      <trkpt lat="42.6305560" lon="1.5179520">
        <ele>1803.8</ele>
        <time>2021-08-09T12:26:23Z</time>
      </trkpt>
      <trkpt lat="42.6305550" lon="1.5179390">
        <ele>1803.9</ele>
        <time>2021-08-09T12:26:24Z</time>
      </trkpt>
      <trkpt lat="42.6305550" lon="1.5179230">
        <ele>1804.0</ele>
        <time>2021-08-09T12:26:25Z</time>
      </trkpt>
      <trkpt lat="42.6305490" lon="1.5178880">
        <ele>1804.2</ele>
        <time>2021-08-09T12:26:28Z</time>
      </trkpt>
      <trkpt lat="42.6305530" lon="1.5178020">
        <ele>1804.8</ele>
        <time>2021-08-09T12:26:35Z</time>
      </trkpt>
      <trkpt lat="42.6305390" lon="1.5176780">
        <ele>1805.7</ele>
        <time>2021-08-09T12:26:46Z</time>
      </trkpt>
      <trkpt lat="42.6305720" lon="1.5174840">
        <ele>1807.0</ele>
        <time>2021-08-09T12:27:02Z</time>
      </trkpt>
      <trkpt lat="42.6305910" lon="1.5174060">
        <ele>1807.6</ele>
        <time>2021-08-09T12:27:10Z</time>
      </trkpt>
      <trkpt lat="42.6306270" lon="1.5172850">
        <ele>1808.5</ele>
        <time>2021-08-09T12:27:23Z</time>
      </trkpt>
      <trkpt lat="42.6306440" lon="1.5171720">
        <ele>1809.3</ele>
        <time>2021-08-09T12:27:33Z</time>
      </trkpt>
      <trkpt lat="42.6307640" lon="1.5169870">
        <ele>1811.0</ele>
        <time>2021-08-09T12:27:52Z</time>
      </trkpt>
      <trkpt lat="42.6307790" lon="1.5169590">
        <ele>1811.2</ele>
        <time>2021-08-09T12:27:54Z</time>
      </trkpt>
      <trkpt lat="42.6308710" lon="1.5168910">
        <ele>1812.2</ele>
        <time>2021-08-09T12:28:19Z</time>
      </trkpt>
      <trkpt lat="42.6308730" lon="1.5168850">
        <ele>1812.2</ele>
        <time>2021-08-09T12:28:21Z</time>
      </trkpt>
      <trkpt lat="42.6308790" lon="1.5168780">
        <ele>1812.3</ele>
        <time>2021-08-09T12:28:23Z</time>
      </trkpt>
      <trkpt lat="42.6308950" lon="1.5168410">
        <ele>1812.6</ele>
        <time>2021-08-09T12:28:28Z</time>
      </trkpt>
      <trkpt lat="42.6309210" lon="1.5167850">
        <ele>1813.1</ele>
        <time>2021-08-09T12:28:35Z</time>
      </trkpt>
      <trkpt lat="42.6309360" lon="1.5167750">
        <ele>1813.2</ele>
        <time>2021-08-09T12:28:37Z</time>
      </trkpt>
      <trkpt lat="42.6309420" lon="1.5167700">
        <ele>1813.3</ele>
        <time>2021-08-09T12:28:38Z</time>
      </trkpt>
      <trkpt lat="42.6309470" lon="1.5167540">
        <ele>1813.4</ele>
        <time>2021-08-09T12:28:40Z</time>
      </trkpt>
      <trkpt lat="42.6309520" lon="1.5167410">
        <ele>1813.5</ele>
        <time>2021-08-09T12:28:42Z</time>
      </trkpt>
      <trkpt lat="42.6309540" lon="1.5167330">
        <ele>1813.6</ele>
        <time>2021-08-09T12:28:43Z</time>
      </trkpt>
      <trkpt lat="42.6309570" lon="1.5167220">
        <ele>1813.6</ele>
        <time>2021-08-09T12:28:44Z</time>
      </trkpt>
      <trkpt lat="42.6310040" lon="1.5164810">
        <ele>1815.4</ele>
        <time>2021-08-09T12:29:05Z</time>
      </trkpt>
      <trkpt lat="42.6310210" lon="1.5164370">
        <ele>1815.7</ele>
        <time>2021-08-09T12:29:12Z</time>
      </trkpt>
      <trkpt lat="42.6310680" lon="1.5163960">
        <ele>1816.2</ele>
        <time>2021-08-09T12:29:22Z</time>
      </trkpt>
      <trkpt lat="42.6310600" lon="1.5164000">
        <ele>1816.3</ele>
        <time>2021-08-09T12:29:26Z</time>
      </trkpt>
      <trkpt lat="42.6310590" lon="1.5163950">
        <ele>1816.3</ele>
        <time>2021-08-09T12:29:31Z</time>
      </trkpt>
      <trkpt lat="42.6310660" lon="1.5163570">
        <ele>1816.6</ele>
        <time>2021-08-09T12:29:37Z</time>
      </trkpt>
      <trkpt lat="42.6310950" lon="1.5162190">
        <ele>1817.6</ele>
        <time>2021-08-09T12:29:51Z</time>
      </trkpt>
      <trkpt lat="42.6310950" lon="1.5162060">
        <ele>1817.7</ele>
        <time>2021-08-09T12:29:52Z</time>
      </trkpt>
      <trkpt lat="42.6310980" lon="1.5161940">
        <ele>1817.8</ele>
        <time>2021-08-09T12:29:53Z</time>
      </trkpt>
      <trkpt lat="42.6311320" lon="1.5160460">
        <ele>1818.8</ele>
        <time>2021-08-09T12:30:05Z</time>
      </trkpt>
      <trkpt lat="42.6311920" lon="1.5159200">
        <ele>1819.9</ele>
        <time>2021-08-09T12:30:16Z</time>
      </trkpt>
      <trkpt lat="42.6312000" lon="1.5158960">
        <ele>1820.0</ele>
        <time>2021-08-09T12:30:18Z</time>
      </trkpt>
      <trkpt lat="42.6312020" lon="1.5158820">
        <ele>1820.1</ele>
        <time>2021-08-09T12:30:19Z</time>
      </trkpt>
      <trkpt lat="42.6312010" lon="1.5158600">
        <ele>1820.3</ele>
        <time>2021-08-09T12:30:21Z</time>
      </trkpt>
      <trkpt lat="42.6312060" lon="1.5158410">
        <ele>1820.4</ele>
        <time>2021-08-09T12:30:23Z</time>
      </trkpt>
      <trkpt lat="42.6312020" lon="1.5158270">
        <ele>1820.5</ele>
        <time>2021-08-09T12:30:24Z</time>
      </trkpt>
      <trkpt lat="42.6312030" lon="1.5157910">
        <ele>1820.8</ele>
        <time>2021-08-09T12:30:27Z</time>
      </trkpt>
      <trkpt lat="42.6311950" lon="1.5155950">
        <ele>1822.1</ele>
        <time>2021-08-09T12:30:41Z</time>
      </trkpt>
      <trkpt lat="42.6311980" lon="1.5155870">
        <ele>1822.2</ele>
        <time>2021-08-09T12:30:42Z</time>
      </trkpt>
      <trkpt lat="42.6311980" lon="1.5155800">
        <ele>1822.2</ele>
        <time>2021-08-09T12:30:43Z</time>
      </trkpt>
      <trkpt lat="42.6312340" lon="1.5154780">
        <ele>1823.0</ele>
        <time>2021-08-09T12:30:52Z</time>
      </trkpt>
      <trkpt lat="42.6312420" lon="1.5154650">
        <ele>1823.1</ele>
        <time>2021-08-09T12:30:53Z</time>
      </trkpt>
      <trkpt lat="42.6312440" lon="1.5154510">
        <ele>1823.2</ele>
        <time>2021-08-09T12:30:54Z</time>
      </trkpt>
      <trkpt lat="42.6312500" lon="1.5154230">
        <ele>1823.4</ele>
        <time>2021-08-09T12:30:56Z</time>
      </trkpt>
      <trkpt lat="42.6312600" lon="1.5153340">
        <ele>1824.0</ele>
        <time>2021-08-09T12:31:04Z</time>
      </trkpt>
      <trkpt lat="42.6312690" lon="1.5152900">
        <ele>1824.4</ele>
        <time>2021-08-09T12:31:08Z</time>
      </trkpt>
      <trkpt lat="42.6312750" lon="1.5152190">
        <ele>1824.9</ele>
        <time>2021-08-09T12:31:15Z</time>
      </trkpt>
      <trkpt lat="42.6312760" lon="1.5152100">
        <ele>1824.9</ele>
        <time>2021-08-09T12:31:16Z</time>
      </trkpt>
      <trkpt lat="42.6313050" lon="1.5151500">
        <ele>1825.4</ele>
        <time>2021-08-09T12:31:22Z</time>
      </trkpt>
      <trkpt lat="42.6313620" lon="1.5149110">
        <ele>1827.1</ele>
        <time>2021-08-09T12:31:43Z</time>
      </trkpt>
      <trkpt lat="42.6313860" lon="1.5148010">
        <ele>1827.9</ele>
        <time>2021-08-09T12:31:53Z</time>
      </trkpt>
      <trkpt lat="42.6314020" lon="1.5147460">
        <ele>1828.3</ele>
        <time>2021-08-09T12:31:59Z</time>
      </trkpt>
      <trkpt lat="42.6314270" lon="1.5146800">
        <ele>1828.8</ele>
        <time>2021-08-09T12:32:05Z</time>
      </trkpt>
      <trkpt lat="42.6314730" lon="1.5146180">
        <ele>1829.4</ele>
        <time>2021-08-09T12:32:14Z</time>
      </trkpt>
      <trkpt lat="42.6315060" lon="1.5145350">
        <ele>1830.1</ele>
        <time>2021-08-09T12:32:23Z</time>
      </trkpt>
      <trkpt lat="42.6315290" lon="1.5144660">
        <ele>1830.6</ele>
        <time>2021-08-09T12:32:31Z</time>
      </trkpt>
      <trkpt lat="42.6315620" lon="1.5143960">
        <ele>1831.2</ele>
        <time>2021-08-09T12:32:38Z</time>
      </trkpt>
      <trkpt lat="42.6315860" lon="1.5143540">
        <ele>1831.5</ele>
        <time>2021-08-09T12:32:44Z</time>
      </trkpt>
      <trkpt lat="42.6316130" lon="1.5143120">
        <ele>1831.9</ele>
        <time>2021-08-09T12:32:50Z</time>
      </trkpt>
      <trkpt lat="42.6316260" lon="1.5143000">
        <ele>1832.1</ele>
        <time>2021-08-09T12:32:52Z</time>
      </trkpt>
      <trkpt lat="42.6316330" lon="1.5142920">
        <ele>1832.2</ele>
        <time>2021-08-09T12:32:53Z</time>
      </trkpt>
      <trkpt lat="42.6316350" lon="1.5142860">
        <ele>1832.2</ele>
        <time>2021-08-09T12:32:54Z</time>
      </trkpt>
      <trkpt lat="42.6316370" lon="1.5142790">
        <ele>1832.3</ele>
        <time>2021-08-09T12:32:55Z</time>
      </trkpt>
      <trkpt lat="42.6316400" lon="1.5142720">
        <ele>1832.3</ele>
        <time>2021-08-09T12:32:56Z</time>
      </trkpt>
      <trkpt lat="42.6316500" lon="1.5142550">
        <ele>1832.5</ele>
        <time>2021-08-09T12:32:58Z</time>
      </trkpt>
      <trkpt lat="42.6315990" lon="1.5140550">
        <ele>1833.7</ele>
        <time>2021-08-09T12:33:17Z</time>
      </trkpt>
      <trkpt lat="42.6315450" lon="1.5138230">
        <ele>1835.2</ele>
        <time>2021-08-09T12:33:38Z</time>
      </trkpt>
      <trkpt lat="42.6316040" lon="1.5136170">
        <ele>1837.0</ele>
        <time>2021-08-09T12:34:18Z</time>
      </trkpt>
      <trkpt lat="42.6316540" lon="1.5134050">
        <ele>1838.9</ele>
        <time>2021-08-09T12:34:47Z</time>
      </trkpt>
      <trkpt lat="42.6316620" lon="1.5132150">
        <ele>1840.9</ele>
        <time>2021-08-09T12:35:18Z</time>
      </trkpt>
      <trkpt lat="42.6316130" lon="1.5130990">
        <ele>1842.2</ele>
        <time>2021-08-09T12:35:29Z</time>
      </trkpt>
      <trkpt lat="42.6315840" lon="1.5129910">
        <ele>1843.9</ele>
        <time>2021-08-09T12:35:42Z</time>
      </trkpt>
      <trkpt lat="42.6316130" lon="1.5128780">
        <ele>1847.4</ele>
        <time>2021-08-09T12:36:03Z</time>
      </trkpt>
      <trkpt lat="42.6316330" lon="1.5128580">
        <ele>1847.6</ele>
        <time>2021-08-09T12:36:13Z</time>
      </trkpt>
      <trkpt lat="42.6316410" lon="1.5128340">
        <ele>1847.7</ele>
        <time>2021-08-09T12:36:18Z</time>
      </trkpt>
      <trkpt lat="42.6316380" lon="1.5128270">
        <ele>1847.8</ele>
        <time>2021-08-09T12:36:19Z</time>
      </trkpt>
      <trkpt lat="42.6316360" lon="1.5128210">
        <ele>1847.8</ele>
        <time>2021-08-09T12:36:20Z</time>
      </trkpt>
      <trkpt lat="42.6316340" lon="1.5128160">
        <ele>1847.9</ele>
        <time>2021-08-09T12:36:21Z</time>
      </trkpt>
      <trkpt lat="42.6316380" lon="1.5128180">
        <ele>1847.9</ele>
        <time>2021-08-09T12:36:26Z</time>
      </trkpt>
      <trkpt lat="42.6316410" lon="1.5128260">
        <ele>1848.0</ele>
        <time>2021-08-09T12:36:28Z</time>
      </trkpt>
      <trkpt lat="42.6316470" lon="1.5125780">
        <ele>1849.5</ele>
        <time>2021-08-09T12:36:51Z</time>
      </trkpt>
      <trkpt lat="42.6316560" lon="1.5124880">
        <ele>1850.0</ele>
        <time>2021-08-09T12:36:58Z</time>
      </trkpt>
      <trkpt lat="42.6316830" lon="1.5124080">
        <ele>1850.6</ele>
        <time>2021-08-09T12:37:04Z</time>
      </trkpt>
      <trkpt lat="42.6317540" lon="1.5121680">
        <ele>1852.1</ele>
        <time>2021-08-09T12:37:24Z</time>
      </trkpt>
      <trkpt lat="42.6318210" lon="1.5119300">
        <ele>1853.7</ele>
        <time>2021-08-09T12:37:46Z</time>
      </trkpt>
      <trkpt lat="42.6318840" lon="1.5117080">
        <ele>1855.1</ele>
        <time>2021-08-09T12:38:07Z</time>
      </trkpt>
      <trkpt lat="42.6318950" lon="1.5116760">
        <ele>1855.4</ele>
        <time>2021-08-09T12:38:10Z</time>
      </trkpt>
      <trkpt lat="42.6319060" lon="1.5116480">
        <ele>1855.6</ele>
        <time>2021-08-09T12:38:12Z</time>
      </trkpt>
      <trkpt lat="42.6319150" lon="1.5116230">
        <ele>1855.7</ele>
        <time>2021-08-09T12:38:14Z</time>
      </trkpt>
      <trkpt lat="42.6319270" lon="1.5116030">
        <ele>1855.9</ele>
        <time>2021-08-09T12:38:16Z</time>
      </trkpt>
      <trkpt lat="42.6319660" lon="1.5113930">
        <ele>1857.3</ele>
        <time>2021-08-09T12:38:31Z</time>
      </trkpt>
      <trkpt lat="42.6319720" lon="1.5111400">
        <ele>1858.8</ele>
        <time>2021-08-09T12:38:50Z</time>
      </trkpt>
      <trkpt lat="42.6319920" lon="1.5110170">
        <ele>1859.7</ele>
        <time>2021-08-09T12:38:58Z</time>
      </trkpt>
      <trkpt lat="42.6320490" lon="1.5110050">
        <ele>1860.2</ele>
        <time>2021-08-09T12:39:05Z</time>
      </trkpt>
      <trkpt lat="42.6321710" lon="1.5109660">
        <ele>1861.6</ele>
        <time>2021-08-09T12:39:48Z</time>
      </trkpt>
      <trkpt lat="42.6322140" lon="1.5109650">
        <ele>1862.1</ele>
        <time>2021-08-09T12:39:55Z</time>
      </trkpt>
      <trkpt lat="42.6322400" lon="1.5109780">
        <ele>1862.5</ele>
        <time>2021-08-09T12:39:58Z</time>
      </trkpt>
      <trkpt lat="42.6322660" lon="1.5109780">
        <ele>1862.8</ele>
        <time>2021-08-09T12:40:02Z</time>
      </trkpt>
      <trkpt lat="42.6322910" lon="1.5109420">
        <ele>1863.3</ele>
        <time>2021-08-09T12:40:09Z</time>
      </trkpt>
      <trkpt lat="42.6323390" lon="1.5109490">
        <ele>1864.0</ele>
        <time>2021-08-09T12:40:15Z</time>
      </trkpt>
      <trkpt lat="42.6323480" lon="1.5109430">
        <ele>1864.1</ele>
        <time>2021-08-09T12:40:17Z</time>
      </trkpt>
      <trkpt lat="42.6323610" lon="1.5109390">
        <ele>1864.3</ele>
        <time>2021-08-09T12:40:19Z</time>
      </trkpt>
      <trkpt lat="42.6324860" lon="1.5109090">
        <ele>1865.4</ele>
        <time>2021-08-09T12:40:51Z</time>
      </trkpt>
      <trkpt lat="42.6325680" lon="1.5108700">
        <ele>1866.0</ele>
        <time>2021-08-09T12:41:22Z</time>
      </trkpt>
      <trkpt lat="42.6327030" lon="1.5108600">
        <ele>1868.0</ele>
        <time>2021-08-09T12:41:44Z</time>
      </trkpt>
      <trkpt lat="42.6327720" lon="1.5107970">
        <ele>1869.2</ele>
        <time>2021-08-09T12:42:12Z</time>
      </trkpt>
      <trkpt lat="42.6328540" lon="1.5107710">
        <ele>1871.4</ele>
        <time>2021-08-09T12:42:23Z</time>
      </trkpt>
      <trkpt lat="42.6328860" lon="1.5107560">
        <ele>1872.2</ele>
        <time>2021-08-09T12:42:29Z</time>
      </trkpt>
      <trkpt lat="42.6328950" lon="1.5107470">
        <ele>1872.2</ele>
        <time>2021-08-09T12:42:31Z</time>
      </trkpt>
      <trkpt lat="42.6329010" lon="1.5107340">
        <ele>1872.2</ele>
        <time>2021-08-09T12:42:33Z</time>
      </trkpt>
      <trkpt lat="42.6330530" lon="1.5106590">
        <ele>1876.4</ele>
        <time>2021-08-09T12:43:05Z</time>
      </trkpt>
      <trkpt lat="42.6330870" lon="1.5106500">
        <ele>1877.4</ele>
        <time>2021-08-09T12:43:13Z</time>
      </trkpt>
      <trkpt lat="42.6330970" lon="1.5105840">
        <ele>1877.4</ele>
        <time>2021-08-09T12:43:24Z</time>
      </trkpt>
      <trkpt lat="42.6331320" lon="1.5105510">
        <ele>1878.4</ele>
        <time>2021-08-09T12:43:31Z</time>
      </trkpt>
      <trkpt lat="42.6331630" lon="1.5105730">
        <ele>1879.3</ele>
        <time>2021-08-09T12:43:39Z</time>
      </trkpt>
      <trkpt lat="42.6333060" lon="1.5105750">
        <ele>1883.8</ele>
        <time>2021-08-09T12:44:35Z</time>
      </trkpt>
      <trkpt lat="42.6333120" lon="1.5105830">
        <ele>1883.8</ele>
        <time>2021-08-09T12:44:55Z</time>
      </trkpt>
      <trkpt lat="42.6332980" lon="1.5105870">
        <ele>1883.8</ele>
        <time>2021-08-09T12:45:13Z</time>
      </trkpt>
      <trkpt lat="42.6332950" lon="1.5106020">
        <ele>1883.8</ele>
        <time>2021-08-09T12:45:19Z</time>
      </trkpt>
      <trkpt lat="42.6332960" lon="1.5106060">
        <ele>1883.8</ele>
        <time>2021-08-09T12:45:21Z</time>
      </trkpt>
      <trkpt lat="42.6332980" lon="1.5106050">
        <ele>1883.8</ele>
        <time>2021-08-09T12:45:22Z</time>
      </trkpt>
      <trkpt lat="42.6332990" lon="1.5106000">
        <ele>1883.8</ele>
        <time>2021-08-09T12:45:23Z</time>
      </trkpt>
      <trkpt lat="42.6332990" lon="1.5106010">
        <ele>1883.8</ele>
        <time>2021-08-09T12:45:24Z</time>
      </trkpt>
      <trkpt lat="42.6332960" lon="1.5105960">
        <ele>1883.8</ele>
        <time>2021-08-09T12:45:26Z</time>
      </trkpt>
      <trkpt lat="42.6332890" lon="1.5105870">
        <ele>1883.8</ele>
        <time>2021-08-09T12:45:46Z</time>
      </trkpt>
      <trkpt lat="42.6332870" lon="1.5105780">
        <ele>1883.8</ele>
        <time>2021-08-09T12:45:47Z</time>
      </trkpt>
      <trkpt lat="42.6332870" lon="1.5105620">
        <ele>1883.8</ele>
        <time>2021-08-09T12:45:49Z</time>
      </trkpt>
      <trkpt lat="42.6332890" lon="1.5105030">
        <ele>1883.8</ele>
        <time>2021-08-09T12:45:55Z</time>
      </trkpt>
      <trkpt lat="42.6332790" lon="1.5102770">
        <ele>1883.7</ele>
        <time>2021-08-09T12:46:15Z</time>
      </trkpt>
      <trkpt lat="42.6332880" lon="1.5100310">
        <ele>1883.6</ele>
        <time>2021-08-09T12:46:39Z</time>
      </trkpt>
      <trkpt lat="42.6333280" lon="1.5097850">
        <ele>1883.3</ele>
        <time>2021-08-09T12:47:03Z</time>
      </trkpt>
      <trkpt lat="42.6333980" lon="1.5095570">
        <ele>1885.1</ele>
        <time>2021-08-09T12:47:24Z</time>
      </trkpt>
      <trkpt lat="42.6334800" lon="1.5093280">
        <ele>1886.8</ele>
        <time>2021-08-09T12:47:45Z</time>
      </trkpt>
      <trkpt lat="42.6335000" lon="1.5092250">
        <ele>1887.6</ele>
        <time>2021-08-09T12:47:53Z</time>
      </trkpt>
      <trkpt lat="42.6335720" lon="1.5089970">
        <ele>1889.5</ele>
        <time>2021-08-09T12:48:14Z</time>
      </trkpt>
      <trkpt lat="42.6336150" lon="1.5089230">
        <ele>1890.2</ele>
        <time>2021-08-09T12:48:23Z</time>
      </trkpt>
      <trkpt lat="42.6337100" lon="1.5087110">
        <ele>1892.0</ele>
        <time>2021-08-09T12:48:45Z</time>
      </trkpt>
      <trkpt lat="42.6337170" lon="1.5085240">
        <ele>1893.5</ele>
        <time>2021-08-09T12:48:58Z</time>
      </trkpt>
      <trkpt lat="42.6337420" lon="1.5084070">
        <ele>1894.5</ele>
        <time>2021-08-09T12:49:10Z</time>
      </trkpt>
      <trkpt lat="42.6337820" lon="1.5083380">
        <ele>1895.2</ele>
        <time>2021-08-09T12:49:16Z</time>
      </trkpt>
      <trkpt lat="42.6338680" lon="1.5081190">
        <ele>1897.1</ele>
        <time>2021-08-09T12:49:35Z</time>
      </trkpt>
      <trkpt lat="42.6338990" lon="1.5080250">
        <ele>1897.8</ele>
        <time>2021-08-09T12:49:43Z</time>
      </trkpt>
      <trkpt lat="42.6339140" lon="1.5077760">
        <ele>1899.7</ele>
        <time>2021-08-09T12:50:04Z</time>
      </trkpt>
      <trkpt lat="42.6339140" lon="1.5077360">
        <ele>1900.0</ele>
        <time>2021-08-09T12:50:08Z</time>
      </trkpt>
      <trkpt lat="42.6339440" lon="1.5074910">
        <ele>1902.0</ele>
        <time>2021-08-09T12:50:36Z</time>
      </trkpt>
      <trkpt lat="42.6340390" lon="1.5072690">
        <ele>1903.9</ele>
        <time>2021-08-09T12:50:56Z</time>
      </trkpt>
      <trkpt lat="42.6340500" lon="1.5070230">
        <ele>1905.9</ele>
        <time>2021-08-09T12:51:18Z</time>
      </trkpt>
      <trkpt lat="42.6340620" lon="1.5067770">
        <ele>1908.1</ele>
        <time>2021-08-09T12:51:37Z</time>
      </trkpt>
      <trkpt lat="42.6340600" lon="1.5065860">
        <ele>1909.9</ele>
        <time>2021-08-09T12:52:00Z</time>
      </trkpt>
      <trkpt lat="42.6340680" lon="1.5065720">
        <ele>1910.0</ele>
        <time>2021-08-09T12:52:02Z</time>
      </trkpt>
      <trkpt lat="42.6340680" lon="1.5065510">
        <ele>1910.2</ele>
        <time>2021-08-09T12:52:04Z</time>
      </trkpt>
      <trkpt lat="42.6340750" lon="1.5065400">
        <ele>1910.4</ele>
        <time>2021-08-09T12:52:06Z</time>
      </trkpt>
      <trkpt lat="42.6340660" lon="1.5064850">
        <ele>1910.9</ele>
        <time>2021-08-09T12:52:11Z</time>
      </trkpt>
      <trkpt lat="42.6340610" lon="1.5064720">
        <ele>1911.0</ele>
        <time>2021-08-09T12:52:12Z</time>
      </trkpt>
      <trkpt lat="42.6340510" lon="1.5064450">
        <ele>1911.3</ele>
        <time>2021-08-09T12:52:15Z</time>
      </trkpt>
      <trkpt lat="42.6340470" lon="1.5064360">
        <ele>1911.4</ele>
        <time>2021-08-09T12:52:16Z</time>
      </trkpt>
      <trkpt lat="42.6340420" lon="1.5063800">
        <ele>1912.0</ele>
        <time>2021-08-09T12:52:21Z</time>
      </trkpt>
      <trkpt lat="42.6340390" lon="1.5063630">
        <ele>1912.2</ele>
        <time>2021-08-09T12:52:23Z</time>
      </trkpt>
      <trkpt lat="42.6340380" lon="1.5063530">
        <ele>1912.3</ele>
        <time>2021-08-09T12:52:24Z</time>
      </trkpt>
      <trkpt lat="42.6340390" lon="1.5063420">
        <ele>1912.4</ele>
        <time>2021-08-09T12:52:25Z</time>
      </trkpt>
      <trkpt lat="42.6340250" lon="1.5062540">
        <ele>1913.3</ele>
        <time>2021-08-09T12:52:33Z</time>
      </trkpt>
      <trkpt lat="42.6340390" lon="1.5060010">
        <ele>1915.5</ele>
        <time>2021-08-09T12:52:55Z</time>
      </trkpt>
      <trkpt lat="42.6340120" lon="1.5058310">
        <ele>1917.0</ele>
        <time>2021-08-09T12:53:07Z</time>
      </trkpt>
      <trkpt lat="42.6339920" lon="1.5055760">
        <ele>1919.1</ele>
        <time>2021-08-09T12:53:28Z</time>
      </trkpt>
      <trkpt lat="42.6339930" lon="1.5054900">
        <ele>1919.8</ele>
        <time>2021-08-09T12:53:36Z</time>
      </trkpt>
      <trkpt lat="42.6339890" lon="1.5053790">
        <ele>1920.6</ele>
        <time>2021-08-09T12:53:46Z</time>
      </trkpt>
      <trkpt lat="42.6339980" lon="1.5053160">
        <ele>1921.1</ele>
        <time>2021-08-09T12:53:51Z</time>
      </trkpt>
      <trkpt lat="42.6340200" lon="1.5050670">
        <ele>1923.0</ele>
        <time>2021-08-09T12:54:09Z</time>
      </trkpt>
      <trkpt lat="42.6339710" lon="1.5048150">
        <ele>1924.9</ele>
        <time>2021-08-09T12:54:27Z</time>
      </trkpt>
      <trkpt lat="42.6339050" lon="1.5045820">
        <ele>1926.8</ele>
        <time>2021-08-09T12:54:41Z</time>
      </trkpt>
      <trkpt lat="42.6338760" lon="1.5045280">
        <ele>1927.3</ele>
        <time>2021-08-09T12:54:50Z</time>
      </trkpt>
      <trkpt lat="42.6337220" lon="1.5043820">
        <ele>1929.3</ele>
        <time>2021-08-09T12:55:13Z</time>
      </trkpt>
      <trkpt lat="42.6337400" lon="1.5042990">
        <ele>1929.9</ele>
        <time>2021-08-09T12:55:19Z</time>
      </trkpt>
      <trkpt lat="42.6337780" lon="1.5040320">
        <ele>1932.0</ele>
        <time>2021-08-09T12:55:37Z</time>
      </trkpt>
      <trkpt lat="42.6337650" lon="1.5039850">
        <ele>1932.4</ele>
        <time>2021-08-09T12:55:43Z</time>
      </trkpt>
      <trkpt lat="42.6337630" lon="1.5039780">
        <ele>1932.4</ele>
        <time>2021-08-09T12:55:44Z</time>
      </trkpt>
      <trkpt lat="42.6337680" lon="1.5039700">
        <ele>1932.5</ele>
        <time>2021-08-09T12:55:46Z</time>
      </trkpt>
      <trkpt lat="42.6337870" lon="1.5039640">
        <ele>1932.7</ele>
        <time>2021-08-09T12:55:48Z</time>
      </trkpt>
      <trkpt lat="42.6337820" lon="1.5039570">
        <ele>1932.8</ele>
        <time>2021-08-09T12:55:49Z</time>
      </trkpt>
      <trkpt lat="42.6337830" lon="1.5039480">
        <ele>1932.9</ele>
        <time>2021-08-09T12:55:50Z</time>
      </trkpt>
      <trkpt lat="42.6337860" lon="1.5039350">
        <ele>1933.0</ele>
        <time>2021-08-09T12:55:51Z</time>
      </trkpt>
      <trkpt lat="42.6337860" lon="1.5039220">
        <ele>1933.1</ele>
        <time>2021-08-09T12:55:52Z</time>
      </trkpt>
      <trkpt lat="42.6337870" lon="1.5039140">
        <ele>1933.1</ele>
        <time>2021-08-09T12:55:53Z</time>
      </trkpt>
      <trkpt lat="42.6337860" lon="1.5038490">
        <ele>1933.6</ele>
        <time>2021-08-09T12:55:58Z</time>
      </trkpt>
      <trkpt lat="42.6337840" lon="1.5037580">
        <ele>1934.3</ele>
        <time>2021-08-09T12:56:05Z</time>
      </trkpt>
      <trkpt lat="42.6337740" lon="1.5037290">
        <ele>1934.6</ele>
        <time>2021-08-09T12:56:08Z</time>
      </trkpt>
      <trkpt lat="42.6337650" lon="1.5037140">
        <ele>1934.7</ele>
        <time>2021-08-09T12:56:09Z</time>
      </trkpt>
      <trkpt lat="42.6337460" lon="1.5036870">
        <ele>1935.0</ele>
        <time>2021-08-09T12:56:12Z</time>
      </trkpt>
      <trkpt lat="42.6337280" lon="1.5036450">
        <ele>1935.3</ele>
        <time>2021-08-09T12:56:16Z</time>
      </trkpt>
      <trkpt lat="42.6337280" lon="1.5036160">
        <ele>1935.5</ele>
        <time>2021-08-09T12:56:18Z</time>
      </trkpt>
      <trkpt lat="42.6337010" lon="1.5033880">
        <ele>1937.2</ele>
        <time>2021-08-09T12:56:32Z</time>
      </trkpt>
      <trkpt lat="42.6336970" lon="1.5031460">
        <ele>1939.0</ele>
        <time>2021-08-09T12:56:51Z</time>
      </trkpt>
      <trkpt lat="42.6337070" lon="1.5030890">
        <ele>1939.4</ele>
        <time>2021-08-09T12:56:56Z</time>
      </trkpt>
      <trkpt lat="42.6336940" lon="1.5029960">
        <ele>1940.2</ele>
        <time>2021-08-09T12:57:04Z</time>
      </trkpt>
      <trkpt lat="42.6336710" lon="1.5029080">
        <ele>1940.9</ele>
        <time>2021-08-09T12:57:10Z</time>
      </trkpt>
      <trkpt lat="42.6336560" lon="1.5028140">
        <ele>1941.6</ele>
        <time>2021-08-09T12:57:18Z</time>
      </trkpt>
      <trkpt lat="42.6336540" lon="1.5027640">
        <ele>1941.9</ele>
        <time>2021-08-09T12:57:22Z</time>
      </trkpt>
      <trkpt lat="42.6336520" lon="1.5027530">
        <ele>1942.0</ele>
        <time>2021-08-09T12:57:23Z</time>
      </trkpt>
      <trkpt lat="42.6336470" lon="1.5027420">
        <ele>1942.1</ele>
        <time>2021-08-09T12:57:24Z</time>
      </trkpt>
      <trkpt lat="42.6336400" lon="1.5027040">
        <ele>1942.4</ele>
        <time>2021-08-09T12:57:27Z</time>
      </trkpt>
      <trkpt lat="42.6336400" lon="1.5026950">
        <ele>1942.5</ele>
        <time>2021-08-09T12:57:28Z</time>
      </trkpt>
      <trkpt lat="42.6336320" lon="1.5026670">
        <ele>1942.7</ele>
        <time>2021-08-09T12:57:31Z</time>
      </trkpt>
      <trkpt lat="42.6336320" lon="1.5026430">
        <ele>1942.9</ele>
        <time>2021-08-09T12:57:33Z</time>
      </trkpt>
      <trkpt lat="42.6336320" lon="1.5026300">
        <ele>1943.0</ele>
        <time>2021-08-09T12:57:34Z</time>
      </trkpt>
      <trkpt lat="42.6335330" lon="1.5024360">
        <ele>1944.5</ele>
        <time>2021-08-09T12:57:55Z</time>
      </trkpt>
      <trkpt lat="42.6335140" lon="1.5023930">
        <ele>1944.9</ele>
        <time>2021-08-09T12:58:00Z</time>
      </trkpt>
      <trkpt lat="42.6335060" lon="1.5023870">
        <ele>1944.9</ele>
        <time>2021-08-09T12:58:01Z</time>
      </trkpt>
      <trkpt lat="42.6334700" lon="1.5023140">
        <ele>1945.5</ele>
        <time>2021-08-09T12:58:09Z</time>
      </trkpt>
      <trkpt lat="42.6334850" lon="1.5021630">
        <ele>1946.5</ele>
        <time>2021-08-09T12:58:21Z</time>
      </trkpt>
      <trkpt lat="42.6334890" lon="1.5021490">
        <ele>1946.6</ele>
        <time>2021-08-09T12:58:22Z</time>
      </trkpt>
      <trkpt lat="42.6334960" lon="1.5021390">
        <ele>1946.7</ele>
        <time>2021-08-09T12:58:23Z</time>
      </trkpt>
      <trkpt lat="42.6335360" lon="1.5020970">
        <ele>1947.2</ele>
        <time>2021-08-09T12:58:37Z</time>
      </trkpt>
      <trkpt lat="42.6335620" lon="1.5021000">
        <ele>1947.5</ele>
        <time>2021-08-09T12:58:43Z</time>
      </trkpt>
      <trkpt lat="42.6335780" lon="1.5020530">
        <ele>1948.4</ele>
        <time>2021-08-09T12:58:51Z</time>
      </trkpt>
      <trkpt lat="42.6335930" lon="1.5019760">
        <ele>1949.6</ele>
        <time>2021-08-09T12:59:00Z</time>
      </trkpt>
      <trkpt lat="42.6335790" lon="1.5019600">
        <ele>1950.1</ele>
        <time>2021-08-09T12:59:05Z</time>
      </trkpt>
      <trkpt lat="42.6335510" lon="1.5019010">
        <ele>1951.3</ele>
        <time>2021-08-09T12:59:13Z</time>
      </trkpt>
      <trkpt lat="42.6335450" lon="1.5018700">
        <ele>1951.9</ele>
        <time>2021-08-09T12:59:19Z</time>
      </trkpt>
      <trkpt lat="42.6335800" lon="1.5018950">
        <ele>1953.0</ele>
        <time>2021-08-09T12:59:30Z</time>
      </trkpt>
      <trkpt lat="42.6335850" lon="1.5019030">
        <ele>1953.2</ele>
        <time>2021-08-09T12:59:31Z</time>
      </trkpt>
      <trkpt lat="42.6336370" lon="1.5019500">
        <ele>1955.0</ele>
        <time>2021-08-09T12:59:38Z</time>
      </trkpt>
      <trkpt lat="42.6336540" lon="1.5019620">
        <ele>1955.6</ele>
        <time>2021-08-09T12:59:40Z</time>
      </trkpt>
      <trkpt lat="42.6336570" lon="1.5019590">
        <ele>1955.7</ele>
        <time>2021-08-09T12:59:41Z</time>
      </trkpt>
      <trkpt lat="42.6336570" lon="1.5019560">
        <ele>1955.8</ele>
        <time>2021-08-09T12:59:43Z</time>
      </trkpt>
      <trkpt lat="42.6336560" lon="1.5019540">
        <ele>1955.8</ele>
        <time>2021-08-09T12:59:44Z</time>
      </trkpt>
      <trkpt lat="42.6336550" lon="1.5019280">
        <ele>1956.4</ele>
        <time>2021-08-09T12:59:51Z</time>
      </trkpt>
      <trkpt lat="42.6336360" lon="1.5018750">
        <ele>1957.7</ele>
        <time>2021-08-09T13:00:02Z</time>
      </trkpt>
      <trkpt lat="42.6336340" lon="1.5018110">
        <ele>1959.1</ele>
        <time>2021-08-09T13:00:26Z</time>
      </trkpt>
      <trkpt lat="42.6337030" lon="1.5016810">
        <ele>1962.6</ele>
        <time>2021-08-09T13:00:50Z</time>
      </trkpt>
      <trkpt lat="42.6336990" lon="1.5016010">
        <ele>1964.4</ele>
        <time>2021-08-09T13:01:03Z</time>
      </trkpt>
      <trkpt lat="42.6337220" lon="1.5014710">
        <ele>1967.3</ele>
        <time>2021-08-09T13:01:30Z</time>
      </trkpt>
      <trkpt lat="42.6337230" lon="1.5013390">
        <ele>1970.1</ele>
        <time>2021-08-09T13:01:53Z</time>
      </trkpt>
      <trkpt lat="42.6337240" lon="1.5013310">
        <ele>1970.3</ele>
        <time>2021-08-09T13:01:54Z</time>
      </trkpt>
      <trkpt lat="42.6337140" lon="1.5011020">
        <ele>1975.0</ele>
        <time>2021-08-09T13:02:26Z</time>
      </trkpt>
      <trkpt lat="42.6337680" lon="1.5010170">
        <ele>1977.7</ele>
        <time>2021-08-09T13:02:44Z</time>
      </trkpt>
      <trkpt lat="42.6338340" lon="1.5010800">
        <ele>1983.4</ele>
        <time>2021-08-09T13:02:58Z</time>
      </trkpt>
      <trkpt lat="42.6339740" lon="1.5011450">
        <ele>1993.5</ele>
        <time>2021-08-09T13:03:36Z</time>
      </trkpt>
      <trkpt lat="42.6339340" lon="1.5009150">
        <ele>1992.1</ele>
        <time>2021-08-09T13:04:07Z</time>
      </trkpt>
      <trkpt lat="42.6340140" lon="1.5009340">
        <ele>1997.8</ele>
        <time>2021-08-09T13:04:39Z</time>
      </trkpt>
      <trkpt lat="42.6340300" lon="1.5008590">
        <ele>2001.3</ele>
        <time>2021-08-09T13:04:59Z</time>
      </trkpt>
      <trkpt lat="42.6340470" lon="1.5006940">
        <ele>2003.6</ele>
        <time>2021-08-09T13:05:48Z</time>
      </trkpt>
      <trkpt lat="42.6341290" lon="1.5007470">
        <ele>2010.5</ele>
        <time>2021-08-09T13:06:10Z</time>
      </trkpt>
      <trkpt lat="42.6341270" lon="1.5007390">
        <ele>2010.6</ele>
        <time>2021-08-09T13:06:11Z</time>
      </trkpt>
      <trkpt lat="42.6341290" lon="1.5007350">
        <ele>2010.6</ele>
        <time>2021-08-09T13:06:12Z</time>
      </trkpt>
      <trkpt lat="42.6341310" lon="1.5007330">
        <ele>2010.7</ele>
        <time>2021-08-09T13:06:13Z</time>
      </trkpt>
      <trkpt lat="42.6341330" lon="1.5007300">
        <ele>2010.8</ele>
        <time>2021-08-09T13:06:14Z</time>
      </trkpt>
      <trkpt lat="42.6341360" lon="1.5007230">
        <ele>2010.8</ele>
        <time>2021-08-09T13:06:16Z</time>
      </trkpt>
      <trkpt lat="42.6341390" lon="1.5007090">
        <ele>2010.9</ele>
        <time>2021-08-09T13:06:18Z</time>
      </trkpt>
      <trkpt lat="42.6341380" lon="1.5006900">
        <ele>2011.5</ele>
        <time>2021-08-09T13:06:20Z</time>
      </trkpt>
      <trkpt lat="42.6341400" lon="1.5006860">
        <ele>2011.5</ele>
        <time>2021-08-09T13:06:21Z</time>
      </trkpt>
      <trkpt lat="42.6341410" lon="1.5006840">
        <ele>2011.6</ele>
        <time>2021-08-09T13:06:22Z</time>
      </trkpt>
      <trkpt lat="42.6341400" lon="1.5006790">
        <ele>2011.7</ele>
        <time>2021-08-09T13:06:23Z</time>
      </trkpt>
      <trkpt lat="42.6341380" lon="1.5006750">
        <ele>2011.7</ele>
        <time>2021-08-09T13:06:24Z</time>
      </trkpt>
      <trkpt lat="42.6341350" lon="1.5006700">
        <ele>2011.8</ele>
        <time>2021-08-09T13:06:25Z</time>
      </trkpt>
      <trkpt lat="42.6341130" lon="1.5006150">
        <ele>2010.4</ele>
        <time>2021-08-09T13:06:36Z</time>
      </trkpt>
      <trkpt lat="42.6341120" lon="1.5006110">
        <ele>2010.5</ele>
        <time>2021-08-09T13:06:37Z</time>
      </trkpt>
      <trkpt lat="42.6341130" lon="1.5006090">
        <ele>2010.5</ele>
        <time>2021-08-09T13:06:38Z</time>
      </trkpt>
      <trkpt lat="42.6341470" lon="1.5005760">
        <ele>2013.7</ele>
        <time>2021-08-09T13:06:48Z</time>
      </trkpt>
      <trkpt lat="42.6341670" lon="1.5005810">
        <ele>2015.8</ele>
        <time>2021-08-09T13:06:51Z</time>
      </trkpt>
      <trkpt lat="42.6341740" lon="1.5005640">
        <ele>2016.4</ele>
        <time>2021-08-09T13:06:55Z</time>
      </trkpt>
      <trkpt lat="42.6341800" lon="1.5005640">
        <ele>2019.2</ele>
        <time>2021-08-09T13:06:59Z</time>
      </trkpt>
      <trkpt lat="42.6341830" lon="1.5005650">
        <ele>2019.3</ele>
        <time>2021-08-09T13:07:00Z</time>
      </trkpt>
      <trkpt lat="42.6341890" lon="1.5005650">
        <ele>2019.3</ele>
        <time>2021-08-09T13:07:01Z</time>
      </trkpt>
      <trkpt lat="42.6341910" lon="1.5005600">
        <ele>2019.4</ele>
        <time>2021-08-09T13:07:02Z</time>
      </trkpt>
      <trkpt lat="42.6341940" lon="1.5005500">
        <ele>2019.5</ele>
        <time>2021-08-09T13:07:07Z</time>
      </trkpt>
      <trkpt lat="42.6341910" lon="1.5005430">
        <ele>2019.5</ele>
        <time>2021-08-09T13:07:08Z</time>
      </trkpt>
      <trkpt lat="42.6341910" lon="1.5005370">
        <ele>2019.6</ele>
        <time>2021-08-09T13:07:09Z</time>
      </trkpt>
      <trkpt lat="42.6341910" lon="1.5005300">
        <ele>2020.2</ele>
        <time>2021-08-09T13:07:10Z</time>
      </trkpt>
      <trkpt lat="42.6342030" lon="1.5005130">
        <ele>2020.3</ele>
        <time>2021-08-09T13:07:13Z</time>
      </trkpt>
      <trkpt lat="42.6342180" lon="1.5004940">
        <ele>2023.1</ele>
        <time>2021-08-09T13:07:17Z</time>
      </trkpt>
      <trkpt lat="42.6342480" lon="1.5004640">
        <ele>2026.4</ele>
        <time>2021-08-09T13:07:24Z</time>
      </trkpt>
      <trkpt lat="42.6342520" lon="1.5003250">
        <ele>2028.5</ele>
        <time>2021-08-09T13:07:44Z</time>
      </trkpt>
      <trkpt lat="42.6342440" lon="1.5003230">
        <ele>2028.6</ele>
        <time>2021-08-09T13:07:48Z</time>
      </trkpt>
      <trkpt lat="42.6342460" lon="1.5003240">
        <ele>2028.6</ele>
        <time>2021-08-09T13:07:49Z</time>
      </trkpt>
      <trkpt lat="42.6342550" lon="1.5003260">
        <ele>2028.7</ele>
        <time>2021-08-09T13:07:54Z</time>
      </trkpt>
      <trkpt lat="42.6342580" lon="1.5003210">
        <ele>2028.8</ele>
        <time>2021-08-09T13:07:57Z</time>
      </trkpt>
      <trkpt lat="42.6342550" lon="1.5003150">
        <ele>2029.6</ele>
        <time>2021-08-09T13:07:58Z</time>
      </trkpt>
      <trkpt lat="42.6342540" lon="1.5003110">
        <ele>2029.6</ele>
        <time>2021-08-09T13:07:59Z</time>
      </trkpt>
      <trkpt lat="42.6342470" lon="1.5003080">
        <ele>2029.7</ele>
        <time>2021-08-09T13:08:01Z</time>
      </trkpt>
      <trkpt lat="42.6341380" lon="1.5002490">
        <ele>2020.3</ele>
        <time>2021-08-09T13:08:21Z</time>
      </trkpt>
      <trkpt lat="42.6341380" lon="1.5002490">
        <ele>2020.4</ele>
        <time>2021-08-09T13:08:22Z</time>
      </trkpt>
      <trkpt lat="42.6341360" lon="1.5002490">
        <ele>2020.5</ele>
        <time>2021-08-09T13:08:23Z</time>
      </trkpt>
      <trkpt lat="42.6341310" lon="1.5002360">
        <ele>2020.5</ele>
        <time>2021-08-09T13:08:28Z</time>
      </trkpt>
      <trkpt lat="42.6341380" lon="1.5002400">
        <ele>2020.6</ele>
        <time>2021-08-09T13:08:35Z</time>
      </trkpt>
      <trkpt lat="42.6341370" lon="1.5002490">
        <ele>2020.7</ele>
        <time>2021-08-09T13:08:40Z</time>
      </trkpt>
      <trkpt lat="42.6341380" lon="1.5002570">
        <ele>2020.7</ele>
        <time>2021-08-09T13:08:54Z</time>
      </trkpt>
      <trkpt lat="42.6341630" lon="1.5002840">
        <ele>2022.5</ele>
        <time>2021-08-09T13:08:58Z</time>
      </trkpt>
      <trkpt lat="42.6342320" lon="1.5002730">
        <ele>2028.6</ele>
        <time>2021-08-09T13:09:06Z</time>
      </trkpt>
      <trkpt lat="42.6342500" lon="1.5003140">
        <ele>2030.4</ele>
        <time>2021-08-09T13:09:17Z</time>
      </trkpt>
      <trkpt lat="42.6342560" lon="1.5003200">
        <ele>2030.4</ele>
        <time>2021-08-09T13:09:20Z</time>
      </trkpt>
      <trkpt lat="42.6342600" lon="1.5003310">
        <ele>2029.8</ele>
        <time>2021-08-09T13:09:24Z</time>
      </trkpt>
      <trkpt lat="42.6342470" lon="1.5003300">
        <ele>2029.8</ele>
        <time>2021-08-09T13:09:36Z</time>
      </trkpt>
      <trkpt lat="42.6342460" lon="1.5003290">
        <ele>2029.9</ele>
        <time>2021-08-09T13:09:37Z</time>
      </trkpt>
      <trkpt lat="42.6342450" lon="1.5003270">
        <ele>2030.0</ele>
        <time>2021-08-09T13:09:38Z</time>
      </trkpt>
      <trkpt lat="42.6342440" lon="1.5003250">
        <ele>2030.0</ele>
        <time>2021-08-09T13:09:40Z</time>
      </trkpt>
      <trkpt lat="42.6342370" lon="1.5003120">
        <ele>2028.3</ele>
        <time>2021-08-09T13:09:52Z</time>
      </trkpt>
      <trkpt lat="42.6342360" lon="1.5003120">
        <ele>2028.4</ele>
        <time>2021-08-09T13:09:57Z</time>
      </trkpt>
      <trkpt lat="42.6342360" lon="1.5002980">
        <ele>2028.4</ele>
        <time>2021-08-09T13:10:02Z</time>
      </trkpt>
      <trkpt lat="42.6342170" lon="1.5003000">
        <ele>2028.5</ele>
        <time>2021-08-09T13:10:05Z</time>
      </trkpt>
      <trkpt lat="42.6342150" lon="1.5002990">
        <ele>2028.6</ele>
        <time>2021-08-09T13:10:08Z</time>
      </trkpt>
      <trkpt lat="42.6342130" lon="1.5002980">
        <ele>2028.6</ele>
        <time>2021-08-09T13:10:10Z</time>
      </trkpt>
      <trkpt lat="42.6342140" lon="1.5002990">
        <ele>2028.7</ele>
        <time>2021-08-09T13:10:11Z</time>
      </trkpt>
      <trkpt lat="42.6342150" lon="1.5003010">
        <ele>2028.8</ele>
        <time>2021-08-09T13:10:12Z</time>
      </trkpt>
      <trkpt lat="42.6342130" lon="1.5002960">
        <ele>2028.8</ele>
        <time>2021-08-09T13:10:15Z</time>
      </trkpt>
      <trkpt lat="42.6342010" lon="1.5002910">
        <ele>2026.3</ele>
        <time>2021-08-09T13:10:20Z</time>
      </trkpt>
      <trkpt lat="42.6342000" lon="1.5002920">
        <ele>2026.3</ele>
        <time>2021-08-09T13:10:22Z</time>
      </trkpt>
      <trkpt lat="42.6342000" lon="1.5002970">
        <ele>2026.4</ele>
        <time>2021-08-09T13:10:25Z</time>
      </trkpt>
      <trkpt lat="42.6341980" lon="1.5003030">
        <ele>2026.5</ele>
        <time>2021-08-09T13:10:27Z</time>
      </trkpt>
      <trkpt lat="42.6341950" lon="1.5003070">
        <ele>2026.5</ele>
        <time>2021-08-09T13:10:29Z</time>
      </trkpt>
      <trkpt lat="42.6341930" lon="1.5003110">
        <ele>2026.6</ele>
        <time>2021-08-09T13:10:30Z</time>
      </trkpt>
      <trkpt lat="42.6341960" lon="1.5003050">
        <ele>2026.7</ele>
        <time>2021-08-09T13:10:34Z</time>
      </trkpt>
      <trkpt lat="42.6342040" lon="1.5002630">
        <ele>2027.6</ele>
        <time>2021-08-09T13:10:40Z</time>
      </trkpt>
      <trkpt lat="42.6342060" lon="1.5002580">
        <ele>2027.6</ele>
        <time>2021-08-09T13:10:41Z</time>
      </trkpt>
      <trkpt lat="42.6342050" lon="1.5002540">
        <ele>2027.7</ele>
        <time>2021-08-09T13:10:42Z</time>
      </trkpt>
      <trkpt lat="42.6342280" lon="1.5002570">
        <ele>2030.4</ele>
        <time>2021-08-09T13:10:48Z</time>
      </trkpt>
      <trkpt lat="42.6342670" lon="1.5002390">
        <ele>2033.0</ele>
        <time>2021-08-09T13:10:57Z</time>
      </trkpt>
      <trkpt lat="42.6342800" lon="1.5002340">
        <ele>2036.2</ele>
        <time>2021-08-09T13:11:05Z</time>
      </trkpt>
      <trkpt lat="42.6342820" lon="1.5002290">
        <ele>2036.3</ele>
        <time>2021-08-09T13:11:06Z</time>
      </trkpt>
      <trkpt lat="42.6342660" lon="1.5001930">
        <ele>2033.9</ele>
        <time>2021-08-09T13:11:13Z</time>
      </trkpt>
      <trkpt lat="42.6342150" lon="1.5000830">
        <ele>2034.0</ele>
        <time>2021-08-09T13:11:29Z</time>
      </trkpt>
      <trkpt lat="42.6342430" lon="1.5000780">
        <ele>2036.5</ele>
        <time>2021-08-09T13:11:36Z</time>
      </trkpt>
      <trkpt lat="42.6342680" lon="1.5000580">
        <ele>2037.4</ele>
        <time>2021-08-09T13:11:49Z</time>
      </trkpt>
      <trkpt lat="42.6343370" lon="1.5001120">
        <ele>2040.4</ele>
        <time>2021-08-09T13:12:00Z</time>
      </trkpt>
      <trkpt lat="42.6344110" lon="1.5000410">
        <ele>2049.0</ele>
        <time>2021-08-09T13:12:23Z</time>
      </trkpt>
      <trkpt lat="42.6343320" lon="1.4998350">
        <ele>2045.9</ele>
        <time>2021-08-09T13:12:51Z</time>
      </trkpt>
      <trkpt lat="42.6343100" lon="1.4997980">
        <ele>2046.6</ele>
        <time>2021-08-09T13:13:01Z</time>
      </trkpt>
      <trkpt lat="42.6343780" lon="1.4998030">
        <ele>2050.6</ele>
        <time>2021-08-09T13:13:19Z</time>
      </trkpt>
      <trkpt lat="42.6344420" lon="1.4996900">
        <ele>2056.0</ele>
        <time>2021-08-09T13:13:57Z</time>
      </trkpt>
      <trkpt lat="42.6345210" lon="1.4995290">
        <ele>2059.7</ele>
        <time>2021-08-09T13:14:23Z</time>
      </trkpt>
      <trkpt lat="42.6344850" lon="1.4993200">
        <ele>2062.2</ele>
        <time>2021-08-09T13:15:03Z</time>
      </trkpt>
      <trkpt lat="42.6344810" lon="1.4992990">
        <ele>2062.3</ele>
        <time>2021-08-09T13:15:05Z</time>
      </trkpt>
      <trkpt lat="42.6344660" lon="1.4990650">
        <ele>2064.3</ele>
        <time>2021-08-09T13:15:26Z</time>
      </trkpt>
      <trkpt lat="42.6344520" lon="1.4990510">
        <ele>2064.5</ele>
        <time>2021-08-09T13:15:28Z</time>
      </trkpt>
      <trkpt lat="42.6344190" lon="1.4989600">
        <ele>2065.6</ele>
        <time>2021-08-09T13:15:38Z</time>
      </trkpt>
      <trkpt lat="42.6344010" lon="1.4988790">
        <ele>2066.6</ele>
        <time>2021-08-09T14:15:43Z</time>
      </trkpt>
      <trkpt lat="42.6344030" lon="1.4988720">
        <ele>2066.7</ele>
        <time>2021-08-09T14:15:44Z</time>
      </trkpt>
      <trkpt lat="42.6344050" lon="1.4988400">
        <ele>2067.1</ele>
        <time>2021-08-09T14:15:47Z</time>
      </trkpt>
      <trkpt lat="42.6344060" lon="1.4988120">
        <ele>2067.5</ele>
        <time>2021-08-09T14:15:50Z</time>
      </trkpt>
      <trkpt lat="42.6343950" lon="1.4987800">
        <ele>2067.9</ele>
        <time>2021-08-09T14:15:54Z</time>
      </trkpt>
      <trkpt lat="42.6343930" lon="1.4987570">
        <ele>2068.2</ele>
        <time>2021-08-09T14:15:57Z</time>
      </trkpt>
      <trkpt lat="42.6344150" lon="1.4985680">
        <ele>2071.0</ele>
        <time>2021-08-09T14:16:25Z</time>
      </trkpt>
      <trkpt lat="42.6344060" lon="1.4985210">
        <ele>2071.6</ele>
        <time>2021-08-09T14:16:32Z</time>
      </trkpt>
      <trkpt lat="42.6344080" lon="1.4985160">
        <ele>2071.7</ele>
        <time>2021-08-09T14:16:33Z</time>
      </trkpt>
      <trkpt lat="42.6344130" lon="1.4984780">
        <ele>2072.1</ele>
        <time>2021-08-09T14:16:38Z</time>
      </trkpt>
      <trkpt lat="42.6344070" lon="1.4982300">
        <ele>2072.6</ele>
        <time>2021-08-09T14:17:00Z</time>
      </trkpt>
      <trkpt lat="42.6344340" lon="1.4981190">
        <ele>2072.3</ele>
        <time>2021-08-09T14:17:09Z</time>
      </trkpt>
      <trkpt lat="42.6344600" lon="1.4979610">
        <ele>2072.9</ele>
        <time>2021-08-09T14:17:24Z</time>
      </trkpt>
      <trkpt lat="42.6344800" lon="1.4979260">
        <ele>2073.4</ele>
        <time>2021-08-09T14:17:30Z</time>
      </trkpt>
      <trkpt lat="42.6345730" lon="1.4978380">
        <ele>2075.8</ele>
        <time>2021-08-09T14:17:55Z</time>
      </trkpt>
      <trkpt lat="42.6345950" lon="1.4977420">
        <ele>2077.6</ele>
        <time>2021-08-09T14:18:12Z</time>
      </trkpt>
      <trkpt lat="42.6346210" lon="1.4975910">
        <ele>2080.0</ele>
        <time>2021-08-09T14:18:30Z</time>
      </trkpt>
      <trkpt lat="42.6346280" lon="1.4973510">
        <ele>2084.6</ele>
        <time>2021-08-09T14:18:58Z</time>
      </trkpt>
      <trkpt lat="42.6346270" lon="1.4973090">
        <ele>2084.6</ele>
        <time>2021-08-09T14:19:03Z</time>
      </trkpt>
      <trkpt lat="42.6346290" lon="1.4972580">
        <ele>2084.6</ele>
        <time>2021-08-09T14:19:08Z</time>
      </trkpt>
      <trkpt lat="42.6346550" lon="1.4971400">
        <ele>2086.2</ele>
        <time>2021-08-09T14:19:32Z</time>
      </trkpt>
      <trkpt lat="42.6348150" lon="1.4971410">
        <ele>2091.3</ele>
        <time>2021-08-09T14:20:14Z</time>
      </trkpt>
      <trkpt lat="42.6348750" lon="1.4970880">
        <ele>2093.5</ele>
        <time>2021-08-09T14:20:29Z</time>
      </trkpt>
      <trkpt lat="42.6349060" lon="1.4970800">
        <ele>2094.5</ele>
        <time>2021-08-09T14:20:33Z</time>
      </trkpt>
      <trkpt lat="42.6349610" lon="1.4970660">
        <ele>2096.2</ele>
        <time>2021-08-09T14:20:41Z</time>
      </trkpt>
      <trkpt lat="42.6349960" lon="1.4970760">
        <ele>2097.2</ele>
        <time>2021-08-09T14:20:50Z</time>
      </trkpt>
      <trkpt lat="42.6350020" lon="1.4970680">
        <ele>2097.4</ele>
        <time>2021-08-09T14:20:52Z</time>
      </trkpt>
      <trkpt lat="42.6350260" lon="1.4970180">
        <ele>2098.6</ele>
        <time>2021-08-09T14:21:00Z</time>
      </trkpt>
      <trkpt lat="42.6350830" lon="1.4969680">
        <ele>2100.4</ele>
        <time>2021-08-09T14:21:27Z</time>
      </trkpt>
      <trkpt lat="42.6350840" lon="1.4969580">
        <ele>2100.6</ele>
        <time>2021-08-09T14:21:36Z</time>
      </trkpt>
      <trkpt lat="42.6351030" lon="1.4969600">
        <ele>2101.0</ele>
        <time>2021-08-09T14:21:39Z</time>
      </trkpt>
      <trkpt lat="42.6351400" lon="1.4969260">
        <ele>2102.0</ele>
        <time>2021-08-09T14:21:47Z</time>
      </trkpt>
      <trkpt lat="42.6351580" lon="1.4969140">
        <ele>2102.5</ele>
        <time>2021-08-09T14:21:50Z</time>
      </trkpt>
      <trkpt lat="42.6353190" lon="1.4967990">
        <ele>2106.2</ele>
        <time>2021-08-09T14:22:14Z</time>
      </trkpt>
      <trkpt lat="42.6353410" lon="1.4967830">
        <ele>2106.6</ele>
        <time>2021-08-09T14:22:18Z</time>
      </trkpt>
      <trkpt lat="42.6354820" lon="1.4966790">
        <ele>2109.4</ele>
        <time>2021-08-09T14:22:40Z</time>
      </trkpt>
      <trkpt lat="42.6354980" lon="1.4966610">
        <ele>2109.8</ele>
        <time>2021-08-09T14:22:42Z</time>
      </trkpt>
      <trkpt lat="42.6355230" lon="1.4966070">
        <ele>2110.5</ele>
        <time>2021-08-09T14:22:51Z</time>
      </trkpt>
      <trkpt lat="42.6355190" lon="1.4965870">
        <ele>2110.8</ele>
        <time>2021-08-09T14:22:56Z</time>
      </trkpt>
      <trkpt lat="42.6355210" lon="1.4965800">
        <ele>2110.9</ele>
        <time>2021-08-09T14:22:57Z</time>
      </trkpt>
      <trkpt lat="42.6355270" lon="1.4965100">
        <ele>2111.8</ele>
        <time>2021-08-09T14:23:06Z</time>
      </trkpt>
      <trkpt lat="42.6354940" lon="1.4963150">
        <ele>2114.3</ele>
        <time>2021-08-09T14:23:27Z</time>
      </trkpt>
      <trkpt lat="42.6353870" lon="1.4961250">
        <ele>2117.1</ele>
        <time>2021-08-09T14:23:56Z</time>
      </trkpt>
      <trkpt lat="42.6352980" lon="1.4959230">
        <ele>2120.0</ele>
        <time>2021-08-09T14:24:27Z</time>
      </trkpt>
      <trkpt lat="42.6352540" lon="1.4956990">
        <ele>2123.3</ele>
        <time>2021-08-09T14:24:52Z</time>
      </trkpt>
      <trkpt lat="42.6351390" lon="1.4955090">
        <ele>2129.5</ele>
        <time>2021-08-09T14:25:17Z</time>
      </trkpt>
      <trkpt lat="42.6350830" lon="1.4954250">
        <ele>2129.4</ele>
        <time>2021-08-09T14:25:28Z</time>
      </trkpt>
      <trkpt lat="42.6350310" lon="1.4952130">
        <ele>2129.2</ele>
        <time>2021-08-09T14:25:59Z</time>
      </trkpt>
      <trkpt lat="42.6350100" lon="1.4951130">
        <ele>2129.0</ele>
        <time>2021-08-09T14:26:26Z</time>
      </trkpt>
      <trkpt lat="42.6349940" lon="1.4950970">
        <ele>2129.0</ele>
        <time>2021-08-09T14:26:57Z</time>
      </trkpt>
      <trkpt lat="42.6349920" lon="1.4950970">
        <ele>2129.0</ele>
        <time>2021-08-09T14:26:58Z</time>
      </trkpt>
      <trkpt lat="42.6349880" lon="1.4950980">
        <ele>2129.0</ele>
        <time>2021-08-09T14:26:59Z</time>
      </trkpt>
      <trkpt lat="42.6349860" lon="1.4950950">
        <ele>2129.0</ele>
        <time>2021-08-09T14:27:08Z</time>
      </trkpt>
      <trkpt lat="42.6349900" lon="1.4950960">
        <ele>2129.0</ele>
        <time>2021-08-09T14:27:11Z</time>
      </trkpt>
      <trkpt lat="42.6349950" lon="1.4950920">
        <ele>2129.0</ele>
        <time>2021-08-09T14:27:15Z</time>
      </trkpt>
      <trkpt lat="42.6349980" lon="1.4950960">
        <ele>2129.0</ele>
        <time>2021-08-09T14:27:18Z</time>
      </trkpt>
      <trkpt lat="42.6350160" lon="1.4950830">
        <ele>2128.9</ele>
        <time>2021-08-09T14:28:00Z</time>
      </trkpt>
      <trkpt lat="42.6350070" lon="1.4950520">
        <ele>2128.9</ele>
        <time>2021-08-09T14:28:18Z</time>
      </trkpt>
      <trkpt lat="42.6350040" lon="1.4950580">
        <ele>2128.9</ele>
        <time>2021-08-09T14:28:28Z</time>
      </trkpt>
      <trkpt lat="42.6350100" lon="1.4950200">
        <ele>2128.8</ele>
        <time>2021-08-09T14:28:41Z</time>
      </trkpt>
      <trkpt lat="42.6350050" lon="1.4949980">
        <ele>2128.8</ele>
        <time>2021-08-09T14:28:44Z</time>
      </trkpt>
      <trkpt lat="42.6349930" lon="1.4949720">
        <ele>2128.8</ele>
        <time>2021-08-09T14:28:48Z</time>
      </trkpt>
      <trkpt lat="42.6349700" lon="1.4948990">
        <ele>2128.7</ele>
        <time>2021-08-09T14:28:58Z</time>
      </trkpt>
      <trkpt lat="42.6349690" lon="1.4948900">
        <ele>2128.7</ele>
        <time>2021-08-09T14:28:59Z</time>
      </trkpt>
      <trkpt lat="42.6349640" lon="1.4948610">
        <ele>2128.7</ele>
        <time>2021-08-09T14:29:02Z</time>
      </trkpt>
      <trkpt lat="42.6349510" lon="1.4948020">
        <ele>2128.7</ele>
        <time>2021-08-09T14:29:08Z</time>
      </trkpt>
      <trkpt lat="42.6349400" lon="1.4947570">
        <ele>2128.8</ele>
        <time>2021-08-09T14:29:15Z</time>
      </trkpt>
      <trkpt lat="42.6349360" lon="1.4947400">
        <ele>2128.8</ele>
        <time>2021-08-09T14:29:22Z</time>
      </trkpt>
      <trkpt lat="42.6349320" lon="1.4947430">
        <ele>2128.8</ele>
        <time>2021-08-09T14:29:28Z</time>
      </trkpt>
      <trkpt lat="42.6348250" lon="1.4945440">
        <ele>2130.3</ele>
        <time>2021-08-09T14:29:54Z</time>
      </trkpt>
      <trkpt lat="42.6348060" lon="1.4944990">
        <ele>2130.7</ele>
        <time>2021-08-09T14:29:59Z</time>
      </trkpt>
      <trkpt lat="42.6348020" lon="1.4944730">
        <ele>2130.9</ele>
        <time>2021-08-09T14:30:03Z</time>
      </trkpt>
      <trkpt lat="42.6348230" lon="1.4944370">
        <ele>2131.3</ele>
        <time>2021-08-09T14:30:10Z</time>
      </trkpt>
      <trkpt lat="42.6348310" lon="1.4944180">
        <ele>2131.5</ele>
        <time>2021-08-09T14:30:13Z</time>
      </trkpt>
      <trkpt lat="42.6348680" lon="1.4942840">
        <ele>2132.7</ele>
        <time>2021-08-09T14:30:30Z</time>
      </trkpt>
      <trkpt lat="42.6348620" lon="1.4942460">
        <ele>2133.1</ele>
        <time>2021-08-09T14:30:34Z</time>
      </trkpt>
      <trkpt lat="42.6348410" lon="1.4941690">
        <ele>2133.8</ele>
        <time>2021-08-09T14:30:44Z</time>
      </trkpt>
      <trkpt lat="42.6348800" lon="1.4940130">
        <ele>2135.3</ele>
        <time>2021-08-09T14:31:14Z</time>
      </trkpt>
      <trkpt lat="42.6349400" lon="1.4940290">
        <ele>2136.2</ele>
        <time>2021-08-09T14:31:26Z</time>
      </trkpt>
      <trkpt lat="42.6349010" lon="1.4938850">
        <ele>2138.0</ele>
        <time>2021-08-09T14:31:50Z</time>
      </trkpt>
      <trkpt lat="42.6348860" lon="1.4937470">
        <ele>2139.8</ele>
        <time>2021-08-09T14:32:11Z</time>
      </trkpt>
      <trkpt lat="42.6349000" lon="1.4937550">
        <ele>2140.1</ele>
        <time>2021-08-09T14:32:15Z</time>
      </trkpt>
      <trkpt lat="42.6349910" lon="1.4937180">
        <ele>2141.9</ele>
        <time>2021-08-09T14:32:43Z</time>
      </trkpt>
      <trkpt lat="42.6350030" lon="1.4937380">
        <ele>2142.3</ele>
        <time>2021-08-09T14:32:49Z</time>
      </trkpt>
      <trkpt lat="42.6350200" lon="1.4936450">
        <ele>2143.8</ele>
        <time>2021-08-09T14:33:16Z</time>
      </trkpt>
      <trkpt lat="42.6350220" lon="1.4935540">
        <ele>2145.3</ele>
        <time>2021-08-09T14:33:31Z</time>
      </trkpt>
      <trkpt lat="42.6350260" lon="1.4935180">
        <ele>2145.9</ele>
        <time>2021-08-09T14:33:37Z</time>
      </trkpt>
      <trkpt lat="42.6350250" lon="1.4935030">
        <ele>2146.1</ele>
        <time>2021-08-09T14:33:39Z</time>
      </trkpt>
      <trkpt lat="42.6350150" lon="1.4934610">
        <ele>2146.8</ele>
        <time>2021-08-09T14:33:50Z</time>
      </trkpt>
      <trkpt lat="42.6350240" lon="1.4934610">
        <ele>2147.0</ele>
        <time>2021-08-09T14:33:59Z</time>
      </trkpt>
      <trkpt lat="42.6350460" lon="1.4933940">
        <ele>2148.2</ele>
        <time>2021-08-09T14:34:19Z</time>
      </trkpt>
      <trkpt lat="42.6350330" lon="1.4933270">
        <ele>2149.3</ele>
        <time>2021-08-09T14:34:29Z</time>
      </trkpt>
      <trkpt lat="42.6350290" lon="1.4933090">
        <ele>2149.6</ele>
        <time>2021-08-09T14:34:32Z</time>
      </trkpt>
      <trkpt lat="42.6350240" lon="1.4932930">
        <ele>2149.9</ele>
        <time>2021-08-09T14:34:34Z</time>
      </trkpt>
      <trkpt lat="42.6350170" lon="1.4932750">
        <ele>2150.2</ele>
        <time>2021-08-09T14:34:37Z</time>
      </trkpt>
      <trkpt lat="42.6350110" lon="1.4932070">
        <ele>2151.2</ele>
        <time>2021-08-09T14:34:45Z</time>
      </trkpt>
      <trkpt lat="42.6350110" lon="1.4932030">
        <ele>2151.3</ele>
        <time>2021-08-09T14:34:46Z</time>
      </trkpt>
      <trkpt lat="42.6350110" lon="1.4931910">
        <ele>2151.5</ele>
        <time>2021-08-09T14:34:48Z</time>
      </trkpt>
      <trkpt lat="42.6350110" lon="1.4931830">
        <ele>2151.6</ele>
        <time>2021-08-09T14:34:49Z</time>
      </trkpt>
      <trkpt lat="42.6350160" lon="1.4931150">
        <ele>2152.6</ele>
        <time>2021-08-09T14:34:58Z</time>
      </trkpt>
      <trkpt lat="42.6350000" lon="1.4930580">
        <ele>2153.4</ele>
        <time>2021-08-09T14:35:06Z</time>
      </trkpt>
      <trkpt lat="42.6349850" lon="1.4929590">
        <ele>2154.7</ele>
        <time>2021-08-09T14:35:17Z</time>
      </trkpt>
      <trkpt lat="42.6349860" lon="1.4929550">
        <ele>2154.8</ele>
        <time>2021-08-09T14:35:18Z</time>
      </trkpt>
      <trkpt lat="42.6349850" lon="1.4929480">
        <ele>2154.8</ele>
        <time>2021-08-09T14:35:19Z</time>
      </trkpt>
      <trkpt lat="42.6349770" lon="1.4929240">
        <ele>2155.2</ele>
        <time>2021-08-09T14:35:22Z</time>
      </trkpt>
      <trkpt lat="42.6349490" lon="1.4928440">
        <ele>2156.2</ele>
        <time>2021-08-09T14:35:32Z</time>
      </trkpt>
      <trkpt lat="42.6349260" lon="1.4928110">
        <ele>2156.7</ele>
        <time>2021-08-09T14:35:37Z</time>
      </trkpt>
      <trkpt lat="42.6348850" lon="1.4927070">
        <ele>2158.0</ele>
        <time>2021-08-09T14:36:00Z</time>
      </trkpt>
      <trkpt lat="42.6348730" lon="1.4926800">
        <ele>2158.4</ele>
        <time>2021-08-09T14:36:04Z</time>
      </trkpt>
      <trkpt lat="42.6348600" lon="1.4926660">
        <ele>2158.6</ele>
        <time>2021-08-09T14:36:06Z</time>
      </trkpt>
      <trkpt lat="42.6348240" lon="1.4926400">
        <ele>2159.2</ele>
        <time>2021-08-09T14:36:11Z</time>
      </trkpt>
      <trkpt lat="42.6347360" lon="1.4925620">
        <ele>2160.9</ele>
        <time>2021-08-09T14:36:25Z</time>
      </trkpt>
      <trkpt lat="42.6347100" lon="1.4925280">
        <ele>2161.5</ele>
        <time>2021-08-09T14:36:32Z</time>
      </trkpt>
      <trkpt lat="42.6347000" lon="1.4925070">
        <ele>2161.8</ele>
        <time>2021-08-09T14:36:36Z</time>
      </trkpt>
      <trkpt lat="42.6347050" lon="1.4922750">
        <ele>2164.9</ele>
        <time>2021-08-09T14:37:17Z</time>
      </trkpt>
      <trkpt lat="42.6346690" lon="1.4922040">
        <ele>2166.1</ele>
        <time>2021-08-09T14:38:00Z</time>
      </trkpt>
      <trkpt lat="42.6346750" lon="1.4921740">
        <ele>2166.6</ele>
        <time>2021-08-09T14:38:07Z</time>
      </trkpt>
      <trkpt lat="42.6346640" lon="1.4921250">
        <ele>2167.3</ele>
        <time>2021-08-09T14:38:15Z</time>
      </trkpt>
      <trkpt lat="42.6346480" lon="1.4921180">
        <ele>2167.6</ele>
        <time>2021-08-09T14:38:18Z</time>
      </trkpt>
      <trkpt lat="42.6346390" lon="1.4921140">
        <ele>2167.8</ele>
        <time>2021-08-09T14:38:20Z</time>
      </trkpt>
      <trkpt lat="42.6346060" lon="1.4920820">
        <ele>2168.6</ele>
        <time>2021-08-09T14:38:28Z</time>
      </trkpt>
      <trkpt lat="42.6345800" lon="1.4918410">
        <ele>2171.7</ele>
        <time>2021-08-09T14:39:05Z</time>
      </trkpt>
      <trkpt lat="42.6345240" lon="1.4916590">
        <ele>2174.2</ele>
        <time>2021-08-09T14:39:29Z</time>
      </trkpt>
      <trkpt lat="42.6345190" lon="1.4916230">
        <ele>2174.7</ele>
        <time>2021-08-09T14:39:36Z</time>
      </trkpt>
      <trkpt lat="42.6345410" lon="1.4914560">
        <ele>2177.0</ele>
        <time>2021-08-09T14:39:59Z</time>
      </trkpt>
      <trkpt lat="42.6345510" lon="1.4914120">
        <ele>2177.5</ele>
        <time>2021-08-09T14:40:06Z</time>
      </trkpt>
      <trkpt lat="42.6344990" lon="1.4912000">
        <ele>2180.0</ele>
        <time>2021-08-09T14:40:35Z</time>
      </trkpt>
      <trkpt lat="42.6344950" lon="1.4911900">
        <ele>2180.1</ele>
        <time>2021-08-09T14:40:36Z</time>
      </trkpt>
      <trkpt lat="42.6344750" lon="1.4911440">
        <ele>2180.6</ele>
        <time>2021-08-09T14:40:41Z</time>
      </trkpt>
      <trkpt lat="42.6344410" lon="1.4910260">
        <ele>2181.8</ele>
        <time>2021-08-09T14:40:54Z</time>
      </trkpt>
      <trkpt lat="42.6344420" lon="1.4910020">
        <ele>2182.0</ele>
        <time>2021-08-09T14:40:57Z</time>
      </trkpt>
      <trkpt lat="42.6344430" lon="1.4909970">
        <ele>2182.0</ele>
        <time>2021-08-09T14:40:58Z</time>
      </trkpt>
      <trkpt lat="42.6344400" lon="1.4909900">
        <ele>2182.1</ele>
        <time>2021-08-09T14:40:59Z</time>
      </trkpt>
      <trkpt lat="42.6344380" lon="1.4909830">
        <ele>2182.2</ele>
        <time>2021-08-09T14:41:00Z</time>
      </trkpt>
      <trkpt lat="42.6344200" lon="1.4909610">
        <ele>2182.5</ele>
        <time>2021-08-09T14:41:05Z</time>
      </trkpt>
      <trkpt lat="42.6344120" lon="1.4909500">
        <ele>2182.6</ele>
        <time>2021-08-09T14:41:07Z</time>
      </trkpt>
      <trkpt lat="42.6344100" lon="1.4909450">
        <ele>2182.7</ele>
        <time>2021-08-09T14:41:08Z</time>
      </trkpt>
      <trkpt lat="42.6344050" lon="1.4909320">
        <ele>2182.8</ele>
        <time>2021-08-09T14:41:10Z</time>
      </trkpt>
      <trkpt lat="42.6344000" lon="1.4909110">
        <ele>2183.0</ele>
        <time>2021-08-09T14:41:13Z</time>
      </trkpt>
      <trkpt lat="42.6344040" lon="1.4909000">
        <ele>2183.1</ele>
        <time>2021-08-09T14:41:14Z</time>
      </trkpt>
      <trkpt lat="42.6344030" lon="1.4908920">
        <ele>2183.2</ele>
        <time>2021-08-09T14:41:15Z</time>
      </trkpt>
      <trkpt lat="42.6343970" lon="1.4908510">
        <ele>2183.6</ele>
        <time>2021-08-09T14:41:20Z</time>
      </trkpt>
      <trkpt lat="42.6343880" lon="1.4908160">
        <ele>2183.9</ele>
        <time>2021-08-09T14:41:24Z</time>
      </trkpt>
      <trkpt lat="42.6343650" lon="1.4907460">
        <ele>2184.5</ele>
        <time>2021-08-09T14:41:31Z</time>
      </trkpt>
      <trkpt lat="42.6343540" lon="1.4907030">
        <ele>2184.9</ele>
        <time>2021-08-09T14:41:37Z</time>
      </trkpt>
      <trkpt lat="42.6343360" lon="1.4906430">
        <ele>2185.4</ele>
        <time>2021-08-09T14:41:46Z</time>
      </trkpt>
      <trkpt lat="42.6343130" lon="1.4905820">
        <ele>2186.0</ele>
        <time>2021-08-09T14:41:55Z</time>
      </trkpt>
      <trkpt lat="42.6342780" lon="1.4905280">
        <ele>2186.6</ele>
        <time>2021-08-09T14:42:04Z</time>
      </trkpt>
      <trkpt lat="42.6342060" lon="1.4904570">
        <ele>2187.5</ele>
        <time>2021-08-09T14:42:52Z</time>
      </trkpt>
      <trkpt lat="42.6342070" lon="1.4904580">
        <ele>2187.5</ele>
        <time>2021-08-09T14:43:01Z</time>
      </trkpt>
      <trkpt lat="42.6342070" lon="1.4904530">
        <ele>2187.5</ele>
        <time>2021-08-09T14:43:06Z</time>
      </trkpt>
      <trkpt lat="42.6342060" lon="1.4904530">
        <ele>2187.5</ele>
        <time>2021-08-09T14:43:13Z</time>
      </trkpt>
      <trkpt lat="42.6341900" lon="1.4904230">
        <ele>2187.8</ele>
        <time>2021-08-09T14:43:27Z</time>
      </trkpt>
      <trkpt lat="42.6341850" lon="1.4904240">
        <ele>2187.8</ele>
        <time>2021-08-09T14:43:28Z</time>
      </trkpt>
      <trkpt lat="42.6341560" lon="1.4904120">
        <ele>2188.2</ele>
        <time>2021-08-09T14:43:46Z</time>
      </trkpt>
      <trkpt lat="42.6341540" lon="1.4904110">
        <ele>2188.2</ele>
        <time>2021-08-09T14:43:47Z</time>
      </trkpt>
      <trkpt lat="42.6341490" lon="1.4904100">
        <ele>2188.2</ele>
        <time>2021-08-09T14:43:48Z</time>
      </trkpt>
      <trkpt lat="42.6341440" lon="1.4904090">
        <ele>2188.3</ele>
        <time>2021-08-09T14:43:49Z</time>
      </trkpt>
      <trkpt lat="42.6341360" lon="1.4904020">
        <ele>2188.4</ele>
        <time>2021-08-09T14:43:51Z</time>
      </trkpt>
      <trkpt lat="42.6341320" lon="1.4903960">
        <ele>2188.4</ele>
        <time>2021-08-09T14:43:52Z</time>
      </trkpt>
      <trkpt lat="42.6341250" lon="1.4903860">
        <ele>2188.6</ele>
        <time>2021-08-09T14:43:53Z</time>
      </trkpt>
      <trkpt lat="42.6341130" lon="1.4903720">
        <ele>2188.7</ele>
        <time>2021-08-09T14:43:55Z</time>
      </trkpt>
      <trkpt lat="42.6340730" lon="1.4903140">
        <ele>2189.3</ele>
        <time>2021-08-09T14:44:03Z</time>
      </trkpt>
      <trkpt lat="42.6340660" lon="1.4903060">
        <ele>2189.4</ele>
        <time>2021-08-09T14:44:04Z</time>
      </trkpt>
      <trkpt lat="42.6339870" lon="1.4902100">
        <ele>2190.6</ele>
        <time>2021-08-09T14:44:18Z</time>
      </trkpt>
      <trkpt lat="42.6339640" lon="1.4901970">
        <ele>2190.9</ele>
        <time>2021-08-09T14:44:21Z</time>
      </trkpt>
      <trkpt lat="42.6339490" lon="1.4901790">
        <ele>2191.1</ele>
        <time>2021-08-09T14:44:24Z</time>
      </trkpt>
      <trkpt lat="42.6339410" lon="1.4901730">
        <ele>2191.2</ele>
        <time>2021-08-09T14:44:26Z</time>
      </trkpt>
      <trkpt lat="42.6339190" lon="1.4901590">
        <ele>2191.4</ele>
        <time>2021-08-09T14:44:30Z</time>
      </trkpt>
      <trkpt lat="42.6338530" lon="1.4900780">
        <ele>2192.8</ele>
        <time>2021-08-09T14:44:49Z</time>
      </trkpt>
      <trkpt lat="42.6338540" lon="1.4900740">
        <ele>2192.8</ele>
        <time>2021-08-09T14:45:01Z</time>
      </trkpt>
      <trkpt lat="42.6340230" lon="1.4899640">
        <ele>2196.7</ele>
        <time>2021-08-09T14:45:25Z</time>
      </trkpt>
      <trkpt lat="42.6340760" lon="1.4899730">
        <ele>2197.8</ele>
        <time>2021-08-09T14:45:31Z</time>
      </trkpt>
      <trkpt lat="42.6342520" lon="1.4899600">
        <ele>2201.4</ele>
        <time>2021-08-09T14:45:53Z</time>
      </trkpt>
      <trkpt lat="42.6342800" lon="1.4900070">
        <ele>2202.3</ele>
        <time>2021-08-09T14:45:58Z</time>
      </trkpt>
      <trkpt lat="42.6342930" lon="1.4900140">
        <ele>2202.6</ele>
        <time>2021-08-09T14:46:05Z</time>
      </trkpt>
      <trkpt lat="42.6342910" lon="1.4900030">
        <ele>2202.8</ele>
        <time>2021-08-09T14:46:21Z</time>
      </trkpt>
      <trkpt lat="42.6342840" lon="1.4899840">
        <ele>2203.1</ele>
        <time>2021-08-09T14:46:30Z</time>
      </trkpt>
      <trkpt lat="42.6342840" lon="1.4899850">
        <ele>2203.1</ele>
        <time>2021-08-09T14:46:31Z</time>
      </trkpt>
      <trkpt lat="42.6342840" lon="1.4899870">
        <ele>2203.2</ele>
        <time>2021-08-09T14:46:32Z</time>
      </trkpt>
      <trkpt lat="42.6342840" lon="1.4899860">
        <ele>2203.2</ele>
        <time>2021-08-09T14:46:33Z</time>
      </trkpt>
      <trkpt lat="42.6342840" lon="1.4899840">
        <ele>2203.2</ele>
        <time>2021-08-09T14:46:34Z</time>
      </trkpt>
      <trkpt lat="42.6343680" lon="1.4901800">
        <ele>2206.7</ele>
        <time>2021-08-09T14:47:05Z</time>
      </trkpt>
      <trkpt lat="42.6343860" lon="1.4902110">
        <ele>2207.3</ele>
        <time>2021-08-09T14:47:10Z</time>
      </trkpt>
      <trkpt lat="42.6344220" lon="1.4902540">
        <ele>2208.2</ele>
        <time>2021-08-09T14:47:15Z</time>
      </trkpt>
      <trkpt lat="42.6344470" lon="1.4902590">
        <ele>2208.8</ele>
        <time>2021-08-09T14:47:18Z</time>
      </trkpt>
      <trkpt lat="42.6344560" lon="1.4902610">
        <ele>2208.9</ele>
        <time>2021-08-09T14:47:19Z</time>
      </trkpt>
      <trkpt lat="42.6344650" lon="1.4902630">
        <ele>2209.1</ele>
        <time>2021-08-09T14:47:20Z</time>
      </trkpt>
      <trkpt lat="42.6344720" lon="1.4902690">
        <ele>2209.3</ele>
        <time>2021-08-09T14:47:21Z</time>
      </trkpt>
      <trkpt lat="42.6344980" lon="1.4902930">
        <ele>2210.0</ele>
        <time>2021-08-09T14:47:25Z</time>
      </trkpt>
      <trkpt lat="42.6345150" lon="1.4902930">
        <ele>2210.3</ele>
        <time>2021-08-09T14:47:27Z</time>
      </trkpt>
      <trkpt lat="42.6345730" lon="1.4903250">
        <ele>2211.6</ele>
        <time>2021-08-09T14:47:37Z</time>
      </trkpt>
      <trkpt lat="42.6345760" lon="1.4903260">
        <ele>2211.7</ele>
        <time>2021-08-09T14:47:38Z</time>
      </trkpt>
      <trkpt lat="42.6345780" lon="1.4903260">
        <ele>2211.7</ele>
        <time>2021-08-09T14:47:39Z</time>
      </trkpt>
      <trkpt lat="42.6345830" lon="1.4903060">
        <ele>2212.0</ele>
        <time>2021-08-09T14:47:44Z</time>
      </trkpt>
      <trkpt lat="42.6345880" lon="1.4902780">
        <ele>2212.5</ele>
        <time>2021-08-09T14:47:48Z</time>
      </trkpt>
      <trkpt lat="42.6345780" lon="1.4902350">
        <ele>2213.1</ele>
        <time>2021-08-09T14:47:55Z</time>
      </trkpt>
      <trkpt lat="42.6345820" lon="1.4901810">
        <ele>2214.0</ele>
        <time>2021-08-09T14:48:07Z</time>
      </trkpt>
      <trkpt lat="42.6345750" lon="1.4901290">
        <ele>2214.8</ele>
        <time>2021-08-09T14:48:16Z</time>
      </trkpt>
      <trkpt lat="42.6345610" lon="1.4900850">
        <ele>2215.5</ele>
        <time>2021-08-09T14:48:25Z</time>
      </trkpt>
      <trkpt lat="42.6345620" lon="1.4900780">
        <ele>2215.6</ele>
        <time>2021-08-09T14:48:26Z</time>
      </trkpt>
      <trkpt lat="42.6345690" lon="1.4899620">
        <ele>2217.4</ele>
        <time>2021-08-09T14:48:46Z</time>
      </trkpt>
      <trkpt lat="42.6345590" lon="1.4899140">
        <ele>2218.1</ele>
        <time>2021-08-09T14:48:59Z</time>
      </trkpt>
      <trkpt lat="42.6345590" lon="1.4899140">
        <ele>2218.1</ele>
        <time>2021-08-09T14:49:01Z</time>
      </trkpt>
      <trkpt lat="42.6345590" lon="1.4899170">
        <ele>2218.2</ele>
        <time>2021-08-09T14:49:04Z</time>
      </trkpt>
      <trkpt lat="42.6345800" lon="1.4898890">
        <ele>2218.8</ele>
        <time>2021-08-09T14:49:14Z</time>
      </trkpt>
      <trkpt lat="42.6345750" lon="1.4898220">
        <ele>2219.8</ele>
        <time>2021-08-09T14:49:23Z</time>
      </trkpt>
      <trkpt lat="42.6346060" lon="1.4897580">
        <ele>2221.0</ele>
        <time>2021-08-09T14:49:34Z</time>
      </trkpt>
      <trkpt lat="42.6346550" lon="1.4897890">
        <ele>2222.1</ele>
        <time>2021-08-09T14:49:47Z</time>
      </trkpt>
      <trkpt lat="42.6346590" lon="1.4898960">
        <ele>2223.7</ele>
        <time>2021-08-09T14:50:06Z</time>
      </trkpt>
      <trkpt lat="42.6346710" lon="1.4898970">
        <ele>2223.9</ele>
        <time>2021-08-09T14:50:12Z</time>
      </trkpt>
      <trkpt lat="42.6346730" lon="1.4898650">
        <ele>2224.4</ele>
        <time>2021-08-09T14:51:30Z</time>
      </trkpt>
      <trkpt lat="42.6346750" lon="1.4898610">
        <ele>2224.5</ele>
        <time>2021-08-09T14:51:31Z</time>
      </trkpt>
      <trkpt lat="42.6347270" lon="1.4897390">
        <ele>2226.6</ele>
        <time>2021-08-09T14:51:53Z</time>
      </trkpt>
      <trkpt lat="42.6347270" lon="1.4897420">
        <ele>2226.7</ele>
        <time>2021-08-09T14:51:55Z</time>
      </trkpt>
      <trkpt lat="42.6347270" lon="1.4897430">
        <ele>2226.7</ele>
        <time>2021-08-09T14:51:56Z</time>
      </trkpt>
      <trkpt lat="42.6347300" lon="1.4897440">
        <ele>2226.8</ele>
        <time>2021-08-09T14:51:58Z</time>
      </trkpt>
      <trkpt lat="42.6347330" lon="1.4897450">
        <ele>2226.8</ele>
        <time>2021-08-09T14:51:59Z</time>
      </trkpt>
      <trkpt lat="42.6347450" lon="1.4897480">
        <ele>2227.1</ele>
        <time>2021-08-09T14:52:02Z</time>
      </trkpt>
      <trkpt lat="42.6347490" lon="1.4897480">
        <ele>2227.2</ele>
        <time>2021-08-09T14:52:04Z</time>
      </trkpt>
      <trkpt lat="42.6347570" lon="1.4897460">
        <ele>2227.3</ele>
        <time>2021-08-09T14:52:06Z</time>
      </trkpt>
      <trkpt lat="42.6347640" lon="1.4897480">
        <ele>2227.5</ele>
        <time>2021-08-09T14:52:08Z</time>
      </trkpt>
      <trkpt lat="42.6347920" lon="1.4897670">
        <ele>2228.1</ele>
        <time>2021-08-09T14:52:15Z</time>
      </trkpt>
      <trkpt lat="42.6347980" lon="1.4897660">
        <ele>2228.2</ele>
        <time>2021-08-09T14:52:18Z</time>
      </trkpt>
      <trkpt lat="42.6348040" lon="1.4897740">
        <ele>2228.4</ele>
        <time>2021-08-09T14:52:21Z</time>
      </trkpt>
      <trkpt lat="42.6348060" lon="1.4897780">
        <ele>2228.5</ele>
        <time>2021-08-09T14:52:22Z</time>
      </trkpt>
      <trkpt lat="42.6348390" lon="1.4898410">
        <ele>2229.7</ele>
        <time>2021-08-09T14:52:34Z</time>
      </trkpt>
      <trkpt lat="42.6348430" lon="1.4898580">
        <ele>2229.9</ele>
        <time>2021-08-09T14:52:37Z</time>
      </trkpt>
      <trkpt lat="42.6349160" lon="1.4899480">
        <ele>2232.0</ele>
        <time>2021-08-09T14:53:04Z</time>
      </trkpt>
      <trkpt lat="42.6349430" lon="1.4899540">
        <ele>2232.5</ele>
        <time>2021-08-09T14:53:08Z</time>
      </trkpt>
      <trkpt lat="42.6350000" lon="1.4899910">
        <ele>2233.8</ele>
        <time>2021-08-09T14:53:18Z</time>
      </trkpt>
      <trkpt lat="42.6350090" lon="1.4899980">
        <ele>2234.0</ele>
        <time>2021-08-09T14:53:22Z</time>
      </trkpt>
      <trkpt lat="42.6350870" lon="1.4900540">
        <ele>2235.9</ele>
        <time>2021-08-09T14:53:45Z</time>
      </trkpt>
      <trkpt lat="42.6351210" lon="1.4901050">
        <ele>2236.9</ele>
        <time>2021-08-09T14:53:56Z</time>
      </trkpt>
      <trkpt lat="42.6351620" lon="1.4901250">
        <ele>2237.8</ele>
        <time>2021-08-09T14:54:03Z</time>
      </trkpt>
      <trkpt lat="42.6351750" lon="1.4901550">
        <ele>2238.3</ele>
        <time>2021-08-09T14:54:07Z</time>
      </trkpt>
      <trkpt lat="42.6351850" lon="1.4901950">
        <ele>2239.0</ele>
        <time>2021-08-09T14:54:12Z</time>
      </trkpt>
      <trkpt lat="42.6352010" lon="1.4902200">
        <ele>2239.5</ele>
        <time>2021-08-09T14:54:18Z</time>
      </trkpt>
      <trkpt lat="42.6352280" lon="1.4902870">
        <ele>2240.6</ele>
        <time>2021-08-09T14:54:29Z</time>
      </trkpt>
      <trkpt lat="42.6352490" lon="1.4903300">
        <ele>2241.4</ele>
        <time>2021-08-09T14:54:38Z</time>
      </trkpt>
      <trkpt lat="42.6352570" lon="1.4903420">
        <ele>2241.7</ele>
        <time>2021-08-09T14:54:40Z</time>
      </trkpt>
      <trkpt lat="42.6352610" lon="1.4903610">
        <ele>2242.0</ele>
        <time>2021-08-09T14:54:42Z</time>
      </trkpt>
      <trkpt lat="42.6352760" lon="1.4904160">
        <ele>2242.8</ele>
        <time>2021-08-09T14:54:51Z</time>
      </trkpt>
      <trkpt lat="42.6352840" lon="1.4904340">
        <ele>2243.2</ele>
        <time>2021-08-09T14:54:54Z</time>
      </trkpt>
      <trkpt lat="42.6353170" lon="1.4904890">
        <ele>2244.2</ele>
        <time>2021-08-09T14:55:07Z</time>
      </trkpt>
      <trkpt lat="42.6353470" lon="1.4904320">
        <ele>2245.3</ele>
        <time>2021-08-09T14:55:21Z</time>
      </trkpt>
      <trkpt lat="42.6353750" lon="1.4903930">
        <ele>2246.1</ele>
        <time>2021-08-09T14:55:35Z</time>
      </trkpt>
      <trkpt lat="42.6353910" lon="1.4904900">
        <ele>2247.6</ele>
        <time>2021-08-09T14:55:56Z</time>
      </trkpt>
      <trkpt lat="42.6353980" lon="1.4905520">
        <ele>2248.6</ele>
        <time>2021-08-09T14:56:06Z</time>
      </trkpt>
      <trkpt lat="42.6354130" lon="1.4906210">
        <ele>2249.7</ele>
        <time>2021-08-09T14:56:25Z</time>
      </trkpt>
      <trkpt lat="42.6354850" lon="1.4908470">
        <ele>2253.4</ele>
        <time>2021-08-09T14:56:53Z</time>
      </trkpt>
      <trkpt lat="42.6355500" lon="1.4908870">
        <ele>2254.9</ele>
        <time>2021-08-09T14:57:46Z</time>
      </trkpt>
      <trkpt lat="42.6355650" lon="1.4908880">
        <ele>2255.2</ele>
        <time>2021-08-09T14:58:02Z</time>
      </trkpt>
      <trkpt lat="42.6355660" lon="1.4908750">
        <ele>2255.4</ele>
        <time>2021-08-09T14:58:08Z</time>
      </trkpt>
      <trkpt lat="42.6355660" lon="1.4908730">
        <ele>2255.4</ele>
        <time>2021-08-09T14:58:09Z</time>
      </trkpt>
      <trkpt lat="42.6355630" lon="1.4909840">
        <ele>2257.1</ele>
        <time>2021-08-09T14:58:28Z</time>
      </trkpt>
      <trkpt lat="42.6355580" lon="1.4910430">
        <ele>2258.0</ele>
        <time>2021-08-09T14:58:33Z</time>
      </trkpt>
      <trkpt lat="42.6355630" lon="1.4910750">
        <ele>2258.5</ele>
        <time>2021-08-09T14:58:36Z</time>
      </trkpt>
      <trkpt lat="42.6355630" lon="1.4910880">
        <ele>2258.7</ele>
        <time>2021-08-09T14:58:37Z</time>
      </trkpt>
      <trkpt lat="42.6355770" lon="1.4911400">
        <ele>2259.5</ele>
        <time>2021-08-09T14:58:42Z</time>
      </trkpt>
      <trkpt lat="42.6355820" lon="1.4911610">
        <ele>2259.9</ele>
        <time>2021-08-09T14:58:44Z</time>
      </trkpt>
      <trkpt lat="42.6355910" lon="1.4911910">
        <ele>2260.4</ele>
        <time>2021-08-09T14:58:47Z</time>
      </trkpt>
      <trkpt lat="42.6355970" lon="1.4912310">
        <ele>2261.0</ele>
        <time>2021-08-09T14:58:51Z</time>
      </trkpt>
      <trkpt lat="42.6356140" lon="1.4912710">
        <ele>2261.7</ele>
        <time>2021-08-09T14:58:56Z</time>
      </trkpt>
      <trkpt lat="42.6356190" lon="1.4912760">
        <ele>2261.8</ele>
        <time>2021-08-09T14:58:57Z</time>
      </trkpt>
      <trkpt lat="42.6356260" lon="1.4912810">
        <ele>2262.0</ele>
        <time>2021-08-09T14:58:58Z</time>
      </trkpt>
      <trkpt lat="42.6356500" lon="1.4912570">
        <ele>2262.6</ele>
        <time>2021-08-09T14:59:08Z</time>
      </trkpt>
      <trkpt lat="42.6356520" lon="1.4912470">
        <ele>2262.7</ele>
        <time>2021-08-09T14:59:11Z</time>
      </trkpt>
      <trkpt lat="42.6356870" lon="1.4911600">
        <ele>2264.2</ele>
        <time>2021-08-09T14:59:27Z</time>
      </trkpt>
      <trkpt lat="42.6357100" lon="1.4911080">
        <ele>2265.2</ele>
        <time>2021-08-09T14:59:40Z</time>
      </trkpt>
      <trkpt lat="42.6357360" lon="1.4910510">
        <ele>2266.2</ele>
        <time>2021-08-09T14:59:56Z</time>
      </trkpt>
      <trkpt lat="42.6357630" lon="1.4910870">
        <ele>2267.0</ele>
        <time>2021-08-09T15:00:06Z</time>
      </trkpt>
      <trkpt lat="42.6357680" lon="1.4910880">
        <ele>2267.1</ele>
        <time>2021-08-09T15:00:11Z</time>
      </trkpt>
      <trkpt lat="42.6357900" lon="1.4911010">
        <ele>2267.6</ele>
        <time>2021-08-09T15:00:16Z</time>
      </trkpt>
      <trkpt lat="42.6357940" lon="1.4911070">
        <ele>2267.7</ele>
        <time>2021-08-09T15:00:17Z</time>
      </trkpt>
      <trkpt lat="42.6358190" lon="1.4911970">
        <ele>2269.1</ele>
        <time>2021-08-09T15:00:32Z</time>
      </trkpt>
      <trkpt lat="42.6358340" lon="1.4911760">
        <ele>2269.6</ele>
        <time>2021-08-09T15:00:36Z</time>
      </trkpt>
      <trkpt lat="42.6359040" lon="1.4910470">
        <ele>2272.9</ele>
        <time>2021-08-09T15:00:50Z</time>
      </trkpt>
      <trkpt lat="42.6359090" lon="1.4910070">
        <ele>2272.5</ele>
        <time>2021-08-09T15:00:54Z</time>
      </trkpt>
      <trkpt lat="42.6360030" lon="1.4909860">
        <ele>2271.4</ele>
        <time>2021-08-09T15:10:48Z</time>
      </trkpt>
      <trkpt lat="42.6360060" lon="1.4909890">
        <ele>2271.3</ele>
        <time>2021-08-09T15:10:49Z</time>
      </trkpt>
      <trkpt lat="42.6360830" lon="1.4910200">
        <ele>2270.2</ele>
        <time>2021-08-09T15:11:03Z</time>
      </trkpt>
      <trkpt lat="42.6360850" lon="1.4910210">
        <ele>2270.2</ele>
        <time>2021-08-09T15:11:04Z</time>
      </trkpt>
      <trkpt lat="42.6360840" lon="1.4910230">
        <ele>2270.1</ele>
        <time>2021-08-09T15:11:05Z</time>
      </trkpt>
      <trkpt lat="42.6361130" lon="1.4909940">
        <ele>2269.6</ele>
        <time>2021-08-09T15:11:17Z</time>
      </trkpt>
      <trkpt lat="42.6361200" lon="1.4909860">
        <ele>2269.5</ele>
        <time>2021-08-09T15:11:19Z</time>
      </trkpt>
      <trkpt lat="42.6361270" lon="1.4909840">
        <ele>2269.4</ele>
        <time>2021-08-09T15:11:20Z</time>
      </trkpt>
      <trkpt lat="42.6361360" lon="1.4909810">
        <ele>2269.2</ele>
        <time>2021-08-09T15:11:21Z</time>
      </trkpt>
      <trkpt lat="42.6361460" lon="1.4909790">
        <ele>2269.1</ele>
        <time>2021-08-09T15:11:22Z</time>
      </trkpt>
      <trkpt lat="42.6361520" lon="1.4909790">
        <ele>2269.0</ele>
        <time>2021-08-09T15:11:23Z</time>
      </trkpt>
      <trkpt lat="42.6361600" lon="1.4909800">
        <ele>2268.9</ele>
        <time>2021-08-09T15:11:24Z</time>
      </trkpt>
      <trkpt lat="42.6361700" lon="1.4909800">
        <ele>2268.7</ele>
        <time>2021-08-09T15:11:26Z</time>
      </trkpt>
      <trkpt lat="42.6361600" lon="1.4909660">
        <ele>2268.5</ele>
        <time>2021-08-09T15:11:33Z</time>
      </trkpt>
      <trkpt lat="42.6361460" lon="1.4909650">
        <ele>2268.3</ele>
        <time>2021-08-09T15:11:40Z</time>
      </trkpt>
      <trkpt lat="42.6361530" lon="1.4909660">
        <ele>2268.2</ele>
        <time>2021-08-09T15:11:42Z</time>
      </trkpt>
      <trkpt lat="42.6361980" lon="1.4909680">
        <ele>2267.5</ele>
        <time>2021-08-09T15:11:49Z</time>
      </trkpt>
      <trkpt lat="42.6362320" lon="1.4909560">
        <ele>2267.0</ele>
        <time>2021-08-09T15:11:54Z</time>
      </trkpt>
      <trkpt lat="42.6362880" lon="1.4909610">
        <ele>2266.2</ele>
        <time>2021-08-09T15:12:01Z</time>
      </trkpt>
      <trkpt lat="42.6363280" lon="1.4909670">
        <ele>2265.1</ele>
        <time>2021-08-09T15:12:07Z</time>
      </trkpt>
      <trkpt lat="42.6363720" lon="1.4909710">
        <ele>2263.5</ele>
        <time>2021-08-09T15:12:15Z</time>
      </trkpt>
      <trkpt lat="42.6363930" lon="1.4909820">
        <ele>2262.6</ele>
        <time>2021-08-09T15:12:18Z</time>
      </trkpt>
      <trkpt lat="42.6363970" lon="1.4909850">
        <ele>2262.4</ele>
        <time>2021-08-09T15:12:19Z</time>
      </trkpt>
      <trkpt lat="42.6364550" lon="1.4910650">
        <ele>2258.9</ele>
        <time>2021-08-09T15:12:41Z</time>
      </trkpt>
      <trkpt lat="42.6364900" lon="1.4910790">
        <ele>2256.7</ele>
        <time>2021-08-09T15:12:54Z</time>
      </trkpt>
      <trkpt lat="42.6364940" lon="1.4910820">
        <ele>2256.6</ele>
        <time>2021-08-09T15:12:56Z</time>
      </trkpt>
      <trkpt lat="42.6364930" lon="1.4910810">
        <ele>2256.6</ele>
        <time>2021-08-09T15:12:57Z</time>
      </trkpt>
      <trkpt lat="42.6364930" lon="1.4910730">
        <ele>2256.5</ele>
        <time>2021-08-09T15:13:01Z</time>
      </trkpt>
      <trkpt lat="42.6365170" lon="1.4910810">
        <ele>2256.1</ele>
        <time>2021-08-09T15:13:17Z</time>
      </trkpt>
      <trkpt lat="42.6365170" lon="1.4911130">
        <ele>2255.8</ele>
        <time>2021-08-09T15:13:45Z</time>
      </trkpt>
      <trkpt lat="42.6365390" lon="1.4911050">
        <ele>2255.5</ele>
        <time>2021-08-09T15:13:50Z</time>
      </trkpt>
      <trkpt lat="42.6365620" lon="1.4910880">
        <ele>2255.2</ele>
        <time>2021-08-09T15:13:55Z</time>
      </trkpt>
      <trkpt lat="42.6366130" lon="1.4910780">
        <ele>2254.7</ele>
        <time>2021-08-09T15:14:06Z</time>
      </trkpt>
      <trkpt lat="42.6367700" lon="1.4911950">
        <ele>2253.8</ele>
        <time>2021-08-09T15:14:28Z</time>
      </trkpt>
      <trkpt lat="42.6368050" lon="1.4913150">
        <ele>2253.3</ele>
        <time>2021-08-09T15:14:45Z</time>
      </trkpt>
      <trkpt lat="42.6369060" lon="1.4914240">
        <ele>2253.2</ele>
        <time>2021-08-09T15:15:29Z</time>
      </trkpt>
      <trkpt lat="42.6369590" lon="1.4913200">
        <ele>2253.3</ele>
        <time>2021-08-09T15:16:02Z</time>
      </trkpt>
      <trkpt lat="42.6370430" lon="1.4912650">
        <ele>2253.6</ele>
        <time>2021-08-09T15:16:13Z</time>
      </trkpt>
      <trkpt lat="42.6370460" lon="1.4912470">
        <ele>2253.6</ele>
        <time>2021-08-09T15:16:18Z</time>
      </trkpt>
      <trkpt lat="42.6370490" lon="1.4913030">
        <ele>2253.7</ele>
        <time>2021-08-09T15:16:48Z</time>
      </trkpt>
      <trkpt lat="42.6369840" lon="1.4913720">
        <ele>2253.8</ele>
        <time>2021-08-09T15:20:21Z</time>
      </trkpt>
      <trkpt lat="42.6371650" lon="1.4914170">
        <ele>2254.2</ele>
        <time>2021-08-09T15:20:42Z</time>
      </trkpt>
      <trkpt lat="42.6373270" lon="1.4915270">
        <ele>2255.0</ele>
        <time>2021-08-09T15:21:11Z</time>
      </trkpt>
      <trkpt lat="42.6373360" lon="1.4915260">
        <ele>2255.1</ele>
        <time>2021-08-09T15:21:19Z</time>
      </trkpt>
      <trkpt lat="42.6373600" lon="1.4915250">
        <ele>2255.2</ele>
        <time>2021-08-09T15:21:43Z</time>
      </trkpt>
      <trkpt lat="42.6373660" lon="1.4915380">
        <ele>2255.5</ele>
        <time>2021-08-09T15:21:53Z</time>
      </trkpt>
      <trkpt lat="42.6373660" lon="1.4915400">
        <ele>2255.5</ele>
        <time>2021-08-09T15:21:57Z</time>
      </trkpt>
      <trkpt lat="42.6373720" lon="1.4915250">
        <ele>2255.8</ele>
        <time>2021-08-09T15:22:05Z</time>
      </trkpt>
      <trkpt lat="42.6373680" lon="1.4915230">
        <ele>2255.9</ele>
        <time>2021-08-09T15:22:07Z</time>
      </trkpt>
      <trkpt lat="42.6373680" lon="1.4915220">
        <ele>2255.9</ele>
        <time>2021-08-09T15:22:09Z</time>
      </trkpt>
      <trkpt lat="42.6373680" lon="1.4915220">
        <ele>2255.9</ele>
        <time>2021-08-09T15:22:10Z</time>
      </trkpt>
      <trkpt lat="42.6373680" lon="1.4915230">
        <ele>2255.9</ele>
        <time>2021-08-09T15:22:12Z</time>
      </trkpt>
      <trkpt lat="42.6373680" lon="1.4915220">
        <ele>2255.9</ele>
        <time>2021-08-09T15:22:13Z</time>
      </trkpt>
      <trkpt lat="42.6373630" lon="1.4915200">
        <ele>2256.1</ele>
        <time>2021-08-09T15:22:26Z</time>
      </trkpt>
      <trkpt lat="42.6373650" lon="1.4915180">
        <ele>2256.1</ele>
        <time>2021-08-09T15:22:31Z</time>
      </trkpt>
      <trkpt lat="42.6373610" lon="1.4915230">
        <ele>2256.2</ele>
        <time>2021-08-09T15:22:35Z</time>
      </trkpt>
      <trkpt lat="42.6373610" lon="1.4915260">
        <ele>2256.3</ele>
        <time>2021-08-09T15:22:48Z</time>
      </trkpt>
      <trkpt lat="42.6373670" lon="1.4915300">
        <ele>2256.4</ele>
        <time>2021-08-09T15:22:54Z</time>
      </trkpt>
      <trkpt lat="42.6373750" lon="1.4915320">
        <ele>2256.6</ele>
        <time>2021-08-09T15:23:05Z</time>
      </trkpt>
      <trkpt lat="42.6373550" lon="1.4915350">
        <ele>2257.1</ele>
        <time>2021-08-09T15:23:34Z</time>
      </trkpt>
      <trkpt lat="42.6373510" lon="1.4915310">
        <ele>2257.2</ele>
        <time>2021-08-09T15:23:42Z</time>
      </trkpt>
      <trkpt lat="42.6373820" lon="1.4915150">
        <ele>2257.9</ele>
        <time>2021-08-09T15:24:16Z</time>
      </trkpt>
      <trkpt lat="42.6373840" lon="1.4915210">
        <ele>2258.0</ele>
        <time>2021-08-09T15:24:17Z</time>
      </trkpt>
      <trkpt lat="42.6373900" lon="1.4915270">
        <ele>2258.2</ele>
        <time>2021-08-09T15:24:18Z</time>
      </trkpt>
      <trkpt lat="42.6373960" lon="1.4915330">
        <ele>2258.4</ele>
        <time>2021-08-09T15:24:19Z</time>
      </trkpt>
      <trkpt lat="42.6374060" lon="1.4915420">
        <ele>2258.6</ele>
        <time>2021-08-09T15:24:21Z</time>
      </trkpt>
      <trkpt lat="42.6374100" lon="1.4915460">
        <ele>2258.7</ele>
        <time>2021-08-09T15:24:22Z</time>
      </trkpt>
      <trkpt lat="42.6374170" lon="1.4915510">
        <ele>2258.9</ele>
        <time>2021-08-09T15:24:23Z</time>
      </trkpt>
      <trkpt lat="42.6374420" lon="1.4915730">
        <ele>2259.6</ele>
        <time>2021-08-09T15:24:28Z</time>
      </trkpt>
      <trkpt lat="42.6374480" lon="1.4915790">
        <ele>2259.7</ele>
        <time>2021-08-09T15:24:29Z</time>
      </trkpt>
      <trkpt lat="42.6374780" lon="1.4916080">
        <ele>2260.5</ele>
        <time>2021-08-09T15:24:35Z</time>
      </trkpt>
      <trkpt lat="42.6374820" lon="1.4916150">
        <ele>2260.6</ele>
        <time>2021-08-09T15:24:36Z</time>
      </trkpt>
      <trkpt lat="42.6374860" lon="1.4916200">
        <ele>2260.7</ele>
        <time>2021-08-09T15:24:37Z</time>
      </trkpt>
      <trkpt lat="42.6374900" lon="1.4916240">
        <ele>2260.8</ele>
        <time>2021-08-09T15:24:38Z</time>
      </trkpt>
      <trkpt lat="42.6374960" lon="1.4916290">
        <ele>2261.0</ele>
        <time>2021-08-09T15:24:39Z</time>
      </trkpt>
      <trkpt lat="42.6375190" lon="1.4916550">
        <ele>2261.6</ele>
        <time>2021-08-09T15:24:44Z</time>
      </trkpt>
      <trkpt lat="42.6375310" lon="1.4916650">
        <ele>2261.9</ele>
        <time>2021-08-09T15:24:46Z</time>
      </trkpt>
      <trkpt lat="42.6375210" lon="1.4916760">
        <ele>2262.2</ele>
        <time>2021-08-09T15:24:48Z</time>
      </trkpt>
      <trkpt lat="42.6375310" lon="1.4916710">
        <ele>2262.4</ele>
        <time>2021-08-09T15:24:53Z</time>
      </trkpt>
      <trkpt lat="42.6375320" lon="1.4916710">
        <ele>2262.4</ele>
        <time>2021-08-09T15:24:54Z</time>
      </trkpt>
      <trkpt lat="42.6375450" lon="1.4916700">
        <ele>2262.7</ele>
        <time>2021-08-09T15:24:56Z</time>
      </trkpt>
      <trkpt lat="42.6375620" lon="1.4916680">
        <ele>2263.0</ele>
        <time>2021-08-09T15:24:59Z</time>
      </trkpt>
      <trkpt lat="42.6375690" lon="1.4916650">
        <ele>2263.2</ele>
        <time>2021-08-09T15:25:01Z</time>
      </trkpt>
      <trkpt lat="42.6375720" lon="1.4916590">
        <ele>2263.3</ele>
        <time>2021-08-09T15:25:02Z</time>
      </trkpt>
      <trkpt lat="42.6375810" lon="1.4916480">
        <ele>2263.5</ele>
        <time>2021-08-09T15:25:04Z</time>
      </trkpt>
      <trkpt lat="42.6375930" lon="1.4916420">
        <ele>2263.7</ele>
        <time>2021-08-09T15:25:06Z</time>
      </trkpt>
      <trkpt lat="42.6376150" lon="1.4916420">
        <ele>2264.1</ele>
        <time>2021-08-09T15:25:10Z</time>
      </trkpt>
      <trkpt lat="42.6376360" lon="1.4916330">
        <ele>2264.5</ele>
        <time>2021-08-09T15:25:15Z</time>
      </trkpt>
      <trkpt lat="42.6377630" lon="1.4916050">
        <ele>2266.2</ele>
        <time>2021-08-09T15:25:55Z</time>
      </trkpt>
      <trkpt lat="42.6378730" lon="1.4914620">
        <ele>2268.1</ele>
        <time>2021-08-09T15:26:30Z</time>
      </trkpt>
      <trkpt lat="42.6380070" lon="1.4913940">
        <ele>2270.2</ele>
        <time>2021-08-09T15:26:49Z</time>
      </trkpt>
      <trkpt lat="42.6380140" lon="1.4913910">
        <ele>2270.3</ele>
        <time>2021-08-09T15:26:50Z</time>
      </trkpt>
      <trkpt lat="42.6380180" lon="1.4913890">
        <ele>2270.3</ele>
        <time>2021-08-09T15:26:51Z</time>
      </trkpt>
      <trkpt lat="42.6380220" lon="1.4913860">
        <ele>2270.4</ele>
        <time>2021-08-09T15:26:52Z</time>
      </trkpt>
      <trkpt lat="42.6381050" lon="1.4913230">
        <ele>2271.8</ele>
        <time>2021-08-09T15:27:04Z</time>
      </trkpt>
      <trkpt lat="42.6381290" lon="1.4912970">
        <ele>2272.2</ele>
        <time>2021-08-09T15:27:08Z</time>
      </trkpt>
      <trkpt lat="42.6382150" lon="1.4911810">
        <ele>2273.9</ele>
        <time>2021-08-09T15:27:24Z</time>
      </trkpt>
      <trkpt lat="42.6383040" lon="1.4911160">
        <ele>2275.2</ele>
        <time>2021-08-09T15:27:41Z</time>
      </trkpt>
      <trkpt lat="42.6384290" lon="1.4909270">
        <ele>2277.4</ele>
        <time>2021-08-09T15:28:05Z</time>
      </trkpt>
      <trkpt lat="42.6384650" lon="1.4908700">
        <ele>2277.9</ele>
        <time>2021-08-09T15:28:12Z</time>
      </trkpt>
      <trkpt lat="42.6385760" lon="1.4907480">
        <ele>2279.5</ele>
        <time>2021-08-09T15:28:31Z</time>
      </trkpt>
      <trkpt lat="42.6386590" lon="1.4906560">
        <ele>2280.7</ele>
        <time>2021-08-09T15:28:47Z</time>
      </trkpt>
      <trkpt lat="42.6386940" lon="1.4906120">
        <ele>2281.2</ele>
        <time>2021-08-09T15:28:52Z</time>
      </trkpt>
      <trkpt lat="42.6387510" lon="1.4905240">
        <ele>2282.4</ele>
        <time>2021-08-09T15:29:04Z</time>
      </trkpt>
      <trkpt lat="42.6388050" lon="1.4903040">
        <ele>2285.8</ele>
        <time>2021-08-09T15:29:32Z</time>
      </trkpt>
      <trkpt lat="42.6388630" lon="1.4900930">
        <ele>2289.8</ele>
        <time>2021-08-09T15:30:04Z</time>
      </trkpt>
      <trkpt lat="42.6389140" lon="1.4900520">
        <ele>2291.2</ele>
        <time>2021-08-09T15:30:17Z</time>
      </trkpt>
      <trkpt lat="42.6390620" lon="1.4899470">
        <ele>2294.1</ele>
        <time>2021-08-09T15:30:41Z</time>
      </trkpt>
      <trkpt lat="42.6390860" lon="1.4899070">
        <ele>2294.7</ele>
        <time>2021-08-09T15:30:46Z</time>
      </trkpt>
      <trkpt lat="42.6391020" lon="1.4897830">
        <ele>2296.2</ele>
        <time>2021-08-09T15:30:59Z</time>
      </trkpt>
      <trkpt lat="42.6391460" lon="1.4896440">
        <ele>2298.8</ele>
        <time>2021-08-09T15:31:16Z</time>
      </trkpt>
      <trkpt lat="42.6392880" lon="1.4895410">
        <ele>2303.4</ele>
        <time>2021-08-09T15:31:49Z</time>
      </trkpt>
      <trkpt lat="42.6392930" lon="1.4895410">
        <ele>2303.5</ele>
        <time>2021-08-09T15:31:50Z</time>
      </trkpt>
      <trkpt lat="42.6393000" lon="1.4895390">
        <ele>2303.7</ele>
        <time>2021-08-09T15:31:51Z</time>
      </trkpt>
      <trkpt lat="42.6393500" lon="1.4894970">
        <ele>2305.3</ele>
        <time>2021-08-09T15:32:01Z</time>
      </trkpt>
      <trkpt lat="42.6394940" lon="1.4893390">
        <ele>2309.8</ele>
        <time>2021-08-09T15:32:33Z</time>
      </trkpt>
      <trkpt lat="42.6395200" lon="1.4893170">
        <ele>2310.6</ele>
        <time>2021-08-09T15:32:38Z</time>
      </trkpt>
      <trkpt lat="42.6395580" lon="1.4892680">
        <ele>2312.0</ele>
        <time>2021-08-09T15:32:48Z</time>
      </trkpt>
      <trkpt lat="42.6395800" lon="1.4892600">
        <ele>2312.7</ele>
        <time>2021-08-09T15:32:51Z</time>
      </trkpt>
      <trkpt lat="42.6395890" lon="1.4892590">
        <ele>2313.0</ele>
        <time>2021-08-09T15:32:52Z</time>
      </trkpt>
      <trkpt lat="42.6395940" lon="1.4892560">
        <ele>2313.2</ele>
        <time>2021-08-09T15:32:53Z</time>
      </trkpt>
      <trkpt lat="42.6396090" lon="1.4892520">
        <ele>2313.6</ele>
        <time>2021-08-09T15:32:55Z</time>
      </trkpt>
      <trkpt lat="42.6396180" lon="1.4892480">
        <ele>2313.9</ele>
        <time>2021-08-09T15:32:57Z</time>
      </trkpt>
      <trkpt lat="42.6396260" lon="1.4892470">
        <ele>2314.2</ele>
        <time>2021-08-09T15:33:00Z</time>
      </trkpt>
      <trkpt lat="42.6396280" lon="1.4892500">
        <ele>2314.3</ele>
        <time>2021-08-09T15:33:01Z</time>
      </trkpt>
      <trkpt lat="42.6396510" lon="1.4892200">
        <ele>2315.4</ele>
        <time>2021-08-09T15:33:14Z</time>
      </trkpt>
      <trkpt lat="42.6396540" lon="1.4892210">
        <ele>2315.5</ele>
        <time>2021-08-09T15:33:16Z</time>
      </trkpt>
      <trkpt lat="42.6396700" lon="1.4892130">
        <ele>2316.2</ele>
        <time>2021-08-09T15:33:19Z</time>
      </trkpt>
      <trkpt lat="42.6396860" lon="1.4891860">
        <ele>2317.1</ele>
        <time>2021-08-09T15:33:24Z</time>
      </trkpt>
      <trkpt lat="42.6397200" lon="1.4891530">
        <ele>2318.7</ele>
        <time>2021-08-09T15:33:30Z</time>
      </trkpt>
      <trkpt lat="42.6397890" lon="1.4890600">
        <ele>2321.9</ele>
        <time>2021-08-09T15:33:51Z</time>
      </trkpt>
      <trkpt lat="42.6397780" lon="1.4890560">
        <ele>2322.2</ele>
        <time>2021-08-09T15:34:02Z</time>
      </trkpt>
      <trkpt lat="42.6397820" lon="1.4890550">
        <ele>2322.3</ele>
        <time>2021-08-09T15:34:05Z</time>
      </trkpt>
      <trkpt lat="42.6397810" lon="1.4890530">
        <ele>2322.3</ele>
        <time>2021-08-09T15:34:11Z</time>
      </trkpt>
      <trkpt lat="42.6397790" lon="1.4890520">
        <ele>2322.4</ele>
        <time>2021-08-09T15:34:12Z</time>
      </trkpt>
      <trkpt lat="42.6397760" lon="1.4890520">
        <ele>2322.5</ele>
        <time>2021-08-09T15:34:13Z</time>
      </trkpt>
      <trkpt lat="42.6397660" lon="1.4890480">
        <ele>2322.7</ele>
        <time>2021-08-09T15:34:18Z</time>
      </trkpt>
      <trkpt lat="42.6397660" lon="1.4890380">
        <ele>2322.9</ele>
        <time>2021-08-09T15:34:28Z</time>
      </trkpt>
      <trkpt lat="42.6397620" lon="1.4890350">
        <ele>2323.0</ele>
        <time>2021-08-09T15:34:33Z</time>
      </trkpt>
      <trkpt lat="42.6397580" lon="1.4890310">
        <ele>2323.1</ele>
        <time>2021-08-09T15:34:39Z</time>
      </trkpt>
      <trkpt lat="42.6397630" lon="1.4890220">
        <ele>2323.3</ele>
        <time>2021-08-09T15:34:43Z</time>
      </trkpt>
      <trkpt lat="42.6397670" lon="1.4890070">
        <ele>2323.5</ele>
        <time>2021-08-09T15:34:46Z</time>
      </trkpt>
      <trkpt lat="42.6397840" lon="1.4890010">
        <ele>2323.8</ele>
        <time>2021-08-09T15:34:49Z</time>
      </trkpt>
      <trkpt lat="42.6398460" lon="1.4889840">
        <ele>2324.8</ele>
        <time>2021-08-09T15:34:57Z</time>
      </trkpt>
      <trkpt lat="42.6399190" lon="1.4890060">
        <ele>2325.8</ele>
        <time>2021-08-09T15:35:06Z</time>
      </trkpt>
      <trkpt lat="42.6399770" lon="1.4890450">
        <ele>2326.8</ele>
        <time>2021-08-09T15:35:14Z</time>
      </trkpt>
      <trkpt lat="42.6399870" lon="1.4890540">
        <ele>2327.0</ele>
        <time>2021-08-09T15:35:15Z</time>
      </trkpt>
      <trkpt lat="42.6400270" lon="1.4890780">
        <ele>2327.8</ele>
        <time>2021-08-09T15:35:20Z</time>
      </trkpt>
      <trkpt lat="42.6400570" lon="1.4890730">
        <ele>2328.5</ele>
        <time>2021-08-09T15:35:23Z</time>
      </trkpt>
      <trkpt lat="42.6400860" lon="1.4890610">
        <ele>2329.3</ele>
        <time>2021-08-09T15:35:30Z</time>
      </trkpt>
      <trkpt lat="42.6400970" lon="1.4890620">
        <ele>2329.6</ele>
        <time>2021-08-09T15:35:32Z</time>
      </trkpt>
      <trkpt lat="42.6401130" lon="1.4890510">
        <ele>2330.1</ele>
        <time>2021-08-09T15:35:37Z</time>
      </trkpt>
      <trkpt lat="42.6401370" lon="1.4890320">
        <ele>2330.9</ele>
        <time>2021-08-09T15:35:42Z</time>
      </trkpt>
      <trkpt lat="42.6401640" lon="1.4890260">
        <ele>2331.4</ele>
        <time>2021-08-09T15:35:47Z</time>
      </trkpt>
      <trkpt lat="42.6402190" lon="1.4890730">
        <ele>2333.7</ele>
        <time>2021-08-09T15:36:00Z</time>
      </trkpt>
      <trkpt lat="42.6403800" lon="1.4890850">
        <ele>2339.0</ele>
        <time>2021-08-09T15:36:41Z</time>
      </trkpt>
      <trkpt lat="42.6404510" lon="1.4891020">
        <ele>2341.3</ele>
        <time>2021-08-09T15:36:59Z</time>
      </trkpt>
      <trkpt lat="42.6405520" lon="1.4891050">
        <ele>2344.4</ele>
        <time>2021-08-09T15:37:22Z</time>
      </trkpt>
      <trkpt lat="42.6406090" lon="1.4891020">
        <ele>2345.9</ele>
        <time>2021-08-09T15:37:33Z</time>
      </trkpt>
      <trkpt lat="42.6406840" lon="1.4890730">
        <ele>2347.9</ele>
        <time>2021-08-09T15:37:48Z</time>
      </trkpt>
      <trkpt lat="42.6407950" lon="1.4889970">
        <ele>2350.8</ele>
        <time>2021-08-09T15:38:13Z</time>
      </trkpt>
      <trkpt lat="42.6408010" lon="1.4889910">
        <ele>2351.0</ele>
        <time>2021-08-09T15:38:14Z</time>
      </trkpt>
      <trkpt lat="42.6408200" lon="1.4889560">
        <ele>2351.6</ele>
        <time>2021-08-09T15:38:19Z</time>
      </trkpt>
      <trkpt lat="42.6408350" lon="1.4889360">
        <ele>2352.0</ele>
        <time>2021-08-09T15:38:23Z</time>
      </trkpt>
      <trkpt lat="42.6409020" lon="1.4889260">
        <ele>2353.1</ele>
        <time>2021-08-09T15:38:38Z</time>
      </trkpt>
      <trkpt lat="42.6408930" lon="1.4889310">
        <ele>2353.2</ele>
        <time>2021-08-09T15:38:41Z</time>
      </trkpt>
      <trkpt lat="42.6408890" lon="1.4889340">
        <ele>2353.3</ele>
        <time>2021-08-09T15:38:42Z</time>
      </trkpt>
      <trkpt lat="42.6408850" lon="1.4889470">
        <ele>2353.4</ele>
        <time>2021-08-09T15:38:55Z</time>
      </trkpt>
      <trkpt lat="42.6408820" lon="1.4889450">
        <ele>2353.4</ele>
        <time>2021-08-09T15:39:01Z</time>
      </trkpt>
      <trkpt lat="42.6408780" lon="1.4889430">
        <ele>2353.4</ele>
        <time>2021-08-09T15:39:10Z</time>
      </trkpt>
      <trkpt lat="42.6408790" lon="1.4889430">
        <ele>2353.4</ele>
        <time>2021-08-09T15:39:12Z</time>
      </trkpt>
      <trkpt lat="42.6408750" lon="1.4889420">
        <ele>2353.5</ele>
        <time>2021-08-09T15:39:15Z</time>
      </trkpt>
      <trkpt lat="42.6408580" lon="1.4889460">
        <ele>2353.6</ele>
        <time>2021-08-09T15:39:22Z</time>
      </trkpt>
      <trkpt lat="42.6408430" lon="1.4889170">
        <ele>2353.7</ele>
        <time>2021-08-09T15:39:39Z</time>
      </trkpt>
      <trkpt lat="42.6408370" lon="1.4888880">
        <ele>2353.8</ele>
        <time>2021-08-09T15:39:54Z</time>
      </trkpt>
      <trkpt lat="42.6408330" lon="1.4889020">
        <ele>2353.7</ele>
        <time>2021-08-09T15:40:01Z</time>
      </trkpt>
      <trkpt lat="42.6408400" lon="1.4888940">
        <ele>2353.7</ele>
        <time>2021-08-09T15:40:07Z</time>
      </trkpt>
      <trkpt lat="42.6408740" lon="1.4889070">
        <ele>2353.6</ele>
        <time>2021-08-09T15:40:14Z</time>
      </trkpt>
      <trkpt lat="42.6408850" lon="1.4889120">
        <ele>2353.6</ele>
        <time>2021-08-09T15:40:16Z</time>
      </trkpt>
      <trkpt lat="42.6409570" lon="1.4889060">
        <ele>2353.2</ele>
        <time>2021-08-09T15:40:26Z</time>
      </trkpt>
      <trkpt lat="42.6409990" lon="1.4888990">
        <ele>2352.9</ele>
        <time>2021-08-09T15:40:38Z</time>
      </trkpt>
      <trkpt lat="42.6410050" lon="1.4889020">
        <ele>2352.8</ele>
        <time>2021-08-09T15:40:42Z</time>
      </trkpt>
      <trkpt lat="42.6410140" lon="1.4889030">
        <ele>2352.8</ele>
        <time>2021-08-09T15:40:52Z</time>
      </trkpt>
      <trkpt lat="42.6410140" lon="1.4889020">
        <ele>2352.8</ele>
        <time>2021-08-09T15:40:53Z</time>
      </trkpt>
      <trkpt lat="42.6410110" lon="1.4889050">
        <ele>2352.8</ele>
        <time>2021-08-09T15:40:55Z</time>
      </trkpt>
      <trkpt lat="42.6410080" lon="1.4889070">
        <ele>2352.8</ele>
        <time>2021-08-09T15:40:56Z</time>
      </trkpt>
      <trkpt lat="42.6409900" lon="1.4889150">
        <ele>2352.7</ele>
        <time>2021-08-09T15:41:07Z</time>
      </trkpt>
      <trkpt lat="42.6409770" lon="1.4889170">
        <ele>2352.6</ele>
        <time>2021-08-09T15:41:15Z</time>
      </trkpt>
      <trkpt lat="42.6409800" lon="1.4889060">
        <ele>2352.6</ele>
        <time>2021-08-09T15:41:21Z</time>
      </trkpt>
      <trkpt lat="42.6409810" lon="1.4889060">
        <ele>2352.6</ele>
        <time>2021-08-09T15:41:22Z</time>
      </trkpt>
      <trkpt lat="42.6409790" lon="1.4889060">
        <ele>2352.6</ele>
        <time>2021-08-09T15:41:23Z</time>
      </trkpt>
      <trkpt lat="42.6409800" lon="1.4889060">
        <ele>2352.6</ele>
        <time>2021-08-09T15:41:30Z</time>
      </trkpt>
      <trkpt lat="42.6409800" lon="1.4889060">
        <ele>2352.6</ele>
        <time>2021-08-09T15:41:35Z</time>
      </trkpt>
      <trkpt lat="42.6409790" lon="1.4889060">
        <ele>2352.6</ele>
        <time>2021-08-09T15:41:36Z</time>
      </trkpt>
      <trkpt lat="42.6409800" lon="1.4889050">
        <ele>2352.6</ele>
        <time>2021-08-09T15:41:37Z</time>
      </trkpt>
      <trkpt lat="42.6409810" lon="1.4889050">
        <ele>2352.6</ele>
        <time>2021-08-09T15:41:38Z</time>
      </trkpt>
      <trkpt lat="42.6409840" lon="1.4889080">
        <ele>2352.6</ele>
        <time>2021-08-09T15:41:42Z</time>
      </trkpt>
      <trkpt lat="42.6409800" lon="1.4889090">
        <ele>2352.6</ele>
        <time>2021-08-09T15:41:48Z</time>
      </trkpt>
      <trkpt lat="42.6409780" lon="1.4889100">
        <ele>2352.6</ele>
        <time>2021-08-09T15:41:51Z</time>
      </trkpt>
      <trkpt lat="42.6409680" lon="1.4889160">
        <ele>2352.5</ele>
        <time>2021-08-09T15:42:19Z</time>
      </trkpt>
      <trkpt lat="42.6409690" lon="1.4889160">
        <ele>2352.5</ele>
        <time>2021-08-09T15:42:23Z</time>
      </trkpt>
      <trkpt lat="42.6409690" lon="1.4889190">
        <ele>2352.5</ele>
        <time>2021-08-09T15:42:28Z</time>
      </trkpt>
      <trkpt lat="42.6409680" lon="1.4889180">
        <ele>2352.5</ele>
        <time>2021-08-09T15:42:37Z</time>
      </trkpt>
      <trkpt lat="42.6409660" lon="1.4889190">
        <ele>2352.5</ele>
        <time>2021-08-09T15:42:45Z</time>
      </trkpt>
      <trkpt lat="42.6409870" lon="1.4889090">
        <ele>2352.5</ele>
        <time>2021-08-09T15:43:07Z</time>
      </trkpt>
      <trkpt lat="42.6410010" lon="1.4889200">
        <ele>2352.6</ele>
        <time>2021-08-09T15:43:24Z</time>
      </trkpt>
      <trkpt lat="42.6409890" lon="1.4889360">
        <ele>2352.6</ele>
        <time>2021-08-09T15:43:34Z</time>
      </trkpt>
      <trkpt lat="42.6409860" lon="1.4889360">
        <ele>2352.6</ele>
        <time>2021-08-09T15:43:37Z</time>
      </trkpt>
      <trkpt lat="42.6409860" lon="1.4889350">
        <ele>2352.6</ele>
        <time>2021-08-09T15:43:41Z</time>
      </trkpt>
      <trkpt lat="42.6409860" lon="1.4889350">
        <ele>2352.6</ele>
        <time>2021-08-09T15:43:42Z</time>
      </trkpt>
      <trkpt lat="42.6409860" lon="1.4889340">
        <ele>2352.6</ele>
        <time>2021-08-09T15:43:45Z</time>
      </trkpt>
      <trkpt lat="42.6409860" lon="1.4889350">
        <ele>2352.6</ele>
        <time>2021-08-09T15:43:48Z</time>
      </trkpt>
      <trkpt lat="42.6409870" lon="1.4889370">
        <ele>2352.6</ele>
        <time>2021-08-09T15:43:50Z</time>
      </trkpt>
      <trkpt lat="42.6409870" lon="1.4889380">
        <ele>2352.6</ele>
        <time>2021-08-09T15:43:51Z</time>
      </trkpt>
      <trkpt lat="42.6409880" lon="1.4889400">
        <ele>2352.6</ele>
        <time>2021-08-09T15:44:06Z</time>
      </trkpt>
      <trkpt lat="42.6409860" lon="1.4889420">
        <ele>2352.7</ele>
        <time>2021-08-09T15:44:11Z</time>
      </trkpt>
      <trkpt lat="42.6409860" lon="1.4889420">
        <ele>2352.7</ele>
        <time>2021-08-09T15:44:12Z</time>
      </trkpt>
      <trkpt lat="42.6409710" lon="1.4889820">
        <ele>2352.8</ele>
        <time>2021-08-09T15:47:54Z</time>
      </trkpt>
      <trkpt lat="42.6409700" lon="1.4889810">
        <ele>2352.8</ele>
        <time>2021-08-09T15:47:55Z</time>
      </trkpt>
      <trkpt lat="42.6409710" lon="1.4889790">
        <ele>2352.8</ele>
        <time>2021-08-09T15:47:56Z</time>
      </trkpt>
      <trkpt lat="42.6409770" lon="1.4889670">
        <ele>2352.9</ele>
        <time>2021-08-09T15:47:59Z</time>
      </trkpt>
      <trkpt lat="42.6409930" lon="1.4889560">
        <ele>2353.0</ele>
        <time>2021-08-09T15:48:03Z</time>
      </trkpt>
      <trkpt lat="42.6409980" lon="1.4889530">
        <ele>2353.0</ele>
        <time>2021-08-09T15:48:04Z</time>
      </trkpt>
      <trkpt lat="42.6410030" lon="1.4889510">
        <ele>2353.1</ele>
        <time>2021-08-09T15:48:05Z</time>
      </trkpt>
      <trkpt lat="42.6410170" lon="1.4889550">
        <ele>2353.2</ele>
        <time>2021-08-09T15:48:07Z</time>
      </trkpt>
      <trkpt lat="42.6410300" lon="1.4889570">
        <ele>2353.3</ele>
        <time>2021-08-09T15:48:09Z</time>
      </trkpt>
      <trkpt lat="42.6410370" lon="1.4889580">
        <ele>2353.3</ele>
        <time>2021-08-09T15:48:10Z</time>
      </trkpt>
      <trkpt lat="42.6410730" lon="1.4889620">
        <ele>2353.6</ele>
        <time>2021-08-09T15:48:15Z</time>
      </trkpt>
      <trkpt lat="42.6410890" lon="1.4889670">
        <ele>2353.8</ele>
        <time>2021-08-09T15:48:18Z</time>
      </trkpt>
      <trkpt lat="42.6410990" lon="1.4889670">
        <ele>2353.8</ele>
        <time>2021-08-09T15:48:20Z</time>
      </trkpt>
      <trkpt lat="42.6411790" lon="1.4890030">
        <ele>2354.5</ele>
        <time>2021-08-09T15:48:32Z</time>
      </trkpt>
      <trkpt lat="42.6412800" lon="1.4890490">
        <ele>2355.2</ele>
        <time>2021-08-09T15:48:55Z</time>
      </trkpt>
      <trkpt lat="42.6412830" lon="1.4890530">
        <ele>2355.3</ele>
        <time>2021-08-09T15:48:56Z</time>
      </trkpt>
      <trkpt lat="42.6412890" lon="1.4890550">
        <ele>2355.3</ele>
        <time>2021-08-09T15:48:57Z</time>
      </trkpt>
      <trkpt lat="42.6414460" lon="1.4891040">
        <ele>2356.3</ele>
        <time>2021-08-09T15:49:21Z</time>
      </trkpt>
      <trkpt lat="42.6414890" lon="1.4891220">
        <ele>2356.6</ele>
        <time>2021-08-09T15:49:27Z</time>
      </trkpt>
      <trkpt lat="42.6415410" lon="1.4891360">
        <ele>2356.9</ele>
        <time>2021-08-09T15:49:32Z</time>
      </trkpt>
      <trkpt lat="42.6416520" lon="1.4892150">
        <ele>2358.1</ele>
        <time>2021-08-09T15:49:52Z</time>
      </trkpt>
      <trkpt lat="42.6418220" lon="1.4893060">
        <ele>2360.0</ele>
        <time>2021-08-09T15:50:15Z</time>
      </trkpt>
      <trkpt lat="42.6418630" lon="1.4893390">
        <ele>2360.5</ele>
        <time>2021-08-09T15:50:22Z</time>
      </trkpt>
      <trkpt lat="42.6419120" lon="1.4893750">
        <ele>2361.1</ele>
        <time>2021-08-09T15:50:32Z</time>
      </trkpt>
      <trkpt lat="42.6419190" lon="1.4893820">
        <ele>2361.1</ele>
        <time>2021-08-09T15:50:34Z</time>
      </trkpt>
      <trkpt lat="42.6420890" lon="1.4894770">
        <ele>2362.4</ele>
        <time>2021-08-09T15:51:01Z</time>
      </trkpt>
      <trkpt lat="42.6422650" lon="1.4895560">
        <ele>2363.8</ele>
        <time>2021-08-09T15:51:29Z</time>
      </trkpt>
      <trkpt lat="42.6424060" lon="1.4897080">
        <ele>2365.2</ele>
        <time>2021-08-09T15:52:04Z</time>
      </trkpt>
      <trkpt lat="42.6425500" lon="1.4898590">
        <ele>2366.0</ele>
        <time>2021-08-09T15:52:30Z</time>
      </trkpt>
      <trkpt lat="42.6426250" lon="1.4899260">
        <ele>2366.4</ele>
        <time>2021-08-09T15:52:42Z</time>
      </trkpt>
      <trkpt lat="42.6427690" lon="1.4900790">
        <ele>2367.0</ele>
        <time>2021-08-09T15:53:10Z</time>
      </trkpt>
      <trkpt lat="42.6428490" lon="1.4901090">
        <ele>2367.2</ele>
        <time>2021-08-09T15:53:19Z</time>
      </trkpt>
      <trkpt lat="42.6428690" lon="1.4901240">
        <ele>2367.3</ele>
        <time>2021-08-09T15:53:22Z</time>
      </trkpt>
      <trkpt lat="42.6428710" lon="1.4901310">
        <ele>2367.3</ele>
        <time>2021-08-09T15:53:23Z</time>
      </trkpt>
      <trkpt lat="42.6428780" lon="1.4901360">
        <ele>2367.4</ele>
        <time>2021-08-09T15:53:24Z</time>
      </trkpt>
      <trkpt lat="42.6428850" lon="1.4901410">
        <ele>2367.4</ele>
        <time>2021-08-09T15:53:25Z</time>
      </trkpt>
      <trkpt lat="42.6430050" lon="1.4901740">
        <ele>2368.0</ele>
        <time>2021-08-09T15:53:40Z</time>
      </trkpt>
      <trkpt lat="42.6431820" lon="1.4902220">
        <ele>2369.4</ele>
        <time>2021-08-09T15:54:01Z</time>
      </trkpt>
      <trkpt lat="42.6433180" lon="1.4902920">
        <ele>2371.1</ele>
        <time>2021-08-09T15:54:20Z</time>
      </trkpt>
      <trkpt lat="42.6434750" lon="1.4904060">
        <ele>2373.8</ele>
        <time>2021-08-09T15:54:47Z</time>
      </trkpt>
      <trkpt lat="42.6435080" lon="1.4904370">
        <ele>2374.5</ele>
        <time>2021-08-09T15:55:09Z</time>
      </trkpt>
      <trkpt lat="42.6435950" lon="1.4904490">
        <ele>2376.1</ele>
        <time>2021-08-09T15:55:27Z</time>
      </trkpt>
      <trkpt lat="42.6436170" lon="1.4904710">
        <ele>2376.7</ele>
        <time>2021-08-09T15:55:32Z</time>
      </trkpt>
      <trkpt lat="42.6436680" lon="1.4905200">
        <ele>2378.0</ele>
        <time>2021-08-09T15:55:47Z</time>
      </trkpt>
      <trkpt lat="42.6436750" lon="1.4905200">
        <ele>2378.1</ele>
        <time>2021-08-09T15:55:48Z</time>
      </trkpt>
      <trkpt lat="42.6436850" lon="1.4905190">
        <ele>2378.4</ele>
        <time>2021-08-09T15:55:50Z</time>
      </trkpt>
      <trkpt lat="42.6437350" lon="1.4905240">
        <ele>2379.4</ele>
        <time>2021-08-09T15:55:58Z</time>
      </trkpt>
      <trkpt lat="42.6437480" lon="1.4905410">
        <ele>2379.8</ele>
        <time>2021-08-09T15:56:02Z</time>
      </trkpt>
      <trkpt lat="42.6437850" lon="1.4905710">
        <ele>2380.7</ele>
        <time>2021-08-09T15:56:11Z</time>
      </trkpt>
      <trkpt lat="42.6437870" lon="1.4905720">
        <ele>2380.8</ele>
        <time>2021-08-09T15:56:12Z</time>
      </trkpt>
      <trkpt lat="42.6438400" lon="1.4906020">
        <ele>2381.9</ele>
        <time>2021-08-09T15:56:27Z</time>
      </trkpt>
      <trkpt lat="42.6438450" lon="1.4906120">
        <ele>2382.0</ele>
        <time>2021-08-09T15:56:33Z</time>
      </trkpt>
      <trkpt lat="42.6438240" lon="1.4905910">
        <ele>2382.5</ele>
        <time>2021-08-09T15:56:49Z</time>
      </trkpt>
      <trkpt lat="42.6438490" lon="1.4905600">
        <ele>2383.0</ele>
        <time>2021-08-09T15:57:15Z</time>
      </trkpt>
      <trkpt lat="42.6439170" lon="1.4905820">
        <ele>2384.1</ele>
        <time>2021-08-09T15:57:24Z</time>
      </trkpt>
      <trkpt lat="42.6440030" lon="1.4906470">
        <ele>2385.7</ele>
        <time>2021-08-09T15:57:37Z</time>
      </trkpt>
      <trkpt lat="42.6440250" lon="1.4906590">
        <ele>2386.1</ele>
        <time>2021-08-09T15:57:41Z</time>
      </trkpt>
      <trkpt lat="42.6440280" lon="1.4906590">
        <ele>2386.2</ele>
        <time>2021-08-09T15:57:42Z</time>
      </trkpt>
      <trkpt lat="42.6440310" lon="1.4906640">
        <ele>2386.3</ele>
        <time>2021-08-09T15:57:43Z</time>
      </trkpt>
      <trkpt lat="42.6440420" lon="1.4906870">
        <ele>2386.7</ele>
        <time>2021-08-09T15:57:46Z</time>
      </trkpt>
      <trkpt lat="42.6440530" lon="1.4907230">
        <ele>2387.2</ele>
        <time>2021-08-09T15:57:51Z</time>
      </trkpt>
      <trkpt lat="42.6440570" lon="1.4907320">
        <ele>2387.4</ele>
        <time>2021-08-09T15:57:53Z</time>
      </trkpt>
      <trkpt lat="42.6441110" lon="1.4907700">
        <ele>2388.6</ele>
        <time>2021-08-09T15:58:07Z</time>
      </trkpt>
      <trkpt lat="42.6441370" lon="1.4908050">
        <ele>2389.4</ele>
        <time>2021-08-09T15:58:14Z</time>
      </trkpt>
      <trkpt lat="42.6441600" lon="1.4908330">
        <ele>2390.5</ele>
        <time>2021-08-09T15:58:21Z</time>
      </trkpt>
      <trkpt lat="42.6441910" lon="1.4908500">
        <ele>2391.4</ele>
        <time>2021-08-09T15:58:31Z</time>
      </trkpt>
      <trkpt lat="42.6442480" lon="1.4909210">
        <ele>2393.5</ele>
        <time>2021-08-09T15:58:43Z</time>
      </trkpt>
      <trkpt lat="42.6442710" lon="1.4909370">
        <ele>2394.3</ele>
        <time>2021-08-09T15:58:48Z</time>
      </trkpt>
      <trkpt lat="42.6443200" lon="1.4910020">
        <ele>2396.2</ele>
        <time>2021-08-09T15:59:04Z</time>
      </trkpt>
      <trkpt lat="42.6443230" lon="1.4910060">
        <ele>2396.3</ele>
        <time>2021-08-09T15:59:05Z</time>
      </trkpt>
      <trkpt lat="42.6443390" lon="1.4910190">
        <ele>2396.8</ele>
        <time>2021-08-09T15:59:11Z</time>
      </trkpt>
      <trkpt lat="42.6444180" lon="1.4912000">
        <ele>2401.0</ele>
        <time>2021-08-09T16:00:06Z</time>
      </trkpt>
      <trkpt lat="42.6444600" lon="1.4912690">
        <ele>2402.8</ele>
        <time>2021-08-09T16:00:18Z</time>
      </trkpt>
      <trkpt lat="42.6444740" lon="1.4913230">
        <ele>2404.0</ele>
        <time>2021-08-09T16:00:26Z</time>
      </trkpt>
      <trkpt lat="42.6445400" lon="1.4914050">
        <ele>2406.9</ele>
        <time>2021-08-09T16:00:40Z</time>
      </trkpt>
      <trkpt lat="42.6445480" lon="1.4914120">
        <ele>2407.2</ele>
        <time>2021-08-09T16:00:42Z</time>
      </trkpt>
      <trkpt lat="42.6445640" lon="1.4914240">
        <ele>2407.9</ele>
        <time>2021-08-09T16:00:46Z</time>
      </trkpt>
      <trkpt lat="42.6445740" lon="1.4914300">
        <ele>2408.3</ele>
        <time>2021-08-09T16:00:50Z</time>
      </trkpt>
      <trkpt lat="42.6446750" lon="1.4915680">
        <ele>2413.4</ele>
        <time>2021-08-09T16:01:56Z</time>
      </trkpt>
      <trkpt lat="42.6446480" lon="1.4916190">
        <ele>2415.1</ele>
        <time>2021-08-09T16:02:14Z</time>
      </trkpt>
      <trkpt lat="42.6447160" lon="1.4917430">
        <ele>2418.8</ele>
        <time>2021-08-09T16:02:40Z</time>
      </trkpt>
      <trkpt lat="42.6447990" lon="1.4918290">
        <ele>2421.6</ele>
        <time>2021-08-09T16:03:04Z</time>
      </trkpt>
      <trkpt lat="42.6449460" lon="1.4918010">
        <ele>2423.8</ele>
        <time>2021-08-09T16:03:32Z</time>
      </trkpt>
      <trkpt lat="42.6449390" lon="1.4917970">
        <ele>2423.9</ele>
        <time>2021-08-09T16:04:08Z</time>
      </trkpt>
      <trkpt lat="42.6449380" lon="1.4917980">
        <ele>2423.9</ele>
        <time>2021-08-09T16:04:18Z</time>
      </trkpt>
      <trkpt lat="42.6449330" lon="1.4917980">
        <ele>2424.0</ele>
        <time>2021-08-09T16:04:24Z</time>
      </trkpt>
      <trkpt lat="42.6449340" lon="1.4917950">
        <ele>2424.0</ele>
        <time>2021-08-09T16:04:29Z</time>
      </trkpt>
      <trkpt lat="42.6449430" lon="1.4917880">
        <ele>2424.1</ele>
        <time>2021-08-09T16:04:35Z</time>
      </trkpt>
      <trkpt lat="42.6449390" lon="1.4917900">
        <ele>2424.2</ele>
        <time>2021-08-09T16:04:41Z</time>
      </trkpt>
      <trkpt lat="42.6449390" lon="1.4917900">
        <ele>2424.2</ele>
        <time>2021-08-09T16:04:47Z</time>
      </trkpt>
      <trkpt lat="42.6449400" lon="1.4917920">
        <ele>2424.2</ele>
        <time>2021-08-09T16:04:56Z</time>
      </trkpt>
      <trkpt lat="42.6449330" lon="1.4917810">
        <ele>2424.3</ele>
        <time>2021-08-09T16:05:19Z</time>
      </trkpt>
      <trkpt lat="42.6449330" lon="1.4917810">
        <ele>2424.3</ele>
        <time>2021-08-09T16:05:22Z</time>
      </trkpt>
      <trkpt lat="42.6449360" lon="1.4918040">
        <ele>2424.4</ele>
        <time>2021-08-09T16:05:38Z</time>
      </trkpt>
      <trkpt lat="42.6449890" lon="1.4918230">
        <ele>2424.9</ele>
        <time>2021-08-09T16:05:49Z</time>
      </trkpt>
      <trkpt lat="42.6450040" lon="1.4918200">
        <ele>2425.0</ele>
        <time>2021-08-09T16:05:51Z</time>
      </trkpt>
      <trkpt lat="42.6450140" lon="1.4918150">
        <ele>2425.1</ele>
        <time>2021-08-09T16:05:52Z</time>
      </trkpt>
      <trkpt lat="42.6450190" lon="1.4918120">
        <ele>2425.1</ele>
        <time>2021-08-09T16:05:53Z</time>
      </trkpt>
      <trkpt lat="42.6450280" lon="1.4918150">
        <ele>2425.2</ele>
        <time>2021-08-09T16:05:56Z</time>
      </trkpt>
      <trkpt lat="42.6450380" lon="1.4918170">
        <ele>2425.2</ele>
        <time>2021-08-09T16:05:58Z</time>
      </trkpt>
      <trkpt lat="42.6450560" lon="1.4918260">
        <ele>2425.4</ele>
        <time>2021-08-09T16:06:01Z</time>
      </trkpt>
      <trkpt lat="42.6450790" lon="1.4918380">
        <ele>2425.5</ele>
        <time>2021-08-09T16:06:05Z</time>
      </trkpt>
      <trkpt lat="42.6451040" lon="1.4918700">
        <ele>2425.8</ele>
        <time>2021-08-09T16:06:10Z</time>
      </trkpt>
      <trkpt lat="42.6451140" lon="1.4918810">
        <ele>2425.9</ele>
        <time>2021-08-09T16:06:12Z</time>
      </trkpt>
      <trkpt lat="42.6451390" lon="1.4919100">
        <ele>2426.1</ele>
        <time>2021-08-09T16:06:17Z</time>
      </trkpt>
      <trkpt lat="42.6451440" lon="1.4919180">
        <ele>2426.1</ele>
        <time>2021-08-09T16:06:18Z</time>
      </trkpt>
      <trkpt lat="42.6451600" lon="1.4919360">
        <ele>2426.3</ele>
        <time>2021-08-09T16:06:21Z</time>
      </trkpt>
      <trkpt lat="42.6451790" lon="1.4919570">
        <ele>2426.3</ele>
        <time>2021-08-09T16:06:24Z</time>
      </trkpt>
      <trkpt lat="42.6451840" lon="1.4919640">
        <ele>2426.4</ele>
        <time>2021-08-09T16:06:25Z</time>
      </trkpt>
      <trkpt lat="42.6451940" lon="1.4919740">
        <ele>2426.4</ele>
        <time>2021-08-09T16:06:27Z</time>
      </trkpt>
      <trkpt lat="42.6452120" lon="1.4919990">
        <ele>2426.5</ele>
        <time>2021-08-09T16:06:34Z</time>
      </trkpt>
      <trkpt lat="42.6452590" lon="1.4919900">
        <ele>2426.6</ele>
        <time>2021-08-09T16:06:41Z</time>
      </trkpt>
      <trkpt lat="42.6453130" lon="1.4919690">
        <ele>2426.7</ele>
        <time>2021-08-09T16:06:50Z</time>
      </trkpt>
      <trkpt lat="42.6454410" lon="1.4920080">
        <ele>2427.1</ele>
        <time>2021-08-09T16:07:13Z</time>
      </trkpt>
      <trkpt lat="42.6455600" lon="1.4920240">
        <ele>2427.6</ele>
        <time>2021-08-09T16:07:33Z</time>
      </trkpt>
      <trkpt lat="42.6457040" lon="1.4919160">
        <ele>2429.1</ele>
        <time>2021-08-09T16:08:09Z</time>
      </trkpt>
      <trkpt lat="42.6457990" lon="1.4918490">
        <ele>2430.6</ele>
        <time>2021-08-09T16:08:55Z</time>
      </trkpt>
      <trkpt lat="42.6457990" lon="1.4918490">
        <ele>2430.6</ele>
        <time>2021-08-09T16:09:01Z</time>
      </trkpt>
      <trkpt lat="42.6458450" lon="1.4918240">
        <ele>2431.4</ele>
        <time>2021-08-09T16:09:15Z</time>
      </trkpt>
      <trkpt lat="42.6459140" lon="1.4918170">
        <ele>2432.3</ele>
        <time>2021-08-09T16:09:28Z</time>
      </trkpt>
      <trkpt lat="42.6459670" lon="1.4917900">
        <ele>2433.1</ele>
        <time>2021-08-09T16:09:38Z</time>
      </trkpt>
      <trkpt lat="42.6459760" lon="1.4917820">
        <ele>2433.2</ele>
        <time>2021-08-09T16:09:40Z</time>
      </trkpt>
      <trkpt lat="42.6460060" lon="1.4917670">
        <ele>2433.6</ele>
        <time>2021-08-09T16:09:44Z</time>
      </trkpt>
      <trkpt lat="42.6460740" lon="1.4917720">
        <ele>2434.5</ele>
        <time>2021-08-09T16:09:51Z</time>
      </trkpt>
      <trkpt lat="42.6460760" lon="1.4917700">
        <ele>2434.5</ele>
        <time>2021-08-09T16:09:53Z</time>
      </trkpt>
      <trkpt lat="42.6460780" lon="1.4917720">
        <ele>2434.6</ele>
        <time>2021-08-09T16:09:54Z</time>
      </trkpt>
      <trkpt lat="42.6460880" lon="1.4917860">
        <ele>2434.8</ele>
        <time>2021-08-09T16:10:00Z</time>
      </trkpt>
      <trkpt lat="42.6460910" lon="1.4917890">
        <ele>2434.8</ele>
        <time>2021-08-09T16:10:05Z</time>
      </trkpt>
      <trkpt lat="42.6461230" lon="1.4917820">
        <ele>2435.2</ele>
        <time>2021-08-09T16:10:20Z</time>
      </trkpt>
      <trkpt lat="42.6461890" lon="1.4917650">
        <ele>2436.2</ele>
        <time>2021-08-09T16:10:31Z</time>
      </trkpt>
      <trkpt lat="42.6462780" lon="1.4917550">
        <ele>2437.5</ele>
        <time>2021-08-09T16:10:49Z</time>
      </trkpt>
      <trkpt lat="42.6464430" lon="1.4916900">
        <ele>2439.9</ele>
        <time>2021-08-09T16:11:21Z</time>
      </trkpt>
      <trkpt lat="42.6465650" lon="1.4917690">
        <ele>2441.5</ele>
        <time>2021-08-09T16:11:53Z</time>
      </trkpt>
      <trkpt lat="42.6465670" lon="1.4917680">
        <ele>2441.5</ele>
        <time>2021-08-09T16:11:56Z</time>
      </trkpt>
      <trkpt lat="42.6465720" lon="1.4917650">
        <ele>2441.6</ele>
        <time>2021-08-09T16:12:06Z</time>
      </trkpt>
      <trkpt lat="42.6465720" lon="1.4917660">
        <ele>2441.6</ele>
        <time>2021-08-09T16:12:10Z</time>
      </trkpt>
      <trkpt lat="42.6465690" lon="1.4917540">
        <ele>2441.7</ele>
        <time>2021-08-09T16:12:26Z</time>
      </trkpt>
      <trkpt lat="42.6465940" lon="1.4917700">
        <ele>2441.9</ele>
        <time>2021-08-09T16:12:38Z</time>
      </trkpt>
      <trkpt lat="42.6466030" lon="1.4917780">
        <ele>2442.0</ele>
        <time>2021-08-09T16:12:39Z</time>
      </trkpt>
      <trkpt lat="42.6466660" lon="1.4918320">
        <ele>2442.7</ele>
        <time>2021-08-09T16:12:48Z</time>
      </trkpt>
      <trkpt lat="42.6466900" lon="1.4918240">
        <ele>2443.0</ele>
        <time>2021-08-09T16:12:51Z</time>
      </trkpt>
      <trkpt lat="42.6467110" lon="1.4918080">
        <ele>2443.2</ele>
        <time>2021-08-09T16:12:54Z</time>
      </trkpt>
      <trkpt lat="42.6467350" lon="1.4918050">
        <ele>2443.4</ele>
        <time>2021-08-09T16:12:58Z</time>
      </trkpt>
      <trkpt lat="42.6467470" lon="1.4918020">
        <ele>2443.5</ele>
        <time>2021-08-09T16:13:00Z</time>
      </trkpt>
      <trkpt lat="42.6467890" lon="1.4917930">
        <ele>2443.9</ele>
        <time>2021-08-09T16:13:06Z</time>
      </trkpt>
      <trkpt lat="42.6468560" lon="1.4917800">
        <ele>2444.5</ele>
        <time>2021-08-09T16:13:14Z</time>
      </trkpt>
      <trkpt lat="42.6469600" lon="1.4917600">
        <ele>2445.6</ele>
        <time>2021-08-09T16:13:27Z</time>
      </trkpt>
      <trkpt lat="42.6469790" lon="1.4917590">
        <ele>2445.9</ele>
        <time>2021-08-09T16:13:30Z</time>
      </trkpt>
      <trkpt lat="42.6470660" lon="1.4917450">
        <ele>2447.3</ele>
        <time>2021-08-09T16:13:42Z</time>
      </trkpt>
      <trkpt lat="42.6471060" lon="1.4917480">
        <ele>2448.0</ele>
        <time>2021-08-09T16:13:49Z</time>
      </trkpt>
      <trkpt lat="42.6471630" lon="1.4917390">
        <ele>2449.1</ele>
        <time>2021-08-09T16:14:00Z</time>
      </trkpt>
      <trkpt lat="42.6471750" lon="1.4917340">
        <ele>2449.4</ele>
        <time>2021-08-09T16:14:02Z</time>
      </trkpt>
      <trkpt lat="42.6471850" lon="1.4917300">
        <ele>2449.5</ele>
        <time>2021-08-09T16:14:04Z</time>
      </trkpt>
      <trkpt lat="42.6472010" lon="1.4917190">
        <ele>2449.9</ele>
        <time>2021-08-09T16:14:07Z</time>
      </trkpt>
      <trkpt lat="42.6472550" lon="1.4917020">
        <ele>2450.9</ele>
        <time>2021-08-09T16:14:26Z</time>
      </trkpt>
      <trkpt lat="42.6472610" lon="1.4916920">
        <ele>2451.0</ele>
        <time>2021-08-09T16:14:29Z</time>
      </trkpt>
      <trkpt lat="42.6472740" lon="1.4916840">
        <ele>2451.3</ele>
        <time>2021-08-09T16:14:32Z</time>
      </trkpt>
      <trkpt lat="42.6473640" lon="1.4916650">
        <ele>2453.1</ele>
        <time>2021-08-09T16:14:50Z</time>
      </trkpt>
      <trkpt lat="42.6474460" lon="1.4916060">
        <ele>2455.1</ele>
        <time>2021-08-09T16:15:09Z</time>
      </trkpt>
      <trkpt lat="42.6474560" lon="1.4916010">
        <ele>2455.3</ele>
        <time>2021-08-09T16:15:11Z</time>
      </trkpt>
      <trkpt lat="42.6474810" lon="1.4916150">
        <ele>2455.8</ele>
        <time>2021-08-09T16:15:15Z</time>
      </trkpt>
      <trkpt lat="42.6475530" lon="1.4917170">
        <ele>2457.2</ele>
        <time>2021-08-09T16:15:46Z</time>
      </trkpt>
      <trkpt lat="42.6475470" lon="1.4917170">
        <ele>2457.3</ele>
        <time>2021-08-09T16:15:52Z</time>
      </trkpt>
      <trkpt lat="42.6475530" lon="1.4917060">
        <ele>2457.4</ele>
        <time>2021-08-09T16:15:58Z</time>
      </trkpt>
      <trkpt lat="42.6475550" lon="1.4917120">
        <ele>2457.5</ele>
        <time>2021-08-09T16:16:06Z</time>
      </trkpt>
      <trkpt lat="42.6475540" lon="1.4917150">
        <ele>2457.5</ele>
        <time>2021-08-09T16:16:11Z</time>
      </trkpt>
      <trkpt lat="42.6475530" lon="1.4917200">
        <ele>2457.5</ele>
        <time>2021-08-09T16:16:17Z</time>
      </trkpt>
      <trkpt lat="42.6475670" lon="1.4917600">
        <ele>2458.0</ele>
        <time>2021-08-09T16:16:27Z</time>
      </trkpt>
      <trkpt lat="42.6476370" lon="1.4918850">
        <ele>2459.8</ele>
        <time>2021-08-09T16:16:43Z</time>
      </trkpt>
      <trkpt lat="42.6476510" lon="1.4919110">
        <ele>2460.2</ele>
        <time>2021-08-09T16:16:47Z</time>
      </trkpt>
      <trkpt lat="42.6476570" lon="1.4919340">
        <ele>2460.5</ele>
        <time>2021-08-09T16:16:51Z</time>
      </trkpt>
      <trkpt lat="42.6476530" lon="1.4919470">
        <ele>2460.7</ele>
        <time>2021-08-09T16:16:53Z</time>
      </trkpt>
      <trkpt lat="42.6476510" lon="1.4919510">
        <ele>2460.8</ele>
        <time>2021-08-09T16:16:54Z</time>
      </trkpt>
      <trkpt lat="42.6476500" lon="1.4919560">
        <ele>2460.8</ele>
        <time>2021-08-09T16:16:55Z</time>
      </trkpt>
      <trkpt lat="42.6476470" lon="1.4919580">
        <ele>2460.9</ele>
        <time>2021-08-09T16:16:56Z</time>
      </trkpt>
      <trkpt lat="42.6476470" lon="1.4919590">
        <ele>2460.9</ele>
        <time>2021-08-09T16:16:58Z</time>
      </trkpt>
      <trkpt lat="42.6476440" lon="1.4920160">
        <ele>2461.7</ele>
        <time>2021-08-09T16:17:07Z</time>
      </trkpt>
      <trkpt lat="42.6476450" lon="1.4920270">
        <ele>2461.9</ele>
        <time>2021-08-09T16:17:09Z</time>
      </trkpt>
      <trkpt lat="42.6476460" lon="1.4920720">
        <ele>2462.6</ele>
        <time>2021-08-09T16:17:17Z</time>
      </trkpt>
      <trkpt lat="42.6476380" lon="1.4920880">
        <ele>2462.9</ele>
        <time>2021-08-09T16:17:19Z</time>
      </trkpt>
      <trkpt lat="42.6476360" lon="1.4920960">
        <ele>2463.1</ele>
        <time>2021-08-09T16:17:20Z</time>
      </trkpt>
      <trkpt lat="42.6476340" lon="1.4921060">
        <ele>2463.2</ele>
        <time>2021-08-09T16:17:21Z</time>
      </trkpt>
      <trkpt lat="42.6476390" lon="1.4921220">
        <ele>2463.5</ele>
        <time>2021-08-09T16:17:24Z</time>
      </trkpt>
      <trkpt lat="42.6476520" lon="1.4921180">
        <ele>2463.9</ele>
        <time>2021-08-09T16:17:26Z</time>
      </trkpt>
      <trkpt lat="42.6476720" lon="1.4921170">
        <ele>2464.3</ele>
        <time>2021-08-09T16:17:30Z</time>
      </trkpt>
      <trkpt lat="42.6477100" lon="1.4921360">
        <ele>2465.2</ele>
        <time>2021-08-09T16:17:39Z</time>
      </trkpt>
      <trkpt lat="42.6477580" lon="1.4921900">
        <ele>2466.4</ele>
        <time>2021-08-09T16:17:51Z</time>
      </trkpt>
      <trkpt lat="42.6478580" lon="1.4922290">
        <ele>2467.9</ele>
        <time>2021-08-09T16:18:31Z</time>
      </trkpt>
      <trkpt lat="42.6478910" lon="1.4922330">
        <ele>2468.4</ele>
        <time>2021-08-09T16:19:02Z</time>
      </trkpt>
      <trkpt lat="42.6478910" lon="1.4922350">
        <ele>2468.4</ele>
        <time>2021-08-09T16:19:07Z</time>
      </trkpt>
      <trkpt lat="42.6478910" lon="1.4922360">
        <ele>2468.4</ele>
        <time>2021-08-09T16:19:08Z</time>
      </trkpt>
      <trkpt lat="42.6478890" lon="1.4922370">
        <ele>2468.5</ele>
        <time>2021-08-09T16:19:09Z</time>
      </trkpt>
      <trkpt lat="42.6479070" lon="1.4922400">
        <ele>2468.7</ele>
        <time>2021-08-09T16:19:25Z</time>
      </trkpt>
      <trkpt lat="42.6479820" lon="1.4922380">
        <ele>2469.9</ele>
        <time>2021-08-09T16:19:38Z</time>
      </trkpt>
      <trkpt lat="42.6480030" lon="1.4922400">
        <ele>2470.2</ele>
        <time>2021-08-09T16:19:42Z</time>
      </trkpt>
      <trkpt lat="42.6480210" lon="1.4922320">
        <ele>2470.5</ele>
        <time>2021-08-09T16:19:45Z</time>
      </trkpt>
      <trkpt lat="42.6480820" lon="1.4922300">
        <ele>2471.4</ele>
        <time>2021-08-09T16:19:55Z</time>
      </trkpt>
      <trkpt lat="42.6481060" lon="1.4922240">
        <ele>2471.8</ele>
        <time>2021-08-09T16:19:58Z</time>
      </trkpt>
      <trkpt lat="42.6481210" lon="1.4922180">
        <ele>2472.1</ele>
        <time>2021-08-09T16:20:00Z</time>
      </trkpt>
      <trkpt lat="42.6481300" lon="1.4922170">
        <ele>2472.3</ele>
        <time>2021-08-09T16:20:01Z</time>
      </trkpt>
      <trkpt lat="42.6481390" lon="1.4922150">
        <ele>2472.4</ele>
        <time>2021-08-09T16:20:02Z</time>
      </trkpt>
      <trkpt lat="42.6481440" lon="1.4922120">
        <ele>2472.5</ele>
        <time>2021-08-09T16:20:03Z</time>
      </trkpt>
      <trkpt lat="42.6481670" lon="1.4922110">
        <ele>2473.0</ele>
        <time>2021-08-09T16:20:06Z</time>
      </trkpt>
      <trkpt lat="42.6481860" lon="1.4922070">
        <ele>2473.4</ele>
        <time>2021-08-09T16:20:09Z</time>
      </trkpt>
      <trkpt lat="42.6482030" lon="1.4922160">
        <ele>2473.9</ele>
        <time>2021-08-09T16:20:13Z</time>
      </trkpt>
      <trkpt lat="42.6482080" lon="1.4922160">
        <ele>2474.0</ele>
        <time>2021-08-09T16:20:14Z</time>
      </trkpt>
      <trkpt lat="42.6482150" lon="1.4922180">
        <ele>2474.2</ele>
        <time>2021-08-09T16:20:15Z</time>
      </trkpt>
      <trkpt lat="42.6482250" lon="1.4923270">
        <ele>2476.6</ele>
        <time>2021-08-09T16:20:42Z</time>
      </trkpt>
      <trkpt lat="42.6482540" lon="1.4923360">
        <ele>2477.7</ele>
        <time>2021-08-09T16:21:11Z</time>
      </trkpt>
      <trkpt lat="42.6483280" lon="1.4923810">
        <ele>2480.5</ele>
        <time>2021-08-09T16:21:48Z</time>
      </trkpt>
      <trkpt lat="42.6483650" lon="1.4924540">
        <ele>2482.6</ele>
        <time>2021-08-09T16:22:09Z</time>
      </trkpt>
      <trkpt lat="42.6483700" lon="1.4924650">
        <ele>2482.9</ele>
        <time>2021-08-09T16:22:11Z</time>
      </trkpt>
      <trkpt lat="42.6483900" lon="1.4924810">
        <ele>2483.6</ele>
        <time>2021-08-09T16:22:16Z</time>
      </trkpt>
      <trkpt lat="42.6483930" lon="1.4924900">
        <ele>2483.8</ele>
        <time>2021-08-09T16:22:18Z</time>
      </trkpt>
      <trkpt lat="42.6483960" lon="1.4924960">
        <ele>2483.9</ele>
        <time>2021-08-09T16:22:19Z</time>
      </trkpt>
      <trkpt lat="42.6484060" lon="1.4925190">
        <ele>2484.5</ele>
        <time>2021-08-09T16:22:23Z</time>
      </trkpt>
      <trkpt lat="42.6484240" lon="1.4925670">
        <ele>2485.6</ele>
        <time>2021-08-09T16:22:31Z</time>
      </trkpt>
      <trkpt lat="42.6484320" lon="1.4926000">
        <ele>2486.2</ele>
        <time>2021-08-09T16:22:35Z</time>
      </trkpt>
      <trkpt lat="42.6484610" lon="1.4927010">
        <ele>2488.2</ele>
        <time>2021-08-09T16:22:49Z</time>
      </trkpt>
      <trkpt lat="42.6484720" lon="1.4927280">
        <ele>2488.7</ele>
        <time>2021-08-09T16:22:54Z</time>
      </trkpt>
      <trkpt lat="42.6485370" lon="1.4928450">
        <ele>2491.6</ele>
        <time>2021-08-09T16:23:18Z</time>
      </trkpt>
      <trkpt lat="42.6485640" lon="1.4929060">
        <ele>2493.1</ele>
        <time>2021-08-09T16:23:30Z</time>
      </trkpt>
      <trkpt lat="42.6485840" lon="1.4929400">
        <ele>2494.0</ele>
        <time>2021-08-09T16:23:36Z</time>
      </trkpt>
      <trkpt lat="42.6486460" lon="1.4930010">
        <ele>2496.2</ele>
        <time>2021-08-09T16:23:58Z</time>
      </trkpt>
      <trkpt lat="42.6487110" lon="1.4930250">
        <ele>2498.2</ele>
        <time>2021-08-09T16:24:11Z</time>
      </trkpt>
      <trkpt lat="42.6487060" lon="1.4930290">
        <ele>2498.3</ele>
        <time>2021-08-09T16:33:56Z</time>
      </trkpt>
      <trkpt lat="42.6487390" lon="1.4930090">
        <ele>2499.4</ele>
        <time>2021-08-09T16:34:05Z</time>
      </trkpt>
      <trkpt lat="42.6487640" lon="1.4930060">
        <ele>2500.1</ele>
        <time>2021-08-09T16:34:09Z</time>
      </trkpt>
      <trkpt lat="42.6487860" lon="1.4930090">
        <ele>2500.7</ele>
        <time>2021-08-09T16:34:13Z</time>
      </trkpt>
      <trkpt lat="42.6488040" lon="1.4930110">
        <ele>2501.3</ele>
        <time>2021-08-09T16:34:16Z</time>
      </trkpt>
      <trkpt lat="42.6488100" lon="1.4930100">
        <ele>2501.4</ele>
        <time>2021-08-09T16:34:17Z</time>
      </trkpt>
      <trkpt lat="42.6488240" lon="1.4929990">
        <ele>2501.9</ele>
        <time>2021-08-09T16:34:21Z</time>
      </trkpt>
      <trkpt lat="42.6488380" lon="1.4929840">
        <ele>2502.4</ele>
        <time>2021-08-09T16:34:24Z</time>
      </trkpt>
      <trkpt lat="42.6488540" lon="1.4929600">
        <ele>2503.1</ele>
        <time>2021-08-09T16:34:28Z</time>
      </trkpt>
      <trkpt lat="42.6488560" lon="1.4929520">
        <ele>2503.3</ele>
        <time>2021-08-09T16:34:29Z</time>
      </trkpt>
      <trkpt lat="42.6488970" lon="1.4928470">
        <ele>2505.8</ele>
        <time>2021-08-09T16:34:48Z</time>
      </trkpt>
      <trkpt lat="42.6489420" lon="1.4928460">
        <ele>2507.1</ele>
        <time>2021-08-09T16:35:07Z</time>
      </trkpt>
      <trkpt lat="42.6490750" lon="1.4926880">
        <ele>2512.3</ele>
        <time>2021-08-09T16:35:39Z</time>
      </trkpt>
      <trkpt lat="42.6491480" lon="1.4925550">
        <ele>2515.8</ele>
        <time>2021-08-09T16:36:03Z</time>
      </trkpt>
      <trkpt lat="42.6492170" lon="1.4924570">
        <ele>2518.7</ele>
        <time>2021-08-09T16:36:26Z</time>
      </trkpt>
      <trkpt lat="42.6492220" lon="1.4924550">
        <ele>2518.8</ele>
        <time>2021-08-09T16:36:27Z</time>
      </trkpt>
      <trkpt lat="42.6492260" lon="1.4924530">
        <ele>2519.0</ele>
        <time>2021-08-09T16:36:28Z</time>
      </trkpt>
      <trkpt lat="42.6492460" lon="1.4924340">
        <ele>2519.7</ele>
        <time>2021-08-09T16:36:31Z</time>
      </trkpt>
      <trkpt lat="42.6492500" lon="1.4924290">
        <ele>2519.8</ele>
        <time>2021-08-09T16:36:32Z</time>
      </trkpt>
      <trkpt lat="42.6492990" lon="1.4923390">
        <ele>2522.2</ele>
        <time>2021-08-09T16:36:43Z</time>
      </trkpt>
      <trkpt lat="42.6493400" lon="1.4922450">
        <ele>2524.5</ele>
        <time>2021-08-09T16:36:57Z</time>
      </trkpt>
      <trkpt lat="42.6493470" lon="1.4922310">
        <ele>2524.9</ele>
        <time>2021-08-09T16:37:00Z</time>
      </trkpt>
      <trkpt lat="42.6493470" lon="1.4922240">
        <ele>2525.0</ele>
        <time>2021-08-09T16:37:03Z</time>
      </trkpt>
      <trkpt lat="42.6493480" lon="1.4922220">
        <ele>2525.1</ele>
        <time>2021-08-09T16:37:08Z</time>
      </trkpt>
      <trkpt lat="42.6493870" lon="1.4921570">
        <ele>2526.9</ele>
        <time>2021-08-09T16:37:29Z</time>
      </trkpt>
      <trkpt lat="42.6494740" lon="1.4919560">
        <ele>2531.8</ele>
        <time>2021-08-09T16:38:10Z</time>
      </trkpt>
      <trkpt lat="42.6494970" lon="1.4918630">
        <ele>2533.9</ele>
        <time>2021-08-09T16:38:33Z</time>
      </trkpt>
      <trkpt lat="42.6495460" lon="1.4918060">
        <ele>2535.8</ele>
        <time>2021-08-09T16:39:18Z</time>
      </trkpt>
      <trkpt lat="42.6495590" lon="1.4916890">
        <ele>2538.3</ele>
        <time>2021-08-09T16:40:17Z</time>
      </trkpt>
      <trkpt lat="42.6495610" lon="1.4916720">
        <ele>2538.7</ele>
        <time>2021-08-09T16:40:28Z</time>
      </trkpt>
      <trkpt lat="42.6495700" lon="1.4916510">
        <ele>2539.2</ele>
        <time>2021-08-09T16:40:35Z</time>
      </trkpt>
      <trkpt lat="42.6495690" lon="1.4916520">
        <ele>2539.2</ele>
        <time>2021-08-09T16:40:36Z</time>
      </trkpt>
      <trkpt lat="42.6495680" lon="1.4916530">
        <ele>2539.3</ele>
        <time>2021-08-09T16:40:37Z</time>
      </trkpt>
      <trkpt lat="42.6495700" lon="1.4916550">
        <ele>2539.4</ele>
        <time>2021-08-09T16:40:38Z</time>
      </trkpt>
      <trkpt lat="42.6495770" lon="1.4916580">
        <ele>2539.6</ele>
        <time>2021-08-09T16:40:40Z</time>
      </trkpt>
      <trkpt lat="42.6495800" lon="1.4916640">
        <ele>2539.7</ele>
        <time>2021-08-09T16:40:43Z</time>
      </trkpt>
      <trkpt lat="42.6495830" lon="1.4916640">
        <ele>2539.8</ele>
        <time>2021-08-09T16:40:44Z</time>
      </trkpt>
      <trkpt lat="42.6495830" lon="1.4916660">
        <ele>2539.9</ele>
        <time>2021-08-09T16:40:45Z</time>
      </trkpt>
      <trkpt lat="42.6495840" lon="1.4916670">
        <ele>2539.9</ele>
        <time>2021-08-09T16:40:46Z</time>
      </trkpt>
      <trkpt lat="42.6495830" lon="1.4916680">
        <ele>2539.9</ele>
        <time>2021-08-09T16:40:50Z</time>
      </trkpt>
      <trkpt lat="42.6495850" lon="1.4916690">
        <ele>2540.0</ele>
        <time>2021-08-09T16:40:51Z</time>
      </trkpt>
      <trkpt lat="42.6495870" lon="1.4916690">
        <ele>2540.0</ele>
        <time>2021-08-09T16:40:52Z</time>
      </trkpt>
      <trkpt lat="42.6495910" lon="1.4916700">
        <ele>2540.2</ele>
        <time>2021-08-09T16:40:54Z</time>
      </trkpt>
      <trkpt lat="42.6496330" lon="1.4916270">
        <ele>2541.7</ele>
        <time>2021-08-09T16:41:18Z</time>
      </trkpt>
      <trkpt lat="42.6496380" lon="1.4916090">
        <ele>2542.1</ele>
        <time>2021-08-09T16:41:22Z</time>
      </trkpt>
      <trkpt lat="42.6496390" lon="1.4915810">
        <ele>2542.7</ele>
        <time>2021-08-09T16:41:31Z</time>
      </trkpt>
      <trkpt lat="42.6496300" lon="1.4915690">
        <ele>2543.1</ele>
        <time>2021-08-09T16:41:37Z</time>
      </trkpt>
      <trkpt lat="42.6496390" lon="1.4915630">
        <ele>2543.3</ele>
        <time>2021-08-09T16:41:40Z</time>
      </trkpt>
      <trkpt lat="42.6496420" lon="1.4915610">
        <ele>2543.4</ele>
        <time>2021-08-09T16:41:41Z</time>
      </trkpt>
      <trkpt lat="42.6496560" lon="1.4915400">
        <ele>2544.0</ele>
        <time>2021-08-09T16:41:49Z</time>
      </trkpt>
      <trkpt lat="42.6496560" lon="1.4915400">
        <ele>2544.0</ele>
        <time>2021-08-09T16:41:50Z</time>
      </trkpt>
      <trkpt lat="42.6496580" lon="1.4915410">
        <ele>2544.1</ele>
        <time>2021-08-09T16:41:53Z</time>
      </trkpt>
      <trkpt lat="42.6496580" lon="1.4915400">
        <ele>2544.1</ele>
        <time>2021-08-09T16:42:02Z</time>
      </trkpt>
      <trkpt lat="42.6496680" lon="1.4915320">
        <ele>2544.5</ele>
        <time>2021-08-09T16:42:09Z</time>
      </trkpt>
      <trkpt lat="42.6497000" lon="1.4914810">
        <ele>2545.9</ele>
        <time>2021-08-09T16:42:40Z</time>
      </trkpt>
      <trkpt lat="42.6496980" lon="1.4914810">
        <ele>2546.0</ele>
        <time>2021-08-09T16:42:57Z</time>
      </trkpt>
      <trkpt lat="42.6497350" lon="1.4914490">
        <ele>2547.2</ele>
        <time>2021-08-09T16:43:24Z</time>
      </trkpt>
      <trkpt lat="42.6497490" lon="1.4914470">
        <ele>2547.6</ele>
        <time>2021-08-09T16:43:28Z</time>
      </trkpt>
      <trkpt lat="42.6497890" lon="1.4914410">
        <ele>2548.8</ele>
        <time>2021-08-09T16:43:40Z</time>
      </trkpt>
      <trkpt lat="42.6498080" lon="1.4914160">
        <ele>2549.6</ele>
        <time>2021-08-09T16:43:45Z</time>
      </trkpt>
      <trkpt lat="42.6498130" lon="1.4914100">
        <ele>2549.8</ele>
        <time>2021-08-09T16:43:46Z</time>
      </trkpt>
      <trkpt lat="42.6498190" lon="1.4914020">
        <ele>2550.0</ele>
        <time>2021-08-09T16:43:48Z</time>
      </trkpt>
      <trkpt lat="42.6498230" lon="1.4913920">
        <ele>2550.2</ele>
        <time>2021-08-09T16:43:50Z</time>
      </trkpt>
      <trkpt lat="42.6498270" lon="1.4913840">
        <ele>2550.4</ele>
        <time>2021-08-09T16:43:52Z</time>
      </trkpt>
      <trkpt lat="42.6498310" lon="1.4913780">
        <ele>2550.6</ele>
        <time>2021-08-09T16:43:54Z</time>
      </trkpt>
      <trkpt lat="42.6498320" lon="1.4913710">
        <ele>2550.8</ele>
        <time>2021-08-09T16:43:57Z</time>
      </trkpt>
      <trkpt lat="42.6498430" lon="1.4913540">
        <ele>2551.3</ele>
        <time>2021-08-09T16:44:01Z</time>
      </trkpt>
      <trkpt lat="42.6498470" lon="1.4913500">
        <ele>2551.4</ele>
        <time>2021-08-09T16:44:02Z</time>
      </trkpt>
      <trkpt lat="42.6498540" lon="1.4913320">
        <ele>2551.8</ele>
        <time>2021-08-09T16:44:04Z</time>
      </trkpt>
      <trkpt lat="42.6498520" lon="1.4913250">
        <ele>2552.0</ele>
        <time>2021-08-09T16:44:05Z</time>
      </trkpt>
      <trkpt lat="42.6498560" lon="1.4913100">
        <ele>2552.3</ele>
        <time>2021-08-09T16:44:10Z</time>
      </trkpt>
      <trkpt lat="42.6498570" lon="1.4912160">
        <ele>2554.3</ele>
        <time>2021-08-09T16:44:36Z</time>
      </trkpt>
      <trkpt lat="42.6498570" lon="1.4912150">
        <ele>2554.4</ele>
        <time>2021-08-09T16:44:37Z</time>
      </trkpt>
      <trkpt lat="42.6498600" lon="1.4912140">
        <ele>2554.4</ele>
        <time>2021-08-09T16:44:38Z</time>
      </trkpt>
      <trkpt lat="42.6498590" lon="1.4912140">
        <ele>2554.5</ele>
        <time>2021-08-09T16:44:39Z</time>
      </trkpt>
      <trkpt lat="42.6498610" lon="1.4912120">
        <ele>2554.5</ele>
        <time>2021-08-09T16:44:40Z</time>
      </trkpt>
      <trkpt lat="42.6498800" lon="1.4911930">
        <ele>2555.2</ele>
        <time>2021-08-09T16:44:53Z</time>
      </trkpt>
      <trkpt lat="42.6498850" lon="1.4911910">
        <ele>2555.4</ele>
        <time>2021-08-09T16:44:55Z</time>
      </trkpt>
      <trkpt lat="42.6498920" lon="1.4911880">
        <ele>2555.6</ele>
        <time>2021-08-09T16:44:56Z</time>
      </trkpt>
      <trkpt lat="42.6498970" lon="1.4911810">
        <ele>2555.8</ele>
        <time>2021-08-09T16:44:57Z</time>
      </trkpt>
      <trkpt lat="42.6499050" lon="1.4911710">
        <ele>2556.1</ele>
        <time>2021-08-09T16:44:59Z</time>
      </trkpt>
      <trkpt lat="42.6499060" lon="1.4911700">
        <ele>2556.2</ele>
        <time>2021-08-09T16:45:00Z</time>
      </trkpt>
      <trkpt lat="42.6499130" lon="1.4911720">
        <ele>2556.4</ele>
        <time>2021-08-09T16:45:01Z</time>
      </trkpt>
      <trkpt lat="42.6499170" lon="1.4911700">
        <ele>2556.5</ele>
        <time>2021-08-09T16:45:02Z</time>
      </trkpt>
      <trkpt lat="42.6499230" lon="1.4911700">
        <ele>2556.7</ele>
        <time>2021-08-09T16:45:03Z</time>
      </trkpt>
      <trkpt lat="42.6499250" lon="1.4911700">
        <ele>2556.7</ele>
        <time>2021-08-09T16:45:04Z</time>
      </trkpt>
      <trkpt lat="42.6499280" lon="1.4911800">
        <ele>2556.9</ele>
        <time>2021-08-09T16:45:10Z</time>
      </trkpt>
      <trkpt lat="42.6499280" lon="1.4911790">
        <ele>2557.0</ele>
        <time>2021-08-09T16:45:12Z</time>
      </trkpt>
      <trkpt lat="42.6499250" lon="1.4911820">
        <ele>2557.1</ele>
        <time>2021-08-09T16:45:14Z</time>
      </trkpt>
      <trkpt lat="42.6499240" lon="1.4911820">
        <ele>2557.1</ele>
        <time>2021-08-09T16:45:15Z</time>
      </trkpt>
      <trkpt lat="42.6499240" lon="1.4911800">
        <ele>2557.1</ele>
        <time>2021-08-09T16:45:16Z</time>
      </trkpt>
      <trkpt lat="42.6499220" lon="1.4911810">
        <ele>2557.2</ele>
        <time>2021-08-09T16:45:17Z</time>
      </trkpt>
      <trkpt lat="42.6499210" lon="1.4911820">
        <ele>2557.2</ele>
        <time>2021-08-09T16:45:18Z</time>
      </trkpt>
      <trkpt lat="42.6499230" lon="1.4911830">
        <ele>2557.3</ele>
        <time>2021-08-09T16:45:23Z</time>
      </trkpt>
      <trkpt lat="42.6499310" lon="1.4911650">
        <ele>2557.8</ele>
        <time>2021-08-09T16:45:44Z</time>
      </trkpt>
      <trkpt lat="42.6499420" lon="1.4911270">
        <ele>2558.6</ele>
        <time>2021-08-09T16:45:56Z</time>
      </trkpt>
      <trkpt lat="42.6499450" lon="1.4911100">
        <ele>2559.0</ele>
        <time>2021-08-09T16:46:05Z</time>
      </trkpt>
      <trkpt lat="42.6499440" lon="1.4911120">
        <ele>2559.0</ele>
        <time>2021-08-09T16:46:09Z</time>
      </trkpt>
      <trkpt lat="42.6499440" lon="1.4911140">
        <ele>2559.1</ele>
        <time>2021-08-09T16:46:11Z</time>
      </trkpt>
      <trkpt lat="42.6499440" lon="1.4911140">
        <ele>2559.1</ele>
        <time>2021-08-09T16:46:12Z</time>
      </trkpt>
      <trkpt lat="42.6499440" lon="1.4911140">
        <ele>2559.1</ele>
        <time>2021-08-09T16:46:13Z</time>
      </trkpt>
      <trkpt lat="42.6499440" lon="1.4911150">
        <ele>2559.1</ele>
        <time>2021-08-09T16:46:14Z</time>
      </trkpt>
      <trkpt lat="42.6499520" lon="1.4911370">
        <ele>2559.6</ele>
        <time>2021-08-09T16:46:30Z</time>
      </trkpt>
      <trkpt lat="42.6499450" lon="1.4911280">
        <ele>2559.9</ele>
        <time>2021-08-09T16:46:39Z</time>
      </trkpt>
      <trkpt lat="42.6499390" lon="1.4911150">
        <ele>2560.2</ele>
        <time>2021-08-09T16:46:55Z</time>
      </trkpt>
      <trkpt lat="42.6499370" lon="1.4911310">
        <ele>2560.6</ele>
        <time>2021-08-09T16:47:00Z</time>
      </trkpt>
      <trkpt lat="42.6499620" lon="1.4911380">
        <ele>2561.3</ele>
        <time>2021-08-09T16:47:07Z</time>
      </trkpt>
      <trkpt lat="42.6499620" lon="1.4911220">
        <ele>2561.7</ele>
        <time>2021-08-09T16:47:16Z</time>
      </trkpt>
      <trkpt lat="42.6499580" lon="1.4911180">
        <ele>2561.8</ele>
        <time>2021-08-09T16:47:22Z</time>
      </trkpt>
      <trkpt lat="42.6499640" lon="1.4911320">
        <ele>2562.2</ele>
        <time>2021-08-09T16:47:34Z</time>
      </trkpt>
      <trkpt lat="42.6500360" lon="1.4911850">
        <ele>2564.5</ele>
        <time>2021-08-09T16:47:50Z</time>
      </trkpt>
      <trkpt lat="42.6500370" lon="1.4911840">
        <ele>2564.6</ele>
        <time>2021-08-09T16:47:51Z</time>
      </trkpt>
      <trkpt lat="42.6500360" lon="1.4911850">
        <ele>2564.6</ele>
        <time>2021-08-09T16:47:54Z</time>
      </trkpt>
      <trkpt lat="42.6500350" lon="1.4911860">
        <ele>2564.6</ele>
        <time>2021-08-09T16:47:55Z</time>
      </trkpt>
      <trkpt lat="42.6500380" lon="1.4911930">
        <ele>2564.8</ele>
        <time>2021-08-09T16:47:57Z</time>
      </trkpt>
      <trkpt lat="42.6500400" lon="1.4912000">
        <ele>2565.0</ele>
        <time>2021-08-09T16:47:58Z</time>
      </trkpt>
      <trkpt lat="42.6500410" lon="1.4912050">
        <ele>2565.1</ele>
        <time>2021-08-09T16:47:59Z</time>
      </trkpt>
      <trkpt lat="42.6500640" lon="1.4912240">
        <ele>2565.9</ele>
        <time>2021-08-09T16:48:07Z</time>
      </trkpt>
      <trkpt lat="42.6500670" lon="1.4912290">
        <ele>2566.0</ele>
        <time>2021-08-09T16:48:09Z</time>
      </trkpt>
      <trkpt lat="42.6500680" lon="1.4912300">
        <ele>2566.0</ele>
        <time>2021-08-09T16:48:10Z</time>
      </trkpt>
      <trkpt lat="42.6500680" lon="1.4912300">
        <ele>2566.0</ele>
        <time>2021-08-09T16:48:11Z</time>
      </trkpt>
      <trkpt lat="42.6501060" lon="1.4912090">
        <ele>2567.2</ele>
        <time>2021-08-09T16:48:53Z</time>
      </trkpt>
      <trkpt lat="42.6501180" lon="1.4912000">
        <ele>2567.6</ele>
        <time>2021-08-09T16:49:00Z</time>
      </trkpt>
      <trkpt lat="42.6501320" lon="1.4911840">
        <ele>2568.1</ele>
        <time>2021-08-09T16:49:06Z</time>
      </trkpt>
      <trkpt lat="42.6501400" lon="1.4911640">
        <ele>2568.6</ele>
        <time>2021-08-09T16:49:11Z</time>
      </trkpt>
      <trkpt lat="42.6501420" lon="1.4911610">
        <ele>2568.7</ele>
        <time>2021-08-09T16:49:12Z</time>
      </trkpt>
      <trkpt lat="42.6501430" lon="1.4911560">
        <ele>2568.8</ele>
        <time>2021-08-09T16:49:13Z</time>
      </trkpt>
      <trkpt lat="42.6501450" lon="1.4911490">
        <ele>2569.0</ele>
        <time>2021-08-09T16:49:14Z</time>
      </trkpt>
      <trkpt lat="42.6501460" lon="1.4911390">
        <ele>2569.2</ele>
        <time>2021-08-09T16:49:15Z</time>
      </trkpt>
      <trkpt lat="42.6501580" lon="1.4911060">
        <ele>2570.0</ele>
        <time>2021-08-09T16:49:22Z</time>
      </trkpt>
      <trkpt lat="42.6501580" lon="1.4911010">
        <ele>2570.1</ele>
        <time>2021-08-09T16:49:23Z</time>
      </trkpt>
      <trkpt lat="42.6501590" lon="1.4910980">
        <ele>2570.2</ele>
        <time>2021-08-09T16:49:24Z</time>
      </trkpt>
      <trkpt lat="42.6501580" lon="1.4910970">
        <ele>2570.2</ele>
        <time>2021-08-09T16:49:25Z</time>
      </trkpt>
      <trkpt lat="42.6501570" lon="1.4910950">
        <ele>2570.3</ele>
        <time>2021-08-09T16:49:26Z</time>
      </trkpt>
      <trkpt lat="42.6501580" lon="1.4910930">
        <ele>2570.3</ele>
        <time>2021-08-09T16:49:27Z</time>
      </trkpt>
      <trkpt lat="42.6501590" lon="1.4910920">
        <ele>2570.3</ele>
        <time>2021-08-09T16:49:28Z</time>
      </trkpt>
      <trkpt lat="42.6501600" lon="1.4910900">
        <ele>2570.4</ele>
        <time>2021-08-09T16:49:29Z</time>
      </trkpt>
      <trkpt lat="42.6501620" lon="1.4910850">
        <ele>2570.5</ele>
        <time>2021-08-09T16:49:30Z</time>
      </trkpt>
      <trkpt lat="42.6501630" lon="1.4910800">
        <ele>2570.6</ele>
        <time>2021-08-09T16:49:31Z</time>
      </trkpt>
      <trkpt lat="42.6501620" lon="1.4910610">
        <ele>2571.0</ele>
        <time>2021-08-09T16:49:34Z</time>
      </trkpt>
      <trkpt lat="42.6501630" lon="1.4910520">
        <ele>2571.2</ele>
        <time>2021-08-09T16:49:35Z</time>
      </trkpt>
      <trkpt lat="42.6501630" lon="1.4910420">
        <ele>2571.4</ele>
        <time>2021-08-09T16:49:36Z</time>
      </trkpt>
      <trkpt lat="42.6501640" lon="1.4910330">
        <ele>2571.6</ele>
        <time>2021-08-09T16:49:37Z</time>
      </trkpt>
      <trkpt lat="42.6501670" lon="1.4909950">
        <ele>2572.4</ele>
        <time>2021-08-09T16:49:41Z</time>
      </trkpt>
      <trkpt lat="42.6501570" lon="1.4909830">
        <ele>2572.8</ele>
        <time>2021-08-09T16:49:44Z</time>
      </trkpt>
      <trkpt lat="42.6501580" lon="1.4909800">
        <ele>2572.9</ele>
        <time>2021-08-09T16:49:45Z</time>
      </trkpt>
      <trkpt lat="42.6501580" lon="1.4909780">
        <ele>2572.9</ele>
        <time>2021-08-09T16:49:46Z</time>
      </trkpt>
      <trkpt lat="42.6501540" lon="1.4909780">
        <ele>2573.1</ele>
        <time>2021-08-09T16:49:48Z</time>
      </trkpt>
      <trkpt lat="42.6501570" lon="1.4909840">
        <ele>2573.2</ele>
        <time>2021-08-09T16:49:53Z</time>
      </trkpt>
      <trkpt lat="42.6501570" lon="1.4909810">
        <ele>2573.3</ele>
        <time>2021-08-09T16:50:00Z</time>
      </trkpt>
      <trkpt lat="42.6501560" lon="1.4909760">
        <ele>2573.4</ele>
        <time>2021-08-09T16:50:02Z</time>
      </trkpt>
      <trkpt lat="42.6501560" lon="1.4909750">
        <ele>2573.4</ele>
        <time>2021-08-09T16:50:04Z</time>
      </trkpt>
      <trkpt lat="42.6501560" lon="1.4909760">
        <ele>2573.4</ele>
        <time>2021-08-09T16:50:07Z</time>
      </trkpt>
      <trkpt lat="42.6501570" lon="1.4909760">
        <ele>2573.5</ele>
        <time>2021-08-09T16:50:08Z</time>
      </trkpt>
      <trkpt lat="42.6501580" lon="1.4909770">
        <ele>2573.5</ele>
        <time>2021-08-09T16:50:09Z</time>
      </trkpt>
      <trkpt lat="42.6501590" lon="1.4909770">
        <ele>2573.5</ele>
        <time>2021-08-09T16:50:10Z</time>
      </trkpt>
      <trkpt lat="42.6501590" lon="1.4909750">
        <ele>2573.6</ele>
        <time>2021-08-09T16:50:11Z</time>
      </trkpt>
      <trkpt lat="42.6501570" lon="1.4909720">
        <ele>2573.7</ele>
        <time>2021-08-09T16:50:15Z</time>
      </trkpt>
      <trkpt lat="42.6501580" lon="1.4909730">
        <ele>2573.7</ele>
        <time>2021-08-09T16:50:16Z</time>
      </trkpt>
      <trkpt lat="42.6502030" lon="1.4908450">
        <ele>2576.7</ele>
        <time>2021-08-09T16:50:32Z</time>
      </trkpt>
      <trkpt lat="42.6502220" lon="1.4908080">
        <ele>2577.7</ele>
        <time>2021-08-09T16:50:36Z</time>
      </trkpt>
      <trkpt lat="42.6502370" lon="1.4907760">
        <ele>2578.5</ele>
        <time>2021-08-09T16:50:40Z</time>
      </trkpt>
      <trkpt lat="42.6502440" lon="1.4907610">
        <ele>2578.9</ele>
        <time>2021-08-09T16:50:42Z</time>
      </trkpt>
      <trkpt lat="42.6502460" lon="1.4907430">
        <ele>2579.2</ele>
        <time>2021-08-09T16:50:44Z</time>
      </trkpt>
      <trkpt lat="42.6502690" lon="1.4906880">
        <ele>2580.6</ele>
        <time>2021-08-09T16:50:50Z</time>
      </trkpt>
      <trkpt lat="42.6502800" lon="1.4906560">
        <ele>2581.3</ele>
        <time>2021-08-09T16:50:53Z</time>
      </trkpt>
      <trkpt lat="42.6502830" lon="1.4906460">
        <ele>2581.6</ele>
        <time>2021-08-09T16:50:54Z</time>
      </trkpt>
      <trkpt lat="42.6502880" lon="1.4906380">
        <ele>2581.8</ele>
        <time>2021-08-09T16:50:55Z</time>
      </trkpt>
      <trkpt lat="42.6502920" lon="1.4906280">
        <ele>2582.0</ele>
        <time>2021-08-09T16:50:56Z</time>
      </trkpt>
      <trkpt lat="42.6503030" lon="1.4906110">
        <ele>2582.5</ele>
        <time>2021-08-09T16:50:58Z</time>
      </trkpt>
      <trkpt lat="42.6503350" lon="1.4905240">
        <ele>2584.6</ele>
        <time>2021-08-09T16:51:08Z</time>
      </trkpt>
      <trkpt lat="42.6503490" lon="1.4904770">
        <ele>2585.7</ele>
        <time>2021-08-09T16:51:13Z</time>
      </trkpt>
      <trkpt lat="42.6504050" lon="1.4903890">
        <ele>2588.2</ele>
        <time>2021-08-09T16:51:25Z</time>
      </trkpt>
      <trkpt lat="42.6504090" lon="1.4903700">
        <ele>2588.6</ele>
        <time>2021-08-09T16:51:35Z</time>
      </trkpt>
      <trkpt lat="42.6504070" lon="1.4903810">
        <ele>2588.8</ele>
        <time>2021-08-09T16:51:48Z</time>
      </trkpt>
      <trkpt lat="42.6504450" lon="1.4903090">
        <ele>2590.7</ele>
        <time>2021-08-09T16:51:58Z</time>
      </trkpt>
      <trkpt lat="42.6504690" lon="1.4902720">
        <ele>2591.8</ele>
        <time>2021-08-09T16:52:03Z</time>
      </trkpt>
      <trkpt lat="42.6505590" lon="1.4900890">
        <ele>2596.5</ele>
        <time>2021-08-09T16:52:26Z</time>
      </trkpt>
      <trkpt lat="42.6505770" lon="1.4900610">
        <ele>2597.2</ele>
        <time>2021-08-09T16:52:31Z</time>
      </trkpt>
      <trkpt lat="42.6505810" lon="1.4900520">
        <ele>2597.5</ele>
        <time>2021-08-09T16:52:32Z</time>
      </trkpt>
      <trkpt lat="42.6505840" lon="1.4900460">
        <ele>2597.6</ele>
        <time>2021-08-09T16:52:33Z</time>
      </trkpt>
      <trkpt lat="42.6505880" lon="1.4900400">
        <ele>2597.8</ele>
        <time>2021-08-09T16:52:34Z</time>
      </trkpt>
      <trkpt lat="42.6506940" lon="1.4898390">
        <ele>2603.1</ele>
        <time>2021-08-09T16:52:58Z</time>
      </trkpt>
      <trkpt lat="42.6508090" lon="1.4896550">
        <ele>2608.2</ele>
        <time>2021-08-09T16:53:22Z</time>
      </trkpt>
      <trkpt lat="42.6508120" lon="1.4896380">
        <ele>2608.6</ele>
        <time>2021-08-09T16:53:25Z</time>
      </trkpt>
      <trkpt lat="42.6508180" lon="1.4896330">
        <ele>2608.8</ele>
        <time>2021-08-09T16:53:29Z</time>
      </trkpt>
      <trkpt lat="42.6508200" lon="1.4896300">
        <ele>2608.9</ele>
        <time>2021-08-09T16:53:31Z</time>
      </trkpt>
      <trkpt lat="42.6508260" lon="1.4896190">
        <ele>2609.2</ele>
        <time>2021-08-09T16:53:34Z</time>
      </trkpt>
      <trkpt lat="42.6508270" lon="1.4896130">
        <ele>2609.3</ele>
        <time>2021-08-09T16:53:40Z</time>
      </trkpt>
      <trkpt lat="42.6508310" lon="1.4895980">
        <ele>2609.6</ele>
        <time>2021-08-09T16:53:48Z</time>
      </trkpt>
      <trkpt lat="42.6508380" lon="1.4895670">
        <ele>2610.3</ele>
        <time>2021-08-09T16:53:54Z</time>
      </trkpt>
      <trkpt lat="42.6508380" lon="1.4895650">
        <ele>2610.4</ele>
        <time>2021-08-09T16:54:01Z</time>
      </trkpt>
      <trkpt lat="42.6508430" lon="1.4895390">
        <ele>2610.9</ele>
        <time>2021-08-09T16:54:15Z</time>
      </trkpt>
      <trkpt lat="42.6508470" lon="1.4895280">
        <ele>2611.2</ele>
        <time>2021-08-09T16:54:19Z</time>
      </trkpt>
      <trkpt lat="42.6508610" lon="1.4894140">
        <ele>2613.7</ele>
        <time>2021-08-09T16:54:40Z</time>
      </trkpt>
      <trkpt lat="42.6508820" lon="1.4894000">
        <ele>2614.3</ele>
        <time>2021-08-09T16:54:50Z</time>
      </trkpt>
      <trkpt lat="42.6508820" lon="1.4893980">
        <ele>2614.4</ele>
        <time>2021-08-09T16:54:54Z</time>
      </trkpt>
      <trkpt lat="42.6508920" lon="1.4893900">
        <ele>2614.7</ele>
        <time>2021-08-09T16:54:57Z</time>
      </trkpt>
      <trkpt lat="42.6509290" lon="1.4892710">
        <ele>2617.5</ele>
        <time>2021-08-09T16:55:14Z</time>
      </trkpt>
      <trkpt lat="42.6509640" lon="1.4892230">
        <ele>2618.9</ele>
        <time>2021-08-09T16:55:23Z</time>
      </trkpt>
      <trkpt lat="42.6509710" lon="1.4890770">
        <ele>2622.0</ele>
        <time>2021-08-09T16:56:28Z</time>
      </trkpt>
      <trkpt lat="42.6509670" lon="1.4890710">
        <ele>2622.2</ele>
        <time>2021-08-09T16:56:38Z</time>
      </trkpt>
      <trkpt lat="42.6509880" lon="1.4890640">
        <ele>2622.8</ele>
        <time>2021-08-09T16:56:45Z</time>
      </trkpt>
      <trkpt lat="42.6509950" lon="1.4890350">
        <ele>2623.5</ele>
        <time>2021-08-09T16:56:52Z</time>
      </trkpt>
      <trkpt lat="42.6510000" lon="1.4890230">
        <ele>2623.8</ele>
        <time>2021-08-09T16:56:56Z</time>
      </trkpt>
      <trkpt lat="42.6510130" lon="1.4889990">
        <ele>2624.4</ele>
        <time>2021-08-09T16:57:00Z</time>
      </trkpt>
      <trkpt lat="42.6510160" lon="1.4889940">
        <ele>2624.5</ele>
        <time>2021-08-09T16:57:01Z</time>
      </trkpt>
      <trkpt lat="42.6510090" lon="1.4889530">
        <ele>2625.4</ele>
        <time>2021-08-09T16:57:13Z</time>
      </trkpt>
      <trkpt lat="42.6510070" lon="1.4889450">
        <ele>2625.6</ele>
        <time>2021-08-09T16:57:17Z</time>
      </trkpt>
      <trkpt lat="42.6510070" lon="1.4889430">
        <ele>2625.7</ele>
        <time>2021-08-09T16:57:18Z</time>
      </trkpt>
      <trkpt lat="42.6510050" lon="1.4889400">
        <ele>2625.8</ele>
        <time>2021-08-09T16:57:21Z</time>
      </trkpt>
      <trkpt lat="42.6510470" lon="1.4888820">
        <ele>2627.5</ele>
        <time>2021-08-09T16:57:44Z</time>
      </trkpt>
      <trkpt lat="42.6510630" lon="1.4888630">
        <ele>2628.1</ele>
        <time>2021-08-09T16:57:49Z</time>
      </trkpt>
      <trkpt lat="42.6510840" lon="1.4888250">
        <ele>2629.1</ele>
        <time>2021-08-09T16:57:55Z</time>
      </trkpt>
      <trkpt lat="42.6510870" lon="1.4888020">
        <ele>2629.6</ele>
        <time>2021-08-09T16:58:02Z</time>
      </trkpt>
      <trkpt lat="42.6511680" lon="1.4886960">
        <ele>2632.9</ele>
        <time>2021-08-09T16:58:34Z</time>
      </trkpt>
      <trkpt lat="42.6511590" lon="1.4886620">
        <ele>2633.6</ele>
        <time>2021-08-09T16:58:44Z</time>
      </trkpt>
      <trkpt lat="42.6511550" lon="1.4886580">
        <ele>2633.8</ele>
        <time>2021-08-09T16:58:45Z</time>
      </trkpt>
      <trkpt lat="42.6511530" lon="1.4885860">
        <ele>2635.3</ele>
        <time>2021-08-09T16:59:25Z</time>
      </trkpt>
      <trkpt lat="42.6512310" lon="1.4885450">
        <ele>2637.7</ele>
        <time>2021-08-09T16:59:53Z</time>
      </trkpt>
      <trkpt lat="42.6512400" lon="1.4885300">
        <ele>2638.2</ele>
        <time>2021-08-09T17:00:00Z</time>
      </trkpt>
      <trkpt lat="42.6512430" lon="1.4885280">
        <ele>2638.2</ele>
        <time>2021-08-09T17:00:01Z</time>
      </trkpt>
      <trkpt lat="42.6512440" lon="1.4885260">
        <ele>2638.3</ele>
        <time>2021-08-09T17:00:02Z</time>
      </trkpt>
      <trkpt lat="42.6512570" lon="1.4885180">
        <ele>2638.7</ele>
        <time>2021-08-09T17:00:08Z</time>
      </trkpt>
      <trkpt lat="42.6512570" lon="1.4885170">
        <ele>2638.7</ele>
        <time>2021-08-09T17:00:09Z</time>
      </trkpt>
      <trkpt lat="42.6512640" lon="1.4885110">
        <ele>2639.0</ele>
        <time>2021-08-09T17:00:11Z</time>
      </trkpt>
      <trkpt lat="42.6512660" lon="1.4885080">
        <ele>2639.1</ele>
        <time>2021-08-09T17:00:12Z</time>
      </trkpt>
      <trkpt lat="42.6512690" lon="1.4885000">
        <ele>2639.3</ele>
        <time>2021-08-09T17:00:13Z</time>
      </trkpt>
      <trkpt lat="42.6512710" lon="1.4884970">
        <ele>2639.3</ele>
        <time>2021-08-09T17:00:14Z</time>
      </trkpt>
      <trkpt lat="42.6512750" lon="1.4884400">
        <ele>2640.6</ele>
        <time>2021-08-09T17:00:30Z</time>
      </trkpt>
      <trkpt lat="42.6513210" lon="1.4882950">
        <ele>2643.9</ele>
        <time>2021-08-09T17:00:57Z</time>
      </trkpt>
      <trkpt lat="42.6514200" lon="1.4882390">
        <ele>2647.0</ele>
        <time>2021-08-09T17:01:40Z</time>
      </trkpt>
      <trkpt lat="42.6515030" lon="1.4882690">
        <ele>2653.2</ele>
        <time>2021-08-09T17:02:09Z</time>
      </trkpt>
      <trkpt lat="42.6515430" lon="1.4882320">
        <ele>2654.6</ele>
        <time>2021-08-09T17:02:40Z</time>
      </trkpt>
      <trkpt lat="42.6515500" lon="1.4881790">
        <ele>2655.8</ele>
        <time>2021-08-09T17:02:52Z</time>
      </trkpt>
      <trkpt lat="42.6515560" lon="1.4881570">
        <ele>2656.3</ele>
        <time>2021-08-09T17:02:57Z</time>
      </trkpt>
      <trkpt lat="42.6515660" lon="1.4881480">
        <ele>2656.7</ele>
        <time>2021-08-09T17:03:10Z</time>
      </trkpt>
      <trkpt lat="42.6515630" lon="1.4881430">
        <ele>2656.8</ele>
        <time>2021-08-09T17:03:20Z</time>
      </trkpt>
      <trkpt lat="42.6515630" lon="1.4881440">
        <ele>2656.8</ele>
        <time>2021-08-09T17:03:28Z</time>
      </trkpt>
      <trkpt lat="42.6515660" lon="1.4881490">
        <ele>2657.0</ele>
        <time>2021-08-09T17:03:40Z</time>
      </trkpt>
      <trkpt lat="42.6515750" lon="1.4881310">
        <ele>2657.5</ele>
        <time>2021-08-09T17:03:58Z</time>
      </trkpt>
      <trkpt lat="42.6515650" lon="1.4881240">
        <ele>2657.8</ele>
        <time>2021-08-09T17:04:01Z</time>
      </trkpt>
      <trkpt lat="42.6515530" lon="1.4881160">
        <ele>2658.2</ele>
        <time>2021-08-09T17:04:05Z</time>
      </trkpt>
      <trkpt lat="42.6515510" lon="1.4881150">
        <ele>2658.3</ele>
        <time>2021-08-09T17:04:06Z</time>
      </trkpt>
      <trkpt lat="42.6515510" lon="1.4881150">
        <ele>2658.3</ele>
        <time>2021-08-09T17:04:07Z</time>
      </trkpt>
      <trkpt lat="42.6515470" lon="1.4881180">
        <ele>2658.4</ele>
        <time>2021-08-09T17:04:16Z</time>
      </trkpt>
      <trkpt lat="42.6515460" lon="1.4881190">
        <ele>2658.5</ele>
        <time>2021-08-09T17:04:17Z</time>
      </trkpt>
      <trkpt lat="42.6515730" lon="1.4881220">
        <ele>2659.3</ele>
        <time>2021-08-09T17:05:09Z</time>
      </trkpt>
      <trkpt lat="42.6515670" lon="1.4881320">
        <ele>2659.6</ele>
        <time>2021-08-09T17:05:22Z</time>
      </trkpt>
      <trkpt lat="42.6515530" lon="1.4881570">
        <ele>2660.3</ele>
        <time>2021-08-09T17:05:35Z</time>
      </trkpt>
      <trkpt lat="42.6515530" lon="1.4881570">
        <ele>2660.3</ele>
        <time>2021-08-09T17:05:36Z</time>
      </trkpt>
      <trkpt lat="42.6515530" lon="1.4881570">
        <ele>2660.3</ele>
        <time>2021-08-09T17:05:37Z</time>
      </trkpt>
      <trkpt lat="42.6515530" lon="1.4881570">
        <ele>2660.3</ele>
        <time>2021-08-09T17:05:38Z</time>
      </trkpt>
      <trkpt lat="42.6515550" lon="1.4881570">
        <ele>2660.4</ele>
        <time>2021-08-09T17:05:40Z</time>
      </trkpt>
      <trkpt lat="42.6515560" lon="1.4881570">
        <ele>2660.4</ele>
        <time>2021-08-09T17:05:41Z</time>
      </trkpt>
      <trkpt lat="42.6515560" lon="1.4881570">
        <ele>2660.4</ele>
        <time>2021-08-09T17:05:43Z</time>
      </trkpt>
      <trkpt lat="42.6515620" lon="1.4881610">
        <ele>2660.6</ele>
        <time>2021-08-09T17:05:59Z</time>
      </trkpt>
      <trkpt lat="42.6515640" lon="1.4881780">
        <ele>2661.0</ele>
        <time>2021-08-09T17:06:17Z</time>
      </trkpt>
      <trkpt lat="42.6515600" lon="1.4881810">
        <ele>2661.1</ele>
        <time>2021-08-09T17:06:35Z</time>
      </trkpt>
      <trkpt lat="42.6515650" lon="1.4881630">
        <ele>2661.6</ele>
        <time>2021-08-09T17:06:54Z</time>
      </trkpt>
      <trkpt lat="42.6515680" lon="1.4881630">
        <ele>2661.7</ele>
        <time>2021-08-09T17:07:01Z</time>
      </trkpt>
      <trkpt lat="42.6515670" lon="1.4881610">
        <ele>2661.7</ele>
        <time>2021-08-09T17:07:11Z</time>
      </trkpt>
      <trkpt lat="42.6515760" lon="1.4881450">
        <ele>2662.2</ele>
        <time>2021-08-09T17:12:43Z</time>
      </trkpt>
      <trkpt lat="42.6515840" lon="1.4880900">
        <ele>2663.5</ele>
        <time>2021-08-09T17:13:00Z</time>
      </trkpt>
      <trkpt lat="42.6515860" lon="1.4880880">
        <ele>2663.5</ele>
        <time>2021-08-09T17:13:02Z</time>
      </trkpt>
      <trkpt lat="42.6515810" lon="1.4880890">
        <ele>2663.7</ele>
        <time>2021-08-09T17:13:07Z</time>
      </trkpt>
      <trkpt lat="42.6515790" lon="1.4880940">
        <ele>2663.8</ele>
        <time>2021-08-09T17:13:10Z</time>
      </trkpt>
      <trkpt lat="42.6515810" lon="1.4880960">
        <ele>2663.9</ele>
        <time>2021-08-09T17:13:11Z</time>
      </trkpt>
      <trkpt lat="42.6515860" lon="1.4880920">
        <ele>2664.1</ele>
        <time>2021-08-09T17:13:12Z</time>
      </trkpt>
      <trkpt lat="42.6515910" lon="1.4880870">
        <ele>2664.3</ele>
        <time>2021-08-09T17:13:13Z</time>
      </trkpt>
      <trkpt lat="42.6515950" lon="1.4880850">
        <ele>2664.4</ele>
        <time>2021-08-09T17:13:14Z</time>
      </trkpt>
      <trkpt lat="42.6515980" lon="1.4880800">
        <ele>2664.5</ele>
        <time>2021-08-09T17:13:16Z</time>
      </trkpt>
      <trkpt lat="42.6516190" lon="1.4880510">
        <ele>2665.5</ele>
        <time>2021-08-09T17:13:25Z</time>
      </trkpt>
      <trkpt lat="42.6516310" lon="1.4880540">
        <ele>2665.8</ele>
        <time>2021-08-09T17:13:28Z</time>
      </trkpt>
      <trkpt lat="42.6516330" lon="1.4880560">
        <ele>2665.9</ele>
        <time>2021-08-09T17:13:30Z</time>
      </trkpt>
      <trkpt lat="42.6516350" lon="1.4880640">
        <ele>2666.1</ele>
        <time>2021-08-09T17:13:32Z</time>
      </trkpt>
      <trkpt lat="42.6516480" lon="1.4880830">
        <ele>2666.7</ele>
        <time>2021-08-09T17:13:36Z</time>
      </trkpt>
      <trkpt lat="42.6516700" lon="1.4880880">
        <ele>2667.3</ele>
        <time>2021-08-09T17:13:40Z</time>
      </trkpt>
      <trkpt lat="42.6516720" lon="1.4880850">
        <ele>2667.4</ele>
        <time>2021-08-09T17:13:41Z</time>
      </trkpt>
      <trkpt lat="42.6516710" lon="1.4880720">
        <ele>2667.7</ele>
        <time>2021-08-09T17:13:44Z</time>
      </trkpt>
      <trkpt lat="42.6516660" lon="1.4880670">
        <ele>2667.9</ele>
        <time>2021-08-09T17:13:46Z</time>
      </trkpt>
      <trkpt lat="42.6516660" lon="1.4880660">
        <ele>2667.9</ele>
        <time>2021-08-09T17:13:50Z</time>
      </trkpt>
      <trkpt lat="42.6516690" lon="1.4880670">
        <ele>2668.0</ele>
        <time>2021-08-09T17:13:52Z</time>
      </trkpt>
      <trkpt lat="42.6516740" lon="1.4880540">
        <ele>2668.3</ele>
        <time>2021-08-09T17:13:53Z</time>
      </trkpt>
      <trkpt lat="42.6516880" lon="1.4880790">
        <ele>2669.0</ele>
        <time>2021-08-09T17:14:08Z</time>
      </trkpt>
      <trkpt lat="42.6518020" lon="1.4879660">
        <ele>2672.9</ele>
        <time>2021-08-09T17:15:01Z</time>
      </trkpt>
      <trkpt lat="42.6518300" lon="1.4879290">
        <ele>2673.8</ele>
        <time>2021-08-09T17:15:14Z</time>
      </trkpt>
      <trkpt lat="42.6519210" lon="1.4880570">
        <ele>2676.3</ele>
        <time>2021-08-09T17:16:15Z</time>
      </trkpt>
      <trkpt lat="42.6519220" lon="1.4880660">
        <ele>2676.4</ele>
        <time>2021-08-09T17:16:29Z</time>
      </trkpt>
      <trkpt lat="42.6519550" lon="1.4881040">
        <ele>2676.8</ele>
        <time>2021-08-09T17:17:19Z</time>
      </trkpt>
      <trkpt lat="42.6519270" lon="1.4880850">
        <ele>2677.1</ele>
        <time>2021-08-09T17:24:21Z</time>
      </trkpt>
      <trkpt lat="42.6519210" lon="1.4880950">
        <ele>2677.2</ele>
        <time>2021-08-09T17:24:23Z</time>
      </trkpt>
      <trkpt lat="42.6519140" lon="1.4881460">
        <ele>2677.3</ele>
        <time>2021-08-09T17:24:28Z</time>
      </trkpt>
      <trkpt lat="42.6519160" lon="1.4881710">
        <ele>2677.4</ele>
        <time>2021-08-09T17:24:31Z</time>
      </trkpt>
      <trkpt lat="42.6519470" lon="1.4882090">
        <ele>2677.4</ele>
        <time>2021-08-09T17:24:50Z</time>
      </trkpt>
      <trkpt lat="42.6519610" lon="1.4882370">
        <ele>2677.4</ele>
        <time>2021-08-09T17:25:06Z</time>
      </trkpt>
      <trkpt lat="42.6520050" lon="1.4882920">
        <ele>2677.2</ele>
        <time>2021-08-09T17:25:52Z</time>
      </trkpt>
      <trkpt lat="42.6520140" lon="1.4882920">
        <ele>2677.2</ele>
        <time>2021-08-09T17:25:56Z</time>
      </trkpt>
      <trkpt lat="42.6520160" lon="1.4882680">
        <ele>2670.7</ele>
        <time>2021-08-09T17:26:05Z</time>
      </trkpt>
      <trkpt lat="42.6520060" lon="1.4882720">
        <ele>2670.2</ele>
        <time>2021-08-09T17:26:15Z</time>
      </trkpt>
      <trkpt lat="42.6520060" lon="1.4882750">
        <ele>2670.1</ele>
        <time>2021-08-09T17:26:16Z</time>
      </trkpt>
      <trkpt lat="42.6520070" lon="1.4882770">
        <ele>2670.0</ele>
        <time>2021-08-09T17:26:17Z</time>
      </trkpt>
      <trkpt lat="42.6520070" lon="1.4882800">
        <ele>2669.9</ele>
        <time>2021-08-09T17:26:18Z</time>
      </trkpt>
      <trkpt lat="42.6520360" lon="1.4882780">
        <ele>2668.6</ele>
        <time>2021-08-09T17:26:29Z</time>
      </trkpt>
      <trkpt lat="42.6520570" lon="1.4882770">
        <ele>2667.6</ele>
        <time>2021-08-09T17:26:42Z</time>
      </trkpt>
      <trkpt lat="42.6520680" lon="1.4882750">
        <ele>2667.1</ele>
        <time>2021-08-09T17:26:44Z</time>
      </trkpt>
      <trkpt lat="42.6520800" lon="1.4882690">
        <ele>2666.4</ele>
        <time>2021-08-09T17:26:46Z</time>
      </trkpt>
      <trkpt lat="42.6521080" lon="1.4882810">
        <ele>2665.1</ele>
        <time>2021-08-09T17:26:54Z</time>
      </trkpt>
      <trkpt lat="42.6521150" lon="1.4882740">
        <ele>2664.7</ele>
        <time>2021-08-09T17:26:57Z</time>
      </trkpt>
      <trkpt lat="42.6521720" lon="1.4882070">
        <ele>2661.1</ele>
        <time>2021-08-09T17:27:36Z</time>
      </trkpt>
      <trkpt lat="42.6521490" lon="1.4881890">
        <ele>2659.9</ele>
        <time>2021-08-09T17:28:00Z</time>
      </trkpt>
      <trkpt lat="42.6521680" lon="1.4881990">
        <ele>2658.9</ele>
        <time>2021-08-09T17:28:10Z</time>
      </trkpt>
      <trkpt lat="42.6521560" lon="1.4881900">
        <ele>2658.3</ele>
        <time>2021-08-09T17:28:23Z</time>
      </trkpt>
      <trkpt lat="42.6522010" lon="1.4881710">
        <ele>2656.0</ele>
        <time>2021-08-09T17:28:42Z</time>
      </trkpt>
      <trkpt lat="42.6522130" lon="1.4881770">
        <ele>2655.4</ele>
        <time>2021-08-09T17:28:46Z</time>
      </trkpt>
      <trkpt lat="42.6522440" lon="1.4881530">
        <ele>2653.8</ele>
        <time>2021-08-09T17:29:02Z</time>
      </trkpt>
      <trkpt lat="42.6522410" lon="1.4881500">
        <ele>2653.6</ele>
        <time>2021-08-09T17:29:04Z</time>
      </trkpt>
      <trkpt lat="42.6522400" lon="1.4881470">
        <ele>2653.5</ele>
        <time>2021-08-09T17:29:07Z</time>
      </trkpt>
      <trkpt lat="42.6522430" lon="1.4881500">
        <ele>2653.3</ele>
        <time>2021-08-09T17:29:09Z</time>
      </trkpt>
      <trkpt lat="42.6522440" lon="1.4881530">
        <ele>2653.2</ele>
        <time>2021-08-09T17:29:10Z</time>
      </trkpt>
      <trkpt lat="42.6522450" lon="1.4881590">
        <ele>2653.0</ele>
        <time>2021-08-09T17:29:13Z</time>
      </trkpt>
      <trkpt lat="42.6522480" lon="1.4881650">
        <ele>2652.7</ele>
        <time>2021-08-09T17:29:16Z</time>
      </trkpt>
      <trkpt lat="42.6522520" lon="1.4881650">
        <ele>2652.5</ele>
        <time>2021-08-09T17:29:17Z</time>
      </trkpt>
      <trkpt lat="42.6522540" lon="1.4881670">
        <ele>2652.4</ele>
        <time>2021-08-09T17:29:18Z</time>
      </trkpt>
      <trkpt lat="42.6522560" lon="1.4881540">
        <ele>2652.0</ele>
        <time>2021-08-09T17:29:22Z</time>
      </trkpt>
      <trkpt lat="42.6522550" lon="1.4881450">
        <ele>2651.6</ele>
        <time>2021-08-09T17:29:26Z</time>
      </trkpt>
      <trkpt lat="42.6522610" lon="1.4881390">
        <ele>2651.3</ele>
        <time>2021-08-09T17:29:30Z</time>
      </trkpt>
      <trkpt lat="42.6522640" lon="1.4881450">
        <ele>2651.0</ele>
        <time>2021-08-09T17:29:32Z</time>
      </trkpt>
      <trkpt lat="42.6522660" lon="1.4881470">
        <ele>2650.9</ele>
        <time>2021-08-09T17:29:34Z</time>
      </trkpt>
      <trkpt lat="42.6522680" lon="1.4881460">
        <ele>2650.8</ele>
        <time>2021-08-09T17:29:35Z</time>
      </trkpt>
      <trkpt lat="42.6522690" lon="1.4881460">
        <ele>2650.8</ele>
        <time>2021-08-09T17:29:36Z</time>
      </trkpt>
      <trkpt lat="42.6522810" lon="1.4881520">
        <ele>2650.2</ele>
        <time>2021-08-09T17:29:42Z</time>
      </trkpt>
      <trkpt lat="42.6522840" lon="1.4881330">
        <ele>2649.5</ele>
        <time>2021-08-09T17:29:46Z</time>
      </trkpt>
      <trkpt lat="42.6523150" lon="1.4881020">
        <ele>2647.7</ele>
        <time>2021-08-09T17:30:14Z</time>
      </trkpt>
      <trkpt lat="42.6523330" lon="1.4880760">
        <ele>2646.5</ele>
        <time>2021-08-09T17:30:22Z</time>
      </trkpt>
      <trkpt lat="42.6523180" lon="1.4880540">
        <ele>2645.4</ele>
        <time>2021-08-09T17:30:27Z</time>
      </trkpt>
      <trkpt lat="42.6523180" lon="1.4880520">
        <ele>2645.3</ele>
        <time>2021-08-09T17:30:28Z</time>
      </trkpt>
      <trkpt lat="42.6523210" lon="1.4880520">
        <ele>2645.2</ele>
        <time>2021-08-09T17:30:30Z</time>
      </trkpt>
      <trkpt lat="42.6523300" lon="1.4880340">
        <ele>2644.5</ele>
        <time>2021-08-09T17:30:38Z</time>
      </trkpt>
      <trkpt lat="42.6523970" lon="1.4880320">
        <ele>2641.3</ele>
        <time>2021-08-09T17:31:25Z</time>
      </trkpt>
      <trkpt lat="42.6524020" lon="1.4880220">
        <ele>2640.9</ele>
        <time>2021-08-09T17:31:28Z</time>
      </trkpt>
      <trkpt lat="42.6524070" lon="1.4880000">
        <ele>2640.1</ele>
        <time>2021-08-09T17:31:36Z</time>
      </trkpt>
      <trkpt lat="42.6524130" lon="1.4880040">
        <ele>2639.8</ele>
        <time>2021-08-09T17:31:39Z</time>
      </trkpt>
      <trkpt lat="42.6524140" lon="1.4880040">
        <ele>2639.7</ele>
        <time>2021-08-09T17:31:42Z</time>
      </trkpt>
      <trkpt lat="42.6524160" lon="1.4880050">
        <ele>2639.6</ele>
        <time>2021-08-09T17:31:43Z</time>
      </trkpt>
      <trkpt lat="42.6524340" lon="1.4880080">
        <ele>2638.8</ele>
        <time>2021-08-09T17:31:56Z</time>
      </trkpt>
      <trkpt lat="42.6524350" lon="1.4880220">
        <ele>2638.3</ele>
        <time>2021-08-09T17:32:09Z</time>
      </trkpt>
      <trkpt lat="42.6524380" lon="1.4880240">
        <ele>2638.1</ele>
        <time>2021-08-09T17:32:11Z</time>
      </trkpt>
      <trkpt lat="42.6524370" lon="1.4880240">
        <ele>2638.1</ele>
        <time>2021-08-09T17:32:12Z</time>
      </trkpt>
      <trkpt lat="42.6524360" lon="1.4880200">
        <ele>2637.9</ele>
        <time>2021-08-09T17:32:15Z</time>
      </trkpt>
      <trkpt lat="42.6524360" lon="1.4880180">
        <ele>2637.9</ele>
        <time>2021-08-09T17:32:17Z</time>
      </trkpt>
      <trkpt lat="42.6524380" lon="1.4880270">
        <ele>2637.5</ele>
        <time>2021-08-09T17:32:20Z</time>
      </trkpt>
      <trkpt lat="42.6524400" lon="1.4880280">
        <ele>2637.4</ele>
        <time>2021-08-09T17:32:22Z</time>
      </trkpt>
      <trkpt lat="42.6524440" lon="1.4880290">
        <ele>2637.2</ele>
        <time>2021-08-09T17:32:24Z</time>
      </trkpt>
      <trkpt lat="42.6524830" lon="1.4880710">
        <ele>2634.9</ele>
        <time>2021-08-09T17:32:45Z</time>
      </trkpt>
      <trkpt lat="42.6525450" lon="1.4879880">
        <ele>2630.8</ele>
        <time>2021-08-09T17:33:02Z</time>
      </trkpt>
      <trkpt lat="42.6525480" lon="1.4880000">
        <ele>2630.4</ele>
        <time>2021-08-09T17:33:15Z</time>
      </trkpt>
      <trkpt lat="42.6526240" lon="1.4879670">
        <ele>2626.6</ele>
        <time>2021-08-09T17:33:39Z</time>
      </trkpt>
      <trkpt lat="42.6527250" lon="1.4879380">
        <ele>2621.8</ele>
        <time>2021-08-09T17:34:19Z</time>
      </trkpt>
      <trkpt lat="42.6527050" lon="1.4879270">
        <ele>2620.7</ele>
        <time>2021-08-09T17:34:25Z</time>
      </trkpt>
      <trkpt lat="42.6526930" lon="1.4879210">
        <ele>2620.1</ele>
        <time>2021-08-09T17:34:29Z</time>
      </trkpt>
      <trkpt lat="42.6526920" lon="1.4879260">
        <ele>2620.0</ele>
        <time>2021-08-09T17:34:30Z</time>
      </trkpt>
      <trkpt lat="42.6526910" lon="1.4879290">
        <ele>2619.9</ele>
        <time>2021-08-09T17:34:31Z</time>
      </trkpt>
      <trkpt lat="42.6526920" lon="1.4879300">
        <ele>2619.8</ele>
        <time>2021-08-09T17:34:32Z</time>
      </trkpt>
      <trkpt lat="42.6526940" lon="1.4879300">
        <ele>2619.7</ele>
        <time>2021-08-09T17:34:33Z</time>
      </trkpt>
      <trkpt lat="42.6526940" lon="1.4879280">
        <ele>2619.6</ele>
        <time>2021-08-09T17:34:34Z</time>
      </trkpt>
      <trkpt lat="42.6526940" lon="1.4879260">
        <ele>2619.6</ele>
        <time>2021-08-09T17:34:35Z</time>
      </trkpt>
      <trkpt lat="42.6526920" lon="1.4879200">
        <ele>2619.3</ele>
        <time>2021-08-09T17:34:36Z</time>
      </trkpt>
      <trkpt lat="42.6526900" lon="1.4879160">
        <ele>2619.2</ele>
        <time>2021-08-09T17:34:37Z</time>
      </trkpt>
      <trkpt lat="42.6526860" lon="1.4879110">
        <ele>2618.9</ele>
        <time>2021-08-09T17:34:39Z</time>
      </trkpt>
      <trkpt lat="42.6526820" lon="1.4879060">
        <ele>2618.7</ele>
        <time>2021-08-09T17:34:40Z</time>
      </trkpt>
      <trkpt lat="42.6526680" lon="1.4878640">
        <ele>2617.1</ele>
        <time>2021-08-09T17:34:47Z</time>
      </trkpt>
      <trkpt lat="42.6526520" lon="1.4878540">
        <ele>2616.2</ele>
        <time>2021-08-09T17:34:55Z</time>
      </trkpt>
      <trkpt lat="42.6526530" lon="1.4878810">
        <ele>2615.3</ele>
        <time>2021-08-09T17:35:04Z</time>
      </trkpt>
      <trkpt lat="42.6526720" lon="1.4879070">
        <ele>2614.0</ele>
        <time>2021-08-09T17:35:14Z</time>
      </trkpt>
      <trkpt lat="42.6526710" lon="1.4878950">
        <ele>2613.6</ele>
        <time>2021-08-09T17:35:27Z</time>
      </trkpt>
      <trkpt lat="42.6526910" lon="1.4878800">
        <ele>2612.5</ele>
        <time>2021-08-09T17:35:45Z</time>
      </trkpt>
      <trkpt lat="42.6527030" lon="1.4878940">
        <ele>2611.8</ele>
        <time>2021-08-09T17:36:01Z</time>
      </trkpt>
      <trkpt lat="42.6527150" lon="1.4879320">
        <ele>2610.4</ele>
        <time>2021-08-09T17:36:08Z</time>
      </trkpt>
      <trkpt lat="42.6527590" lon="1.4879660">
        <ele>2608.0</ele>
        <time>2021-08-09T17:36:19Z</time>
      </trkpt>
      <trkpt lat="42.6527520" lon="1.4879580">
        <ele>2607.5</ele>
        <time>2021-08-09T17:36:22Z</time>
      </trkpt>
      <trkpt lat="42.6527500" lon="1.4879500">
        <ele>2607.3</ele>
        <time>2021-08-09T17:36:24Z</time>
      </trkpt>
      <trkpt lat="42.6527490" lon="1.4879460">
        <ele>2607.1</ele>
        <time>2021-08-09T17:36:29Z</time>
      </trkpt>
      <trkpt lat="42.6527500" lon="1.4879440">
        <ele>2607.0</ele>
        <time>2021-08-09T17:36:30Z</time>
      </trkpt>
      <trkpt lat="42.6527460" lon="1.4879420">
        <ele>2606.8</ele>
        <time>2021-08-09T17:36:31Z</time>
      </trkpt>
      <trkpt lat="42.6527440" lon="1.4879390">
        <ele>2606.7</ele>
        <time>2021-08-09T17:36:32Z</time>
      </trkpt>
      <trkpt lat="42.6527330" lon="1.4879330">
        <ele>2606.1</ele>
        <time>2021-08-09T17:36:38Z</time>
      </trkpt>
      <trkpt lat="42.6527220" lon="1.4879230">
        <ele>2605.5</ele>
        <time>2021-08-09T17:36:40Z</time>
      </trkpt>
      <trkpt lat="42.6527180" lon="1.4879190">
        <ele>2605.3</ele>
        <time>2021-08-09T17:36:42Z</time>
      </trkpt>
      <trkpt lat="42.6527200" lon="1.4879160">
        <ele>2605.1</ele>
        <time>2021-08-09T17:36:43Z</time>
      </trkpt>
      <trkpt lat="42.6527270" lon="1.4879060">
        <ele>2604.7</ele>
        <time>2021-08-09T17:36:46Z</time>
      </trkpt>
      <trkpt lat="42.6527300" lon="1.4879040">
        <ele>2604.5</ele>
        <time>2021-08-09T17:36:47Z</time>
      </trkpt>
      <trkpt lat="42.6527290" lon="1.4878850">
        <ele>2603.8</ele>
        <time>2021-08-09T17:36:54Z</time>
      </trkpt>
      <trkpt lat="42.6527350" lon="1.4878950">
        <ele>2603.4</ele>
        <time>2021-08-09T17:36:56Z</time>
      </trkpt>
      <trkpt lat="42.6527350" lon="1.4879000">
        <ele>2603.2</ele>
        <time>2021-08-09T17:36:57Z</time>
      </trkpt>
      <trkpt lat="42.6527550" lon="1.4878750">
        <ele>2601.9</ele>
        <time>2021-08-09T17:37:19Z</time>
      </trkpt>
      <trkpt lat="42.6527680" lon="1.4878420">
        <ele>2600.6</ele>
        <time>2021-08-09T17:37:30Z</time>
      </trkpt>
      <trkpt lat="42.6527750" lon="1.4878340">
        <ele>2600.2</ele>
        <time>2021-08-09T17:37:33Z</time>
      </trkpt>
      <trkpt lat="42.6527990" lon="1.4877850">
        <ele>2598.2</ele>
        <time>2021-08-09T17:37:44Z</time>
      </trkpt>
      <trkpt lat="42.6527960" lon="1.4877810">
        <ele>2598.0</ele>
        <time>2021-08-09T17:37:47Z</time>
      </trkpt>
      <trkpt lat="42.6528100" lon="1.4877480">
        <ele>2596.7</ele>
        <time>2021-08-09T17:38:01Z</time>
      </trkpt>
      <trkpt lat="42.6528030" lon="1.4877670">
        <ele>2595.9</ele>
        <time>2021-08-09T17:38:20Z</time>
      </trkpt>
      <trkpt lat="42.6528030" lon="1.4877860">
        <ele>2595.3</ele>
        <time>2021-08-09T17:38:25Z</time>
      </trkpt>
      <trkpt lat="42.6528430" lon="1.4878660">
        <ele>2591.9</ele>
        <time>2021-08-09T17:38:42Z</time>
      </trkpt>
      <trkpt lat="42.6528430" lon="1.4878670">
        <ele>2591.9</ele>
        <time>2021-08-09T17:38:43Z</time>
      </trkpt>
      <trkpt lat="42.6528410" lon="1.4878670">
        <ele>2591.8</ele>
        <time>2021-08-09T17:38:44Z</time>
      </trkpt>
      <trkpt lat="42.6528440" lon="1.4878680">
        <ele>2591.6</ele>
        <time>2021-08-09T17:38:45Z</time>
      </trkpt>
      <trkpt lat="42.6528520" lon="1.4878620">
        <ele>2591.2</ele>
        <time>2021-08-09T17:38:47Z</time>
      </trkpt>
      <trkpt lat="42.6528450" lon="1.4878590">
        <ele>2590.9</ele>
        <time>2021-08-09T17:38:52Z</time>
      </trkpt>
      <trkpt lat="42.6528530" lon="1.4878570">
        <ele>2590.5</ele>
        <time>2021-08-09T17:38:56Z</time>
      </trkpt>
      <trkpt lat="42.6528620" lon="1.4878680">
        <ele>2589.9</ele>
        <time>2021-08-09T17:39:00Z</time>
      </trkpt>
      <trkpt lat="42.6528710" lon="1.4878770">
        <ele>2589.4</ele>
        <time>2021-08-09T17:39:03Z</time>
      </trkpt>
      <trkpt lat="42.6528780" lon="1.4878830">
        <ele>2589.0</ele>
        <time>2021-08-09T17:39:04Z</time>
      </trkpt>
      <trkpt lat="42.6528830" lon="1.4878820">
        <ele>2588.8</ele>
        <time>2021-08-09T17:39:05Z</time>
      </trkpt>
      <trkpt lat="42.6528920" lon="1.4878760">
        <ele>2588.3</ele>
        <time>2021-08-09T17:39:07Z</time>
      </trkpt>
      <trkpt lat="42.6529140" lon="1.4878660">
        <ele>2587.2</ele>
        <time>2021-08-09T17:39:10Z</time>
      </trkpt>
      <trkpt lat="42.6529260" lon="1.4878680">
        <ele>2586.6</ele>
        <time>2021-08-09T17:39:13Z</time>
      </trkpt>
      <trkpt lat="42.6529370" lon="1.4878540">
        <ele>2585.9</ele>
        <time>2021-08-09T17:39:16Z</time>
      </trkpt>
      <trkpt lat="42.6529380" lon="1.4878470">
        <ele>2585.7</ele>
        <time>2021-08-09T17:39:17Z</time>
      </trkpt>
      <trkpt lat="42.6529470" lon="1.4878300">
        <ele>2585.0</ele>
        <time>2021-08-09T17:39:20Z</time>
      </trkpt>
      <trkpt lat="42.6529470" lon="1.4878300">
        <ele>2585.0</ele>
        <time>2021-08-09T17:39:24Z</time>
      </trkpt>
      <trkpt lat="42.6529460" lon="1.4878330">
        <ele>2584.8</ele>
        <time>2021-08-09T17:39:28Z</time>
      </trkpt>
      <trkpt lat="42.6529440" lon="1.4878310">
        <ele>2584.7</ele>
        <time>2021-08-09T17:39:29Z</time>
      </trkpt>
      <trkpt lat="42.6529560" lon="1.4878800">
        <ele>2582.9</ele>
        <time>2021-08-09T17:39:44Z</time>
      </trkpt>
      <trkpt lat="42.6529690" lon="1.4879100">
        <ele>2581.7</ele>
        <time>2021-08-09T17:39:48Z</time>
      </trkpt>
      <trkpt lat="42.6530090" lon="1.4878900">
        <ele>2579.7</ele>
        <time>2021-08-09T17:39:57Z</time>
      </trkpt>
      <trkpt lat="42.6531680" lon="1.4879350">
        <ele>2572.1</ele>
        <time>2021-08-09T17:40:35Z</time>
      </trkpt>
      <trkpt lat="42.6532580" lon="1.4878050">
        <ele>2565.9</ele>
        <time>2021-08-09T17:41:12Z</time>
      </trkpt>
      <trkpt lat="42.6533410" lon="1.4878310">
        <ele>2561.9</ele>
        <time>2021-08-09T17:41:35Z</time>
      </trkpt>
      <trkpt lat="42.6535030" lon="1.4878290">
        <ele>2554.3</ele>
        <time>2021-08-09T17:42:13Z</time>
      </trkpt>
      <trkpt lat="42.6535980" lon="1.4876650">
        <ele>2547.0</ele>
        <time>2021-08-09T17:42:47Z</time>
      </trkpt>
      <trkpt lat="42.6537370" lon="1.4875610">
        <ele>2539.6</ele>
        <time>2021-08-09T17:43:28Z</time>
      </trkpt>
      <trkpt lat="42.6537470" lon="1.4875650">
        <ele>2539.1</ele>
        <time>2021-08-09T17:43:30Z</time>
      </trkpt>
      <trkpt lat="42.6538490" lon="1.4874310">
        <ele>2532.4</ele>
        <time>2021-08-09T17:44:09Z</time>
      </trkpt>
      <trkpt lat="42.6539530" lon="1.4873950">
        <ele>2527.4</ele>
        <time>2021-08-09T17:44:31Z</time>
      </trkpt>
      <trkpt lat="42.6540660" lon="1.4875140">
        <ele>2520.6</ele>
        <time>2021-08-09T17:44:49Z</time>
      </trkpt>
      <trkpt lat="42.6541350" lon="1.4873640">
        <ele>2514.5</ele>
        <time>2021-08-09T17:45:23Z</time>
      </trkpt>
      <trkpt lat="42.6542430" lon="1.4872480">
        <ele>2508.0</ele>
        <time>2021-08-09T17:45:50Z</time>
      </trkpt>
      <trkpt lat="42.6542600" lon="1.4872140">
        <ele>2506.6</ele>
        <time>2021-08-09T17:45:56Z</time>
      </trkpt>
      <trkpt lat="42.6542810" lon="1.4872000">
        <ele>2505.5</ele>
        <time>2021-08-09T17:45:59Z</time>
      </trkpt>
      <trkpt lat="42.6542860" lon="1.4871910">
        <ele>2505.1</ele>
        <time>2021-08-09T17:46:00Z</time>
      </trkpt>
      <trkpt lat="42.6542860" lon="1.4871820">
        <ele>2504.8</ele>
        <time>2021-08-09T17:46:01Z</time>
      </trkpt>
      <trkpt lat="42.6542960" lon="1.4871540">
        <ele>2503.8</ele>
        <time>2021-08-09T17:46:05Z</time>
      </trkpt>
      <trkpt lat="42.6544260" lon="1.4870660">
        <ele>2501.9</ele>
        <time>2021-08-09T17:46:43Z</time>
      </trkpt>
      <trkpt lat="42.6545230" lon="1.4870700">
        <ele>2500.8</ele>
        <time>2021-08-09T17:47:09Z</time>
      </trkpt>
      <trkpt lat="42.6545320" lon="1.4870460">
        <ele>2500.5</ele>
        <time>2021-08-09T17:47:13Z</time>
      </trkpt>
      <trkpt lat="42.6546830" lon="1.4869880">
        <ele>2498.7</ele>
        <time>2021-08-09T17:47:57Z</time>
      </trkpt>
      <trkpt lat="42.6546860" lon="1.4869580">
        <ele>2498.4</ele>
        <time>2021-08-09T17:48:00Z</time>
      </trkpt>
      <trkpt lat="42.6546820" lon="1.4869470">
        <ele>2498.3</ele>
        <time>2021-08-09T17:48:01Z</time>
      </trkpt>
      <trkpt lat="42.6547020" lon="1.4867130">
        <ele>2496.3</ele>
        <time>2021-08-09T17:48:33Z</time>
      </trkpt>
      <trkpt lat="42.6547640" lon="1.4866790">
        <ele>2495.5</ele>
        <time>2021-08-09T17:48:49Z</time>
      </trkpt>
      <trkpt lat="42.6547930" lon="1.4865740">
        <ele>2494.5</ele>
        <time>2021-08-09T17:49:08Z</time>
      </trkpt>
      <trkpt lat="42.6548160" lon="1.4865370">
        <ele>2494.1</ele>
        <time>2021-08-09T17:49:17Z</time>
      </trkpt>
      <trkpt lat="42.6549120" lon="1.4864630">
        <ele>2492.8</ele>
        <time>2021-08-09T17:49:59Z</time>
      </trkpt>
      <trkpt lat="42.6549300" lon="1.4863690">
        <ele>2491.9</ele>
        <time>2021-08-09T17:50:22Z</time>
      </trkpt>
      <trkpt lat="42.6549410" lon="1.4863440">
        <ele>2491.7</ele>
        <time>2021-08-09T17:50:27Z</time>
      </trkpt>
      <trkpt lat="42.6549630" lon="1.4862750">
        <ele>2491.0</ele>
        <time>2021-08-09T17:50:46Z</time>
      </trkpt>
      <trkpt lat="42.6549700" lon="1.4861670">
        <ele>2490.1</ele>
        <time>2021-08-09T17:51:08Z</time>
      </trkpt>
      <trkpt lat="42.6549950" lon="1.4861500">
        <ele>2489.8</ele>
        <time>2021-08-09T17:51:16Z</time>
      </trkpt>
      <trkpt lat="42.6550140" lon="1.4861080">
        <ele>2489.3</ele>
        <time>2021-08-09T17:51:24Z</time>
      </trkpt>
      <trkpt lat="42.6552000" lon="1.4860890">
        <ele>2487.1</ele>
        <time>2021-08-09T17:51:56Z</time>
      </trkpt>
      <trkpt lat="42.6552250" lon="1.4861020">
        <ele>2486.8</ele>
        <time>2021-08-09T17:52:02Z</time>
      </trkpt>
      <trkpt lat="42.6553050" lon="1.4860770">
        <ele>2485.9</ele>
        <time>2021-08-09T17:52:18Z</time>
      </trkpt>
      <trkpt lat="42.6553150" lon="1.4860780">
        <ele>2485.7</ele>
        <time>2021-08-09T17:52:19Z</time>
      </trkpt>
      <trkpt lat="42.6553210" lon="1.4860770">
        <ele>2485.7</ele>
        <time>2021-08-09T17:52:20Z</time>
      </trkpt>
      <trkpt lat="42.6553250" lon="1.4860710">
        <ele>2485.6</ele>
        <time>2021-08-09T17:52:21Z</time>
      </trkpt>
      <trkpt lat="42.6553280" lon="1.4860680">
        <ele>2485.6</ele>
        <time>2021-08-09T17:52:22Z</time>
      </trkpt>
      <trkpt lat="42.6553300" lon="1.4860710">
        <ele>2485.5</ele>
        <time>2021-08-09T17:52:23Z</time>
      </trkpt>
      <trkpt lat="42.6553330" lon="1.4860760">
        <ele>2485.5</ele>
        <time>2021-08-09T17:52:25Z</time>
      </trkpt>
      <trkpt lat="42.6553320" lon="1.4860780">
        <ele>2485.4</ele>
        <time>2021-08-09T17:52:26Z</time>
      </trkpt>
      <trkpt lat="42.6553290" lon="1.4860780">
        <ele>2485.4</ele>
        <time>2021-08-09T17:52:28Z</time>
      </trkpt>
      <trkpt lat="42.6553280" lon="1.4860800">
        <ele>2485.4</ele>
        <time>2021-08-09T17:52:29Z</time>
      </trkpt>
      <trkpt lat="42.6553310" lon="1.4860920">
        <ele>2485.3</ele>
        <time>2021-08-09T17:52:34Z</time>
      </trkpt>
      <trkpt lat="42.6553350" lon="1.4860850">
        <ele>2485.2</ele>
        <time>2021-08-09T17:52:36Z</time>
      </trkpt>
      <trkpt lat="42.6553430" lon="1.4860960">
        <ele>2485.1</ele>
        <time>2021-08-09T17:52:40Z</time>
      </trkpt>
      <trkpt lat="42.6553500" lon="1.4861050">
        <ele>2485.0</ele>
        <time>2021-08-09T17:52:44Z</time>
      </trkpt>
      <trkpt lat="42.6553560" lon="1.4861030">
        <ele>2484.9</ele>
        <time>2021-08-09T17:52:45Z</time>
      </trkpt>
      <trkpt lat="42.6553640" lon="1.4861030">
        <ele>2484.8</ele>
        <time>2021-08-09T17:52:47Z</time>
      </trkpt>
      <trkpt lat="42.6553760" lon="1.4860970">
        <ele>2484.6</ele>
        <time>2021-08-09T17:52:50Z</time>
      </trkpt>
      <trkpt lat="42.6553790" lon="1.4860930">
        <ele>2484.6</ele>
        <time>2021-08-09T17:52:51Z</time>
      </trkpt>
      <trkpt lat="42.6553870" lon="1.4860920">
        <ele>2484.5</ele>
        <time>2021-08-09T17:52:52Z</time>
      </trkpt>
      <trkpt lat="42.6554160" lon="1.4860920">
        <ele>2484.1</ele>
        <time>2021-08-09T17:52:57Z</time>
      </trkpt>
      <trkpt lat="42.6554500" lon="1.4860880">
        <ele>2483.7</ele>
        <time>2021-08-09T17:53:02Z</time>
      </trkpt>
      <trkpt lat="42.6556240" lon="1.4860250">
        <ele>2481.6</ele>
        <time>2021-08-09T17:53:33Z</time>
      </trkpt>
      <trkpt lat="42.6556450" lon="1.4860270">
        <ele>2481.4</ele>
        <time>2021-08-09T17:53:37Z</time>
      </trkpt>
      <trkpt lat="42.6556400" lon="1.4859570">
        <ele>2480.8</ele>
        <time>2021-08-09T18:00:55Z</time>
      </trkpt>
      <trkpt lat="42.6556880" lon="1.4859360">
        <ele>2480.2</ele>
        <time>2021-08-09T18:01:06Z</time>
      </trkpt>
      <trkpt lat="42.6557520" lon="1.4859320">
        <ele>2479.4</ele>
        <time>2021-08-09T18:01:13Z</time>
      </trkpt>
      <trkpt lat="42.6557780" lon="1.4859230">
        <ele>2479.1</ele>
        <time>2021-08-09T18:01:16Z</time>
      </trkpt>
      <trkpt lat="42.6557860" lon="1.4859200">
        <ele>2479.0</ele>
        <time>2021-08-09T18:01:17Z</time>
      </trkpt>
      <trkpt lat="42.6558130" lon="1.4859060">
        <ele>2478.7</ele>
        <time>2021-08-09T18:01:20Z</time>
      </trkpt>
      <trkpt lat="42.6558190" lon="1.4859020">
        <ele>2478.6</ele>
        <time>2021-08-09T18:01:21Z</time>
      </trkpt>
      <trkpt lat="42.6558230" lon="1.4858960">
        <ele>2478.5</ele>
        <time>2021-08-09T18:01:22Z</time>
      </trkpt>
      <trkpt lat="42.6558250" lon="1.4858890">
        <ele>2478.4</ele>
        <time>2021-08-09T18:01:23Z</time>
      </trkpt>
      <trkpt lat="42.6558080" lon="1.4858670">
        <ele>2478.2</ele>
        <time>2021-08-09T18:01:28Z</time>
      </trkpt>
      <trkpt lat="42.6557950" lon="1.4858220">
        <ele>2477.8</ele>
        <time>2021-08-09T18:01:32Z</time>
      </trkpt>
      <trkpt lat="42.6557870" lon="1.4858040">
        <ele>2477.6</ele>
        <time>2021-08-09T18:01:34Z</time>
      </trkpt>
      <trkpt lat="42.6557850" lon="1.4857940">
        <ele>2477.5</ele>
        <time>2021-08-09T18:01:35Z</time>
      </trkpt>
      <trkpt lat="42.6557730" lon="1.4857300">
        <ele>2476.9</ele>
        <time>2021-08-09T18:01:43Z</time>
      </trkpt>
      <trkpt lat="42.6557730" lon="1.4857220">
        <ele>2476.8</ele>
        <time>2021-08-09T18:01:44Z</time>
      </trkpt>
      <trkpt lat="42.6557730" lon="1.4857150">
        <ele>2476.8</ele>
        <time>2021-08-09T18:01:45Z</time>
      </trkpt>
      <trkpt lat="42.6557750" lon="1.4857060">
        <ele>2476.7</ele>
        <time>2021-08-09T18:01:46Z</time>
      </trkpt>
      <trkpt lat="42.6557790" lon="1.4856960">
        <ele>2476.6</ele>
        <time>2021-08-09T18:01:47Z</time>
      </trkpt>
      <trkpt lat="42.6558070" lon="1.4856370">
        <ele>2476.0</ele>
        <time>2021-08-09T18:01:57Z</time>
      </trkpt>
      <trkpt lat="42.6558180" lon="1.4856190">
        <ele>2475.8</ele>
        <time>2021-08-09T18:02:00Z</time>
      </trkpt>
      <trkpt lat="42.6558540" lon="1.4855530">
        <ele>2475.1</ele>
        <time>2021-08-09T18:02:09Z</time>
      </trkpt>
      <trkpt lat="42.6560230" lon="1.4854490">
        <ele>2472.9</ele>
        <time>2021-08-09T18:02:32Z</time>
      </trkpt>
      <trkpt lat="42.6560480" lon="1.4854210">
        <ele>2472.5</ele>
        <time>2021-08-09T18:02:36Z</time>
      </trkpt>
      <trkpt lat="42.6562060" lon="1.4852940">
        <ele>2470.3</ele>
        <time>2021-08-09T18:03:01Z</time>
      </trkpt>
      <trkpt lat="42.6562980" lon="1.4852270">
        <ele>2469.1</ele>
        <time>2021-08-09T18:03:17Z</time>
      </trkpt>
      <trkpt lat="42.6563070" lon="1.4852170">
        <ele>2469.0</ele>
        <time>2021-08-09T18:03:22Z</time>
      </trkpt>
      <trkpt lat="42.6562870" lon="1.4852030">
        <ele>2468.7</ele>
        <time>2021-08-09T18:03:56Z</time>
      </trkpt>
      <trkpt lat="42.6563000" lon="1.4852280">
        <ele>2468.4</ele>
        <time>2021-08-09T18:04:08Z</time>
      </trkpt>
      <trkpt lat="42.6563140" lon="1.4852450">
        <ele>2468.2</ele>
        <time>2021-08-09T18:04:29Z</time>
      </trkpt>
      <trkpt lat="42.6563180" lon="1.4852540">
        <ele>2468.1</ele>
        <time>2021-08-09T18:04:33Z</time>
      </trkpt>
      <trkpt lat="42.6563200" lon="1.4852820">
        <ele>2467.9</ele>
        <time>2021-08-09T18:04:42Z</time>
      </trkpt>
      <trkpt lat="42.6563410" lon="1.4853040">
        <ele>2467.6</ele>
        <time>2021-08-09T18:04:48Z</time>
      </trkpt>
      <trkpt lat="42.6563420" lon="1.4853050">
        <ele>2467.6</ele>
        <time>2021-08-09T18:04:52Z</time>
      </trkpt>
      <trkpt lat="42.6564010" lon="1.4853010">
        <ele>2466.9</ele>
        <time>2021-08-09T18:05:13Z</time>
      </trkpt>
      <trkpt lat="42.6564460" lon="1.4853130">
        <ele>2466.3</ele>
        <time>2021-08-09T18:05:18Z</time>
      </trkpt>
      <trkpt lat="42.6564590" lon="1.4853170">
        <ele>2466.2</ele>
        <time>2021-08-09T18:05:19Z</time>
      </trkpt>
      <trkpt lat="42.6564910" lon="1.4853220">
        <ele>2465.8</ele>
        <time>2021-08-09T18:05:22Z</time>
      </trkpt>
      <trkpt lat="42.6565220" lon="1.4853250">
        <ele>2465.4</ele>
        <time>2021-08-09T18:05:25Z</time>
      </trkpt>
      <trkpt lat="42.6565820" lon="1.4853420">
        <ele>2464.7</ele>
        <time>2021-08-09T18:05:30Z</time>
      </trkpt>
      <trkpt lat="42.6565960" lon="1.4853450">
        <ele>2464.5</ele>
        <time>2021-08-09T18:05:31Z</time>
      </trkpt>
      <trkpt lat="42.6566080" lon="1.4853430">
        <ele>2464.4</ele>
        <time>2021-08-09T18:05:32Z</time>
      </trkpt>
      <trkpt lat="42.6566180" lon="1.4853440">
        <ele>2464.3</ele>
        <time>2021-08-09T18:05:33Z</time>
      </trkpt>
      <trkpt lat="42.6566300" lon="1.4853430">
        <ele>2464.1</ele>
        <time>2021-08-09T18:05:34Z</time>
      </trkpt>
      <trkpt lat="42.6566560" lon="1.4853480">
        <ele>2463.8</ele>
        <time>2021-08-09T18:05:36Z</time>
      </trkpt>
      <trkpt lat="42.6566660" lon="1.4853480">
        <ele>2463.7</ele>
        <time>2021-08-09T18:05:37Z</time>
      </trkpt>
      <trkpt lat="42.6566780" lon="1.4853470">
        <ele>2463.6</ele>
        <time>2021-08-09T18:05:38Z</time>
      </trkpt>
      <trkpt lat="42.6567590" lon="1.4853680">
        <ele>2462.6</ele>
        <time>2021-08-09T18:05:51Z</time>
      </trkpt>
      <trkpt lat="42.6567660" lon="1.4853680">
        <ele>2462.5</ele>
        <time>2021-08-09T18:05:53Z</time>
      </trkpt>
      <trkpt lat="42.6567700" lon="1.4853690">
        <ele>2462.5</ele>
        <time>2021-08-09T18:05:54Z</time>
      </trkpt>
      <trkpt lat="42.6567760" lon="1.4853690">
        <ele>2462.4</ele>
        <time>2021-08-09T18:05:55Z</time>
      </trkpt>
      <trkpt lat="42.6567800" lon="1.4853700">
        <ele>2462.3</ele>
        <time>2021-08-09T18:05:56Z</time>
      </trkpt>
      <trkpt lat="42.6567850" lon="1.4853700">
        <ele>2462.3</ele>
        <time>2021-08-09T18:05:57Z</time>
      </trkpt>
      <trkpt lat="42.6567900" lon="1.4853670">
        <ele>2462.2</ele>
        <time>2021-08-09T18:05:58Z</time>
      </trkpt>
      <trkpt lat="42.6567950" lon="1.4853610">
        <ele>2462.1</ele>
        <time>2021-08-09T18:05:59Z</time>
      </trkpt>
      <trkpt lat="42.6568000" lon="1.4853580">
        <ele>2462.1</ele>
        <time>2021-08-09T18:06:00Z</time>
      </trkpt>
      <trkpt lat="42.6568080" lon="1.4853570">
        <ele>2462.0</ele>
        <time>2021-08-09T18:06:01Z</time>
      </trkpt>
      <trkpt lat="42.6568720" lon="1.4853490">
        <ele>2461.2</ele>
        <time>2021-08-09T18:06:08Z</time>
      </trkpt>
      <trkpt lat="42.6568960" lon="1.4853350">
        <ele>2460.9</ele>
        <time>2021-08-09T18:06:11Z</time>
      </trkpt>
      <trkpt lat="42.6569020" lon="1.4853300">
        <ele>2460.8</ele>
        <time>2021-08-09T18:06:12Z</time>
      </trkpt>
      <trkpt lat="42.6569270" lon="1.4853120">
        <ele>2460.5</ele>
        <time>2021-08-09T18:06:16Z</time>
      </trkpt>
      <trkpt lat="42.6569330" lon="1.4853070">
        <ele>2460.4</ele>
        <time>2021-08-09T18:06:17Z</time>
      </trkpt>
      <trkpt lat="42.6569500" lon="1.4853000">
        <ele>2460.2</ele>
        <time>2021-08-09T18:06:19Z</time>
      </trkpt>
      <trkpt lat="42.6569580" lon="1.4852970">
        <ele>2460.1</ele>
        <time>2021-08-09T18:06:20Z</time>
      </trkpt>
      <trkpt lat="42.6569670" lon="1.4852950">
        <ele>2460.0</ele>
        <time>2021-08-09T18:06:21Z</time>
      </trkpt>
      <trkpt lat="42.6570020" lon="1.4852860">
        <ele>2459.6</ele>
        <time>2021-08-09T18:06:25Z</time>
      </trkpt>
      <trkpt lat="42.6570390" lon="1.4852880">
        <ele>2459.1</ele>
        <time>2021-08-09T18:06:29Z</time>
      </trkpt>
      <trkpt lat="42.6570650" lon="1.4852820">
        <ele>2458.8</ele>
        <time>2021-08-09T18:06:32Z</time>
      </trkpt>
      <trkpt lat="42.6571070" lon="1.4852670">
        <ele>2458.3</ele>
        <time>2021-08-09T18:06:37Z</time>
      </trkpt>
      <trkpt lat="42.6571270" lon="1.4852680">
        <ele>2458.1</ele>
        <time>2021-08-09T18:06:39Z</time>
      </trkpt>
      <trkpt lat="42.6571520" lon="1.4852650">
        <ele>2457.8</ele>
        <time>2021-08-09T18:06:42Z</time>
      </trkpt>
      <trkpt lat="42.6571700" lon="1.4852650">
        <ele>2457.6</ele>
        <time>2021-08-09T18:06:44Z</time>
      </trkpt>
      <trkpt lat="42.6571780" lon="1.4852640">
        <ele>2457.5</ele>
        <time>2021-08-09T18:06:45Z</time>
      </trkpt>
      <trkpt lat="42.6571880" lon="1.4852650">
        <ele>2457.4</ele>
        <time>2021-08-09T18:06:46Z</time>
      </trkpt>
      <trkpt lat="42.6572010" lon="1.4852640">
        <ele>2457.2</ele>
        <time>2021-08-09T18:06:47Z</time>
      </trkpt>
      <trkpt lat="42.6572160" lon="1.4852650">
        <ele>2457.0</ele>
        <time>2021-08-09T18:06:48Z</time>
      </trkpt>
      <trkpt lat="42.6572400" lon="1.4852620">
        <ele>2456.7</ele>
        <time>2021-08-09T18:06:50Z</time>
      </trkpt>
      <trkpt lat="42.6572950" lon="1.4852640">
        <ele>2456.1</ele>
        <time>2021-08-09T18:06:55Z</time>
      </trkpt>
      <trkpt lat="42.6573150" lon="1.4852660">
        <ele>2455.9</ele>
        <time>2021-08-09T18:06:57Z</time>
      </trkpt>
      <trkpt lat="42.6574260" lon="1.4852650">
        <ele>2454.5</ele>
        <time>2021-08-09T18:07:08Z</time>
      </trkpt>
      <trkpt lat="42.6574650" lon="1.4852420">
        <ele>2454.0</ele>
        <time>2021-08-09T18:07:12Z</time>
      </trkpt>
      <trkpt lat="42.6574960" lon="1.4852340">
        <ele>2453.7</ele>
        <time>2021-08-09T18:07:15Z</time>
      </trkpt>
      <trkpt lat="42.6575670" lon="1.4852280">
        <ele>2452.8</ele>
        <time>2021-08-09T18:07:23Z</time>
      </trkpt>
      <trkpt lat="42.6576010" lon="1.4851670">
        <ele>2452.2</ele>
        <time>2021-08-09T18:07:28Z</time>
      </trkpt>
      <trkpt lat="42.6576100" lon="1.4851160">
        <ele>2451.7</ele>
        <time>2021-08-09T18:07:32Z</time>
      </trkpt>
      <trkpt lat="42.6576130" lon="1.4851070">
        <ele>2451.6</ele>
        <time>2021-08-09T18:07:33Z</time>
      </trkpt>
      <trkpt lat="42.6576470" lon="1.4850260">
        <ele>2450.8</ele>
        <time>2021-08-09T18:07:43Z</time>
      </trkpt>
      <trkpt lat="42.6576700" lon="1.4850180">
        <ele>2450.5</ele>
        <time>2021-08-09T18:07:45Z</time>
      </trkpt>
      <trkpt lat="42.6578500" lon="1.4849940">
        <ele>2448.4</ele>
        <time>2021-08-09T18:08:03Z</time>
      </trkpt>
      <trkpt lat="42.6580310" lon="1.4849520">
        <ele>2446.2</ele>
        <time>2021-08-09T18:08:23Z</time>
      </trkpt>
      <trkpt lat="42.6580760" lon="1.4849560">
        <ele>2445.7</ele>
        <time>2021-08-09T18:08:27Z</time>
      </trkpt>
      <trkpt lat="42.6580880" lon="1.4849570">
        <ele>2445.6</ele>
        <time>2021-08-09T18:08:28Z</time>
      </trkpt>
      <trkpt lat="42.6581060" lon="1.4849650">
        <ele>2445.4</ele>
        <time>2021-08-09T18:08:30Z</time>
      </trkpt>
      <trkpt lat="42.6581130" lon="1.4849720">
        <ele>2445.2</ele>
        <time>2021-08-09T18:08:31Z</time>
      </trkpt>
      <trkpt lat="42.6581320" lon="1.4849820">
        <ele>2445.0</ele>
        <time>2021-08-09T18:08:33Z</time>
      </trkpt>
      <trkpt lat="42.6581690" lon="1.4849900">
        <ele>2444.6</ele>
        <time>2021-08-09T18:08:38Z</time>
      </trkpt>
      <trkpt lat="42.6581830" lon="1.4849900">
        <ele>2444.4</ele>
        <time>2021-08-09T18:08:39Z</time>
      </trkpt>
      <trkpt lat="42.6581930" lon="1.4849910">
        <ele>2444.3</ele>
        <time>2021-08-09T18:08:40Z</time>
      </trkpt>
      <trkpt lat="42.6582660" lon="1.4849890">
        <ele>2443.4</ele>
        <time>2021-08-09T18:08:46Z</time>
      </trkpt>
      <trkpt lat="42.6582980" lon="1.4849880">
        <ele>2443.0</ele>
        <time>2021-08-09T18:08:49Z</time>
      </trkpt>
      <trkpt lat="42.6584740" lon="1.4849260">
        <ele>2440.9</ele>
        <time>2021-08-09T18:09:06Z</time>
      </trkpt>
      <trkpt lat="42.6586110" lon="1.4849170">
        <ele>2439.3</ele>
        <time>2021-08-09T18:09:18Z</time>
      </trkpt>
      <trkpt lat="42.6587000" lon="1.4849420">
        <ele>2438.2</ele>
        <time>2021-08-09T18:09:26Z</time>
      </trkpt>
      <trkpt lat="42.6587120" lon="1.4849450">
        <ele>2438.1</ele>
        <time>2021-08-09T18:09:27Z</time>
      </trkpt>
      <trkpt lat="42.6587220" lon="1.4849470">
        <ele>2438.0</ele>
        <time>2021-08-09T18:09:28Z</time>
      </trkpt>
      <trkpt lat="42.6587330" lon="1.4849480">
        <ele>2437.8</ele>
        <time>2021-08-09T18:09:29Z</time>
      </trkpt>
      <trkpt lat="42.6587530" lon="1.4849510">
        <ele>2437.6</ele>
        <time>2021-08-09T18:09:31Z</time>
      </trkpt>
      <trkpt lat="42.6587730" lon="1.4849580">
        <ele>2437.3</ele>
        <time>2021-08-09T18:09:33Z</time>
      </trkpt>
      <trkpt lat="42.6587870" lon="1.4849670">
        <ele>2437.2</ele>
        <time>2021-08-09T18:09:35Z</time>
      </trkpt>
      <trkpt lat="42.6587950" lon="1.4849700">
        <ele>2437.1</ele>
        <time>2021-08-09T18:09:36Z</time>
      </trkpt>
      <trkpt lat="42.6588040" lon="1.4849710">
        <ele>2437.0</ele>
        <time>2021-08-09T18:09:37Z</time>
      </trkpt>
      <trkpt lat="42.6588150" lon="1.4849730">
        <ele>2436.8</ele>
        <time>2021-08-09T18:09:38Z</time>
      </trkpt>
      <trkpt lat="42.6588220" lon="1.4849780">
        <ele>2436.7</ele>
        <time>2021-08-09T18:09:39Z</time>
      </trkpt>
      <trkpt lat="42.6588530" lon="1.4849930">
        <ele>2436.3</ele>
        <time>2021-08-09T18:09:42Z</time>
      </trkpt>
      <trkpt lat="42.6588720" lon="1.4849970">
        <ele>2436.1</ele>
        <time>2021-08-09T18:09:44Z</time>
      </trkpt>
      <trkpt lat="42.6588800" lon="1.4850030">
        <ele>2436.0</ele>
        <time>2021-08-09T18:09:45Z</time>
      </trkpt>
      <trkpt lat="42.6588880" lon="1.4850050">
        <ele>2435.9</ele>
        <time>2021-08-09T18:09:46Z</time>
      </trkpt>
      <trkpt lat="42.6589450" lon="1.4850130">
        <ele>2436.1</ele>
        <time>2021-08-09T18:09:52Z</time>
      </trkpt>
      <trkpt lat="42.6589930" lon="1.4850300">
        <ele>2436.5</ele>
        <time>2021-08-09T18:09:58Z</time>
      </trkpt>
      <trkpt lat="42.6590220" lon="1.4850370">
        <ele>2436.8</ele>
        <time>2021-08-09T18:10:01Z</time>
      </trkpt>
      <trkpt lat="42.6590460" lon="1.4850370">
        <ele>2437.1</ele>
        <time>2021-08-09T18:10:04Z</time>
      </trkpt>
      <trkpt lat="42.6591350" lon="1.4850340">
        <ele>2437.9</ele>
        <time>2021-08-09T18:10:14Z</time>
      </trkpt>
      <trkpt lat="42.6591660" lon="1.4850330">
        <ele>2438.1</ele>
        <time>2021-08-09T18:10:18Z</time>
      </trkpt>
      <trkpt lat="42.6592220" lon="1.4850340">
        <ele>2438.5</ele>
        <time>2021-08-09T18:10:27Z</time>
      </trkpt>
      <trkpt lat="42.6592230" lon="1.4850320">
        <ele>2438.5</ele>
        <time>2021-08-09T18:10:40Z</time>
      </trkpt>
      <trkpt lat="42.6592210" lon="1.4850340">
        <ele>2438.5</ele>
        <time>2021-08-09T18:10:43Z</time>
      </trkpt>
      <trkpt lat="42.6592170" lon="1.4850410">
        <ele>2438.6</ele>
        <time>2021-08-09T18:10:47Z</time>
      </trkpt>
      <trkpt lat="42.6592180" lon="1.4850450">
        <ele>2438.6</ele>
        <time>2021-08-09T18:10:53Z</time>
      </trkpt>
      <trkpt lat="42.6592220" lon="1.4850480">
        <ele>2438.6</ele>
        <time>2021-08-09T18:10:56Z</time>
      </trkpt>
      <trkpt lat="42.6592450" lon="1.4850510">
        <ele>2438.7</ele>
        <time>2021-08-09T18:10:59Z</time>
      </trkpt>
      <trkpt lat="42.6592750" lon="1.4850480">
        <ele>2438.8</ele>
        <time>2021-08-09T18:11:02Z</time>
      </trkpt>
      <trkpt lat="42.6593000" lon="1.4850600">
        <ele>2438.9</ele>
        <time>2021-08-09T18:11:05Z</time>
      </trkpt>
      <trkpt lat="42.6593300" lon="1.4850750">
        <ele>2438.9</ele>
        <time>2021-08-09T18:11:08Z</time>
      </trkpt>
      <trkpt lat="42.6593770" lon="1.4850890">
        <ele>2438.8</ele>
        <time>2021-08-09T18:11:13Z</time>
      </trkpt>
      <trkpt lat="42.6595460" lon="1.4850460">
        <ele>2437.1</ele>
        <time>2021-08-09T18:11:41Z</time>
      </trkpt>
      <trkpt lat="42.6595910" lon="1.4850070">
        <ele>2436.2</ele>
        <time>2021-08-09T18:12:15Z</time>
      </trkpt>
      <trkpt lat="42.6597230" lon="1.4849940">
        <ele>2434.5</ele>
        <time>2021-08-09T18:12:53Z</time>
      </trkpt>
      <trkpt lat="42.6598490" lon="1.4851650">
        <ele>2433.5</ele>
        <time>2021-08-09T18:13:23Z</time>
      </trkpt>
      <trkpt lat="42.6598730" lon="1.4851990">
        <ele>2433.2</ele>
        <time>2021-08-09T18:13:28Z</time>
      </trkpt>
      <trkpt lat="42.6599440" lon="1.4852730">
        <ele>2432.2</ele>
        <time>2021-08-09T18:13:42Z</time>
      </trkpt>
      <trkpt lat="42.6600110" lon="1.4853680">
        <ele>2431.2</ele>
        <time>2021-08-09T18:13:54Z</time>
      </trkpt>
      <trkpt lat="42.6600510" lon="1.4853890">
        <ele>2430.8</ele>
        <time>2021-08-09T18:14:00Z</time>
      </trkpt>
      <trkpt lat="42.6600570" lon="1.4853930">
        <ele>2430.7</ele>
        <time>2021-08-09T18:14:01Z</time>
      </trkpt>
      <trkpt lat="42.6600760" lon="1.4854490">
        <ele>2430.4</ele>
        <time>2021-08-09T18:14:09Z</time>
      </trkpt>
      <trkpt lat="42.6600960" lon="1.4854710">
        <ele>2430.3</ele>
        <time>2021-08-09T18:14:13Z</time>
      </trkpt>
      <trkpt lat="42.6601180" lon="1.4854920">
        <ele>2430.2</ele>
        <time>2021-08-09T18:14:16Z</time>
      </trkpt>
      <trkpt lat="42.6601360" lon="1.4855110">
        <ele>2430.1</ele>
        <time>2021-08-09T18:14:19Z</time>
      </trkpt>
      <trkpt lat="42.6601570" lon="1.4855190">
        <ele>2430.1</ele>
        <time>2021-08-09T18:14:22Z</time>
      </trkpt>
      <trkpt lat="42.6601710" lon="1.4855280">
        <ele>2430.1</ele>
        <time>2021-08-09T18:14:24Z</time>
      </trkpt>
      <trkpt lat="42.6602010" lon="1.4855390">
        <ele>2430.0</ele>
        <time>2021-08-09T18:14:30Z</time>
      </trkpt>
      <trkpt lat="42.6602520" lon="1.4855660">
        <ele>2430.0</ele>
        <time>2021-08-09T18:14:37Z</time>
      </trkpt>
      <trkpt lat="42.6603300" lon="1.4857690">
        <ele>2430.5</ele>
        <time>2021-08-09T18:15:02Z</time>
      </trkpt>
      <trkpt lat="42.6603680" lon="1.4858160">
        <ele>2430.9</ele>
        <time>2021-08-09T18:15:07Z</time>
      </trkpt>
      <trkpt lat="42.6604080" lon="1.4858580">
        <ele>2431.4</ele>
        <time>2021-08-09T18:15:12Z</time>
      </trkpt>
      <trkpt lat="42.6604380" lon="1.4858620">
        <ele>2431.6</ele>
        <time>2021-08-09T18:15:15Z</time>
      </trkpt>
      <trkpt lat="42.6604700" lon="1.4858680">
        <ele>2431.9</ele>
        <time>2021-08-09T18:15:19Z</time>
      </trkpt>
      <trkpt lat="42.6604840" lon="1.4858740">
        <ele>2432.1</ele>
        <time>2021-08-09T18:15:22Z</time>
      </trkpt>
      <trkpt lat="42.6604830" lon="1.4858750">
        <ele>2432.1</ele>
        <time>2021-08-09T18:15:23Z</time>
      </trkpt>
      <trkpt lat="42.6604700" lon="1.4858880">
        <ele>2432.2</ele>
        <time>2021-08-09T18:15:31Z</time>
      </trkpt>
      <trkpt lat="42.6604670" lon="1.4858900">
        <ele>2432.2</ele>
        <time>2021-08-09T18:15:32Z</time>
      </trkpt>
      <trkpt lat="42.6606150" lon="1.4859220">
        <ele>2433.8</ele>
        <time>2021-08-09T18:15:59Z</time>
      </trkpt>
      <trkpt lat="42.6606350" lon="1.4859120">
        <ele>2434.1</ele>
        <time>2021-08-09T18:16:06Z</time>
      </trkpt>
      <trkpt lat="42.6606930" lon="1.4859010">
        <ele>2434.9</ele>
        <time>2021-08-09T18:16:16Z</time>
      </trkpt>
      <trkpt lat="42.6607070" lon="1.4858940">
        <ele>2435.1</ele>
        <time>2021-08-09T18:16:21Z</time>
      </trkpt>
      <trkpt lat="42.6607670" lon="1.4859030">
        <ele>2435.8</ele>
        <time>2021-08-09T18:16:39Z</time>
      </trkpt>
      <trkpt lat="42.6607990" lon="1.4858980">
        <ele>2436.2</ele>
        <time>2021-08-09T18:16:44Z</time>
      </trkpt>
      <trkpt lat="42.6608670" lon="1.4858960">
        <ele>2436.9</ele>
        <time>2021-08-09T18:16:51Z</time>
      </trkpt>
      <trkpt lat="42.6608980" lon="1.4859260">
        <ele>2437.2</ele>
        <time>2021-08-09T18:16:55Z</time>
      </trkpt>
      <trkpt lat="42.6609010" lon="1.4859340">
        <ele>2437.2</ele>
        <time>2021-08-09T18:16:56Z</time>
      </trkpt>
      <trkpt lat="42.6609030" lon="1.4859390">
        <ele>2437.2</ele>
        <time>2021-08-09T18:17:00Z</time>
      </trkpt>
      <trkpt lat="42.6609030" lon="1.4859520">
        <ele>2437.3</ele>
        <time>2021-08-09T18:17:01Z</time>
      </trkpt>
      <trkpt lat="42.6609110" lon="1.4859640">
        <ele>2437.4</ele>
        <time>2021-08-09T18:17:03Z</time>
      </trkpt>
      <trkpt lat="42.6609170" lon="1.4859680">
        <ele>2437.4</ele>
        <time>2021-08-09T18:17:04Z</time>
      </trkpt>
      <trkpt lat="42.6609230" lon="1.4859750">
        <ele>2437.5</ele>
        <time>2021-08-09T18:17:05Z</time>
      </trkpt>
      <trkpt lat="42.6609480" lon="1.4859750">
        <ele>2437.7</ele>
        <time>2021-08-09T18:17:08Z</time>
      </trkpt>
      <trkpt lat="42.6610750" lon="1.4859920">
        <ele>2438.5</ele>
        <time>2021-08-09T18:17:36Z</time>
      </trkpt>
      <trkpt lat="42.6610880" lon="1.4860330">
        <ele>2438.7</ele>
        <time>2021-08-09T18:17:48Z</time>
      </trkpt>
      <trkpt lat="42.6610870" lon="1.4860400">
        <ele>2438.7</ele>
        <time>2021-08-09T18:17:51Z</time>
      </trkpt>
      <trkpt lat="42.6610870" lon="1.4860430">
        <ele>2438.7</ele>
        <time>2021-08-09T18:17:52Z</time>
      </trkpt>
      <trkpt lat="42.6610860" lon="1.4860480">
        <ele>2438.7</ele>
        <time>2021-08-09T18:17:54Z</time>
      </trkpt>
      <trkpt lat="42.6610830" lon="1.4860520">
        <ele>2438.7</ele>
        <time>2021-08-09T18:17:56Z</time>
      </trkpt>
      <trkpt lat="42.6610750" lon="1.4860540">
        <ele>2438.8</ele>
        <time>2021-08-09T18:18:00Z</time>
      </trkpt>
      <trkpt lat="42.6610670" lon="1.4860450">
        <ele>2438.8</ele>
        <time>2021-08-09T18:18:02Z</time>
      </trkpt>
      <trkpt lat="42.6610630" lon="1.4860450">
        <ele>2438.8</ele>
        <time>2021-08-09T18:18:03Z</time>
      </trkpt>
      <trkpt lat="42.6610760" lon="1.4860270">
        <ele>2438.9</ele>
        <time>2021-08-09T18:18:05Z</time>
      </trkpt>
      <trkpt lat="42.6610750" lon="1.4860270">
        <ele>2438.9</ele>
        <time>2021-08-09T18:18:07Z</time>
      </trkpt>
      <trkpt lat="42.6610850" lon="1.4860780">
        <ele>2438.9</ele>
        <time>2021-08-09T18:18:25Z</time>
      </trkpt>
      <trkpt lat="42.6611030" lon="1.4861010">
        <ele>2438.9</ele>
        <time>2021-08-09T18:18:29Z</time>
      </trkpt>
      <trkpt lat="42.6611350" lon="1.4861250">
        <ele>2438.8</ele>
        <time>2021-08-09T18:18:34Z</time>
      </trkpt>
      <trkpt lat="42.6611690" lon="1.4861280">
        <ele>2438.7</ele>
        <time>2021-08-09T18:18:40Z</time>
      </trkpt>
      <trkpt lat="42.6612180" lon="1.4861490">
        <ele>2438.6</ele>
        <time>2021-08-09T18:18:48Z</time>
      </trkpt>
      <trkpt lat="42.6612480" lon="1.4861760">
        <ele>2438.6</ele>
        <time>2021-08-09T18:18:54Z</time>
      </trkpt>
      <trkpt lat="42.6612930" lon="1.4862150">
        <ele>2438.9</ele>
        <time>2021-08-09T18:19:04Z</time>
      </trkpt>
      <trkpt lat="42.6613130" lon="1.4862200">
        <ele>2439.0</ele>
        <time>2021-08-09T18:19:07Z</time>
      </trkpt>
      <trkpt lat="42.6613200" lon="1.4862230">
        <ele>2439.1</ele>
        <time>2021-08-09T18:19:08Z</time>
      </trkpt>
      <trkpt lat="42.6613310" lon="1.4862310">
        <ele>2439.2</ele>
        <time>2021-08-09T18:19:10Z</time>
      </trkpt>
      <trkpt lat="42.6613420" lon="1.4862420">
        <ele>2439.3</ele>
        <time>2021-08-09T18:19:12Z</time>
      </trkpt>
      <trkpt lat="42.6613480" lon="1.4862480">
        <ele>2439.4</ele>
        <time>2021-08-09T18:19:13Z</time>
      </trkpt>
      <trkpt lat="42.6613530" lon="1.4862530">
        <ele>2439.5</ele>
        <time>2021-08-09T18:19:14Z</time>
      </trkpt>
      <trkpt lat="42.6613780" lon="1.4862900">
        <ele>2439.9</ele>
        <time>2021-08-09T18:19:22Z</time>
      </trkpt>
      <trkpt lat="42.6613930" lon="1.4862840">
        <ele>2440.0</ele>
        <time>2021-08-09T18:19:28Z</time>
      </trkpt>
      <trkpt lat="42.6614150" lon="1.4862960">
        <ele>2440.3</ele>
        <time>2021-08-09T18:19:33Z</time>
      </trkpt>
      <trkpt lat="42.6614270" lon="1.4863100">
        <ele>2440.4</ele>
        <time>2021-08-09T18:19:49Z</time>
      </trkpt>
      <trkpt lat="42.6614460" lon="1.4863270">
        <ele>2440.7</ele>
        <time>2021-08-09T18:19:53Z</time>
      </trkpt>
      <trkpt lat="42.6614530" lon="1.4863290">
        <ele>2440.8</ele>
        <time>2021-08-09T18:19:56Z</time>
      </trkpt>
      <trkpt lat="42.6614600" lon="1.4863330">
        <ele>2440.8</ele>
        <time>2021-08-09T18:19:59Z</time>
      </trkpt>
      <trkpt lat="42.6614660" lon="1.4863370">
        <ele>2440.9</ele>
        <time>2021-08-09T18:20:02Z</time>
      </trkpt>
      <trkpt lat="42.6614760" lon="1.4863320">
        <ele>2441.0</ele>
        <time>2021-08-09T18:20:06Z</time>
      </trkpt>
      <trkpt lat="42.6614820" lon="1.4863120">
        <ele>2441.2</ele>
        <time>2021-08-09T18:20:10Z</time>
      </trkpt>
      <trkpt lat="42.6614970" lon="1.4863180">
        <ele>2441.3</ele>
        <time>2021-08-09T18:20:18Z</time>
      </trkpt>
      <trkpt lat="42.6614830" lon="1.4863540">
        <ele>2441.6</ele>
        <time>2021-08-09T18:20:23Z</time>
      </trkpt>
      <trkpt lat="42.6615110" lon="1.4863800">
        <ele>2441.8</ele>
        <time>2021-08-09T18:20:36Z</time>
      </trkpt>
      <trkpt lat="42.6615460" lon="1.4863580">
        <ele>2442.1</ele>
        <time>2021-08-09T18:20:42Z</time>
      </trkpt>
      <trkpt lat="42.6615740" lon="1.4863280">
        <ele>2442.3</ele>
        <time>2021-08-09T18:20:49Z</time>
      </trkpt>
      <trkpt lat="42.6617010" lon="1.4864220">
        <ele>2443.6</ele>
        <time>2021-08-09T18:21:13Z</time>
      </trkpt>
      <trkpt lat="42.6616890" lon="1.4865320">
        <ele>2445.0</ele>
        <time>2021-08-09T18:21:19Z</time>
      </trkpt>
      <trkpt lat="42.6616560" lon="1.4865440">
        <ele>2445.7</ele>
        <time>2021-08-09T18:21:25Z</time>
      </trkpt>
      <trkpt lat="42.6616330" lon="1.4865110">
        <ele>2446.5</ele>
        <time>2021-08-09T18:21:37Z</time>
      </trkpt>
      <trkpt lat="42.6616660" lon="1.4865290">
        <ele>2446.9</ele>
        <time>2021-08-09T18:21:49Z</time>
      </trkpt>
      <trkpt lat="42.6616880" lon="1.4865480">
        <ele>2447.0</ele>
        <time>2021-08-09T18:21:53Z</time>
      </trkpt>
      <trkpt lat="42.6617230" lon="1.4865340">
        <ele>2447.2</ele>
        <time>2021-08-09T18:22:04Z</time>
      </trkpt>
      <trkpt lat="42.6617280" lon="1.4865320">
        <ele>2447.3</ele>
        <time>2021-08-09T18:22:06Z</time>
      </trkpt>
      <trkpt lat="42.6617380" lon="1.4865360">
        <ele>2447.3</ele>
        <time>2021-08-09T18:22:21Z</time>
      </trkpt>
      <trkpt lat="42.6617400" lon="1.4865450">
        <ele>2447.3</ele>
        <time>2021-08-09T18:22:28Z</time>
      </trkpt>
      <trkpt lat="42.6617430" lon="1.4865870">
        <ele>2447.4</ele>
        <time>2021-08-09T18:22:49Z</time>
      </trkpt>
      <trkpt lat="42.6617570" lon="1.4865710">
        <ele>2447.5</ele>
        <time>2021-08-09T18:23:30Z</time>
      </trkpt>
      <trkpt lat="42.6617840" lon="1.4865590">
        <ele>2447.5</ele>
        <time>2021-08-09T18:23:53Z</time>
      </trkpt>
      <trkpt lat="42.6617830" lon="1.4865620">
        <ele>2447.5</ele>
        <time>2021-08-09T18:23:56Z</time>
      </trkpt>
      <trkpt lat="42.6617850" lon="1.4865610">
        <ele>2447.5</ele>
        <time>2021-08-09T18:23:59Z</time>
      </trkpt>
      <trkpt lat="42.6617560" lon="1.4865250">
        <ele>2447.4</ele>
        <time>2021-08-09T18:24:31Z</time>
      </trkpt>
      <trkpt lat="42.6617370" lon="1.4865360">
        <ele>2447.3</ele>
        <time>2021-08-09T18:24:44Z</time>
      </trkpt>
      <trkpt lat="42.6617660" lon="1.4865340">
        <ele>2447.2</ele>
        <time>2021-08-09T18:24:50Z</time>
      </trkpt>
      <trkpt lat="42.6617710" lon="1.4865370">
        <ele>2447.2</ele>
        <time>2021-08-09T18:24:52Z</time>
      </trkpt>
      <trkpt lat="42.6617760" lon="1.4865430">
        <ele>2447.1</ele>
        <time>2021-08-09T18:24:56Z</time>
      </trkpt>
      <trkpt lat="42.6617840" lon="1.4865430">
        <ele>2447.1</ele>
        <time>2021-08-09T18:24:58Z</time>
      </trkpt>
      <trkpt lat="42.6618080" lon="1.4865430">
        <ele>2446.9</ele>
        <time>2021-08-09T18:25:04Z</time>
      </trkpt>
      <trkpt lat="42.6618100" lon="1.4865440">
        <ele>2446.9</ele>
        <time>2021-08-09T18:25:05Z</time>
      </trkpt>
      <trkpt lat="42.6618070" lon="1.4865540">
        <ele>2446.8</ele>
        <time>2021-08-09T18:25:07Z</time>
      </trkpt>
      <trkpt lat="42.6618020" lon="1.4865620">
        <ele>2446.7</ele>
        <time>2021-08-09T18:25:10Z</time>
      </trkpt>
      <trkpt lat="42.6618000" lon="1.4865580">
        <ele>2446.7</ele>
        <time>2021-08-09T18:25:11Z</time>
      </trkpt>
      <trkpt lat="42.6618000" lon="1.4865560">
        <ele>2446.7</ele>
        <time>2021-08-09T18:25:12Z</time>
      </trkpt>
      <trkpt lat="42.6618000" lon="1.4865550">
        <ele>2446.7</ele>
        <time>2021-08-09T18:25:13Z</time>
      </trkpt>
      <trkpt lat="42.6618010" lon="1.4865520">
        <ele>2446.7</ele>
        <time>2021-08-09T18:25:14Z</time>
      </trkpt>
      <trkpt lat="42.6618020" lon="1.4865520">
        <ele>2446.7</ele>
        <time>2021-08-09T18:25:15Z</time>
      </trkpt>
      <trkpt lat="42.6618020" lon="1.4865510">
        <ele>2446.7</ele>
        <time>2021-08-09T18:25:16Z</time>
      </trkpt>
      <trkpt lat="42.6618030" lon="1.4865490">
        <ele>2446.6</ele>
        <time>2021-08-09T18:25:17Z</time>
      </trkpt>
      <trkpt lat="42.6618050" lon="1.4865470">
        <ele>2446.6</ele>
        <time>2021-08-09T18:25:18Z</time>
      </trkpt>
      <trkpt lat="42.6618050" lon="1.4865450">
        <ele>2446.6</ele>
        <time>2021-08-09T18:25:19Z</time>
      </trkpt>
      <trkpt lat="42.6618060" lon="1.4865450">
        <ele>2446.6</ele>
        <time>2021-08-09T18:25:20Z</time>
      </trkpt>
      <trkpt lat="42.6618060" lon="1.4865410">
        <ele>2446.6</ele>
        <time>2021-08-09T18:25:21Z</time>
      </trkpt>
      <trkpt lat="42.6618060" lon="1.4865420">
        <ele>2446.6</ele>
        <time>2021-08-09T18:25:22Z</time>
      </trkpt>
      <trkpt lat="42.6618100" lon="1.4865470">
        <ele>2446.5</ele>
        <time>2021-08-09T18:25:24Z</time>
      </trkpt>
      <trkpt lat="42.6618140" lon="1.4865470">
        <ele>2446.5</ele>
        <time>2021-08-09T18:25:25Z</time>
      </trkpt>
      <trkpt lat="42.6618180" lon="1.4865450">
        <ele>2446.4</ele>
        <time>2021-08-09T18:25:26Z</time>
      </trkpt>
      <trkpt lat="42.6618250" lon="1.4865420">
        <ele>2446.4</ele>
        <time>2021-08-09T18:25:27Z</time>
      </trkpt>
      <trkpt lat="42.6618380" lon="1.4865350">
        <ele>2446.2</ele>
        <time>2021-08-09T18:25:30Z</time>
      </trkpt>
      <trkpt lat="42.6618420" lon="1.4865330">
        <ele>2446.2</ele>
        <time>2021-08-09T18:25:31Z</time>
      </trkpt>
      <trkpt lat="42.6618440" lon="1.4865290">
        <ele>2446.2</ele>
        <time>2021-08-09T18:25:32Z</time>
      </trkpt>
      <trkpt lat="42.6618460" lon="1.4865150">
        <ele>2446.1</ele>
        <time>2021-08-09T18:25:34Z</time>
      </trkpt>
      <trkpt lat="42.6618470" lon="1.4865060">
        <ele>2446.0</ele>
        <time>2021-08-09T18:25:35Z</time>
      </trkpt>
      <trkpt lat="42.6618460" lon="1.4864990">
        <ele>2445.9</ele>
        <time>2021-08-09T18:25:37Z</time>
      </trkpt>
      <trkpt lat="42.6618530" lon="1.4864910">
        <ele>2445.8</ele>
        <time>2021-08-09T18:25:39Z</time>
      </trkpt>
      <trkpt lat="42.6618640" lon="1.4864870">
        <ele>2445.7</ele>
        <time>2021-08-09T18:25:42Z</time>
      </trkpt>
      <trkpt lat="42.6618940" lon="1.4864850">
        <ele>2445.4</ele>
        <time>2021-08-09T18:25:47Z</time>
      </trkpt>
      <trkpt lat="42.6619560" lon="1.4865050">
        <ele>2444.7</ele>
        <time>2021-08-09T18:25:54Z</time>
      </trkpt>
      <trkpt lat="42.6619630" lon="1.4865090">
        <ele>2444.6</ele>
        <time>2021-08-09T18:25:55Z</time>
      </trkpt>
      <trkpt lat="42.6620110" lon="1.4865200">
        <ele>2444.0</ele>
        <time>2021-08-09T18:26:01Z</time>
      </trkpt>
      <trkpt lat="42.6620640" lon="1.4865450">
        <ele>2443.4</ele>
        <time>2021-08-09T18:26:09Z</time>
      </trkpt>
      <trkpt lat="42.6621340" lon="1.4865760">
        <ele>2442.6</ele>
        <time>2021-08-09T18:26:19Z</time>
      </trkpt>
      <trkpt lat="42.6621580" lon="1.4865820">
        <ele>2442.4</ele>
        <time>2021-08-09T18:26:22Z</time>
      </trkpt>
      <trkpt lat="42.6621860" lon="1.4865870">
        <ele>2442.1</ele>
        <time>2021-08-09T18:26:27Z</time>
      </trkpt>
      <trkpt lat="42.6621900" lon="1.4865860">
        <ele>2442.0</ele>
        <time>2021-08-09T18:26:28Z</time>
      </trkpt>
      <trkpt lat="42.6622800" lon="1.4866490">
        <ele>2441.0</ele>
        <time>2021-08-09T18:27:00Z</time>
      </trkpt>
      <trkpt lat="42.6623080" lon="1.4866550">
        <ele>2440.8</ele>
        <time>2021-08-09T18:27:08Z</time>
      </trkpt>
      <trkpt lat="42.6623170" lon="1.4866470">
        <ele>2440.7</ele>
        <time>2021-08-09T18:27:09Z</time>
      </trkpt>
      <trkpt lat="42.6623220" lon="1.4866420">
        <ele>2440.6</ele>
        <time>2021-08-09T18:27:10Z</time>
      </trkpt>
      <trkpt lat="42.6623250" lon="1.4866410">
        <ele>2440.6</ele>
        <time>2021-08-09T18:27:11Z</time>
      </trkpt>
      <trkpt lat="42.6623290" lon="1.4866410">
        <ele>2440.5</ele>
        <time>2021-08-09T18:27:12Z</time>
      </trkpt>
      <trkpt lat="42.6623320" lon="1.4866400">
        <ele>2440.5</ele>
        <time>2021-08-09T18:27:13Z</time>
      </trkpt>
      <trkpt lat="42.6623390" lon="1.4866410">
        <ele>2440.5</ele>
        <time>2021-08-09T18:27:15Z</time>
      </trkpt>
      <trkpt lat="42.6623490" lon="1.4866430">
        <ele>2440.4</ele>
        <time>2021-08-09T18:27:17Z</time>
      </trkpt>
      <trkpt lat="42.6623590" lon="1.4866560">
        <ele>2440.3</ele>
        <time>2021-08-09T18:27:19Z</time>
      </trkpt>
      <trkpt lat="42.6623970" lon="1.4867230">
        <ele>2439.7</ele>
        <time>2021-08-09T18:27:28Z</time>
      </trkpt>
      <trkpt lat="42.6624310" lon="1.4867660">
        <ele>2439.3</ele>
        <time>2021-08-09T18:27:36Z</time>
      </trkpt>
      <trkpt lat="42.6624370" lon="1.4867730">
        <ele>2439.2</ele>
        <time>2021-08-09T18:27:37Z</time>
      </trkpt>
      <trkpt lat="42.6624430" lon="1.4867920">
        <ele>2439.1</ele>
        <time>2021-08-09T18:27:41Z</time>
      </trkpt>
      <trkpt lat="42.6624440" lon="1.4867950">
        <ele>2439.1</ele>
        <time>2021-08-09T18:27:42Z</time>
      </trkpt>
      <trkpt lat="42.6624450" lon="1.4868040">
        <ele>2439.0</ele>
        <time>2021-08-09T18:27:43Z</time>
      </trkpt>
      <trkpt lat="42.6624510" lon="1.4868100">
        <ele>2439.0</ele>
        <time>2021-08-09T18:27:44Z</time>
      </trkpt>
      <trkpt lat="42.6624630" lon="1.4868310">
        <ele>2438.8</ele>
        <time>2021-08-09T18:27:47Z</time>
      </trkpt>
      <trkpt lat="42.6624770" lon="1.4868410">
        <ele>2438.6</ele>
        <time>2021-08-09T18:27:49Z</time>
      </trkpt>
      <trkpt lat="42.6625000" lon="1.4868650">
        <ele>2438.4</ele>
        <time>2021-08-09T18:27:53Z</time>
      </trkpt>
      <trkpt lat="42.6625060" lon="1.4868730">
        <ele>2438.3</ele>
        <time>2021-08-09T18:27:54Z</time>
      </trkpt>
      <trkpt lat="42.6625100" lon="1.4868790">
        <ele>2438.3</ele>
        <time>2021-08-09T18:27:55Z</time>
      </trkpt>
      <trkpt lat="42.6625720" lon="1.4869470">
        <ele>2437.6</ele>
        <time>2021-08-09T18:28:05Z</time>
      </trkpt>
      <trkpt lat="42.6625710" lon="1.4869690">
        <ele>2437.4</ele>
        <time>2021-08-09T18:28:12Z</time>
      </trkpt>
      <trkpt lat="42.6625650" lon="1.4869630">
        <ele>2437.4</ele>
        <time>2021-08-09T18:28:39Z</time>
      </trkpt>
      <trkpt lat="42.6625630" lon="1.4869680">
        <ele>2437.4</ele>
        <time>2021-08-09T18:28:51Z</time>
      </trkpt>
      <trkpt lat="42.6625710" lon="1.4869590">
        <ele>2437.3</ele>
        <time>2021-08-09T18:28:56Z</time>
      </trkpt>
      <trkpt lat="42.6625740" lon="1.4869610">
        <ele>2437.3</ele>
        <time>2021-08-09T18:29:06Z</time>
      </trkpt>
      <trkpt lat="42.6625900" lon="1.4869580">
        <ele>2437.2</ele>
        <time>2021-08-09T18:29:11Z</time>
      </trkpt>
      <trkpt lat="42.6627650" lon="1.4870230">
        <ele>2436.7</ele>
        <time>2021-08-09T18:29:34Z</time>
      </trkpt>
      <trkpt lat="42.6628010" lon="1.4870160">
        <ele>2436.6</ele>
        <time>2021-08-09T18:29:49Z</time>
      </trkpt>
      <trkpt lat="42.6628050" lon="1.4870050">
        <ele>2436.6</ele>
        <time>2021-08-09T18:29:55Z</time>
      </trkpt>
      <trkpt lat="42.6628040" lon="1.4870050">
        <ele>2436.6</ele>
        <time>2021-08-09T18:29:56Z</time>
      </trkpt>
      <trkpt lat="42.6628030" lon="1.4870050">
        <ele>2436.6</ele>
        <time>2021-08-09T18:29:57Z</time>
      </trkpt>
      <trkpt lat="42.6628010" lon="1.4870040">
        <ele>2436.6</ele>
        <time>2021-08-09T18:29:58Z</time>
      </trkpt>
      <trkpt lat="42.6627960" lon="1.4870040">
        <ele>2436.5</ele>
        <time>2021-08-09T18:29:59Z</time>
      </trkpt>
      <trkpt lat="42.6627930" lon="1.4870050">
        <ele>2436.5</ele>
        <time>2021-08-09T18:30:01Z</time>
      </trkpt>
      <trkpt lat="42.6627910" lon="1.4869920">
        <ele>2436.5</ele>
        <time>2021-08-09T18:30:03Z</time>
      </trkpt>
      <trkpt lat="42.6627950" lon="1.4869800">
        <ele>2436.5</ele>
        <time>2021-08-09T18:30:05Z</time>
      </trkpt>
      <trkpt lat="42.6628010" lon="1.4869690">
        <ele>2436.4</ele>
        <time>2021-08-09T18:30:06Z</time>
      </trkpt>
      <trkpt lat="42.6628040" lon="1.4869570">
        <ele>2436.3</ele>
        <time>2021-08-09T18:30:07Z</time>
      </trkpt>
      <trkpt lat="42.6628170" lon="1.4869740">
        <ele>2436.2</ele>
        <time>2021-08-09T18:30:13Z</time>
      </trkpt>
      <trkpt lat="42.6628210" lon="1.4870090">
        <ele>2436.1</ele>
        <time>2021-08-09T18:30:17Z</time>
      </trkpt>
      <trkpt lat="42.6628190" lon="1.4870190">
        <ele>2436.0</ele>
        <time>2021-08-09T18:30:19Z</time>
      </trkpt>
      <trkpt lat="42.6628200" lon="1.4870210">
        <ele>2436.0</ele>
        <time>2021-08-09T18:30:22Z</time>
      </trkpt>
      <trkpt lat="42.6628220" lon="1.4870230">
        <ele>2436.0</ele>
        <time>2021-08-09T18:30:23Z</time>
      </trkpt>
      <trkpt lat="42.6628150" lon="1.4870390">
        <ele>2435.8</ele>
        <time>2021-08-09T18:30:37Z</time>
      </trkpt>
      <trkpt lat="42.6628030" lon="1.4870090">
        <ele>2435.6</ele>
        <time>2021-08-09T18:30:45Z</time>
      </trkpt>
      <trkpt lat="42.6627920" lon="1.4869940">
        <ele>2435.4</ele>
        <time>2021-08-09T18:30:50Z</time>
      </trkpt>
      <trkpt lat="42.6627950" lon="1.4869920">
        <ele>2435.4</ele>
        <time>2021-08-09T18:30:52Z</time>
      </trkpt>
      <trkpt lat="42.6627960" lon="1.4869890">
        <ele>2435.4</ele>
        <time>2021-08-09T18:30:53Z</time>
      </trkpt>
      <trkpt lat="42.6628020" lon="1.4870080">
        <ele>2435.2</ele>
        <time>2021-08-09T18:30:57Z</time>
      </trkpt>
      <trkpt lat="42.6628050" lon="1.4870170">
        <ele>2435.1</ele>
        <time>2021-08-09T18:30:58Z</time>
      </trkpt>
      <trkpt lat="42.6628080" lon="1.4870190">
        <ele>2435.0</ele>
        <time>2021-08-09T18:30:59Z</time>
      </trkpt>
      <trkpt lat="42.6628100" lon="1.4870250">
        <ele>2435.0</ele>
        <time>2021-08-09T18:31:04Z</time>
      </trkpt>
      <trkpt lat="42.6628000" lon="1.4870400">
        <ele>2434.8</ele>
        <time>2021-08-09T18:31:07Z</time>
      </trkpt>
      <trkpt lat="42.6627980" lon="1.4870450">
        <ele>2434.7</ele>
        <time>2021-08-09T18:31:09Z</time>
      </trkpt>
      <trkpt lat="42.6627970" lon="1.4870470">
        <ele>2434.7</ele>
        <time>2021-08-09T18:31:11Z</time>
      </trkpt>
      <trkpt lat="42.6627970" lon="1.4870480">
        <ele>2434.7</ele>
        <time>2021-08-09T18:31:14Z</time>
      </trkpt>
      <trkpt lat="42.6627970" lon="1.4870470">
        <ele>2434.7</ele>
        <time>2021-08-09T18:31:16Z</time>
      </trkpt>
      <trkpt lat="42.6627980" lon="1.4870470">
        <ele>2434.7</ele>
        <time>2021-08-09T18:31:17Z</time>
      </trkpt>
      <trkpt lat="42.6630960" lon="1.4873240">
        <ele>2427.4</ele>
        <time>2021-08-10T06:55:07Z</time>
      </trkpt>
      <trkpt lat="42.6630960" lon="1.4872820">
        <ele>2426.7</ele>
        <time>2021-08-10T06:55:16Z</time>
      </trkpt>
      <trkpt lat="42.6631070" lon="1.4872220">
        <ele>2425.9</ele>
        <time>2021-08-10T06:55:37Z</time>
      </trkpt>
      <trkpt lat="42.6631550" lon="1.4870520">
        <ele>2424.3</ele>
        <time>2021-08-10T06:56:04Z</time>
      </trkpt>
      <trkpt lat="42.6633310" lon="1.4871020">
        <ele>2423.5</ele>
        <time>2021-08-10T06:56:28Z</time>
      </trkpt>
      <trkpt lat="42.6634720" lon="1.4871300">
        <ele>2422.5</ele>
        <time>2021-08-10T06:56:53Z</time>
      </trkpt>
      <trkpt lat="42.6635160" lon="1.4872240">
        <ele>2421.7</ele>
        <time>2021-08-10T06:57:16Z</time>
      </trkpt>
      <trkpt lat="42.6636870" lon="1.4872890">
        <ele>2421.2</ele>
        <time>2021-08-10T06:57:46Z</time>
      </trkpt>
      <trkpt lat="42.6638430" lon="1.4874050">
        <ele>2422.3</ele>
        <time>2021-08-10T06:58:25Z</time>
      </trkpt>
      <trkpt lat="42.6639210" lon="1.4875430">
        <ele>2422.8</ele>
        <time>2021-08-10T06:58:54Z</time>
      </trkpt>
      <trkpt lat="42.6640480" lon="1.4877000">
        <ele>2422.8</ele>
        <time>2021-08-10T06:59:16Z</time>
      </trkpt>
      <trkpt lat="42.6641410" lon="1.4877520">
        <ele>2422.4</ele>
        <time>2021-08-10T06:59:28Z</time>
      </trkpt>
      <trkpt lat="42.6642880" lon="1.4878800">
        <ele>2420.5</ele>
        <time>2021-08-10T06:59:54Z</time>
      </trkpt>
      <trkpt lat="42.6642960" lon="1.4879130">
        <ele>2420.2</ele>
        <time>2021-08-10T06:59:57Z</time>
      </trkpt>
      <trkpt lat="42.6643010" lon="1.4879250">
        <ele>2420.0</ele>
        <time>2021-08-10T06:59:58Z</time>
      </trkpt>
      <trkpt lat="42.6643140" lon="1.4879420">
        <ele>2419.8</ele>
        <time>2021-08-10T07:00:00Z</time>
      </trkpt>
      <trkpt lat="42.6643280" lon="1.4879660">
        <ele>2419.5</ele>
        <time>2021-08-10T07:00:03Z</time>
      </trkpt>
      <trkpt lat="42.6643460" lon="1.4880070">
        <ele>2419.0</ele>
        <time>2021-08-10T07:00:07Z</time>
      </trkpt>
      <trkpt lat="42.6643720" lon="1.4881030">
        <ele>2418.0</ele>
        <time>2021-08-10T07:00:23Z</time>
      </trkpt>
      <trkpt lat="42.6643990" lon="1.4881380">
        <ele>2417.5</ele>
        <time>2021-08-10T07:00:30Z</time>
      </trkpt>
      <trkpt lat="42.6644580" lon="1.4882140">
        <ele>2416.9</ele>
        <time>2021-08-10T07:00:43Z</time>
      </trkpt>
      <trkpt lat="42.6645150" lon="1.4883350">
        <ele>2416.6</ele>
        <time>2021-08-10T07:01:07Z</time>
      </trkpt>
      <trkpt lat="42.6645350" lon="1.4884510">
        <ele>2416.4</ele>
        <time>2021-08-10T07:01:26Z</time>
      </trkpt>
      <trkpt lat="42.6646030" lon="1.4886630">
        <ele>2415.5</ele>
        <time>2021-08-10T07:01:50Z</time>
      </trkpt>
      <trkpt lat="42.6645640" lon="1.4888140">
        <ele>2414.5</ele>
        <time>2021-08-10T07:02:07Z</time>
      </trkpt>
      <trkpt lat="42.6645580" lon="1.4888440">
        <ele>2414.3</ele>
        <time>2021-08-10T07:02:11Z</time>
      </trkpt>
      <trkpt lat="42.6645580" lon="1.4888520">
        <ele>2414.3</ele>
        <time>2021-08-10T07:02:12Z</time>
      </trkpt>
      <trkpt lat="42.6645580" lon="1.4888580">
        <ele>2414.2</ele>
        <time>2021-08-10T07:02:13Z</time>
      </trkpt>
      <trkpt lat="42.6645470" lon="1.4889200">
        <ele>2413.9</ele>
        <time>2021-08-10T07:02:22Z</time>
      </trkpt>
      <trkpt lat="42.6645350" lon="1.4890000">
        <ele>2413.6</ele>
        <time>2021-08-10T07:02:33Z</time>
      </trkpt>
      <trkpt lat="42.6645600" lon="1.4890250">
        <ele>2413.5</ele>
        <time>2021-08-10T07:02:41Z</time>
      </trkpt>
      <trkpt lat="42.6645690" lon="1.4890290">
        <ele>2413.4</ele>
        <time>2021-08-10T07:02:43Z</time>
      </trkpt>
      <trkpt lat="42.6645740" lon="1.4890280">
        <ele>2413.4</ele>
        <time>2021-08-10T07:02:46Z</time>
      </trkpt>
      <trkpt lat="42.6645730" lon="1.4890320">
        <ele>2413.4</ele>
        <time>2021-08-10T07:02:48Z</time>
      </trkpt>
      <trkpt lat="42.6646130" lon="1.4891270">
        <ele>2413.4</ele>
        <time>2021-08-10T07:03:07Z</time>
      </trkpt>
      <trkpt lat="42.6646330" lon="1.4891650">
        <ele>2413.5</ele>
        <time>2021-08-10T07:03:13Z</time>
      </trkpt>
      <trkpt lat="42.6646360" lon="1.4891730">
        <ele>2413.5</ele>
        <time>2021-08-10T07:03:14Z</time>
      </trkpt>
      <trkpt lat="42.6646520" lon="1.4892840">
        <ele>2413.8</ele>
        <time>2021-08-10T07:03:27Z</time>
      </trkpt>
      <trkpt lat="42.6647780" lon="1.4893930">
        <ele>2414.3</ele>
        <time>2021-08-10T07:04:04Z</time>
      </trkpt>
      <trkpt lat="42.6649160" lon="1.4895380">
        <ele>2414.6</ele>
        <time>2021-08-10T07:04:38Z</time>
      </trkpt>
      <trkpt lat="42.6649570" lon="1.4896850">
        <ele>2414.7</ele>
        <time>2021-08-10T07:05:05Z</time>
      </trkpt>
      <trkpt lat="42.6649250" lon="1.4896730">
        <ele>2414.7</ele>
        <time>2021-08-10T07:06:13Z</time>
      </trkpt>
      <trkpt lat="42.6649080" lon="1.4896960">
        <ele>2414.7</ele>
        <time>2021-08-10T07:06:27Z</time>
      </trkpt>
      <trkpt lat="42.6649280" lon="1.4896560">
        <ele>2414.7</ele>
        <time>2021-08-10T07:06:50Z</time>
      </trkpt>
      <trkpt lat="42.6649480" lon="1.4896470">
        <ele>2414.7</ele>
        <time>2021-08-10T07:06:56Z</time>
      </trkpt>
      <trkpt lat="42.6649490" lon="1.4896500">
        <ele>2414.7</ele>
        <time>2021-08-10T07:07:00Z</time>
      </trkpt>
      <trkpt lat="42.6649530" lon="1.4896510">
        <ele>2414.6</ele>
        <time>2021-08-10T07:07:02Z</time>
      </trkpt>
      <trkpt lat="42.6649560" lon="1.4896490">
        <ele>2414.6</ele>
        <time>2021-08-10T07:07:05Z</time>
      </trkpt>
      <trkpt lat="42.6649570" lon="1.4896460">
        <ele>2414.6</ele>
        <time>2021-08-10T07:07:07Z</time>
      </trkpt>
      <trkpt lat="42.6649580" lon="1.4896440">
        <ele>2414.6</ele>
        <time>2021-08-10T07:07:09Z</time>
      </trkpt>
      <trkpt lat="42.6649590" lon="1.4896490">
        <ele>2414.6</ele>
        <time>2021-08-10T07:07:13Z</time>
      </trkpt>
      <trkpt lat="42.6649700" lon="1.4896510">
        <ele>2414.6</ele>
        <time>2021-08-10T07:07:17Z</time>
      </trkpt>
      <trkpt lat="42.6649690" lon="1.4896660">
        <ele>2414.6</ele>
        <time>2021-08-10T07:07:25Z</time>
      </trkpt>
      <trkpt lat="42.6650320" lon="1.4896760">
        <ele>2414.4</ele>
        <time>2021-08-10T07:07:35Z</time>
      </trkpt>
      <trkpt lat="42.6650380" lon="1.4896820">
        <ele>2414.4</ele>
        <time>2021-08-10T07:07:37Z</time>
      </trkpt>
      <trkpt lat="42.6650410" lon="1.4896830">
        <ele>2414.4</ele>
        <time>2021-08-10T07:07:38Z</time>
      </trkpt>
      <trkpt lat="42.6650440" lon="1.4896870">
        <ele>2414.4</ele>
        <time>2021-08-10T07:07:40Z</time>
      </trkpt>
      <trkpt lat="42.6650820" lon="1.4897380">
        <ele>2414.2</ele>
        <time>2021-08-10T07:07:55Z</time>
      </trkpt>
      <trkpt lat="42.6650440" lon="1.4896690">
        <ele>2414.1</ele>
        <time>2021-08-10T07:08:22Z</time>
      </trkpt>
      <trkpt lat="42.6650370" lon="1.4896470">
        <ele>2414.2</ele>
        <time>2021-08-10T07:08:30Z</time>
      </trkpt>
      <trkpt lat="42.6650380" lon="1.4896550">
        <ele>2414.2</ele>
        <time>2021-08-10T07:08:33Z</time>
      </trkpt>
      <trkpt lat="42.6650330" lon="1.4896550">
        <ele>2414.2</ele>
        <time>2021-08-10T07:08:37Z</time>
      </trkpt>
      <trkpt lat="42.6650240" lon="1.4896610">
        <ele>2414.3</ele>
        <time>2021-08-10T07:08:44Z</time>
      </trkpt>
      <trkpt lat="42.6650250" lon="1.4896640">
        <ele>2414.3</ele>
        <time>2021-08-10T07:08:46Z</time>
      </trkpt>
      <trkpt lat="42.6649920" lon="1.4896160">
        <ele>2414.4</ele>
        <time>2021-08-10T07:09:05Z</time>
      </trkpt>
      <trkpt lat="42.6649390" lon="1.4896660">
        <ele>2414.6</ele>
        <time>2021-08-10T07:09:17Z</time>
      </trkpt>
      <trkpt lat="42.6649290" lon="1.4896620">
        <ele>2414.6</ele>
        <time>2021-08-10T07:09:21Z</time>
      </trkpt>
      <trkpt lat="42.6649330" lon="1.4896610">
        <ele>2414.6</ele>
        <time>2021-08-10T07:09:23Z</time>
      </trkpt>
      <trkpt lat="42.6649410" lon="1.4896710">
        <ele>2414.6</ele>
        <time>2021-08-10T07:09:28Z</time>
      </trkpt>
      <trkpt lat="42.6649430" lon="1.4896680">
        <ele>2414.6</ele>
        <time>2021-08-10T07:09:29Z</time>
      </trkpt>
      <trkpt lat="42.6649440" lon="1.4896660">
        <ele>2414.7</ele>
        <time>2021-08-10T07:09:30Z</time>
      </trkpt>
      <trkpt lat="42.6649440" lon="1.4896640">
        <ele>2414.7</ele>
        <time>2021-08-10T07:09:31Z</time>
      </trkpt>
      <trkpt lat="42.6649460" lon="1.4896660">
        <ele>2414.7</ele>
        <time>2021-08-10T07:09:34Z</time>
      </trkpt>
      <trkpt lat="42.6649490" lon="1.4896680">
        <ele>2414.7</ele>
        <time>2021-08-10T07:09:35Z</time>
      </trkpt>
      <trkpt lat="42.6649470" lon="1.4896690">
        <ele>2414.7</ele>
        <time>2021-08-10T07:09:36Z</time>
      </trkpt>
      <trkpt lat="42.6649540" lon="1.4896700">
        <ele>2414.7</ele>
        <time>2021-08-10T07:09:40Z</time>
      </trkpt>
      <trkpt lat="42.6649640" lon="1.4896690">
        <ele>2414.7</ele>
        <time>2021-08-10T07:09:55Z</time>
      </trkpt>
      <trkpt lat="42.6649660" lon="1.4896510">
        <ele>2414.7</ele>
        <time>2021-08-10T07:10:45Z</time>
      </trkpt>
      <trkpt lat="42.6649690" lon="1.4896590">
        <ele>2414.7</ele>
        <time>2021-08-10T07:11:02Z</time>
      </trkpt>
      <trkpt lat="42.6649530" lon="1.4896570">
        <ele>2414.7</ele>
        <time>2021-08-10T07:12:28Z</time>
      </trkpt>
      <trkpt lat="42.6649490" lon="1.4896630">
        <ele>2414.7</ele>
        <time>2021-08-10T07:12:40Z</time>
      </trkpt>
      <trkpt lat="42.6649490" lon="1.4896640">
        <ele>2414.7</ele>
        <time>2021-08-10T07:12:56Z</time>
      </trkpt>
      <trkpt lat="42.6649900" lon="1.4896350">
        <ele>2414.7</ele>
        <time>2021-08-10T07:13:26Z</time>
      </trkpt>
      <trkpt lat="42.6649950" lon="1.4896550">
        <ele>2414.7</ele>
        <time>2021-08-10T07:13:40Z</time>
      </trkpt>
      <trkpt lat="42.6650180" lon="1.4896740">
        <ele>2414.7</ele>
        <time>2021-08-10T07:14:04Z</time>
      </trkpt>
      <trkpt lat="42.6650190" lon="1.4896720">
        <ele>2414.7</ele>
        <time>2021-08-10T07:14:05Z</time>
      </trkpt>
      <trkpt lat="42.6650100" lon="1.4896820">
        <ele>2414.7</ele>
        <time>2021-08-10T07:14:23Z</time>
      </trkpt>
      <trkpt lat="42.6650070" lon="1.4896910">
        <ele>2414.7</ele>
        <time>2021-08-10T07:14:34Z</time>
      </trkpt>
      <trkpt lat="42.6650090" lon="1.4896910">
        <ele>2414.7</ele>
        <time>2021-08-10T07:14:46Z</time>
      </trkpt>
      <trkpt lat="42.6649980" lon="1.4897040">
        <ele>2414.7</ele>
        <time>2021-08-10T07:15:51Z</time>
      </trkpt>
      <trkpt lat="42.6648890" lon="1.4895310">
        <ele>2414.4</ele>
        <time>2021-08-10T07:16:36Z</time>
      </trkpt>
      <trkpt lat="42.6647480" lon="1.4894700">
        <ele>2414.0</ele>
        <time>2021-08-10T07:17:06Z</time>
      </trkpt>
      <trkpt lat="42.6646650" lon="1.4893070">
        <ele>2413.5</ele>
        <time>2021-08-10T07:17:42Z</time>
      </trkpt>
      <trkpt lat="42.6646450" lon="1.4891630">
        <ele>2413.4</ele>
        <time>2021-08-10T07:17:57Z</time>
      </trkpt>
      <trkpt lat="42.6645640" lon="1.4889780">
        <ele>2414.0</ele>
        <time>2021-08-10T07:18:42Z</time>
      </trkpt>
      <trkpt lat="42.6645880" lon="1.4887900">
        <ele>2415.0</ele>
        <time>2021-08-10T07:19:08Z</time>
      </trkpt>
      <trkpt lat="42.6645920" lon="1.4887770">
        <ele>2415.1</ele>
        <time>2021-08-10T07:19:09Z</time>
      </trkpt>
      <trkpt lat="42.6646060" lon="1.4885350">
        <ele>2416.3</ele>
        <time>2021-08-10T07:19:28Z</time>
      </trkpt>
      <trkpt lat="42.6645430" lon="1.4884370">
        <ele>2416.5</ele>
        <time>2021-08-10T07:19:39Z</time>
      </trkpt>
      <trkpt lat="42.6645040" lon="1.4883320">
        <ele>2416.6</ele>
        <time>2021-08-10T07:19:51Z</time>
      </trkpt>
      <trkpt lat="42.6644120" lon="1.4881370">
        <ele>2417.7</ele>
        <time>2021-08-10T07:20:23Z</time>
      </trkpt>
      <trkpt lat="42.6643830" lon="1.4881040">
        <ele>2418.1</ele>
        <time>2021-08-10T07:20:28Z</time>
      </trkpt>
      <trkpt lat="42.6643390" lon="1.4879160">
        <ele>2420.0</ele>
        <time>2021-08-10T07:20:48Z</time>
      </trkpt>
      <trkpt lat="42.6642780" lon="1.4877970">
        <ele>2421.5</ele>
        <time>2021-08-10T07:21:00Z</time>
      </trkpt>
      <trkpt lat="42.6642740" lon="1.4877840">
        <ele>2421.6</ele>
        <time>2021-08-10T07:21:01Z</time>
      </trkpt>
      <trkpt lat="42.6642480" lon="1.4876170">
        <ele>2422.4</ele>
        <time>2021-08-10T07:21:15Z</time>
      </trkpt>
      <trkpt lat="42.6643230" lon="1.4875160">
        <ele>2422.4</ele>
        <time>2021-08-10T07:21:27Z</time>
      </trkpt>
      <trkpt lat="42.6643830" lon="1.4874320">
        <ele>2422.2</ele>
        <time>2021-08-10T07:21:36Z</time>
      </trkpt>
      <trkpt lat="42.6645480" lon="1.4874520">
        <ele>2421.8</ele>
        <time>2021-08-10T07:21:55Z</time>
      </trkpt>
      <trkpt lat="42.6646100" lon="1.4875340">
        <ele>2421.4</ele>
        <time>2021-08-10T07:22:03Z</time>
      </trkpt>
      <trkpt lat="42.6647390" lon="1.4875320">
        <ele>2420.4</ele>
        <time>2021-08-10T07:22:30Z</time>
      </trkpt>
      <trkpt lat="42.6647560" lon="1.4874810">
        <ele>2419.9</ele>
        <time>2021-08-10T07:22:41Z</time>
      </trkpt>
      <trkpt lat="42.6647630" lon="1.4874900">
        <ele>2419.8</ele>
        <time>2021-08-10T07:22:45Z</time>
      </trkpt>
      <trkpt lat="42.6647710" lon="1.4875000">
        <ele>2419.7</ele>
        <time>2021-08-10T07:22:47Z</time>
      </trkpt>
      <trkpt lat="42.6647750" lon="1.4875030">
        <ele>2419.7</ele>
        <time>2021-08-10T07:22:48Z</time>
      </trkpt>
      <trkpt lat="42.6647800" lon="1.4875060">
        <ele>2419.6</ele>
        <time>2021-08-10T07:22:49Z</time>
      </trkpt>
      <trkpt lat="42.6647870" lon="1.4875110">
        <ele>2419.5</ele>
        <time>2021-08-10T07:22:50Z</time>
      </trkpt>
      <trkpt lat="42.6648400" lon="1.4875410">
        <ele>2418.9</ele>
        <time>2021-08-10T07:22:58Z</time>
      </trkpt>
      <trkpt lat="42.6648950" lon="1.4874640">
        <ele>2418.5</ele>
        <time>2021-08-10T07:23:15Z</time>
      </trkpt>
      <trkpt lat="42.6649100" lon="1.4874350">
        <ele>2418.5</ele>
        <time>2021-08-10T07:23:20Z</time>
      </trkpt>
      <trkpt lat="42.6649470" lon="1.4873970">
        <ele>2418.5</ele>
        <time>2021-08-10T07:23:29Z</time>
      </trkpt>
      <trkpt lat="42.6650600" lon="1.4873420">
        <ele>2418.5</ele>
        <time>2021-08-10T07:23:56Z</time>
      </trkpt>
      <trkpt lat="42.6651210" lon="1.4873420">
        <ele>2418.3</ele>
        <time>2021-08-10T07:24:23Z</time>
      </trkpt>
      <trkpt lat="42.6653030" lon="1.4873750">
        <ele>2416.2</ele>
        <time>2021-08-10T07:24:48Z</time>
      </trkpt>
      <trkpt lat="42.6653320" lon="1.4874030">
        <ele>2415.6</ele>
        <time>2021-08-10T07:24:59Z</time>
      </trkpt>
      <trkpt lat="42.6654030" lon="1.4875550">
        <ele>2413.7</ele>
        <time>2021-08-10T07:25:26Z</time>
      </trkpt>
      <trkpt lat="42.6654600" lon="1.4875430">
        <ele>2412.9</ele>
        <time>2021-08-10T07:25:33Z</time>
      </trkpt>
      <trkpt lat="42.6654830" lon="1.4874880">
        <ele>2412.3</ele>
        <time>2021-08-10T07:25:44Z</time>
      </trkpt>
      <trkpt lat="42.6654870" lon="1.4874850">
        <ele>2412.2</ele>
        <time>2021-08-10T07:25:46Z</time>
      </trkpt>
      <trkpt lat="42.6654920" lon="1.4874840">
        <ele>2412.1</ele>
        <time>2021-08-10T07:25:47Z</time>
      </trkpt>
      <trkpt lat="42.6655110" lon="1.4874560">
        <ele>2411.7</ele>
        <time>2021-08-10T07:25:54Z</time>
      </trkpt>
      <trkpt lat="42.6655260" lon="1.4874470">
        <ele>2411.4</ele>
        <time>2021-08-10T07:25:58Z</time>
      </trkpt>
      <trkpt lat="42.6655420" lon="1.4874480">
        <ele>2411.2</ele>
        <time>2021-08-10T07:26:01Z</time>
      </trkpt>
      <trkpt lat="42.6655550" lon="1.4874510">
        <ele>2411.0</ele>
        <time>2021-08-10T07:26:04Z</time>
      </trkpt>
      <trkpt lat="42.6655960" lon="1.4874360">
        <ele>2410.5</ele>
        <time>2021-08-10T07:26:13Z</time>
      </trkpt>
      <trkpt lat="42.6657330" lon="1.4873670">
        <ele>2409.4</ele>
        <time>2021-08-10T07:26:45Z</time>
      </trkpt>
      <trkpt lat="42.6658160" lon="1.4874160">
        <ele>2409.1</ele>
        <time>2021-08-10T07:26:57Z</time>
      </trkpt>
      <trkpt lat="42.6659570" lon="1.4874660">
        <ele>2410.3</ele>
        <time>2021-08-10T07:27:43Z</time>
      </trkpt>
      <trkpt lat="42.6660570" lon="1.4874000">
        <ele>2412.1</ele>
        <time>2021-08-10T07:28:06Z</time>
      </trkpt>
      <trkpt lat="42.6660760" lon="1.4873610">
        <ele>2412.7</ele>
        <time>2021-08-10T07:28:19Z</time>
      </trkpt>
      <trkpt lat="42.6661240" lon="1.4873100">
        <ele>2413.5</ele>
        <time>2021-08-10T07:28:48Z</time>
      </trkpt>
      <trkpt lat="42.6661990" lon="1.4873010">
        <ele>2414.4</ele>
        <time>2021-08-10T07:29:19Z</time>
      </trkpt>
      <trkpt lat="42.6662430" lon="1.4872810">
        <ele>2414.9</ele>
        <time>2021-08-10T07:29:41Z</time>
      </trkpt>
      <trkpt lat="42.6663450" lon="1.4872650">
        <ele>2415.9</ele>
        <time>2021-08-10T07:30:05Z</time>
      </trkpt>
      <trkpt lat="42.6663550" lon="1.4872630">
        <ele>2416.0</ele>
        <time>2021-08-10T07:30:08Z</time>
      </trkpt>
      <trkpt lat="42.6663800" lon="1.4872510">
        <ele>2416.2</ele>
        <time>2021-08-10T07:30:13Z</time>
      </trkpt>
      <trkpt lat="42.6663850" lon="1.4872510">
        <ele>2416.2</ele>
        <time>2021-08-10T07:30:14Z</time>
      </trkpt>
      <trkpt lat="42.6665480" lon="1.4873420">
        <ele>2417.2</ele>
        <time>2021-08-10T07:31:11Z</time>
      </trkpt>
      <trkpt lat="42.6666600" lon="1.4872580">
        <ele>2417.2</ele>
        <time>2021-08-10T07:31:49Z</time>
      </trkpt>
      <trkpt lat="42.6667230" lon="1.4872580">
        <ele>2417.3</ele>
        <time>2021-08-10T07:32:33Z</time>
      </trkpt>
      <trkpt lat="42.6667580" lon="1.4873110">
        <ele>2417.4</ele>
        <time>2021-08-10T07:32:45Z</time>
      </trkpt>
      <trkpt lat="42.6668800" lon="1.4872680">
        <ele>2418.5</ele>
        <time>2021-08-10T07:33:47Z</time>
      </trkpt>
      <trkpt lat="42.6668810" lon="1.4872410">
        <ele>2418.8</ele>
        <time>2021-08-10T07:34:15Z</time>
      </trkpt>
      <trkpt lat="42.6669180" lon="1.4872290">
        <ele>2419.2</ele>
        <time>2021-08-10T07:34:25Z</time>
      </trkpt>
      <trkpt lat="42.6670710" lon="1.4871950">
        <ele>2421.4</ele>
        <time>2021-08-10T07:35:25Z</time>
      </trkpt>
      <trkpt lat="42.6672400" lon="1.4872050">
        <ele>2424.1</ele>
        <time>2021-08-10T07:36:15Z</time>
      </trkpt>
      <trkpt lat="42.6674050" lon="1.4871870">
        <ele>2426.4</ele>
        <time>2021-08-10T07:37:05Z</time>
      </trkpt>
      <trkpt lat="42.6674340" lon="1.4872280">
        <ele>2426.9</ele>
        <time>2021-08-10T07:37:13Z</time>
      </trkpt>
      <trkpt lat="42.6676110" lon="1.4872180">
        <ele>2429.0</ele>
        <time>2021-08-10T07:37:55Z</time>
      </trkpt>
      <trkpt lat="42.6677020" lon="1.4872260">
        <ele>2430.0</ele>
        <time>2021-08-10T07:38:12Z</time>
      </trkpt>
      <trkpt lat="42.6678620" lon="1.4873330">
        <ele>2431.7</ele>
        <time>2021-08-10T07:38:43Z</time>
      </trkpt>
      <trkpt lat="42.6678640" lon="1.4873750">
        <ele>2432.0</ele>
        <time>2021-08-10T07:39:01Z</time>
      </trkpt>
      <trkpt lat="42.6678730" lon="1.4873900">
        <ele>2432.1</ele>
        <time>2021-08-10T07:39:16Z</time>
      </trkpt>
      <trkpt lat="42.6678580" lon="1.4873850">
        <ele>2432.2</ele>
        <time>2021-08-10T07:40:00Z</time>
      </trkpt>
      <trkpt lat="42.6678490" lon="1.4873780">
        <ele>2432.3</ele>
        <time>2021-08-10T07:40:05Z</time>
      </trkpt>
      <trkpt lat="42.6678580" lon="1.4873740">
        <ele>2432.4</ele>
        <time>2021-08-10T07:40:12Z</time>
      </trkpt>
      <trkpt lat="42.6679080" lon="1.4873800">
        <ele>2432.7</ele>
        <time>2021-08-10T07:40:21Z</time>
      </trkpt>
      <trkpt lat="42.6679370" lon="1.4873850">
        <ele>2432.8</ele>
        <time>2021-08-10T07:40:26Z</time>
      </trkpt>
      <trkpt lat="42.6679740" lon="1.4873920">
        <ele>2433.0</ele>
        <time>2021-08-10T07:40:32Z</time>
      </trkpt>
      <trkpt lat="42.6679810" lon="1.4873940">
        <ele>2433.1</ele>
        <time>2021-08-10T07:40:33Z</time>
      </trkpt>
      <trkpt lat="42.6679880" lon="1.4873980">
        <ele>2433.1</ele>
        <time>2021-08-10T07:40:34Z</time>
      </trkpt>
      <trkpt lat="42.6680000" lon="1.4874010">
        <ele>2433.2</ele>
        <time>2021-08-10T07:40:36Z</time>
      </trkpt>
      <trkpt lat="42.6680160" lon="1.4874130">
        <ele>2433.2</ele>
        <time>2021-08-10T07:40:41Z</time>
      </trkpt>
      <trkpt lat="42.6680430" lon="1.4874300">
        <ele>2433.4</ele>
        <time>2021-08-10T07:40:46Z</time>
      </trkpt>
      <trkpt lat="42.6680490" lon="1.4874350">
        <ele>2433.4</ele>
        <time>2021-08-10T07:40:48Z</time>
      </trkpt>
      <trkpt lat="42.6680510" lon="1.4874340">
        <ele>2433.4</ele>
        <time>2021-08-10T07:40:51Z</time>
      </trkpt>
      <trkpt lat="42.6680540" lon="1.4874310">
        <ele>2433.4</ele>
        <time>2021-08-10T07:41:02Z</time>
      </trkpt>
      <trkpt lat="42.6680770" lon="1.4874350">
        <ele>2433.5</ele>
        <time>2021-08-10T07:41:10Z</time>
      </trkpt>
      <trkpt lat="42.6681350" lon="1.4874820">
        <ele>2433.8</ele>
        <time>2021-08-10T07:41:23Z</time>
      </trkpt>
      <trkpt lat="42.6683010" lon="1.4875850">
        <ele>2434.7</ele>
        <time>2021-08-10T07:42:08Z</time>
      </trkpt>
      <trkpt lat="42.6684480" lon="1.4877350">
        <ele>2435.9</ele>
        <time>2021-08-10T07:42:34Z</time>
      </trkpt>
      <trkpt lat="42.6686060" lon="1.4878520">
        <ele>2437.1</ele>
        <time>2021-08-10T07:43:14Z</time>
      </trkpt>
      <trkpt lat="42.6686240" lon="1.4878690">
        <ele>2437.3</ele>
        <time>2021-08-10T07:43:23Z</time>
      </trkpt>
      <trkpt lat="42.6686500" lon="1.4878100">
        <ele>2437.7</ele>
        <time>2021-08-10T07:43:43Z</time>
      </trkpt>
      <trkpt lat="42.6686650" lon="1.4877880">
        <ele>2437.9</ele>
        <time>2021-08-10T07:43:50Z</time>
      </trkpt>
      <trkpt lat="42.6686660" lon="1.4877910">
        <ele>2437.9</ele>
        <time>2021-08-10T07:43:52Z</time>
      </trkpt>
      <trkpt lat="42.6686690" lon="1.4877920">
        <ele>2438.0</ele>
        <time>2021-08-10T07:43:56Z</time>
      </trkpt>
      <trkpt lat="42.6686660" lon="1.4877890">
        <ele>2438.0</ele>
        <time>2021-08-10T07:43:57Z</time>
      </trkpt>
      <trkpt lat="42.6687690" lon="1.4877750">
        <ele>2439.4</ele>
        <time>2021-08-10T07:44:29Z</time>
      </trkpt>
      <trkpt lat="42.6687690" lon="1.4877520">
        <ele>2439.7</ele>
        <time>2021-08-10T07:44:47Z</time>
      </trkpt>
      <trkpt lat="42.6688840" lon="1.4877090">
        <ele>2442.1</ele>
        <time>2021-08-10T07:45:30Z</time>
      </trkpt>
      <trkpt lat="42.6689040" lon="1.4877240">
        <ele>2442.6</ele>
        <time>2021-08-10T07:45:34Z</time>
      </trkpt>
      <trkpt lat="42.6689200" lon="1.4877220">
        <ele>2443.0</ele>
        <time>2021-08-10T07:45:41Z</time>
      </trkpt>
      <trkpt lat="42.6689080" lon="1.4876990">
        <ele>2443.5</ele>
        <time>2021-08-10T07:45:57Z</time>
      </trkpt>
      <trkpt lat="42.6690760" lon="1.4876920">
        <ele>2448.8</ele>
        <time>2021-08-10T07:46:56Z</time>
      </trkpt>
      <trkpt lat="42.6691490" lon="1.4875650">
        <ele>2454.2</ele>
        <time>2021-08-10T07:47:41Z</time>
      </trkpt>
      <trkpt lat="42.6691190" lon="1.4875420">
        <ele>2455.6</ele>
        <time>2021-08-10T07:48:02Z</time>
      </trkpt>
      <trkpt lat="42.6690430" lon="1.4874020">
        <ele>2460.7</ele>
        <time>2021-08-10T07:49:22Z</time>
      </trkpt>
      <trkpt lat="42.6689720" lon="1.4872870">
        <ele>2465.1</ele>
        <time>2021-08-10T07:50:46Z</time>
      </trkpt>
      <trkpt lat="42.6689760" lon="1.4872740">
        <ele>2465.5</ele>
        <time>2021-08-10T07:50:52Z</time>
      </trkpt>
      <trkpt lat="42.6689890" lon="1.4872640">
        <ele>2466.0</ele>
        <time>2021-08-10T07:50:58Z</time>
      </trkpt>
      <trkpt lat="42.6689920" lon="1.4872630">
        <ele>2466.2</ele>
        <time>2021-08-10T07:50:59Z</time>
      </trkpt>
      <trkpt lat="42.6690370" lon="1.4872450">
        <ele>2468.0</ele>
        <time>2021-08-10T07:51:08Z</time>
      </trkpt>
      <trkpt lat="42.6690430" lon="1.4872390">
        <ele>2468.3</ele>
        <time>2021-08-10T07:51:11Z</time>
      </trkpt>
      <trkpt lat="42.6690520" lon="1.4872340">
        <ele>2468.6</ele>
        <time>2021-08-10T07:51:14Z</time>
      </trkpt>
      <trkpt lat="42.6690680" lon="1.4872290">
        <ele>2469.3</ele>
        <time>2021-08-10T07:51:23Z</time>
      </trkpt>
      <trkpt lat="42.6690970" lon="1.4871690">
        <ele>2471.4</ele>
        <time>2021-08-10T07:51:59Z</time>
      </trkpt>
      <trkpt lat="42.6691300" lon="1.4870200">
        <ele>2476.3</ele>
        <time>2021-08-10T07:52:53Z</time>
      </trkpt>
      <trkpt lat="42.6691340" lon="1.4870590">
        <ele>2477.6</ele>
        <time>2021-08-10T07:53:09Z</time>
      </trkpt>
      <trkpt lat="42.6691750" lon="1.4870770">
        <ele>2479.5</ele>
        <time>2021-08-10T07:53:57Z</time>
      </trkpt>
      <trkpt lat="42.6691730" lon="1.4870890">
        <ele>2480.0</ele>
        <time>2021-08-10T07:54:04Z</time>
      </trkpt>
      <trkpt lat="42.6691980" lon="1.4870920">
        <ele>2481.2</ele>
        <time>2021-08-10T07:54:29Z</time>
      </trkpt>
      <trkpt lat="42.6691970" lon="1.4870890">
        <ele>2481.3</ele>
        <time>2021-08-10T07:54:30Z</time>
      </trkpt>
      <trkpt lat="42.6691930" lon="1.4870890">
        <ele>2481.5</ele>
        <time>2021-08-10T07:54:31Z</time>
      </trkpt>
      <trkpt lat="42.6691960" lon="1.4870960">
        <ele>2481.8</ele>
        <time>2021-08-10T07:54:47Z</time>
      </trkpt>
      <trkpt lat="42.6692470" lon="1.4870870">
        <ele>2484.4</ele>
        <time>2021-08-10T07:55:15Z</time>
      </trkpt>
      <trkpt lat="42.6693030" lon="1.4870960">
        <ele>2487.5</ele>
        <time>2021-08-10T07:55:39Z</time>
      </trkpt>
      <trkpt lat="42.6692950" lon="1.4870820">
        <ele>2488.2</ele>
        <time>2021-08-10T07:55:51Z</time>
      </trkpt>
      <trkpt lat="42.6692910" lon="1.4870770">
        <ele>2488.5</ele>
        <time>2021-08-10T07:55:52Z</time>
      </trkpt>
      <trkpt lat="42.6692840" lon="1.4870340">
        <ele>2490.4</ele>
        <time>2021-08-10T07:56:16Z</time>
      </trkpt>
      <trkpt lat="42.6692930" lon="1.4870180">
        <ele>2491.2</ele>
        <time>2021-08-10T07:56:25Z</time>
      </trkpt>
      <trkpt lat="42.6692910" lon="1.4870130">
        <ele>2491.5</ele>
        <time>2021-08-10T07:56:35Z</time>
      </trkpt>
      <trkpt lat="42.6692920" lon="1.4870120">
        <ele>2491.5</ele>
        <time>2021-08-10T07:56:36Z</time>
      </trkpt>
      <trkpt lat="42.6692910" lon="1.4870130">
        <ele>2491.6</ele>
        <time>2021-08-10T07:56:37Z</time>
      </trkpt>
      <trkpt lat="42.6692810" lon="1.4870140">
        <ele>2492.2</ele>
        <time>2021-08-10T07:56:46Z</time>
      </trkpt>
      <trkpt lat="42.6692800" lon="1.4870180">
        <ele>2492.4</ele>
        <time>2021-08-10T07:56:48Z</time>
      </trkpt>
      <trkpt lat="42.6692790" lon="1.4870180">
        <ele>2492.4</ele>
        <time>2021-08-10T07:56:49Z</time>
      </trkpt>
      <trkpt lat="42.6692770" lon="1.4870190">
        <ele>2492.6</ele>
        <time>2021-08-10T07:56:50Z</time>
      </trkpt>
      <trkpt lat="42.6692730" lon="1.4870170">
        <ele>2492.8</ele>
        <time>2021-08-10T07:56:52Z</time>
      </trkpt>
      <trkpt lat="42.6692670" lon="1.4870150">
        <ele>2493.2</ele>
        <time>2021-08-10T07:57:15Z</time>
      </trkpt>
      <trkpt lat="42.6692770" lon="1.4870160">
        <ele>2493.8</ele>
        <time>2021-08-10T07:57:24Z</time>
      </trkpt>
      <trkpt lat="42.6693290" lon="1.4870370">
        <ele>2497.0</ele>
        <time>2021-08-10T07:57:39Z</time>
      </trkpt>
      <trkpt lat="42.6693310" lon="1.4870350">
        <ele>2497.1</ele>
        <time>2021-08-10T07:57:40Z</time>
      </trkpt>
      <trkpt lat="42.6693300" lon="1.4870300">
        <ele>2497.3</ele>
        <time>2021-08-10T07:57:42Z</time>
      </trkpt>
      <trkpt lat="42.6693350" lon="1.4870270">
        <ele>2497.6</ele>
        <time>2021-08-10T07:57:45Z</time>
      </trkpt>
      <trkpt lat="42.6693420" lon="1.4870260">
        <ele>2498.0</ele>
        <time>2021-08-10T07:57:50Z</time>
      </trkpt>
      <trkpt lat="42.6693610" lon="1.4869920">
        <ele>2499.7</ele>
        <time>2021-08-10T07:58:10Z</time>
      </trkpt>
      <trkpt lat="42.6693600" lon="1.4869880">
        <ele>2499.8</ele>
        <time>2021-08-10T07:58:14Z</time>
      </trkpt>
      <trkpt lat="42.6693640" lon="1.4869870">
        <ele>2500.0</ele>
        <time>2021-08-10T07:58:20Z</time>
      </trkpt>
      <trkpt lat="42.6693780" lon="1.4869610">
        <ele>2501.2</ele>
        <time>2021-08-10T07:58:48Z</time>
      </trkpt>
      <trkpt lat="42.6694630" lon="1.4868370">
        <ele>2506.5</ele>
        <time>2021-08-10T08:00:10Z</time>
      </trkpt>
      <trkpt lat="42.6694430" lon="1.4868020">
        <ele>2507.7</ele>
        <time>2021-08-10T08:00:32Z</time>
      </trkpt>
      <trkpt lat="42.6694220" lon="1.4867940">
        <ele>2508.5</ele>
        <time>2021-08-10T08:00:45Z</time>
      </trkpt>
      <trkpt lat="42.6694120" lon="1.4867740">
        <ele>2509.1</ele>
        <time>2021-08-10T08:00:52Z</time>
      </trkpt>
      <trkpt lat="42.6693590" lon="1.4866460">
        <ele>2513.1</ele>
        <time>2021-08-10T08:01:28Z</time>
      </trkpt>
      <trkpt lat="42.6693240" lon="1.4866690">
        <ele>2514.5</ele>
        <time>2021-08-10T08:01:47Z</time>
      </trkpt>
      <trkpt lat="42.6692720" lon="1.4864530">
        <ele>2520.1</ele>
        <time>2021-08-10T08:03:04Z</time>
      </trkpt>
      <trkpt lat="42.6693020" lon="1.4864200">
        <ele>2521.2</ele>
        <time>2021-08-10T08:03:28Z</time>
      </trkpt>
      <trkpt lat="42.6693030" lon="1.4864170">
        <ele>2521.3</ele>
        <time>2021-08-10T08:03:29Z</time>
      </trkpt>
      <trkpt lat="42.6693020" lon="1.4864170">
        <ele>2521.3</ele>
        <time>2021-08-10T08:03:30Z</time>
      </trkpt>
      <trkpt lat="42.6693010" lon="1.4864170">
        <ele>2521.3</ele>
        <time>2021-08-10T08:03:32Z</time>
      </trkpt>
      <trkpt lat="42.6693000" lon="1.4864140">
        <ele>2521.4</ele>
        <time>2021-08-10T08:03:34Z</time>
      </trkpt>
      <trkpt lat="42.6692970" lon="1.4864130">
        <ele>2521.4</ele>
        <time>2021-08-10T08:03:38Z</time>
      </trkpt>
      <trkpt lat="42.6692930" lon="1.4863980">
        <ele>2521.8</ele>
        <time>2021-08-10T08:03:43Z</time>
      </trkpt>
      <trkpt lat="42.6692580" lon="1.4863120">
        <ele>2523.5</ele>
        <time>2021-08-10T08:04:00Z</time>
      </trkpt>
      <trkpt lat="42.6692730" lon="1.4863130">
        <ele>2523.9</ele>
        <time>2021-08-10T08:04:11Z</time>
      </trkpt>
      <trkpt lat="42.6693030" lon="1.4863280">
        <ele>2524.7</ele>
        <time>2021-08-10T08:04:26Z</time>
      </trkpt>
      <trkpt lat="42.6693280" lon="1.4863530">
        <ele>2525.6</ele>
        <time>2021-08-10T08:04:33Z</time>
      </trkpt>
      <trkpt lat="42.6694560" lon="1.4863900">
        <ele>2530.2</ele>
        <time>2021-08-10T08:05:47Z</time>
      </trkpt>
      <trkpt lat="42.6694560" lon="1.4863820">
        <ele>2530.4</ele>
        <time>2021-08-10T08:05:49Z</time>
      </trkpt>
      <trkpt lat="42.6694530" lon="1.4863710">
        <ele>2530.7</ele>
        <time>2021-08-10T08:05:51Z</time>
      </trkpt>
      <trkpt lat="42.6694480" lon="1.4863670">
        <ele>2531.0</ele>
        <time>2021-08-10T08:05:53Z</time>
      </trkpt>
      <trkpt lat="42.6694780" lon="1.4862190">
        <ele>2534.8</ele>
        <time>2021-08-10T08:06:25Z</time>
      </trkpt>
      <trkpt lat="42.6694700" lon="1.4861880">
        <ele>2535.5</ele>
        <time>2021-08-10T08:06:33Z</time>
      </trkpt>
      <trkpt lat="42.6694640" lon="1.4861870">
        <ele>2535.7</ele>
        <time>2021-08-10T08:06:46Z</time>
      </trkpt>
      <trkpt lat="42.6694660" lon="1.4861810">
        <ele>2535.8</ele>
        <time>2021-08-10T08:06:55Z</time>
      </trkpt>
      <trkpt lat="42.6694890" lon="1.4861630">
        <ele>2536.5</ele>
        <time>2021-08-10T08:07:04Z</time>
      </trkpt>
      <trkpt lat="42.6695540" lon="1.4861530">
        <ele>2538.0</ele>
        <time>2021-08-10T08:07:40Z</time>
      </trkpt>
      <trkpt lat="42.6696150" lon="1.4861910">
        <ele>2539.5</ele>
        <time>2021-08-10T08:08:25Z</time>
      </trkpt>
      <trkpt lat="42.6696320" lon="1.4861950">
        <ele>2539.9</ele>
        <time>2021-08-10T08:09:04Z</time>
      </trkpt>
      <trkpt lat="42.6697080" lon="1.4861060">
        <ele>2542.6</ele>
        <time>2021-08-10T08:09:32Z</time>
      </trkpt>
      <trkpt lat="42.6697150" lon="1.4861140">
        <ele>2542.8</ele>
        <time>2021-08-10T08:09:35Z</time>
      </trkpt>
      <trkpt lat="42.6697210" lon="1.4861150">
        <ele>2543.0</ele>
        <time>2021-08-10T08:09:39Z</time>
      </trkpt>
      <trkpt lat="42.6697210" lon="1.4861090">
        <ele>2543.1</ele>
        <time>2021-08-10T08:09:44Z</time>
      </trkpt>
      <trkpt lat="42.6697200" lon="1.4860900">
        <ele>2543.5</ele>
        <time>2021-08-10T08:09:47Z</time>
      </trkpt>
      <trkpt lat="42.6697920" lon="1.4860670">
        <ele>2545.8</ele>
        <time>2021-08-10T08:10:31Z</time>
      </trkpt>
      <trkpt lat="42.6699250" lon="1.4860950">
        <ele>2549.9</ele>
        <time>2021-08-10T08:11:12Z</time>
      </trkpt>
      <trkpt lat="42.6699380" lon="1.4860800">
        <ele>2550.4</ele>
        <time>2021-08-10T08:11:16Z</time>
      </trkpt>
      <trkpt lat="42.6700130" lon="1.4860190">
        <ele>2552.9</ele>
        <time>2021-08-10T08:11:30Z</time>
      </trkpt>
      <trkpt lat="42.6700650" lon="1.4858990">
        <ele>2555.3</ele>
        <time>2021-08-10T08:11:49Z</time>
      </trkpt>
      <trkpt lat="42.6700640" lon="1.4858980">
        <ele>2555.4</ele>
        <time>2021-08-10T08:11:51Z</time>
      </trkpt>
      <trkpt lat="42.6700640" lon="1.4858960">
        <ele>2555.4</ele>
        <time>2021-08-10T08:11:52Z</time>
      </trkpt>
      <trkpt lat="42.6700770" lon="1.4858670">
        <ele>2555.9</ele>
        <time>2021-08-10T08:11:57Z</time>
      </trkpt>
      <trkpt lat="42.6700760" lon="1.4858400">
        <ele>2556.4</ele>
        <time>2021-08-10T08:12:15Z</time>
      </trkpt>
      <trkpt lat="42.6700770" lon="1.4858480">
        <ele>2556.5</ele>
        <time>2021-08-10T08:12:33Z</time>
      </trkpt>
      <trkpt lat="42.6700680" lon="1.4858350">
        <ele>2556.8</ele>
        <time>2021-08-10T08:12:53Z</time>
      </trkpt>
      <trkpt lat="42.6700990" lon="1.4858030">
        <ele>2557.7</ele>
        <time>2021-08-10T08:13:17Z</time>
      </trkpt>
      <trkpt lat="42.6701120" lon="1.4857830">
        <ele>2558.3</ele>
        <time>2021-08-10T08:13:22Z</time>
      </trkpt>
      <trkpt lat="42.6701290" lon="1.4857110">
        <ele>2560.0</ele>
        <time>2021-08-10T08:13:35Z</time>
      </trkpt>
      <trkpt lat="42.6701320" lon="1.4856570">
        <ele>2561.3</ele>
        <time>2021-08-10T08:13:48Z</time>
      </trkpt>
      <trkpt lat="42.6701340" lon="1.4856460">
        <ele>2561.6</ele>
        <time>2021-08-10T08:13:50Z</time>
      </trkpt>
      <trkpt lat="42.6701310" lon="1.4855620">
        <ele>2563.9</ele>
        <time>2021-08-10T08:14:04Z</time>
      </trkpt>
      <trkpt lat="42.6701110" lon="1.4855200">
        <ele>2565.2</ele>
        <time>2021-08-10T08:14:13Z</time>
      </trkpt>
      <trkpt lat="42.6701130" lon="1.4855180">
        <ele>2565.3</ele>
        <time>2021-08-10T08:14:14Z</time>
      </trkpt>
      <trkpt lat="42.6701150" lon="1.4855150">
        <ele>2565.4</ele>
        <time>2021-08-10T08:14:15Z</time>
      </trkpt>
      <trkpt lat="42.6701190" lon="1.4854930">
        <ele>2566.0</ele>
        <time>2021-08-10T08:14:19Z</time>
      </trkpt>
      <trkpt lat="42.6701300" lon="1.4854270">
        <ele>2567.6</ele>
        <time>2021-08-10T08:14:43Z</time>
      </trkpt>
      <trkpt lat="42.6701000" lon="1.4854220">
        <ele>2568.5</ele>
        <time>2021-08-10T08:14:55Z</time>
      </trkpt>
      <trkpt lat="42.6701400" lon="1.4853860">
        <ele>2569.8</ele>
        <time>2021-08-10T08:15:14Z</time>
      </trkpt>
      <trkpt lat="42.6701770" lon="1.4853300">
        <ele>2571.2</ele>
        <time>2021-08-10T08:15:27Z</time>
      </trkpt>
      <trkpt lat="42.6702010" lon="1.4852590">
        <ele>2572.5</ele>
        <time>2021-08-10T08:16:20Z</time>
      </trkpt>
      <trkpt lat="42.6702050" lon="1.4852680">
        <ele>2572.7</ele>
        <time>2021-08-10T08:16:24Z</time>
      </trkpt>
      <trkpt lat="42.6701570" lon="1.4852870">
        <ele>2573.7</ele>
        <time>2021-08-10T08:16:47Z</time>
      </trkpt>
      <trkpt lat="42.6701380" lon="1.4852810">
        <ele>2574.1</ele>
        <time>2021-08-10T08:16:55Z</time>
      </trkpt>
      <trkpt lat="42.6701290" lon="1.4852740">
        <ele>2574.3</ele>
        <time>2021-08-10T08:16:58Z</time>
      </trkpt>
      <trkpt lat="42.6701260" lon="1.4852760">
        <ele>2574.4</ele>
        <time>2021-08-10T08:17:00Z</time>
      </trkpt>
      <trkpt lat="42.6701170" lon="1.4852570">
        <ele>2574.8</ele>
        <time>2021-08-10T08:17:07Z</time>
      </trkpt>
      <trkpt lat="42.6701070" lon="1.4852450">
        <ele>2575.0</ele>
        <time>2021-08-10T08:17:11Z</time>
      </trkpt>
      <trkpt lat="42.6700940" lon="1.4851750">
        <ele>2576.2</ele>
        <time>2021-08-10T08:17:53Z</time>
      </trkpt>
      <trkpt lat="42.6700750" lon="1.4851230">
        <ele>2577.3</ele>
        <time>2021-08-10T08:18:10Z</time>
      </trkpt>
      <trkpt lat="42.6700540" lon="1.4851290">
        <ele>2577.9</ele>
        <time>2021-08-10T08:18:30Z</time>
      </trkpt>
      <trkpt lat="42.6700320" lon="1.4850960">
        <ele>2578.8</ele>
        <time>2021-08-10T08:18:46Z</time>
      </trkpt>
      <trkpt lat="42.6700330" lon="1.4850190">
        <ele>2580.6</ele>
        <time>2021-08-10T08:18:59Z</time>
      </trkpt>
      <trkpt lat="42.6700520" lon="1.4849880">
        <ele>2581.7</ele>
        <time>2021-08-10T08:19:12Z</time>
      </trkpt>
      <trkpt lat="42.6700590" lon="1.4849850">
        <ele>2582.0</ele>
        <time>2021-08-10T08:19:15Z</time>
      </trkpt>
      <trkpt lat="42.6700620" lon="1.4849830">
        <ele>2582.1</ele>
        <time>2021-08-10T08:19:16Z</time>
      </trkpt>
      <trkpt lat="42.6700650" lon="1.4849820">
        <ele>2582.2</ele>
        <time>2021-08-10T08:19:17Z</time>
      </trkpt>
      <trkpt lat="42.6700670" lon="1.4849770">
        <ele>2582.4</ele>
        <time>2021-08-10T08:19:18Z</time>
      </trkpt>
      <trkpt lat="42.6700690" lon="1.4849720">
        <ele>2582.5</ele>
        <time>2021-08-10T08:19:19Z</time>
      </trkpt>
      <trkpt lat="42.6700670" lon="1.4849630">
        <ele>2582.8</ele>
        <time>2021-08-10T08:19:23Z</time>
      </trkpt>
      <trkpt lat="42.6700610" lon="1.4849500">
        <ele>2583.2</ele>
        <time>2021-08-10T08:19:26Z</time>
      </trkpt>
      <trkpt lat="42.6700590" lon="1.4849460">
        <ele>2583.4</ele>
        <time>2021-08-10T08:19:27Z</time>
      </trkpt>
      <trkpt lat="42.6700620" lon="1.4847980">
        <ele>2588.2</ele>
        <time>2021-08-10T08:20:26Z</time>
      </trkpt>
      <trkpt lat="42.6699500" lon="1.4846570">
        <ele>2594.7</ele>
        <time>2021-08-10T08:21:38Z</time>
      </trkpt>
      <trkpt lat="42.6699280" lon="1.4845400">
        <ele>2597.7</ele>
        <time>2021-08-10T08:22:33Z</time>
      </trkpt>
      <trkpt lat="42.6698980" lon="1.4845370">
        <ele>2598.6</ele>
        <time>2021-08-10T08:22:46Z</time>
      </trkpt>
      <trkpt lat="42.6698930" lon="1.4845370">
        <ele>2598.7</ele>
        <time>2021-08-10T08:22:47Z</time>
      </trkpt>
      <trkpt lat="42.6698900" lon="1.4845350">
        <ele>2598.8</ele>
        <time>2021-08-10T08:22:48Z</time>
      </trkpt>
      <trkpt lat="42.6698810" lon="1.4845300">
        <ele>2599.1</ele>
        <time>2021-08-10T08:22:51Z</time>
      </trkpt>
      <trkpt lat="42.6698740" lon="1.4845230">
        <ele>2599.3</ele>
        <time>2021-08-10T08:22:53Z</time>
      </trkpt>
      <trkpt lat="42.6698720" lon="1.4845180">
        <ele>2599.4</ele>
        <time>2021-08-10T08:22:54Z</time>
      </trkpt>
      <trkpt lat="42.6698710" lon="1.4845120">
        <ele>2599.5</ele>
        <time>2021-08-10T08:22:55Z</time>
      </trkpt>
      <trkpt lat="42.6698670" lon="1.4845070">
        <ele>2599.7</ele>
        <time>2021-08-10T08:22:56Z</time>
      </trkpt>
      <trkpt lat="42.6698660" lon="1.4845040">
        <ele>2599.7</ele>
        <time>2021-08-10T08:22:57Z</time>
      </trkpt>
      <trkpt lat="42.6698610" lon="1.4845000">
        <ele>2599.8</ele>
        <time>2021-08-10T08:22:59Z</time>
      </trkpt>
      <trkpt lat="42.6698590" lon="1.4844970">
        <ele>2599.9</ele>
        <time>2021-08-10T08:23:00Z</time>
      </trkpt>
      <trkpt lat="42.6698440" lon="1.4844900">
        <ele>2600.2</ele>
        <time>2021-08-10T08:23:06Z</time>
      </trkpt>
      <trkpt lat="42.6698420" lon="1.4844940">
        <ele>2600.3</ele>
        <time>2021-08-10T08:23:09Z</time>
      </trkpt>
      <trkpt lat="42.6698370" lon="1.4845030">
        <ele>2600.5</ele>
        <time>2021-08-10T08:23:11Z</time>
      </trkpt>
      <trkpt lat="42.6698320" lon="1.4845070">
        <ele>2600.6</ele>
        <time>2021-08-10T08:23:14Z</time>
      </trkpt>
      <trkpt lat="42.6698190" lon="1.4844740">
        <ele>2601.1</ele>
        <time>2021-08-10T08:23:45Z</time>
      </trkpt>
      <trkpt lat="42.6698080" lon="1.4844560">
        <ele>2601.3</ele>
        <time>2021-08-10T08:23:55Z</time>
      </trkpt>
      <trkpt lat="42.6697690" lon="1.4844390">
        <ele>2601.7</ele>
        <time>2021-08-10T08:24:13Z</time>
      </trkpt>
      <trkpt lat="42.6696720" lon="1.4843790">
        <ele>2601.7</ele>
        <time>2021-08-10T08:24:58Z</time>
      </trkpt>
      <trkpt lat="42.6696570" lon="1.4843460">
        <ele>2601.5</ele>
        <time>2021-08-10T08:25:09Z</time>
      </trkpt>
      <trkpt lat="42.6696460" lon="1.4843430">
        <ele>2601.3</ele>
        <time>2021-08-10T08:25:29Z</time>
      </trkpt>
      <trkpt lat="42.6696120" lon="1.4842740">
        <ele>2600.7</ele>
        <time>2021-08-10T08:26:10Z</time>
      </trkpt>
      <trkpt lat="42.6695780" lon="1.4841800">
        <ele>2600.1</ele>
        <time>2021-08-10T08:26:48Z</time>
      </trkpt>
      <trkpt lat="42.6695730" lon="1.4841240">
        <ele>2599.9</ele>
        <time>2021-08-10T08:27:00Z</time>
      </trkpt>
      <trkpt lat="42.6695370" lon="1.4840970">
        <ele>2599.9</ele>
        <time>2021-08-10T08:27:30Z</time>
      </trkpt>
      <trkpt lat="42.6695140" lon="1.4840750">
        <ele>2600.0</ele>
        <time>2021-08-10T08:27:42Z</time>
      </trkpt>
      <trkpt lat="42.6694860" lon="1.4840170">
        <ele>2600.3</ele>
        <time>2021-08-10T08:28:08Z</time>
      </trkpt>
      <trkpt lat="42.6694510" lon="1.4839250">
        <ele>2601.0</ele>
        <time>2021-08-10T08:28:52Z</time>
      </trkpt>
      <trkpt lat="42.6694520" lon="1.4839290">
        <ele>2601.0</ele>
        <time>2021-08-10T08:29:20Z</time>
      </trkpt>
      <trkpt lat="42.6694490" lon="1.4839270">
        <ele>2601.0</ele>
        <time>2021-08-10T08:29:23Z</time>
      </trkpt>
      <trkpt lat="42.6694480" lon="1.4839200">
        <ele>2601.1</ele>
        <time>2021-08-10T08:29:29Z</time>
      </trkpt>
      <trkpt lat="42.6694580" lon="1.4839330">
        <ele>2601.2</ele>
        <time>2021-08-10T08:29:47Z</time>
      </trkpt>
      <trkpt lat="42.6694580" lon="1.4839370">
        <ele>2601.2</ele>
        <time>2021-08-10T08:29:49Z</time>
      </trkpt>
      <trkpt lat="42.6694580" lon="1.4839370">
        <ele>2601.2</ele>
        <time>2021-08-10T08:29:50Z</time>
      </trkpt>
      <trkpt lat="42.6694580" lon="1.4839370">
        <ele>2601.2</ele>
        <time>2021-08-10T08:29:51Z</time>
      </trkpt>
      <trkpt lat="42.6694600" lon="1.4839360">
        <ele>2601.3</ele>
        <time>2021-08-10T08:29:54Z</time>
      </trkpt>
      <trkpt lat="42.6694610" lon="1.4839350">
        <ele>2601.3</ele>
        <time>2021-08-10T08:29:55Z</time>
      </trkpt>
      <trkpt lat="42.6694630" lon="1.4839350">
        <ele>2601.3</ele>
        <time>2021-08-10T08:29:56Z</time>
      </trkpt>
      <trkpt lat="42.6694660" lon="1.4839350">
        <ele>2601.3</ele>
        <time>2021-08-10T08:29:57Z</time>
      </trkpt>
      <trkpt lat="42.6694750" lon="1.4839390">
        <ele>2601.4</ele>
        <time>2021-08-10T08:30:08Z</time>
      </trkpt>
      <trkpt lat="42.6694750" lon="1.4839390">
        <ele>2601.4</ele>
        <time>2021-08-10T08:30:09Z</time>
      </trkpt>
      <trkpt lat="42.6694730" lon="1.4839400">
        <ele>2601.4</ele>
        <time>2021-08-10T08:30:11Z</time>
      </trkpt>
      <trkpt lat="42.6694120" lon="1.4838840">
        <ele>2602.0</ele>
        <time>2021-08-10T08:46:09Z</time>
      </trkpt>
      <trkpt lat="42.6694240" lon="1.4839030">
        <ele>2602.2</ele>
        <time>2021-08-10T08:46:12Z</time>
      </trkpt>
      <trkpt lat="42.6694270" lon="1.4839030">
        <ele>2602.2</ele>
        <time>2021-08-10T08:46:14Z</time>
      </trkpt>
      <trkpt lat="42.6694150" lon="1.4839150">
        <ele>2602.3</ele>
        <time>2021-08-10T08:46:16Z</time>
      </trkpt>
      <trkpt lat="42.6694130" lon="1.4839150">
        <ele>2602.3</ele>
        <time>2021-08-10T08:46:22Z</time>
      </trkpt>
      <trkpt lat="42.6694200" lon="1.4839110">
        <ele>2602.4</ele>
        <time>2021-08-10T08:46:29Z</time>
      </trkpt>
      <trkpt lat="42.6694200" lon="1.4839080">
        <ele>2602.4</ele>
        <time>2021-08-10T08:46:30Z</time>
      </trkpt>
      <trkpt lat="42.6694140" lon="1.4838870">
        <ele>2602.5</ele>
        <time>2021-08-10T08:46:33Z</time>
      </trkpt>
      <trkpt lat="42.6694140" lon="1.4838830">
        <ele>2602.5</ele>
        <time>2021-08-10T08:46:34Z</time>
      </trkpt>
      <trkpt lat="42.6694160" lon="1.4838630">
        <ele>2602.6</ele>
        <time>2021-08-10T08:46:38Z</time>
      </trkpt>
      <trkpt lat="42.6694170" lon="1.4838590">
        <ele>2602.6</ele>
        <time>2021-08-10T08:46:39Z</time>
      </trkpt>
      <trkpt lat="42.6694130" lon="1.4838500">
        <ele>2602.7</ele>
        <time>2021-08-10T08:46:43Z</time>
      </trkpt>
      <trkpt lat="42.6694120" lon="1.4838490">
        <ele>2602.7</ele>
        <time>2021-08-10T08:46:44Z</time>
      </trkpt>
      <trkpt lat="42.6694090" lon="1.4838360">
        <ele>2602.7</ele>
        <time>2021-08-10T08:46:47Z</time>
      </trkpt>
      <trkpt lat="42.6694020" lon="1.4838290">
        <ele>2602.8</ele>
        <time>2021-08-10T08:46:49Z</time>
      </trkpt>
      <trkpt lat="42.6693990" lon="1.4838280">
        <ele>2602.8</ele>
        <time>2021-08-10T08:46:50Z</time>
      </trkpt>
      <trkpt lat="42.6693990" lon="1.4838260">
        <ele>2602.8</ele>
        <time>2021-08-10T08:46:51Z</time>
      </trkpt>
      <trkpt lat="42.6692960" lon="1.4836850">
        <ele>2603.5</ele>
        <time>2021-08-10T08:48:13Z</time>
      </trkpt>
      <trkpt lat="42.6692800" lon="1.4834990">
        <ele>2603.4</ele>
        <time>2021-08-10T08:49:41Z</time>
      </trkpt>
      <trkpt lat="42.6692080" lon="1.4832720">
        <ele>2601.0</ele>
        <time>2021-08-10T08:50:18Z</time>
      </trkpt>
      <trkpt lat="42.6691640" lon="1.4830490">
        <ele>2597.7</ele>
        <time>2021-08-10T08:51:05Z</time>
      </trkpt>
      <trkpt lat="42.6691630" lon="1.4830480">
        <ele>2597.7</ele>
        <time>2021-08-10T08:51:15Z</time>
      </trkpt>
      <trkpt lat="42.6691470" lon="1.4830210">
        <ele>2597.1</ele>
        <time>2021-08-10T08:51:36Z</time>
      </trkpt>
      <trkpt lat="42.6691460" lon="1.4830200">
        <ele>2597.1</ele>
        <time>2021-08-10T08:51:37Z</time>
      </trkpt>
      <trkpt lat="42.6691440" lon="1.4830190">
        <ele>2597.1</ele>
        <time>2021-08-10T08:51:38Z</time>
      </trkpt>
      <trkpt lat="42.6690550" lon="1.4829220">
        <ele>2595.1</ele>
        <time>2021-08-10T08:51:58Z</time>
      </trkpt>
      <trkpt lat="42.6690490" lon="1.4829210">
        <ele>2595.0</ele>
        <time>2021-08-10T08:52:04Z</time>
      </trkpt>
      <trkpt lat="42.6690410" lon="1.4828930">
        <ele>2594.7</ele>
        <time>2021-08-10T08:52:15Z</time>
      </trkpt>
      <trkpt lat="42.6690270" lon="1.4827000">
        <ele>2592.2</ele>
        <time>2021-08-10T08:53:28Z</time>
      </trkpt>
      <trkpt lat="42.6690060" lon="1.4826220">
        <ele>2590.9</ele>
        <time>2021-08-10T08:53:58Z</time>
      </trkpt>
      <trkpt lat="42.6689690" lon="1.4824340">
        <ele>2587.3</ele>
        <time>2021-08-10T08:55:36Z</time>
      </trkpt>
      <trkpt lat="42.6689660" lon="1.4823130">
        <ele>2585.2</ele>
        <time>2021-08-10T08:56:21Z</time>
      </trkpt>
      <trkpt lat="42.6689120" lon="1.4820990">
        <ele>2582.3</ele>
        <time>2021-08-10T08:57:22Z</time>
      </trkpt>
      <trkpt lat="42.6688920" lon="1.4819890">
        <ele>2581.8</ele>
        <time>2021-08-10T08:57:55Z</time>
      </trkpt>
      <trkpt lat="42.6689060" lon="1.4819050">
        <ele>2581.7</ele>
        <time>2021-08-10T08:58:28Z</time>
      </trkpt>
      <trkpt lat="42.6688840" lon="1.4818400">
        <ele>2581.8</ele>
        <time>2021-08-10T08:58:50Z</time>
      </trkpt>
      <trkpt lat="42.6688810" lon="1.4816990">
        <ele>2582.3</ele>
        <time>2021-08-10T08:59:54Z</time>
      </trkpt>
      <trkpt lat="42.6688520" lon="1.4815390">
        <ele>2583.3</ele>
        <time>2021-08-10T09:01:21Z</time>
      </trkpt>
      <trkpt lat="42.6688510" lon="1.4815300">
        <ele>2583.4</ele>
        <time>2021-08-10T09:01:27Z</time>
      </trkpt>
      <trkpt lat="42.6688490" lon="1.4815290">
        <ele>2583.4</ele>
        <time>2021-08-10T09:01:28Z</time>
      </trkpt>
      <trkpt lat="42.6688720" lon="1.4815220">
        <ele>2583.6</ele>
        <time>2021-08-10T09:01:43Z</time>
      </trkpt>
      <trkpt lat="42.6688730" lon="1.4815120">
        <ele>2583.7</ele>
        <time>2021-08-10T09:01:59Z</time>
      </trkpt>
      <trkpt lat="42.6688750" lon="1.4815300">
        <ele>2583.8</ele>
        <time>2021-08-10T09:02:21Z</time>
      </trkpt>
      <trkpt lat="42.6688710" lon="1.4815240">
        <ele>2583.8</ele>
        <time>2021-08-10T09:02:28Z</time>
      </trkpt>
      <trkpt lat="42.6688620" lon="1.4815030">
        <ele>2584.0</ele>
        <time>2021-08-10T09:02:41Z</time>
      </trkpt>
      <trkpt lat="42.6688550" lon="1.4814890">
        <ele>2584.1</ele>
        <time>2021-08-10T09:02:43Z</time>
      </trkpt>
      <trkpt lat="42.6688680" lon="1.4814700">
        <ele>2584.2</ele>
        <time>2021-08-10T09:02:54Z</time>
      </trkpt>
      <trkpt lat="42.6688610" lon="1.4814630">
        <ele>2584.3</ele>
        <time>2021-08-10T09:02:57Z</time>
      </trkpt>
      <trkpt lat="42.6688610" lon="1.4814500">
        <ele>2584.4</ele>
        <time>2021-08-10T09:03:00Z</time>
      </trkpt>
      <trkpt lat="42.6688620" lon="1.4814470">
        <ele>2584.4</ele>
        <time>2021-08-10T09:03:02Z</time>
      </trkpt>
      <trkpt lat="42.6688590" lon="1.4814470">
        <ele>2584.4</ele>
        <time>2021-08-10T09:03:05Z</time>
      </trkpt>
      <trkpt lat="42.6688580" lon="1.4814490">
        <ele>2584.4</ele>
        <time>2021-08-10T09:03:06Z</time>
      </trkpt>
      <trkpt lat="42.6688570" lon="1.4814500">
        <ele>2584.4</ele>
        <time>2021-08-10T09:03:07Z</time>
      </trkpt>
      <trkpt lat="42.6688470" lon="1.4814450">
        <ele>2584.5</ele>
        <time>2021-08-10T09:03:10Z</time>
      </trkpt>
      <trkpt lat="42.6688310" lon="1.4813680">
        <ele>2584.9</ele>
        <time>2021-08-10T09:04:00Z</time>
      </trkpt>
      <trkpt lat="42.6688310" lon="1.4813680">
        <ele>2584.9</ele>
        <time>2021-08-10T09:04:08Z</time>
      </trkpt>
      <trkpt lat="42.6688260" lon="1.4813740">
        <ele>2585.0</ele>
        <time>2021-08-10T09:04:11Z</time>
      </trkpt>
      <trkpt lat="42.6688260" lon="1.4813820">
        <ele>2585.0</ele>
        <time>2021-08-10T09:04:15Z</time>
      </trkpt>
      <trkpt lat="42.6688250" lon="1.4813780">
        <ele>2585.0</ele>
        <time>2021-08-10T09:04:17Z</time>
      </trkpt>
      <trkpt lat="42.6688210" lon="1.4813730">
        <ele>2585.1</ele>
        <time>2021-08-10T09:04:18Z</time>
      </trkpt>
      <trkpt lat="42.6688170" lon="1.4813640">
        <ele>2585.1</ele>
        <time>2021-08-10T09:04:24Z</time>
      </trkpt>
      <trkpt lat="42.6688110" lon="1.4813620">
        <ele>2585.2</ele>
        <time>2021-08-10T09:04:35Z</time>
      </trkpt>
      <trkpt lat="42.6688180" lon="1.4813190">
        <ele>2585.4</ele>
        <time>2021-08-10T09:05:29Z</time>
      </trkpt>
      <trkpt lat="42.6688230" lon="1.4812470">
        <ele>2585.7</ele>
        <time>2021-08-10T09:05:55Z</time>
      </trkpt>
      <trkpt lat="42.6688480" lon="1.4811960">
        <ele>2585.9</ele>
        <time>2021-08-10T09:07:05Z</time>
      </trkpt>
      <trkpt lat="42.6688330" lon="1.4811150">
        <ele>2586.0</ele>
        <time>2021-08-10T09:07:51Z</time>
      </trkpt>
      <trkpt lat="42.6688330" lon="1.4811210">
        <ele>2586.0</ele>
        <time>2021-08-10T09:07:57Z</time>
      </trkpt>
      <trkpt lat="42.6688380" lon="1.4810960">
        <ele>2586.0</ele>
        <time>2021-08-10T09:08:21Z</time>
      </trkpt>
      <trkpt lat="42.6688510" lon="1.4810790">
        <ele>2586.0</ele>
        <time>2021-08-10T09:08:26Z</time>
      </trkpt>
      <trkpt lat="42.6688530" lon="1.4810780">
        <ele>2586.0</ele>
        <time>2021-08-10T09:08:28Z</time>
      </trkpt>
      <trkpt lat="42.6688580" lon="1.4810840">
        <ele>2585.9</ele>
        <time>2021-08-10T09:08:31Z</time>
      </trkpt>
      <trkpt lat="42.6688630" lon="1.4810640">
        <ele>2585.9</ele>
        <time>2021-08-10T09:08:39Z</time>
      </trkpt>
      <trkpt lat="42.6688640" lon="1.4810440">
        <ele>2585.9</ele>
        <time>2021-08-10T09:08:44Z</time>
      </trkpt>
      <trkpt lat="42.6688470" lon="1.4810160">
        <ele>2585.7</ele>
        <time>2021-08-10T09:09:07Z</time>
      </trkpt>
      <trkpt lat="42.6688720" lon="1.4809940">
        <ele>2585.6</ele>
        <time>2021-08-10T09:09:34Z</time>
      </trkpt>
      <trkpt lat="42.6688720" lon="1.4809920">
        <ele>2585.6</ele>
        <time>2021-08-10T09:09:37Z</time>
      </trkpt>
      <trkpt lat="42.6688710" lon="1.4809840">
        <ele>2585.6</ele>
        <time>2021-08-10T09:09:45Z</time>
      </trkpt>
      <trkpt lat="42.6688590" lon="1.4810150">
        <ele>2585.5</ele>
        <time>2021-08-10T09:09:55Z</time>
      </trkpt>
      <trkpt lat="42.6688570" lon="1.4809790">
        <ele>2585.3</ele>
        <time>2021-08-10T09:10:09Z</time>
      </trkpt>
      <trkpt lat="42.6688610" lon="1.4807940">
        <ele>2584.8</ele>
        <time>2021-08-10T09:12:05Z</time>
      </trkpt>
      <trkpt lat="42.6688480" lon="1.4807970">
        <ele>2584.7</ele>
        <time>2021-08-10T09:12:12Z</time>
      </trkpt>
      <trkpt lat="42.6688360" lon="1.4808100">
        <ele>2584.7</ele>
        <time>2021-08-10T09:12:21Z</time>
      </trkpt>
      <trkpt lat="42.6689540" lon="1.4808040">
        <ele>2584.4</ele>
        <time>2021-08-10T09:12:45Z</time>
      </trkpt>
      <trkpt lat="42.6688990" lon="1.4807490">
        <ele>2584.0</ele>
        <time>2021-08-10T09:13:08Z</time>
      </trkpt>
      <trkpt lat="42.6688970" lon="1.4807420">
        <ele>2583.9</ele>
        <time>2021-08-10T09:13:12Z</time>
      </trkpt>
      <trkpt lat="42.6688960" lon="1.4807430">
        <ele>2583.9</ele>
        <time>2021-08-10T09:13:15Z</time>
      </trkpt>
      <trkpt lat="42.6688970" lon="1.4807410">
        <ele>2583.9</ele>
        <time>2021-08-10T09:13:16Z</time>
      </trkpt>
      <trkpt lat="42.6688930" lon="1.4807250">
        <ele>2583.8</ele>
        <time>2021-08-10T09:13:20Z</time>
      </trkpt>
      <trkpt lat="42.6688930" lon="1.4807060">
        <ele>2583.7</ele>
        <time>2021-08-10T09:13:22Z</time>
      </trkpt>
      <trkpt lat="42.6688960" lon="1.4806920">
        <ele>2583.6</ele>
        <time>2021-08-10T09:13:24Z</time>
      </trkpt>
      <trkpt lat="42.6688970" lon="1.4806850">
        <ele>2583.6</ele>
        <time>2021-08-10T09:13:28Z</time>
      </trkpt>
      <trkpt lat="42.6688900" lon="1.4806730">
        <ele>2583.5</ele>
        <time>2021-08-10T09:13:56Z</time>
      </trkpt>
      <trkpt lat="42.6688880" lon="1.4806700">
        <ele>2583.5</ele>
        <time>2021-08-10T09:13:57Z</time>
      </trkpt>
      <trkpt lat="42.6688830" lon="1.4806550">
        <ele>2583.4</ele>
        <time>2021-08-10T09:14:06Z</time>
      </trkpt>
      <trkpt lat="42.6688840" lon="1.4806550">
        <ele>2583.4</ele>
        <time>2021-08-10T09:14:07Z</time>
      </trkpt>
      <trkpt lat="42.6688840" lon="1.4806560">
        <ele>2583.4</ele>
        <time>2021-08-10T09:14:08Z</time>
      </trkpt>
      <trkpt lat="42.6688910" lon="1.4806560">
        <ele>2583.3</ele>
        <time>2021-08-10T09:14:15Z</time>
      </trkpt>
      <trkpt lat="42.6688910" lon="1.4806510">
        <ele>2583.3</ele>
        <time>2021-08-10T09:14:17Z</time>
      </trkpt>
      <trkpt lat="42.6689020" lon="1.4805220">
        <ele>2582.9</ele>
        <time>2021-08-10T09:15:11Z</time>
      </trkpt>
      <trkpt lat="42.6688760" lon="1.4805180">
        <ele>2582.9</ele>
        <time>2021-08-10T09:15:24Z</time>
      </trkpt>
      <trkpt lat="42.6689020" lon="1.4804410">
        <ele>2583.0</ele>
        <time>2021-08-10T09:16:34Z</time>
      </trkpt>
      <trkpt lat="42.6688830" lon="1.4803100">
        <ele>2583.3</ele>
        <time>2021-08-10T09:18:02Z</time>
      </trkpt>
      <trkpt lat="42.6689060" lon="1.4802880">
        <ele>2583.4</ele>
        <time>2021-08-10T09:18:20Z</time>
      </trkpt>
      <trkpt lat="42.6689710" lon="1.4802560">
        <ele>2583.5</ele>
        <time>2021-08-10T09:19:36Z</time>
      </trkpt>
      <trkpt lat="42.6689810" lon="1.4802680">
        <ele>2583.5</ele>
        <time>2021-08-10T09:20:02Z</time>
      </trkpt>
      <trkpt lat="42.6689810" lon="1.4802760">
        <ele>2583.5</ele>
        <time>2021-08-10T09:20:17Z</time>
      </trkpt>
      <trkpt lat="42.6689880" lon="1.4802720">
        <ele>2583.5</ele>
        <time>2021-08-10T09:20:28Z</time>
      </trkpt>
      <trkpt lat="42.6690110" lon="1.4802570">
        <ele>2583.5</ele>
        <time>2021-08-10T09:20:54Z</time>
      </trkpt>
      <trkpt lat="42.6690050" lon="1.4802500">
        <ele>2583.4</ele>
        <time>2021-08-10T09:21:00Z</time>
      </trkpt>
      <trkpt lat="42.6690060" lon="1.4802480">
        <ele>2583.4</ele>
        <time>2021-08-10T09:21:01Z</time>
      </trkpt>
      <trkpt lat="42.6690060" lon="1.4802470">
        <ele>2583.4</ele>
        <time>2021-08-10T09:21:03Z</time>
      </trkpt>
      <trkpt lat="42.6690060" lon="1.4802340">
        <ele>2583.4</ele>
        <time>2021-08-10T09:21:12Z</time>
      </trkpt>
      <trkpt lat="42.6690080" lon="1.4802320">
        <ele>2583.4</ele>
        <time>2021-08-10T09:21:13Z</time>
      </trkpt>
      <trkpt lat="42.6690220" lon="1.4802050">
        <ele>2583.3</ele>
        <time>2021-08-10T09:21:24Z</time>
      </trkpt>
      <trkpt lat="42.6690410" lon="1.4802040">
        <ele>2583.2</ele>
        <time>2021-08-10T09:21:33Z</time>
      </trkpt>
      <trkpt lat="42.6690650" lon="1.4801970">
        <ele>2583.2</ele>
        <time>2021-08-10T09:21:46Z</time>
      </trkpt>
      <trkpt lat="42.6690730" lon="1.4802030">
        <ele>2583.1</ele>
        <time>2021-08-10T09:21:59Z</time>
      </trkpt>
      <trkpt lat="42.6690950" lon="1.4801810">
        <ele>2583.1</ele>
        <time>2021-08-10T09:22:41Z</time>
      </trkpt>
      <trkpt lat="42.6691010" lon="1.4801610">
        <ele>2583.1</ele>
        <time>2021-08-10T09:22:50Z</time>
      </trkpt>
      <trkpt lat="42.6691120" lon="1.4801490">
        <ele>2583.1</ele>
        <time>2021-08-10T09:22:56Z</time>
      </trkpt>
      <trkpt lat="42.6691150" lon="1.4801430">
        <ele>2583.1</ele>
        <time>2021-08-10T09:22:59Z</time>
      </trkpt>
      <trkpt lat="42.6691240" lon="1.4801360">
        <ele>2583.2</ele>
        <time>2021-08-10T09:23:08Z</time>
      </trkpt>
      <trkpt lat="42.6691210" lon="1.4801170">
        <ele>2583.2</ele>
        <time>2021-08-10T09:23:15Z</time>
      </trkpt>
      <trkpt lat="42.6691070" lon="1.4800940">
        <ele>2583.5</ele>
        <time>2021-08-10T09:23:29Z</time>
      </trkpt>
      <trkpt lat="42.6690770" lon="1.4800930">
        <ele>2583.8</ele>
        <time>2021-08-10T09:24:27Z</time>
      </trkpt>
      <trkpt lat="42.6690700" lon="1.4800510">
        <ele>2584.4</ele>
        <time>2021-08-10T09:24:38Z</time>
      </trkpt>
      <trkpt lat="42.6690550" lon="1.4800170">
        <ele>2585.1</ele>
        <time>2021-08-10T09:24:46Z</time>
      </trkpt>
      <trkpt lat="42.6690540" lon="1.4800200">
        <ele>2585.1</ele>
        <time>2021-08-10T09:24:47Z</time>
      </trkpt>
      <trkpt lat="42.6690490" lon="1.4800460">
        <ele>2585.7</ele>
        <time>2021-08-10T09:24:52Z</time>
      </trkpt>
      <trkpt lat="42.6690500" lon="1.4800540">
        <ele>2585.8</ele>
        <time>2021-08-10T09:24:53Z</time>
      </trkpt>
      <trkpt lat="42.6690520" lon="1.4800540">
        <ele>2585.9</ele>
        <time>2021-08-10T09:24:54Z</time>
      </trkpt>
      <trkpt lat="42.6690530" lon="1.4800600">
        <ele>2586.0</ele>
        <time>2021-08-10T09:24:56Z</time>
      </trkpt>
      <trkpt lat="42.6690550" lon="1.4800510">
        <ele>2586.2</ele>
        <time>2021-08-10T09:24:59Z</time>
      </trkpt>
      <trkpt lat="42.6690610" lon="1.4800570">
        <ele>2586.5</ele>
        <time>2021-08-10T09:25:01Z</time>
      </trkpt>
      <trkpt lat="42.6690690" lon="1.4800480">
        <ele>2586.9</ele>
        <time>2021-08-10T09:25:08Z</time>
      </trkpt>
      <trkpt lat="42.6690520" lon="1.4799400">
        <ele>2590.2</ele>
        <time>2021-08-10T09:25:50Z</time>
      </trkpt>
      <trkpt lat="42.6690600" lon="1.4799280">
        <ele>2590.8</ele>
        <time>2021-08-10T09:26:06Z</time>
      </trkpt>
      <trkpt lat="42.6690700" lon="1.4799320">
        <ele>2591.3</ele>
        <time>2021-08-10T09:26:23Z</time>
      </trkpt>
      <trkpt lat="42.6690770" lon="1.4799420">
        <ele>2591.8</ele>
        <time>2021-08-10T09:26:39Z</time>
      </trkpt>
      <trkpt lat="42.6690860" lon="1.4799440">
        <ele>2592.2</ele>
        <time>2021-08-10T09:26:46Z</time>
      </trkpt>
      <trkpt lat="42.6690890" lon="1.4799440">
        <ele>2592.3</ele>
        <time>2021-08-10T09:26:48Z</time>
      </trkpt>
      <trkpt lat="42.6690900" lon="1.4799560">
        <ele>2592.8</ele>
        <time>2021-08-10T09:27:21Z</time>
      </trkpt>
      <trkpt lat="42.6690990" lon="1.4799250">
        <ele>2594.0</ele>
        <time>2021-08-10T09:27:49Z</time>
      </trkpt>
      <trkpt lat="42.6691040" lon="1.4799200">
        <ele>2594.3</ele>
        <time>2021-08-10T09:27:52Z</time>
      </trkpt>
      <trkpt lat="42.6691030" lon="1.4799200">
        <ele>2594.4</ele>
        <time>2021-08-10T09:27:53Z</time>
      </trkpt>
      <trkpt lat="42.6691000" lon="1.4799340">
        <ele>2594.9</ele>
        <time>2021-08-10T09:28:00Z</time>
      </trkpt>
      <trkpt lat="42.6691030" lon="1.4799190">
        <ele>2595.5</ele>
        <time>2021-08-10T09:28:03Z</time>
      </trkpt>
      <trkpt lat="42.6691000" lon="1.4799220">
        <ele>2595.6</ele>
        <time>2021-08-10T09:28:06Z</time>
      </trkpt>
      <trkpt lat="42.6690980" lon="1.4799220">
        <ele>2595.7</ele>
        <time>2021-08-10T09:28:07Z</time>
      </trkpt>
      <trkpt lat="42.6690970" lon="1.4799200">
        <ele>2595.8</ele>
        <time>2021-08-10T09:28:08Z</time>
      </trkpt>
      <trkpt lat="42.6690910" lon="1.4799130">
        <ele>2596.2</ele>
        <time>2021-08-10T09:28:10Z</time>
      </trkpt>
      <trkpt lat="42.6690860" lon="1.4799080">
        <ele>2596.5</ele>
        <time>2021-08-10T09:28:14Z</time>
      </trkpt>
      <trkpt lat="42.6690880" lon="1.4799010">
        <ele>2596.8</ele>
        <time>2021-08-10T09:28:18Z</time>
      </trkpt>
      <trkpt lat="42.6690850" lon="1.4799010">
        <ele>2597.0</ele>
        <time>2021-08-10T09:28:22Z</time>
      </trkpt>
      <trkpt lat="42.6690820" lon="1.4798880">
        <ele>2597.5</ele>
        <time>2021-08-10T09:28:28Z</time>
      </trkpt>
      <trkpt lat="42.6690830" lon="1.4798570">
        <ele>2598.6</ele>
        <time>2021-08-10T09:28:34Z</time>
      </trkpt>
      <trkpt lat="42.6690720" lon="1.4798500">
        <ele>2599.2</ele>
        <time>2021-08-10T09:28:38Z</time>
      </trkpt>
      <trkpt lat="42.6691110" lon="1.4797950">
        <ele>2602.1</ele>
        <time>2021-08-10T09:29:30Z</time>
      </trkpt>
      <trkpt lat="42.6691400" lon="1.4798120">
        <ele>2603.8</ele>
        <time>2021-08-10T09:29:52Z</time>
      </trkpt>
      <trkpt lat="42.6691400" lon="1.4798150">
        <ele>2603.9</ele>
        <time>2021-08-10T09:29:53Z</time>
      </trkpt>
      <trkpt lat="42.6691360" lon="1.4798210">
        <ele>2604.2</ele>
        <time>2021-08-10T09:29:59Z</time>
      </trkpt>
      <trkpt lat="42.6691310" lon="1.4798080">
        <ele>2604.8</ele>
        <time>2021-08-10T09:30:07Z</time>
      </trkpt>
      <trkpt lat="42.6691260" lon="1.4798080">
        <ele>2605.0</ele>
        <time>2021-08-10T09:30:12Z</time>
      </trkpt>
      <trkpt lat="42.6691210" lon="1.4797840">
        <ele>2606.0</ele>
        <time>2021-08-10T09:30:25Z</time>
      </trkpt>
      <trkpt lat="42.6691070" lon="1.4797580">
        <ele>2607.3</ele>
        <time>2021-08-10T09:30:42Z</time>
      </trkpt>
      <trkpt lat="42.6691500" lon="1.4796880">
        <ele>2610.8</ele>
        <time>2021-08-10T09:31:51Z</time>
      </trkpt>
      <trkpt lat="42.6691410" lon="1.4796530">
        <ele>2612.2</ele>
        <time>2021-08-10T09:32:18Z</time>
      </trkpt>
      <trkpt lat="42.6691750" lon="1.4796700">
        <ele>2614.1</ele>
        <time>2021-08-10T09:32:37Z</time>
      </trkpt>
      <trkpt lat="42.6691760" lon="1.4795990">
        <ele>2616.9</ele>
        <time>2021-08-10T09:33:07Z</time>
      </trkpt>
      <trkpt lat="42.6691750" lon="1.4795900">
        <ele>2617.2</ele>
        <time>2021-08-10T09:33:11Z</time>
      </trkpt>
      <trkpt lat="42.6691760" lon="1.4795850">
        <ele>2617.4</ele>
        <time>2021-08-10T09:33:12Z</time>
      </trkpt>
      <trkpt lat="42.6691770" lon="1.4795820">
        <ele>2617.5</ele>
        <time>2021-08-10T09:33:13Z</time>
      </trkpt>
      <trkpt lat="42.6691810" lon="1.4795800">
        <ele>2617.7</ele>
        <time>2021-08-10T09:33:20Z</time>
      </trkpt>
      <trkpt lat="42.6691870" lon="1.4795880">
        <ele>2618.2</ele>
        <time>2021-08-10T09:33:38Z</time>
      </trkpt>
      <trkpt lat="42.6691890" lon="1.4795580">
        <ele>2619.3</ele>
        <time>2021-08-10T09:33:49Z</time>
      </trkpt>
      <trkpt lat="42.6691970" lon="1.4795430">
        <ele>2619.9</ele>
        <time>2021-08-10T09:33:56Z</time>
      </trkpt>
      <trkpt lat="42.6692020" lon="1.4795330">
        <ele>2620.3</ele>
        <time>2021-08-10T09:34:07Z</time>
      </trkpt>
      <trkpt lat="42.6692430" lon="1.4795210">
        <ele>2622.3</ele>
        <time>2021-08-10T09:34:49Z</time>
      </trkpt>
      <trkpt lat="42.6692380" lon="1.4795140">
        <ele>2622.6</ele>
        <time>2021-08-10T09:34:51Z</time>
      </trkpt>
      <trkpt lat="42.6692360" lon="1.4795040">
        <ele>2622.9</ele>
        <time>2021-08-10T09:34:53Z</time>
      </trkpt>
      <trkpt lat="42.6692370" lon="1.4794700">
        <ele>2624.0</ele>
        <time>2021-08-10T09:35:01Z</time>
      </trkpt>
      <trkpt lat="42.6692390" lon="1.4794720">
        <ele>2624.1</ele>
        <time>2021-08-10T09:35:04Z</time>
      </trkpt>
      <trkpt lat="42.6692510" lon="1.4794110">
        <ele>2625.8</ele>
        <time>2021-08-10T09:35:55Z</time>
      </trkpt>
      <trkpt lat="42.6692440" lon="1.4793840">
        <ele>2626.5</ele>
        <time>2021-08-10T09:36:25Z</time>
      </trkpt>
      <trkpt lat="42.6692450" lon="1.4793710">
        <ele>2626.8</ele>
        <time>2021-08-10T09:36:37Z</time>
      </trkpt>
      <trkpt lat="42.6692460" lon="1.4793710">
        <ele>2626.9</ele>
        <time>2021-08-10T09:36:42Z</time>
      </trkpt>
      <trkpt lat="42.6692470" lon="1.4793680">
        <ele>2626.9</ele>
        <time>2021-08-10T09:36:43Z</time>
      </trkpt>
      <trkpt lat="42.6692490" lon="1.4793630">
        <ele>2627.1</ele>
        <time>2021-08-10T09:36:45Z</time>
      </trkpt>
      <trkpt lat="42.6692720" lon="1.4792420">
        <ele>2629.8</ele>
        <time>2021-08-10T09:37:42Z</time>
      </trkpt>
      <trkpt lat="42.6692860" lon="1.4791330">
        <ele>2630.5</ele>
        <time>2021-08-10T09:38:13Z</time>
      </trkpt>
      <trkpt lat="42.6692860" lon="1.4791290">
        <ele>2630.5</ele>
        <time>2021-08-10T09:38:14Z</time>
      </trkpt>
      <trkpt lat="42.6692890" lon="1.4791240">
        <ele>2630.5</ele>
        <time>2021-08-10T09:38:15Z</time>
      </trkpt>
      <trkpt lat="42.6692920" lon="1.4791190">
        <ele>2630.5</ele>
        <time>2021-08-10T09:38:17Z</time>
      </trkpt>
      <trkpt lat="42.6693130" lon="1.4791070">
        <ele>2630.5</ele>
        <time>2021-08-10T09:38:25Z</time>
      </trkpt>
      <trkpt lat="42.6693180" lon="1.4791060">
        <ele>2630.5</ele>
        <time>2021-08-10T09:38:27Z</time>
      </trkpt>
      <trkpt lat="42.6693170" lon="1.4791070">
        <ele>2630.5</ele>
        <time>2021-08-10T09:38:29Z</time>
      </trkpt>
      <trkpt lat="42.6693170" lon="1.4791060">
        <ele>2630.5</ele>
        <time>2021-08-10T09:38:31Z</time>
      </trkpt>
      <trkpt lat="42.6693230" lon="1.4791020">
        <ele>2630.5</ele>
        <time>2021-08-10T09:38:33Z</time>
      </trkpt>
      <trkpt lat="42.6693390" lon="1.4791090">
        <ele>2630.5</ele>
        <time>2021-08-10T09:38:37Z</time>
      </trkpt>
      <trkpt lat="42.6693870" lon="1.4791090">
        <ele>2630.5</ele>
        <time>2021-08-10T09:38:48Z</time>
      </trkpt>
      <trkpt lat="42.6694210" lon="1.4791180">
        <ele>2630.5</ele>
        <time>2021-08-10T09:39:07Z</time>
      </trkpt>
      <trkpt lat="42.6694330" lon="1.4791480">
        <ele>2630.4</ele>
        <time>2021-08-10T09:39:14Z</time>
      </trkpt>
      <trkpt lat="42.6694490" lon="1.4791940">
        <ele>2630.4</ele>
        <time>2021-08-10T09:39:30Z</time>
      </trkpt>
      <trkpt lat="42.6695070" lon="1.4792240">
        <ele>2630.3</ele>
        <time>2021-08-10T09:39:51Z</time>
      </trkpt>
      <trkpt lat="42.6696510" lon="1.4793060">
        <ele>2629.6</ele>
        <time>2021-08-10T09:40:54Z</time>
      </trkpt>
      <trkpt lat="42.6697800" lon="1.4792860">
        <ele>2628.7</ele>
        <time>2021-08-10T09:41:32Z</time>
      </trkpt>
      <trkpt lat="42.6698340" lon="1.4792570">
        <ele>2628.2</ele>
        <time>2021-08-10T09:42:14Z</time>
      </trkpt>
      <trkpt lat="42.6698270" lon="1.4792510">
        <ele>2628.1</ele>
        <time>2021-08-10T09:42:54Z</time>
      </trkpt>
      <trkpt lat="42.6698240" lon="1.4792560">
        <ele>2628.0</ele>
        <time>2021-08-10T09:42:59Z</time>
      </trkpt>
      <trkpt lat="42.6698120" lon="1.4792470">
        <ele>2627.9</ele>
        <time>2021-08-10T09:43:02Z</time>
      </trkpt>
      <trkpt lat="42.6698090" lon="1.4792460">
        <ele>2627.9</ele>
        <time>2021-08-10T09:43:12Z</time>
      </trkpt>
      <trkpt lat="42.6698050" lon="1.4792550">
        <ele>2627.8</ele>
        <time>2021-08-10T09:43:32Z</time>
      </trkpt>
      <trkpt lat="42.6698070" lon="1.4792740">
        <ele>2627.6</ele>
        <time>2021-08-10T09:44:14Z</time>
      </trkpt>
      <trkpt lat="42.6698020" lon="1.4792660">
        <ele>2627.5</ele>
        <time>2021-08-10T09:44:22Z</time>
      </trkpt>
      <trkpt lat="42.6697980" lon="1.4792550">
        <ele>2627.4</ele>
        <time>2021-08-10T09:44:31Z</time>
      </trkpt>
      <trkpt lat="42.6698150" lon="1.4792680">
        <ele>2627.2</ele>
        <time>2021-08-10T09:44:47Z</time>
      </trkpt>
      <trkpt lat="42.6698160" lon="1.4792770">
        <ele>2627.1</ele>
        <time>2021-08-10T09:45:11Z</time>
      </trkpt>
      <trkpt lat="42.6698090" lon="1.4792790">
        <ele>2627.0</ele>
        <time>2021-08-10T09:45:21Z</time>
      </trkpt>
      <trkpt lat="42.6697970" lon="1.4792470">
        <ele>2626.6</ele>
        <time>2021-08-10T09:45:55Z</time>
      </trkpt>
      <trkpt lat="42.6698780" lon="1.4792500">
        <ele>2625.2</ele>
        <time>2021-08-10T09:46:15Z</time>
      </trkpt>
      <trkpt lat="42.6698770" lon="1.4792570">
        <ele>2625.1</ele>
        <time>2021-08-10T09:46:20Z</time>
      </trkpt>
      <trkpt lat="42.6698760" lon="1.4792600">
        <ele>2625.0</ele>
        <time>2021-08-10T09:46:22Z</time>
      </trkpt>
      <trkpt lat="42.6698740" lon="1.4792610">
        <ele>2625.0</ele>
        <time>2021-08-10T09:46:24Z</time>
      </trkpt>
      <trkpt lat="42.6698720" lon="1.4792630">
        <ele>2624.9</ele>
        <time>2021-08-10T09:46:25Z</time>
      </trkpt>
      <trkpt lat="42.6698670" lon="1.4792650">
        <ele>2624.8</ele>
        <time>2021-08-10T09:46:27Z</time>
      </trkpt>
      <trkpt lat="42.6698470" lon="1.4792620">
        <ele>2624.4</ele>
        <time>2021-08-10T09:46:36Z</time>
      </trkpt>
      <trkpt lat="42.6698520" lon="1.4791230">
        <ele>2621.9</ele>
        <time>2021-08-10T09:55:14Z</time>
      </trkpt>
      <trkpt lat="42.6698510" lon="1.4791320">
        <ele>2621.7</ele>
        <time>2021-08-10T09:55:15Z</time>
      </trkpt>
      <trkpt lat="42.6698060" lon="1.4792380">
        <ele>2619.3</ele>
        <time>2021-08-10T09:55:23Z</time>
      </trkpt>
      <trkpt lat="42.6698070" lon="1.4792360">
        <ele>2619.3</ele>
        <time>2021-08-10T09:55:25Z</time>
      </trkpt>
      <trkpt lat="42.6698070" lon="1.4792420">
        <ele>2619.2</ele>
        <time>2021-08-10T09:55:31Z</time>
      </trkpt>
      <trkpt lat="42.6698190" lon="1.4792380">
        <ele>2618.9</ele>
        <time>2021-08-10T09:55:47Z</time>
      </trkpt>
      <trkpt lat="42.6698210" lon="1.4792390">
        <ele>2618.8</ele>
        <time>2021-08-10T09:56:00Z</time>
      </trkpt>
      <trkpt lat="42.6698300" lon="1.4792370">
        <ele>2618.6</ele>
        <time>2021-08-10T09:56:13Z</time>
      </trkpt>
      <trkpt lat="42.6698280" lon="1.4792360">
        <ele>2618.5</ele>
        <time>2021-08-10T09:56:18Z</time>
      </trkpt>
      <trkpt lat="42.6698280" lon="1.4792340">
        <ele>2618.5</ele>
        <time>2021-08-10T09:56:23Z</time>
      </trkpt>
      <trkpt lat="42.6698280" lon="1.4792340">
        <ele>2618.5</ele>
        <time>2021-08-10T09:56:24Z</time>
      </trkpt>
      <trkpt lat="42.6698260" lon="1.4792430">
        <ele>2618.3</ele>
        <time>2021-08-10T09:56:30Z</time>
      </trkpt>
      <trkpt lat="42.6698280" lon="1.4792590">
        <ele>2618.0</ele>
        <time>2021-08-10T09:56:40Z</time>
      </trkpt>
      <trkpt lat="42.6698250" lon="1.4792590">
        <ele>2617.9</ele>
        <time>2021-08-10T09:56:46Z</time>
      </trkpt>
      <trkpt lat="42.6698250" lon="1.4792560">
        <ele>2617.9</ele>
        <time>2021-08-10T09:56:50Z</time>
      </trkpt>
      <trkpt lat="42.6698410" lon="1.4792470">
        <ele>2617.5</ele>
        <time>2021-08-10T09:57:17Z</time>
      </trkpt>
      <trkpt lat="42.6698410" lon="1.4792460">
        <ele>2617.4</ele>
        <time>2021-08-10T09:57:20Z</time>
      </trkpt>
      <trkpt lat="42.6698410" lon="1.4792460">
        <ele>2617.4</ele>
        <time>2021-08-10T09:57:21Z</time>
      </trkpt>
      <trkpt lat="42.6698390" lon="1.4792460">
        <ele>2617.4</ele>
        <time>2021-08-10T09:57:23Z</time>
      </trkpt>
      <trkpt lat="42.6698280" lon="1.4792470">
        <ele>2617.1</ele>
        <time>2021-08-10T09:57:31Z</time>
      </trkpt>
      <trkpt lat="42.6698320" lon="1.4792470">
        <ele>2617.0</ele>
        <time>2021-08-10T09:57:41Z</time>
      </trkpt>
      <trkpt lat="42.6698320" lon="1.4792470">
        <ele>2617.0</ele>
        <time>2021-08-10T09:57:51Z</time>
      </trkpt>
      <trkpt lat="42.6698340" lon="1.4792490">
        <ele>2617.0</ele>
        <time>2021-08-10T09:58:06Z</time>
      </trkpt>
      <trkpt lat="42.6698450" lon="1.4792460">
        <ele>2616.7</ele>
        <time>2021-08-10T09:58:20Z</time>
      </trkpt>
      <trkpt lat="42.6698450" lon="1.4792460">
        <ele>2616.7</ele>
        <time>2021-08-10T09:58:24Z</time>
      </trkpt>
      <trkpt lat="42.6698450" lon="1.4792460">
        <ele>2616.7</ele>
        <time>2021-08-10T09:58:27Z</time>
      </trkpt>
      <trkpt lat="42.6698420" lon="1.4792470">
        <ele>2616.7</ele>
        <time>2021-08-10T09:58:33Z</time>
      </trkpt>
      <trkpt lat="42.6698350" lon="1.4792470">
        <ele>2616.5</ele>
        <time>2021-08-10T09:58:41Z</time>
      </trkpt>
      <trkpt lat="42.6698360" lon="1.4792530">
        <ele>2616.4</ele>
        <time>2021-08-10T10:00:15Z</time>
      </trkpt>
      <trkpt lat="42.6698370" lon="1.4792500">
        <ele>2616.4</ele>
        <time>2021-08-10T10:00:26Z</time>
      </trkpt>
      <trkpt lat="42.6698340" lon="1.4792530">
        <ele>2616.3</ele>
        <time>2021-08-10T10:00:32Z</time>
      </trkpt>
      <trkpt lat="42.6698340" lon="1.4792430">
        <ele>2616.1</ele>
        <time>2021-08-10T10:00:36Z</time>
      </trkpt>
      <trkpt lat="42.6698350" lon="1.4792430">
        <ele>2616.1</ele>
        <time>2021-08-10T10:00:39Z</time>
      </trkpt>
      <trkpt lat="42.6698350" lon="1.4792440">
        <ele>2616.1</ele>
        <time>2021-08-10T10:00:40Z</time>
      </trkpt>
      <trkpt lat="42.6698350" lon="1.4792440">
        <ele>2616.1</ele>
        <time>2021-08-10T10:00:42Z</time>
      </trkpt>
      <trkpt lat="42.6698360" lon="1.4792430">
        <ele>2616.0</ele>
        <time>2021-08-10T10:00:43Z</time>
      </trkpt>
      <trkpt lat="42.6698360" lon="1.4792440">
        <ele>2616.0</ele>
        <time>2021-08-10T10:00:45Z</time>
      </trkpt>
      <trkpt lat="42.6698320" lon="1.4792450">
        <ele>2615.9</ele>
        <time>2021-08-10T10:00:49Z</time>
      </trkpt>
      <trkpt lat="42.6698290" lon="1.4792450">
        <ele>2615.9</ele>
        <time>2021-08-10T10:00:52Z</time>
      </trkpt>
      <trkpt lat="42.6698230" lon="1.4792460">
        <ele>2615.7</ele>
        <time>2021-08-10T10:00:58Z</time>
      </trkpt>
      <trkpt lat="42.6698210" lon="1.4792540">
        <ele>2615.6</ele>
        <time>2021-08-10T10:01:02Z</time>
      </trkpt>
      <trkpt lat="42.6698140" lon="1.4792590">
        <ele>2615.4</ele>
        <time>2021-08-10T10:01:08Z</time>
      </trkpt>
      <trkpt lat="42.6698160" lon="1.4792550">
        <ele>2615.4</ele>
        <time>2021-08-10T10:01:11Z</time>
      </trkpt>
      <trkpt lat="42.6698180" lon="1.4792540">
        <ele>2615.3</ele>
        <time>2021-08-10T10:01:13Z</time>
      </trkpt>
      <trkpt lat="42.6698180" lon="1.4792140">
        <ele>2614.7</ele>
        <time>2021-08-10T10:01:53Z</time>
      </trkpt>
      <trkpt lat="42.6698780" lon="1.4791660">
        <ele>2613.1</ele>
        <time>2021-08-10T10:03:02Z</time>
      </trkpt>
      <trkpt lat="42.6698950" lon="1.4791690">
        <ele>2612.7</ele>
        <time>2021-08-10T10:03:46Z</time>
      </trkpt>
      <trkpt lat="42.6698970" lon="1.4791730">
        <ele>2612.6</ele>
        <time>2021-08-10T10:03:57Z</time>
      </trkpt>
      <trkpt lat="42.6698950" lon="1.4791770">
        <ele>2612.6</ele>
        <time>2021-08-10T10:04:06Z</time>
      </trkpt>
      <trkpt lat="42.6699040" lon="1.4791770">
        <ele>2612.4</ele>
        <time>2021-08-10T10:04:17Z</time>
      </trkpt>
      <trkpt lat="42.6699070" lon="1.4791680">
        <ele>2612.2</ele>
        <time>2021-08-10T10:04:28Z</time>
      </trkpt>
      <trkpt lat="42.6699200" lon="1.4791670">
        <ele>2611.9</ele>
        <time>2021-08-10T10:04:33Z</time>
      </trkpt>
      <trkpt lat="42.6699400" lon="1.4791290">
        <ele>2611.0</ele>
        <time>2021-08-10T10:04:44Z</time>
      </trkpt>
      <trkpt lat="42.6699370" lon="1.4791240">
        <ele>2610.9</ele>
        <time>2021-08-10T10:04:46Z</time>
      </trkpt>
      <trkpt lat="42.6699360" lon="1.4791230">
        <ele>2610.9</ele>
        <time>2021-08-10T10:04:47Z</time>
      </trkpt>
      <trkpt lat="42.6699360" lon="1.4791210">
        <ele>2610.8</ele>
        <time>2021-08-10T10:04:49Z</time>
      </trkpt>
      <trkpt lat="42.6699350" lon="1.4791170">
        <ele>2610.8</ele>
        <time>2021-08-10T10:04:54Z</time>
      </trkpt>
      <trkpt lat="42.6699320" lon="1.4790680">
        <ele>2609.8</ele>
        <time>2021-08-10T10:05:09Z</time>
      </trkpt>
      <trkpt lat="42.6699290" lon="1.4790580">
        <ele>2609.6</ele>
        <time>2021-08-10T10:05:11Z</time>
      </trkpt>
      <trkpt lat="42.6699290" lon="1.4790520">
        <ele>2609.5</ele>
        <time>2021-08-10T10:05:12Z</time>
      </trkpt>
      <trkpt lat="42.6699290" lon="1.4790490">
        <ele>2609.4</ele>
        <time>2021-08-10T10:05:14Z</time>
      </trkpt>
      <trkpt lat="42.6699310" lon="1.4790480">
        <ele>2609.4</ele>
        <time>2021-08-10T10:05:15Z</time>
      </trkpt>
      <trkpt lat="42.6699370" lon="1.4790330">
        <ele>2609.0</ele>
        <time>2021-08-10T10:05:20Z</time>
      </trkpt>
      <trkpt lat="42.6699530" lon="1.4790240">
        <ele>2608.5</ele>
        <time>2021-08-10T10:05:23Z</time>
      </trkpt>
      <trkpt lat="42.6699250" lon="1.4789630">
        <ele>2607.1</ele>
        <time>2021-08-10T10:05:36Z</time>
      </trkpt>
      <trkpt lat="42.6699280" lon="1.4789520">
        <ele>2606.8</ele>
        <time>2021-08-10T10:06:13Z</time>
      </trkpt>
      <trkpt lat="42.6698950" lon="1.4789290">
        <ele>2605.8</ele>
        <time>2021-08-10T10:07:32Z</time>
      </trkpt>
      <trkpt lat="42.6698760" lon="1.4789060">
        <ele>2605.1</ele>
        <time>2021-08-10T10:08:36Z</time>
      </trkpt>
      <trkpt lat="42.6698570" lon="1.4788760">
        <ele>2604.3</ele>
        <time>2021-08-10T10:08:57Z</time>
      </trkpt>
      <trkpt lat="42.6698610" lon="1.4788600">
        <ele>2603.9</ele>
        <time>2021-08-10T10:09:01Z</time>
      </trkpt>
      <trkpt lat="42.6698660" lon="1.4788620">
        <ele>2603.8</ele>
        <time>2021-08-10T10:09:03Z</time>
      </trkpt>
      <trkpt lat="42.6698710" lon="1.4788800">
        <ele>2603.4</ele>
        <time>2021-08-10T10:09:08Z</time>
      </trkpt>
      <trkpt lat="42.6698780" lon="1.4788880">
        <ele>2603.1</ele>
        <time>2021-08-10T10:09:11Z</time>
      </trkpt>
      <trkpt lat="42.6698830" lon="1.4788880">
        <ele>2603.0</ele>
        <time>2021-08-10T10:09:13Z</time>
      </trkpt>
      <trkpt lat="42.6698960" lon="1.4788790">
        <ele>2602.6</ele>
        <time>2021-08-10T10:09:19Z</time>
      </trkpt>
      <trkpt lat="42.6699010" lon="1.4788600">
        <ele>2602.2</ele>
        <time>2021-08-10T10:09:25Z</time>
      </trkpt>
      <trkpt lat="42.6698960" lon="1.4788590">
        <ele>2602.0</ele>
        <time>2021-08-10T10:09:26Z</time>
      </trkpt>
      <trkpt lat="42.6698980" lon="1.4788580">
        <ele>2602.0</ele>
        <time>2021-08-10T10:09:28Z</time>
      </trkpt>
      <trkpt lat="42.6698560" lon="1.4788240">
        <ele>2600.5</ele>
        <time>2021-08-10T10:09:50Z</time>
      </trkpt>
      <trkpt lat="42.6698250" lon="1.4787930">
        <ele>2599.3</ele>
        <time>2021-08-10T10:10:01Z</time>
      </trkpt>
      <trkpt lat="42.6698280" lon="1.4787820">
        <ele>2599.0</ele>
        <time>2021-08-10T10:10:15Z</time>
      </trkpt>
      <trkpt lat="42.6698390" lon="1.4787650">
        <ele>2598.5</ele>
        <time>2021-08-10T10:10:32Z</time>
      </trkpt>
      <trkpt lat="42.6697940" lon="1.4787110">
        <ele>2596.3</ele>
        <time>2021-08-10T10:11:09Z</time>
      </trkpt>
      <trkpt lat="42.6698250" lon="1.4786660">
        <ele>2594.6</ele>
        <time>2021-08-10T10:12:01Z</time>
      </trkpt>
      <trkpt lat="42.6697920" lon="1.4786290">
        <ele>2593.0</ele>
        <time>2021-08-10T10:12:18Z</time>
      </trkpt>
      <trkpt lat="42.6697890" lon="1.4785650">
        <ele>2591.2</ele>
        <time>2021-08-10T10:13:58Z</time>
      </trkpt>
      <trkpt lat="42.6697910" lon="1.4785640">
        <ele>2591.1</ele>
        <time>2021-08-10T10:13:59Z</time>
      </trkpt>
      <trkpt lat="42.6698210" lon="1.4785670">
        <ele>2590.0</ele>
        <time>2021-08-10T10:14:09Z</time>
      </trkpt>
      <trkpt lat="42.6698340" lon="1.4785670">
        <ele>2589.6</ele>
        <time>2021-08-10T10:14:12Z</time>
      </trkpt>
      <trkpt lat="42.6698810" lon="1.4785740">
        <ele>2587.9</ele>
        <time>2021-08-10T10:14:47Z</time>
      </trkpt>
      <trkpt lat="42.6699330" lon="1.4785800">
        <ele>2586.3</ele>
        <time>2021-08-10T10:15:07Z</time>
      </trkpt>
      <trkpt lat="42.6701000" lon="1.4786160">
        <ele>2581.4</ele>
        <time>2021-08-10T10:15:52Z</time>
      </trkpt>
      <trkpt lat="42.6701680" lon="1.4786160">
        <ele>2579.4</ele>
        <time>2021-08-10T10:16:18Z</time>
      </trkpt>
      <trkpt lat="42.6701310" lon="1.4785990">
        <ele>2578.3</ele>
        <time>2021-08-10T10:16:50Z</time>
      </trkpt>
      <trkpt lat="42.6700420" lon="1.4784970">
        <ele>2575.2</ele>
        <time>2021-08-10T10:18:09Z</time>
      </trkpt>
      <trkpt lat="42.6700460" lon="1.4785100">
        <ele>2575.0</ele>
        <time>2021-08-10T10:18:34Z</time>
      </trkpt>
      <trkpt lat="42.6700490" lon="1.4785180">
        <ele>2574.8</ele>
        <time>2021-08-10T10:18:42Z</time>
      </trkpt>
      <trkpt lat="42.6700360" lon="1.4785130">
        <ele>2574.5</ele>
        <time>2021-08-10T10:18:49Z</time>
      </trkpt>
      <trkpt lat="42.6700330" lon="1.4785000">
        <ele>2574.2</ele>
        <time>2021-08-10T10:18:58Z</time>
      </trkpt>
      <trkpt lat="42.6700580" lon="1.4784880">
        <ele>2573.7</ele>
        <time>2021-08-10T10:19:13Z</time>
      </trkpt>
      <trkpt lat="42.6700550" lon="1.4785020">
        <ele>2573.4</ele>
        <time>2021-08-10T10:19:30Z</time>
      </trkpt>
      <trkpt lat="42.6700540" lon="1.4784770">
        <ele>2573.0</ele>
        <time>2021-08-10T10:19:42Z</time>
      </trkpt>
      <trkpt lat="42.6700440" lon="1.4784740">
        <ele>2572.8</ele>
        <time>2021-08-10T10:19:47Z</time>
      </trkpt>
      <trkpt lat="42.6700370" lon="1.4784690">
        <ele>2572.7</ele>
        <time>2021-08-10T10:19:50Z</time>
      </trkpt>
      <trkpt lat="42.6700420" lon="1.4784730">
        <ele>2572.6</ele>
        <time>2021-08-10T10:19:53Z</time>
      </trkpt>
      <trkpt lat="42.6700400" lon="1.4784710">
        <ele>2572.5</ele>
        <time>2021-08-10T10:19:55Z</time>
      </trkpt>
      <trkpt lat="42.6700450" lon="1.4784730">
        <ele>2572.4</ele>
        <time>2021-08-10T10:19:59Z</time>
      </trkpt>
      <trkpt lat="42.6700430" lon="1.4784730">
        <ele>2572.4</ele>
        <time>2021-08-10T10:20:00Z</time>
      </trkpt>
      <trkpt lat="42.6700520" lon="1.4784750">
        <ele>2572.2</ele>
        <time>2021-08-10T10:20:02Z</time>
      </trkpt>
      <trkpt lat="42.6700610" lon="1.4784780">
        <ele>2572.0</ele>
        <time>2021-08-10T10:20:06Z</time>
      </trkpt>
      <trkpt lat="42.6700720" lon="1.4784770">
        <ele>2571.8</ele>
        <time>2021-08-10T10:20:13Z</time>
      </trkpt>
      <trkpt lat="42.6700720" lon="1.4784800">
        <ele>2571.8</ele>
        <time>2021-08-10T10:20:16Z</time>
      </trkpt>
      <trkpt lat="42.6700690" lon="1.4784780">
        <ele>2571.7</ele>
        <time>2021-08-10T10:20:18Z</time>
      </trkpt>
      <trkpt lat="42.6700830" lon="1.4784880">
        <ele>2571.5</ele>
        <time>2021-08-10T10:20:21Z</time>
      </trkpt>
      <trkpt lat="42.6700820" lon="1.4784890">
        <ele>2571.4</ele>
        <time>2021-08-10T10:20:22Z</time>
      </trkpt>
      <trkpt lat="42.6700820" lon="1.4784890">
        <ele>2571.4</ele>
        <time>2021-08-10T10:20:23Z</time>
      </trkpt>
      <trkpt lat="42.6700830" lon="1.4784900">
        <ele>2571.4</ele>
        <time>2021-08-10T10:20:28Z</time>
      </trkpt>
      <trkpt lat="42.6700850" lon="1.4784920">
        <ele>2571.4</ele>
        <time>2021-08-10T10:20:29Z</time>
      </trkpt>
      <trkpt lat="42.6700940" lon="1.4784960">
        <ele>2571.2</ele>
        <time>2021-08-10T10:20:31Z</time>
      </trkpt>
      <trkpt lat="42.6701050" lon="1.4785020">
        <ele>2571.0</ele>
        <time>2021-08-10T10:20:33Z</time>
      </trkpt>
      <trkpt lat="42.6701100" lon="1.4785080">
        <ele>2570.9</ele>
        <time>2021-08-10T10:20:35Z</time>
      </trkpt>
      <trkpt lat="42.6701190" lon="1.4785200">
        <ele>2570.8</ele>
        <time>2021-08-10T10:20:39Z</time>
      </trkpt>
      <trkpt lat="42.6702810" lon="1.4786260">
        <ele>2568.0</ele>
        <time>2021-08-10T10:21:11Z</time>
      </trkpt>
      <trkpt lat="42.6702280" lon="1.4785990">
        <ele>2565.8</ele>
        <time>2021-08-10T10:21:36Z</time>
      </trkpt>
      <trkpt lat="42.6702000" lon="1.4785720">
        <ele>2564.9</ele>
        <time>2021-08-10T10:22:04Z</time>
      </trkpt>
      <trkpt lat="42.6702040" lon="1.4785830">
        <ele>2564.6</ele>
        <time>2021-08-10T10:22:07Z</time>
      </trkpt>
      <trkpt lat="42.6702070" lon="1.4785830">
        <ele>2564.5</ele>
        <time>2021-08-10T10:22:08Z</time>
      </trkpt>
      <trkpt lat="42.6702090" lon="1.4785820">
        <ele>2564.4</ele>
        <time>2021-08-10T10:22:09Z</time>
      </trkpt>
      <trkpt lat="42.6702160" lon="1.4785870">
        <ele>2564.2</ele>
        <time>2021-08-10T10:22:11Z</time>
      </trkpt>
      <trkpt lat="42.6702320" lon="1.4786000">
        <ele>2563.6</ele>
        <time>2021-08-10T10:22:17Z</time>
      </trkpt>
      <trkpt lat="42.6702340" lon="1.4786020">
        <ele>2563.5</ele>
        <time>2021-08-10T10:22:18Z</time>
      </trkpt>
      <trkpt lat="42.6702360" lon="1.4786040">
        <ele>2563.4</ele>
        <time>2021-08-10T10:22:19Z</time>
      </trkpt>
      <trkpt lat="42.6702490" lon="1.4786070">
        <ele>2563.0</ele>
        <time>2021-08-10T10:23:04Z</time>
      </trkpt>
      <trkpt lat="42.6702440" lon="1.4786050">
        <ele>2562.7</ele>
        <time>2021-08-10T10:23:10Z</time>
      </trkpt>
      <trkpt lat="42.6702440" lon="1.4786050">
        <ele>2562.7</ele>
        <time>2021-08-10T10:23:13Z</time>
      </trkpt>
      <trkpt lat="42.6702440" lon="1.4786050">
        <ele>2562.7</ele>
        <time>2021-08-10T10:23:14Z</time>
      </trkpt>
      <trkpt lat="42.6702440" lon="1.4786040">
        <ele>2562.7</ele>
        <time>2021-08-10T10:23:15Z</time>
      </trkpt>
      <trkpt lat="42.6702450" lon="1.4786010">
        <ele>2562.6</ele>
        <time>2021-08-10T10:23:16Z</time>
      </trkpt>
      <trkpt lat="42.6702460" lon="1.4786030">
        <ele>2562.6</ele>
        <time>2021-08-10T10:23:17Z</time>
      </trkpt>
      <trkpt lat="42.6702470" lon="1.4786020">
        <ele>2562.5</ele>
        <time>2021-08-10T10:23:21Z</time>
      </trkpt>
      <trkpt lat="42.6702480" lon="1.4786110">
        <ele>2562.2</ele>
        <time>2021-08-10T10:23:24Z</time>
      </trkpt>
      <trkpt lat="42.6702520" lon="1.4786170">
        <ele>2562.0</ele>
        <time>2021-08-10T10:23:26Z</time>
      </trkpt>
      <trkpt lat="42.6702460" lon="1.4786200">
        <ele>2561.8</ele>
        <time>2021-08-10T10:23:28Z</time>
      </trkpt>
      <trkpt lat="42.6702460" lon="1.4786190">
        <ele>2561.7</ele>
        <time>2021-08-10T10:23:29Z</time>
      </trkpt>
      <trkpt lat="42.6702440" lon="1.4786100">
        <ele>2561.5</ele>
        <time>2021-08-10T10:23:36Z</time>
      </trkpt>
      <trkpt lat="42.6702510" lon="1.4786050">
        <ele>2561.1</ele>
        <time>2021-08-10T10:23:40Z</time>
      </trkpt>
      <trkpt lat="42.6702110" lon="1.4785070">
        <ele>2557.2</ele>
        <time>2021-08-10T10:25:08Z</time>
      </trkpt>
      <trkpt lat="42.6702120" lon="1.4784750">
        <ele>2555.9</ele>
        <time>2021-08-10T10:25:18Z</time>
      </trkpt>
      <trkpt lat="42.6702230" lon="1.4784880">
        <ele>2555.2</ele>
        <time>2021-08-10T10:25:26Z</time>
      </trkpt>
      <trkpt lat="42.6702520" lon="1.4785130">
        <ele>2553.3</ele>
        <time>2021-08-10T10:26:11Z</time>
      </trkpt>
      <trkpt lat="42.6702570" lon="1.4785230">
        <ele>2552.8</ele>
        <time>2021-08-10T10:26:24Z</time>
      </trkpt>
      <trkpt lat="42.6702570" lon="1.4785250">
        <ele>2552.7</ele>
        <time>2021-08-10T10:26:36Z</time>
      </trkpt>
      <trkpt lat="42.6702470" lon="1.4785120">
        <ele>2552.0</ele>
        <time>2021-08-10T10:26:47Z</time>
      </trkpt>
      <trkpt lat="42.6702360" lon="1.4784980">
        <ele>2551.2</ele>
        <time>2021-08-10T10:26:58Z</time>
      </trkpt>
      <trkpt lat="42.6702340" lon="1.4784920">
        <ele>2550.9</ele>
        <time>2021-08-10T10:27:05Z</time>
      </trkpt>
      <trkpt lat="42.6702320" lon="1.4784910">
        <ele>2550.8</ele>
        <time>2021-08-10T10:27:06Z</time>
      </trkpt>
      <trkpt lat="42.6702300" lon="1.4784910">
        <ele>2550.7</ele>
        <time>2021-08-10T10:27:08Z</time>
      </trkpt>
      <trkpt lat="42.6702310" lon="1.4784940">
        <ele>2550.6</ele>
        <time>2021-08-10T10:27:14Z</time>
      </trkpt>
      <trkpt lat="42.6702290" lon="1.4785010">
        <ele>2550.3</ele>
        <time>2021-08-10T10:27:19Z</time>
      </trkpt>
      <trkpt lat="42.6702290" lon="1.4784940">
        <ele>2550.0</ele>
        <time>2021-08-10T10:27:22Z</time>
      </trkpt>
      <trkpt lat="42.6702300" lon="1.4784920">
        <ele>2549.9</ele>
        <time>2021-08-10T10:27:25Z</time>
      </trkpt>
      <trkpt lat="42.6702260" lon="1.4784950">
        <ele>2549.6</ele>
        <time>2021-08-10T10:27:34Z</time>
      </trkpt>
      <trkpt lat="42.6702250" lon="1.4784950">
        <ele>2549.6</ele>
        <time>2021-08-10T10:27:35Z</time>
      </trkpt>
      <trkpt lat="42.6702230" lon="1.4784930">
        <ele>2549.4</ele>
        <time>2021-08-10T10:27:38Z</time>
      </trkpt>
      <trkpt lat="42.6702200" lon="1.4784920">
        <ele>2549.3</ele>
        <time>2021-08-10T10:27:40Z</time>
      </trkpt>
      <trkpt lat="42.6702190" lon="1.4784880">
        <ele>2549.1</ele>
        <time>2021-08-10T10:28:22Z</time>
      </trkpt>
      <trkpt lat="42.6702190" lon="1.4784800">
        <ele>2548.8</ele>
        <time>2021-08-10T10:28:39Z</time>
      </trkpt>
      <trkpt lat="42.6702200" lon="1.4784740">
        <ele>2548.5</ele>
        <time>2021-08-10T10:28:50Z</time>
      </trkpt>
      <trkpt lat="42.6702160" lon="1.4784760">
        <ele>2548.3</ele>
        <time>2021-08-10T10:29:09Z</time>
      </trkpt>
      <trkpt lat="42.6702190" lon="1.4784590">
        <ele>2547.6</ele>
        <time>2021-08-10T10:29:18Z</time>
      </trkpt>
      <trkpt lat="42.6703200" lon="1.4784360">
        <ele>2542.0</ele>
        <time>2021-08-10T10:30:12Z</time>
      </trkpt>
      <trkpt lat="42.6703590" lon="1.4784270">
        <ele>2539.9</ele>
        <time>2021-08-10T10:30:35Z</time>
      </trkpt>
      <trkpt lat="42.6703570" lon="1.4784370">
        <ele>2539.5</ele>
        <time>2021-08-10T10:30:40Z</time>
      </trkpt>
      <trkpt lat="42.6703650" lon="1.4784380">
        <ele>2539.1</ele>
        <time>2021-08-10T10:30:43Z</time>
      </trkpt>
      <trkpt lat="42.6703750" lon="1.4784440">
        <ele>2538.5</ele>
        <time>2021-08-10T10:30:47Z</time>
      </trkpt>
      <trkpt lat="42.6704360" lon="1.4784440">
        <ele>2535.6</ele>
        <time>2021-08-10T10:31:09Z</time>
      </trkpt>
      <trkpt lat="42.6704830" lon="1.4784350">
        <ele>2533.4</ele>
        <time>2021-08-10T10:31:27Z</time>
      </trkpt>
      <trkpt lat="42.6705180" lon="1.4783970">
        <ele>2531.6</ele>
        <time>2021-08-10T10:31:57Z</time>
      </trkpt>
      <trkpt lat="42.6705390" lon="1.4782780">
        <ele>2528.3</ele>
        <time>2021-08-10T10:33:16Z</time>
      </trkpt>
      <trkpt lat="42.6705590" lon="1.4783130">
        <ele>2527.3</ele>
        <time>2021-08-10T10:33:23Z</time>
      </trkpt>
      <trkpt lat="42.6705670" lon="1.4782960">
        <ele>2526.9</ele>
        <time>2021-08-10T10:33:28Z</time>
      </trkpt>
      <trkpt lat="42.6705710" lon="1.4782860">
        <ele>2526.6</ele>
        <time>2021-08-10T10:33:30Z</time>
      </trkpt>
      <trkpt lat="42.6705720" lon="1.4782770">
        <ele>2526.4</ele>
        <time>2021-08-10T10:33:32Z</time>
      </trkpt>
      <trkpt lat="42.6705700" lon="1.4782700">
        <ele>2526.2</ele>
        <time>2021-08-10T10:33:34Z</time>
      </trkpt>
      <trkpt lat="42.6705690" lon="1.4782680">
        <ele>2526.2</ele>
        <time>2021-08-10T10:33:35Z</time>
      </trkpt>
      <trkpt lat="42.6705710" lon="1.4782660">
        <ele>2526.1</ele>
        <time>2021-08-10T10:33:36Z</time>
      </trkpt>
      <trkpt lat="42.6705900" lon="1.4782670">
        <ele>2525.6</ele>
        <time>2021-08-10T10:33:42Z</time>
      </trkpt>
      <trkpt lat="42.6705930" lon="1.4782530">
        <ele>2525.3</ele>
        <time>2021-08-10T10:33:54Z</time>
      </trkpt>
      <trkpt lat="42.6706170" lon="1.4782190">
        <ele>2524.3</ele>
        <time>2021-08-10T10:34:29Z</time>
      </trkpt>
      <trkpt lat="42.6706760" lon="1.4782080">
        <ele>2522.5</ele>
        <time>2021-08-10T10:34:52Z</time>
      </trkpt>
      <trkpt lat="42.6708070" lon="1.4782710">
        <ele>2518.0</ele>
        <time>2021-08-10T10:36:11Z</time>
      </trkpt>
      <trkpt lat="42.6708150" lon="1.4782770">
        <ele>2517.7</ele>
        <time>2021-08-10T10:36:13Z</time>
      </trkpt>
      <trkpt lat="42.6708190" lon="1.4782840">
        <ele>2517.5</ele>
        <time>2021-08-10T10:36:14Z</time>
      </trkpt>
      <trkpt lat="42.6708530" lon="1.4783330">
        <ele>2515.9</ele>
        <time>2021-08-10T10:36:23Z</time>
      </trkpt>
      <trkpt lat="42.6709540" lon="1.4783100">
        <ele>2512.7</ele>
        <time>2021-08-10T10:36:57Z</time>
      </trkpt>
      <trkpt lat="42.6709990" lon="1.4783140">
        <ele>2511.5</ele>
        <time>2021-08-10T10:37:21Z</time>
      </trkpt>
      <trkpt lat="42.6710560" lon="1.4783000">
        <ele>2509.9</ele>
        <time>2021-08-10T10:37:57Z</time>
      </trkpt>
      <trkpt lat="42.6711070" lon="1.4782800">
        <ele>2508.6</ele>
        <time>2021-08-10T10:38:11Z</time>
      </trkpt>
      <trkpt lat="42.6712450" lon="1.4782820">
        <ele>2505.5</ele>
        <time>2021-08-10T10:39:25Z</time>
      </trkpt>
      <trkpt lat="42.6712690" lon="1.4782880">
        <ele>2505.0</ele>
        <time>2021-08-10T10:39:35Z</time>
      </trkpt>
      <trkpt lat="42.6712790" lon="1.4782660">
        <ele>2504.5</ele>
        <time>2021-08-10T10:39:41Z</time>
      </trkpt>
      <trkpt lat="42.6713290" lon="1.4782580">
        <ele>2503.1</ele>
        <time>2021-08-10T10:40:01Z</time>
      </trkpt>
      <trkpt lat="42.6713480" lon="1.4782770">
        <ele>2502.3</ele>
        <time>2021-08-10T10:40:15Z</time>
      </trkpt>
      <trkpt lat="42.6713650" lon="1.4782820">
        <ele>2501.8</ele>
        <time>2021-08-10T10:40:29Z</time>
      </trkpt>
      <trkpt lat="42.6714140" lon="1.4782950">
        <ele>2500.0</ele>
        <time>2021-08-10T10:41:12Z</time>
      </trkpt>
      <trkpt lat="42.6714820" lon="1.4783340">
        <ele>2497.3</ele>
        <time>2021-08-10T10:42:25Z</time>
      </trkpt>
      <trkpt lat="42.6714870" lon="1.4783310">
        <ele>2497.1</ele>
        <time>2021-08-10T10:42:34Z</time>
      </trkpt>
      <trkpt lat="42.6715030" lon="1.4783370">
        <ele>2496.6</ele>
        <time>2021-08-10T10:43:04Z</time>
      </trkpt>
      <trkpt lat="42.6715070" lon="1.4783010">
        <ele>2495.6</ele>
        <time>2021-08-10T10:43:33Z</time>
      </trkpt>
      <trkpt lat="42.6715570" lon="1.4783160">
        <ele>2493.8</ele>
        <time>2021-08-10T10:44:13Z</time>
      </trkpt>
      <trkpt lat="42.6715560" lon="1.4783210">
        <ele>2493.7</ele>
        <time>2021-08-10T10:44:21Z</time>
      </trkpt>
      <trkpt lat="42.6715700" lon="1.4782950">
        <ele>2492.9</ele>
        <time>2021-08-10T10:44:36Z</time>
      </trkpt>
      <trkpt lat="42.6715720" lon="1.4782950">
        <ele>2492.8</ele>
        <time>2021-08-10T10:44:37Z</time>
      </trkpt>
      <trkpt lat="42.6715760" lon="1.4783000">
        <ele>2492.6</ele>
        <time>2021-08-10T10:44:43Z</time>
      </trkpt>
      <trkpt lat="42.6715830" lon="1.4783060">
        <ele>2492.3</ele>
        <time>2021-08-10T10:44:48Z</time>
      </trkpt>
      <trkpt lat="42.6716510" lon="1.4782950">
        <ele>2490.0</ele>
        <time>2021-08-10T10:45:47Z</time>
      </trkpt>
      <trkpt lat="42.6716610" lon="1.4782910">
        <ele>2489.6</ele>
        <time>2021-08-10T10:45:58Z</time>
      </trkpt>
      <trkpt lat="42.6716660" lon="1.4782780">
        <ele>2489.2</ele>
        <time>2021-08-10T10:46:05Z</time>
      </trkpt>
      <trkpt lat="42.6717120" lon="1.4782680">
        <ele>2487.5</ele>
        <time>2021-08-10T10:46:15Z</time>
      </trkpt>
      <trkpt lat="42.6718420" lon="1.4783330">
        <ele>2482.2</ele>
        <time>2021-08-10T10:47:32Z</time>
      </trkpt>
      <trkpt lat="42.6719070" lon="1.4783370">
        <ele>2479.8</ele>
        <time>2021-08-10T10:47:47Z</time>
      </trkpt>
      <trkpt lat="42.6720530" lon="1.4782770">
        <ele>2474.3</ele>
        <time>2021-08-10T10:49:00Z</time>
      </trkpt>
      <trkpt lat="42.6722130" lon="1.4783610">
        <ele>2469.0</ele>
        <time>2021-08-10T10:49:56Z</time>
      </trkpt>
      <trkpt lat="42.6722350" lon="1.4783530">
        <ele>2468.4</ele>
        <time>2021-08-10T10:50:14Z</time>
      </trkpt>
      <trkpt lat="42.6722590" lon="1.4783540">
        <ele>2467.7</ele>
        <time>2021-08-10T10:50:29Z</time>
      </trkpt>
      <trkpt lat="42.6722750" lon="1.4783650">
        <ele>2467.2</ele>
        <time>2021-08-10T10:50:36Z</time>
      </trkpt>
      <trkpt lat="42.6723230" lon="1.4783660">
        <ele>2465.9</ele>
        <time>2021-08-10T10:50:46Z</time>
      </trkpt>
      <trkpt lat="42.6723960" lon="1.4783800">
        <ele>2464.0</ele>
        <time>2021-08-10T10:50:58Z</time>
      </trkpt>
      <trkpt lat="42.6725440" lon="1.4783880">
        <ele>2460.7</ele>
        <time>2021-08-10T10:51:31Z</time>
      </trkpt>
      <trkpt lat="42.6726730" lon="1.4785030">
        <ele>2457.2</ele>
        <time>2021-08-10T10:52:29Z</time>
      </trkpt>
      <trkpt lat="42.6727670" lon="1.4784160">
        <ele>2454.0</ele>
        <time>2021-08-10T10:53:22Z</time>
      </trkpt>
      <trkpt lat="42.6728030" lon="1.4784280">
        <ele>2452.9</ele>
        <time>2021-08-10T10:53:34Z</time>
      </trkpt>
      <trkpt lat="42.6728350" lon="1.4784060">
        <ele>2452.0</ele>
        <time>2021-08-10T10:53:50Z</time>
      </trkpt>
      <trkpt lat="42.6728260" lon="1.4783610">
        <ele>2451.2</ele>
        <time>2021-08-10T10:54:03Z</time>
      </trkpt>
      <trkpt lat="42.6729200" lon="1.4782940">
        <ele>2449.2</ele>
        <time>2021-08-10T10:54:26Z</time>
      </trkpt>
      <trkpt lat="42.6729460" lon="1.4782810">
        <ele>2448.7</ele>
        <time>2021-08-10T10:54:35Z</time>
      </trkpt>
      <trkpt lat="42.6730630" lon="1.4781120">
        <ele>2445.2</ele>
        <time>2021-08-10T10:55:20Z</time>
      </trkpt>
      <trkpt lat="42.6732110" lon="1.4780140">
        <ele>2441.8</ele>
        <time>2021-08-10T10:56:00Z</time>
      </trkpt>
      <trkpt lat="42.6733900" lon="1.4780000">
        <ele>2439.7</ele>
        <time>2021-08-10T10:56:30Z</time>
      </trkpt>
      <trkpt lat="42.6735070" lon="1.4779590">
        <ele>2438.7</ele>
        <time>2021-08-10T10:56:52Z</time>
      </trkpt>
      <trkpt lat="42.6735400" lon="1.4779310">
        <ele>2438.3</ele>
        <time>2021-08-10T10:57:05Z</time>
      </trkpt>
      <trkpt lat="42.6735750" lon="1.4778540">
        <ele>2437.6</ele>
        <time>2021-08-10T10:57:33Z</time>
      </trkpt>
      <trkpt lat="42.6735870" lon="1.4778540">
        <ele>2437.4</ele>
        <time>2021-08-10T10:57:39Z</time>
      </trkpt>
      <trkpt lat="42.6736610" lon="1.4776850">
        <ele>2436.2</ele>
        <time>2021-08-10T10:58:28Z</time>
      </trkpt>
      <trkpt lat="42.6737680" lon="1.4775210">
        <ele>2435.9</ele>
        <time>2021-08-10T10:58:49Z</time>
      </trkpt>
      <trkpt lat="42.6738510" lon="1.4774540">
        <ele>2435.6</ele>
        <time>2021-08-10T10:59:01Z</time>
      </trkpt>
      <trkpt lat="42.6739540" lon="1.4773820">
        <ele>2434.8</ele>
        <time>2021-08-10T10:59:32Z</time>
      </trkpt>
      <trkpt lat="42.6739750" lon="1.4774090">
        <ele>2434.5</ele>
        <time>2021-08-10T10:59:45Z</time>
      </trkpt>
      <trkpt lat="42.6740460" lon="1.4773730">
        <ele>2433.8</ele>
        <time>2021-08-10T11:00:03Z</time>
      </trkpt>
      <trkpt lat="42.6742200" lon="1.4774070">
        <ele>2432.2</ele>
        <time>2021-08-10T11:00:35Z</time>
      </trkpt>
      <trkpt lat="42.6743840" lon="1.4774290">
        <ele>2430.4</ele>
        <time>2021-08-10T11:01:14Z</time>
      </trkpt>
      <trkpt lat="42.6744570" lon="1.4774090">
        <ele>2429.4</ele>
        <time>2021-08-10T11:01:36Z</time>
      </trkpt>
      <trkpt lat="42.6744960" lon="1.4774080">
        <ele>2428.8</ele>
        <time>2021-08-10T11:02:00Z</time>
      </trkpt>
      <trkpt lat="42.6745070" lon="1.4774330">
        <ele>2428.5</ele>
        <time>2021-08-10T11:02:36Z</time>
      </trkpt>
      <trkpt lat="42.6745120" lon="1.4774320">
        <ele>2428.4</ele>
        <time>2021-08-10T11:02:38Z</time>
      </trkpt>
      <trkpt lat="42.6745250" lon="1.4774360">
        <ele>2428.2</ele>
        <time>2021-08-10T11:02:41Z</time>
      </trkpt>
      <trkpt lat="42.6745340" lon="1.4774360">
        <ele>2428.0</ele>
        <time>2021-08-10T11:02:46Z</time>
      </trkpt>
      <trkpt lat="42.6745400" lon="1.4774260">
        <ele>2427.9</ele>
        <time>2021-08-10T11:02:56Z</time>
      </trkpt>
      <trkpt lat="42.6745750" lon="1.4774220">
        <ele>2427.3</ele>
        <time>2021-08-10T11:03:07Z</time>
      </trkpt>
      <trkpt lat="42.6745950" lon="1.4773780">
        <ele>2426.8</ele>
        <time>2021-08-10T11:03:20Z</time>
      </trkpt>
      <trkpt lat="42.6746640" lon="1.4773790">
        <ele>2425.8</ele>
        <time>2021-08-10T11:04:09Z</time>
      </trkpt>
      <trkpt lat="42.6746940" lon="1.4773770">
        <ele>2425.4</ele>
        <time>2021-08-10T11:04:26Z</time>
      </trkpt>
      <trkpt lat="42.6747260" lon="1.4773840">
        <ele>2424.9</ele>
        <time>2021-08-10T11:04:38Z</time>
      </trkpt>
      <trkpt lat="42.6747350" lon="1.4773810">
        <ele>2424.8</ele>
        <time>2021-08-10T11:04:45Z</time>
      </trkpt>
      <trkpt lat="42.6747720" lon="1.4773820">
        <ele>2424.3</ele>
        <time>2021-08-10T11:04:59Z</time>
      </trkpt>
      <trkpt lat="42.6748120" lon="1.4773900">
        <ele>2423.7</ele>
        <time>2021-08-10T11:05:09Z</time>
      </trkpt>
      <trkpt lat="42.6748710" lon="1.4773660">
        <ele>2422.9</ele>
        <time>2021-08-10T11:05:19Z</time>
      </trkpt>
      <trkpt lat="42.6748950" lon="1.4773720">
        <ele>2422.6</ele>
        <time>2021-08-10T11:05:23Z</time>
      </trkpt>
      <trkpt lat="42.6749280" lon="1.4773730">
        <ele>2422.2</ele>
        <time>2021-08-10T11:05:28Z</time>
      </trkpt>
      <trkpt lat="42.6749430" lon="1.4773730">
        <ele>2422.1</ele>
        <time>2021-08-10T11:05:31Z</time>
      </trkpt>
      <trkpt lat="42.6749590" lon="1.4773690">
        <ele>2422.0</ele>
        <time>2021-08-10T11:05:35Z</time>
      </trkpt>
      <trkpt lat="42.6749690" lon="1.4773430">
        <ele>2421.9</ele>
        <time>2021-08-10T11:05:40Z</time>
      </trkpt>
      <trkpt lat="42.6749740" lon="1.4773370">
        <ele>2421.8</ele>
        <time>2021-08-10T11:05:41Z</time>
      </trkpt>
      <trkpt lat="42.6749860" lon="1.4773260">
        <ele>2421.7</ele>
        <time>2021-08-10T11:05:43Z</time>
      </trkpt>
      <trkpt lat="42.6750030" lon="1.4773150">
        <ele>2421.6</ele>
        <time>2021-08-10T11:05:48Z</time>
      </trkpt>
      <trkpt lat="42.6750060" lon="1.4773120">
        <ele>2421.6</ele>
        <time>2021-08-10T11:05:49Z</time>
      </trkpt>
      <trkpt lat="42.6750470" lon="1.4772570">
        <ele>2421.4</ele>
        <time>2021-08-10T11:05:56Z</time>
      </trkpt>
      <trkpt lat="42.6750840" lon="1.4772290">
        <ele>2421.2</ele>
        <time>2021-08-10T11:06:09Z</time>
      </trkpt>
      <trkpt lat="42.6751060" lon="1.4772400">
        <ele>2421.1</ele>
        <time>2021-08-10T11:06:26Z</time>
      </trkpt>
      <trkpt lat="42.6751300" lon="1.4770350">
        <ele>2420.4</ele>
        <time>2021-08-10T11:07:37Z</time>
      </trkpt>
      <trkpt lat="42.6751050" lon="1.4769690">
        <ele>2420.2</ele>
        <time>2021-08-10T11:08:26Z</time>
      </trkpt>
      <trkpt lat="42.6751130" lon="1.4769700">
        <ele>2420.2</ele>
        <time>2021-08-10T11:08:33Z</time>
      </trkpt>
      <trkpt lat="42.6751070" lon="1.4769790">
        <ele>2420.2</ele>
        <time>2021-08-10T11:08:38Z</time>
      </trkpt>
      <trkpt lat="42.6751050" lon="1.4769830">
        <ele>2420.2</ele>
        <time>2021-08-10T11:08:44Z</time>
      </trkpt>
      <trkpt lat="42.6750720" lon="1.4769950">
        <ele>2420.0</ele>
        <time>2021-08-10T11:09:12Z</time>
      </trkpt>
      <trkpt lat="42.6750700" lon="1.4770020">
        <ele>2420.0</ele>
        <time>2021-08-10T11:09:18Z</time>
      </trkpt>
      <trkpt lat="42.6750710" lon="1.4770010">
        <ele>2420.0</ele>
        <time>2021-08-10T11:09:21Z</time>
      </trkpt>
      <trkpt lat="42.6750710" lon="1.4770010">
        <ele>2420.0</ele>
        <time>2021-08-10T11:09:23Z</time>
      </trkpt>
      <trkpt lat="42.6750730" lon="1.4769930">
        <ele>2420.0</ele>
        <time>2021-08-10T11:09:29Z</time>
      </trkpt>
      <trkpt lat="42.6750740" lon="1.4769940">
        <ele>2420.0</ele>
        <time>2021-08-10T11:09:30Z</time>
      </trkpt>
      <trkpt lat="42.6750730" lon="1.4769910">
        <ele>2420.0</ele>
        <time>2021-08-10T11:09:31Z</time>
      </trkpt>
      <trkpt lat="42.6750750" lon="1.4769850">
        <ele>2419.9</ele>
        <time>2021-08-10T11:09:34Z</time>
      </trkpt>
      <trkpt lat="42.6750620" lon="1.4769670">
        <ele>2419.9</ele>
        <time>2021-08-10T11:09:38Z</time>
      </trkpt>
      <trkpt lat="42.6750580" lon="1.4769640">
        <ele>2419.8</ele>
        <time>2021-08-10T11:09:41Z</time>
      </trkpt>
      <trkpt lat="42.6750620" lon="1.4769640">
        <ele>2419.8</ele>
        <time>2021-08-10T11:09:43Z</time>
      </trkpt>
      <trkpt lat="42.6750640" lon="1.4769640">
        <ele>2419.8</ele>
        <time>2021-08-10T11:09:47Z</time>
      </trkpt>
      <trkpt lat="42.6750650" lon="1.4769640">
        <ele>2419.8</ele>
        <time>2021-08-10T11:09:49Z</time>
      </trkpt>
      <trkpt lat="42.6750640" lon="1.4769620">
        <ele>2419.8</ele>
        <time>2021-08-10T11:09:51Z</time>
      </trkpt>
      <trkpt lat="42.6750640" lon="1.4769540">
        <ele>2419.8</ele>
        <time>2021-08-10T11:10:09Z</time>
      </trkpt>
      <trkpt lat="42.6750790" lon="1.4769520">
        <ele>2419.7</ele>
        <time>2021-08-10T11:10:19Z</time>
      </trkpt>
      <trkpt lat="42.6750890" lon="1.4769620">
        <ele>2419.6</ele>
        <time>2021-08-10T11:10:37Z</time>
      </trkpt>
      <trkpt lat="42.6750990" lon="1.4769930">
        <ele>2419.4</ele>
        <time>2021-08-10T11:11:15Z</time>
      </trkpt>
      <trkpt lat="42.6750370" lon="1.4769330">
        <ele>2418.8</ele>
        <time>2021-08-10T11:11:19Z</time>
      </trkpt>
      <trkpt lat="42.6750350" lon="1.4769320">
        <ele>2418.8</ele>
        <time>2021-08-10T11:11:22Z</time>
      </trkpt>
      <trkpt lat="42.6750360" lon="1.4769350">
        <ele>2418.8</ele>
        <time>2021-08-10T11:11:23Z</time>
      </trkpt>
      <trkpt lat="42.6750390" lon="1.4769420">
        <ele>2418.7</ele>
        <time>2021-08-10T11:11:26Z</time>
      </trkpt>
      <trkpt lat="42.6750590" lon="1.4769650">
        <ele>2418.5</ele>
        <time>2021-08-10T11:12:16Z</time>
      </trkpt>
      <trkpt lat="42.6750710" lon="1.4770290">
        <ele>2418.1</ele>
        <time>2021-08-10T11:12:26Z</time>
      </trkpt>
      <trkpt lat="42.6750820" lon="1.4770340">
        <ele>2418.0</ele>
        <time>2021-08-10T11:12:39Z</time>
      </trkpt>
      <trkpt lat="42.6750890" lon="1.4770590">
        <ele>2417.8</ele>
        <time>2021-08-10T11:12:44Z</time>
      </trkpt>
      <trkpt lat="42.6750890" lon="1.4770670">
        <ele>2417.7</ele>
        <time>2021-08-10T11:12:45Z</time>
      </trkpt>
      <trkpt lat="42.6750870" lon="1.4770750">
        <ele>2417.7</ele>
        <time>2021-08-10T11:12:46Z</time>
      </trkpt>
      <trkpt lat="42.6750880" lon="1.4770800">
        <ele>2417.6</ele>
        <time>2021-08-10T11:12:47Z</time>
      </trkpt>
      <trkpt lat="42.6750890" lon="1.4770830">
        <ele>2417.6</ele>
        <time>2021-08-10T11:12:48Z</time>
      </trkpt>
      <trkpt lat="42.6750880" lon="1.4770800">
        <ele>2417.6</ele>
        <time>2021-08-10T11:12:53Z</time>
      </trkpt>
      <trkpt lat="42.6750900" lon="1.4770810">
        <ele>2417.6</ele>
        <time>2021-08-10T11:12:54Z</time>
      </trkpt>
      <trkpt lat="42.6750870" lon="1.4770600">
        <ele>2417.4</ele>
        <time>2021-08-10T11:12:58Z</time>
      </trkpt>
      <trkpt lat="42.6750880" lon="1.4770590">
        <ele>2417.4</ele>
        <time>2021-08-10T11:12:59Z</time>
      </trkpt>
      <trkpt lat="42.6750880" lon="1.4770600">
        <ele>2417.4</ele>
        <time>2021-08-10T11:13:00Z</time>
      </trkpt>
      <trkpt lat="42.6750880" lon="1.4770600">
        <ele>2417.4</ele>
        <time>2021-08-10T11:13:01Z</time>
      </trkpt>
      <trkpt lat="42.6750760" lon="1.4770660">
        <ele>2417.3</ele>
        <time>2021-08-10T11:13:05Z</time>
      </trkpt>
      <trkpt lat="42.6750730" lon="1.4770410">
        <ele>2417.2</ele>
        <time>2021-08-10T11:13:20Z</time>
      </trkpt>
      <trkpt lat="42.6750800" lon="1.4770250">
        <ele>2417.1</ele>
        <time>2021-08-10T11:13:26Z</time>
      </trkpt>
      <trkpt lat="42.6750960" lon="1.4769890">
        <ele>2416.9</ele>
        <time>2021-08-10T11:13:34Z</time>
      </trkpt>
      <trkpt lat="42.6751040" lon="1.4769880">
        <ele>2416.8</ele>
        <time>2021-08-10T11:13:45Z</time>
      </trkpt>
      <trkpt lat="42.6751080" lon="1.4769930">
        <ele>2416.8</ele>
        <time>2021-08-10T11:13:49Z</time>
      </trkpt>
      <trkpt lat="42.6751130" lon="1.4770050">
        <ele>2416.7</ele>
        <time>2021-08-10T11:13:52Z</time>
      </trkpt>
      <trkpt lat="42.6751270" lon="1.4770310">
        <ele>2416.6</ele>
        <time>2021-08-10T11:14:03Z</time>
      </trkpt>
      <trkpt lat="42.6751220" lon="1.4770320">
        <ele>2416.5</ele>
        <time>2021-08-10T11:14:05Z</time>
      </trkpt>
      <trkpt lat="42.6751200" lon="1.4770300">
        <ele>2416.5</ele>
        <time>2021-08-10T11:14:06Z</time>
      </trkpt>
      <trkpt lat="42.6751160" lon="1.4770250">
        <ele>2416.5</ele>
        <time>2021-08-10T11:14:08Z</time>
      </trkpt>
      <trkpt lat="42.6751540" lon="1.4770850">
        <ele>2416.2</ele>
        <time>2021-08-10T11:14:35Z</time>
      </trkpt>
      <trkpt lat="42.6751680" lon="1.4771090">
        <ele>2416.1</ele>
        <time>2021-08-10T11:14:46Z</time>
      </trkpt>
      <trkpt lat="42.6751770" lon="1.4771150">
        <ele>2416.1</ele>
        <time>2021-08-10T11:15:40Z</time>
      </trkpt>
      <trkpt lat="42.6751310" lon="1.4770670">
        <ele>2415.9</ele>
        <time>2021-08-10T11:16:11Z</time>
      </trkpt>
      <trkpt lat="42.6751270" lon="1.4770690">
        <ele>2415.9</ele>
        <time>2021-08-10T11:16:18Z</time>
      </trkpt>
      <trkpt lat="42.6751280" lon="1.4770690">
        <ele>2415.9</ele>
        <time>2021-08-10T11:16:26Z</time>
      </trkpt>
      <trkpt lat="42.6751280" lon="1.4770710">
        <ele>2415.9</ele>
        <time>2021-08-10T11:16:27Z</time>
      </trkpt>
      <trkpt lat="42.6751250" lon="1.4770690">
        <ele>2415.9</ele>
        <time>2021-08-10T11:16:30Z</time>
      </trkpt>
      <trkpt lat="42.6751250" lon="1.4770690">
        <ele>2415.9</ele>
        <time>2021-08-10T11:16:32Z</time>
      </trkpt>
      <trkpt lat="42.6751250" lon="1.4770680">
        <ele>2415.9</ele>
        <time>2021-08-10T11:16:38Z</time>
      </trkpt>
      <trkpt lat="42.6751320" lon="1.4770710">
        <ele>2415.9</ele>
        <time>2021-08-10T11:16:49Z</time>
      </trkpt>
      <trkpt lat="42.6751370" lon="1.4770740">
        <ele>2415.9</ele>
        <time>2021-08-10T11:16:50Z</time>
      </trkpt>
      <trkpt lat="42.6751400" lon="1.4770750">
        <ele>2415.9</ele>
        <time>2021-08-10T11:16:51Z</time>
      </trkpt>
      <trkpt lat="42.6751480" lon="1.4770740">
        <ele>2415.9</ele>
        <time>2021-08-10T11:16:59Z</time>
      </trkpt>
      <trkpt lat="42.6751480" lon="1.4770750">
        <ele>2415.9</ele>
        <time>2021-08-10T11:17:04Z</time>
      </trkpt>
      <trkpt lat="42.6751660" lon="1.4770930">
        <ele>2415.8</ele>
        <time>2021-08-10T11:17:36Z</time>
      </trkpt>
      <trkpt lat="42.6751990" lon="1.4771170">
        <ele>2415.7</ele>
        <time>2021-08-10T11:17:47Z</time>
      </trkpt>
      <trkpt lat="42.6751730" lon="1.4770890">
        <ele>2415.5</ele>
        <time>2021-08-10T11:18:26Z</time>
      </trkpt>
      <trkpt lat="42.6751790" lon="1.4770920">
        <ele>2415.5</ele>
        <time>2021-08-10T11:18:29Z</time>
      </trkpt>
      <trkpt lat="42.6751810" lon="1.4770990">
        <ele>2415.4</ele>
        <time>2021-08-10T11:18:32Z</time>
      </trkpt>
      <trkpt lat="42.6751780" lon="1.4770950">
        <ele>2415.4</ele>
        <time>2021-08-10T11:18:34Z</time>
      </trkpt>
      <trkpt lat="42.6751770" lon="1.4770970">
        <ele>2415.4</ele>
        <time>2021-08-10T11:18:35Z</time>
      </trkpt>
      <trkpt lat="42.6751770" lon="1.4770980">
        <ele>2415.4</ele>
        <time>2021-08-10T11:18:36Z</time>
      </trkpt>
      <trkpt lat="42.6751800" lon="1.4771020">
        <ele>2415.3</ele>
        <time>2021-08-10T11:18:37Z</time>
      </trkpt>
      <trkpt lat="42.6751800" lon="1.4771030">
        <ele>2415.3</ele>
        <time>2021-08-10T11:18:38Z</time>
      </trkpt>
      <trkpt lat="42.6751810" lon="1.4771060">
        <ele>2415.3</ele>
        <time>2021-08-10T11:18:39Z</time>
      </trkpt>
      <trkpt lat="42.6751810" lon="1.4771080">
        <ele>2415.3</ele>
        <time>2021-08-10T11:18:40Z</time>
      </trkpt>
      <trkpt lat="42.6751770" lon="1.4770960">
        <ele>2415.2</ele>
        <time>2021-08-10T11:18:44Z</time>
      </trkpt>
      <trkpt lat="42.6751890" lon="1.4770900">
        <ele>2415.1</ele>
        <time>2021-08-10T11:18:48Z</time>
      </trkpt>
      <trkpt lat="42.6751910" lon="1.4770880">
        <ele>2415.1</ele>
        <time>2021-08-10T11:18:49Z</time>
      </trkpt>
      <trkpt lat="42.6751700" lon="1.4770910">
        <ele>2414.9</ele>
        <time>2021-08-10T11:19:59Z</time>
      </trkpt>
      <trkpt lat="42.6751710" lon="1.4770950">
        <ele>2414.8</ele>
        <time>2021-08-10T11:20:09Z</time>
      </trkpt>
      <trkpt lat="42.6751590" lon="1.4770680">
        <ele>2414.5</ele>
        <time>2021-08-10T11:20:22Z</time>
      </trkpt>
      <trkpt lat="42.6751940" lon="1.4770760">
        <ele>2414.0</ele>
        <time>2021-08-10T11:21:32Z</time>
      </trkpt>
      <trkpt lat="42.6753040" lon="1.4770980">
        <ele>2412.1</ele>
        <time>2021-08-10T11:22:11Z</time>
      </trkpt>
      <trkpt lat="42.6753400" lon="1.4770990">
        <ele>2411.5</ele>
        <time>2021-08-10T11:22:20Z</time>
      </trkpt>
      <trkpt lat="42.6754340" lon="1.4769800">
        <ele>2409.3</ele>
        <time>2021-08-10T11:22:54Z</time>
      </trkpt>
      <trkpt lat="42.6754820" lon="1.4769650">
        <ele>2408.4</ele>
        <time>2021-08-10T11:23:11Z</time>
      </trkpt>
      <trkpt lat="42.6755640" lon="1.4767780">
        <ele>2404.8</ele>
        <time>2021-08-10T11:24:05Z</time>
      </trkpt>
      <trkpt lat="42.6757310" lon="1.4767610">
        <ele>2399.9</ele>
        <time>2021-08-10T11:24:59Z</time>
      </trkpt>
      <trkpt lat="42.6758950" lon="1.4768470">
        <ele>2395.5</ele>
        <time>2021-08-10T11:25:32Z</time>
      </trkpt>
      <trkpt lat="42.6760300" lon="1.4770110">
        <ele>2392.4</ele>
        <time>2021-08-10T11:25:59Z</time>
      </trkpt>
      <trkpt lat="42.6761590" lon="1.4771280">
        <ele>2391.0</ele>
        <time>2021-08-10T11:26:52Z</time>
      </trkpt>
      <trkpt lat="42.6763080" lon="1.4771990">
        <ele>2389.9</ele>
        <time>2021-08-10T11:27:19Z</time>
      </trkpt>
      <trkpt lat="42.6763240" lon="1.4772040">
        <ele>2389.7</ele>
        <time>2021-08-10T11:27:21Z</time>
      </trkpt>
      <trkpt lat="42.6765030" lon="1.4771970">
        <ele>2387.9</ele>
        <time>2021-08-10T11:27:43Z</time>
      </trkpt>
      <trkpt lat="42.6765270" lon="1.4771820">
        <ele>2387.8</ele>
        <time>2021-08-10T11:27:48Z</time>
      </trkpt>
      <trkpt lat="42.6767100" lon="1.4771630">
        <ele>2386.8</ele>
        <time>2021-08-10T11:28:08Z</time>
      </trkpt>
      <trkpt lat="42.6768410" lon="1.4771750">
        <ele>2386.0</ele>
        <time>2021-08-10T11:28:31Z</time>
      </trkpt>
      <trkpt lat="42.6769170" lon="1.4771670">
        <ele>2386.2</ele>
        <time>2021-08-10T11:28:47Z</time>
      </trkpt>
      <trkpt lat="42.6770610" lon="1.4771630">
        <ele>2385.7</ele>
        <time>2021-08-10T11:29:28Z</time>
      </trkpt>
      <trkpt lat="42.6772350" lon="1.4772270">
        <ele>2384.0</ele>
        <time>2021-08-10T11:29:56Z</time>
      </trkpt>
      <trkpt lat="42.6774050" lon="1.4771490">
        <ele>2381.9</ele>
        <time>2021-08-10T11:30:41Z</time>
      </trkpt>
      <trkpt lat="42.6775330" lon="1.4771570">
        <ele>2380.0</ele>
        <time>2021-08-10T11:30:59Z</time>
      </trkpt>
      <trkpt lat="42.6777190" lon="1.4772240">
        <ele>2377.0</ele>
        <time>2021-08-10T11:31:22Z</time>
      </trkpt>
      <trkpt lat="42.6778960" lon="1.4771560">
        <ele>2374.6</ele>
        <time>2021-08-10T11:31:45Z</time>
      </trkpt>
      <trkpt lat="42.6779820" lon="1.4771240">
        <ele>2373.2</ele>
        <time>2021-08-10T11:31:56Z</time>
      </trkpt>
      <trkpt lat="42.6780560" lon="1.4770880">
        <ele>2372.0</ele>
        <time>2021-08-10T11:32:05Z</time>
      </trkpt>
      <trkpt lat="42.6782330" lon="1.4770910">
        <ele>2368.1</ele>
        <time>2021-08-10T11:32:34Z</time>
      </trkpt>
      <trkpt lat="42.6783430" lon="1.4770710">
        <ele>2364.6</ele>
        <time>2021-08-10T11:32:53Z</time>
      </trkpt>
      <trkpt lat="42.6783510" lon="1.4770680">
        <ele>2364.3</ele>
        <time>2021-08-10T11:32:54Z</time>
      </trkpt>
      <trkpt lat="42.6783800" lon="1.4770680">
        <ele>2363.2</ele>
        <time>2021-08-10T11:32:57Z</time>
      </trkpt>
      <trkpt lat="42.6784060" lon="1.4770660">
        <ele>2362.2</ele>
        <time>2021-08-10T11:33:02Z</time>
      </trkpt>
      <trkpt lat="42.6784360" lon="1.4770460">
        <ele>2360.9</ele>
        <time>2021-08-10T11:33:06Z</time>
      </trkpt>
      <trkpt lat="42.6784760" lon="1.4770120">
        <ele>2359.0</ele>
        <time>2021-08-10T11:33:16Z</time>
      </trkpt>
      <trkpt lat="42.6784950" lon="1.4769500">
        <ele>2357.1</ele>
        <time>2021-08-10T11:33:31Z</time>
      </trkpt>
      <trkpt lat="42.6785180" lon="1.4767280">
        <ele>2351.4</ele>
        <time>2021-08-10T11:34:19Z</time>
      </trkpt>
      <trkpt lat="42.6785690" lon="1.4764960">
        <ele>2344.8</ele>
        <time>2021-08-10T11:35:00Z</time>
      </trkpt>
      <trkpt lat="42.6785920" lon="1.4764530">
        <ele>2343.0</ele>
        <time>2021-08-10T11:35:07Z</time>
      </trkpt>
      <trkpt lat="42.6785960" lon="1.4764490">
        <ele>2342.7</ele>
        <time>2021-08-10T11:35:08Z</time>
      </trkpt>
      <trkpt lat="42.6785910" lon="1.4763840">
        <ele>2340.5</ele>
        <time>2021-08-10T11:35:28Z</time>
      </trkpt>
      <trkpt lat="42.6786010" lon="1.4763230">
        <ele>2338.3</ele>
        <time>2021-08-10T11:35:41Z</time>
      </trkpt>
      <trkpt lat="42.6786060" lon="1.4763080">
        <ele>2337.7</ele>
        <time>2021-08-10T11:35:44Z</time>
      </trkpt>
      <trkpt lat="42.6786160" lon="1.4762130">
        <ele>2334.7</ele>
        <time>2021-08-10T11:36:07Z</time>
      </trkpt>
      <trkpt lat="42.6786060" lon="1.4760400">
        <ele>2330.5</ele>
        <time>2021-08-10T11:37:06Z</time>
      </trkpt>
      <trkpt lat="42.6786240" lon="1.4759530">
        <ele>2328.7</ele>
        <time>2021-08-10T11:37:21Z</time>
      </trkpt>
      <trkpt lat="42.6786440" lon="1.4757680">
        <ele>2325.3</ele>
        <time>2021-08-10T11:37:42Z</time>
      </trkpt>
      <trkpt lat="42.6786890" lon="1.4755280">
        <ele>2321.2</ele>
        <time>2021-08-10T11:38:13Z</time>
      </trkpt>
      <trkpt lat="42.6787460" lon="1.4753520">
        <ele>2316.2</ele>
        <time>2021-08-10T11:39:17Z</time>
      </trkpt>
      <trkpt lat="42.6787970" lon="1.4752530">
        <ele>2313.5</ele>
        <time>2021-08-10T11:39:49Z</time>
      </trkpt>
      <trkpt lat="42.6788590" lon="1.4750640">
        <ele>2309.3</ele>
        <time>2021-08-10T11:40:53Z</time>
      </trkpt>
      <trkpt lat="42.6789850" lon="1.4749840">
        <ele>2305.6</ele>
        <time>2021-08-10T11:42:03Z</time>
      </trkpt>
      <trkpt lat="42.6789890" lon="1.4749760">
        <ele>2305.4</ele>
        <time>2021-08-10T11:42:05Z</time>
      </trkpt>
      <trkpt lat="42.6790340" lon="1.4749360">
        <ele>2303.7</ele>
        <time>2021-08-10T11:42:16Z</time>
      </trkpt>
      <trkpt lat="42.6791010" lon="1.4748150">
        <ele>2300.0</ele>
        <time>2021-08-10T11:42:38Z</time>
      </trkpt>
      <trkpt lat="42.6790420" lon="1.4747770">
        <ele>2300.4</ele>
        <time>2021-08-10T11:43:54Z</time>
      </trkpt>
      <trkpt lat="42.6790270" lon="1.4745520">
        <ele>2301.6</ele>
        <time>2021-08-10T11:44:41Z</time>
      </trkpt>
      <trkpt lat="42.6790930" lon="1.4744610">
        <ele>2301.1</ele>
        <time>2021-08-10T11:45:05Z</time>
      </trkpt>
      <trkpt lat="42.6791010" lon="1.4743760">
        <ele>2300.3</ele>
        <time>2021-08-10T11:45:31Z</time>
      </trkpt>
      <trkpt lat="42.6792390" lon="1.4742750">
        <ele>2296.9</ele>
        <time>2021-08-10T11:45:59Z</time>
      </trkpt>
      <trkpt lat="42.6793700" lon="1.4742030">
        <ele>2292.4</ele>
        <time>2021-08-10T11:46:53Z</time>
      </trkpt>
      <trkpt lat="42.6794080" lon="1.4741420">
        <ele>2290.3</ele>
        <time>2021-08-10T11:47:41Z</time>
      </trkpt>
      <trkpt lat="42.6794290" lon="1.4741160">
        <ele>2289.3</ele>
        <time>2021-08-10T11:47:51Z</time>
      </trkpt>
      <trkpt lat="42.6794750" lon="1.4741370">
        <ele>2287.8</ele>
        <time>2021-08-10T11:48:04Z</time>
      </trkpt>
      <trkpt lat="42.6794860" lon="1.4741390">
        <ele>2287.5</ele>
        <time>2021-08-10T11:48:05Z</time>
      </trkpt>
      <trkpt lat="42.6794860" lon="1.4741390">
        <ele>2287.5</ele>
        <time>2021-08-10T11:48:06Z</time>
      </trkpt>
      <trkpt lat="42.6794940" lon="1.4741480">
        <ele>2287.2</ele>
        <time>2021-08-10T11:48:09Z</time>
      </trkpt>
      <trkpt lat="42.6795010" lon="1.4741540">
        <ele>2287.0</ele>
        <time>2021-08-10T11:48:13Z</time>
      </trkpt>
      <trkpt lat="42.6795140" lon="1.4741520">
        <ele>2286.7</ele>
        <time>2021-08-10T11:48:20Z</time>
      </trkpt>
      <trkpt lat="42.6795190" lon="1.4741420">
        <ele>2286.4</ele>
        <time>2021-08-10T11:48:22Z</time>
      </trkpt>
      <trkpt lat="42.6795620" lon="1.4741300">
        <ele>2285.3</ele>
        <time>2021-08-10T11:48:35Z</time>
      </trkpt>
      <trkpt lat="42.6795680" lon="1.4741280">
        <ele>2285.1</ele>
        <time>2021-08-10T11:48:37Z</time>
      </trkpt>
      <trkpt lat="42.6795740" lon="1.4741270">
        <ele>2285.0</ele>
        <time>2021-08-10T11:48:39Z</time>
      </trkpt>
      <trkpt lat="42.6796020" lon="1.4741450">
        <ele>2284.2</ele>
        <time>2021-08-10T11:48:44Z</time>
      </trkpt>
      <trkpt lat="42.6796040" lon="1.4741410">
        <ele>2284.1</ele>
        <time>2021-08-10T11:48:45Z</time>
      </trkpt>
      <trkpt lat="42.6796130" lon="1.4741250">
        <ele>2283.6</ele>
        <time>2021-08-10T11:48:47Z</time>
      </trkpt>
      <trkpt lat="42.6797680" lon="1.4740940">
        <ele>2278.4</ele>
        <time>2021-08-10T11:49:29Z</time>
      </trkpt>
      <trkpt lat="42.6798100" lon="1.4740790">
        <ele>2276.9</ele>
        <time>2021-08-10T11:49:38Z</time>
      </trkpt>
      <trkpt lat="42.6799780" lon="1.4741570">
        <ele>2272.1</ele>
        <time>2021-08-10T11:50:14Z</time>
      </trkpt>
      <trkpt lat="42.6799800" lon="1.4741780">
        <ele>2271.8</ele>
        <time>2021-08-10T11:50:23Z</time>
      </trkpt>
      <trkpt lat="42.6801360" lon="1.4742630">
        <ele>2268.0</ele>
        <time>2021-08-10T11:50:55Z</time>
      </trkpt>
      <trkpt lat="42.6802280" lon="1.4742770">
        <ele>2265.9</ele>
        <time>2021-08-10T11:51:12Z</time>
      </trkpt>
      <trkpt lat="42.6803920" lon="1.4743530">
        <ele>2262.7</ele>
        <time>2021-08-10T11:51:38Z</time>
      </trkpt>
      <trkpt lat="42.6804970" lon="1.4743490">
        <ele>2261.8</ele>
        <time>2021-08-10T11:51:56Z</time>
      </trkpt>
      <trkpt lat="42.6806600" lon="1.4744110">
        <ele>2262.1</ele>
        <time>2021-08-10T11:52:27Z</time>
      </trkpt>
      <trkpt lat="42.6807570" lon="1.4744710">
        <ele>2262.9</ele>
        <time>2021-08-10T11:52:48Z</time>
      </trkpt>
      <trkpt lat="42.6807780" lon="1.4745150">
        <ele>2263.2</ele>
        <time>2021-08-10T11:52:52Z</time>
      </trkpt>
      <trkpt lat="42.6809250" lon="1.4744630">
        <ele>2264.2</ele>
        <time>2021-08-10T11:53:55Z</time>
      </trkpt>
      <trkpt lat="42.6810170" lon="1.4744030">
        <ele>2264.3</ele>
        <time>2021-08-10T11:54:25Z</time>
      </trkpt>
      <trkpt lat="42.6810390" lon="1.4743870">
        <ele>2264.3</ele>
        <time>2021-08-10T11:54:30Z</time>
      </trkpt>
      <trkpt lat="42.6811750" lon="1.4742270">
        <ele>2263.1</ele>
        <time>2021-08-10T11:55:05Z</time>
      </trkpt>
      <trkpt lat="42.6812940" lon="1.4741630">
        <ele>2261.9</ele>
        <time>2021-08-10T11:55:34Z</time>
      </trkpt>
      <trkpt lat="42.6813120" lon="1.4741540">
        <ele>2261.7</ele>
        <time>2021-08-10T11:55:49Z</time>
      </trkpt>
      <trkpt lat="42.6813190" lon="1.4741410">
        <ele>2261.6</ele>
        <time>2021-08-10T11:55:51Z</time>
      </trkpt>
      <trkpt lat="42.6813230" lon="1.4741340">
        <ele>2261.5</ele>
        <time>2021-08-10T11:55:52Z</time>
      </trkpt>
      <trkpt lat="42.6813280" lon="1.4741270">
        <ele>2261.4</ele>
        <time>2021-08-10T11:55:53Z</time>
      </trkpt>
      <trkpt lat="42.6813830" lon="1.4740830">
        <ele>2260.7</ele>
        <time>2021-08-10T11:56:02Z</time>
      </trkpt>
      <trkpt lat="42.6815530" lon="1.4740370">
        <ele>2259.6</ele>
        <time>2021-08-10T11:56:25Z</time>
      </trkpt>
      <trkpt lat="42.6815900" lon="1.4739950">
        <ele>2259.6</ele>
        <time>2021-08-10T11:56:38Z</time>
      </trkpt>
      <trkpt lat="42.6816160" lon="1.4740010">
        <ele>2259.6</ele>
        <time>2021-08-10T11:56:46Z</time>
      </trkpt>
      <trkpt lat="42.6817040" lon="1.4739360">
        <ele>2259.7</ele>
        <time>2021-08-10T11:57:05Z</time>
      </trkpt>
      <trkpt lat="42.6817670" lon="1.4739030">
        <ele>2259.9</ele>
        <time>2021-08-10T11:57:14Z</time>
      </trkpt>
      <trkpt lat="42.6818020" lon="1.4739050">
        <ele>2260.0</ele>
        <time>2021-08-10T11:57:18Z</time>
      </trkpt>
      <trkpt lat="42.6818120" lon="1.4739190">
        <ele>2260.1</ele>
        <time>2021-08-10T11:57:20Z</time>
      </trkpt>
      <trkpt lat="42.6819060" lon="1.4739110">
        <ele>2260.0</ele>
        <time>2021-08-10T11:58:13Z</time>
      </trkpt>
      <trkpt lat="42.6819410" lon="1.4739130">
        <ele>2259.8</ele>
        <time>2021-08-10T11:58:25Z</time>
      </trkpt>
      <trkpt lat="42.6820050" lon="1.4739270">
        <ele>2259.5</ele>
        <time>2021-08-10T11:58:36Z</time>
      </trkpt>
      <trkpt lat="42.6820490" lon="1.4739330">
        <ele>2259.4</ele>
        <time>2021-08-10T11:58:43Z</time>
      </trkpt>
      <trkpt lat="42.6820980" lon="1.4739400">
        <ele>2259.4</ele>
        <time>2021-08-10T11:58:53Z</time>
      </trkpt>
      <trkpt lat="42.6821590" lon="1.4739260">
        <ele>2259.7</ele>
        <time>2021-08-10T11:59:14Z</time>
      </trkpt>
      <trkpt lat="42.6821690" lon="1.4738980">
        <ele>2259.8</ele>
        <time>2021-08-10T11:59:33Z</time>
      </trkpt>
      <trkpt lat="42.6821650" lon="1.4738650">
        <ele>2260.0</ele>
        <time>2021-08-10T11:59:41Z</time>
      </trkpt>
      <trkpt lat="42.6821590" lon="1.4738660">
        <ele>2260.0</ele>
        <time>2021-08-10T11:59:46Z</time>
      </trkpt>
      <trkpt lat="42.6821550" lon="1.4738700">
        <ele>2260.1</ele>
        <time>2021-08-10T11:59:54Z</time>
      </trkpt>
      <trkpt lat="42.6822230" lon="1.4738530">
        <ele>2260.8</ele>
        <time>2021-08-10T12:00:11Z</time>
      </trkpt>
      <trkpt lat="42.6822610" lon="1.4738230">
        <ele>2261.4</ele>
        <time>2021-08-10T12:00:17Z</time>
      </trkpt>
      <trkpt lat="42.6822660" lon="1.4738200">
        <ele>2261.5</ele>
        <time>2021-08-10T12:00:18Z</time>
      </trkpt>
      <trkpt lat="42.6822780" lon="1.4738090">
        <ele>2261.7</ele>
        <time>2021-08-10T12:00:21Z</time>
      </trkpt>
      <trkpt lat="42.6823220" lon="1.4737580">
        <ele>2262.9</ele>
        <time>2021-08-10T12:00:32Z</time>
      </trkpt>
      <trkpt lat="42.6823340" lon="1.4737320">
        <ele>2263.4</ele>
        <time>2021-08-10T12:00:38Z</time>
      </trkpt>
      <trkpt lat="42.6823550" lon="1.4736890">
        <ele>2264.3</ele>
        <time>2021-08-10T12:00:59Z</time>
      </trkpt>
      <trkpt lat="42.6824830" lon="1.4735710">
        <ele>2267.6</ele>
        <time>2021-08-10T12:02:01Z</time>
      </trkpt>
      <trkpt lat="42.6825420" lon="1.4735700">
        <ele>2269.6</ele>
        <time>2021-08-10T12:02:28Z</time>
      </trkpt>
      <trkpt lat="42.6826140" lon="1.4734790">
        <ele>2273.6</ele>
        <time>2021-08-10T12:03:10Z</time>
      </trkpt>
      <trkpt lat="42.6826270" lon="1.4734590">
        <ele>2274.3</ele>
        <time>2021-08-10T12:03:28Z</time>
      </trkpt>
      <trkpt lat="42.6826390" lon="1.4734520">
        <ele>2274.9</ele>
        <time>2021-08-10T12:03:35Z</time>
      </trkpt>
      <trkpt lat="42.6826950" lon="1.4734100">
        <ele>2277.1</ele>
        <time>2021-08-10T12:04:24Z</time>
      </trkpt>
      <trkpt lat="42.6827660" lon="1.4734130">
        <ele>2279.3</ele>
        <time>2021-08-10T12:05:09Z</time>
      </trkpt>
      <trkpt lat="42.6827660" lon="1.4734040">
        <ele>2279.5</ele>
        <time>2021-08-10T12:05:12Z</time>
      </trkpt>
      <trkpt lat="42.6827690" lon="1.4733910">
        <ele>2279.7</ele>
        <time>2021-08-10T12:05:17Z</time>
      </trkpt>
      <trkpt lat="42.6827890" lon="1.4733410">
        <ele>2280.7</ele>
        <time>2021-08-10T12:05:29Z</time>
      </trkpt>
      <trkpt lat="42.6827900" lon="1.4733350">
        <ele>2280.7</ele>
        <time>2021-08-10T12:05:31Z</time>
      </trkpt>
      <trkpt lat="42.6827900" lon="1.4733320">
        <ele>2280.8</ele>
        <time>2021-08-10T12:05:32Z</time>
      </trkpt>
      <trkpt lat="42.6827930" lon="1.4733310">
        <ele>2280.8</ele>
        <time>2021-08-10T12:05:33Z</time>
      </trkpt>
      <trkpt lat="42.6828040" lon="1.4733450">
        <ele>2281.1</ele>
        <time>2021-08-10T12:06:19Z</time>
      </trkpt>
      <trkpt lat="42.6828050" lon="1.4733460">
        <ele>2281.1</ele>
        <time>2021-08-10T12:06:23Z</time>
      </trkpt>
      <trkpt lat="42.6828050" lon="1.4733460">
        <ele>2281.1</ele>
        <time>2021-08-10T12:06:30Z</time>
      </trkpt>
      <trkpt lat="42.6828040" lon="1.4733470">
        <ele>2281.1</ele>
        <time>2021-08-10T12:06:33Z</time>
      </trkpt>
      <trkpt lat="42.6828050" lon="1.4733480">
        <ele>2281.2</ele>
        <time>2021-08-10T12:06:36Z</time>
      </trkpt>
      <trkpt lat="42.6828050" lon="1.4733480">
        <ele>2281.2</ele>
        <time>2021-08-10T12:06:40Z</time>
      </trkpt>
      <trkpt lat="42.6828050" lon="1.4733480">
        <ele>2281.2</ele>
        <time>2021-08-10T12:06:41Z</time>
      </trkpt>
      <trkpt lat="42.6828050" lon="1.4733480">
        <ele>2281.2</ele>
        <time>2021-08-10T12:06:42Z</time>
      </trkpt>
      <trkpt lat="42.6828050" lon="1.4733490">
        <ele>2281.2</ele>
        <time>2021-08-10T12:06:49Z</time>
      </trkpt>
      <trkpt lat="42.6828050" lon="1.4733490">
        <ele>2281.2</ele>
        <time>2021-08-10T12:06:56Z</time>
      </trkpt>
      <trkpt lat="42.6828050" lon="1.4733490">
        <ele>2281.2</ele>
        <time>2021-08-10T12:07:06Z</time>
      </trkpt>
      <trkpt lat="42.6828050" lon="1.4733490">
        <ele>2281.2</ele>
        <time>2021-08-10T12:07:10Z</time>
      </trkpt>
      <trkpt lat="42.6828050" lon="1.4733480">
        <ele>2281.2</ele>
        <time>2021-08-10T12:07:12Z</time>
      </trkpt>
      <trkpt lat="42.6828050" lon="1.4733490">
        <ele>2281.2</ele>
        <time>2021-08-10T12:07:17Z</time>
      </trkpt>
      <trkpt lat="42.6828050" lon="1.4733480">
        <ele>2281.2</ele>
        <time>2021-08-10T12:07:25Z</time>
      </trkpt>
      <trkpt lat="42.6828050" lon="1.4733480">
        <ele>2281.2</ele>
        <time>2021-08-10T12:07:26Z</time>
      </trkpt>
      <trkpt lat="42.6828050" lon="1.4733490">
        <ele>2281.2</ele>
        <time>2021-08-10T12:07:27Z</time>
      </trkpt>
      <trkpt lat="42.6828050" lon="1.4733480">
        <ele>2281.2</ele>
        <time>2021-08-10T12:07:30Z</time>
      </trkpt>
      <trkpt lat="42.6828050" lon="1.4733490">
        <ele>2281.3</ele>
        <time>2021-08-10T12:07:40Z</time>
      </trkpt>
      <trkpt lat="42.6828050" lon="1.4733490">
        <ele>2281.3</ele>
        <time>2021-08-10T12:07:47Z</time>
      </trkpt>
      <trkpt lat="42.6828060" lon="1.4733470">
        <ele>2281.3</ele>
        <time>2021-08-10T12:08:01Z</time>
      </trkpt>
      <trkpt lat="42.6828050" lon="1.4733500">
        <ele>2281.3</ele>
        <time>2021-08-10T12:08:09Z</time>
      </trkpt>
      <trkpt lat="42.6828050" lon="1.4733540">
        <ele>2281.4</ele>
        <time>2021-08-10T12:08:21Z</time>
      </trkpt>
      <trkpt lat="42.6828050" lon="1.4733550">
        <ele>2281.4</ele>
        <time>2021-08-10T12:08:53Z</time>
      </trkpt>
      <trkpt lat="42.6828050" lon="1.4733570">
        <ele>2281.4</ele>
        <time>2021-08-10T12:08:59Z</time>
      </trkpt>
      <trkpt lat="42.6828050" lon="1.4733570">
        <ele>2281.4</ele>
        <time>2021-08-10T12:09:00Z</time>
      </trkpt>
      <trkpt lat="42.6828050" lon="1.4733570">
        <ele>2281.4</ele>
        <time>2021-08-10T12:09:01Z</time>
      </trkpt>
      <trkpt lat="42.6828060" lon="1.4733580">
        <ele>2281.4</ele>
        <time>2021-08-10T12:09:06Z</time>
      </trkpt>
      <trkpt lat="42.6828090" lon="1.4733620">
        <ele>2281.4</ele>
        <time>2021-08-10T12:09:14Z</time>
      </trkpt>
      <trkpt lat="42.6828140" lon="1.4733660">
        <ele>2281.5</ele>
        <time>2021-08-10T12:09:31Z</time>
      </trkpt>
      <trkpt lat="42.6828350" lon="1.4733700">
        <ele>2281.7</ele>
        <time>2021-08-10T12:09:51Z</time>
      </trkpt>
      <trkpt lat="42.6828990" lon="1.4733740">
        <ele>2281.8</ele>
        <time>2021-08-10T12:10:57Z</time>
      </trkpt>
      <trkpt lat="42.6829050" lon="1.4733730">
        <ele>2281.8</ele>
        <time>2021-08-10T12:10:59Z</time>
      </trkpt>
      <trkpt lat="42.6829080" lon="1.4733740">
        <ele>2281.7</ele>
        <time>2021-08-10T12:11:00Z</time>
      </trkpt>
      <trkpt lat="42.6829080" lon="1.4733740">
        <ele>2281.7</ele>
        <time>2021-08-10T12:11:01Z</time>
      </trkpt>
      <trkpt lat="42.6829260" lon="1.4733770">
        <ele>2281.7</ele>
        <time>2021-08-10T12:11:04Z</time>
      </trkpt>
      <trkpt lat="42.6830200" lon="1.4734330">
        <ele>2280.9</ele>
        <time>2021-08-10T12:11:10Z</time>
      </trkpt>
      <trkpt lat="42.6830230" lon="1.4734270">
        <ele>2280.8</ele>
        <time>2021-08-10T12:11:11Z</time>
      </trkpt>
      <trkpt lat="42.6830260" lon="1.4734240">
        <ele>2280.8</ele>
        <time>2021-08-10T12:11:12Z</time>
      </trkpt>
      <trkpt lat="42.6830290" lon="1.4734180">
        <ele>2280.7</ele>
        <time>2021-08-10T12:11:13Z</time>
      </trkpt>
      <trkpt lat="42.6830310" lon="1.4734040">
        <ele>2280.6</ele>
        <time>2021-08-10T12:11:15Z</time>
      </trkpt>
      <trkpt lat="42.6830370" lon="1.4733920">
        <ele>2280.5</ele>
        <time>2021-08-10T12:11:18Z</time>
      </trkpt>
      <trkpt lat="42.6830490" lon="1.4733870">
        <ele>2280.3</ele>
        <time>2021-08-10T12:11:22Z</time>
      </trkpt>
      <trkpt lat="42.6830550" lon="1.4733800">
        <ele>2280.2</ele>
        <time>2021-08-10T12:11:23Z</time>
      </trkpt>
      <trkpt lat="42.6830680" lon="1.4733610">
        <ele>2280.0</ele>
        <time>2021-08-10T12:11:28Z</time>
      </trkpt>
      <trkpt lat="42.6830700" lon="1.4733570">
        <ele>2279.9</ele>
        <time>2021-08-10T12:11:29Z</time>
      </trkpt>
      <trkpt lat="42.6830740" lon="1.4733560">
        <ele>2279.9</ele>
        <time>2021-08-10T12:11:30Z</time>
      </trkpt>
      <trkpt lat="42.6830800" lon="1.4733520">
        <ele>2279.8</ele>
        <time>2021-08-10T12:11:31Z</time>
      </trkpt>
      <trkpt lat="42.6831020" lon="1.4733410">
        <ele>2279.4</ele>
        <time>2021-08-10T12:11:34Z</time>
      </trkpt>
      <trkpt lat="42.6831210" lon="1.4733240">
        <ele>2279.1</ele>
        <time>2021-08-10T12:11:37Z</time>
      </trkpt>
      <trkpt lat="42.6831360" lon="1.4733170">
        <ele>2278.8</ele>
        <time>2021-08-10T12:11:39Z</time>
      </trkpt>
      <trkpt lat="42.6831440" lon="1.4733160">
        <ele>2278.6</ele>
        <time>2021-08-10T12:11:41Z</time>
      </trkpt>
      <trkpt lat="42.6831810" lon="1.4732950">
        <ele>2277.8</ele>
        <time>2021-08-10T12:11:47Z</time>
      </trkpt>
      <trkpt lat="42.6833460" lon="1.4731870">
        <ele>2275.1</ele>
        <time>2021-08-10T12:12:22Z</time>
      </trkpt>
      <trkpt lat="42.6835070" lon="1.4730760">
        <ele>2271.7</ele>
        <time>2021-08-10T12:12:51Z</time>
      </trkpt>
      <trkpt lat="42.6835630" lon="1.4730510">
        <ele>2270.1</ele>
        <time>2021-08-10T12:13:06Z</time>
      </trkpt>
      <trkpt lat="42.6836810" lon="1.4730530">
        <ele>2267.1</ele>
        <time>2021-08-10T12:13:27Z</time>
      </trkpt>
      <trkpt lat="42.6838330" lon="1.4730540">
        <ele>2264.0</ele>
        <time>2021-08-10T12:13:45Z</time>
      </trkpt>
      <trkpt lat="42.6840090" lon="1.4729590">
        <ele>2260.8</ele>
        <time>2021-08-10T12:14:17Z</time>
      </trkpt>
      <trkpt lat="42.6840950" lon="1.4729320">
        <ele>2259.4</ele>
        <time>2021-08-10T12:14:32Z</time>
      </trkpt>
      <trkpt lat="42.6842490" lon="1.4728880">
        <ele>2257.0</ele>
        <time>2021-08-10T12:14:54Z</time>
      </trkpt>
      <trkpt lat="42.6843400" lon="1.4728470">
        <ele>2255.5</ele>
        <time>2021-08-10T12:15:18Z</time>
      </trkpt>
      <trkpt lat="42.6844900" lon="1.4727410">
        <ele>2252.1</ele>
        <time>2021-08-10T12:15:44Z</time>
      </trkpt>
      <trkpt lat="42.6846110" lon="1.4725620">
        <ele>2249.5</ele>
        <time>2021-08-10T12:16:11Z</time>
      </trkpt>
      <trkpt lat="42.6846980" lon="1.4723510">
        <ele>2247.4</ele>
        <time>2021-08-10T12:16:36Z</time>
      </trkpt>
      <trkpt lat="42.6848580" lon="1.4722720">
        <ele>2244.4</ele>
        <time>2021-08-10T12:17:08Z</time>
      </trkpt>
      <trkpt lat="42.6849820" lon="1.4721840">
        <ele>2242.4</ele>
        <time>2021-08-10T12:17:24Z</time>
      </trkpt>
      <trkpt lat="42.6851520" lon="1.4721000">
        <ele>2239.2</ele>
        <time>2021-08-10T12:17:43Z</time>
      </trkpt>
      <trkpt lat="42.6852080" lon="1.4720820">
        <ele>2238.0</ele>
        <time>2021-08-10T12:17:50Z</time>
      </trkpt>
      <trkpt lat="42.6853170" lon="1.4719790">
        <ele>2236.2</ele>
        <time>2021-08-10T12:18:14Z</time>
      </trkpt>
      <trkpt lat="42.6853410" lon="1.4719520">
        <ele>2235.8</ele>
        <time>2021-08-10T12:18:17Z</time>
      </trkpt>
      <trkpt lat="42.6854070" lon="1.4719070">
        <ele>2235.0</ele>
        <time>2021-08-10T12:18:25Z</time>
      </trkpt>
      <trkpt lat="42.6854880" lon="1.4718360">
        <ele>2233.5</ele>
        <time>2021-08-10T12:18:37Z</time>
      </trkpt>
      <trkpt lat="42.6855630" lon="1.4717710">
        <ele>2231.4</ele>
        <time>2021-08-10T12:18:53Z</time>
      </trkpt>
      <trkpt lat="42.6856740" lon="1.4715800">
        <ele>2226.8</ele>
        <time>2021-08-10T12:19:34Z</time>
      </trkpt>
      <trkpt lat="42.6857210" lon="1.4715120">
        <ele>2225.7</ele>
        <time>2021-08-10T12:19:59Z</time>
      </trkpt>
      <trkpt lat="42.6857770" lon="1.4714150">
        <ele>2224.7</ele>
        <time>2021-08-10T12:20:13Z</time>
      </trkpt>
      <trkpt lat="42.6858740" lon="1.4713350">
        <ele>2224.1</ele>
        <time>2021-08-10T12:20:26Z</time>
      </trkpt>
      <trkpt lat="42.6860230" lon="1.4711940">
        <ele>2223.3</ele>
        <time>2021-08-10T12:20:50Z</time>
      </trkpt>
      <trkpt lat="42.6860290" lon="1.4711730">
        <ele>2223.3</ele>
        <time>2021-08-10T12:20:52Z</time>
      </trkpt>
      <trkpt lat="42.6861170" lon="1.4710040">
        <ele>2222.8</ele>
        <time>2021-08-10T12:21:43Z</time>
      </trkpt>
      <trkpt lat="42.6862060" lon="1.4708650">
        <ele>2222.0</ele>
        <time>2021-08-10T12:22:06Z</time>
      </trkpt>
      <trkpt lat="42.6862470" lon="1.4708470">
        <ele>2221.4</ele>
        <time>2021-08-10T12:22:12Z</time>
      </trkpt>
      <trkpt lat="42.6862680" lon="1.4708240">
        <ele>2221.0</ele>
        <time>2021-08-10T12:22:18Z</time>
      </trkpt>
      <trkpt lat="42.6862840" lon="1.4707990">
        <ele>2220.7</ele>
        <time>2021-08-10T12:22:26Z</time>
      </trkpt>
      <trkpt lat="42.6862890" lon="1.4707930">
        <ele>2220.6</ele>
        <time>2021-08-10T12:22:27Z</time>
      </trkpt>
      <trkpt lat="42.6863870" lon="1.4706880">
        <ele>2219.1</ele>
        <time>2021-08-10T12:22:45Z</time>
      </trkpt>
      <trkpt lat="42.6865080" lon="1.4705100">
        <ele>2217.0</ele>
        <time>2021-08-10T12:23:10Z</time>
      </trkpt>
      <trkpt lat="42.6866250" lon="1.4703240">
        <ele>2215.0</ele>
        <time>2021-08-10T12:23:41Z</time>
      </trkpt>
      <trkpt lat="42.6867810" lon="1.4701980">
        <ele>2214.6</ele>
        <time>2021-08-10T12:24:04Z</time>
      </trkpt>
      <trkpt lat="42.6868930" lon="1.4700030">
        <ele>2214.5</ele>
        <time>2021-08-10T12:24:40Z</time>
      </trkpt>
      <trkpt lat="42.6870270" lon="1.4698500">
        <ele>2213.2</ele>
        <time>2021-08-10T12:25:03Z</time>
      </trkpt>
      <trkpt lat="42.6871240" lon="1.4697610">
        <ele>2212.4</ele>
        <time>2021-08-10T12:25:27Z</time>
      </trkpt>
      <trkpt lat="42.6872160" lon="1.4696830">
        <ele>2211.8</ele>
        <time>2021-08-10T12:25:41Z</time>
      </trkpt>
      <trkpt lat="42.6873500" lon="1.4695720">
        <ele>2210.4</ele>
        <time>2021-08-10T12:26:03Z</time>
      </trkpt>
      <trkpt lat="42.6873560" lon="1.4695680">
        <ele>2210.4</ele>
        <time>2021-08-10T12:26:04Z</time>
      </trkpt>
      <trkpt lat="42.6873620" lon="1.4695620">
        <ele>2210.3</ele>
        <time>2021-08-10T12:26:05Z</time>
      </trkpt>
      <trkpt lat="42.6873680" lon="1.4695530">
        <ele>2210.2</ele>
        <time>2021-08-10T12:26:06Z</time>
      </trkpt>
      <trkpt lat="42.6874050" lon="1.4695210">
        <ele>2209.8</ele>
        <time>2021-08-10T12:26:11Z</time>
      </trkpt>
      <trkpt lat="42.6875420" lon="1.4693530">
        <ele>2207.8</ele>
        <time>2021-08-10T12:26:35Z</time>
      </trkpt>
      <trkpt lat="42.6875450" lon="1.4693320">
        <ele>2207.6</ele>
        <time>2021-08-10T12:26:40Z</time>
      </trkpt>
      <trkpt lat="42.6875450" lon="1.4693340">
        <ele>2207.6</ele>
        <time>2021-08-10T12:26:43Z</time>
      </trkpt>
      <trkpt lat="42.6875590" lon="1.4693270">
        <ele>2207.4</ele>
        <time>2021-08-10T12:26:46Z</time>
      </trkpt>
      <trkpt lat="42.6876630" lon="1.4692510">
        <ele>2205.9</ele>
        <time>2021-08-10T12:27:03Z</time>
      </trkpt>
      <trkpt lat="42.6877740" lon="1.4690640">
        <ele>2203.3</ele>
        <time>2021-08-10T12:27:30Z</time>
      </trkpt>
      <trkpt lat="42.6878840" lon="1.4689050">
        <ele>2201.0</ele>
        <time>2021-08-10T12:27:57Z</time>
      </trkpt>
      <trkpt lat="42.6880450" lon="1.4687770">
        <ele>2198.1</ele>
        <time>2021-08-10T12:28:26Z</time>
      </trkpt>
      <trkpt lat="42.6881730" lon="1.4687060">
        <ele>2196.4</ele>
        <time>2021-08-10T12:28:55Z</time>
      </trkpt>
      <trkpt lat="42.6881730" lon="1.4687060">
        <ele>2196.4</ele>
        <time>2021-08-10T12:28:56Z</time>
      </trkpt>
      <trkpt lat="42.6881810" lon="1.4686890">
        <ele>2196.2</ele>
        <time>2021-08-10T12:28:57Z</time>
      </trkpt>
      <trkpt lat="42.6882910" lon="1.4685660">
        <ele>2195.2</ele>
        <time>2021-08-10T12:30:01Z</time>
      </trkpt>
      <trkpt lat="42.6882910" lon="1.4685520">
        <ele>2195.1</ele>
        <time>2021-08-10T12:30:04Z</time>
      </trkpt>
      <trkpt lat="42.6882910" lon="1.4685330">
        <ele>2194.9</ele>
        <time>2021-08-10T12:30:07Z</time>
      </trkpt>
      <trkpt lat="42.6882900" lon="1.4685280">
        <ele>2194.8</ele>
        <time>2021-08-10T12:30:08Z</time>
      </trkpt>
      <trkpt lat="42.6882890" lon="1.4685260">
        <ele>2194.8</ele>
        <time>2021-08-10T12:30:09Z</time>
      </trkpt>
      <trkpt lat="42.6882870" lon="1.4685120">
        <ele>2194.7</ele>
        <time>2021-08-10T12:30:12Z</time>
      </trkpt>
      <trkpt lat="42.6882890" lon="1.4685100">
        <ele>2194.6</ele>
        <time>2021-08-10T12:30:13Z</time>
      </trkpt>
      <trkpt lat="42.6882890" lon="1.4685080">
        <ele>2194.6</ele>
        <time>2021-08-10T12:30:14Z</time>
      </trkpt>
      <trkpt lat="42.6882890" lon="1.4685030">
        <ele>2194.5</ele>
        <time>2021-08-10T12:30:18Z</time>
      </trkpt>
      <trkpt lat="42.6882820" lon="1.4684940">
        <ele>2194.3</ele>
        <time>2021-08-10T12:30:29Z</time>
      </trkpt>
      <trkpt lat="42.6882880" lon="1.4684510">
        <ele>2193.6</ele>
        <time>2021-08-10T12:30:36Z</time>
      </trkpt>
      <trkpt lat="42.6882860" lon="1.4684190">
        <ele>2192.9</ele>
        <time>2021-08-10T12:30:41Z</time>
      </trkpt>
      <trkpt lat="42.6882870" lon="1.4684150">
        <ele>2192.8</ele>
        <time>2021-08-10T12:30:45Z</time>
      </trkpt>
      <trkpt lat="42.6882870" lon="1.4684150">
        <ele>2192.8</ele>
        <time>2021-08-10T12:30:46Z</time>
      </trkpt>
      <trkpt lat="42.6882860" lon="1.4684140">
        <ele>2192.7</ele>
        <time>2021-08-10T12:30:47Z</time>
      </trkpt>
      <trkpt lat="42.6882850" lon="1.4684110">
        <ele>2192.7</ele>
        <time>2021-08-10T12:30:48Z</time>
      </trkpt>
      <trkpt lat="42.6882840" lon="1.4684110">
        <ele>2192.6</ele>
        <time>2021-08-10T12:30:49Z</time>
      </trkpt>
      <trkpt lat="42.6882850" lon="1.4684080">
        <ele>2192.6</ele>
        <time>2021-08-10T12:30:51Z</time>
      </trkpt>
      <trkpt lat="42.6882900" lon="1.4684020">
        <ele>2192.4</ele>
        <time>2021-08-10T12:30:54Z</time>
      </trkpt>
      <trkpt lat="42.6882910" lon="1.4683960">
        <ele>2192.2</ele>
        <time>2021-08-10T12:30:56Z</time>
      </trkpt>
      <trkpt lat="42.6882820" lon="1.4683090">
        <ele>2189.6</ele>
        <time>2021-08-10T12:31:09Z</time>
      </trkpt>
      <trkpt lat="42.6882830" lon="1.4683030">
        <ele>2189.4</ele>
        <time>2021-08-10T12:31:10Z</time>
      </trkpt>
      <trkpt lat="42.6882850" lon="1.4682930">
        <ele>2189.1</ele>
        <time>2021-08-10T12:31:11Z</time>
      </trkpt>
      <trkpt lat="42.6882790" lon="1.4682540">
        <ele>2187.7</ele>
        <time>2021-08-10T12:31:26Z</time>
      </trkpt>
      <trkpt lat="42.6882560" lon="1.4681920">
        <ele>2185.0</ele>
        <time>2021-08-10T12:31:42Z</time>
      </trkpt>
      <trkpt lat="42.6882370" lon="1.4681830">
        <ele>2184.0</ele>
        <time>2021-08-10T12:31:53Z</time>
      </trkpt>
      <trkpt lat="42.6882170" lon="1.4681650">
        <ele>2182.7</ele>
        <time>2021-08-10T12:32:01Z</time>
      </trkpt>
      <trkpt lat="42.6881930" lon="1.4681380">
        <ele>2181.1</ele>
        <time>2021-08-10T12:32:07Z</time>
      </trkpt>
      <trkpt lat="42.6881870" lon="1.4681260">
        <ele>2180.5</ele>
        <time>2021-08-10T12:32:09Z</time>
      </trkpt>
      <trkpt lat="42.6881780" lon="1.4680770">
        <ele>2178.6</ele>
        <time>2021-08-10T12:32:28Z</time>
      </trkpt>
      <trkpt lat="42.6881540" lon="1.4680440">
        <ele>2176.9</ele>
        <time>2021-08-10T12:32:44Z</time>
      </trkpt>
      <trkpt lat="42.6881660" lon="1.4679640">
        <ele>2174.1</ele>
        <time>2021-08-10T12:33:18Z</time>
      </trkpt>
      <trkpt lat="42.6881450" lon="1.4679020">
        <ele>2172.0</ele>
        <time>2021-08-10T12:33:51Z</time>
      </trkpt>
      <trkpt lat="42.6881390" lon="1.4678970">
        <ele>2171.7</ele>
        <time>2021-08-10T12:33:53Z</time>
      </trkpt>
      <trkpt lat="42.6881250" lon="1.4678970">
        <ele>2171.1</ele>
        <time>2021-08-10T12:33:57Z</time>
      </trkpt>
      <trkpt lat="42.6881220" lon="1.4678970">
        <ele>2171.0</ele>
        <time>2021-08-10T12:33:59Z</time>
      </trkpt>
      <trkpt lat="42.6881140" lon="1.4678920">
        <ele>2170.6</ele>
        <time>2021-08-10T12:34:03Z</time>
      </trkpt>
      <trkpt lat="42.6881140" lon="1.4678930">
        <ele>2170.6</ele>
        <time>2021-08-10T12:34:05Z</time>
      </trkpt>
      <trkpt lat="42.6879930" lon="1.4677900">
        <ele>2165.0</ele>
        <time>2021-08-10T12:34:53Z</time>
      </trkpt>
      <trkpt lat="42.6878850" lon="1.4676150">
        <ele>2158.8</ele>
        <time>2021-08-10T12:35:43Z</time>
      </trkpt>
      <trkpt lat="42.6878880" lon="1.4676000">
        <ele>2158.4</ele>
        <time>2021-08-10T12:36:00Z</time>
      </trkpt>
      <trkpt lat="42.6878950" lon="1.4675970">
        <ele>2158.2</ele>
        <time>2021-08-10T12:36:05Z</time>
      </trkpt>
      <trkpt lat="42.6878970" lon="1.4675910">
        <ele>2158.1</ele>
        <time>2021-08-10T12:36:07Z</time>
      </trkpt>
      <trkpt lat="42.6878880" lon="1.4675530">
        <ele>2157.3</ele>
        <time>2021-08-10T12:36:15Z</time>
      </trkpt>
      <trkpt lat="42.6878600" lon="1.4674830">
        <ele>2155.7</ele>
        <time>2021-08-10T12:36:36Z</time>
      </trkpt>
      <trkpt lat="42.6877840" lon="1.4674190">
        <ele>2153.0</ele>
        <time>2021-08-10T12:37:32Z</time>
      </trkpt>
      <trkpt lat="42.6877690" lon="1.4672840">
        <ele>2148.8</ele>
        <time>2021-08-10T12:38:08Z</time>
      </trkpt>
      <trkpt lat="42.6877720" lon="1.4672780">
        <ele>2148.5</ele>
        <time>2021-08-10T12:38:09Z</time>
      </trkpt>
      <trkpt lat="42.6877760" lon="1.4672830">
        <ele>2148.2</ele>
        <time>2021-08-10T12:38:14Z</time>
      </trkpt>
      <trkpt lat="42.6877860" lon="1.4672750">
        <ele>2147.7</ele>
        <time>2021-08-10T12:38:26Z</time>
      </trkpt>
      <trkpt lat="42.6877880" lon="1.4672610">
        <ele>2147.2</ele>
        <time>2021-08-10T12:38:29Z</time>
      </trkpt>
      <trkpt lat="42.6877930" lon="1.4672420">
        <ele>2146.4</ele>
        <time>2021-08-10T12:38:47Z</time>
      </trkpt>
      <trkpt lat="42.6876690" lon="1.4671560">
        <ele>2138.7</ele>
        <time>2021-08-10T12:39:31Z</time>
      </trkpt>
      <trkpt lat="42.6875930" lon="1.4670450">
        <ele>2133.2</ele>
        <time>2021-08-10T12:40:38Z</time>
      </trkpt>
      <trkpt lat="42.6875100" lon="1.4669990">
        <ele>2129.6</ele>
        <time>2021-08-10T12:40:58Z</time>
      </trkpt>
      <trkpt lat="42.6875100" lon="1.4669990">
        <ele>2129.6</ele>
        <time>2021-08-10T12:40:59Z</time>
      </trkpt>
      <trkpt lat="42.6875110" lon="1.4669540">
        <ele>2128.4</ele>
        <time>2021-08-10T12:41:26Z</time>
      </trkpt>
      <trkpt lat="42.6876780" lon="1.4668860">
        <ele>2122.9</ele>
        <time>2021-08-10T12:42:01Z</time>
      </trkpt>
      <trkpt lat="42.6877020" lon="1.4668540">
        <ele>2121.8</ele>
        <time>2021-08-10T12:42:10Z</time>
      </trkpt>
      <trkpt lat="42.6877390" lon="1.4668160">
        <ele>2120.2</ele>
        <time>2021-08-10T12:42:19Z</time>
      </trkpt>
      <trkpt lat="42.6878340" lon="1.4667140">
        <ele>2116.3</ele>
        <time>2021-08-10T12:42:36Z</time>
      </trkpt>
      <trkpt lat="42.6879240" lon="1.4666390">
        <ele>2112.8</ele>
        <time>2021-08-10T12:42:52Z</time>
      </trkpt>
      <trkpt lat="42.6879410" lon="1.4666050">
        <ele>2111.7</ele>
        <time>2021-08-10T12:42:59Z</time>
      </trkpt>
      <trkpt lat="42.6879960" lon="1.4665470">
        <ele>2108.9</ele>
        <time>2021-08-10T12:43:11Z</time>
      </trkpt>
      <trkpt lat="42.6880680" lon="1.4664920">
        <ele>2105.4</ele>
        <time>2021-08-10T12:43:46Z</time>
      </trkpt>
      <trkpt lat="42.6880760" lon="1.4664730">
        <ele>2104.7</ele>
        <time>2021-08-10T12:43:49Z</time>
      </trkpt>
      <trkpt lat="42.6881340" lon="1.4664070">
        <ele>2101.5</ele>
        <time>2021-08-10T12:44:07Z</time>
      </trkpt>
      <trkpt lat="42.6881970" lon="1.4663540">
        <ele>2098.3</ele>
        <time>2021-08-10T12:44:23Z</time>
      </trkpt>
      <trkpt lat="42.6882400" lon="1.4662720">
        <ele>2095.2</ele>
        <time>2021-08-10T12:44:45Z</time>
      </trkpt>
      <trkpt lat="42.6882710" lon="1.4662520">
        <ele>2093.7</ele>
        <time>2021-08-10T12:44:51Z</time>
      </trkpt>
      <trkpt lat="42.6883290" lon="1.4661960">
        <ele>2090.7</ele>
        <time>2021-08-10T12:45:09Z</time>
      </trkpt>
      <trkpt lat="42.6884330" lon="1.4660840">
        <ele>2085.2</ele>
        <time>2021-08-10T12:45:50Z</time>
      </trkpt>
      <trkpt lat="42.6885600" lon="1.4659340">
        <ele>2077.7</ele>
        <time>2021-08-10T12:46:29Z</time>
      </trkpt>
      <trkpt lat="42.6886390" lon="1.4658360">
        <ele>2072.8</ele>
        <time>2021-08-10T12:47:13Z</time>
      </trkpt>
      <trkpt lat="42.6886290" lon="1.4657840">
        <ele>2071.0</ele>
        <time>2021-08-10T12:47:24Z</time>
      </trkpt>
      <trkpt lat="42.6885290" lon="1.4656340">
        <ele>2063.9</ele>
        <time>2021-08-10T12:48:07Z</time>
      </trkpt>
      <trkpt lat="42.6886460" lon="1.4654760">
        <ele>2056.9</ele>
        <time>2021-08-10T12:49:00Z</time>
      </trkpt>
      <trkpt lat="42.6887480" lon="1.4653470">
        <ele>2051.8</ele>
        <time>2021-08-10T12:49:42Z</time>
      </trkpt>
      <trkpt lat="42.6887750" lon="1.4653270">
        <ele>2050.7</ele>
        <time>2021-08-10T12:49:47Z</time>
      </trkpt>
      <trkpt lat="42.6887890" lon="1.4653190">
        <ele>2050.3</ele>
        <time>2021-08-10T12:49:50Z</time>
      </trkpt>
      <trkpt lat="42.6887960" lon="1.4653150">
        <ele>2050.0</ele>
        <time>2021-08-10T12:49:52Z</time>
      </trkpt>
      <trkpt lat="42.6888020" lon="1.4653040">
        <ele>2049.7</ele>
        <time>2021-08-10T12:49:54Z</time>
      </trkpt>
      <trkpt lat="42.6888070" lon="1.4652960">
        <ele>2049.5</ele>
        <time>2021-08-10T12:49:56Z</time>
      </trkpt>
      <trkpt lat="42.6888880" lon="1.4652410">
        <ele>2046.5</ele>
        <time>2021-08-10T12:50:14Z</time>
      </trkpt>
      <trkpt lat="42.6890540" lon="1.4651520">
        <ele>2040.4</ele>
        <time>2021-08-10T12:50:44Z</time>
      </trkpt>
      <trkpt lat="42.6891920" lon="1.4650180">
        <ele>2035.2</ele>
        <time>2021-08-10T12:51:31Z</time>
      </trkpt>
      <trkpt lat="42.6893530" lon="1.4649580">
        <ele>2031.0</ele>
        <time>2021-08-10T12:52:10Z</time>
      </trkpt>
      <trkpt lat="42.6895130" lon="1.4648550">
        <ele>2026.3</ele>
        <time>2021-08-10T12:52:45Z</time>
      </trkpt>
      <trkpt lat="42.6896700" lon="1.4647850">
        <ele>2021.4</ele>
        <time>2021-08-10T12:53:42Z</time>
      </trkpt>
      <trkpt lat="42.6897820" lon="1.4647060">
        <ele>2016.7</ele>
        <time>2021-08-10T12:54:30Z</time>
      </trkpt>
      <trkpt lat="42.6898350" lon="1.4646820">
        <ele>2014.2</ele>
        <time>2021-08-10T12:54:49Z</time>
      </trkpt>
      <trkpt lat="42.6898600" lon="1.4646690">
        <ele>2012.9</ele>
        <time>2021-08-10T12:54:57Z</time>
      </trkpt>
      <trkpt lat="42.6898620" lon="1.4646640">
        <ele>2012.7</ele>
        <time>2021-08-10T12:54:59Z</time>
      </trkpt>
      <trkpt lat="42.6898630" lon="1.4646580">
        <ele>2012.4</ele>
        <time>2021-08-10T12:55:03Z</time>
      </trkpt>
      <trkpt lat="42.6898880" lon="1.4646540">
        <ele>2011.2</ele>
        <time>2021-08-10T12:55:13Z</time>
      </trkpt>
      <trkpt lat="42.6898890" lon="1.4646540">
        <ele>2011.2</ele>
        <time>2021-08-10T12:55:14Z</time>
      </trkpt>
      <trkpt lat="42.6898950" lon="1.4646530">
        <ele>2010.9</ele>
        <time>2021-08-10T12:55:19Z</time>
      </trkpt>
      <trkpt lat="42.6899010" lon="1.4646530">
        <ele>2010.6</ele>
        <time>2021-08-10T12:55:23Z</time>
      </trkpt>
      <trkpt lat="42.6899170" lon="1.4646630">
        <ele>2009.7</ele>
        <time>2021-08-10T12:55:30Z</time>
      </trkpt>
      <trkpt lat="42.6899330" lon="1.4646680">
        <ele>2009.0</ele>
        <time>2021-08-10T12:55:44Z</time>
      </trkpt>
      <trkpt lat="42.6900070" lon="1.4646960">
        <ele>2005.4</ele>
        <time>2021-08-10T12:56:15Z</time>
      </trkpt>
      <trkpt lat="42.6900230" lon="1.4647120">
        <ele>2004.5</ele>
        <time>2021-08-10T12:56:21Z</time>
      </trkpt>
      <trkpt lat="42.6900240" lon="1.4647050">
        <ele>2004.2</ele>
        <time>2021-08-10T12:56:25Z</time>
      </trkpt>
      <trkpt lat="42.6900260" lon="1.4646980">
        <ele>2004.0</ele>
        <time>2021-08-10T12:56:32Z</time>
      </trkpt>
      <trkpt lat="42.6900340" lon="1.4646950">
        <ele>2003.6</ele>
        <time>2021-08-10T12:56:34Z</time>
      </trkpt>
      <trkpt lat="42.6900950" lon="1.4647080">
        <ele>2000.8</ele>
        <time>2021-08-10T12:56:48Z</time>
      </trkpt>
      <trkpt lat="42.6901090" lon="1.4647110">
        <ele>2000.2</ele>
        <time>2021-08-10T12:56:58Z</time>
      </trkpt>
      <trkpt lat="42.6902810" lon="1.4646510">
        <ele>1992.6</ele>
        <time>2021-08-10T12:57:43Z</time>
      </trkpt>
      <trkpt lat="42.6903120" lon="1.4645770">
        <ele>1989.5</ele>
        <time>2021-08-10T12:58:19Z</time>
      </trkpt>
      <trkpt lat="42.6903000" lon="1.4644990">
        <ele>1986.1</ele>
        <time>2021-08-10T12:58:37Z</time>
      </trkpt>
      <trkpt lat="42.6903000" lon="1.4644650">
        <ele>1984.6</ele>
        <time>2021-08-10T12:58:55Z</time>
      </trkpt>
      <trkpt lat="42.6903310" lon="1.4644620">
        <ele>1982.7</ele>
        <time>2021-08-10T12:59:06Z</time>
      </trkpt>
      <trkpt lat="42.6903340" lon="1.4644640">
        <ele>1982.5</ele>
        <time>2021-08-10T12:59:07Z</time>
      </trkpt>
      <trkpt lat="42.6903370" lon="1.4644650">
        <ele>1982.3</ele>
        <time>2021-08-10T12:59:08Z</time>
      </trkpt>
      <trkpt lat="42.6903640" lon="1.4644420">
        <ele>1980.3</ele>
        <time>2021-08-10T12:59:24Z</time>
      </trkpt>
      <trkpt lat="42.6903750" lon="1.4644020">
        <ele>1978.2</ele>
        <time>2021-08-10T12:59:35Z</time>
      </trkpt>
      <trkpt lat="42.6903940" lon="1.4643600">
        <ele>1975.8</ele>
        <time>2021-08-10T12:59:58Z</time>
      </trkpt>
      <trkpt lat="42.6904490" lon="1.4643270">
        <ele>1971.9</ele>
        <time>2021-08-10T13:00:24Z</time>
      </trkpt>
      <trkpt lat="42.6904990" lon="1.4641670">
        <ele>1963.9</ele>
        <time>2021-08-10T13:01:28Z</time>
      </trkpt>
      <trkpt lat="42.6905560" lon="1.4640910">
        <ele>1959.0</ele>
        <time>2021-08-10T13:01:56Z</time>
      </trkpt>
      <trkpt lat="42.6905780" lon="1.4640700">
        <ele>1957.3</ele>
        <time>2021-08-10T13:02:03Z</time>
      </trkpt>
      <trkpt lat="42.6905890" lon="1.4640710">
        <ele>1956.7</ele>
        <time>2021-08-10T13:02:07Z</time>
      </trkpt>
      <trkpt lat="42.6905890" lon="1.4640640">
        <ele>1956.4</ele>
        <time>2021-08-10T13:02:11Z</time>
      </trkpt>
      <trkpt lat="42.6906250" lon="1.4639850">
        <ele>1952.6</ele>
        <time>2021-08-10T13:02:39Z</time>
      </trkpt>
      <trkpt lat="42.6907300" lon="1.4639350">
        <ele>1947.9</ele>
        <time>2021-08-10T13:03:30Z</time>
      </trkpt>
      <trkpt lat="42.6907320" lon="1.4639360">
        <ele>1947.8</ele>
        <time>2021-08-10T13:03:31Z</time>
      </trkpt>
      <trkpt lat="42.6907350" lon="1.4639310">
        <ele>1947.6</ele>
        <time>2021-08-10T13:03:33Z</time>
      </trkpt>
      <trkpt lat="42.6907820" lon="1.4639080">
        <ele>1945.9</ele>
        <time>2021-08-10T13:03:41Z</time>
      </trkpt>
      <trkpt lat="42.6908320" lon="1.4638940">
        <ele>1944.3</ele>
        <time>2021-08-10T13:03:50Z</time>
      </trkpt>
      <trkpt lat="42.6909370" lon="1.4639320">
        <ele>1941.0</ele>
        <time>2021-08-10T13:04:08Z</time>
      </trkpt>
      <trkpt lat="42.6909930" lon="1.4639380">
        <ele>1939.2</ele>
        <time>2021-08-10T13:04:26Z</time>
      </trkpt>
      <trkpt lat="42.6910670" lon="1.4639370">
        <ele>1936.4</ele>
        <time>2021-08-10T13:04:50Z</time>
      </trkpt>
      <trkpt lat="42.6910930" lon="1.4639090">
        <ele>1934.9</ele>
        <time>2021-08-10T13:05:15Z</time>
      </trkpt>
      <trkpt lat="42.6911100" lon="1.4638920">
        <ele>1934.0</ele>
        <time>2021-08-10T13:05:21Z</time>
      </trkpt>
      <trkpt lat="42.6911490" lon="1.4639000">
        <ele>1932.1</ele>
        <time>2021-08-10T13:05:43Z</time>
      </trkpt>
      <trkpt lat="42.6912050" lon="1.4637260">
        <ele>1925.2</ele>
        <time>2021-08-10T13:06:49Z</time>
      </trkpt>
      <trkpt lat="42.6912880" lon="1.4636900">
        <ele>1921.0</ele>
        <time>2021-08-10T13:07:19Z</time>
      </trkpt>
      <trkpt lat="42.6913070" lon="1.4637040">
        <ele>1920.0</ele>
        <time>2021-08-10T13:07:27Z</time>
      </trkpt>
      <trkpt lat="42.6913100" lon="1.4637060">
        <ele>1919.9</ele>
        <time>2021-08-10T13:07:28Z</time>
      </trkpt>
      <trkpt lat="42.6913110" lon="1.4637050">
        <ele>1919.8</ele>
        <time>2021-08-10T13:07:29Z</time>
      </trkpt>
      <trkpt lat="42.6913530" lon="1.4636940">
        <ele>1917.9</ele>
        <time>2021-08-10T13:07:40Z</time>
      </trkpt>
      <trkpt lat="42.6913700" lon="1.4636970">
        <ele>1917.1</ele>
        <time>2021-08-10T13:07:45Z</time>
      </trkpt>
      <trkpt lat="42.6913780" lon="1.4636950">
        <ele>1916.7</ele>
        <time>2021-08-10T13:07:48Z</time>
      </trkpt>
      <trkpt lat="42.6913820" lon="1.4636900">
        <ele>1916.5</ele>
        <time>2021-08-10T13:07:49Z</time>
      </trkpt>
      <trkpt lat="42.6914160" lon="1.4636960">
        <ele>1914.9</ele>
        <time>2021-08-10T13:07:57Z</time>
      </trkpt>
      <trkpt lat="42.6914450" lon="1.4637110">
        <ele>1913.5</ele>
        <time>2021-08-10T13:08:04Z</time>
      </trkpt>
      <trkpt lat="42.6914550" lon="1.4637060">
        <ele>1913.0</ele>
        <time>2021-08-10T13:08:07Z</time>
      </trkpt>
      <trkpt lat="42.6914560" lon="1.4636970">
        <ele>1912.7</ele>
        <time>2021-08-10T13:08:08Z</time>
      </trkpt>
      <trkpt lat="42.6914550" lon="1.4636900">
        <ele>1912.5</ele>
        <time>2021-08-10T13:08:09Z</time>
      </trkpt>
      <trkpt lat="42.6914350" lon="1.4635990">
        <ele>1909.5</ele>
        <time>2021-08-10T13:08:19Z</time>
      </trkpt>
      <trkpt lat="42.6914860" lon="1.4635750">
        <ele>1907.3</ele>
        <time>2021-08-10T13:08:41Z</time>
      </trkpt>
      <trkpt lat="42.6915140" lon="1.4636160">
        <ele>1905.5</ele>
        <time>2021-08-10T13:08:51Z</time>
      </trkpt>
      <trkpt lat="42.6916010" lon="1.4635610">
        <ele>1900.7</ele>
        <time>2021-08-10T13:09:36Z</time>
      </trkpt>
      <trkpt lat="42.6916290" lon="1.4635270">
        <ele>1898.6</ele>
        <time>2021-08-10T13:09:48Z</time>
      </trkpt>
      <trkpt lat="42.6916600" lon="1.4635130">
        <ele>1896.8</ele>
        <time>2021-08-10T13:10:00Z</time>
      </trkpt>
      <trkpt lat="42.6917590" lon="1.4633490">
        <ele>1889.2</ele>
        <time>2021-08-10T13:10:54Z</time>
      </trkpt>
      <trkpt lat="42.6918320" lon="1.4633580">
        <ele>1886.2</ele>
        <time>2021-08-10T13:11:11Z</time>
      </trkpt>
      <trkpt lat="42.6918450" lon="1.4633460">
        <ele>1885.6</ele>
        <time>2021-08-10T13:11:15Z</time>
      </trkpt>
      <trkpt lat="42.6918720" lon="1.4633340">
        <ele>1884.5</ele>
        <time>2021-08-10T13:11:28Z</time>
      </trkpt>
      <trkpt lat="42.6919280" lon="1.4633230">
        <ele>1882.3</ele>
        <time>2021-08-10T13:11:46Z</time>
      </trkpt>
      <trkpt lat="42.6919300" lon="1.4633180">
        <ele>1882.1</ele>
        <time>2021-08-10T13:11:51Z</time>
      </trkpt>
      <trkpt lat="42.6919330" lon="1.4632850">
        <ele>1881.1</ele>
        <time>2021-08-10T13:12:00Z</time>
      </trkpt>
      <trkpt lat="42.6920700" lon="1.4632090">
        <ele>1874.6</ele>
        <time>2021-08-10T13:13:05Z</time>
      </trkpt>
      <trkpt lat="42.6921700" lon="1.4633010">
        <ele>1869.3</ele>
        <time>2021-08-10T13:13:54Z</time>
      </trkpt>
      <trkpt lat="42.6921690" lon="1.4633130">
        <ele>1868.9</ele>
        <time>2021-08-10T13:14:02Z</time>
      </trkpt>
      <trkpt lat="42.6922600" lon="1.4634220">
        <ele>1862.9</ele>
        <time>2021-08-10T13:14:49Z</time>
      </trkpt>
      <trkpt lat="42.6923070" lon="1.4635280">
        <ele>1858.2</ele>
        <time>2021-08-10T13:15:20Z</time>
      </trkpt>
      <trkpt lat="42.6923010" lon="1.4635430">
        <ele>1857.5</ele>
        <time>2021-08-10T13:15:31Z</time>
      </trkpt>
      <trkpt lat="42.6923000" lon="1.4635410">
        <ele>1857.4</ele>
        <time>2021-08-10T13:15:32Z</time>
      </trkpt>
      <trkpt lat="42.6923620" lon="1.4635180">
        <ele>1853.9</ele>
        <time>2021-08-10T13:15:58Z</time>
      </trkpt>
      <trkpt lat="42.6924110" lon="1.4635200">
        <ele>1851.2</ele>
        <time>2021-08-10T13:16:36Z</time>
      </trkpt>
      <trkpt lat="42.6924870" lon="1.4635910">
        <ele>1846.1</ele>
        <time>2021-08-10T13:17:06Z</time>
      </trkpt>
      <trkpt lat="42.6925550" lon="1.4636430">
        <ele>1841.6</ele>
        <time>2021-08-10T13:17:47Z</time>
      </trkpt>
      <trkpt lat="42.6926690" lon="1.4637750">
        <ele>1832.4</ele>
        <time>2021-08-10T13:18:32Z</time>
      </trkpt>
      <trkpt lat="42.6926830" lon="1.4637850">
        <ele>1831.5</ele>
        <time>2021-08-10T13:18:57Z</time>
      </trkpt>
      <trkpt lat="42.6926820" lon="1.4637650">
        <ele>1830.7</ele>
        <time>2021-08-10T13:19:03Z</time>
      </trkpt>
      <trkpt lat="42.6926760" lon="1.4637640">
        <ele>1830.4</ele>
        <time>2021-08-10T13:19:05Z</time>
      </trkpt>
      <trkpt lat="42.6928320" lon="1.4638300">
        <ele>1822.4</ele>
        <time>2021-08-10T13:19:55Z</time>
      </trkpt>
      <trkpt lat="42.6928210" lon="1.4638290">
        <ele>1821.9</ele>
        <time>2021-08-10T13:19:57Z</time>
      </trkpt>
      <trkpt lat="42.6928430" lon="1.4637600">
        <ele>1819.4</ele>
        <time>2021-08-10T13:20:41Z</time>
      </trkpt>
      <trkpt lat="42.6929450" lon="1.4636420">
        <ele>1812.8</ele>
        <time>2021-08-10T13:21:38Z</time>
      </trkpt>
      <trkpt lat="42.6930140" lon="1.4636340">
        <ele>1809.4</ele>
        <time>2021-08-10T13:21:57Z</time>
      </trkpt>
      <trkpt lat="42.6930390" lon="1.4636040">
        <ele>1807.9</ele>
        <time>2021-08-10T13:22:07Z</time>
      </trkpt>
      <trkpt lat="42.6930550" lon="1.4635530">
        <ele>1806.1</ele>
        <time>2021-08-10T13:22:17Z</time>
      </trkpt>
      <trkpt lat="42.6930860" lon="1.4634030">
        <ele>1802.0</ele>
        <time>2021-08-10T13:22:46Z</time>
      </trkpt>
      <trkpt lat="42.6931530" lon="1.4632770">
        <ele>1798.6</ele>
        <time>2021-08-10T13:23:20Z</time>
      </trkpt>
      <trkpt lat="42.6931790" lon="1.4632070">
        <ele>1796.8</ele>
        <time>2021-08-10T13:23:36Z</time>
      </trkpt>
      <trkpt lat="42.6932690" lon="1.4631000">
        <ele>1792.8</ele>
        <time>2021-08-10T13:24:05Z</time>
      </trkpt>
      <trkpt lat="42.6932980" lon="1.4630860">
        <ele>1791.8</ele>
        <time>2021-08-10T13:24:11Z</time>
      </trkpt>
      <trkpt lat="42.6933150" lon="1.4630530">
        <ele>1790.8</ele>
        <time>2021-08-10T13:24:14Z</time>
      </trkpt>
      <trkpt lat="42.6933260" lon="1.4630090">
        <ele>1789.7</ele>
        <time>2021-08-10T13:24:17Z</time>
      </trkpt>
      <trkpt lat="42.6933330" lon="1.4629690">
        <ele>1788.8</ele>
        <time>2021-08-10T13:24:21Z</time>
      </trkpt>
      <trkpt lat="42.6933400" lon="1.4629550">
        <ele>1788.4</ele>
        <time>2021-08-10T13:24:23Z</time>
      </trkpt>
      <trkpt lat="42.6933780" lon="1.4628950">
        <ele>1786.8</ele>
        <time>2021-08-10T13:24:33Z</time>
      </trkpt>
      <trkpt lat="42.6934230" lon="1.4628510">
        <ele>1785.6</ele>
        <time>2021-08-10T13:24:47Z</time>
      </trkpt>
      <trkpt lat="42.6934800" lon="1.4628340">
        <ele>1784.8</ele>
        <time>2021-08-10T13:24:57Z</time>
      </trkpt>
      <trkpt lat="42.6934910" lon="1.4628380">
        <ele>1784.7</ele>
        <time>2021-08-10T13:25:04Z</time>
      </trkpt>
      <trkpt lat="42.6935470" lon="1.4628700">
        <ele>1784.3</ele>
        <time>2021-08-10T13:25:12Z</time>
      </trkpt>
      <trkpt lat="42.6935780" lon="1.4628770">
        <ele>1784.2</ele>
        <time>2021-08-10T13:25:17Z</time>
      </trkpt>
      <trkpt lat="42.6935870" lon="1.4628820">
        <ele>1784.2</ele>
        <time>2021-08-10T13:25:20Z</time>
      </trkpt>
      <trkpt lat="42.6936300" lon="1.4629040">
        <ele>1784.0</ele>
        <time>2021-08-10T13:25:26Z</time>
      </trkpt>
      <trkpt lat="42.6936920" lon="1.4629090">
        <ele>1783.9</ele>
        <time>2021-08-10T13:25:34Z</time>
      </trkpt>
      <trkpt lat="42.6937210" lon="1.4629100">
        <ele>1783.8</ele>
        <time>2021-08-10T13:25:37Z</time>
      </trkpt>
      <trkpt lat="42.6939020" lon="1.4629390">
        <ele>1783.2</ele>
        <time>2021-08-10T13:25:59Z</time>
      </trkpt>
      <trkpt lat="42.6940080" lon="1.4629390">
        <ele>1783.2</ele>
        <time>2021-08-10T13:26:11Z</time>
      </trkpt>
      <trkpt lat="42.6941080" lon="1.4628960">
        <ele>1783.8</ele>
        <time>2021-08-10T13:26:25Z</time>
      </trkpt>
      <trkpt lat="42.6941340" lon="1.4628950">
        <ele>1783.9</ele>
        <time>2021-08-10T13:26:36Z</time>
      </trkpt>
      <trkpt lat="42.6941360" lon="1.4628930">
        <ele>1783.9</ele>
        <time>2021-08-10T13:26:38Z</time>
      </trkpt>
      <trkpt lat="42.6941360" lon="1.4628930">
        <ele>1783.9</ele>
        <time>2021-08-10T14:23:50Z</time>
      </trkpt>
      <trkpt lat="42.6941360" lon="1.4628930">
        <ele>1783.9</ele>
        <time>2021-08-10T14:23:51Z</time>
      </trkpt>
      <trkpt lat="42.6941360" lon="1.4628930">
        <ele>1783.9</ele>
        <time>2021-08-10T14:23:52Z</time>
      </trkpt>
      <trkpt lat="42.6947040" lon="1.4629210">
        <ele>1769.1</ele>
        <time>2021-08-10T14:23:55Z</time>
      </trkpt>
      <trkpt lat="42.6946180" lon="1.4629000">
        <ele>1768.9</ele>
        <time>2021-08-10T14:23:57Z</time>
      </trkpt>
      <trkpt lat="42.6946010" lon="1.4629050">
        <ele>1768.6</ele>
        <time>2021-08-10T14:23:58Z</time>
      </trkpt>
      <trkpt lat="42.6945490" lon="1.4629070">
        <ele>1768.0</ele>
        <time>2021-08-10T14:24:01Z</time>
      </trkpt>
      <trkpt lat="42.6945410" lon="1.4629060">
        <ele>1767.9</ele>
        <time>2021-08-10T14:24:02Z</time>
      </trkpt>
      <trkpt lat="42.6945340" lon="1.4628950">
        <ele>1767.7</ele>
        <time>2021-08-10T14:24:04Z</time>
      </trkpt>
      <trkpt lat="42.6945400" lon="1.4628810">
        <ele>1767.6</ele>
        <time>2021-08-10T14:24:07Z</time>
      </trkpt>
      <trkpt lat="42.6945770" lon="1.4628180">
        <ele>1766.8</ele>
        <time>2021-08-10T14:24:13Z</time>
      </trkpt>
      <trkpt lat="42.6945870" lon="1.4628070">
        <ele>1766.7</ele>
        <time>2021-08-10T14:24:14Z</time>
      </trkpt>
      <trkpt lat="42.6945950" lon="1.4627780">
        <ele>1766.4</ele>
        <time>2021-08-10T14:24:17Z</time>
      </trkpt>
      <trkpt lat="42.6946020" lon="1.4627700">
        <ele>1766.3</ele>
        <time>2021-08-10T14:24:18Z</time>
      </trkpt>
      <trkpt lat="42.6946400" lon="1.4627390">
        <ele>1765.7</ele>
        <time>2021-08-10T14:24:24Z</time>
      </trkpt>
      <trkpt lat="42.6947060" lon="1.4627030">
        <ele>1764.8</ele>
        <time>2021-08-10T14:24:31Z</time>
      </trkpt>
      <trkpt lat="42.6947140" lon="1.4626990">
        <ele>1764.7</ele>
        <time>2021-08-10T14:24:32Z</time>
      </trkpt>
      <trkpt lat="42.6947330" lon="1.4626880">
        <ele>1764.4</ele>
        <time>2021-08-10T14:24:35Z</time>
      </trkpt>
      <trkpt lat="42.6947580" lon="1.4626700">
        <ele>1764.0</ele>
        <time>2021-08-10T14:24:38Z</time>
      </trkpt>
      <trkpt lat="42.6947730" lon="1.4626680">
        <ele>1763.8</ele>
        <time>2021-08-10T14:24:39Z</time>
      </trkpt>
      <trkpt lat="42.6948080" lon="1.4626670">
        <ele>1763.3</ele>
        <time>2021-08-10T14:24:42Z</time>
      </trkpt>
      <trkpt lat="42.6948530" lon="1.4626660">
        <ele>1762.8</ele>
        <time>2021-08-10T14:24:46Z</time>
      </trkpt>
      <trkpt lat="42.6949130" lon="1.4626520">
        <ele>1762.0</ele>
        <time>2021-08-10T14:24:52Z</time>
      </trkpt>
      <trkpt lat="42.6949300" lon="1.4626450">
        <ele>1761.7</ele>
        <time>2021-08-10T14:24:55Z</time>
      </trkpt>
      <trkpt lat="42.6950040" lon="1.4626110">
        <ele>1760.7</ele>
        <time>2021-08-10T14:25:03Z</time>
      </trkpt>
      <trkpt lat="42.6951860" lon="1.4625670">
        <ele>1757.9</ele>
        <time>2021-08-10T14:25:23Z</time>
      </trkpt>
      <trkpt lat="42.6952840" lon="1.4625830">
        <ele>1756.5</ele>
        <time>2021-08-10T14:25:35Z</time>
      </trkpt>
      <trkpt lat="42.6952890" lon="1.4625840">
        <ele>1756.4</ele>
        <time>2021-08-10T14:25:40Z</time>
      </trkpt>
      <trkpt lat="42.6953070" lon="1.4625930">
        <ele>1756.1</ele>
        <time>2021-08-10T14:25:45Z</time>
      </trkpt>
      <trkpt lat="42.6954910" lon="1.4626720">
        <ele>1753.5</ele>
        <time>2021-08-10T14:26:05Z</time>
      </trkpt>
      <trkpt lat="42.6955330" lon="1.4626860">
        <ele>1752.9</ele>
        <time>2021-08-10T14:26:09Z</time>
      </trkpt>
      <trkpt lat="42.6955650" lon="1.4626960">
        <ele>1752.5</ele>
        <time>2021-08-10T14:26:12Z</time>
      </trkpt>
      <trkpt lat="42.6956350" lon="1.4627190">
        <ele>1751.7</ele>
        <time>2021-08-10T14:26:19Z</time>
      </trkpt>
      <trkpt lat="42.6958160" lon="1.4627610">
        <ele>1749.8</ele>
        <time>2021-08-10T14:26:35Z</time>
      </trkpt>
      <trkpt lat="42.6959910" lon="1.4628210">
        <ele>1747.3</ele>
        <time>2021-08-10T14:26:51Z</time>
      </trkpt>
      <trkpt lat="42.6961790" lon="1.4628110">
        <ele>1744.8</ele>
        <time>2021-08-10T14:27:07Z</time>
      </trkpt>
      <trkpt lat="42.6963470" lon="1.4626910">
        <ele>1742.6</ele>
        <time>2021-08-10T14:27:22Z</time>
      </trkpt>
      <trkpt lat="42.6964880" lon="1.4627020">
        <ele>1740.7</ele>
        <time>2021-08-10T14:27:34Z</time>
      </trkpt>
      <trkpt lat="42.6966720" lon="1.4626970">
        <ele>1738.4</ele>
        <time>2021-08-10T14:27:52Z</time>
      </trkpt>
      <trkpt lat="42.6968590" lon="1.4627010">
        <ele>1736.6</ele>
        <time>2021-08-10T14:28:10Z</time>
      </trkpt>
      <trkpt lat="42.6970480" lon="1.4627070">
        <ele>1734.7</ele>
        <time>2021-08-10T14:28:24Z</time>
      </trkpt>
      <trkpt lat="42.6972270" lon="1.4626430">
        <ele>1732.5</ele>
        <time>2021-08-10T14:28:41Z</time>
      </trkpt>
      <trkpt lat="42.6973070" lon="1.4625580">
        <ele>1731.1</ele>
        <time>2021-08-10T14:28:49Z</time>
      </trkpt>
      <trkpt lat="42.6973270" lon="1.4625410">
        <ele>1730.7</ele>
        <time>2021-08-10T14:28:51Z</time>
      </trkpt>
      <trkpt lat="42.6973390" lon="1.4625340">
        <ele>1730.5</ele>
        <time>2021-08-10T14:28:52Z</time>
      </trkpt>
      <trkpt lat="42.6975160" lon="1.4624630">
        <ele>1728.3</ele>
        <time>2021-08-10T14:29:10Z</time>
      </trkpt>
      <trkpt lat="42.6976970" lon="1.4624450">
        <ele>1725.8</ele>
        <time>2021-08-10T14:29:27Z</time>
      </trkpt>
      <trkpt lat="42.6978690" lon="1.4623560">
        <ele>1723.1</ele>
        <time>2021-08-10T14:29:44Z</time>
      </trkpt>
      <trkpt lat="42.6980060" lon="1.4621980">
        <ele>1720.8</ele>
        <time>2021-08-10T14:30:01Z</time>
      </trkpt>
      <trkpt lat="42.6981540" lon="1.4620450">
        <ele>1718.3</ele>
        <time>2021-08-10T14:30:18Z</time>
      </trkpt>
      <trkpt lat="42.6983090" lon="1.4619150">
        <ele>1715.5</ele>
        <time>2021-08-10T14:30:34Z</time>
      </trkpt>
      <trkpt lat="42.6984660" lon="1.4617750">
        <ele>1713.0</ele>
        <time>2021-08-10T14:30:51Z</time>
      </trkpt>
      <trkpt lat="42.6986050" lon="1.4616870">
        <ele>1710.9</ele>
        <time>2021-08-10T14:31:06Z</time>
      </trkpt>
      <trkpt lat="42.6987890" lon="1.4616330">
        <ele>1708.6</ele>
        <time>2021-08-10T14:31:22Z</time>
      </trkpt>
      <trkpt lat="42.6989670" lon="1.4615960">
        <ele>1706.3</ele>
        <time>2021-08-10T14:31:38Z</time>
      </trkpt>
      <trkpt lat="42.6991540" lon="1.4616110">
        <ele>1703.7</ele>
        <time>2021-08-10T14:31:55Z</time>
      </trkpt>
      <trkpt lat="42.6993420" lon="1.4616030">
        <ele>1701.5</ele>
        <time>2021-08-10T14:32:13Z</time>
      </trkpt>
      <trkpt lat="42.6994580" lon="1.4616210">
        <ele>1700.0</ele>
        <time>2021-08-10T14:32:24Z</time>
      </trkpt>
      <trkpt lat="42.6996320" lon="1.4617050">
        <ele>1698.1</ele>
        <time>2021-08-10T14:32:41Z</time>
      </trkpt>
      <trkpt lat="42.6998060" lon="1.4616270">
        <ele>1695.8</ele>
        <time>2021-08-10T14:32:58Z</time>
      </trkpt>
      <trkpt lat="42.6999750" lon="1.4615260">
        <ele>1693.4</ele>
        <time>2021-08-10T14:33:15Z</time>
      </trkpt>
      <trkpt lat="42.7001650" lon="1.4615260">
        <ele>1690.5</ele>
        <time>2021-08-10T14:33:32Z</time>
      </trkpt>
      <trkpt lat="42.7003520" lon="1.4614830">
        <ele>1688.2</ele>
        <time>2021-08-10T14:33:50Z</time>
      </trkpt>
      <trkpt lat="42.7004790" lon="1.4613760">
        <ele>1686.3</ele>
        <time>2021-08-10T14:34:06Z</time>
      </trkpt>
      <trkpt lat="42.7006180" lon="1.4611990">
        <ele>1683.6</ele>
        <time>2021-08-10T14:34:23Z</time>
      </trkpt>
      <trkpt lat="42.7007270" lon="1.4610520">
        <ele>1681.5</ele>
        <time>2021-08-10T14:34:38Z</time>
      </trkpt>
      <trkpt lat="42.7008480" lon="1.4608700">
        <ele>1679.3</ele>
        <time>2021-08-10T14:34:55Z</time>
      </trkpt>
      <trkpt lat="42.7009550" lon="1.4606610">
        <ele>1676.7</ele>
        <time>2021-08-10T14:35:13Z</time>
      </trkpt>
      <trkpt lat="42.7010390" lon="1.4604890">
        <ele>1674.6</ele>
        <time>2021-08-10T14:35:28Z</time>
      </trkpt>
      <trkpt lat="42.7011470" lon="1.4602860">
        <ele>1672.5</ele>
        <time>2021-08-10T14:35:45Z</time>
      </trkpt>
      <trkpt lat="42.7012780" lon="1.4601240">
        <ele>1670.1</ele>
        <time>2021-08-10T14:36:02Z</time>
      </trkpt>
      <trkpt lat="42.7014050" lon="1.4600880">
        <ele>1668.7</ele>
        <time>2021-08-10T14:36:15Z</time>
      </trkpt>
      <trkpt lat="42.7015520" lon="1.4600590">
        <ele>1667.8</ele>
        <time>2021-08-10T14:36:27Z</time>
      </trkpt>
      <trkpt lat="42.7017310" lon="1.4600120">
        <ele>1666.5</ele>
        <time>2021-08-10T14:36:43Z</time>
      </trkpt>
      <trkpt lat="42.7018100" lon="1.4600120">
        <ele>1666.6</ele>
        <time>2021-08-10T14:36:51Z</time>
      </trkpt>
      <trkpt lat="42.7018270" lon="1.4600200">
        <ele>1666.6</ele>
        <time>2021-08-10T14:36:53Z</time>
      </trkpt>
      <trkpt lat="42.7018810" lon="1.4600330">
        <ele>1666.6</ele>
        <time>2021-08-10T14:36:59Z</time>
      </trkpt>
      <trkpt lat="42.7020620" lon="1.4600280">
        <ele>1665.5</ele>
        <time>2021-08-10T14:37:31Z</time>
      </trkpt>
      <trkpt lat="42.7022390" lon="1.4600520">
        <ele>1664.3</ele>
        <time>2021-08-10T14:37:50Z</time>
      </trkpt>
      <trkpt lat="42.7023290" lon="1.4601180">
        <ele>1663.5</ele>
        <time>2021-08-10T14:38:03Z</time>
      </trkpt>
      <trkpt lat="42.7023340" lon="1.4601160">
        <ele>1663.4</ele>
        <time>2021-08-10T14:38:04Z</time>
      </trkpt>
      <trkpt lat="42.7023380" lon="1.4601160">
        <ele>1663.4</ele>
        <time>2021-08-10T14:38:05Z</time>
      </trkpt>
      <trkpt lat="42.7023860" lon="1.4601550">
        <ele>1663.0</ele>
        <time>2021-08-10T14:38:11Z</time>
      </trkpt>
      <trkpt lat="42.7024360" lon="1.4602000">
        <ele>1662.5</ele>
        <time>2021-08-10T14:38:19Z</time>
      </trkpt>
      <trkpt lat="42.7026100" lon="1.4603160">
        <ele>1661.5</ele>
        <time>2021-08-10T14:38:41Z</time>
      </trkpt>
      <trkpt lat="42.7027640" lon="1.4602880">
        <ele>1660.8</ele>
        <time>2021-08-10T14:38:59Z</time>
      </trkpt>
      <trkpt lat="42.7028760" lon="1.4602910">
        <ele>1660.1</ele>
        <time>2021-08-10T14:39:13Z</time>
      </trkpt>
      <trkpt lat="42.7030650" lon="1.4603030">
        <ele>1658.5</ele>
        <time>2021-08-10T14:39:30Z</time>
      </trkpt>
      <trkpt lat="42.7032180" lon="1.4602440">
        <ele>1657.3</ele>
        <time>2021-08-10T14:39:46Z</time>
      </trkpt>
      <trkpt lat="42.7032390" lon="1.4602180">
        <ele>1656.0</ele>
        <time>2021-08-10T14:39:55Z</time>
      </trkpt>
      <trkpt lat="42.7031760" lon="1.4602380">
        <ele>1655.0</ele>
        <time>2021-08-10T14:40:02Z</time>
      </trkpt>
      <trkpt lat="42.7031580" lon="1.4602440">
        <ele>1654.7</ele>
        <time>2021-08-10T14:40:04Z</time>
      </trkpt>
      <trkpt lat="42.7031470" lon="1.4602440">
        <ele>1654.6</ele>
        <time>2021-08-10T14:40:05Z</time>
      </trkpt>
      <trkpt lat="42.7031270" lon="1.4602490">
        <ele>1654.2</ele>
        <time>2021-08-10T14:40:07Z</time>
      </trkpt>
      <trkpt lat="42.7031010" lon="1.4602600">
        <ele>1653.8</ele>
        <time>2021-08-10T14:40:10Z</time>
      </trkpt>
      <trkpt lat="42.7030630" lon="1.4602570">
        <ele>1653.2</ele>
        <time>2021-08-10T14:40:14Z</time>
      </trkpt>
      <trkpt lat="42.7029670" lon="1.4602150">
        <ele>1651.6</ele>
        <time>2021-08-10T14:40:24Z</time>
      </trkpt>
      <trkpt lat="42.7028870" lon="1.4601990">
        <ele>1650.4</ele>
        <time>2021-08-10T14:40:32Z</time>
      </trkpt>
      <trkpt lat="42.7027170" lon="1.4600890">
        <ele>1647.5</ele>
        <time>2021-08-10T14:40:49Z</time>
      </trkpt>
      <trkpt lat="42.7026950" lon="1.4600790">
        <ele>1647.1</ele>
        <time>2021-08-10T14:40:51Z</time>
      </trkpt>
      <trkpt lat="42.7025860" lon="1.4599860">
        <ele>1645.0</ele>
        <time>2021-08-10T14:41:02Z</time>
      </trkpt>
      <trkpt lat="42.7025350" lon="1.4599130">
        <ele>1643.8</ele>
        <time>2021-08-10T14:41:09Z</time>
      </trkpt>
      <trkpt lat="42.7024170" lon="1.4597300">
        <ele>1640.3</ele>
        <time>2021-08-10T14:41:24Z</time>
      </trkpt>
      <trkpt lat="42.7024570" lon="1.4596450">
        <ele>1638.5</ele>
        <time>2021-08-10T14:41:43Z</time>
      </trkpt>
      <trkpt lat="42.7025000" lon="1.4596570">
        <ele>1637.2</ele>
        <time>2021-08-10T14:41:49Z</time>
      </trkpt>
      <trkpt lat="42.7025760" lon="1.4596820">
        <ele>1635.0</ele>
        <time>2021-08-10T14:41:58Z</time>
      </trkpt>
      <trkpt lat="42.7027420" lon="1.4597800">
        <ele>1630.8</ele>
        <time>2021-08-10T14:42:20Z</time>
      </trkpt>
      <trkpt lat="42.7027800" lon="1.4598000">
        <ele>1629.8</ele>
        <time>2021-08-10T14:42:25Z</time>
      </trkpt>
      <trkpt lat="42.7028280" lon="1.4598260">
        <ele>1628.3</ele>
        <time>2021-08-10T14:42:30Z</time>
      </trkpt>
      <trkpt lat="42.7029600" lon="1.4598080">
        <ele>1623.6</ele>
        <time>2021-08-10T14:42:45Z</time>
      </trkpt>
      <trkpt lat="42.7031310" lon="1.4597030">
        <ele>1618.0</ele>
        <time>2021-08-10T14:43:03Z</time>
      </trkpt>
      <trkpt lat="42.7031650" lon="1.4596610">
        <ele>1616.9</ele>
        <time>2021-08-10T14:43:09Z</time>
      </trkpt>
      <trkpt lat="42.7031980" lon="1.4596240">
        <ele>1615.9</ele>
        <time>2021-08-10T14:43:13Z</time>
      </trkpt>
      <trkpt lat="42.7032170" lon="1.4595960">
        <ele>1615.2</ele>
        <time>2021-08-10T14:43:18Z</time>
      </trkpt>
      <trkpt lat="42.7032860" lon="1.4595350">
        <ele>1613.0</ele>
        <time>2021-08-10T14:43:26Z</time>
      </trkpt>
      <trkpt lat="42.7033380" lon="1.4594230">
        <ele>1610.3</ele>
        <time>2021-08-10T14:43:48Z</time>
      </trkpt>
      <trkpt lat="42.7034060" lon="1.4593050">
        <ele>1606.7</ele>
        <time>2021-08-10T14:44:02Z</time>
      </trkpt>
      <trkpt lat="42.7035350" lon="1.4591310">
        <ele>1600.8</ele>
        <time>2021-08-10T14:44:21Z</time>
      </trkpt>
      <trkpt lat="42.7035860" lon="1.4590380">
        <ele>1597.9</ele>
        <time>2021-08-10T14:45:09Z</time>
      </trkpt>
      <trkpt lat="42.7035870" lon="1.4590270">
        <ele>1596.1</ele>
        <time>2021-08-10T14:45:19Z</time>
      </trkpt>
      <trkpt lat="42.7036040" lon="1.4590160">
        <ele>1596.8</ele>
        <time>2021-08-10T14:45:23Z</time>
      </trkpt>
      <trkpt lat="42.7036050" lon="1.4589920">
        <ele>1595.0</ele>
        <time>2021-08-10T14:45:28Z</time>
      </trkpt>
      <trkpt lat="42.7035980" lon="1.4589820">
        <ele>1594.6</ele>
        <time>2021-08-10T14:45:32Z</time>
      </trkpt>
      <trkpt lat="42.7035870" lon="1.4589690">
        <ele>1594.8</ele>
        <time>2021-08-10T14:45:37Z</time>
      </trkpt>
      <trkpt lat="42.7035860" lon="1.4589690">
        <ele>1594.9</ele>
        <time>2021-08-10T14:45:38Z</time>
      </trkpt>
      <trkpt lat="42.7035680" lon="1.4589570">
        <ele>1594.6</ele>
        <time>2021-08-10T14:45:43Z</time>
      </trkpt>
      <trkpt lat="42.7035420" lon="1.4589590">
        <ele>1594.8</ele>
        <time>2021-08-10T14:45:47Z</time>
      </trkpt>
      <trkpt lat="42.7035350" lon="1.4589610">
        <ele>1594.5</ele>
        <time>2021-08-10T14:45:48Z</time>
      </trkpt>
      <trkpt lat="42.7035290" lon="1.4589640">
        <ele>1594.7</ele>
        <time>2021-08-10T14:45:49Z</time>
      </trkpt>
      <trkpt lat="42.7035160" lon="1.4589610">
        <ele>1594.8</ele>
        <time>2021-08-10T14:45:52Z</time>
      </trkpt>
      <trkpt lat="42.7035230" lon="1.4589430">
        <ele>1593.1</ele>
        <time>2021-08-10T14:45:55Z</time>
      </trkpt>
      <trkpt lat="42.7035260" lon="1.4589340">
        <ele>1593.3</ele>
        <time>2021-08-10T14:45:56Z</time>
      </trkpt>
      <trkpt lat="42.7035250" lon="1.4589220">
        <ele>1593.4</ele>
        <time>2021-08-10T14:45:58Z</time>
      </trkpt>
      <trkpt lat="42.7035310" lon="1.4589000">
        <ele>1591.7</ele>
        <time>2021-08-10T14:46:01Z</time>
      </trkpt>
      <trkpt lat="42.7035330" lon="1.4588920">
        <ele>1591.9</ele>
        <time>2021-08-10T14:46:02Z</time>
      </trkpt>
      <trkpt lat="42.7035380" lon="1.4588810">
        <ele>1592.5</ele>
        <time>2021-08-10T14:46:03Z</time>
      </trkpt>
      <trkpt lat="42.7035410" lon="1.4588740">
        <ele>1592.7</ele>
        <time>2021-08-10T14:46:04Z</time>
      </trkpt>
      <trkpt lat="42.7035420" lon="1.4588680">
        <ele>1592.8</ele>
        <time>2021-08-10T14:46:05Z</time>
      </trkpt>
      <trkpt lat="42.7035530" lon="1.4588450">
        <ele>1591.2</ele>
        <time>2021-08-10T14:46:08Z</time>
      </trkpt>
      <trkpt lat="42.7035540" lon="1.4588370">
        <ele>1591.3</ele>
        <time>2021-08-10T14:46:09Z</time>
      </trkpt>
      <trkpt lat="42.7035610" lon="1.4588290">
        <ele>1591.5</ele>
        <time>2021-08-10T14:46:11Z</time>
      </trkpt>
      <trkpt lat="42.7035640" lon="1.4588240">
        <ele>1591.7</ele>
        <time>2021-08-10T14:46:12Z</time>
      </trkpt>
      <trkpt lat="42.7035690" lon="1.4588170">
        <ele>1590.5</ele>
        <time>2021-08-10T14:46:13Z</time>
      </trkpt>
      <trkpt lat="42.7035970" lon="1.4587780">
        <ele>1588.8</ele>
        <time>2021-08-10T14:46:20Z</time>
      </trkpt>
      <trkpt lat="42.7036140" lon="1.4587510">
        <ele>1589.6</ele>
        <time>2021-08-10T14:46:25Z</time>
      </trkpt>
      <trkpt lat="42.7036240" lon="1.4587360">
        <ele>1589.7</ele>
        <time>2021-08-10T14:46:29Z</time>
      </trkpt>
      <trkpt lat="42.7036270" lon="1.4587350">
        <ele>1588.0</ele>
        <time>2021-08-10T14:46:33Z</time>
      </trkpt>
      <trkpt lat="42.7036460" lon="1.4587380">
        <ele>1590.7</ele>
        <time>2021-08-10T14:46:46Z</time>
      </trkpt>
      <trkpt lat="42.7034690" lon="1.4586880">
        <ele>1584.2</ele>
        <time>2021-08-10T14:47:38Z</time>
      </trkpt>
      <trkpt lat="42.7033530" lon="1.4585980">
        <ele>1579.4</ele>
        <time>2021-08-10T14:48:08Z</time>
      </trkpt>
      <trkpt lat="42.7034890" lon="1.4584170">
        <ele>1572.4</ele>
        <time>2021-08-10T14:48:43Z</time>
      </trkpt>
      <trkpt lat="42.7034060" lon="1.4583000">
        <ele>1565.8</ele>
        <time>2021-08-10T14:49:15Z</time>
      </trkpt>
      <trkpt lat="42.7034220" lon="1.4581810">
        <ele>1562.2</ele>
        <time>2021-08-10T14:49:40Z</time>
      </trkpt>
      <trkpt lat="42.7034360" lon="1.4581770">
        <ele>1560.3</ele>
        <time>2021-08-10T14:49:42Z</time>
      </trkpt>
      <trkpt lat="42.7034960" lon="1.4581840">
        <ele>1563.3</ele>
        <time>2021-08-10T14:49:50Z</time>
      </trkpt>
      <trkpt lat="42.7035140" lon="1.4581790">
        <ele>1563.9</ele>
        <time>2021-08-10T14:49:52Z</time>
      </trkpt>
      <trkpt lat="42.7035300" lon="1.4581650">
        <ele>1562.0</ele>
        <time>2021-08-10T14:49:55Z</time>
      </trkpt>
      <trkpt lat="42.7035400" lon="1.4581380">
        <ele>1562.6</ele>
        <time>2021-08-10T14:50:00Z</time>
      </trkpt>
      <trkpt lat="42.7034970" lon="1.4580790">
        <ele>1557.6</ele>
        <time>2021-08-10T14:50:14Z</time>
      </trkpt>
      <trkpt lat="42.7034800" lon="1.4580280">
        <ele>1555.7</ele>
        <time>2021-08-10T14:50:24Z</time>
      </trkpt>
      <trkpt lat="42.7035220" lon="1.4579520">
        <ele>1552.6</ele>
        <time>2021-08-10T14:50:44Z</time>
      </trkpt>
      <trkpt lat="42.7034450" lon="1.4579150">
        <ele>1549.9</ele>
        <time>2021-08-10T14:50:54Z</time>
      </trkpt>
      <trkpt lat="42.7033260" lon="1.4579000">
        <ele>1548.4</ele>
        <time>2021-08-10T14:51:02Z</time>
      </trkpt>
      <trkpt lat="42.7032670" lon="1.4578820">
        <ele>1547.9</ele>
        <time>2021-08-10T14:51:08Z</time>
      </trkpt>
      <trkpt lat="42.7032460" lon="1.4578530">
        <ele>1545.7</ele>
        <time>2021-08-10T14:51:14Z</time>
      </trkpt>
      <trkpt lat="42.7033280" lon="1.4577320">
        <ele>1540.1</ele>
        <time>2021-08-10T14:51:28Z</time>
      </trkpt>
      <trkpt lat="42.7032690" lon="1.4576830">
        <ele>1537.1</ele>
        <time>2021-08-10T14:51:38Z</time>
      </trkpt>
      <trkpt lat="42.7030830" lon="1.4576460">
        <ele>1533.4</ele>
        <time>2021-08-10T14:51:53Z</time>
      </trkpt>
      <trkpt lat="42.7029720" lon="1.4576310">
        <ele>1533.6</ele>
        <time>2021-08-10T14:52:05Z</time>
      </trkpt>
      <trkpt lat="42.7030560" lon="1.4574330">
        <ele>1528.1</ele>
        <time>2021-08-10T14:52:30Z</time>
      </trkpt>
      <trkpt lat="42.7030800" lon="1.4574360">
        <ele>1527.2</ele>
        <time>2021-08-10T14:52:33Z</time>
      </trkpt>
      <trkpt lat="42.7031500" lon="1.4574170">
        <ele>1524.6</ele>
        <time>2021-08-10T14:52:39Z</time>
      </trkpt>
      <trkpt lat="42.7031870" lon="1.4574050">
        <ele>1523.2</ele>
        <time>2021-08-10T14:52:42Z</time>
      </trkpt>
      <trkpt lat="42.7032970" lon="1.4573770">
        <ele>1519.7</ele>
        <time>2021-08-10T14:52:51Z</time>
      </trkpt>
      <trkpt lat="42.7033590" lon="1.4573790">
        <ele>1517.9</ele>
        <time>2021-08-10T14:52:57Z</time>
      </trkpt>
      <trkpt lat="42.7034420" lon="1.4573260">
        <ele>1515.4</ele>
        <time>2021-08-10T14:53:08Z</time>
      </trkpt>
      <trkpt lat="42.7034570" lon="1.4573200">
        <ele>1515.0</ele>
        <time>2021-08-10T14:53:10Z</time>
      </trkpt>
      <trkpt lat="42.7034750" lon="1.4573140">
        <ele>1514.5</ele>
        <time>2021-08-10T14:53:12Z</time>
      </trkpt>
      <trkpt lat="42.7034870" lon="1.4573130">
        <ele>1514.3</ele>
        <time>2021-08-10T14:53:13Z</time>
      </trkpt>
      <trkpt lat="42.7034950" lon="1.4573110">
        <ele>1514.1</ele>
        <time>2021-08-10T14:53:14Z</time>
      </trkpt>
      <trkpt lat="42.7036360" lon="1.4572520">
        <ele>1511.7</ele>
        <time>2021-08-10T14:53:35Z</time>
      </trkpt>
      <trkpt lat="42.7036510" lon="1.4572410">
        <ele>1511.6</ele>
        <time>2021-08-10T14:53:37Z</time>
      </trkpt>
      <trkpt lat="42.7036550" lon="1.4572420">
        <ele>1511.5</ele>
        <time>2021-08-10T14:53:38Z</time>
      </trkpt>
      <trkpt lat="42.7036620" lon="1.4572410">
        <ele>1511.5</ele>
        <time>2021-08-10T14:53:39Z</time>
      </trkpt>
      <trkpt lat="42.7036950" lon="1.4572160">
        <ele>1511.2</ele>
        <time>2021-08-10T14:53:43Z</time>
      </trkpt>
      <trkpt lat="42.7037230" lon="1.4571940">
        <ele>1511.0</ele>
        <time>2021-08-10T14:53:47Z</time>
      </trkpt>
      <trkpt lat="42.7037360" lon="1.4571790">
        <ele>1510.9</ele>
        <time>2021-08-10T14:53:49Z</time>
      </trkpt>
      <trkpt lat="42.7037570" lon="1.4571560">
        <ele>1510.7</ele>
        <time>2021-08-10T14:53:52Z</time>
      </trkpt>
      <trkpt lat="42.7038370" lon="1.4570800">
        <ele>1510.0</ele>
        <time>2021-08-10T14:54:05Z</time>
      </trkpt>
      <trkpt lat="42.7038290" lon="1.4570710">
        <ele>1509.9</ele>
        <time>2021-08-10T14:54:09Z</time>
      </trkpt>
      <trkpt lat="42.7038340" lon="1.4570710">
        <ele>1509.9</ele>
        <time>2021-08-10T14:54:14Z</time>
      </trkpt>
      <trkpt lat="42.7038340" lon="1.4570580">
        <ele>1509.8</ele>
        <time>2021-08-10T14:54:19Z</time>
      </trkpt>
      <trkpt lat="42.7038330" lon="1.4570550">
        <ele>1509.8</ele>
        <time>2021-08-10T14:54:20Z</time>
      </trkpt>
      <trkpt lat="42.7038380" lon="1.4570500">
        <ele>1509.7</ele>
        <time>2021-08-10T14:54:21Z</time>
      </trkpt>
      <trkpt lat="42.7038360" lon="1.4570500">
        <ele>1509.7</ele>
        <time>2021-08-10T14:54:22Z</time>
      </trkpt>
      <trkpt lat="42.7038370" lon="1.4570500">
        <ele>1509.7</ele>
        <time>2021-08-10T14:54:23Z</time>
      </trkpt>
      <trkpt lat="42.7039190" lon="1.4569980">
        <ele>1508.7</ele>
        <time>2021-08-10T14:54:37Z</time>
      </trkpt>
      <trkpt lat="42.7039500" lon="1.4569910">
        <ele>1508.4</ele>
        <time>2021-08-10T14:54:41Z</time>
      </trkpt>
      <trkpt lat="42.7039910" lon="1.4569700">
        <ele>1508.0</ele>
        <time>2021-08-10T14:54:45Z</time>
      </trkpt>
      <trkpt lat="42.7040000" lon="1.4569690">
        <ele>1507.9</ele>
        <time>2021-08-10T14:54:46Z</time>
      </trkpt>
      <trkpt lat="42.7040390" lon="1.4569810">
        <ele>1507.6</ele>
        <time>2021-08-10T14:54:50Z</time>
      </trkpt>
      <trkpt lat="42.7040660" lon="1.4570000">
        <ele>1507.5</ele>
        <time>2021-08-10T14:54:53Z</time>
      </trkpt>
      <trkpt lat="42.7041450" lon="1.4570580">
        <ele>1507.3</ele>
        <time>2021-08-10T14:55:00Z</time>
      </trkpt>
      <trkpt lat="42.7041950" lon="1.4570900">
        <ele>1507.1</ele>
        <time>2021-08-10T14:55:05Z</time>
      </trkpt>
      <trkpt lat="42.7042390" lon="1.4571040">
        <ele>1506.9</ele>
        <time>2021-08-10T14:55:08Z</time>
      </trkpt>
      <trkpt lat="42.7042940" lon="1.4571340">
        <ele>1506.6</ele>
        <time>2021-08-10T14:55:13Z</time>
      </trkpt>
      <trkpt lat="42.7043640" lon="1.4571590">
        <ele>1506.2</ele>
        <time>2021-08-10T14:55:21Z</time>
      </trkpt>
      <trkpt lat="42.7045480" lon="1.4571970">
        <ele>1505.4</ele>
        <time>2021-08-10T14:55:37Z</time>
      </trkpt>
      <trkpt lat="42.7046340" lon="1.4572370">
        <ele>1505.1</ele>
        <time>2021-08-10T14:55:46Z</time>
      </trkpt>
      <trkpt lat="42.7047920" lon="1.4573560">
        <ele>1503.7</ele>
        <time>2021-08-10T14:56:02Z</time>
      </trkpt>
      <trkpt lat="42.7048400" lon="1.4574030">
        <ele>1503.3</ele>
        <time>2021-08-10T14:56:07Z</time>
      </trkpt>
      <trkpt lat="42.7048500" lon="1.4574080">
        <ele>1503.2</ele>
        <time>2021-08-10T14:56:08Z</time>
      </trkpt>
      <trkpt lat="42.7048950" lon="1.4574170">
        <ele>1503.0</ele>
        <time>2021-08-10T14:56:12Z</time>
      </trkpt>
      <trkpt lat="42.7048950" lon="1.4574170">
        <ele>1503.0</ele>
        <time>2021-08-10T14:56:13Z</time>
      </trkpt>
      <trkpt lat="42.7049120" lon="1.4574200">
        <ele>1502.9</ele>
        <time>2021-08-10T14:56:14Z</time>
      </trkpt>
      <trkpt lat="42.7050720" lon="1.4575250">
        <ele>1502.4</ele>
        <time>2021-08-10T14:56:34Z</time>
      </trkpt>
      <trkpt lat="42.7051110" lon="1.4575560">
        <ele>1502.3</ele>
        <time>2021-08-10T14:56:38Z</time>
      </trkpt>
      <trkpt lat="42.7051500" lon="1.4575590">
        <ele>1502.2</ele>
        <time>2021-08-10T14:56:42Z</time>
      </trkpt>
      <trkpt lat="42.7051730" lon="1.4575690">
        <ele>1502.2</ele>
        <time>2021-08-10T14:56:44Z</time>
      </trkpt>
      <trkpt lat="42.7052350" lon="1.4576140">
        <ele>1502.1</ele>
        <time>2021-08-10T14:56:51Z</time>
      </trkpt>
      <trkpt lat="42.7053240" lon="1.4576490">
        <ele>1502.0</ele>
        <time>2021-08-10T14:57:00Z</time>
      </trkpt>
      <trkpt lat="42.7054010" lon="1.4576620">
        <ele>1501.9</ele>
        <time>2021-08-10T14:57:08Z</time>
      </trkpt>
      <trkpt lat="42.7055850" lon="1.4577140">
        <ele>1501.2</ele>
        <time>2021-08-10T14:57:26Z</time>
      </trkpt>
      <trkpt lat="42.7056690" lon="1.4578140">
        <ele>1500.8</ele>
        <time>2021-08-10T14:57:39Z</time>
      </trkpt>
      <trkpt lat="42.7056760" lon="1.4578600">
        <ele>1500.6</ele>
        <time>2021-08-10T14:57:42Z</time>
      </trkpt>
      <trkpt lat="42.7056800" lon="1.4578840">
        <ele>1500.6</ele>
        <time>2021-08-10T14:57:44Z</time>
      </trkpt>
      <trkpt lat="42.7056830" lon="1.4578930">
        <ele>1500.6</ele>
        <time>2021-08-10T14:57:45Z</time>
      </trkpt>
      <trkpt lat="42.7056920" lon="1.4579030">
        <ele>1500.5</ele>
        <time>2021-08-10T14:57:46Z</time>
      </trkpt>
      <trkpt lat="42.7057000" lon="1.4579130">
        <ele>1500.5</ele>
        <time>2021-08-10T14:57:47Z</time>
      </trkpt>
      <trkpt lat="42.7057150" lon="1.4579310">
        <ele>1500.5</ele>
        <time>2021-08-10T14:57:48Z</time>
      </trkpt>
      <trkpt lat="42.7057150" lon="1.4579310">
        <ele>1500.5</ele>
        <time>2021-08-10T14:57:49Z</time>
      </trkpt>
      <trkpt lat="42.7057290" lon="1.4579440">
        <ele>1500.5</ele>
        <time>2021-08-10T14:57:50Z</time>
      </trkpt>
      <trkpt lat="42.7057370" lon="1.4579510">
        <ele>1500.5</ele>
        <time>2021-08-10T14:57:51Z</time>
      </trkpt>
      <trkpt lat="42.7057450" lon="1.4579590">
        <ele>1500.5</ele>
        <time>2021-08-10T14:57:52Z</time>
      </trkpt>
      <trkpt lat="42.7057540" lon="1.4579670">
        <ele>1500.5</ele>
        <time>2021-08-10T14:57:53Z</time>
      </trkpt>
      <trkpt lat="42.7057670" lon="1.4579760">
        <ele>1500.5</ele>
        <time>2021-08-10T14:57:54Z</time>
      </trkpt>
      <trkpt lat="42.7058380" lon="1.4580420">
        <ele>1500.5</ele>
        <time>2021-08-10T14:58:05Z</time>
      </trkpt>
      <trkpt lat="42.7058660" lon="1.4580590">
        <ele>1500.6</ele>
        <time>2021-08-10T14:58:09Z</time>
      </trkpt>
      <trkpt lat="42.7059790" lon="1.4581620">
        <ele>1500.6</ele>
        <time>2021-08-10T14:58:30Z</time>
      </trkpt>
      <trkpt lat="42.7060580" lon="1.4581900">
        <ele>1500.4</ele>
        <time>2021-08-10T14:58:38Z</time>
      </trkpt>
      <trkpt lat="42.7060840" lon="1.4581860">
        <ele>1500.4</ele>
        <time>2021-08-10T14:58:41Z</time>
      </trkpt>
      <trkpt lat="42.7060940" lon="1.4581810">
        <ele>1500.3</ele>
        <time>2021-08-10T14:58:42Z</time>
      </trkpt>
      <trkpt lat="42.7061030" lon="1.4581790">
        <ele>1500.3</ele>
        <time>2021-08-10T14:58:43Z</time>
      </trkpt>
      <trkpt lat="42.7061130" lon="1.4581730">
        <ele>1500.3</ele>
        <time>2021-08-10T14:58:44Z</time>
      </trkpt>
      <trkpt lat="42.7061230" lon="1.4581700">
        <ele>1500.3</ele>
        <time>2021-08-10T14:58:45Z</time>
      </trkpt>
      <trkpt lat="42.7061300" lon="1.4581610">
        <ele>1500.2</ele>
        <time>2021-08-10T14:58:46Z</time>
      </trkpt>
      <trkpt lat="42.7061440" lon="1.4581540">
        <ele>1500.2</ele>
        <time>2021-08-10T14:58:47Z</time>
      </trkpt>
      <trkpt lat="42.7061510" lon="1.4581440">
        <ele>1500.1</ele>
        <time>2021-08-10T14:58:48Z</time>
      </trkpt>
      <trkpt lat="42.7063220" lon="1.4580840">
        <ele>1499.4</ele>
        <time>2021-08-10T14:59:02Z</time>
      </trkpt>
      <trkpt lat="42.7064590" lon="1.4582460">
        <ele>1496.8</ele>
        <time>2021-08-10T14:59:20Z</time>
      </trkpt>
      <trkpt lat="42.7065090" lon="1.4583340">
        <ele>1495.6</ele>
        <time>2021-08-10T14:59:27Z</time>
      </trkpt>
      <trkpt lat="42.7066340" lon="1.4584650">
        <ele>1493.3</ele>
        <time>2021-08-10T14:59:41Z</time>
      </trkpt>
      <trkpt lat="42.7067500" lon="1.4586410">
        <ele>1490.8</ele>
        <time>2021-08-10T14:59:58Z</time>
      </trkpt>
      <trkpt lat="42.7068160" lon="1.4588020">
        <ele>1488.9</ele>
        <time>2021-08-10T15:00:11Z</time>
      </trkpt>
      <trkpt lat="42.7068820" lon="1.4590310">
        <ele>1486.2</ele>
        <time>2021-08-10T15:00:27Z</time>
      </trkpt>
      <trkpt lat="42.7069170" lon="1.4591170">
        <ele>1485.2</ele>
        <time>2021-08-10T15:00:33Z</time>
      </trkpt>
      <trkpt lat="42.7070130" lon="1.4593120">
        <ele>1482.7</ele>
        <time>2021-08-10T15:00:49Z</time>
      </trkpt>
      <trkpt lat="42.7070450" lon="1.4593810">
        <ele>1481.8</ele>
        <time>2021-08-10T15:00:54Z</time>
      </trkpt>
      <trkpt lat="42.7070470" lon="1.4593940">
        <ele>1481.7</ele>
        <time>2021-08-10T15:00:55Z</time>
      </trkpt>
      <trkpt lat="42.7070500" lon="1.4594080">
        <ele>1481.5</ele>
        <time>2021-08-10T15:00:56Z</time>
      </trkpt>
      <trkpt lat="42.7070540" lon="1.4594200">
        <ele>1481.4</ele>
        <time>2021-08-10T15:00:57Z</time>
      </trkpt>
      <trkpt lat="42.7070590" lon="1.4594290">
        <ele>1481.3</ele>
        <time>2021-08-10T15:00:58Z</time>
      </trkpt>
      <trkpt lat="42.7070970" lon="1.4595690">
        <ele>1479.7</ele>
        <time>2021-08-10T15:01:11Z</time>
      </trkpt>
      <trkpt lat="42.7071640" lon="1.4596060">
        <ele>1478.6</ele>
        <time>2021-08-10T15:01:21Z</time>
      </trkpt>
      <trkpt lat="42.7072630" lon="1.4595830">
        <ele>1477.2</ele>
        <time>2021-08-10T15:01:32Z</time>
      </trkpt>
      <trkpt lat="42.7074390" lon="1.4596320">
        <ele>1474.6</ele>
        <time>2021-08-10T15:01:50Z</time>
      </trkpt>
      <trkpt lat="42.7074840" lon="1.4596360">
        <ele>1473.9</ele>
        <time>2021-08-10T15:01:54Z</time>
      </trkpt>
      <trkpt lat="42.7074940" lon="1.4596360">
        <ele>1473.8</ele>
        <time>2021-08-10T15:01:55Z</time>
      </trkpt>
      <trkpt lat="42.7075040" lon="1.4596340">
        <ele>1473.6</ele>
        <time>2021-08-10T15:01:56Z</time>
      </trkpt>
      <trkpt lat="42.7075130" lon="1.4596320">
        <ele>1473.5</ele>
        <time>2021-08-10T15:01:57Z</time>
      </trkpt>
      <trkpt lat="42.7075240" lon="1.4596320">
        <ele>1473.3</ele>
        <time>2021-08-10T15:01:58Z</time>
      </trkpt>
      <trkpt lat="42.7075320" lon="1.4596380">
        <ele>1473.2</ele>
        <time>2021-08-10T15:01:59Z</time>
      </trkpt>
      <trkpt lat="42.7076110" lon="1.4596480">
        <ele>1472.1</ele>
        <time>2021-08-10T15:02:07Z</time>
      </trkpt>
      <trkpt lat="42.7077130" lon="1.4597190">
        <ele>1470.4</ele>
        <time>2021-08-10T15:02:17Z</time>
      </trkpt>
      <trkpt lat="42.7077370" lon="1.4597540">
        <ele>1469.9</ele>
        <time>2021-08-10T15:02:20Z</time>
      </trkpt>
      <trkpt lat="42.7077860" lon="1.4598090">
        <ele>1469.0</ele>
        <time>2021-08-10T15:02:26Z</time>
      </trkpt>
      <trkpt lat="42.7078310" lon="1.4598430">
        <ele>1468.2</ele>
        <time>2021-08-10T15:02:31Z</time>
      </trkpt>
      <trkpt lat="42.7078520" lon="1.4598610">
        <ele>1467.9</ele>
        <time>2021-08-10T15:02:33Z</time>
      </trkpt>
      <trkpt lat="42.7078840" lon="1.4598730">
        <ele>1467.4</ele>
        <time>2021-08-10T15:02:35Z</time>
      </trkpt>
      <trkpt lat="42.7079670" lon="1.4599690">
        <ele>1465.8</ele>
        <time>2021-08-10T15:02:48Z</time>
      </trkpt>
      <trkpt lat="42.7079830" lon="1.4599980">
        <ele>1465.4</ele>
        <time>2021-08-10T15:02:51Z</time>
      </trkpt>
      <trkpt lat="42.7080060" lon="1.4600460">
        <ele>1464.8</ele>
        <time>2021-08-10T15:02:56Z</time>
      </trkpt>
      <trkpt lat="42.7081170" lon="1.4601560">
        <ele>1462.8</ele>
        <time>2021-08-10T15:03:13Z</time>
      </trkpt>
      <trkpt lat="42.7081790" lon="1.4601380">
        <ele>1461.9</ele>
        <time>2021-08-10T15:03:18Z</time>
      </trkpt>
      <trkpt lat="42.7082380" lon="1.4600910">
        <ele>1460.9</ele>
        <time>2021-08-10T15:03:25Z</time>
      </trkpt>
      <trkpt lat="42.7083710" lon="1.4599100">
        <ele>1458.2</ele>
        <time>2021-08-10T15:03:48Z</time>
      </trkpt>
      <trkpt lat="42.7084010" lon="1.4597200">
        <ele>1456.1</ele>
        <time>2021-08-10T15:04:06Z</time>
      </trkpt>
      <trkpt lat="42.7084160" lon="1.4596030">
        <ele>1454.9</ele>
        <time>2021-08-10T15:04:18Z</time>
      </trkpt>
      <trkpt lat="42.7084580" lon="1.4595420">
        <ele>1454.0</ele>
        <time>2021-08-10T15:04:24Z</time>
      </trkpt>
      <trkpt lat="42.7085280" lon="1.4593310">
        <ele>1451.5</ele>
        <time>2021-08-10T15:04:40Z</time>
      </trkpt>
      <trkpt lat="42.7085310" lon="1.4593140">
        <ele>1451.3</ele>
        <time>2021-08-10T15:04:41Z</time>
      </trkpt>
      <trkpt lat="42.7085250" lon="1.4591860">
        <ele>1450.0</ele>
        <time>2021-08-10T15:04:56Z</time>
      </trkpt>
      <trkpt lat="42.7085340" lon="1.4591480">
        <ele>1449.5</ele>
        <time>2021-08-10T15:05:03Z</time>
      </trkpt>
      <trkpt lat="42.7085320" lon="1.4591090">
        <ele>1449.1</ele>
        <time>2021-08-10T15:05:11Z</time>
      </trkpt>
      <trkpt lat="42.7085240" lon="1.4590910">
        <ele>1448.9</ele>
        <time>2021-08-10T15:05:25Z</time>
      </trkpt>
      <trkpt lat="42.7085280" lon="1.4590830">
        <ele>1448.8</ele>
        <time>2021-08-10T15:05:31Z</time>
      </trkpt>
      <trkpt lat="42.7085480" lon="1.4590810">
        <ele>1448.5</ele>
        <time>2021-08-10T15:05:41Z</time>
      </trkpt>
      <trkpt lat="42.7085560" lon="1.4591500">
        <ele>1447.8</ele>
        <time>2021-08-10T15:05:54Z</time>
      </trkpt>
      <trkpt lat="42.7085300" lon="1.4591950">
        <ele>1447.1</ele>
        <time>2021-08-10T15:05:59Z</time>
      </trkpt>
      <trkpt lat="42.7084990" lon="1.4592440">
        <ele>1446.5</ele>
        <time>2021-08-10T15:06:05Z</time>
      </trkpt>
      <trkpt lat="42.7084900" lon="1.4592490">
        <ele>1446.3</ele>
        <time>2021-08-10T15:06:10Z</time>
      </trkpt>
      <trkpt lat="42.7084990" lon="1.4592810">
        <ele>1446.0</ele>
        <time>2021-08-10T15:06:36Z</time>
      </trkpt>
      <trkpt lat="42.7085350" lon="1.4593620">
        <ele>1444.9</ele>
        <time>2021-08-10T15:06:53Z</time>
      </trkpt>
      <trkpt lat="42.7085610" lon="1.4592200">
        <ele>1443.4</ele>
        <time>2021-08-10T15:07:10Z</time>
      </trkpt>
      <trkpt lat="42.7085920" lon="1.4590970">
        <ele>1441.8</ele>
        <time>2021-08-10T15:07:15Z</time>
      </trkpt>
      <trkpt lat="42.7085990" lon="1.4590790">
        <ele>1442.4</ele>
        <time>2021-08-10T15:07:16Z</time>
      </trkpt>
      <trkpt lat="42.7085990" lon="1.4590790">
        <ele>1443.0</ele>
        <time>2021-08-10T15:07:17Z</time>
      </trkpt>
      <trkpt lat="42.7086120" lon="1.4590590">
        <ele>1442.2</ele>
        <time>2021-08-10T15:07:18Z</time>
      </trkpt>
      <trkpt lat="42.7086310" lon="1.4590090">
        <ele>1442.6</ele>
        <time>2021-08-10T15:07:22Z</time>
      </trkpt>
      <trkpt lat="42.7086310" lon="1.4590090">
        <ele>1443.3</ele>
        <time>2021-08-10T15:07:23Z</time>
      </trkpt>
      <trkpt lat="42.7086940" lon="1.4587470">
        <ele>1435.9</ele>
        <time>2021-08-10T15:07:39Z</time>
      </trkpt>
      <trkpt lat="42.7087420" lon="1.4586570">
        <ele>1433.9</ele>
        <time>2021-08-10T15:07:46Z</time>
      </trkpt>
      <trkpt lat="42.7087730" lon="1.4586060">
        <ele>1430.0</ele>
        <time>2021-08-10T15:07:51Z</time>
      </trkpt>
      <trkpt lat="42.7088030" lon="1.4585540">
        <ele>1429.3</ele>
        <time>2021-08-10T15:07:53Z</time>
      </trkpt>
      <trkpt lat="42.7088220" lon="1.4585380">
        <ele>1429.0</ele>
        <time>2021-08-10T15:07:57Z</time>
      </trkpt>
      <trkpt lat="42.7088540" lon="1.4585080">
        <ele>1428.4</ele>
        <time>2021-08-10T15:08:00Z</time>
      </trkpt>
      <trkpt lat="42.7088690" lon="1.4585010">
        <ele>1428.2</ele>
        <time>2021-08-10T15:08:02Z</time>
      </trkpt>
      <trkpt lat="42.7088860" lon="1.4584910">
        <ele>1427.9</ele>
        <time>2021-08-10T15:08:04Z</time>
      </trkpt>
      <trkpt lat="42.7088580" lon="1.4584900">
        <ele>1427.5</ele>
        <time>2021-08-10T15:08:20Z</time>
      </trkpt>
      <trkpt lat="42.7088400" lon="1.4584990">
        <ele>1427.2</ele>
        <time>2021-08-10T15:08:22Z</time>
      </trkpt>
      <trkpt lat="42.7088310" lon="1.4585100">
        <ele>1427.0</ele>
        <time>2021-08-10T15:08:23Z</time>
      </trkpt>
      <trkpt lat="42.7086670" lon="1.4586110">
        <ele>1424.4</ele>
        <time>2021-08-10T15:08:44Z</time>
      </trkpt>
      <trkpt lat="42.7086160" lon="1.4586260">
        <ele>1423.6</ele>
        <time>2021-08-10T15:08:49Z</time>
      </trkpt>
      <trkpt lat="42.7084990" lon="1.4586950">
        <ele>1421.7</ele>
        <time>2021-08-10T15:09:04Z</time>
      </trkpt>
      <trkpt lat="42.7084720" lon="1.4587080">
        <ele>1421.3</ele>
        <time>2021-08-10T15:09:07Z</time>
      </trkpt>
      <trkpt lat="42.7084580" lon="1.4587240">
        <ele>1421.0</ele>
        <time>2021-08-10T15:09:09Z</time>
      </trkpt>
      <trkpt lat="42.7084530" lon="1.4587350">
        <ele>1420.9</ele>
        <time>2021-08-10T15:09:10Z</time>
      </trkpt>
      <trkpt lat="42.7084420" lon="1.4587480">
        <ele>1420.7</ele>
        <time>2021-08-10T15:09:11Z</time>
      </trkpt>
      <trkpt lat="42.7084350" lon="1.4587510">
        <ele>1420.6</ele>
        <time>2021-08-10T15:09:12Z</time>
      </trkpt>
      <trkpt lat="42.7084290" lon="1.4587540">
        <ele>1420.5</ele>
        <time>2021-08-10T15:09:13Z</time>
      </trkpt>
      <trkpt lat="42.7084230" lon="1.4587560">
        <ele>1420.4</ele>
        <time>2021-08-10T15:09:14Z</time>
      </trkpt>
      <trkpt lat="42.7084230" lon="1.4587560">
        <ele>1420.4</ele>
        <time>2021-08-10T15:09:15Z</time>
      </trkpt>
      <trkpt lat="42.7084080" lon="1.4587610">
        <ele>1420.1</ele>
        <time>2021-08-10T15:09:16Z</time>
      </trkpt>
      <trkpt lat="42.7084080" lon="1.4587610">
        <ele>1420.1</ele>
        <time>2021-08-10T15:09:17Z</time>
      </trkpt>
      <trkpt lat="42.7083920" lon="1.4587790">
        <ele>1419.8</ele>
        <time>2021-08-10T15:09:18Z</time>
      </trkpt>
      <trkpt lat="42.7083850" lon="1.4587890">
        <ele>1419.7</ele>
        <time>2021-08-10T15:09:19Z</time>
      </trkpt>
      <trkpt lat="42.7083610" lon="1.4588090">
        <ele>1419.3</ele>
        <time>2021-08-10T15:09:23Z</time>
      </trkpt>
      <trkpt lat="42.7083100" lon="1.4588500">
        <ele>1418.4</ele>
        <time>2021-08-10T15:09:29Z</time>
      </trkpt>
      <trkpt lat="42.7082810" lon="1.4588770">
        <ele>1417.9</ele>
        <time>2021-08-10T15:09:33Z</time>
      </trkpt>
      <trkpt lat="42.7082500" lon="1.4588740">
        <ele>1417.4</ele>
        <time>2021-08-10T15:09:35Z</time>
      </trkpt>
      <trkpt lat="42.7082210" lon="1.4588050">
        <ele>1416.6</ele>
        <time>2021-08-10T15:09:45Z</time>
      </trkpt>
      <trkpt lat="42.7082150" lon="1.4587890">
        <ele>1416.4</ele>
        <time>2021-08-10T15:09:48Z</time>
      </trkpt>
      <trkpt lat="42.7082130" lon="1.4587720">
        <ele>1416.2</ele>
        <time>2021-08-10T15:09:50Z</time>
      </trkpt>
      <trkpt lat="42.7082360" lon="1.4587120">
        <ele>1415.4</ele>
        <time>2021-08-10T15:09:54Z</time>
      </trkpt>
      <trkpt lat="42.7082560" lon="1.4586790">
        <ele>1415.0</ele>
        <time>2021-08-10T15:09:58Z</time>
      </trkpt>
      <trkpt lat="42.7082740" lon="1.4586440">
        <ele>1414.5</ele>
        <time>2021-08-10T15:10:00Z</time>
      </trkpt>
      <trkpt lat="42.7082930" lon="1.4585830">
        <ele>1413.8</ele>
        <time>2021-08-10T15:10:08Z</time>
      </trkpt>
      <trkpt lat="42.7083240" lon="1.4585350">
        <ele>1413.1</ele>
        <time>2021-08-10T15:10:15Z</time>
      </trkpt>
      <trkpt lat="42.7083440" lon="1.4584440">
        <ele>1412.1</ele>
        <time>2021-08-10T15:10:22Z</time>
      </trkpt>
      <trkpt lat="42.7083750" lon="1.4582700">
        <ele>1410.1</ele>
        <time>2021-08-10T15:10:36Z</time>
      </trkpt>
      <trkpt lat="42.7084070" lon="1.4582020">
        <ele>1409.3</ele>
        <time>2021-08-10T15:10:40Z</time>
      </trkpt>
      <trkpt lat="42.7085130" lon="1.4579960">
        <ele>1406.5</ele>
        <time>2021-08-10T15:10:52Z</time>
      </trkpt>
      <trkpt lat="42.7085980" lon="1.4578700">
        <ele>1404.7</ele>
        <time>2021-08-10T15:11:06Z</time>
      </trkpt>
      <trkpt lat="42.7085190" lon="1.4579180">
        <ele>1403.4</ele>
        <time>2021-08-10T15:11:34Z</time>
      </trkpt>
      <trkpt lat="42.7084440" lon="1.4579350">
        <ele>1402.3</ele>
        <time>2021-08-10T15:11:46Z</time>
      </trkpt>
      <trkpt lat="42.7084190" lon="1.4579410">
        <ele>1401.9</ele>
        <time>2021-08-10T15:11:50Z</time>
      </trkpt>
      <trkpt lat="42.7083910" lon="1.4579020">
        <ele>1401.3</ele>
        <time>2021-08-10T15:11:56Z</time>
      </trkpt>
      <trkpt lat="42.7083970" lon="1.4578520">
        <ele>1400.8</ele>
        <time>2021-08-10T15:12:01Z</time>
      </trkpt>
      <trkpt lat="42.7083970" lon="1.4578000">
        <ele>1400.2</ele>
        <time>2021-08-10T15:12:05Z</time>
      </trkpt>
      <trkpt lat="42.7084350" lon="1.4577480">
        <ele>1399.4</ele>
        <time>2021-08-10T15:12:12Z</time>
      </trkpt>
      <trkpt lat="42.7084430" lon="1.4577370">
        <ele>1399.2</ele>
        <time>2021-08-10T15:12:13Z</time>
      </trkpt>
      <trkpt lat="42.7085030" lon="1.4576550">
        <ele>1398.0</ele>
        <time>2021-08-10T15:12:21Z</time>
      </trkpt>
      <trkpt lat="42.7086650" lon="1.4575570">
        <ele>1395.4</ele>
        <time>2021-08-10T15:12:39Z</time>
      </trkpt>
      <trkpt lat="42.7087010" lon="1.4575440">
        <ele>1394.8</ele>
        <time>2021-08-10T15:12:43Z</time>
      </trkpt>
      <trkpt lat="42.7087330" lon="1.4575460">
        <ele>1394.3</ele>
        <time>2021-08-10T15:12:47Z</time>
      </trkpt>
      <trkpt lat="42.7087840" lon="1.4575560">
        <ele>1393.6</ele>
        <time>2021-08-10T15:12:53Z</time>
      </trkpt>
      <trkpt lat="42.7088150" lon="1.4575580">
        <ele>1393.1</ele>
        <time>2021-08-10T15:12:55Z</time>
      </trkpt>
      <trkpt lat="42.7089880" lon="1.4575350">
        <ele>1390.6</ele>
        <time>2021-08-10T15:13:17Z</time>
      </trkpt>
      <trkpt lat="42.7089950" lon="1.4575330">
        <ele>1390.5</ele>
        <time>2021-08-10T15:13:18Z</time>
      </trkpt>
      <trkpt lat="42.7091400" lon="1.4574650">
        <ele>1388.2</ele>
        <time>2021-08-10T15:13:41Z</time>
      </trkpt>
      <trkpt lat="42.7092270" lon="1.4574890">
        <ele>1386.9</ele>
        <time>2021-08-10T15:13:54Z</time>
      </trkpt>
      <trkpt lat="42.7093630" lon="1.4575190">
        <ele>1384.9</ele>
        <time>2021-08-10T15:14:14Z</time>
      </trkpt>
      <trkpt lat="42.7095480" lon="1.4575280">
        <ele>1382.1</ele>
        <time>2021-08-10T15:14:38Z</time>
      </trkpt>
      <trkpt lat="42.7097120" lon="1.4575650">
        <ele>1379.7</ele>
        <time>2021-08-10T15:15:15Z</time>
      </trkpt>
      <trkpt lat="42.7098190" lon="1.4575100">
        <ele>1378.0</ele>
        <time>2021-08-10T15:15:37Z</time>
      </trkpt>
      <trkpt lat="42.7098840" lon="1.4574660">
        <ele>1376.9</ele>
        <time>2021-08-10T15:15:56Z</time>
      </trkpt>
      <trkpt lat="42.7099210" lon="1.4574660">
        <ele>1376.4</ele>
        <time>2021-08-10T15:16:01Z</time>
      </trkpt>
      <trkpt lat="42.7099590" lon="1.4574300">
        <ele>1375.7</ele>
        <time>2021-08-10T15:16:14Z</time>
      </trkpt>
      <trkpt lat="42.7097700" lon="1.4573380">
        <ele>1372.7</ele>
        <time>2021-08-10T15:16:35Z</time>
      </trkpt>
      <trkpt lat="42.7097270" lon="1.4573390">
        <ele>1372.1</ele>
        <time>2021-08-10T15:16:40Z</time>
      </trkpt>
      <trkpt lat="42.7096260" lon="1.4572820">
        <ele>1370.5</ele>
        <time>2021-08-10T15:16:50Z</time>
      </trkpt>
      <trkpt lat="42.7095240" lon="1.4572610">
        <ele>1368.9</ele>
        <time>2021-08-10T15:17:01Z</time>
      </trkpt>
      <trkpt lat="42.7095170" lon="1.4572660">
        <ele>1368.8</ele>
        <time>2021-08-10T15:17:03Z</time>
      </trkpt>
      <trkpt lat="42.7094900" lon="1.4572390">
        <ele>1368.3</ele>
        <time>2021-08-10T15:17:06Z</time>
      </trkpt>
      <trkpt lat="42.7093670" lon="1.4571360">
        <ele>1366.2</ele>
        <time>2021-08-10T15:17:33Z</time>
      </trkpt>
      <trkpt lat="42.7093690" lon="1.4571290">
        <ele>1366.1</ele>
        <time>2021-08-10T15:17:35Z</time>
      </trkpt>
      <trkpt lat="42.7093890" lon="1.4570970">
        <ele>1365.7</ele>
        <time>2021-08-10T15:17:43Z</time>
      </trkpt>
      <trkpt lat="42.7092610" lon="1.4570030">
        <ele>1363.5</ele>
        <time>2021-08-10T15:18:02Z</time>
      </trkpt>
      <trkpt lat="42.7090720" lon="1.4569290">
        <ele>1360.6</ele>
        <time>2021-08-10T15:18:26Z</time>
      </trkpt>
      <trkpt lat="42.7090340" lon="1.4568700">
        <ele>1359.8</ele>
        <time>2021-08-10T15:18:30Z</time>
      </trkpt>
      <trkpt lat="42.7089450" lon="1.4568470">
        <ele>1358.4</ele>
        <time>2021-08-10T15:18:43Z</time>
      </trkpt>
      <trkpt lat="42.7087680" lon="1.4568250">
        <ele>1355.8</ele>
        <time>2021-08-10T15:19:17Z</time>
      </trkpt>
      <trkpt lat="42.7087280" lon="1.4568020">
        <ele>1355.2</ele>
        <time>2021-08-10T15:19:26Z</time>
      </trkpt>
      <trkpt lat="42.7085420" lon="1.4567840">
        <ele>1352.4</ele>
        <time>2021-08-10T15:19:44Z</time>
      </trkpt>
      <trkpt lat="42.7083910" lon="1.4567310">
        <ele>1350.1</ele>
        <time>2021-08-10T15:19:58Z</time>
      </trkpt>
      <trkpt lat="42.7082380" lon="1.4566030">
        <ele>1347.5</ele>
        <time>2021-08-10T15:20:20Z</time>
      </trkpt>
      <trkpt lat="42.7080690" lon="1.4565580">
        <ele>1341.5</ele>
        <time>2021-08-10T15:20:45Z</time>
      </trkpt>
      <trkpt lat="42.7080410" lon="1.4564900">
        <ele>1340.3</ele>
        <time>2021-08-10T15:20:51Z</time>
      </trkpt>
      <trkpt lat="42.7080550" lon="1.4564840">
        <ele>1340.0</ele>
        <time>2021-08-10T15:20:53Z</time>
      </trkpt>
      <trkpt lat="42.7080670" lon="1.4564790">
        <ele>1339.8</ele>
        <time>2021-08-10T15:20:55Z</time>
      </trkpt>
      <trkpt lat="42.7082010" lon="1.4563530">
        <ele>1336.5</ele>
        <time>2021-08-10T15:21:16Z</time>
      </trkpt>
      <trkpt lat="42.7083640" lon="1.4562250">
        <ele>1332.7</ele>
        <time>2021-08-10T15:21:38Z</time>
      </trkpt>
      <trkpt lat="42.7085330" lon="1.4561460">
        <ele>1329.1</ele>
        <time>2021-08-10T15:22:05Z</time>
      </trkpt>
      <trkpt lat="42.7087050" lon="1.4560510">
        <ele>1325.3</ele>
        <time>2021-08-10T15:22:29Z</time>
      </trkpt>
      <trkpt lat="42.7088420" lon="1.4560390">
        <ele>1322.6</ele>
        <time>2021-08-10T15:22:49Z</time>
      </trkpt>
      <trkpt lat="42.7089110" lon="1.4560340">
        <ele>1321.2</ele>
        <time>2021-08-10T15:23:00Z</time>
      </trkpt>
      <trkpt lat="42.7090340" lon="1.4559640">
        <ele>1318.5</ele>
        <time>2021-08-10T15:23:32Z</time>
      </trkpt>
      <trkpt lat="42.7089110" lon="1.4559460">
        <ele>1316.0</ele>
        <time>2021-08-10T15:23:47Z</time>
      </trkpt>
      <trkpt lat="42.7089020" lon="1.4559450">
        <ele>1313.3</ele>
        <time>2021-08-10T15:23:48Z</time>
      </trkpt>
      <trkpt lat="42.7088570" lon="1.4559300">
        <ele>1313.2</ele>
        <time>2021-08-10T15:23:54Z</time>
      </trkpt>
      <trkpt lat="42.7087620" lon="1.4559570">
        <ele>1315.6</ele>
        <time>2021-08-10T15:24:03Z</time>
      </trkpt>
      <trkpt lat="42.7087060" lon="1.4559540">
        <ele>1315.5</ele>
        <time>2021-08-10T15:24:08Z</time>
      </trkpt>
      <trkpt lat="42.7086240" lon="1.4559670">
        <ele>1315.4</ele>
        <time>2021-08-10T15:24:14Z</time>
      </trkpt>
      <trkpt lat="42.7084660" lon="1.4559340">
        <ele>1313.0</ele>
        <time>2021-08-10T15:24:31Z</time>
      </trkpt>
      <trkpt lat="42.7083150" lon="1.4557940">
        <ele>1305.5</ele>
        <time>2021-08-10T15:24:49Z</time>
      </trkpt>
      <trkpt lat="42.7083380" lon="1.4557890">
        <ele>1305.1</ele>
        <time>2021-08-10T15:25:01Z</time>
      </trkpt>
      <trkpt lat="42.7084170" lon="1.4557690">
        <ele>1302.3</ele>
        <time>2021-08-10T15:25:13Z</time>
      </trkpt>
      <trkpt lat="42.7085790" lon="1.4556370">
        <ele>1294.7</ele>
        <time>2021-08-10T15:25:43Z</time>
      </trkpt>
      <trkpt lat="42.7085840" lon="1.4556340">
        <ele>1294.6</ele>
        <time>2021-08-10T15:25:44Z</time>
      </trkpt>
      <trkpt lat="42.7085930" lon="1.4556310">
        <ele>1294.4</ele>
        <time>2021-08-10T15:25:46Z</time>
      </trkpt>
      <trkpt lat="42.7086070" lon="1.4556310">
        <ele>1294.1</ele>
        <time>2021-08-10T15:25:48Z</time>
      </trkpt>
      <trkpt lat="42.7087800" lon="1.4555420">
        <ele>1290.0</ele>
        <time>2021-08-10T15:26:10Z</time>
      </trkpt>
      <trkpt lat="42.7088490" lon="1.4555210">
        <ele>1288.4</ele>
        <time>2021-08-10T15:26:22Z</time>
      </trkpt>
      <trkpt lat="42.7088890" lon="1.4555060">
        <ele>1287.5</ele>
        <time>2021-08-10T15:26:27Z</time>
      </trkpt>
      <trkpt lat="42.7089040" lon="1.4554980">
        <ele>1287.1</ele>
        <time>2021-08-10T15:26:29Z</time>
      </trkpt>
      <trkpt lat="42.7089370" lon="1.4554780">
        <ele>1286.3</ele>
        <time>2021-08-10T15:26:32Z</time>
      </trkpt>
      <trkpt lat="42.7090070" lon="1.4554230">
        <ele>1284.5</ele>
        <time>2021-08-10T15:26:41Z</time>
      </trkpt>
      <trkpt lat="42.7090560" lon="1.4553890">
        <ele>1283.3</ele>
        <time>2021-08-10T15:26:49Z</time>
      </trkpt>
      <trkpt lat="42.7092330" lon="1.4553800">
        <ele>1279.4</ele>
        <time>2021-08-10T15:27:14Z</time>
      </trkpt>
      <trkpt lat="42.7093270" lon="1.4553690">
        <ele>1277.3</ele>
        <time>2021-08-10T15:27:26Z</time>
      </trkpt>
      <trkpt lat="42.7093860" lon="1.4553650">
        <ele>1276.0</ele>
        <time>2021-08-10T15:27:38Z</time>
      </trkpt>
      <trkpt lat="42.7095520" lon="1.4553200">
        <ele>1272.3</ele>
        <time>2021-08-10T15:28:02Z</time>
      </trkpt>
      <trkpt lat="42.7095750" lon="1.4553180">
        <ele>1271.8</ele>
        <time>2021-08-10T15:28:08Z</time>
      </trkpt>
      <trkpt lat="42.7097520" lon="1.4552290">
        <ele>1267.6</ele>
        <time>2021-08-10T15:28:34Z</time>
      </trkpt>
      <trkpt lat="42.7097270" lon="1.4550820">
        <ele>1262.9</ele>
        <time>2021-08-10T15:29:07Z</time>
      </trkpt>
      <trkpt lat="42.7096510" lon="1.4549980">
        <ele>1260.3</ele>
        <time>2021-08-10T15:29:25Z</time>
      </trkpt>
      <trkpt lat="42.7096450" lon="1.4550050">
        <ele>1260.1</ele>
        <time>2021-08-10T15:29:26Z</time>
      </trkpt>
      <trkpt lat="42.7096250" lon="1.4550280">
        <ele>1259.4</ele>
        <time>2021-08-10T15:29:28Z</time>
      </trkpt>
      <trkpt lat="42.7096230" lon="1.4550300">
        <ele>1259.4</ele>
        <time>2021-08-10T15:29:29Z</time>
      </trkpt>
      <trkpt lat="42.7094960" lon="1.4549960">
        <ele>1256.1</ele>
        <time>2021-08-10T15:29:55Z</time>
      </trkpt>
      <trkpt lat="42.7094360" lon="1.4549450">
        <ele>1254.3</ele>
        <time>2021-08-10T15:30:07Z</time>
      </trkpt>
      <trkpt lat="42.7093440" lon="1.4549020">
        <ele>1252.0</ele>
        <time>2021-08-10T15:30:20Z</time>
      </trkpt>
      <trkpt lat="42.7094220" lon="1.4548540">
        <ele>1249.9</ele>
        <time>2021-08-10T15:30:33Z</time>
      </trkpt>
      <trkpt lat="42.7094320" lon="1.4548510">
        <ele>1249.7</ele>
        <time>2021-08-10T15:30:34Z</time>
      </trkpt>
      <trkpt lat="42.7094490" lon="1.4548440">
        <ele>1249.2</ele>
        <time>2021-08-10T15:30:36Z</time>
      </trkpt>
      <trkpt lat="42.7094730" lon="1.4548260">
        <ele>1248.6</ele>
        <time>2021-08-10T15:30:40Z</time>
      </trkpt>
      <trkpt lat="42.7095130" lon="1.4548060">
        <ele>1247.5</ele>
        <time>2021-08-10T15:30:44Z</time>
      </trkpt>
      <trkpt lat="42.7095950" lon="1.4546360">
        <ele>1243.9</ele>
        <time>2021-08-10T15:31:02Z</time>
      </trkpt>
      <trkpt lat="42.7095590" lon="1.4546490">
        <ele>1243.0</ele>
        <time>2021-08-10T15:31:09Z</time>
      </trkpt>
      <trkpt lat="42.7094150" lon="1.4546990">
        <ele>1239.6</ele>
        <time>2021-08-10T15:31:26Z</time>
      </trkpt>
      <trkpt lat="42.7093860" lon="1.4546610">
        <ele>1238.7</ele>
        <time>2021-08-10T15:31:34Z</time>
      </trkpt>
      <trkpt lat="42.7093550" lon="1.4546450">
        <ele>1237.9</ele>
        <time>2021-08-10T15:31:46Z</time>
      </trkpt>
      <trkpt lat="42.7093410" lon="1.4546460">
        <ele>1237.6</ele>
        <time>2021-08-10T15:31:48Z</time>
      </trkpt>
      <trkpt lat="42.7092740" lon="1.4546080">
        <ele>1236.0</ele>
        <time>2021-08-10T15:31:56Z</time>
      </trkpt>
      <trkpt lat="42.7092660" lon="1.4545980">
        <ele>1235.8</ele>
        <time>2021-08-10T15:31:58Z</time>
      </trkpt>
      <trkpt lat="42.7091400" lon="1.4546080">
        <ele>1233.1</ele>
        <time>2021-08-10T15:32:15Z</time>
      </trkpt>
      <trkpt lat="42.7090820" lon="1.4545830">
        <ele>1231.8</ele>
        <time>2021-08-10T15:32:23Z</time>
      </trkpt>
      <trkpt lat="42.7089180" lon="1.4544720">
        <ele>1227.7</ele>
        <time>2021-08-10T15:32:44Z</time>
      </trkpt>
      <trkpt lat="42.7088110" lon="1.4544290">
        <ele>1225.0</ele>
        <time>2021-08-10T15:32:58Z</time>
      </trkpt>
      <trkpt lat="42.7086650" lon="1.4542560">
        <ele>1220.1</ele>
        <time>2021-08-10T15:33:19Z</time>
      </trkpt>
      <trkpt lat="42.7085430" lon="1.4541840">
        <ele>1217.4</ele>
        <time>2021-08-10T15:33:31Z</time>
      </trkpt>
      <trkpt lat="42.7083600" lon="1.4541260">
        <ele>1214.0</ele>
        <time>2021-08-10T15:33:50Z</time>
      </trkpt>
      <trkpt lat="42.7083350" lon="1.4541140">
        <ele>1213.4</ele>
        <time>2021-08-10T15:33:54Z</time>
      </trkpt>
      <trkpt lat="42.7081520" lon="1.4540870">
        <ele>1209.1</ele>
        <time>2021-08-10T15:34:08Z</time>
      </trkpt>
      <trkpt lat="42.7080090" lon="1.4539320">
        <ele>1204.7</ele>
        <time>2021-08-10T15:34:26Z</time>
      </trkpt>
      <trkpt lat="42.7079590" lon="1.4538590">
        <ele>1202.9</ele>
        <time>2021-08-10T15:34:37Z</time>
      </trkpt>
      <trkpt lat="42.7079110" lon="1.4538640">
        <ele>1201.7</ele>
        <time>2021-08-10T15:34:44Z</time>
      </trkpt>
      <trkpt lat="42.7078100" lon="1.4538850">
        <ele>1199.4</ele>
        <time>2021-08-10T15:34:54Z</time>
      </trkpt>
      <trkpt lat="42.7078060" lon="1.4538830">
        <ele>1199.3</ele>
        <time>2021-08-10T15:34:55Z</time>
      </trkpt>
      <trkpt lat="42.7076970" lon="1.4538050">
        <ele>1196.3</ele>
        <time>2021-08-10T15:35:16Z</time>
      </trkpt>
      <trkpt lat="42.7076810" lon="1.4537420">
        <ele>1195.2</ele>
        <time>2021-08-10T15:35:25Z</time>
      </trkpt>
      <trkpt lat="42.7076310" lon="1.4536960">
        <ele>1193.8</ele>
        <time>2021-08-10T15:35:34Z</time>
      </trkpt>
      <trkpt lat="42.7075530" lon="1.4535670">
        <ele>1191.0</ele>
        <time>2021-08-10T15:35:47Z</time>
      </trkpt>
      <trkpt lat="42.7074230" lon="1.4533950">
        <ele>1186.2</ele>
        <time>2021-08-10T15:36:03Z</time>
      </trkpt>
      <trkpt lat="42.7073780" lon="1.4533410">
        <ele>1184.5</ele>
        <time>2021-08-10T15:36:11Z</time>
      </trkpt>
      <trkpt lat="42.7072940" lon="1.4532620">
        <ele>1181.4</ele>
        <time>2021-08-10T15:36:28Z</time>
      </trkpt>
      <trkpt lat="42.7072870" lon="1.4532320">
        <ele>1180.7</ele>
        <time>2021-08-10T15:36:33Z</time>
      </trkpt>
      <trkpt lat="42.7071960" lon="1.4531860">
        <ele>1177.6</ele>
        <time>2021-08-10T15:36:51Z</time>
      </trkpt>
      <trkpt lat="42.7071370" lon="1.4531500">
        <ele>1175.5</ele>
        <time>2021-08-10T15:36:58Z</time>
      </trkpt>
      <trkpt lat="42.7071280" lon="1.4531160">
        <ele>1174.7</ele>
        <time>2021-08-10T15:37:01Z</time>
      </trkpt>
      <trkpt lat="42.7071230" lon="1.4531040">
        <ele>1174.4</ele>
        <time>2021-08-10T15:37:02Z</time>
      </trkpt>
      <trkpt lat="42.7071200" lon="1.4530940">
        <ele>1174.1</ele>
        <time>2021-08-10T15:37:03Z</time>
      </trkpt>
      <trkpt lat="42.7071070" lon="1.4529730">
        <ele>1171.4</ele>
        <time>2021-08-10T15:37:21Z</time>
      </trkpt>
      <trkpt lat="42.7070580" lon="1.4527970">
        <ele>1167.3</ele>
        <time>2021-08-10T15:37:53Z</time>
      </trkpt>
      <trkpt lat="42.7069720" lon="1.4527010">
        <ele>1163.7</ele>
        <time>2021-08-10T15:38:11Z</time>
      </trkpt>
      <trkpt lat="42.7069480" lon="1.4525570">
        <ele>1160.0</ele>
        <time>2021-08-10T15:38:36Z</time>
      </trkpt>
      <trkpt lat="42.7069440" lon="1.4525500">
        <ele>1159.8</ele>
        <time>2021-08-10T15:38:37Z</time>
      </trkpt>
      <trkpt lat="42.7069430" lon="1.4525420">
        <ele>1159.6</ele>
        <time>2021-08-10T15:38:38Z</time>
      </trkpt>
      <trkpt lat="42.7069410" lon="1.4525260">
        <ele>1159.2</ele>
        <time>2021-08-10T15:38:40Z</time>
      </trkpt>
      <trkpt lat="42.7069380" lon="1.4525180">
        <ele>1158.9</ele>
        <time>2021-08-10T15:38:42Z</time>
      </trkpt>
      <trkpt lat="42.7068220" lon="1.4524400">
        <ele>1154.6</ele>
        <time>2021-08-10T15:39:10Z</time>
      </trkpt>
      <trkpt lat="42.7068210" lon="1.4524270">
        <ele>1154.3</ele>
        <time>2021-08-10T15:39:12Z</time>
      </trkpt>
      <trkpt lat="42.7067960" lon="1.4523900">
        <ele>1153.1</ele>
        <time>2021-08-10T15:39:18Z</time>
      </trkpt>
      <trkpt lat="42.7067810" lon="1.4523440">
        <ele>1152.0</ele>
        <time>2021-08-10T15:39:28Z</time>
      </trkpt>
      <trkpt lat="42.7067140" lon="1.4522350">
        <ele>1148.6</ele>
        <time>2021-08-10T15:39:47Z</time>
      </trkpt>
      <trkpt lat="42.7067060" lon="1.4522330">
        <ele>1148.4</ele>
        <time>2021-08-10T15:39:48Z</time>
      </trkpt>
      <trkpt lat="42.7067030" lon="1.4522270">
        <ele>1148.2</ele>
        <time>2021-08-10T15:39:49Z</time>
      </trkpt>
      <trkpt lat="42.7066800" lon="1.4521030">
        <ele>1145.3</ele>
        <time>2021-08-10T15:40:08Z</time>
      </trkpt>
      <trkpt lat="42.7066460" lon="1.4520730">
        <ele>1144.0</ele>
        <time>2021-08-10T15:40:15Z</time>
      </trkpt>
      <trkpt lat="42.7066420" lon="1.4520610">
        <ele>1143.7</ele>
        <time>2021-08-10T15:40:17Z</time>
      </trkpt>
      <trkpt lat="42.7066400" lon="1.4520540">
        <ele>1143.5</ele>
        <time>2021-08-10T15:40:18Z</time>
      </trkpt>
      <trkpt lat="42.7066160" lon="1.4519690">
        <ele>1141.5</ele>
        <time>2021-08-10T15:40:39Z</time>
      </trkpt>
      <trkpt lat="42.7066400" lon="1.4517810">
        <ele>1137.4</ele>
        <time>2021-08-10T15:40:55Z</time>
      </trkpt>
      <trkpt lat="42.7066400" lon="1.4517710">
        <ele>1137.2</ele>
        <time>2021-08-10T15:40:58Z</time>
      </trkpt>
      <trkpt lat="42.7066390" lon="1.4517680">
        <ele>1137.1</ele>
        <time>2021-08-10T15:40:59Z</time>
      </trkpt>
      <trkpt lat="42.7066360" lon="1.4517670">
        <ele>1137.0</ele>
        <time>2021-08-10T15:41:00Z</time>
      </trkpt>
      <trkpt lat="42.7066140" lon="1.4517180">
        <ele>1135.8</ele>
        <time>2021-08-10T15:41:10Z</time>
      </trkpt>
      <trkpt lat="42.7066090" lon="1.4515350">
        <ele>1132.3</ele>
        <time>2021-08-10T15:41:34Z</time>
      </trkpt>
      <trkpt lat="42.7066060" lon="1.4515370">
        <ele>1132.2</ele>
        <time>2021-08-10T15:41:36Z</time>
      </trkpt>
      <trkpt lat="42.7065950" lon="1.4515230">
        <ele>1131.8</ele>
        <time>2021-08-10T15:41:40Z</time>
      </trkpt>
      <trkpt lat="42.7065090" lon="1.4514710">
        <ele>1129.4</ele>
        <time>2021-08-10T15:41:51Z</time>
      </trkpt>
      <trkpt lat="42.7065180" lon="1.4513360">
        <ele>1126.6</ele>
        <time>2021-08-10T15:42:04Z</time>
      </trkpt>
      <trkpt lat="42.7065130" lon="1.4511760">
        <ele>1123.3</ele>
        <time>2021-08-10T15:42:30Z</time>
      </trkpt>
      <trkpt lat="42.7065710" lon="1.4509540">
        <ele>1118.5</ele>
        <time>2021-08-10T15:42:50Z</time>
      </trkpt>
      <trkpt lat="42.7066230" lon="1.4508730">
        <ele>1116.4</ele>
        <time>2021-08-10T15:42:58Z</time>
      </trkpt>
      <trkpt lat="42.7066860" lon="1.4507700">
        <ele>1113.5</ele>
        <time>2021-08-10T15:43:13Z</time>
      </trkpt>
      <trkpt lat="42.7067290" lon="1.4505830">
        <ele>1108.8</ele>
        <time>2021-08-10T15:43:35Z</time>
      </trkpt>
      <trkpt lat="42.7067320" lon="1.4505240">
        <ele>1107.5</ele>
        <time>2021-08-10T15:43:42Z</time>
      </trkpt>
      <trkpt lat="42.7067340" lon="1.4505120">
        <ele>1107.2</ele>
        <time>2021-08-10T15:43:43Z</time>
      </trkpt>
      <trkpt lat="42.7067400" lon="1.4505040">
        <ele>1106.9</ele>
        <time>2021-08-10T15:43:44Z</time>
      </trkpt>
      <trkpt lat="42.7067530" lon="1.4504840">
        <ele>1106.3</ele>
        <time>2021-08-10T15:43:46Z</time>
      </trkpt>
      <trkpt lat="42.7067710" lon="1.4504470">
        <ele>1105.4</ele>
        <time>2021-08-10T15:43:49Z</time>
      </trkpt>
      <trkpt lat="42.7067710" lon="1.4504360">
        <ele>1105.2</ele>
        <time>2021-08-10T15:43:50Z</time>
      </trkpt>
      <trkpt lat="42.7067700" lon="1.4504250">
        <ele>1105.0</ele>
        <time>2021-08-10T15:43:51Z</time>
      </trkpt>
      <trkpt lat="42.7067640" lon="1.4503990">
        <ele>1104.5</ele>
        <time>2021-08-10T15:43:56Z</time>
      </trkpt>
      <trkpt lat="42.7067660" lon="1.4503870">
        <ele>1104.3</ele>
        <time>2021-08-10T15:43:58Z</time>
      </trkpt>
      <trkpt lat="42.7068760" lon="1.4502800">
        <ele>1102.9</ele>
        <time>2021-08-10T15:44:12Z</time>
      </trkpt>
      <trkpt lat="42.7069150" lon="1.4502630">
        <ele>1103.0</ele>
        <time>2021-08-10T15:44:16Z</time>
      </trkpt>
      <trkpt lat="42.7070010" lon="1.4502440">
        <ele>1103.3</ele>
        <time>2021-08-10T15:44:24Z</time>
      </trkpt>
      <trkpt lat="42.7070710" lon="1.4502490">
        <ele>1103.4</ele>
        <time>2021-08-10T15:44:30Z</time>
      </trkpt>
      <trkpt lat="42.7071140" lon="1.4502580">
        <ele>1103.6</ele>
        <time>2021-08-10T15:44:34Z</time>
      </trkpt>
      <trkpt lat="42.7071630" lon="1.4502810">
        <ele>1103.7</ele>
        <time>2021-08-10T15:44:39Z</time>
      </trkpt>
      <trkpt lat="42.7072090" lon="1.4503290">
        <ele>1103.9</ele>
        <time>2021-08-10T15:44:44Z</time>
      </trkpt>
      <trkpt lat="42.7073790" lon="1.4502690">
        <ele>1104.8</ele>
        <time>2021-08-10T15:45:04Z</time>
      </trkpt>
      <trkpt lat="42.7073980" lon="1.4502190">
        <ele>1106.0</ele>
        <time>2021-08-10T15:45:08Z</time>
      </trkpt>
      <trkpt lat="42.7074500" lon="1.4501550">
        <ele>1107.6</ele>
        <time>2021-08-10T15:45:15Z</time>
      </trkpt>
      <trkpt lat="42.7074940" lon="1.4501590">
        <ele>1107.5</ele>
        <time>2021-08-10T15:45:20Z</time>
      </trkpt>
      <trkpt lat="42.7075560" lon="1.4501670">
        <ele>1107.4</ele>
        <time>2021-08-10T15:45:26Z</time>
      </trkpt>
      <trkpt lat="42.7075670" lon="1.4501670">
        <ele>1107.4</ele>
        <time>2021-08-10T15:45:27Z</time>
      </trkpt>
      <trkpt lat="42.7075770" lon="1.4501660">
        <ele>1107.3</ele>
        <time>2021-08-10T15:45:28Z</time>
      </trkpt>
      <trkpt lat="42.7075870" lon="1.4501670">
        <ele>1107.3</ele>
        <time>2021-08-10T15:45:29Z</time>
      </trkpt>
      <trkpt lat="42.7076630" lon="1.4501520">
        <ele>1107.2</ele>
        <time>2021-08-10T15:45:44Z</time>
      </trkpt>
      <trkpt lat="42.7076820" lon="1.4501490">
        <ele>1107.2</ele>
        <time>2021-08-10T15:45:51Z</time>
      </trkpt>
      <trkpt lat="42.7076830" lon="1.4501690">
        <ele>1107.2</ele>
        <time>2021-08-10T15:45:58Z</time>
      </trkpt>
      <trkpt lat="42.7076450" lon="1.4501720">
        <ele>1107.1</ele>
        <time>2021-08-10T15:46:08Z</time>
      </trkpt>
      <trkpt lat="42.7076420" lon="1.4501780">
        <ele>1107.1</ele>
        <time>2021-08-10T15:46:16Z</time>
      </trkpt>
      <trkpt lat="42.7076380" lon="1.4501800">
        <ele>1107.1</ele>
        <time>2021-08-10T15:46:18Z</time>
      </trkpt>
      <trkpt lat="42.7076350" lon="1.4501850">
        <ele>1107.1</ele>
        <time>2021-08-10T15:46:19Z</time>
      </trkpt>
      <trkpt lat="42.7076380" lon="1.4501660">
        <ele>1107.1</ele>
        <time>2021-08-10T15:46:22Z</time>
      </trkpt>
      <trkpt lat="42.7076960" lon="1.4501760">
        <ele>1107.0</ele>
        <time>2021-08-10T15:46:39Z</time>
      </trkpt>
      <trkpt lat="42.7077010" lon="1.4501780">
        <ele>1107.0</ele>
        <time>2021-08-10T15:46:42Z</time>
      </trkpt>
      <trkpt lat="42.7077080" lon="1.4501890">
        <ele>1106.9</ele>
        <time>2021-08-10T15:46:46Z</time>
      </trkpt>
      <trkpt lat="42.7077160" lon="1.4501930">
        <ele>1106.9</ele>
        <time>2021-08-10T15:46:47Z</time>
      </trkpt>
      <trkpt lat="42.7077220" lon="1.4501920">
        <ele>1106.9</ele>
        <time>2021-08-10T15:46:48Z</time>
      </trkpt>
      <trkpt lat="42.7077270" lon="1.4501930">
        <ele>1106.9</ele>
        <time>2021-08-10T15:46:49Z</time>
      </trkpt>
      <trkpt lat="42.7077430" lon="1.4501950">
        <ele>1106.9</ele>
        <time>2021-08-10T15:46:55Z</time>
      </trkpt>
      <trkpt lat="42.7077490" lon="1.4501830">
        <ele>1106.9</ele>
        <time>2021-08-10T15:47:11Z</time>
      </trkpt>
      <trkpt lat="42.7077440" lon="1.4501830">
        <ele>1106.9</ele>
        <time>2021-08-10T15:47:13Z</time>
      </trkpt>
      <trkpt lat="42.7077210" lon="1.4501690">
        <ele>1106.8</ele>
        <time>2021-08-10T15:47:19Z</time>
      </trkpt>
      <trkpt lat="42.7078540" lon="1.4502550">
        <ele>1106.6</ele>
        <time>2021-08-10T15:47:48Z</time>
      </trkpt>
      <trkpt lat="42.7078490" lon="1.4502340">
        <ele>1106.6</ele>
        <time>2021-08-10T15:47:58Z</time>
      </trkpt>
      <trkpt lat="42.7077560" lon="1.4502260">
        <ele>1106.5</ele>
        <time>2021-08-10T15:48:12Z</time>
      </trkpt>
      <trkpt lat="42.7077380" lon="1.4502240">
        <ele>1106.4</ele>
        <time>2021-08-10T15:48:14Z</time>
      </trkpt>
      <trkpt lat="42.7077330" lon="1.4502230">
        <ele>1106.4</ele>
        <time>2021-08-10T15:48:17Z</time>
      </trkpt>
      <trkpt lat="42.7077370" lon="1.4502200">
        <ele>1106.4</ele>
        <time>2021-08-10T15:48:19Z</time>
      </trkpt>
      <trkpt lat="42.7077360" lon="1.4502200">
        <ele>1106.4</ele>
        <time>2021-08-10T15:48:24Z</time>
      </trkpt>
      <trkpt lat="42.7077360" lon="1.4502200">
        <ele>1106.4</ele>
        <time>2021-08-10T15:48:25Z</time>
      </trkpt>
      <trkpt lat="42.7077360" lon="1.4502330">
        <ele>1106.4</ele>
        <time>2021-08-10T15:48:29Z</time>
      </trkpt>
      <trkpt lat="42.7077330" lon="1.4502570">
        <ele>1106.4</ele>
        <time>2021-08-10T15:48:38Z</time>
      </trkpt>
      <trkpt lat="42.7077320" lon="1.4502620">
        <ele>1106.4</ele>
        <time>2021-08-10T15:48:41Z</time>
      </trkpt>
      <trkpt lat="42.7077350" lon="1.4502680">
        <ele>1106.4</ele>
        <time>2021-08-10T15:48:45Z</time>
      </trkpt>
      <trkpt lat="42.7077390" lon="1.4502650">
        <ele>1106.4</ele>
        <time>2021-08-10T15:48:47Z</time>
      </trkpt>
      <trkpt lat="42.7077400" lon="1.4502650">
        <ele>1106.4</ele>
        <time>2021-08-10T15:48:49Z</time>
      </trkpt>
      <trkpt lat="42.7077560" lon="1.4502540">
        <ele>1106.3</ele>
        <time>2021-08-10T15:48:53Z</time>
      </trkpt>
      <trkpt lat="42.7077640" lon="1.4502650">
        <ele>1106.3</ele>
        <time>2021-08-10T15:49:03Z</time>
      </trkpt>
      <trkpt lat="42.7077330" lon="1.4502520">
        <ele>1106.3</ele>
        <time>2021-08-10T15:49:13Z</time>
      </trkpt>
      <trkpt lat="42.7077340" lon="1.4502430">
        <ele>1106.3</ele>
        <time>2021-08-10T15:49:18Z</time>
      </trkpt>
      <trkpt lat="42.7077270" lon="1.4501930">
        <ele>1106.2</ele>
        <time>2021-08-10T15:49:57Z</time>
      </trkpt>
      <trkpt lat="42.7075710" lon="1.4501180">
        <ele>1106.0</ele>
        <time>2021-08-10T15:50:22Z</time>
      </trkpt>
      <trkpt lat="42.7074730" lon="1.4501040">
        <ele>1105.8</ele>
        <time>2021-08-10T15:50:53Z</time>
      </trkpt>
      <trkpt lat="42.7074830" lon="1.4501050">
        <ele>1105.8</ele>
        <time>2021-08-10T15:50:55Z</time>
      </trkpt>
      <trkpt lat="42.7074830" lon="1.4501040">
        <ele>1105.8</ele>
        <time>2021-08-10T15:50:57Z</time>
      </trkpt>
      <trkpt lat="42.7074750" lon="1.4500820">
        <ele>1105.8</ele>
        <time>2021-08-10T15:51:03Z</time>
      </trkpt>
      <trkpt lat="42.7074790" lon="1.4500730">
        <ele>1105.8</ele>
        <time>2021-08-10T15:51:09Z</time>
      </trkpt>
      <trkpt lat="42.7075170" lon="1.4501300">
        <ele>1105.7</ele>
        <time>2021-08-10T15:51:28Z</time>
      </trkpt>
      <trkpt lat="42.7075920" lon="1.4501500">
        <ele>1105.6</ele>
        <time>2021-08-10T15:51:36Z</time>
      </trkpt>
      <trkpt lat="42.7075920" lon="1.4501500">
        <ele>1105.6</ele>
        <time>2021-08-10T15:51:37Z</time>
      </trkpt>
      <trkpt lat="42.7076240" lon="1.4501540">
        <ele>1105.6</ele>
        <time>2021-08-10T15:51:39Z</time>
      </trkpt>
      <trkpt lat="42.7076450" lon="1.4501580">
        <ele>1105.5</ele>
        <time>2021-08-10T15:51:42Z</time>
      </trkpt>
      <trkpt lat="42.7076470" lon="1.4501780">
        <ele>1105.5</ele>
        <time>2021-08-10T15:51:46Z</time>
      </trkpt>
      <trkpt lat="42.7076500" lon="1.4501940">
        <ele>1105.5</ele>
        <time>2021-08-10T15:51:52Z</time>
      </trkpt>
      <trkpt lat="42.7077640" lon="1.4502380">
        <ele>1105.4</ele>
        <time>2021-08-10T15:52:28Z</time>
      </trkpt>
      <trkpt lat="42.7078350" lon="1.4501520">
        <ele>1105.3</ele>
        <time>2021-08-10T15:52:42Z</time>
      </trkpt>
      <trkpt lat="42.7078270" lon="1.4499230">
        <ele>1105.1</ele>
        <time>2021-08-10T15:53:37Z</time>
      </trkpt>
      <trkpt lat="42.7077920" lon="1.4500270">
        <ele>1105.1</ele>
        <time>2021-08-10T15:54:36Z</time>
      </trkpt>
      <trkpt lat="42.7078580" lon="1.4501040">
        <ele>1105.0</ele>
        <time>2021-08-10T15:54:50Z</time>
      </trkpt>
      <trkpt lat="42.7079390" lon="1.4501170">
        <ele>1105.0</ele>
        <time>2021-08-10T15:54:58Z</time>
      </trkpt>
      <trkpt lat="42.7080150" lon="1.4501530">
        <ele>1104.9</ele>
        <time>2021-08-10T15:55:07Z</time>
      </trkpt>
      <trkpt lat="42.7080350" lon="1.4501470">
        <ele>1104.9</ele>
        <time>2021-08-10T15:55:10Z</time>
      </trkpt>
      <trkpt lat="42.7080380" lon="1.4501370">
        <ele>1104.9</ele>
        <time>2021-08-10T15:55:11Z</time>
      </trkpt>
      <trkpt lat="42.7080970" lon="1.4501170">
        <ele>1104.7</ele>
        <time>2021-08-10T15:55:18Z</time>
      </trkpt>
      <trkpt lat="42.7081350" lon="1.4501190">
        <ele>1104.5</ele>
        <time>2021-08-10T15:55:21Z</time>
      </trkpt>
      <trkpt lat="42.7081550" lon="1.4501260">
        <ele>1104.4</ele>
        <time>2021-08-10T15:55:23Z</time>
      </trkpt>
      <trkpt lat="42.7081650" lon="1.4501310">
        <ele>1104.4</ele>
        <time>2021-08-10T15:55:24Z</time>
      </trkpt>
      <trkpt lat="42.7082020" lon="1.4501420">
        <ele>1104.2</ele>
        <time>2021-08-10T15:55:28Z</time>
      </trkpt>
      <trkpt lat="42.7082220" lon="1.4501120">
        <ele>1104.1</ele>
        <time>2021-08-10T15:55:32Z</time>
      </trkpt>
      <trkpt lat="42.7082610" lon="1.4501420">
        <ele>1103.9</ele>
        <time>2021-08-10T15:55:36Z</time>
      </trkpt>
      <trkpt lat="42.7083290" lon="1.4501770">
        <ele>1103.5</ele>
        <time>2021-08-10T15:55:44Z</time>
      </trkpt>
      <trkpt lat="42.7083660" lon="1.4501520">
        <ele>1103.3</ele>
        <time>2021-08-10T15:55:48Z</time>
      </trkpt>
      <trkpt lat="42.7083840" lon="1.4501220">
        <ele>1103.1</ele>
        <time>2021-08-10T15:55:51Z</time>
      </trkpt>
      <trkpt lat="42.7085460" lon="1.4501610">
        <ele>1102.3</ele>
        <time>2021-08-10T15:56:07Z</time>
      </trkpt>
      <trkpt lat="42.7085900" lon="1.4501610">
        <ele>1102.0</ele>
        <time>2021-08-10T15:56:13Z</time>
      </trkpt>
      <trkpt lat="42.7087660" lon="1.4501320">
        <ele>1100.7</ele>
        <time>2021-08-10T15:56:34Z</time>
      </trkpt>
      <trkpt lat="42.7088630" lon="1.4501660">
        <ele>1099.7</ele>
        <time>2021-08-10T15:56:41Z</time>
      </trkpt>
      <trkpt lat="42.7088870" lon="1.4501670">
        <ele>1099.4</ele>
        <time>2021-08-10T15:56:43Z</time>
      </trkpt>
      <trkpt lat="42.7088960" lon="1.4501660">
        <ele>1099.3</ele>
        <time>2021-08-10T15:56:44Z</time>
      </trkpt>
      <trkpt lat="42.7089070" lon="1.4501640">
        <ele>1099.2</ele>
        <time>2021-08-10T15:56:45Z</time>
      </trkpt>
      <trkpt lat="42.7089830" lon="1.4501670">
        <ele>1098.3</ele>
        <time>2021-08-10T15:56:52Z</time>
      </trkpt>
      <trkpt lat="42.7089950" lon="1.4501700">
        <ele>1098.1</ele>
        <time>2021-08-10T15:56:53Z</time>
      </trkpt>
      <trkpt lat="42.7090190" lon="1.4501840">
        <ele>1097.8</ele>
        <time>2021-08-10T15:56:57Z</time>
      </trkpt>
      <trkpt lat="42.7090890" lon="1.4501830">
        <ele>1097.0</ele>
        <time>2021-08-10T15:57:11Z</time>
      </trkpt>
      <trkpt lat="42.7091220" lon="1.4502030">
        <ele>1096.6</ele>
        <time>2021-08-10T15:57:16Z</time>
      </trkpt>
      <trkpt lat="42.7091620" lon="1.4502660">
        <ele>1095.9</ele>
        <time>2021-08-10T15:57:21Z</time>
      </trkpt>
      <trkpt lat="42.7092740" lon="1.4504020">
        <ele>1094.3</ele>
        <time>2021-08-10T15:57:36Z</time>
      </trkpt>
      <trkpt lat="42.7093390" lon="1.4504490">
        <ele>1093.6</ele>
        <time>2021-08-10T15:57:44Z</time>
      </trkpt>
      <trkpt lat="42.7095160" lon="1.4505200">
        <ele>1091.9</ele>
        <time>2021-08-10T15:57:59Z</time>
      </trkpt>
      <trkpt lat="42.7096610" lon="1.4505780">
        <ele>1090.5</ele>
        <time>2021-08-10T15:58:13Z</time>
      </trkpt>
      <trkpt lat="42.7098320" lon="1.4506760">
        <ele>1088.5</ele>
        <time>2021-08-10T15:58:31Z</time>
      </trkpt>
      <trkpt lat="42.7100090" lon="1.4507400">
        <ele>1086.2</ele>
        <time>2021-08-10T15:58:52Z</time>
      </trkpt>
      <trkpt lat="42.7101740" lon="1.4508300">
        <ele>1084.0</ele>
        <time>2021-08-10T15:59:07Z</time>
      </trkpt>
      <trkpt lat="42.7103130" lon="1.4508530">
        <ele>1082.5</ele>
        <time>2021-08-10T15:59:20Z</time>
      </trkpt>
      <trkpt lat="42.7104380" lon="1.4508840">
        <ele>1081.2</ele>
        <time>2021-08-10T15:59:30Z</time>
      </trkpt>
      <trkpt lat="42.7104530" lon="1.4508890">
        <ele>1081.1</ele>
        <time>2021-08-10T15:59:31Z</time>
      </trkpt>
      <trkpt lat="42.7104660" lon="1.4508950">
        <ele>1080.9</ele>
        <time>2021-08-10T15:59:32Z</time>
      </trkpt>
      <trkpt lat="42.7104770" lon="1.4508970">
        <ele>1080.8</ele>
        <time>2021-08-10T15:59:33Z</time>
      </trkpt>
      <trkpt lat="42.7104880" lon="1.4509030">
        <ele>1080.7</ele>
        <time>2021-08-10T15:59:34Z</time>
      </trkpt>
      <trkpt lat="42.7106630" lon="1.4509770">
        <ele>1079.1</ele>
        <time>2021-08-10T15:59:51Z</time>
      </trkpt>
      <trkpt lat="42.7108010" lon="1.4510640">
        <ele>1078.1</ele>
        <time>2021-08-10T16:00:03Z</time>
      </trkpt>
      <trkpt lat="42.7109680" lon="1.4511690">
        <ele>1076.9</ele>
        <time>2021-08-10T16:00:20Z</time>
      </trkpt>
      <trkpt lat="42.7111500" lon="1.4512110">
        <ele>1075.9</ele>
        <time>2021-08-10T16:00:35Z</time>
      </trkpt>
      <trkpt lat="42.7113210" lon="1.4512020">
        <ele>1075.0</ele>
        <time>2021-08-10T16:00:52Z</time>
      </trkpt>
      <trkpt lat="42.7113470" lon="1.4511820">
        <ele>1074.8</ele>
        <time>2021-08-10T16:00:55Z</time>
      </trkpt>
      <trkpt lat="42.7114550" lon="1.4511100">
        <ele>1074.1</ele>
        <time>2021-08-10T16:01:05Z</time>
      </trkpt>
      <trkpt lat="42.7114910" lon="1.4510980">
        <ele>1073.9</ele>
        <time>2021-08-10T16:01:08Z</time>
      </trkpt>
      <trkpt lat="42.7115760" lon="1.4510650">
        <ele>1073.2</ele>
        <time>2021-08-10T16:01:16Z</time>
      </trkpt>
      <trkpt lat="42.7116630" lon="1.4509620">
        <ele>1072.4</ele>
        <time>2021-08-10T16:01:28Z</time>
      </trkpt>
      <trkpt lat="42.7116750" lon="1.4509330">
        <ele>1072.2</ele>
        <time>2021-08-10T16:01:30Z</time>
      </trkpt>
      <trkpt lat="42.7118200" lon="1.4507720">
        <ele>1070.5</ele>
        <time>2021-08-10T16:01:48Z</time>
      </trkpt>
      <trkpt lat="42.7119640" lon="1.4506210">
        <ele>1068.6</ele>
        <time>2021-08-10T16:02:03Z</time>
      </trkpt>
      <trkpt lat="42.7119750" lon="1.4505810">
        <ele>1068.2</ele>
        <time>2021-08-10T16:02:06Z</time>
      </trkpt>
      <trkpt lat="42.7120010" lon="1.4505670">
        <ele>1067.9</ele>
        <time>2021-08-10T16:02:09Z</time>
      </trkpt>
      <trkpt lat="42.7121600" lon="1.4504500">
        <ele>1066.0</ele>
        <time>2021-08-10T16:02:27Z</time>
      </trkpt>
      <trkpt lat="42.7123410" lon="1.4503760">
        <ele>1063.9</ele>
        <time>2021-08-10T16:02:44Z</time>
      </trkpt>
      <trkpt lat="42.7124530" lon="1.4502970">
        <ele>1062.6</ele>
        <time>2021-08-10T16:02:56Z</time>
      </trkpt>
      <trkpt lat="42.7125290" lon="1.4502640">
        <ele>1061.9</ele>
        <time>2021-08-10T16:03:05Z</time>
      </trkpt>
      <trkpt lat="42.7126080" lon="1.4501840">
        <ele>1061.1</ele>
        <time>2021-08-10T16:03:14Z</time>
      </trkpt>
      <trkpt lat="42.7126620" lon="1.4501730">
        <ele>1060.7</ele>
        <time>2021-08-10T16:03:18Z</time>
      </trkpt>
      <trkpt lat="42.7127310" lon="1.4501270">
        <ele>1060.2</ele>
        <time>2021-08-10T16:03:25Z</time>
      </trkpt>
      <trkpt lat="42.7127580" lon="1.4500620">
        <ele>1059.9</ele>
        <time>2021-08-10T16:03:30Z</time>
      </trkpt>
      <trkpt lat="42.7129140" lon="1.4499370">
        <ele>1059.0</ele>
        <time>2021-08-10T16:03:47Z</time>
      </trkpt>
      <trkpt lat="42.7129750" lon="1.4499120">
        <ele>1058.8</ele>
        <time>2021-08-10T16:03:53Z</time>
      </trkpt>
      <trkpt lat="42.7131620" lon="1.4498960">
        <ele>1058.5</ele>
        <time>2021-08-10T16:04:08Z</time>
      </trkpt>
      <trkpt lat="42.7132180" lon="1.4498410">
        <ele>1058.5</ele>
        <time>2021-08-10T16:04:15Z</time>
      </trkpt>
      <trkpt lat="42.7133760" lon="1.4497200">
        <ele>1058.3</ele>
        <time>2021-08-10T16:04:32Z</time>
      </trkpt>
      <trkpt lat="42.7135180" lon="1.4495540">
        <ele>1057.8</ele>
        <time>2021-08-10T16:04:49Z</time>
      </trkpt>
      <trkpt lat="42.7136600" lon="1.4494970">
        <ele>1056.8</ele>
        <time>2021-08-10T16:05:03Z</time>
      </trkpt>
      <trkpt lat="42.7137120" lon="1.4494870">
        <ele>1056.2</ele>
        <time>2021-08-10T16:05:09Z</time>
      </trkpt>
      <trkpt lat="42.7138830" lon="1.4494150">
        <ele>1054.0</ele>
        <time>2021-08-10T16:05:28Z</time>
      </trkpt>
      <trkpt lat="42.7139180" lon="1.4493920">
        <ele>1053.5</ele>
        <time>2021-08-10T16:05:32Z</time>
      </trkpt>
      <trkpt lat="42.7139830" lon="1.4493400">
        <ele>1052.5</ele>
        <time>2021-08-10T16:05:39Z</time>
      </trkpt>
      <trkpt lat="42.7139910" lon="1.4493320">
        <ele>1052.4</ele>
        <time>2021-08-10T16:05:40Z</time>
      </trkpt>
      <trkpt lat="42.7139980" lon="1.4493230">
        <ele>1052.3</ele>
        <time>2021-08-10T16:05:41Z</time>
      </trkpt>
      <trkpt lat="42.7140590" lon="1.4492570">
        <ele>1051.3</ele>
        <time>2021-08-10T16:05:49Z</time>
      </trkpt>
      <trkpt lat="42.7141490" lon="1.4491730">
        <ele>1049.9</ele>
        <time>2021-08-10T16:06:00Z</time>
      </trkpt>
      <trkpt lat="42.7143140" lon="1.4490690">
        <ele>1047.7</ele>
        <time>2021-08-10T16:06:17Z</time>
      </trkpt>
      <trkpt lat="42.7144140" lon="1.4490130">
        <ele>1046.7</ele>
        <time>2021-08-10T16:06:27Z</time>
      </trkpt>
      <trkpt lat="42.7144360" lon="1.4489730">
        <ele>1046.4</ele>
        <time>2021-08-10T16:06:30Z</time>
      </trkpt>
      <trkpt lat="42.7145280" lon="1.4488430">
        <ele>1045.4</ele>
        <time>2021-08-10T16:06:42Z</time>
      </trkpt>
      <trkpt lat="42.7146810" lon="1.4487250">
        <ele>1043.9</ele>
        <time>2021-08-10T16:06:59Z</time>
      </trkpt>
      <trkpt lat="42.7148630" lon="1.4486900">
        <ele>1042.3</ele>
        <time>2021-08-10T16:07:15Z</time>
      </trkpt>
      <trkpt lat="42.7150420" lon="1.4487410">
        <ele>1040.8</ele>
        <time>2021-08-10T16:07:32Z</time>
      </trkpt>
      <trkpt lat="42.7151120" lon="1.4487990">
        <ele>1040.0</ele>
        <time>2021-08-10T16:07:41Z</time>
      </trkpt>
      <trkpt lat="42.7151870" lon="1.4488200">
        <ele>1039.4</ele>
        <time>2021-08-10T16:07:49Z</time>
      </trkpt>
      <trkpt lat="42.7153650" lon="1.4487980">
        <ele>1037.8</ele>
        <time>2021-08-10T16:08:06Z</time>
      </trkpt>
      <trkpt lat="42.7155510" lon="1.4487610">
        <ele>1036.1</ele>
        <time>2021-08-10T16:08:21Z</time>
      </trkpt>
      <trkpt lat="42.7156710" lon="1.4486990">
        <ele>1034.9</ele>
        <time>2021-08-10T16:08:33Z</time>
      </trkpt>
      <trkpt lat="42.7158440" lon="1.4486370">
        <ele>1033.1</ele>
        <time>2021-08-10T16:08:50Z</time>
      </trkpt>
      <trkpt lat="42.7159000" lon="1.4486190">
        <ele>1032.5</ele>
        <time>2021-08-10T16:08:55Z</time>
      </trkpt>
      <trkpt lat="42.7160740" lon="1.4485670">
        <ele>1030.7</ele>
        <time>2021-08-10T16:09:13Z</time>
      </trkpt>
      <trkpt lat="42.7162490" lon="1.4485020">
        <ele>1029.1</ele>
        <time>2021-08-10T16:09:31Z</time>
      </trkpt>
      <trkpt lat="42.7163740" lon="1.4483430">
        <ele>1027.8</ele>
        <time>2021-08-10T16:09:47Z</time>
      </trkpt>
      <trkpt lat="42.7164450" lon="1.4481100">
        <ele>1026.8</ele>
        <time>2021-08-10T16:10:10Z</time>
      </trkpt>
      <trkpt lat="42.7165720" lon="1.4480050">
        <ele>1026.0</ele>
        <time>2021-08-10T16:10:27Z</time>
      </trkpt>
      <trkpt lat="42.7165810" lon="1.4480320">
        <ele>1025.9</ele>
        <time>2021-08-10T16:10:29Z</time>
      </trkpt>
      <trkpt lat="42.7166190" lon="1.4482890">
        <ele>1025.2</ele>
        <time>2021-08-10T16:10:44Z</time>
      </trkpt>
      <trkpt lat="42.7165890" lon="1.4485290">
        <ele>1023.6</ele>
        <time>2021-08-10T16:11:02Z</time>
      </trkpt>
      <trkpt lat="42.7164960" lon="1.4487100">
        <ele>1022.1</ele>
        <time>2021-08-10T16:12:00Z</time>
      </trkpt>
      <trkpt lat="42.7164670" lon="1.4487190">
        <ele>1022.3</ele>
        <time>2021-08-10T16:12:09Z</time>
      </trkpt>
      <trkpt lat="42.7164620" lon="1.4487390">
        <ele>1022.4</ele>
        <time>2021-08-10T16:12:12Z</time>
      </trkpt>
      <trkpt lat="42.7164590" lon="1.4487460">
        <ele>1022.4</ele>
        <time>2021-08-10T16:12:13Z</time>
      </trkpt>
      <trkpt lat="42.7164520" lon="1.4487710">
        <ele>1022.6</ele>
        <time>2021-08-10T16:12:20Z</time>
      </trkpt>
      <trkpt lat="42.7164450" lon="1.4487060">
        <ele>1022.9</ele>
        <time>2021-08-10T16:12:28Z</time>
      </trkpt>
      <trkpt lat="42.7164840" lon="1.4486530">
        <ele>1023.3</ele>
        <time>2021-08-10T16:12:32Z</time>
      </trkpt>
      <trkpt lat="42.7164960" lon="1.4486230">
        <ele>1023.4</ele>
        <time>2021-08-10T16:12:35Z</time>
      </trkpt>
      <trkpt lat="42.7165230" lon="1.4486060">
        <ele>1023.6</ele>
        <time>2021-08-10T16:12:39Z</time>
      </trkpt>
      <trkpt lat="42.7165370" lon="1.4485370">
        <ele>1024.0</ele>
        <time>2021-08-10T16:12:44Z</time>
      </trkpt>
      <trkpt lat="42.7165440" lon="1.4484690">
        <ele>1024.3</ele>
        <time>2021-08-10T16:12:49Z</time>
      </trkpt>
      <trkpt lat="42.7165450" lon="1.4484280">
        <ele>1024.5</ele>
        <time>2021-08-10T16:12:51Z</time>
      </trkpt>
      <trkpt lat="42.7165840" lon="1.4483340">
        <ele>1025.0</ele>
        <time>2021-08-10T16:13:02Z</time>
      </trkpt>
      <trkpt lat="42.7166330" lon="1.4482350">
        <ele>1025.5</ele>
        <time>2021-08-10T16:13:14Z</time>
      </trkpt>
      <trkpt lat="42.7166580" lon="1.4481330">
        <ele>1025.9</ele>
        <time>2021-08-10T16:13:28Z</time>
      </trkpt>
      <trkpt lat="42.7166780" lon="1.4481500">
        <ele>1041.4</ele>
        <time>2021-08-10T16:13:35Z</time>
      </trkpt>
      <trkpt lat="42.7167570" lon="1.4482570">
        <ele>1041.4</ele>
        <time>2021-08-10T16:14:22Z</time>
      </trkpt>
      <trkpt lat="42.7167700" lon="1.4482560">
        <ele>1041.4</ele>
        <time>2021-08-10T16:14:28Z</time>
      </trkpt>
      <trkpt lat="42.7167760" lon="1.4482590">
        <ele>1041.4</ele>
        <time>2021-08-10T16:14:37Z</time>
      </trkpt>
      <trkpt lat="42.7167650" lon="1.4482800">
        <ele>1041.4</ele>
        <time>2021-08-10T16:14:43Z</time>
      </trkpt>
      <trkpt lat="42.7167650" lon="1.4482810">
        <ele>1041.4</ele>
        <time>2021-08-10T16:14:44Z</time>
      </trkpt>
      <trkpt lat="42.7167660" lon="1.4482850">
        <ele>1041.4</ele>
        <time>2021-08-10T16:14:45Z</time>
      </trkpt>
      <trkpt lat="42.7167750" lon="1.4482850">
        <ele>1041.4</ele>
        <time>2021-08-10T16:14:48Z</time>
      </trkpt>
      <trkpt lat="42.7167740" lon="1.4482900">
        <ele>1041.4</ele>
        <time>2021-08-10T16:14:58Z</time>
      </trkpt>
      <trkpt lat="42.7167720" lon="1.4482930">
        <ele>1041.4</ele>
        <time>2021-08-10T16:15:02Z</time>
      </trkpt>
      <trkpt lat="42.7167730" lon="1.4482890">
        <ele>1041.4</ele>
        <time>2021-08-10T16:15:03Z</time>
      </trkpt>
      <trkpt lat="42.7167720" lon="1.4482850">
        <ele>1041.4</ele>
        <time>2021-08-10T16:15:05Z</time>
      </trkpt>
      <trkpt lat="42.7167690" lon="1.4482870">
        <ele>1041.4</ele>
        <time>2021-08-10T16:15:07Z</time>
      </trkpt>
      <trkpt lat="42.7167440" lon="1.4483050">
        <ele>1041.4</ele>
        <time>2021-08-10T16:15:21Z</time>
      </trkpt>
      <trkpt lat="42.7167700" lon="1.4483540">
        <ele>1041.4</ele>
        <time>2021-08-10T16:15:30Z</time>
      </trkpt>
      <trkpt lat="42.7167770" lon="1.4482900">
        <ele>1041.4</ele>
        <time>2021-08-10T16:15:50Z</time>
      </trkpt>
      <trkpt lat="42.7164730" lon="1.4485030">
        <ele>1023.4</ele>
        <time>2021-08-10T16:17:38Z</time>
      </trkpt>
      <trkpt lat="42.7164570" lon="1.4485450">
        <ele>1023.1</ele>
        <time>2021-08-10T16:17:42Z</time>
      </trkpt>
      <trkpt lat="42.7164490" lon="1.4485710">
        <ele>1022.9</ele>
        <time>2021-08-10T16:17:44Z</time>
      </trkpt>
      <trkpt lat="42.7164150" lon="1.4488250">
        <ele>1021.2</ele>
        <time>2021-08-10T16:18:05Z</time>
      </trkpt>
      <trkpt lat="42.7163330" lon="1.4490200">
        <ele>1019.8</ele>
        <time>2021-08-10T16:18:20Z</time>
      </trkpt>
      <trkpt lat="42.7161490" lon="1.4490840">
        <ele>1019.5</ele>
        <time>2021-08-10T16:18:43Z</time>
      </trkpt>
      <trkpt lat="42.7160840" lon="1.4490890">
        <ele>1019.6</ele>
        <time>2021-08-10T16:18:51Z</time>
      </trkpt>
      <trkpt lat="42.7159990" lon="1.4490930">
        <ele>1019.8</ele>
        <time>2021-08-10T16:19:03Z</time>
      </trkpt>
      <trkpt lat="42.7158100" lon="1.4491100">
        <ele>1021.2</ele>
        <time>2021-08-10T16:19:29Z</time>
      </trkpt>
      <trkpt lat="42.7157200" lon="1.4491060">
        <ele>1022.2</ele>
        <time>2021-08-10T16:19:45Z</time>
      </trkpt>
      <trkpt lat="42.7156670" lon="1.4490850">
        <ele>1023.1</ele>
        <time>2021-08-10T16:20:00Z</time>
      </trkpt>
      <trkpt lat="42.7154980" lon="1.4491740">
        <ele>1025.0</ele>
        <time>2021-08-10T16:20:21Z</time>
      </trkpt>
      <trkpt lat="42.7154510" lon="1.4491990">
        <ele>1026.0</ele>
        <time>2021-08-10T16:20:56Z</time>
      </trkpt>
      <trkpt lat="42.7154450" lon="1.4491750">
        <ele>1026.0</ele>
        <time>2021-08-10T16:21:01Z</time>
      </trkpt>
      <trkpt lat="42.7154300" lon="1.4492670">
        <ele>1025.6</ele>
        <time>2021-08-10T16:21:24Z</time>
      </trkpt>
      <trkpt lat="42.7154130" lon="1.4492520">
        <ele>1026.1</ele>
        <time>2021-08-10T16:22:06Z</time>
      </trkpt>
      <trkpt lat="42.7154740" lon="1.4492920">
        <ele>1025.2</ele>
        <time>2021-08-10T16:22:40Z</time>
      </trkpt>
      <trkpt lat="42.7154710" lon="1.4493230">
        <ele>1025.1</ele>
        <time>2021-08-10T16:22:44Z</time>
      </trkpt>
      <trkpt lat="42.7154650" lon="1.4493360">
        <ele>1025.1</ele>
        <time>2021-08-10T16:22:45Z</time>
      </trkpt>
      <trkpt lat="42.7154630" lon="1.4493220">
        <ele>1025.1</ele>
        <time>2021-08-10T16:22:49Z</time>
      </trkpt>
      <trkpt lat="42.7154610" lon="1.4493210">
        <ele>1025.1</ele>
        <time>2021-08-10T16:22:52Z</time>
      </trkpt>
      <trkpt lat="42.7154650" lon="1.4493020">
        <ele>1025.1</ele>
        <time>2021-08-10T16:22:54Z</time>
      </trkpt>
      <trkpt lat="42.7160400" lon="1.4489860">
        <ele>1019.8</ele>
        <time>2021-08-10T17:15:29Z</time>
      </trkpt>
      <trkpt lat="42.7160380" lon="1.4490000">
        <ele>1019.8</ele>
        <time>2021-08-10T17:15:32Z</time>
      </trkpt>
      <trkpt lat="42.7160690" lon="1.4490020">
        <ele>1019.8</ele>
        <time>2021-08-10T17:15:34Z</time>
      </trkpt>
      <trkpt lat="42.7160780" lon="1.4490010">
        <ele>1019.8</ele>
        <time>2021-08-10T17:15:35Z</time>
      </trkpt>
      <trkpt lat="42.7160850" lon="1.4489970">
        <ele>1019.8</ele>
        <time>2021-08-10T17:15:36Z</time>
      </trkpt>
      <trkpt lat="42.7160940" lon="1.4489930">
        <ele>1019.8</ele>
        <time>2021-08-10T17:15:37Z</time>
      </trkpt>
      <trkpt lat="42.7161420" lon="1.4489870">
        <ele>1019.8</ele>
        <time>2021-08-10T17:15:42Z</time>
      </trkpt>
      <trkpt lat="42.7161750" lon="1.4489760">
        <ele>1020.0</ele>
        <time>2021-08-10T17:15:48Z</time>
      </trkpt>
      <trkpt lat="42.7162970" lon="1.4489050">
        <ele>1020.9</ele>
        <time>2021-08-10T17:16:06Z</time>
      </trkpt>
      <trkpt lat="42.7163090" lon="1.4488790">
        <ele>1021.1</ele>
        <time>2021-08-10T17:16:09Z</time>
      </trkpt>
      <trkpt lat="42.7163450" lon="1.4488290">
        <ele>1021.5</ele>
        <time>2021-08-10T17:16:15Z</time>
      </trkpt>
      <trkpt lat="42.7164580" lon="1.4487200">
        <ele>1022.5</ele>
        <time>2021-08-10T17:16:30Z</time>
      </trkpt>
      <trkpt lat="42.7165380" lon="1.4486830">
        <ele>1023.2</ele>
        <time>2021-08-10T17:16:36Z</time>
      </trkpt>
      <trkpt lat="42.7166500" lon="1.4484990">
        <ele>1024.4</ele>
        <time>2021-08-10T17:16:55Z</time>
      </trkpt>
      <trkpt lat="42.7167160" lon="1.4484190">
        <ele>1025.0</ele>
        <time>2021-08-10T17:17:04Z</time>
      </trkpt>
      <trkpt lat="42.7167440" lon="1.4483250">
        <ele>1025.5</ele>
        <time>2021-08-10T17:17:12Z</time>
      </trkpt>
      <trkpt lat="42.7166880" lon="1.4480850">
        <ele>1027.7</ele>
        <time>2021-08-10T17:17:33Z</time>
      </trkpt>
      <trkpt lat="42.7166090" lon="1.4479700">
        <ele>1030.7</ele>
        <time>2021-08-10T17:17:49Z</time>
      </trkpt>
      <trkpt lat="42.7165360" lon="1.4477850">
        <ele>1034.8</ele>
        <time>2021-08-10T17:18:33Z</time>
      </trkpt>
      <trkpt lat="42.7164850" lon="1.4475450">
        <ele>1040.0</ele>
        <time>2021-08-10T17:19:01Z</time>
      </trkpt>
      <trkpt lat="42.7164600" lon="1.4474520">
        <ele>1042.4</ele>
        <time>2021-08-10T17:19:18Z</time>
      </trkpt>
      <trkpt lat="42.7162940" lon="1.4473420">
        <ele>1048.9</ele>
        <time>2021-08-10T17:19:59Z</time>
      </trkpt>
      <trkpt lat="42.7163070" lon="1.4470930">
        <ele>1053.9</ele>
        <time>2021-08-10T17:20:50Z</time>
      </trkpt>
      <trkpt lat="42.7163390" lon="1.4468430">
        <ele>1058.2</ele>
        <time>2021-08-10T17:21:24Z</time>
      </trkpt>
      <trkpt lat="42.7163100" lon="1.4466880">
        <ele>1061.0</ele>
        <time>2021-08-10T17:21:44Z</time>
      </trkpt>
      <trkpt lat="42.7163160" lon="1.4465630">
        <ele>1063.5</ele>
        <time>2021-08-10T17:22:04Z</time>
      </trkpt>
      <trkpt lat="42.7162900" lon="1.4463700">
        <ele>1068.1</ele>
        <time>2021-08-10T17:22:33Z</time>
      </trkpt>
      <trkpt lat="42.7162440" lon="1.4461780">
        <ele>1072.5</ele>
        <time>2021-08-10T17:23:13Z</time>
      </trkpt>
      <trkpt lat="42.7162690" lon="1.4459290">
        <ele>1076.7</ele>
        <time>2021-08-10T17:23:40Z</time>
      </trkpt>
      <trkpt lat="42.7162800" lon="1.4456960">
        <ele>1080.2</ele>
        <time>2021-08-10T17:24:19Z</time>
      </trkpt>
      <trkpt lat="42.7162210" lon="1.4454700">
        <ele>1084.4</ele>
        <time>2021-08-10T17:24:51Z</time>
      </trkpt>
      <trkpt lat="42.7162620" lon="1.4453330">
        <ele>1087.0</ele>
        <time>2021-08-10T17:25:09Z</time>
      </trkpt>
      <trkpt lat="42.7162610" lon="1.4452970">
        <ele>1087.5</ele>
        <time>2021-08-10T17:25:21Z</time>
      </trkpt>
      <trkpt lat="42.7163290" lon="1.4450600">
        <ele>1090.4</ele>
        <time>2021-08-10T17:25:51Z</time>
      </trkpt>
      <trkpt lat="42.7163300" lon="1.4450180">
        <ele>1090.7</ele>
        <time>2021-08-10T17:25:54Z</time>
      </trkpt>
      <trkpt lat="42.7163290" lon="1.4449930">
        <ele>1091.0</ele>
        <time>2021-08-10T17:25:56Z</time>
      </trkpt>
      <trkpt lat="42.7163240" lon="1.4449310">
        <ele>1091.5</ele>
        <time>2021-08-10T17:26:01Z</time>
      </trkpt>
      <trkpt lat="42.7163410" lon="1.4448930">
        <ele>1091.9</ele>
        <time>2021-08-10T17:26:04Z</time>
      </trkpt>
      <trkpt lat="42.7163460" lon="1.4448790">
        <ele>1092.0</ele>
        <time>2021-08-10T17:26:05Z</time>
      </trkpt>
      <trkpt lat="42.7163480" lon="1.4448670">
        <ele>1092.2</ele>
        <time>2021-08-10T17:26:06Z</time>
      </trkpt>
      <trkpt lat="42.7163490" lon="1.4448580">
        <ele>1092.2</ele>
        <time>2021-08-10T17:26:07Z</time>
      </trkpt>
      <trkpt lat="42.7163540" lon="1.4448500">
        <ele>1092.3</ele>
        <time>2021-08-10T17:26:08Z</time>
      </trkpt>
      <trkpt lat="42.7163570" lon="1.4448400">
        <ele>1092.4</ele>
        <time>2021-08-10T17:26:09Z</time>
      </trkpt>
      <trkpt lat="42.7163580" lon="1.4448290">
        <ele>1092.5</ele>
        <time>2021-08-10T17:26:10Z</time>
      </trkpt>
      <trkpt lat="42.7163590" lon="1.4448160">
        <ele>1092.6</ele>
        <time>2021-08-10T17:26:11Z</time>
      </trkpt>
      <trkpt lat="42.7164210" lon="1.4445820">
        <ele>1094.3</ele>
        <time>2021-08-10T17:26:31Z</time>
      </trkpt>
      <trkpt lat="42.7164450" lon="1.4444760">
        <ele>1094.9</ele>
        <time>2021-08-10T17:26:40Z</time>
      </trkpt>
      <trkpt lat="42.7164480" lon="1.4444650">
        <ele>1094.9</ele>
        <time>2021-08-10T17:26:41Z</time>
      </trkpt>
      <trkpt lat="42.7164560" lon="1.4444360">
        <ele>1095.1</ele>
        <time>2021-08-10T17:26:43Z</time>
      </trkpt>
      <trkpt lat="42.7164590" lon="1.4444220">
        <ele>1095.1</ele>
        <time>2021-08-10T17:26:44Z</time>
      </trkpt>
      <trkpt lat="42.7164580" lon="1.4443950">
        <ele>1095.3</ele>
        <time>2021-08-10T17:26:46Z</time>
      </trkpt>
      <trkpt lat="42.7164600" lon="1.4443800">
        <ele>1095.3</ele>
        <time>2021-08-10T17:26:47Z</time>
      </trkpt>
      <trkpt lat="42.7164600" lon="1.4443680">
        <ele>1095.4</ele>
        <time>2021-08-10T17:26:48Z</time>
      </trkpt>
      <trkpt lat="42.7164580" lon="1.4443540">
        <ele>1095.5</ele>
        <time>2021-08-10T17:26:49Z</time>
      </trkpt>
      <trkpt lat="42.7164590" lon="1.4443270">
        <ele>1095.6</ele>
        <time>2021-08-10T17:26:51Z</time>
      </trkpt>
      <trkpt lat="42.7164590" lon="1.4443150">
        <ele>1095.6</ele>
        <time>2021-08-10T17:26:52Z</time>
      </trkpt>
      <trkpt lat="42.7164610" lon="1.4443050">
        <ele>1095.7</ele>
        <time>2021-08-10T17:26:53Z</time>
      </trkpt>
      <trkpt lat="42.7164650" lon="1.4442960">
        <ele>1095.7</ele>
        <time>2021-08-10T17:26:54Z</time>
      </trkpt>
      <trkpt lat="42.7164660" lon="1.4442750">
        <ele>1095.8</ele>
        <time>2021-08-10T17:26:56Z</time>
      </trkpt>
      <trkpt lat="42.7164660" lon="1.4442620">
        <ele>1095.9</ele>
        <time>2021-08-10T17:26:57Z</time>
      </trkpt>
      <trkpt lat="42.7164570" lon="1.4442290">
        <ele>1096.0</ele>
        <time>2021-08-10T17:26:59Z</time>
      </trkpt>
      <trkpt lat="42.7164550" lon="1.4442170">
        <ele>1096.1</ele>
        <time>2021-08-10T17:27:00Z</time>
      </trkpt>
      <trkpt lat="42.7164610" lon="1.4439690">
        <ele>1097.1</ele>
        <time>2021-08-10T17:27:19Z</time>
      </trkpt>
      <trkpt lat="42.7164660" lon="1.4438350">
        <ele>1097.7</ele>
        <time>2021-08-10T17:27:28Z</time>
      </trkpt>
      <trkpt lat="42.7164850" lon="1.4436830">
        <ele>1098.5</ele>
        <time>2021-08-10T17:27:39Z</time>
      </trkpt>
      <trkpt lat="42.7164910" lon="1.4436390">
        <ele>1098.7</ele>
        <time>2021-08-10T17:27:42Z</time>
      </trkpt>
      <trkpt lat="42.7164910" lon="1.4436240">
        <ele>1098.8</ele>
        <time>2021-08-10T17:27:43Z</time>
      </trkpt>
      <trkpt lat="42.7164940" lon="1.4436110">
        <ele>1098.9</ele>
        <time>2021-08-10T17:27:44Z</time>
      </trkpt>
      <trkpt lat="42.7165030" lon="1.4435130">
        <ele>1099.4</ele>
        <time>2021-08-10T17:27:51Z</time>
      </trkpt>
      <trkpt lat="42.7165390" lon="1.4432880">
        <ele>1100.8</ele>
        <time>2021-08-10T17:28:10Z</time>
      </trkpt>
      <trkpt lat="42.7165550" lon="1.4432490">
        <ele>1101.1</ele>
        <time>2021-08-10T17:28:15Z</time>
      </trkpt>
      <trkpt lat="42.7165770" lon="1.4431890">
        <ele>1101.5</ele>
        <time>2021-08-10T17:28:20Z</time>
      </trkpt>
      <trkpt lat="42.7166050" lon="1.4430820">
        <ele>1102.1</ele>
        <time>2021-08-10T17:28:30Z</time>
      </trkpt>
      <trkpt lat="42.7166120" lon="1.4429990">
        <ele>1102.5</ele>
        <time>2021-08-10T17:28:37Z</time>
      </trkpt>
      <trkpt lat="42.7166130" lon="1.4429570">
        <ele>1102.7</ele>
        <time>2021-08-10T17:28:40Z</time>
      </trkpt>
      <trkpt lat="42.7166230" lon="1.4428790">
        <ele>1103.0</ele>
        <time>2021-08-10T17:28:46Z</time>
      </trkpt>
      <trkpt lat="42.7166230" lon="1.4428520">
        <ele>1103.1</ele>
        <time>2021-08-10T17:28:48Z</time>
      </trkpt>
      <trkpt lat="42.7166290" lon="1.4428010">
        <ele>1103.3</ele>
        <time>2021-08-10T17:28:52Z</time>
      </trkpt>
      <trkpt lat="42.7166300" lon="1.4427740">
        <ele>1103.4</ele>
        <time>2021-08-10T17:28:54Z</time>
      </trkpt>
      <trkpt lat="42.7166560" lon="1.4426600">
        <ele>1103.8</ele>
        <time>2021-08-10T17:29:02Z</time>
      </trkpt>
      <trkpt lat="42.7167110" lon="1.4425620">
        <ele>1104.2</ele>
        <time>2021-08-10T17:29:11Z</time>
      </trkpt>
      <trkpt lat="42.7167120" lon="1.4425490">
        <ele>1104.2</ele>
        <time>2021-08-10T17:29:12Z</time>
      </trkpt>
      <trkpt lat="42.7167150" lon="1.4425370">
        <ele>1104.3</ele>
        <time>2021-08-10T17:29:13Z</time>
      </trkpt>
      <trkpt lat="42.7167180" lon="1.4425250">
        <ele>1104.3</ele>
        <time>2021-08-10T17:29:14Z</time>
      </trkpt>
      <trkpt lat="42.7167270" lon="1.4425030">
        <ele>1104.4</ele>
        <time>2021-08-10T17:29:16Z</time>
      </trkpt>
      <trkpt lat="42.7167380" lon="1.4424650">
        <ele>1104.6</ele>
        <time>2021-08-10T17:29:19Z</time>
      </trkpt>
      <trkpt lat="42.7167390" lon="1.4424540">
        <ele>1104.6</ele>
        <time>2021-08-10T17:29:20Z</time>
      </trkpt>
      <trkpt lat="42.7167400" lon="1.4424390">
        <ele>1104.6</ele>
        <time>2021-08-10T17:29:21Z</time>
      </trkpt>
      <trkpt lat="42.7167470" lon="1.4424110">
        <ele>1104.7</ele>
        <time>2021-08-10T17:29:23Z</time>
      </trkpt>
      <trkpt lat="42.7167580" lon="1.4423790">
        <ele>1104.8</ele>
        <time>2021-08-10T17:29:26Z</time>
      </trkpt>
      <trkpt lat="42.7167650" lon="1.4423010">
        <ele>1105.1</ele>
        <time>2021-08-10T17:29:32Z</time>
      </trkpt>
      <trkpt lat="42.7167680" lon="1.4422900">
        <ele>1105.1</ele>
        <time>2021-08-10T17:29:33Z</time>
      </trkpt>
      <trkpt lat="42.7167690" lon="1.4422610">
        <ele>1105.2</ele>
        <time>2021-08-10T17:29:35Z</time>
      </trkpt>
      <trkpt lat="42.7167670" lon="1.4422310">
        <ele>1105.3</ele>
        <time>2021-08-10T17:29:37Z</time>
      </trkpt>
      <trkpt lat="42.7167610" lon="1.4421970">
        <ele>1105.4</ele>
        <time>2021-08-10T17:29:39Z</time>
      </trkpt>
      <trkpt lat="42.7167660" lon="1.4421760">
        <ele>1105.5</ele>
        <time>2021-08-10T17:29:41Z</time>
      </trkpt>
      <trkpt lat="42.7167700" lon="1.4421640">
        <ele>1105.5</ele>
        <time>2021-08-10T17:29:42Z</time>
      </trkpt>
      <trkpt lat="42.7167720" lon="1.4421510">
        <ele>1105.6</ele>
        <time>2021-08-10T17:29:43Z</time>
      </trkpt>
      <trkpt lat="42.7167710" lon="1.4421370">
        <ele>1105.6</ele>
        <time>2021-08-10T17:29:44Z</time>
      </trkpt>
      <trkpt lat="42.7167690" lon="1.4421090">
        <ele>1105.7</ele>
        <time>2021-08-10T17:29:46Z</time>
      </trkpt>
      <trkpt lat="42.7168160" lon="1.4418720">
        <ele>1106.6</ele>
        <time>2021-08-10T17:30:09Z</time>
      </trkpt>
      <trkpt lat="42.7168250" lon="1.4418040">
        <ele>1106.8</ele>
        <time>2021-08-10T17:30:15Z</time>
      </trkpt>
      <trkpt lat="42.7168390" lon="1.4417290">
        <ele>1107.2</ele>
        <time>2021-08-10T17:30:21Z</time>
      </trkpt>
      <trkpt lat="42.7168650" lon="1.4415710">
        <ele>1107.9</ele>
        <time>2021-08-10T17:30:30Z</time>
      </trkpt>
      <trkpt lat="42.7169070" lon="1.4414770">
        <ele>1108.3</ele>
        <time>2021-08-10T17:30:38Z</time>
      </trkpt>
      <trkpt lat="42.7169000" lon="1.4413360">
        <ele>1108.7</ele>
        <time>2021-08-10T17:30:49Z</time>
      </trkpt>
      <trkpt lat="42.7169060" lon="1.4410920">
        <ele>1109.3</ele>
        <time>2021-08-10T17:31:08Z</time>
      </trkpt>
      <trkpt lat="42.7168790" lon="1.4409970">
        <ele>1109.7</ele>
        <time>2021-08-10T17:31:14Z</time>
      </trkpt>
      <trkpt lat="42.7168680" lon="1.4409510">
        <ele>1109.8</ele>
        <time>2021-08-10T17:31:17Z</time>
      </trkpt>
      <trkpt lat="42.7168570" lon="1.4408610">
        <ele>1110.2</ele>
        <time>2021-08-10T17:31:22Z</time>
      </trkpt>
      <trkpt lat="42.7168280" lon="1.4406660">
        <ele>1111.2</ele>
        <time>2021-08-10T17:31:38Z</time>
      </trkpt>
      <trkpt lat="42.7167930" lon="1.4404240">
        <ele>1112.9</ele>
        <time>2021-08-10T17:31:59Z</time>
      </trkpt>
      <trkpt lat="42.7167760" lon="1.4402800">
        <ele>1114.1</ele>
        <time>2021-08-10T17:32:09Z</time>
      </trkpt>
      <trkpt lat="42.7167570" lon="1.4401990">
        <ele>1114.5</ele>
        <time>2021-08-10T17:32:15Z</time>
      </trkpt>
      <trkpt lat="42.7167430" lon="1.4401340">
        <ele>1114.8</ele>
        <time>2021-08-10T17:32:20Z</time>
      </trkpt>
      <trkpt lat="42.7167190" lon="1.4398890">
        <ele>1115.3</ele>
        <time>2021-08-10T17:32:39Z</time>
      </trkpt>
      <trkpt lat="42.7167030" lon="1.4398230">
        <ele>1115.3</ele>
        <time>2021-08-10T17:32:43Z</time>
      </trkpt>
      <trkpt lat="42.7167010" lon="1.4397480">
        <ele>1115.3</ele>
        <time>2021-08-10T17:32:48Z</time>
      </trkpt>
      <trkpt lat="42.7167690" lon="1.4395080">
        <ele>1115.3</ele>
        <time>2021-08-10T17:33:06Z</time>
      </trkpt>
      <trkpt lat="42.7168190" lon="1.4393650">
        <ele>1115.5</ele>
        <time>2021-08-10T17:33:19Z</time>
      </trkpt>
      <trkpt lat="42.7168380" lon="1.4391400">
        <ele>1115.9</ele>
        <time>2021-08-10T17:33:37Z</time>
      </trkpt>
      <trkpt lat="42.7167490" lon="1.4389160">
        <ele>1116.2</ele>
        <time>2021-08-10T17:33:51Z</time>
      </trkpt>
      <trkpt lat="42.7166660" lon="1.4386940">
        <ele>1116.8</ele>
        <time>2021-08-10T17:34:07Z</time>
      </trkpt>
      <trkpt lat="42.7166080" lon="1.4385600">
        <ele>1117.1</ele>
        <time>2021-08-10T17:34:18Z</time>
      </trkpt>
      <trkpt lat="42.7165070" lon="1.4384070">
        <ele>1117.4</ele>
        <time>2021-08-10T17:34:31Z</time>
      </trkpt>
      <trkpt lat="42.7164980" lon="1.4383990">
        <ele>1117.4</ele>
        <time>2021-08-10T17:34:32Z</time>
      </trkpt>
      <trkpt lat="42.7164720" lon="1.4383570">
        <ele>1117.5</ele>
        <time>2021-08-10T17:34:37Z</time>
      </trkpt>
      <trkpt lat="42.7164370" lon="1.4382830">
        <ele>1117.6</ele>
        <time>2021-08-10T17:34:45Z</time>
      </trkpt>
      <trkpt lat="42.7164300" lon="1.4382670">
        <ele>1117.6</ele>
        <time>2021-08-10T17:34:46Z</time>
      </trkpt>
      <trkpt lat="42.7164060" lon="1.4382220">
        <ele>1117.7</ele>
        <time>2021-08-10T17:34:49Z</time>
      </trkpt>
      <trkpt lat="42.7163970" lon="1.4382080">
        <ele>1117.7</ele>
        <time>2021-08-10T17:34:51Z</time>
      </trkpt>
      <trkpt lat="42.7163890" lon="1.4382020">
        <ele>1117.7</ele>
        <time>2021-08-10T17:34:52Z</time>
      </trkpt>
      <trkpt lat="42.7163840" lon="1.4381950">
        <ele>1117.7</ele>
        <time>2021-08-10T17:34:53Z</time>
      </trkpt>
      <trkpt lat="42.7163730" lon="1.4381800">
        <ele>1117.8</ele>
        <time>2021-08-10T17:34:54Z</time>
      </trkpt>
      <trkpt lat="42.7163660" lon="1.4381680">
        <ele>1117.8</ele>
        <time>2021-08-10T17:34:55Z</time>
      </trkpt>
      <trkpt lat="42.7163620" lon="1.4381570">
        <ele>1117.8</ele>
        <time>2021-08-10T17:34:56Z</time>
      </trkpt>
      <trkpt lat="42.7163620" lon="1.4381520">
        <ele>1117.8</ele>
        <time>2021-08-10T17:34:57Z</time>
      </trkpt>
      <trkpt lat="42.7163450" lon="1.4381150">
        <ele>1117.9</ele>
        <time>2021-08-10T17:35:00Z</time>
      </trkpt>
      <trkpt lat="42.7163380" lon="1.4380940">
        <ele>1117.9</ele>
        <time>2021-08-10T17:35:03Z</time>
      </trkpt>
      <trkpt lat="42.7162940" lon="1.4379610">
        <ele>1118.1</ele>
        <time>2021-08-10T17:35:19Z</time>
      </trkpt>
      <trkpt lat="42.7161710" lon="1.4377390">
        <ele>1118.6</ele>
        <time>2021-08-10T17:35:36Z</time>
      </trkpt>
      <trkpt lat="42.7160530" lon="1.4375470">
        <ele>1119.0</ele>
        <time>2021-08-10T17:35:50Z</time>
      </trkpt>
      <trkpt lat="42.7159990" lon="1.4374770">
        <ele>1119.3</ele>
        <time>2021-08-10T17:35:58Z</time>
      </trkpt>
      <trkpt lat="42.7159950" lon="1.4374680">
        <ele>1119.3</ele>
        <time>2021-08-10T17:35:59Z</time>
      </trkpt>
      <trkpt lat="42.7159900" lon="1.4374590">
        <ele>1119.3</ele>
        <time>2021-08-10T17:36:00Z</time>
      </trkpt>
      <trkpt lat="42.7159850" lon="1.4374510">
        <ele>1119.3</ele>
        <time>2021-08-10T17:36:01Z</time>
      </trkpt>
      <trkpt lat="42.7159730" lon="1.4374360">
        <ele>1119.4</ele>
        <time>2021-08-10T17:36:03Z</time>
      </trkpt>
      <trkpt lat="42.7159300" lon="1.4374130">
        <ele>1119.6</ele>
        <time>2021-08-10T17:36:08Z</time>
      </trkpt>
      <trkpt lat="42.7159250" lon="1.4374040">
        <ele>1119.6</ele>
        <time>2021-08-10T17:36:09Z</time>
      </trkpt>
      <trkpt lat="42.7159220" lon="1.4373830">
        <ele>1119.7</ele>
        <time>2021-08-10T17:36:11Z</time>
      </trkpt>
      <trkpt lat="42.7159190" lon="1.4373740">
        <ele>1119.8</ele>
        <time>2021-08-10T17:36:12Z</time>
      </trkpt>
      <trkpt lat="42.7159180" lon="1.4373550">
        <ele>1119.8</ele>
        <time>2021-08-10T17:36:14Z</time>
      </trkpt>
      <trkpt lat="42.7159150" lon="1.4373430">
        <ele>1119.9</ele>
        <time>2021-08-10T17:36:15Z</time>
      </trkpt>
      <trkpt lat="42.7158610" lon="1.4372200">
        <ele>1120.4</ele>
        <time>2021-08-10T17:36:28Z</time>
      </trkpt>
      <trkpt lat="42.7157550" lon="1.4370700">
        <ele>1121.4</ele>
        <time>2021-08-10T17:36:50Z</time>
      </trkpt>
      <trkpt lat="42.7157460" lon="1.4370620">
        <ele>1121.5</ele>
        <time>2021-08-10T17:36:51Z</time>
      </trkpt>
      <trkpt lat="42.7156770" lon="1.4369860">
        <ele>1122.1</ele>
        <time>2021-08-10T17:37:00Z</time>
      </trkpt>
      <trkpt lat="42.7155770" lon="1.4369320">
        <ele>1122.9</ele>
        <time>2021-08-10T17:37:12Z</time>
      </trkpt>
      <trkpt lat="42.7155430" lon="1.4368940">
        <ele>1123.2</ele>
        <time>2021-08-10T17:37:16Z</time>
      </trkpt>
      <trkpt lat="42.7155320" lon="1.4368830">
        <ele>1123.2</ele>
        <time>2021-08-10T17:37:18Z</time>
      </trkpt>
      <trkpt lat="42.7155170" lon="1.4368750">
        <ele>1123.3</ele>
        <time>2021-08-10T17:37:20Z</time>
      </trkpt>
      <trkpt lat="42.7153890" lon="1.4367020">
        <ele>1124.1</ele>
        <time>2021-08-10T17:37:40Z</time>
      </trkpt>
      <trkpt lat="42.7153810" lon="1.4366910">
        <ele>1124.2</ele>
        <time>2021-08-10T17:37:41Z</time>
      </trkpt>
      <trkpt lat="42.7153430" lon="1.4366410">
        <ele>1124.3</ele>
        <time>2021-08-10T17:37:46Z</time>
      </trkpt>
      <trkpt lat="42.7153240" lon="1.4366210">
        <ele>1124.4</ele>
        <time>2021-08-10T17:37:48Z</time>
      </trkpt>
      <trkpt lat="42.7152960" lon="1.4366030">
        <ele>1124.5</ele>
        <time>2021-08-10T17:37:51Z</time>
      </trkpt>
      <trkpt lat="42.7152670" lon="1.4365920">
        <ele>1124.6</ele>
        <time>2021-08-10T17:37:54Z</time>
      </trkpt>
      <trkpt lat="42.7151080" lon="1.4364700">
        <ele>1125.0</ele>
        <time>2021-08-10T17:38:07Z</time>
      </trkpt>
      <trkpt lat="42.7149410" lon="1.4363590">
        <ele>1125.5</ele>
        <time>2021-08-10T17:38:28Z</time>
      </trkpt>
      <trkpt lat="42.7149030" lon="1.4363290">
        <ele>1125.6</ele>
        <time>2021-08-10T17:38:32Z</time>
      </trkpt>
      <trkpt lat="42.7148720" lon="1.4363040">
        <ele>1125.7</ele>
        <time>2021-08-10T17:38:36Z</time>
      </trkpt>
      <trkpt lat="42.7148650" lon="1.4362970">
        <ele>1125.8</ele>
        <time>2021-08-10T17:38:37Z</time>
      </trkpt>
      <trkpt lat="42.7148530" lon="1.4362760">
        <ele>1125.8</ele>
        <time>2021-08-10T17:38:38Z</time>
      </trkpt>
      <trkpt lat="42.7147270" lon="1.4360930">
        <ele>1126.2</ele>
        <time>2021-08-10T17:38:53Z</time>
      </trkpt>
      <trkpt lat="42.7146260" lon="1.4359310">
        <ele>1126.6</ele>
        <time>2021-08-10T17:39:08Z</time>
      </trkpt>
      <trkpt lat="42.7145800" lon="1.4358650">
        <ele>1126.8</ele>
        <time>2021-08-10T17:39:14Z</time>
      </trkpt>
      <trkpt lat="42.7144430" lon="1.4357030">
        <ele>1127.3</ele>
        <time>2021-08-10T17:39:31Z</time>
      </trkpt>
      <trkpt lat="42.7143700" lon="1.4356010">
        <ele>1127.6</ele>
        <time>2021-08-10T17:39:41Z</time>
      </trkpt>
      <trkpt lat="42.7143480" lon="1.4355650">
        <ele>1127.7</ele>
        <time>2021-08-10T17:39:45Z</time>
      </trkpt>
      <trkpt lat="42.7142970" lon="1.4354850">
        <ele>1128.0</ele>
        <time>2021-08-10T17:39:53Z</time>
      </trkpt>
      <trkpt lat="42.7142230" lon="1.4353790">
        <ele>1128.4</ele>
        <time>2021-08-10T17:40:04Z</time>
      </trkpt>
      <trkpt lat="42.7141420" lon="1.4352630">
        <ele>1128.9</ele>
        <time>2021-08-10T17:40:14Z</time>
      </trkpt>
      <trkpt lat="42.7141200" lon="1.4352370">
        <ele>1129.0</ele>
        <time>2021-08-10T17:40:17Z</time>
      </trkpt>
      <trkpt lat="42.7141140" lon="1.4352290">
        <ele>1129.1</ele>
        <time>2021-08-10T17:40:18Z</time>
      </trkpt>
      <trkpt lat="42.7140990" lon="1.4352120">
        <ele>1129.2</ele>
        <time>2021-08-10T17:40:20Z</time>
      </trkpt>
      <trkpt lat="42.7140880" lon="1.4351960">
        <ele>1129.2</ele>
        <time>2021-08-10T17:40:22Z</time>
      </trkpt>
      <trkpt lat="42.7140740" lon="1.4351760">
        <ele>1129.3</ele>
        <time>2021-08-10T17:40:30Z</time>
      </trkpt>
      <trkpt lat="42.7140740" lon="1.4351670">
        <ele>1129.3</ele>
        <time>2021-08-10T17:40:35Z</time>
      </trkpt>
      <trkpt lat="42.7140750" lon="1.4351600">
        <ele>1129.4</ele>
        <time>2021-08-10T17:40:37Z</time>
      </trkpt>
      <trkpt lat="42.7140670" lon="1.4351360">
        <ele>1129.5</ele>
        <time>2021-08-10T17:40:41Z</time>
      </trkpt>
      <trkpt lat="42.7140670" lon="1.4351380">
        <ele>1129.5</ele>
        <time>2021-08-10T17:40:43Z</time>
      </trkpt>
      <trkpt lat="42.7140760" lon="1.4351370">
        <ele>1129.5</ele>
        <time>2021-08-10T17:40:46Z</time>
      </trkpt>
      <trkpt lat="42.7140730" lon="1.4351420">
        <ele>1129.5</ele>
        <time>2021-08-10T17:40:51Z</time>
      </trkpt>
      <trkpt lat="42.7140690" lon="1.4351450">
        <ele>1129.5</ele>
        <time>2021-08-10T17:40:52Z</time>
      </trkpt>
      <trkpt lat="42.7140580" lon="1.4351650">
        <ele>1129.6</ele>
        <time>2021-08-10T17:41:25Z</time>
      </trkpt>
      <trkpt lat="42.7140630" lon="1.4351480">
        <ele>1129.7</ele>
        <time>2021-08-10T17:41:33Z</time>
      </trkpt>
      <trkpt lat="42.7141110" lon="1.4351160">
        <ele>1129.9</ele>
        <time>2021-08-10T17:41:51Z</time>
      </trkpt>
      <trkpt lat="42.7139190" lon="1.4351580">
        <ele>1130.5</ele>
        <time>2021-08-11T06:20:52Z</time>
      </trkpt>
      <trkpt lat="42.7139190" lon="1.4351600">
        <ele>1130.5</ele>
        <time>2021-08-11T06:20:53Z</time>
      </trkpt>
      <trkpt lat="42.7138290" lon="1.4350510">
        <ele>1131.0</ele>
        <time>2021-08-11T06:21:09Z</time>
      </trkpt>
      <trkpt lat="42.7137860" lon="1.4350020">
        <ele>1131.2</ele>
        <time>2021-08-11T06:21:16Z</time>
      </trkpt>
      <trkpt lat="42.7137730" lon="1.4349820">
        <ele>1131.3</ele>
        <time>2021-08-11T06:21:18Z</time>
      </trkpt>
      <trkpt lat="42.7137660" lon="1.4349720">
        <ele>1131.3</ele>
        <time>2021-08-11T06:21:19Z</time>
      </trkpt>
      <trkpt lat="42.7137020" lon="1.4349030">
        <ele>1131.6</ele>
        <time>2021-08-11T06:21:29Z</time>
      </trkpt>
      <trkpt lat="42.7136640" lon="1.4348220">
        <ele>1131.9</ele>
        <time>2021-08-11T06:21:34Z</time>
      </trkpt>
      <trkpt lat="42.7136590" lon="1.4348090">
        <ele>1131.9</ele>
        <time>2021-08-11T06:21:35Z</time>
      </trkpt>
      <trkpt lat="42.7136540" lon="1.4347860">
        <ele>1132.0</ele>
        <time>2021-08-11T06:21:36Z</time>
      </trkpt>
      <trkpt lat="42.7136360" lon="1.4346740">
        <ele>1132.0</ele>
        <time>2021-08-11T06:21:42Z</time>
      </trkpt>
      <trkpt lat="42.7136260" lon="1.4345830">
        <ele>1132.6</ele>
        <time>2021-08-11T06:21:46Z</time>
      </trkpt>
      <trkpt lat="42.7136240" lon="1.4343350">
        <ele>1134.6</ele>
        <time>2021-08-11T06:21:59Z</time>
      </trkpt>
      <trkpt lat="42.7136140" lon="1.4342380">
        <ele>1134.9</ele>
        <time>2021-08-11T06:22:05Z</time>
      </trkpt>
      <trkpt lat="42.7135950" lon="1.4341530">
        <ele>1135.6</ele>
        <time>2021-08-11T06:22:11Z</time>
      </trkpt>
      <trkpt lat="42.7135570" lon="1.4340540">
        <ele>1136.7</ele>
        <time>2021-08-11T06:22:20Z</time>
      </trkpt>
      <trkpt lat="42.7135400" lon="1.4340260">
        <ele>1137.0</ele>
        <time>2021-08-11T06:22:23Z</time>
      </trkpt>
      <trkpt lat="42.7135330" lon="1.4340190">
        <ele>1137.1</ele>
        <time>2021-08-11T06:22:24Z</time>
      </trkpt>
      <trkpt lat="42.7135220" lon="1.4340090">
        <ele>1137.3</ele>
        <time>2021-08-11T06:22:26Z</time>
      </trkpt>
      <trkpt lat="42.7135080" lon="1.4339880">
        <ele>1137.6</ele>
        <time>2021-08-11T06:22:29Z</time>
      </trkpt>
      <trkpt lat="42.7134740" lon="1.4339470">
        <ele>1138.2</ele>
        <time>2021-08-11T06:22:36Z</time>
      </trkpt>
      <trkpt lat="42.7133300" lon="1.4337930">
        <ele>1140.5</ele>
        <time>2021-08-11T06:22:57Z</time>
      </trkpt>
      <trkpt lat="42.7132540" lon="1.4337030">
        <ele>1141.7</ele>
        <time>2021-08-11T06:23:10Z</time>
      </trkpt>
      <trkpt lat="42.7132370" lon="1.4336140">
        <ele>1142.5</ele>
        <time>2021-08-11T06:23:18Z</time>
      </trkpt>
      <trkpt lat="42.7132240" lon="1.4335530">
        <ele>1142.9</ele>
        <time>2021-08-11T06:23:22Z</time>
      </trkpt>
      <trkpt lat="42.7132230" lon="1.4335100">
        <ele>1143.3</ele>
        <time>2021-08-11T06:23:25Z</time>
      </trkpt>
      <trkpt lat="42.7132230" lon="1.4334610">
        <ele>1143.6</ele>
        <time>2021-08-11T06:23:28Z</time>
      </trkpt>
      <trkpt lat="42.7132180" lon="1.4334240">
        <ele>1143.8</ele>
        <time>2021-08-11T06:23:31Z</time>
      </trkpt>
      <trkpt lat="42.7132140" lon="1.4333980">
        <ele>1144.0</ele>
        <time>2021-08-11T06:23:33Z</time>
      </trkpt>
      <trkpt lat="42.7132140" lon="1.4333810">
        <ele>1144.1</ele>
        <time>2021-08-11T06:23:34Z</time>
      </trkpt>
      <trkpt lat="42.7132140" lon="1.4333650">
        <ele>1144.2</ele>
        <time>2021-08-11T06:23:35Z</time>
      </trkpt>
      <trkpt lat="42.7132120" lon="1.4333340">
        <ele>1144.3</ele>
        <time>2021-08-11T06:23:37Z</time>
      </trkpt>
      <trkpt lat="42.7131960" lon="1.4332800">
        <ele>1144.7</ele>
        <time>2021-08-11T06:23:41Z</time>
      </trkpt>
      <trkpt lat="42.7131880" lon="1.4332410">
        <ele>1144.9</ele>
        <time>2021-08-11T06:23:44Z</time>
      </trkpt>
      <trkpt lat="42.7131850" lon="1.4332260">
        <ele>1144.9</ele>
        <time>2021-08-11T06:23:45Z</time>
      </trkpt>
      <trkpt lat="42.7131780" lon="1.4331520">
        <ele>1145.3</ele>
        <time>2021-08-11T06:23:51Z</time>
      </trkpt>
      <trkpt lat="42.7131760" lon="1.4331420">
        <ele>1145.4</ele>
        <time>2021-08-11T06:23:52Z</time>
      </trkpt>
      <trkpt lat="42.7131700" lon="1.4331040">
        <ele>1145.6</ele>
        <time>2021-08-11T06:23:55Z</time>
      </trkpt>
      <trkpt lat="42.7131580" lon="1.4330600">
        <ele>1145.8</ele>
        <time>2021-08-11T06:23:59Z</time>
      </trkpt>
      <trkpt lat="42.7131570" lon="1.4330340">
        <ele>1146.0</ele>
        <time>2021-08-11T06:24:01Z</time>
      </trkpt>
      <trkpt lat="42.7131550" lon="1.4330210">
        <ele>1146.0</ele>
        <time>2021-08-11T06:24:02Z</time>
      </trkpt>
      <trkpt lat="42.7131500" lon="1.4329690">
        <ele>1146.3</ele>
        <time>2021-08-11T06:24:06Z</time>
      </trkpt>
      <trkpt lat="42.7131550" lon="1.4328020">
        <ele>1147.3</ele>
        <time>2021-08-11T06:24:20Z</time>
      </trkpt>
      <trkpt lat="42.7131580" lon="1.4327500">
        <ele>1147.6</ele>
        <time>2021-08-11T06:24:25Z</time>
      </trkpt>
      <trkpt lat="42.7131440" lon="1.4326910">
        <ele>1147.9</ele>
        <time>2021-08-11T06:24:30Z</time>
      </trkpt>
      <trkpt lat="42.7131160" lon="1.4324480">
        <ele>1149.4</ele>
        <time>2021-08-11T06:24:53Z</time>
      </trkpt>
      <trkpt lat="42.7130690" lon="1.4321990">
        <ele>1151.1</ele>
        <time>2021-08-11T06:25:10Z</time>
      </trkpt>
      <trkpt lat="42.7130710" lon="1.4321580">
        <ele>1151.3</ele>
        <time>2021-08-11T06:25:13Z</time>
      </trkpt>
      <trkpt lat="42.7130670" lon="1.4320990">
        <ele>1151.7</ele>
        <time>2021-08-11T06:25:17Z</time>
      </trkpt>
      <trkpt lat="42.7130550" lon="1.4320750">
        <ele>1151.9</ele>
        <time>2021-08-11T06:25:20Z</time>
      </trkpt>
      <trkpt lat="42.7130620" lon="1.4320590">
        <ele>1152.0</ele>
        <time>2021-08-11T06:25:21Z</time>
      </trkpt>
      <trkpt lat="42.7130610" lon="1.4320480">
        <ele>1152.1</ele>
        <time>2021-08-11T06:25:22Z</time>
      </trkpt>
      <trkpt lat="42.7130550" lon="1.4320280">
        <ele>1152.3</ele>
        <time>2021-08-11T06:25:24Z</time>
      </trkpt>
      <trkpt lat="42.7130500" lon="1.4320160">
        <ele>1152.4</ele>
        <time>2021-08-11T06:25:25Z</time>
      </trkpt>
      <trkpt lat="42.7130330" lon="1.4319610">
        <ele>1152.7</ele>
        <time>2021-08-11T06:25:29Z</time>
      </trkpt>
      <trkpt lat="42.7130070" lon="1.4318640">
        <ele>1153.5</ele>
        <time>2021-08-11T06:25:36Z</time>
      </trkpt>
      <trkpt lat="42.7130010" lon="1.4318550">
        <ele>1153.6</ele>
        <time>2021-08-11T06:25:37Z</time>
      </trkpt>
      <trkpt lat="42.7129940" lon="1.4318440">
        <ele>1153.7</ele>
        <time>2021-08-11T06:25:38Z</time>
      </trkpt>
      <trkpt lat="42.7129770" lon="1.4317910">
        <ele>1154.1</ele>
        <time>2021-08-11T06:25:42Z</time>
      </trkpt>
      <trkpt lat="42.7129660" lon="1.4317510">
        <ele>1154.4</ele>
        <time>2021-08-11T06:25:45Z</time>
      </trkpt>
      <trkpt lat="42.7129550" lon="1.4317080">
        <ele>1154.8</ele>
        <time>2021-08-11T06:25:48Z</time>
      </trkpt>
      <trkpt lat="42.7128220" lon="1.4315440">
        <ele>1156.8</ele>
        <time>2021-08-11T06:26:04Z</time>
      </trkpt>
      <trkpt lat="42.7126980" lon="1.4313580">
        <ele>1158.8</ele>
        <time>2021-08-11T06:26:24Z</time>
      </trkpt>
      <trkpt lat="42.7125500" lon="1.4311890">
        <ele>1160.8</ele>
        <time>2021-08-11T06:26:42Z</time>
      </trkpt>
      <trkpt lat="42.7123910" lon="1.4310750">
        <ele>1162.7</ele>
        <time>2021-08-11T06:26:59Z</time>
      </trkpt>
      <trkpt lat="42.7122190" lon="1.4309840">
        <ele>1164.6</ele>
        <time>2021-08-11T06:27:17Z</time>
      </trkpt>
      <trkpt lat="42.7120620" lon="1.4308470">
        <ele>1166.6</ele>
        <time>2021-08-11T06:27:40Z</time>
      </trkpt>
      <trkpt lat="42.7119330" lon="1.4307470">
        <ele>1168.3</ele>
        <time>2021-08-11T06:27:55Z</time>
      </trkpt>
      <trkpt lat="42.7119260" lon="1.4307350">
        <ele>1168.4</ele>
        <time>2021-08-11T06:27:56Z</time>
      </trkpt>
      <trkpt lat="42.7119000" lon="1.4306940">
        <ele>1168.9</ele>
        <time>2021-08-11T06:27:59Z</time>
      </trkpt>
      <trkpt lat="42.7117680" lon="1.4305130">
        <ele>1171.0</ele>
        <time>2021-08-11T06:28:16Z</time>
      </trkpt>
      <trkpt lat="42.7116570" lon="1.4303180">
        <ele>1173.0</ele>
        <time>2021-08-11T06:28:33Z</time>
      </trkpt>
      <trkpt lat="42.7115300" lon="1.4301290">
        <ele>1175.0</ele>
        <time>2021-08-11T06:28:54Z</time>
      </trkpt>
      <trkpt lat="42.7114360" lon="1.4299160">
        <ele>1176.7</ele>
        <time>2021-08-11T06:29:10Z</time>
      </trkpt>
      <trkpt lat="42.7113900" lon="1.4297480">
        <ele>1177.9</ele>
        <time>2021-08-11T06:29:22Z</time>
      </trkpt>
      <trkpt lat="42.7113890" lon="1.4297360">
        <ele>1177.9</ele>
        <time>2021-08-11T06:29:23Z</time>
      </trkpt>
      <trkpt lat="42.7113860" lon="1.4297270">
        <ele>1178.0</ele>
        <time>2021-08-11T06:29:24Z</time>
      </trkpt>
      <trkpt lat="42.7113820" lon="1.4297150">
        <ele>1178.1</ele>
        <time>2021-08-11T06:29:25Z</time>
      </trkpt>
      <trkpt lat="42.7113760" lon="1.4297100">
        <ele>1178.2</ele>
        <time>2021-08-11T06:29:26Z</time>
      </trkpt>
      <trkpt lat="42.7113720" lon="1.4296970">
        <ele>1178.2</ele>
        <time>2021-08-11T06:29:27Z</time>
      </trkpt>
      <trkpt lat="42.7113540" lon="1.4296470">
        <ele>1178.6</ele>
        <time>2021-08-11T06:29:30Z</time>
      </trkpt>
      <trkpt lat="42.7113440" lon="1.4296190">
        <ele>1178.8</ele>
        <time>2021-08-11T06:29:32Z</time>
      </trkpt>
      <trkpt lat="42.7113380" lon="1.4296000">
        <ele>1178.9</ele>
        <time>2021-08-11T06:29:33Z</time>
      </trkpt>
      <trkpt lat="42.7113340" lon="1.4295840">
        <ele>1179.1</ele>
        <time>2021-08-11T06:29:34Z</time>
      </trkpt>
      <trkpt lat="42.7113310" lon="1.4295680">
        <ele>1179.2</ele>
        <time>2021-08-11T06:29:35Z</time>
      </trkpt>
      <trkpt lat="42.7113260" lon="1.4295520">
        <ele>1179.3</ele>
        <time>2021-08-11T06:29:36Z</time>
      </trkpt>
      <trkpt lat="42.7113220" lon="1.4295100">
        <ele>1179.6</ele>
        <time>2021-08-11T06:29:39Z</time>
      </trkpt>
      <trkpt lat="42.7113130" lon="1.4294770">
        <ele>1179.8</ele>
        <time>2021-08-11T06:29:42Z</time>
      </trkpt>
      <trkpt lat="42.7113080" lon="1.4294300">
        <ele>1180.1</ele>
        <time>2021-08-11T06:29:46Z</time>
      </trkpt>
      <trkpt lat="42.7113090" lon="1.4294160">
        <ele>1180.2</ele>
        <time>2021-08-11T06:29:47Z</time>
      </trkpt>
      <trkpt lat="42.7113060" lon="1.4293920">
        <ele>1180.4</ele>
        <time>2021-08-11T06:29:49Z</time>
      </trkpt>
      <trkpt lat="42.7112980" lon="1.4293490">
        <ele>1180.7</ele>
        <time>2021-08-11T06:29:52Z</time>
      </trkpt>
      <trkpt lat="42.7112950" lon="1.4293320">
        <ele>1180.8</ele>
        <time>2021-08-11T06:29:53Z</time>
      </trkpt>
      <trkpt lat="42.7112920" lon="1.4293180">
        <ele>1180.9</ele>
        <time>2021-08-11T06:29:54Z</time>
      </trkpt>
      <trkpt lat="42.7112300" lon="1.4290850">
        <ele>1182.3</ele>
        <time>2021-08-11T06:30:11Z</time>
      </trkpt>
      <trkpt lat="42.7111290" lon="1.4288730">
        <ele>1182.8</ele>
        <time>2021-08-11T06:30:31Z</time>
      </trkpt>
      <trkpt lat="42.7110450" lon="1.4286570">
        <ele>1183.3</ele>
        <time>2021-08-11T06:30:49Z</time>
      </trkpt>
      <trkpt lat="42.7110110" lon="1.4285580">
        <ele>1183.6</ele>
        <time>2021-08-11T06:30:57Z</time>
      </trkpt>
      <trkpt lat="42.7109380" lon="1.4283360">
        <ele>1184.5</ele>
        <time>2021-08-11T06:31:17Z</time>
      </trkpt>
      <trkpt lat="42.7109150" lon="1.4281700">
        <ele>1185.2</ele>
        <time>2021-08-11T06:31:29Z</time>
      </trkpt>
      <trkpt lat="42.7108400" lon="1.4279440">
        <ele>1186.2</ele>
        <time>2021-08-11T06:31:45Z</time>
      </trkpt>
      <trkpt lat="42.7108220" lon="1.4279100">
        <ele>1186.3</ele>
        <time>2021-08-11T06:31:48Z</time>
      </trkpt>
      <trkpt lat="42.7107960" lon="1.4277720">
        <ele>1186.9</ele>
        <time>2021-08-11T06:32:00Z</time>
      </trkpt>
      <trkpt lat="42.7107940" lon="1.4277390">
        <ele>1187.0</ele>
        <time>2021-08-11T06:32:02Z</time>
      </trkpt>
      <trkpt lat="42.7107950" lon="1.4277110">
        <ele>1187.1</ele>
        <time>2021-08-11T06:32:04Z</time>
      </trkpt>
      <trkpt lat="42.7107940" lon="1.4276990">
        <ele>1187.1</ele>
        <time>2021-08-11T06:32:05Z</time>
      </trkpt>
      <trkpt lat="42.7107950" lon="1.4276860">
        <ele>1187.2</ele>
        <time>2021-08-11T06:32:06Z</time>
      </trkpt>
      <trkpt lat="42.7107930" lon="1.4276620">
        <ele>1187.2</ele>
        <time>2021-08-11T06:32:08Z</time>
      </trkpt>
      <trkpt lat="42.7107980" lon="1.4276280">
        <ele>1187.4</ele>
        <time>2021-08-11T06:32:11Z</time>
      </trkpt>
      <trkpt lat="42.7107990" lon="1.4276150">
        <ele>1187.4</ele>
        <time>2021-08-11T06:32:12Z</time>
      </trkpt>
      <trkpt lat="42.7107980" lon="1.4275540">
        <ele>1187.6</ele>
        <time>2021-08-11T06:32:16Z</time>
      </trkpt>
      <trkpt lat="42.7107920" lon="1.4275240">
        <ele>1187.7</ele>
        <time>2021-08-11T06:32:18Z</time>
      </trkpt>
      <trkpt lat="42.7107820" lon="1.4274610">
        <ele>1187.9</ele>
        <time>2021-08-11T06:32:23Z</time>
      </trkpt>
      <trkpt lat="42.7107770" lon="1.4274340">
        <ele>1188.0</ele>
        <time>2021-08-11T06:32:25Z</time>
      </trkpt>
      <trkpt lat="42.7107750" lon="1.4274220">
        <ele>1188.1</ele>
        <time>2021-08-11T06:32:26Z</time>
      </trkpt>
      <trkpt lat="42.7107710" lon="1.4274040">
        <ele>1188.2</ele>
        <time>2021-08-11T06:32:27Z</time>
      </trkpt>
      <trkpt lat="42.7107580" lon="1.4273280">
        <ele>1188.4</ele>
        <time>2021-08-11T06:32:32Z</time>
      </trkpt>
      <trkpt lat="42.7107070" lon="1.4270890">
        <ele>1189.3</ele>
        <time>2021-08-11T06:32:49Z</time>
      </trkpt>
      <trkpt lat="42.7107020" lon="1.4270310">
        <ele>1189.4</ele>
        <time>2021-08-11T06:32:53Z</time>
      </trkpt>
      <trkpt lat="42.7107020" lon="1.4270030">
        <ele>1189.5</ele>
        <time>2021-08-11T06:32:55Z</time>
      </trkpt>
      <trkpt lat="42.7106980" lon="1.4269800">
        <ele>1189.6</ele>
        <time>2021-08-11T06:32:57Z</time>
      </trkpt>
      <trkpt lat="42.7106890" lon="1.4267370">
        <ele>1190.1</ele>
        <time>2021-08-11T06:33:16Z</time>
      </trkpt>
      <trkpt lat="42.7106850" lon="1.4265810">
        <ele>1190.4</ele>
        <time>2021-08-11T06:33:26Z</time>
      </trkpt>
      <trkpt lat="42.7106300" lon="1.4263400">
        <ele>1190.7</ele>
        <time>2021-08-11T06:33:44Z</time>
      </trkpt>
      <trkpt lat="42.7105890" lon="1.4262600">
        <ele>1190.7</ele>
        <time>2021-08-11T06:33:51Z</time>
      </trkpt>
      <trkpt lat="42.7105750" lon="1.4261570">
        <ele>1190.6</ele>
        <time>2021-08-11T06:33:58Z</time>
      </trkpt>
      <trkpt lat="42.7105780" lon="1.4260070">
        <ele>1190.9</ele>
        <time>2021-08-11T06:34:08Z</time>
      </trkpt>
      <trkpt lat="42.7105770" lon="1.4259930">
        <ele>1191.0</ele>
        <time>2021-08-11T06:34:09Z</time>
      </trkpt>
      <trkpt lat="42.7105690" lon="1.4259440">
        <ele>1191.3</ele>
        <time>2021-08-11T06:34:13Z</time>
      </trkpt>
      <trkpt lat="42.7105430" lon="1.4256950">
        <ele>1193.0</ele>
        <time>2021-08-11T06:34:35Z</time>
      </trkpt>
      <trkpt lat="42.7105000" lon="1.4254560">
        <ele>1194.8</ele>
        <time>2021-08-11T06:34:53Z</time>
      </trkpt>
      <trkpt lat="42.7104680" lon="1.4253540">
        <ele>1195.7</ele>
        <time>2021-08-11T06:34:59Z</time>
      </trkpt>
      <trkpt lat="42.7104040" lon="1.4252450">
        <ele>1196.9</ele>
        <time>2021-08-11T06:35:08Z</time>
      </trkpt>
      <trkpt lat="42.7103570" lon="1.4251540">
        <ele>1197.7</ele>
        <time>2021-08-11T06:35:15Z</time>
      </trkpt>
      <trkpt lat="42.7102560" lon="1.4249460">
        <ele>1197.3</ele>
        <time>2021-08-11T06:35:34Z</time>
      </trkpt>
      <trkpt lat="42.7102350" lon="1.4248810">
        <ele>1197.3</ele>
        <time>2021-08-11T06:35:40Z</time>
      </trkpt>
      <trkpt lat="42.7102300" lon="1.4248680">
        <ele>1197.3</ele>
        <time>2021-08-11T06:35:41Z</time>
      </trkpt>
      <trkpt lat="42.7102290" lon="1.4248540">
        <ele>1197.3</ele>
        <time>2021-08-11T06:35:42Z</time>
      </trkpt>
      <trkpt lat="42.7102270" lon="1.4248380">
        <ele>1197.3</ele>
        <time>2021-08-11T06:35:43Z</time>
      </trkpt>
      <trkpt lat="42.7102270" lon="1.4248230">
        <ele>1197.3</ele>
        <time>2021-08-11T06:35:44Z</time>
      </trkpt>
      <trkpt lat="42.7102760" lon="1.4247360">
        <ele>1197.3</ele>
        <time>2021-08-11T06:36:02Z</time>
      </trkpt>
      <trkpt lat="42.7102640" lon="1.4248200">
        <ele>1197.2</ele>
        <time>2021-08-11T06:36:11Z</time>
      </trkpt>
      <trkpt lat="42.7102640" lon="1.4248530">
        <ele>1197.2</ele>
        <time>2021-08-11T06:36:16Z</time>
      </trkpt>
      <trkpt lat="42.7102730" lon="1.4248570">
        <ele>1197.2</ele>
        <time>2021-08-11T06:36:21Z</time>
      </trkpt>
      <trkpt lat="42.7102750" lon="1.4248570">
        <ele>1197.2</ele>
        <time>2021-08-11T06:36:23Z</time>
      </trkpt>
      <trkpt lat="42.7102410" lon="1.4248520">
        <ele>1197.2</ele>
        <time>2021-08-11T06:36:31Z</time>
      </trkpt>
      <trkpt lat="42.7101310" lon="1.4246610">
        <ele>1197.2</ele>
        <time>2021-08-11T06:36:59Z</time>
      </trkpt>
      <trkpt lat="42.7101180" lon="1.4246610">
        <ele>1197.2</ele>
        <time>2021-08-11T06:37:05Z</time>
      </trkpt>
      <trkpt lat="42.7101100" lon="1.4246730">
        <ele>1197.2</ele>
        <time>2021-08-11T06:37:08Z</time>
      </trkpt>
      <trkpt lat="42.7101070" lon="1.4246770">
        <ele>1197.2</ele>
        <time>2021-08-11T06:37:09Z</time>
      </trkpt>
      <trkpt lat="42.7101050" lon="1.4246760">
        <ele>1197.2</ele>
        <time>2021-08-11T06:37:13Z</time>
      </trkpt>
      <trkpt lat="42.7101220" lon="1.4246630">
        <ele>1197.2</ele>
        <time>2021-08-11T06:37:36Z</time>
      </trkpt>
      <trkpt lat="42.7103710" lon="1.4249040">
        <ele>1197.4</ele>
        <time>2021-08-11T06:43:53Z</time>
      </trkpt>
      <trkpt lat="42.7102210" lon="1.4247060">
        <ele>1197.6</ele>
        <time>2021-08-11T06:44:08Z</time>
      </trkpt>
      <trkpt lat="42.7102070" lon="1.4244700">
        <ele>1197.7</ele>
        <time>2021-08-11T06:44:34Z</time>
      </trkpt>
      <trkpt lat="42.7101370" lon="1.4242430">
        <ele>1197.9</ele>
        <time>2021-08-11T06:44:58Z</time>
      </trkpt>
      <trkpt lat="42.7101230" lon="1.4241850">
        <ele>1197.9</ele>
        <time>2021-08-11T06:45:03Z</time>
      </trkpt>
      <trkpt lat="42.7100820" lon="1.4241510">
        <ele>1198.0</ele>
        <time>2021-08-11T06:45:05Z</time>
      </trkpt>
      <trkpt lat="42.7100800" lon="1.4239200">
        <ele>1198.1</ele>
        <time>2021-08-11T06:45:22Z</time>
      </trkpt>
      <trkpt lat="42.7100770" lon="1.4238620">
        <ele>1198.1</ele>
        <time>2021-08-11T06:45:25Z</time>
      </trkpt>
      <trkpt lat="42.7100810" lon="1.4238210">
        <ele>1198.1</ele>
        <time>2021-08-11T06:45:28Z</time>
      </trkpt>
      <trkpt lat="42.7100840" lon="1.4238040">
        <ele>1198.2</ele>
        <time>2021-08-11T06:45:29Z</time>
      </trkpt>
      <trkpt lat="42.7100890" lon="1.4237870">
        <ele>1198.2</ele>
        <time>2021-08-11T06:45:30Z</time>
      </trkpt>
      <trkpt lat="42.7100720" lon="1.4237480">
        <ele>1198.2</ele>
        <time>2021-08-11T06:45:33Z</time>
      </trkpt>
      <trkpt lat="42.7100590" lon="1.4237240">
        <ele>1198.2</ele>
        <time>2021-08-11T06:45:35Z</time>
      </trkpt>
      <trkpt lat="42.7100830" lon="1.4236460">
        <ele>1198.3</ele>
        <time>2021-08-11T06:45:42Z</time>
      </trkpt>
      <trkpt lat="42.7100990" lon="1.4235540">
        <ele>1198.4</ele>
        <time>2021-08-11T06:45:56Z</time>
      </trkpt>
      <trkpt lat="42.7100360" lon="1.4234590">
        <ele>1198.5</ele>
        <time>2021-08-11T06:46:06Z</time>
      </trkpt>
      <trkpt lat="42.7100210" lon="1.4234350">
        <ele>1198.5</ele>
        <time>2021-08-11T06:46:07Z</time>
      </trkpt>
      <trkpt lat="42.7099150" lon="1.4233180">
        <ele>1198.6</ele>
        <time>2021-08-11T06:46:14Z</time>
      </trkpt>
      <trkpt lat="42.7099050" lon="1.4232810">
        <ele>1198.6</ele>
        <time>2021-08-11T06:46:16Z</time>
      </trkpt>
      <trkpt lat="42.7098520" lon="1.4230930">
        <ele>1198.8</ele>
        <time>2021-08-11T06:46:29Z</time>
      </trkpt>
      <trkpt lat="42.7098000" lon="1.4230190">
        <ele>1198.9</ele>
        <time>2021-08-11T06:46:33Z</time>
      </trkpt>
      <trkpt lat="42.7097950" lon="1.4229060">
        <ele>1199.0</ele>
        <time>2021-08-11T06:46:39Z</time>
      </trkpt>
      <trkpt lat="42.7098110" lon="1.4228590">
        <ele>1199.0</ele>
        <time>2021-08-11T06:46:42Z</time>
      </trkpt>
      <trkpt lat="42.7098390" lon="1.4226190">
        <ele>1199.1</ele>
        <time>2021-08-11T06:46:57Z</time>
      </trkpt>
      <trkpt lat="42.7097190" lon="1.4224390">
        <ele>1199.1</ele>
        <time>2021-08-11T06:47:11Z</time>
      </trkpt>
      <trkpt lat="42.7097170" lon="1.4224040">
        <ele>1199.1</ele>
        <time>2021-08-11T06:47:13Z</time>
      </trkpt>
      <trkpt lat="42.7096850" lon="1.4222870">
        <ele>1199.1</ele>
        <time>2021-08-11T06:47:21Z</time>
      </trkpt>
      <trkpt lat="42.7096750" lon="1.4221300">
        <ele>1199.2</ele>
        <time>2021-08-11T06:47:35Z</time>
      </trkpt>
      <trkpt lat="42.7096670" lon="1.4219810">
        <ele>1199.3</ele>
        <time>2021-08-11T06:47:48Z</time>
      </trkpt>
      <trkpt lat="42.7096810" lon="1.4219430">
        <ele>1199.4</ele>
        <time>2021-08-11T06:47:50Z</time>
      </trkpt>
      <trkpt lat="42.7096610" lon="1.4217510">
        <ele>1199.6</ele>
        <time>2021-08-11T06:48:00Z</time>
      </trkpt>
      <trkpt lat="42.7096520" lon="1.4215940">
        <ele>1199.9</ele>
        <time>2021-08-11T06:48:14Z</time>
      </trkpt>
      <trkpt lat="42.7095460" lon="1.4215090">
        <ele>1200.5</ele>
        <time>2021-08-11T06:48:35Z</time>
      </trkpt>
      <trkpt lat="42.7093940" lon="1.4214960">
        <ele>1201.9</ele>
        <time>2021-08-11T06:48:46Z</time>
      </trkpt>
      <trkpt lat="42.7093490" lon="1.4214840">
        <ele>1202.5</ele>
        <time>2021-08-11T06:48:49Z</time>
      </trkpt>
      <trkpt lat="42.7093370" lon="1.4214720">
        <ele>1202.7</ele>
        <time>2021-08-11T06:48:51Z</time>
      </trkpt>
      <trkpt lat="42.7093660" lon="1.4214470">
        <ele>1203.2</ele>
        <time>2021-08-11T06:48:52Z</time>
      </trkpt>
      <trkpt lat="42.7093870" lon="1.4214330">
        <ele>1203.5</ele>
        <time>2021-08-11T06:48:53Z</time>
      </trkpt>
      <trkpt lat="42.7094290" lon="1.4213870">
        <ele>1204.3</ele>
        <time>2021-08-11T06:48:58Z</time>
      </trkpt>
      <trkpt lat="42.7094010" lon="1.4211850">
        <ele>1207.0</ele>
        <time>2021-08-11T06:49:19Z</time>
      </trkpt>
      <trkpt lat="42.7094460" lon="1.4210970">
        <ele>1208.5</ele>
        <time>2021-08-11T06:49:26Z</time>
      </trkpt>
      <trkpt lat="42.7094850" lon="1.4210640">
        <ele>1209.4</ele>
        <time>2021-08-11T06:49:33Z</time>
      </trkpt>
      <trkpt lat="42.7094790" lon="1.4209620">
        <ele>1210.9</ele>
        <time>2021-08-11T06:49:44Z</time>
      </trkpt>
      <trkpt lat="42.7094030" lon="1.4209680">
        <ele>1212.4</ele>
        <time>2021-08-11T06:49:57Z</time>
      </trkpt>
      <trkpt lat="42.7093350" lon="1.4208570">
        <ele>1214.6</ele>
        <time>2021-08-11T06:50:03Z</time>
      </trkpt>
      <trkpt lat="42.7093150" lon="1.4206870">
        <ele>1215.7</ele>
        <time>2021-08-11T06:50:09Z</time>
      </trkpt>
      <trkpt lat="42.7092960" lon="1.4204440">
        <ele>1216.3</ele>
        <time>2021-08-11T06:50:25Z</time>
      </trkpt>
      <trkpt lat="42.7092500" lon="1.4202170">
        <ele>1216.6</ele>
        <time>2021-08-11T06:51:05Z</time>
      </trkpt>
      <trkpt lat="42.7093170" lon="1.4201520">
        <ele>1216.9</ele>
        <time>2021-08-11T06:51:11Z</time>
      </trkpt>
      <trkpt lat="42.7093170" lon="1.4200970">
        <ele>1217.1</ele>
        <time>2021-08-11T06:51:14Z</time>
      </trkpt>
      <trkpt lat="42.7092760" lon="1.4200290">
        <ele>1217.5</ele>
        <time>2021-08-11T06:51:21Z</time>
      </trkpt>
      <trkpt lat="42.7093530" lon="1.4198870">
        <ele>1218.6</ele>
        <time>2021-08-11T06:51:38Z</time>
      </trkpt>
      <trkpt lat="42.7094390" lon="1.4198210">
        <ele>1219.7</ele>
        <time>2021-08-11T06:51:45Z</time>
      </trkpt>
      <trkpt lat="42.7094300" lon="1.4196590">
        <ele>1221.1</ele>
        <time>2021-08-11T06:52:02Z</time>
      </trkpt>
      <trkpt lat="42.7094590" lon="1.4194650">
        <ele>1222.7</ele>
        <time>2021-08-11T06:52:21Z</time>
      </trkpt>
      <trkpt lat="42.7094860" lon="1.4192240">
        <ele>1224.1</ele>
        <time>2021-08-11T06:52:44Z</time>
      </trkpt>
      <trkpt lat="42.7094690" lon="1.4191140">
        <ele>1224.1</ele>
        <time>2021-08-11T06:52:51Z</time>
      </trkpt>
      <trkpt lat="42.7094500" lon="1.4190100">
        <ele>1223.8</ele>
        <time>2021-08-11T06:52:58Z</time>
      </trkpt>
      <trkpt lat="42.7094490" lon="1.4187320">
        <ele>1221.9</ele>
        <time>2021-08-11T06:53:16Z</time>
      </trkpt>
      <trkpt lat="42.7094160" lon="1.4184850">
        <ele>1221.2</ele>
        <time>2021-08-11T06:53:31Z</time>
      </trkpt>
      <trkpt lat="42.7094410" lon="1.4184460">
        <ele>1221.2</ele>
        <time>2021-08-11T06:53:52Z</time>
      </trkpt>
      <trkpt lat="42.7094510" lon="1.4182170">
        <ele>1222.2</ele>
        <time>2021-08-11T06:54:06Z</time>
      </trkpt>
      <trkpt lat="42.7093830" lon="1.4180340">
        <ele>1223.2</ele>
        <time>2021-08-11T06:54:22Z</time>
      </trkpt>
      <trkpt lat="42.7093630" lon="1.4177980">
        <ele>1224.1</ele>
        <time>2021-08-11T06:54:45Z</time>
      </trkpt>
      <trkpt lat="42.7093410" lon="1.4177660">
        <ele>1224.3</ele>
        <time>2021-08-11T06:54:48Z</time>
      </trkpt>
      <trkpt lat="42.7093240" lon="1.4177520">
        <ele>1224.4</ele>
        <time>2021-08-11T06:54:50Z</time>
      </trkpt>
      <trkpt lat="42.7093280" lon="1.4177440">
        <ele>1224.5</ele>
        <time>2021-08-11T06:54:51Z</time>
      </trkpt>
      <trkpt lat="42.7092690" lon="1.4177000">
        <ele>1225.0</ele>
        <time>2021-08-11T06:55:00Z</time>
      </trkpt>
      <trkpt lat="42.7092730" lon="1.4176380">
        <ele>1225.4</ele>
        <time>2021-08-11T06:55:07Z</time>
      </trkpt>
      <trkpt lat="42.7092800" lon="1.4176220">
        <ele>1225.5</ele>
        <time>2021-08-11T06:55:08Z</time>
      </trkpt>
      <trkpt lat="42.7093190" lon="1.4175550">
        <ele>1226.1</ele>
        <time>2021-08-11T06:55:12Z</time>
      </trkpt>
      <trkpt lat="42.7092810" lon="1.4174100">
        <ele>1227.1</ele>
        <time>2021-08-11T06:55:25Z</time>
      </trkpt>
      <trkpt lat="42.7091900" lon="1.4172200">
        <ele>1228.6</ele>
        <time>2021-08-11T06:55:48Z</time>
      </trkpt>
      <trkpt lat="42.7092050" lon="1.4171720">
        <ele>1228.9</ele>
        <time>2021-08-11T06:55:52Z</time>
      </trkpt>
      <trkpt lat="42.7092050" lon="1.4171020">
        <ele>1229.5</ele>
        <time>2021-08-11T06:56:01Z</time>
      </trkpt>
      <trkpt lat="42.7091560" lon="1.4170160">
        <ele>1230.4</ele>
        <time>2021-08-11T06:56:09Z</time>
      </trkpt>
      <trkpt lat="42.7092090" lon="1.4168950">
        <ele>1231.7</ele>
        <time>2021-08-11T06:56:21Z</time>
      </trkpt>
      <trkpt lat="42.7091940" lon="1.4168680">
        <ele>1232.0</ele>
        <time>2021-08-11T06:56:24Z</time>
      </trkpt>
      <trkpt lat="42.7091750" lon="1.4168490">
        <ele>1232.3</ele>
        <time>2021-08-11T06:56:26Z</time>
      </trkpt>
      <trkpt lat="42.7091600" lon="1.4168250">
        <ele>1232.6</ele>
        <time>2021-08-11T06:56:29Z</time>
      </trkpt>
      <trkpt lat="42.7090900" lon="1.4165910">
        <ele>1234.8</ele>
        <time>2021-08-11T06:56:47Z</time>
      </trkpt>
      <trkpt lat="42.7091100" lon="1.4165430">
        <ele>1235.2</ele>
        <time>2021-08-11T06:56:53Z</time>
      </trkpt>
      <trkpt lat="42.7091410" lon="1.4164530">
        <ele>1235.8</ele>
        <time>2021-08-11T06:57:00Z</time>
      </trkpt>
      <trkpt lat="42.7090810" lon="1.4162890">
        <ele>1237.1</ele>
        <time>2021-08-11T06:57:18Z</time>
      </trkpt>
      <trkpt lat="42.7090750" lon="1.4162770">
        <ele>1237.2</ele>
        <time>2021-08-11T06:57:19Z</time>
      </trkpt>
      <trkpt lat="42.7090050" lon="1.4161170">
        <ele>1238.5</ele>
        <time>2021-08-11T06:57:36Z</time>
      </trkpt>
      <trkpt lat="42.7090030" lon="1.4160840">
        <ele>1238.7</ele>
        <time>2021-08-11T06:57:39Z</time>
      </trkpt>
      <trkpt lat="42.7090030" lon="1.4160480">
        <ele>1239.0</ele>
        <time>2021-08-11T06:57:42Z</time>
      </trkpt>
      <trkpt lat="42.7089770" lon="1.4159170">
        <ele>1239.9</ele>
        <time>2021-08-11T06:57:55Z</time>
      </trkpt>
      <trkpt lat="42.7090090" lon="1.4158170">
        <ele>1240.8</ele>
        <time>2021-08-11T06:58:05Z</time>
      </trkpt>
      <trkpt lat="42.7090460" lon="1.4156060">
        <ele>1242.9</ele>
        <time>2021-08-11T06:58:30Z</time>
      </trkpt>
      <trkpt lat="42.7090800" lon="1.4154780">
        <ele>1244.4</ele>
        <time>2021-08-11T06:58:47Z</time>
      </trkpt>
      <trkpt lat="42.7090710" lon="1.4153290">
        <ele>1246.3</ele>
        <time>2021-08-11T06:59:17Z</time>
      </trkpt>
      <trkpt lat="42.7091220" lon="1.4153280">
        <ele>1247.4</ele>
        <time>2021-08-11T06:59:26Z</time>
      </trkpt>
      <trkpt lat="42.7091400" lon="1.4153330">
        <ele>1247.8</ele>
        <time>2021-08-11T06:59:31Z</time>
      </trkpt>
      <trkpt lat="42.7091000" lon="1.4153560">
        <ele>1248.7</ele>
        <time>2021-08-11T06:59:35Z</time>
      </trkpt>
      <trkpt lat="42.7090870" lon="1.4153490">
        <ele>1249.0</ele>
        <time>2021-08-11T06:59:42Z</time>
      </trkpt>
      <trkpt lat="42.7090220" lon="1.4153570">
        <ele>1250.5</ele>
        <time>2021-08-11T06:59:50Z</time>
      </trkpt>
      <trkpt lat="42.7089770" lon="1.4153260">
        <ele>1251.6</ele>
        <time>2021-08-11T06:59:58Z</time>
      </trkpt>
      <trkpt lat="42.7089700" lon="1.4153090">
        <ele>1251.9</ele>
        <time>2021-08-11T07:00:01Z</time>
      </trkpt>
      <trkpt lat="42.7089550" lon="1.4153020">
        <ele>1252.2</ele>
        <time>2021-08-11T07:00:04Z</time>
      </trkpt>
      <trkpt lat="42.7089520" lon="1.4153010">
        <ele>1252.3</ele>
        <time>2021-08-11T07:00:05Z</time>
      </trkpt>
      <trkpt lat="42.7089460" lon="1.4152960">
        <ele>1252.4</ele>
        <time>2021-08-11T07:00:06Z</time>
      </trkpt>
      <trkpt lat="42.7088440" lon="1.4152590">
        <ele>1254.8</ele>
        <time>2021-08-11T07:00:27Z</time>
      </trkpt>
      <trkpt lat="42.7088300" lon="1.4152670">
        <ele>1255.1</ele>
        <time>2021-08-11T07:00:29Z</time>
      </trkpt>
      <trkpt lat="42.7087340" lon="1.4153440">
        <ele>1257.6</ele>
        <time>2021-08-11T07:00:47Z</time>
      </trkpt>
      <trkpt lat="42.7087140" lon="1.4153440">
        <ele>1258.0</ele>
        <time>2021-08-11T07:00:50Z</time>
      </trkpt>
      <trkpt lat="42.7087010" lon="1.4153550">
        <ele>1258.3</ele>
        <time>2021-08-11T07:00:53Z</time>
      </trkpt>
      <trkpt lat="42.7086950" lon="1.4153690">
        <ele>1258.6</ele>
        <time>2021-08-11T07:00:56Z</time>
      </trkpt>
      <trkpt lat="42.7086650" lon="1.4153480">
        <ele>1259.3</ele>
        <time>2021-08-11T07:01:14Z</time>
      </trkpt>
      <trkpt lat="42.7085740" lon="1.4152970">
        <ele>1261.5</ele>
        <time>2021-08-11T07:01:31Z</time>
      </trkpt>
      <trkpt lat="42.7085290" lon="1.4154300">
        <ele>1263.9</ele>
        <time>2021-08-11T07:01:58Z</time>
      </trkpt>
      <trkpt lat="42.7085230" lon="1.4155640">
        <ele>1266.0</ele>
        <time>2021-08-11T07:02:09Z</time>
      </trkpt>
      <trkpt lat="42.7083810" lon="1.4156790">
        <ele>1269.7</ele>
        <time>2021-08-11T07:02:36Z</time>
      </trkpt>
      <trkpt lat="42.7083010" lon="1.4157720">
        <ele>1272.0</ele>
        <time>2021-08-11T07:02:55Z</time>
      </trkpt>
      <trkpt lat="42.7082160" lon="1.4158750">
        <ele>1274.5</ele>
        <time>2021-08-11T07:03:42Z</time>
      </trkpt>
      <trkpt lat="42.7081870" lon="1.4159270">
        <ele>1275.6</ele>
        <time>2021-08-11T07:03:52Z</time>
      </trkpt>
      <trkpt lat="42.7081100" lon="1.4160860">
        <ele>1278.6</ele>
        <time>2021-08-11T07:04:31Z</time>
      </trkpt>
      <trkpt lat="42.7081010" lon="1.4160310">
        <ele>1279.6</ele>
        <time>2021-08-11T07:04:47Z</time>
      </trkpt>
      <trkpt lat="42.7080100" lon="1.4161740">
        <ele>1282.6</ele>
        <time>2021-08-11T07:05:24Z</time>
      </trkpt>
      <trkpt lat="42.7080290" lon="1.4161600">
        <ele>1283.1</ele>
        <time>2021-08-11T07:05:29Z</time>
      </trkpt>
      <trkpt lat="42.7080110" lon="1.4161410">
        <ele>1283.6</ele>
        <time>2021-08-11T07:05:35Z</time>
      </trkpt>
      <trkpt lat="42.7079160" lon="1.4160900">
        <ele>1285.8</ele>
        <time>2021-08-11T07:05:59Z</time>
      </trkpt>
      <trkpt lat="42.7078940" lon="1.4160980">
        <ele>1286.3</ele>
        <time>2021-08-11T07:06:03Z</time>
      </trkpt>
      <trkpt lat="42.7078900" lon="1.4160970">
        <ele>1286.4</ele>
        <time>2021-08-11T07:06:04Z</time>
      </trkpt>
      <trkpt lat="42.7078860" lon="1.4160960">
        <ele>1286.5</ele>
        <time>2021-08-11T07:06:05Z</time>
      </trkpt>
      <trkpt lat="42.7078700" lon="1.4160900">
        <ele>1286.9</ele>
        <time>2021-08-11T07:06:07Z</time>
      </trkpt>
      <trkpt lat="42.7078660" lon="1.4160910">
        <ele>1287.0</ele>
        <time>2021-08-11T07:06:08Z</time>
      </trkpt>
      <trkpt lat="42.7078590" lon="1.4160890">
        <ele>1287.1</ele>
        <time>2021-08-11T07:06:10Z</time>
      </trkpt>
      <trkpt lat="42.7078590" lon="1.4160910">
        <ele>1287.2</ele>
        <time>2021-08-11T07:06:11Z</time>
      </trkpt>
      <trkpt lat="42.7078600" lon="1.4160980">
        <ele>1287.3</ele>
        <time>2021-08-11T07:06:12Z</time>
      </trkpt>
      <trkpt lat="42.7078620" lon="1.4161040">
        <ele>1287.4</ele>
        <time>2021-08-11T07:06:13Z</time>
      </trkpt>
      <trkpt lat="42.7078630" lon="1.4161110">
        <ele>1287.5</ele>
        <time>2021-08-11T07:06:14Z</time>
      </trkpt>
      <trkpt lat="42.7078610" lon="1.4161160">
        <ele>1287.6</ele>
        <time>2021-08-11T07:06:15Z</time>
      </trkpt>
      <trkpt lat="42.7078640" lon="1.4161170">
        <ele>1287.7</ele>
        <time>2021-08-11T07:06:16Z</time>
      </trkpt>
      <trkpt lat="42.7078550" lon="1.4161310">
        <ele>1288.0</ele>
        <time>2021-08-11T07:06:20Z</time>
      </trkpt>
      <trkpt lat="42.7078570" lon="1.4161550">
        <ele>1288.4</ele>
        <time>2021-08-11T07:06:23Z</time>
      </trkpt>
      <trkpt lat="42.7078640" lon="1.4161840">
        <ele>1288.8</ele>
        <time>2021-08-11T07:06:29Z</time>
      </trkpt>
      <trkpt lat="42.7078650" lon="1.4161860">
        <ele>1288.9</ele>
        <time>2021-08-11T07:06:30Z</time>
      </trkpt>
      <trkpt lat="42.7078610" lon="1.4161870">
        <ele>1289.0</ele>
        <time>2021-08-11T07:06:31Z</time>
      </trkpt>
      <trkpt lat="42.7077480" lon="1.4163390">
        <ele>1292.5</ele>
        <time>2021-08-11T07:06:57Z</time>
      </trkpt>
      <trkpt lat="42.7076220" lon="1.4163900">
        <ele>1295.4</ele>
        <time>2021-08-11T07:07:35Z</time>
      </trkpt>
      <trkpt lat="42.7074760" lon="1.4165290">
        <ele>1299.3</ele>
        <time>2021-08-11T07:08:01Z</time>
      </trkpt>
      <trkpt lat="42.7075660" lon="1.4166050">
        <ele>1301.6</ele>
        <time>2021-08-11T07:08:49Z</time>
      </trkpt>
      <trkpt lat="42.7075140" lon="1.4166190">
        <ele>1302.8</ele>
        <time>2021-08-11T07:08:55Z</time>
      </trkpt>
      <trkpt lat="42.7074590" lon="1.4166290">
        <ele>1304.0</ele>
        <time>2021-08-11T07:09:00Z</time>
      </trkpt>
      <trkpt lat="42.7074200" lon="1.4166390">
        <ele>1304.9</ele>
        <time>2021-08-11T07:09:06Z</time>
      </trkpt>
      <trkpt lat="42.7074150" lon="1.4166400">
        <ele>1305.0</ele>
        <time>2021-08-11T07:09:07Z</time>
      </trkpt>
      <trkpt lat="42.7074080" lon="1.4166360">
        <ele>1305.2</ele>
        <time>2021-08-11T07:09:08Z</time>
      </trkpt>
      <trkpt lat="42.7074080" lon="1.4166340">
        <ele>1305.2</ele>
        <time>2021-08-11T07:09:09Z</time>
      </trkpt>
      <trkpt lat="42.7073980" lon="1.4166170">
        <ele>1305.5</ele>
        <time>2021-08-11T07:09:14Z</time>
      </trkpt>
      <trkpt lat="42.7074070" lon="1.4166230">
        <ele>1305.8</ele>
        <time>2021-08-11T07:09:17Z</time>
      </trkpt>
      <trkpt lat="42.7073800" lon="1.4166330">
        <ele>1306.4</ele>
        <time>2021-08-11T07:09:21Z</time>
      </trkpt>
      <trkpt lat="42.7073650" lon="1.4166400">
        <ele>1306.7</ele>
        <time>2021-08-11T07:09:27Z</time>
      </trkpt>
      <trkpt lat="42.7073410" lon="1.4166670">
        <ele>1307.4</ele>
        <time>2021-08-11T07:09:34Z</time>
      </trkpt>
      <trkpt lat="42.7073600" lon="1.4166990">
        <ele>1308.1</ele>
        <time>2021-08-11T07:09:38Z</time>
      </trkpt>
      <trkpt lat="42.7073450" lon="1.4167920">
        <ele>1309.6</ele>
        <time>2021-08-11T07:09:57Z</time>
      </trkpt>
      <trkpt lat="42.7072100" lon="1.4169430">
        <ele>1313.5</ele>
        <time>2021-08-11T07:10:20Z</time>
      </trkpt>
      <trkpt lat="42.7071710" lon="1.4170770">
        <ele>1315.8</ele>
        <time>2021-08-11T07:10:42Z</time>
      </trkpt>
      <trkpt lat="42.7071750" lon="1.4170910">
        <ele>1316.0</ele>
        <time>2021-08-11T07:10:45Z</time>
      </trkpt>
      <trkpt lat="42.7071800" lon="1.4171120">
        <ele>1316.4</ele>
        <time>2021-08-11T07:10:50Z</time>
      </trkpt>
      <trkpt lat="42.7070820" lon="1.4170140">
        <ele>1319.1</ele>
        <time>2021-08-11T07:11:25Z</time>
      </trkpt>
      <trkpt lat="42.7070690" lon="1.4167800">
        <ele>1322.9</ele>
        <time>2021-08-11T07:11:52Z</time>
      </trkpt>
      <trkpt lat="42.7069840" lon="1.4165950">
        <ele>1326.4</ele>
        <time>2021-08-11T07:12:22Z</time>
      </trkpt>
      <trkpt lat="42.7069460" lon="1.4164010">
        <ele>1329.7</ele>
        <time>2021-08-11T07:12:51Z</time>
      </trkpt>
      <trkpt lat="42.7069440" lon="1.4162320">
        <ele>1332.4</ele>
        <time>2021-08-11T07:13:08Z</time>
      </trkpt>
      <trkpt lat="42.7068920" lon="1.4160100">
        <ele>1336.2</ele>
        <time>2021-08-11T07:13:39Z</time>
      </trkpt>
      <trkpt lat="42.7068580" lon="1.4159720">
        <ele>1337.1</ele>
        <time>2021-08-11T07:13:44Z</time>
      </trkpt>
      <trkpt lat="42.7068450" lon="1.4159450">
        <ele>1337.7</ele>
        <time>2021-08-11T07:13:59Z</time>
      </trkpt>
      <trkpt lat="42.7067650" lon="1.4157500">
        <ele>1341.3</ele>
        <time>2021-08-11T07:14:35Z</time>
      </trkpt>
      <trkpt lat="42.7067650" lon="1.4157320">
        <ele>1341.6</ele>
        <time>2021-08-11T07:14:37Z</time>
      </trkpt>
      <trkpt lat="42.7067700" lon="1.4157120">
        <ele>1341.9</ele>
        <time>2021-08-11T07:14:39Z</time>
      </trkpt>
      <trkpt lat="42.7067570" lon="1.4156900">
        <ele>1342.4</ele>
        <time>2021-08-11T07:14:42Z</time>
      </trkpt>
      <trkpt lat="42.7067350" lon="1.4156750">
        <ele>1342.9</ele>
        <time>2021-08-11T07:14:59Z</time>
      </trkpt>
      <trkpt lat="42.7067420" lon="1.4156560">
        <ele>1343.2</ele>
        <time>2021-08-11T07:15:16Z</time>
      </trkpt>
      <trkpt lat="42.7067380" lon="1.4156500">
        <ele>1343.4</ele>
        <time>2021-08-11T07:15:17Z</time>
      </trkpt>
      <trkpt lat="42.7068010" lon="1.4156210">
        <ele>1344.8</ele>
        <time>2021-08-11T07:15:33Z</time>
      </trkpt>
      <trkpt lat="42.7067120" lon="1.4156300">
        <ele>1346.8</ele>
        <time>2021-08-11T07:15:43Z</time>
      </trkpt>
      <trkpt lat="42.7067210" lon="1.4156260">
        <ele>1347.0</ele>
        <time>2021-08-11T07:15:45Z</time>
      </trkpt>
      <trkpt lat="42.7066980" lon="1.4155390">
        <ele>1348.5</ele>
        <time>2021-08-11T07:16:00Z</time>
      </trkpt>
      <trkpt lat="42.7066940" lon="1.4154620">
        <ele>1349.8</ele>
        <time>2021-08-11T07:16:08Z</time>
      </trkpt>
      <trkpt lat="42.7066830" lon="1.4154390">
        <ele>1350.2</ele>
        <time>2021-08-11T07:16:13Z</time>
      </trkpt>
      <trkpt lat="42.7066800" lon="1.4153890">
        <ele>1351.0</ele>
        <time>2021-08-11T07:16:25Z</time>
      </trkpt>
      <trkpt lat="42.7066910" lon="1.4153670">
        <ele>1351.4</ele>
        <time>2021-08-11T07:16:38Z</time>
      </trkpt>
      <trkpt lat="42.7066850" lon="1.4152860">
        <ele>1352.8</ele>
        <time>2021-08-11T07:16:52Z</time>
      </trkpt>
      <trkpt lat="42.7067000" lon="1.4152390">
        <ele>1353.6</ele>
        <time>2021-08-11T07:17:02Z</time>
      </trkpt>
      <trkpt lat="42.7066980" lon="1.4152280">
        <ele>1353.8</ele>
        <time>2021-08-11T07:17:04Z</time>
      </trkpt>
      <trkpt lat="42.7066990" lon="1.4152200">
        <ele>1353.9</ele>
        <time>2021-08-11T07:17:07Z</time>
      </trkpt>
      <trkpt lat="42.7067010" lon="1.4152040">
        <ele>1354.2</ele>
        <time>2021-08-11T07:17:09Z</time>
      </trkpt>
      <trkpt lat="42.7067010" lon="1.4151960">
        <ele>1354.3</ele>
        <time>2021-08-11T07:17:10Z</time>
      </trkpt>
      <trkpt lat="42.7067770" lon="1.4151970">
        <ele>1356.0</ele>
        <time>2021-08-11T07:17:28Z</time>
      </trkpt>
      <trkpt lat="42.7067790" lon="1.4151950">
        <ele>1356.0</ele>
        <time>2021-08-11T07:17:30Z</time>
      </trkpt>
      <trkpt lat="42.7067480" lon="1.4151920">
        <ele>1356.7</ele>
        <time>2021-08-11T07:17:44Z</time>
      </trkpt>
      <trkpt lat="42.7067660" lon="1.4151830">
        <ele>1357.1</ele>
        <time>2021-08-11T07:17:50Z</time>
      </trkpt>
      <trkpt lat="42.7067900" lon="1.4151830">
        <ele>1357.7</ele>
        <time>2021-08-11T07:17:53Z</time>
      </trkpt>
      <trkpt lat="42.7067890" lon="1.4151820">
        <ele>1357.7</ele>
        <time>2021-08-11T07:17:54Z</time>
      </trkpt>
      <trkpt lat="42.7067950" lon="1.4151840">
        <ele>1357.8</ele>
        <time>2021-08-11T07:17:55Z</time>
      </trkpt>
      <trkpt lat="42.7067970" lon="1.4151860">
        <ele>1357.9</ele>
        <time>2021-08-11T07:17:56Z</time>
      </trkpt>
      <trkpt lat="42.7067870" lon="1.4152070">
        <ele>1358.3</ele>
        <time>2021-08-11T07:18:22Z</time>
      </trkpt>
      <trkpt lat="42.7067420" lon="1.4152210">
        <ele>1359.3</ele>
        <time>2021-08-11T07:18:32Z</time>
      </trkpt>
      <trkpt lat="42.7067390" lon="1.4150470">
        <ele>1362.1</ele>
        <time>2021-08-11T07:19:47Z</time>
      </trkpt>
      <trkpt lat="42.7067420" lon="1.4150440">
        <ele>1362.2</ele>
        <time>2021-08-11T07:19:48Z</time>
      </trkpt>
      <trkpt lat="42.7067380" lon="1.4149240">
        <ele>1364.1</ele>
        <time>2021-08-11T07:19:57Z</time>
      </trkpt>
      <trkpt lat="42.7067350" lon="1.4149140">
        <ele>1364.3</ele>
        <time>2021-08-11T07:19:58Z</time>
      </trkpt>
      <trkpt lat="42.7067390" lon="1.4149030">
        <ele>1364.5</ele>
        <time>2021-08-11T07:19:59Z</time>
      </trkpt>
      <trkpt lat="42.7067390" lon="1.4148930">
        <ele>1364.7</ele>
        <time>2021-08-11T07:20:00Z</time>
      </trkpt>
      <trkpt lat="42.7067460" lon="1.4148630">
        <ele>1365.2</ele>
        <time>2021-08-11T07:20:03Z</time>
      </trkpt>
      <trkpt lat="42.7067470" lon="1.4148600">
        <ele>1365.2</ele>
        <time>2021-08-11T07:20:04Z</time>
      </trkpt>
      <trkpt lat="42.7067410" lon="1.4148510">
        <ele>1365.4</ele>
        <time>2021-08-11T07:20:09Z</time>
      </trkpt>
      <trkpt lat="42.7067140" lon="1.4146000">
        <ele>1369.5</ele>
        <time>2021-08-11T07:20:30Z</time>
      </trkpt>
      <trkpt lat="42.7067850" lon="1.4142990">
        <ele>1374.6</ele>
        <time>2021-08-11T07:21:03Z</time>
      </trkpt>
      <trkpt lat="42.7068370" lon="1.4140760">
        <ele>1378.4</ele>
        <time>2021-08-11T07:21:27Z</time>
      </trkpt>
      <trkpt lat="42.7068220" lon="1.4138220">
        <ele>1382.6</ele>
        <time>2021-08-11T07:21:52Z</time>
      </trkpt>
      <trkpt lat="42.7068500" lon="1.4137420">
        <ele>1384.0</ele>
        <time>2021-08-11T07:22:03Z</time>
      </trkpt>
      <trkpt lat="42.7068580" lon="1.4136380">
        <ele>1385.7</ele>
        <time>2021-08-11T07:22:13Z</time>
      </trkpt>
      <trkpt lat="42.7068490" lon="1.4135680">
        <ele>1386.8</ele>
        <time>2021-08-11T07:22:18Z</time>
      </trkpt>
      <trkpt lat="42.7068370" lon="1.4135150">
        <ele>1387.7</ele>
        <time>2021-08-11T07:22:25Z</time>
      </trkpt>
      <trkpt lat="42.7068940" lon="1.4134590">
        <ele>1389.3</ele>
        <time>2021-08-11T07:22:40Z</time>
      </trkpt>
      <trkpt lat="42.7069340" lon="1.4134500">
        <ele>1390.2</ele>
        <time>2021-08-11T07:22:44Z</time>
      </trkpt>
      <trkpt lat="42.7069280" lon="1.4134510">
        <ele>1390.3</ele>
        <time>2021-08-11T07:22:45Z</time>
      </trkpt>
      <trkpt lat="42.7069220" lon="1.4134600">
        <ele>1390.5</ele>
        <time>2021-08-11T07:22:46Z</time>
      </trkpt>
      <trkpt lat="42.7069060" lon="1.4134760">
        <ele>1390.9</ele>
        <time>2021-08-11T07:22:51Z</time>
      </trkpt>
      <trkpt lat="42.7069190" lon="1.4133170">
        <ele>1393.5</ele>
        <time>2021-08-11T07:23:16Z</time>
      </trkpt>
      <trkpt lat="42.7068920" lon="1.4132540">
        <ele>1394.7</ele>
        <time>2021-08-11T07:23:20Z</time>
      </trkpt>
      <trkpt lat="42.7068690" lon="1.4131680">
        <ele>1396.2</ele>
        <time>2021-08-11T07:23:28Z</time>
      </trkpt>
      <trkpt lat="42.7068630" lon="1.4131540">
        <ele>1396.4</ele>
        <time>2021-08-11T07:23:29Z</time>
      </trkpt>
      <trkpt lat="42.7068670" lon="1.4131300">
        <ele>1396.8</ele>
        <time>2021-08-11T07:23:31Z</time>
      </trkpt>
      <trkpt lat="42.7068580" lon="1.4130890">
        <ele>1397.5</ele>
        <time>2021-08-11T07:23:36Z</time>
      </trkpt>
      <trkpt lat="42.7068630" lon="1.4130770">
        <ele>1397.8</ele>
        <time>2021-08-11T07:23:38Z</time>
      </trkpt>
      <trkpt lat="42.7068600" lon="1.4130670">
        <ele>1397.9</ele>
        <time>2021-08-11T07:23:39Z</time>
      </trkpt>
      <trkpt lat="42.7068580" lon="1.4130620">
        <ele>1398.0</ele>
        <time>2021-08-11T07:23:40Z</time>
      </trkpt>
      <trkpt lat="42.7068460" lon="1.4129540">
        <ele>1399.8</ele>
        <time>2021-08-11T07:23:50Z</time>
      </trkpt>
      <trkpt lat="42.7068440" lon="1.4128330">
        <ele>1401.7</ele>
        <time>2021-08-11T07:24:00Z</time>
      </trkpt>
      <trkpt lat="42.7068500" lon="1.4127260">
        <ele>1403.5</ele>
        <time>2021-08-11T07:24:12Z</time>
      </trkpt>
      <trkpt lat="42.7068550" lon="1.4126880">
        <ele>1404.1</ele>
        <time>2021-08-11T07:24:15Z</time>
      </trkpt>
      <trkpt lat="42.7068500" lon="1.4126690">
        <ele>1404.4</ele>
        <time>2021-08-11T07:24:17Z</time>
      </trkpt>
      <trkpt lat="42.7068500" lon="1.4126230">
        <ele>1405.2</ele>
        <time>2021-08-11T07:24:22Z</time>
      </trkpt>
      <trkpt lat="42.7069090" lon="1.4125100">
        <ele>1407.4</ele>
        <time>2021-08-11T07:24:35Z</time>
      </trkpt>
      <trkpt lat="42.7070160" lon="1.4122950">
        <ele>1411.6</ele>
        <time>2021-08-11T07:24:55Z</time>
      </trkpt>
      <trkpt lat="42.7069960" lon="1.4121940">
        <ele>1413.3</ele>
        <time>2021-08-11T07:25:07Z</time>
      </trkpt>
      <trkpt lat="42.7070040" lon="1.4119570">
        <ele>1417.2</ele>
        <time>2021-08-11T07:25:33Z</time>
      </trkpt>
      <trkpt lat="42.7070690" lon="1.4117230">
        <ele>1421.2</ele>
        <time>2021-08-11T07:26:03Z</time>
      </trkpt>
      <trkpt lat="42.7070280" lon="1.4115090">
        <ele>1424.8</ele>
        <time>2021-08-11T07:26:29Z</time>
      </trkpt>
      <trkpt lat="42.7070330" lon="1.4114980">
        <ele>1425.0</ele>
        <time>2021-08-11T07:26:31Z</time>
      </trkpt>
      <trkpt lat="42.7070180" lon="1.4114620">
        <ele>1425.7</ele>
        <time>2021-08-11T07:26:36Z</time>
      </trkpt>
      <trkpt lat="42.7069670" lon="1.4113530">
        <ele>1427.7</ele>
        <time>2021-08-11T07:26:52Z</time>
      </trkpt>
      <trkpt lat="42.7069640" lon="1.4113470">
        <ele>1427.9</ele>
        <time>2021-08-11T07:26:53Z</time>
      </trkpt>
      <trkpt lat="42.7069700" lon="1.4113070">
        <ele>1428.5</ele>
        <time>2021-08-11T07:26:58Z</time>
      </trkpt>
      <trkpt lat="42.7069710" lon="1.4112970">
        <ele>1428.7</ele>
        <time>2021-08-11T07:26:59Z</time>
      </trkpt>
      <trkpt lat="42.7069830" lon="1.4112600">
        <ele>1429.3</ele>
        <time>2021-08-11T07:27:03Z</time>
      </trkpt>
      <trkpt lat="42.7069970" lon="1.4110440">
        <ele>1432.8</ele>
        <time>2021-08-11T07:27:47Z</time>
      </trkpt>
      <trkpt lat="42.7069350" lon="1.4109630">
        <ele>1434.7</ele>
        <time>2021-08-11T07:27:56Z</time>
      </trkpt>
      <trkpt lat="42.7069480" lon="1.4109180">
        <ele>1435.5</ele>
        <time>2021-08-11T07:28:03Z</time>
      </trkpt>
      <trkpt lat="42.7069310" lon="1.4108950">
        <ele>1436.0</ele>
        <time>2021-08-11T07:28:05Z</time>
      </trkpt>
      <trkpt lat="42.7069260" lon="1.4108640">
        <ele>1436.6</ele>
        <time>2021-08-11T07:28:11Z</time>
      </trkpt>
      <trkpt lat="42.7069230" lon="1.4108690">
        <ele>1436.7</ele>
        <time>2021-08-11T07:28:12Z</time>
      </trkpt>
      <trkpt lat="42.7069150" lon="1.4108620">
        <ele>1436.9</ele>
        <time>2021-08-11T07:28:13Z</time>
      </trkpt>
      <trkpt lat="42.7069130" lon="1.4108600">
        <ele>1436.9</ele>
        <time>2021-08-11T07:28:14Z</time>
      </trkpt>
      <trkpt lat="42.7069110" lon="1.4108550">
        <ele>1437.0</ele>
        <time>2021-08-11T07:28:15Z</time>
      </trkpt>
      <trkpt lat="42.7068980" lon="1.4108270">
        <ele>1437.6</ele>
        <time>2021-08-11T07:28:18Z</time>
      </trkpt>
      <trkpt lat="42.7068930" lon="1.4108120">
        <ele>1437.8</ele>
        <time>2021-08-11T07:28:20Z</time>
      </trkpt>
      <trkpt lat="42.7068870" lon="1.4107760">
        <ele>1438.4</ele>
        <time>2021-08-11T07:28:24Z</time>
      </trkpt>
      <trkpt lat="42.7068630" lon="1.4107280">
        <ele>1439.4</ele>
        <time>2021-08-11T07:28:29Z</time>
      </trkpt>
      <trkpt lat="42.7068570" lon="1.4107070">
        <ele>1439.7</ele>
        <time>2021-08-11T07:28:32Z</time>
      </trkpt>
      <trkpt lat="42.7068190" lon="1.4106420">
        <ele>1441.1</ele>
        <time>2021-08-11T07:28:38Z</time>
      </trkpt>
      <trkpt lat="42.7067960" lon="1.4105990">
        <ele>1441.9</ele>
        <time>2021-08-11T07:28:42Z</time>
      </trkpt>
      <trkpt lat="42.7067730" lon="1.4105290">
        <ele>1443.2</ele>
        <time>2021-08-11T07:28:50Z</time>
      </trkpt>
      <trkpt lat="42.7068110" lon="1.4104810">
        <ele>1444.3</ele>
        <time>2021-08-11T07:28:58Z</time>
      </trkpt>
      <trkpt lat="42.7067330" lon="1.4102600">
        <ele>1448.3</ele>
        <time>2021-08-11T07:29:48Z</time>
      </trkpt>
      <trkpt lat="42.7067320" lon="1.4101980">
        <ele>1449.3</ele>
        <time>2021-08-11T07:30:01Z</time>
      </trkpt>
      <trkpt lat="42.7066110" lon="1.4102920">
        <ele>1452.3</ele>
        <time>2021-08-11T07:30:24Z</time>
      </trkpt>
      <trkpt lat="42.7066090" lon="1.4102990">
        <ele>1452.5</ele>
        <time>2021-08-11T07:30:26Z</time>
      </trkpt>
      <trkpt lat="42.7066080" lon="1.4102990">
        <ele>1452.5</ele>
        <time>2021-08-11T07:30:27Z</time>
      </trkpt>
      <trkpt lat="42.7066020" lon="1.4102950">
        <ele>1452.6</ele>
        <time>2021-08-11T07:30:31Z</time>
      </trkpt>
      <trkpt lat="42.7065950" lon="1.4103210">
        <ele>1453.1</ele>
        <time>2021-08-11T07:30:33Z</time>
      </trkpt>
      <trkpt lat="42.7065900" lon="1.4103240">
        <ele>1453.2</ele>
        <time>2021-08-11T07:30:34Z</time>
      </trkpt>
      <trkpt lat="42.7065880" lon="1.4103310">
        <ele>1453.3</ele>
        <time>2021-08-11T07:30:35Z</time>
      </trkpt>
      <trkpt lat="42.7065870" lon="1.4103340">
        <ele>1453.4</ele>
        <time>2021-08-11T07:30:36Z</time>
      </trkpt>
      <trkpt lat="42.7065860" lon="1.4103370">
        <ele>1453.4</ele>
        <time>2021-08-11T07:30:37Z</time>
      </trkpt>
      <trkpt lat="42.7065880" lon="1.4103410">
        <ele>1453.5</ele>
        <time>2021-08-11T07:30:38Z</time>
      </trkpt>
      <trkpt lat="42.7066640" lon="1.4103710">
        <ele>1455.3</ele>
        <time>2021-08-11T07:31:11Z</time>
      </trkpt>
      <trkpt lat="42.7066520" lon="1.4103800">
        <ele>1455.6</ele>
        <time>2021-08-11T07:31:26Z</time>
      </trkpt>
      <trkpt lat="42.7066500" lon="1.4103890">
        <ele>1455.7</ele>
        <time>2021-08-11T07:31:39Z</time>
      </trkpt>
      <trkpt lat="42.7066460" lon="1.4104340">
        <ele>1456.4</ele>
        <time>2021-08-11T07:31:46Z</time>
      </trkpt>
      <trkpt lat="42.7066090" lon="1.4104790">
        <ele>1457.5</ele>
        <time>2021-08-11T07:32:01Z</time>
      </trkpt>
      <trkpt lat="42.7066060" lon="1.4104780">
        <ele>1457.6</ele>
        <time>2021-08-11T07:32:02Z</time>
      </trkpt>
      <trkpt lat="42.7065990" lon="1.4104720">
        <ele>1457.8</ele>
        <time>2021-08-11T07:32:03Z</time>
      </trkpt>
      <trkpt lat="42.7065980" lon="1.4104680">
        <ele>1457.9</ele>
        <time>2021-08-11T07:32:04Z</time>
      </trkpt>
      <trkpt lat="42.7065830" lon="1.4104530">
        <ele>1458.3</ele>
        <time>2021-08-11T07:32:08Z</time>
      </trkpt>
      <trkpt lat="42.7065810" lon="1.4104290">
        <ele>1458.7</ele>
        <time>2021-08-11T07:32:13Z</time>
      </trkpt>
      <trkpt lat="42.7065700" lon="1.4102150">
        <ele>1462.1</ele>
        <time>2021-08-11T07:32:47Z</time>
      </trkpt>
      <trkpt lat="42.7065750" lon="1.4099430">
        <ele>1466.5</ele>
        <time>2021-08-11T07:33:12Z</time>
      </trkpt>
      <trkpt lat="42.7065150" lon="1.4097060">
        <ele>1470.6</ele>
        <time>2021-08-11T07:33:40Z</time>
      </trkpt>
      <trkpt lat="42.7065880" lon="1.4094500">
        <ele>1473.2</ele>
        <time>2021-08-11T07:34:11Z</time>
      </trkpt>
      <trkpt lat="42.7065820" lon="1.4092940">
        <ele>1474.5</ele>
        <time>2021-08-11T07:34:36Z</time>
      </trkpt>
      <trkpt lat="42.7065410" lon="1.4090640">
        <ele>1476.7</ele>
        <time>2021-08-11T07:34:59Z</time>
      </trkpt>
      <trkpt lat="42.7065580" lon="1.4089530">
        <ele>1477.7</ele>
        <time>2021-08-11T07:35:11Z</time>
      </trkpt>
      <trkpt lat="42.7065780" lon="1.4087400">
        <ele>1481.1</ele>
        <time>2021-08-11T07:35:38Z</time>
      </trkpt>
      <trkpt lat="42.7065780" lon="1.4087340">
        <ele>1481.2</ele>
        <time>2021-08-11T07:35:39Z</time>
      </trkpt>
      <trkpt lat="42.7065570" lon="1.4086520">
        <ele>1483.0</ele>
        <time>2021-08-11T07:42:27Z</time>
      </trkpt>
      <trkpt lat="42.7065340" lon="1.4085070">
        <ele>1486.1</ele>
        <time>2021-08-11T07:42:51Z</time>
      </trkpt>
      <trkpt lat="42.7065290" lon="1.4084960">
        <ele>1486.4</ele>
        <time>2021-08-11T07:42:53Z</time>
      </trkpt>
      <trkpt lat="42.7065280" lon="1.4084940">
        <ele>1486.5</ele>
        <time>2021-08-11T07:42:54Z</time>
      </trkpt>
      <trkpt lat="42.7065210" lon="1.4084700">
        <ele>1487.0</ele>
        <time>2021-08-11T07:42:59Z</time>
      </trkpt>
      <trkpt lat="42.7065260" lon="1.4084680">
        <ele>1487.1</ele>
        <time>2021-08-11T07:43:02Z</time>
      </trkpt>
      <trkpt lat="42.7065160" lon="1.4084250">
        <ele>1488.1</ele>
        <time>2021-08-11T07:43:09Z</time>
      </trkpt>
      <trkpt lat="42.7065020" lon="1.4081910">
        <ele>1493.0</ele>
        <time>2021-08-11T07:43:43Z</time>
      </trkpt>
      <trkpt lat="42.7064290" lon="1.4081240">
        <ele>1495.5</ele>
        <time>2021-08-11T07:44:01Z</time>
      </trkpt>
      <trkpt lat="42.7063600" lon="1.4080570">
        <ele>1497.9</ele>
        <time>2021-08-11T07:44:15Z</time>
      </trkpt>
      <trkpt lat="42.7062110" lon="1.4079700">
        <ele>1502.5</ele>
        <time>2021-08-11T07:44:40Z</time>
      </trkpt>
      <trkpt lat="42.7061600" lon="1.4078660">
        <ele>1505.1</ele>
        <time>2021-08-11T07:45:20Z</time>
      </trkpt>
      <trkpt lat="42.7061600" lon="1.4078830">
        <ele>1505.5</ele>
        <time>2021-08-11T07:45:24Z</time>
      </trkpt>
      <trkpt lat="42.7061190" lon="1.4079570">
        <ele>1507.4</ele>
        <time>2021-08-11T07:45:32Z</time>
      </trkpt>
      <trkpt lat="42.7059730" lon="1.4080480">
        <ele>1512.0</ele>
        <time>2021-08-11T07:46:05Z</time>
      </trkpt>
      <trkpt lat="42.7059120" lon="1.4080660">
        <ele>1513.7</ele>
        <time>2021-08-11T07:46:16Z</time>
      </trkpt>
      <trkpt lat="42.7059010" lon="1.4080960">
        <ele>1514.4</ele>
        <time>2021-08-11T07:46:21Z</time>
      </trkpt>
      <trkpt lat="42.7058110" lon="1.4081720">
        <ele>1517.4</ele>
        <time>2021-08-11T07:46:53Z</time>
      </trkpt>
      <trkpt lat="42.7057280" lon="1.4079580">
        <ele>1522.5</ele>
        <time>2021-08-11T07:47:30Z</time>
      </trkpt>
      <trkpt lat="42.7057040" lon="1.4077040">
        <ele>1527.8</ele>
        <time>2021-08-11T07:48:05Z</time>
      </trkpt>
      <trkpt lat="42.7056710" lon="1.4075700">
        <ele>1530.8</ele>
        <time>2021-08-11T07:48:28Z</time>
      </trkpt>
      <trkpt lat="42.7056790" lon="1.4075660">
        <ele>1531.0</ele>
        <time>2021-08-11T07:48:29Z</time>
      </trkpt>
      <trkpt lat="42.7056830" lon="1.4075670">
        <ele>1531.1</ele>
        <time>2021-08-11T07:48:30Z</time>
      </trkpt>
      <trkpt lat="42.7056490" lon="1.4074140">
        <ele>1534.5</ele>
        <time>2021-08-11T07:49:04Z</time>
      </trkpt>
      <trkpt lat="42.7056560" lon="1.4073540">
        <ele>1535.8</ele>
        <time>2021-08-11T07:49:12Z</time>
      </trkpt>
      <trkpt lat="42.7055400" lon="1.4073890">
        <ele>1539.1</ele>
        <time>2021-08-11T07:49:42Z</time>
      </trkpt>
      <trkpt lat="42.7054540" lon="1.4073870">
        <ele>1541.6</ele>
        <time>2021-08-11T07:49:59Z</time>
      </trkpt>
      <trkpt lat="42.7054390" lon="1.4073620">
        <ele>1542.2</ele>
        <time>2021-08-11T07:50:05Z</time>
      </trkpt>
      <trkpt lat="42.7056140" lon="1.4074180">
        <ele>1547.3</ele>
        <time>2021-08-11T07:50:30Z</time>
      </trkpt>
      <trkpt lat="42.7055760" lon="1.4073920">
        <ele>1548.6</ele>
        <time>2021-08-11T07:50:40Z</time>
      </trkpt>
      <trkpt lat="42.7054820" lon="1.4072850">
        <ele>1552.0</ele>
        <time>2021-08-11T07:51:01Z</time>
      </trkpt>
      <trkpt lat="42.7054450" lon="1.4072120">
        <ele>1553.9</ele>
        <time>2021-08-11T07:51:12Z</time>
      </trkpt>
      <trkpt lat="42.7054390" lon="1.4072010">
        <ele>1554.2</ele>
        <time>2021-08-11T07:51:13Z</time>
      </trkpt>
      <trkpt lat="42.7054300" lon="1.4071840">
        <ele>1554.6</ele>
        <time>2021-08-11T07:51:15Z</time>
      </trkpt>
      <trkpt lat="42.7054270" lon="1.4071770">
        <ele>1554.8</ele>
        <time>2021-08-11T07:51:16Z</time>
      </trkpt>
      <trkpt lat="42.7054220" lon="1.4071530">
        <ele>1555.3</ele>
        <time>2021-08-11T07:51:21Z</time>
      </trkpt>
      <trkpt lat="42.7054180" lon="1.4071460">
        <ele>1555.5</ele>
        <time>2021-08-11T07:51:22Z</time>
      </trkpt>
      <trkpt lat="42.7054170" lon="1.4071370">
        <ele>1555.7</ele>
        <time>2021-08-11T07:51:23Z</time>
      </trkpt>
      <trkpt lat="42.7054150" lon="1.4071030">
        <ele>1556.4</ele>
        <time>2021-08-11T07:51:27Z</time>
      </trkpt>
      <trkpt lat="42.7054030" lon="1.4070670">
        <ele>1557.2</ele>
        <time>2021-08-11T07:51:32Z</time>
      </trkpt>
      <trkpt lat="42.7053690" lon="1.4069700">
        <ele>1559.5</ele>
        <time>2021-08-11T07:51:46Z</time>
      </trkpt>
      <trkpt lat="42.7053570" lon="1.4069600">
        <ele>1559.9</ele>
        <time>2021-08-11T07:51:48Z</time>
      </trkpt>
      <trkpt lat="42.7053550" lon="1.4069000">
        <ele>1561.1</ele>
        <time>2021-08-11T07:52:05Z</time>
      </trkpt>
      <trkpt lat="42.7053360" lon="1.4069000">
        <ele>1561.6</ele>
        <time>2021-08-11T07:52:09Z</time>
      </trkpt>
      <trkpt lat="42.7052770" lon="1.4066970">
        <ele>1566.2</ele>
        <time>2021-08-11T07:52:51Z</time>
      </trkpt>
      <trkpt lat="42.7052420" lon="1.4066590">
        <ele>1567.5</ele>
        <time>2021-08-11T07:53:04Z</time>
      </trkpt>
      <trkpt lat="42.7052430" lon="1.4066540">
        <ele>1567.6</ele>
        <time>2021-08-11T07:53:05Z</time>
      </trkpt>
      <trkpt lat="42.7052450" lon="1.4066490">
        <ele>1567.7</ele>
        <time>2021-08-11T07:53:06Z</time>
      </trkpt>
      <trkpt lat="42.7052350" lon="1.4066090">
        <ele>1568.6</ele>
        <time>2021-08-11T07:53:13Z</time>
      </trkpt>
      <trkpt lat="42.7051020" lon="1.4067120">
        <ele>1572.9</ele>
        <time>2021-08-11T07:53:46Z</time>
      </trkpt>
      <trkpt lat="42.7050690" lon="1.4067290">
        <ele>1573.9</ele>
        <time>2021-08-11T07:53:52Z</time>
      </trkpt>
      <trkpt lat="42.7050520" lon="1.4067430">
        <ele>1574.5</ele>
        <time>2021-08-11T07:53:58Z</time>
      </trkpt>
      <trkpt lat="42.7050200" lon="1.4066210">
        <ele>1577.2</ele>
        <time>2021-08-11T07:54:22Z</time>
      </trkpt>
      <trkpt lat="42.7050200" lon="1.4066110">
        <ele>1577.4</ele>
        <time>2021-08-11T07:54:23Z</time>
      </trkpt>
      <trkpt lat="42.7050170" lon="1.4066040">
        <ele>1577.6</ele>
        <time>2021-08-11T07:54:24Z</time>
      </trkpt>
      <trkpt lat="42.7050300" lon="1.4065810">
        <ele>1578.2</ele>
        <time>2021-08-11T07:54:29Z</time>
      </trkpt>
      <trkpt lat="42.7050460" lon="1.4065820">
        <ele>1578.6</ele>
        <time>2021-08-11T07:54:32Z</time>
      </trkpt>
      <trkpt lat="42.7050420" lon="1.4065710">
        <ele>1578.9</ele>
        <time>2021-08-11T07:54:37Z</time>
      </trkpt>
      <trkpt lat="42.7050290" lon="1.4065660">
        <ele>1579.3</ele>
        <time>2021-08-11T07:54:42Z</time>
      </trkpt>
      <trkpt lat="42.7049040" lon="1.4065790">
        <ele>1582.8</ele>
        <time>2021-08-11T07:55:04Z</time>
      </trkpt>
      <trkpt lat="42.7048840" lon="1.4065830">
        <ele>1583.4</ele>
        <time>2021-08-11T07:55:08Z</time>
      </trkpt>
      <trkpt lat="42.7047760" lon="1.4065430">
        <ele>1586.6</ele>
        <time>2021-08-11T07:55:34Z</time>
      </trkpt>
      <trkpt lat="42.7047870" lon="1.4065000">
        <ele>1587.5</ele>
        <time>2021-08-11T07:55:41Z</time>
      </trkpt>
      <trkpt lat="42.7047580" lon="1.4064570">
        <ele>1588.8</ele>
        <time>2021-08-11T07:55:52Z</time>
      </trkpt>
      <trkpt lat="42.7047560" lon="1.4064370">
        <ele>1589.2</ele>
        <time>2021-08-11T07:55:55Z</time>
      </trkpt>
      <trkpt lat="42.7047550" lon="1.4064230">
        <ele>1589.5</ele>
        <time>2021-08-11T07:55:58Z</time>
      </trkpt>
      <trkpt lat="42.7047350" lon="1.4064160">
        <ele>1590.1</ele>
        <time>2021-08-11T07:56:01Z</time>
      </trkpt>
      <trkpt lat="42.7046390" lon="1.4065190">
        <ele>1593.5</ele>
        <time>2021-08-11T07:56:21Z</time>
      </trkpt>
      <trkpt lat="42.7045340" lon="1.4066580">
        <ele>1597.7</ele>
        <time>2021-08-11T07:56:59Z</time>
      </trkpt>
      <trkpt lat="42.7044480" lon="1.4066180">
        <ele>1600.3</ele>
        <time>2021-08-11T07:57:38Z</time>
      </trkpt>
      <trkpt lat="42.7044310" lon="1.4066550">
        <ele>1601.2</ele>
        <time>2021-08-11T07:57:45Z</time>
      </trkpt>
      <trkpt lat="42.7043230" lon="1.4064790">
        <ele>1606.0</ele>
        <time>2021-08-11T07:58:23Z</time>
      </trkpt>
      <trkpt lat="42.7042830" lon="1.4063750">
        <ele>1608.4</ele>
        <time>2021-08-11T07:58:44Z</time>
      </trkpt>
      <trkpt lat="42.7041300" lon="1.4063650">
        <ele>1612.8</ele>
        <time>2021-08-11T07:59:19Z</time>
      </trkpt>
      <trkpt lat="42.7040090" lon="1.4062200">
        <ele>1617.4</ele>
        <time>2021-08-11T07:59:56Z</time>
      </trkpt>
      <trkpt lat="42.7039670" lon="1.4061640">
        <ele>1619.0</ele>
        <time>2021-08-11T08:00:13Z</time>
      </trkpt>
      <trkpt lat="42.7039660" lon="1.4061630">
        <ele>1619.1</ele>
        <time>2021-08-11T08:00:14Z</time>
      </trkpt>
      <trkpt lat="42.7039680" lon="1.4061550">
        <ele>1619.2</ele>
        <time>2021-08-11T08:00:16Z</time>
      </trkpt>
      <trkpt lat="42.7039460" lon="1.4061030">
        <ele>1620.5</ele>
        <time>2021-08-11T08:00:26Z</time>
      </trkpt>
      <trkpt lat="42.7037710" lon="1.4060820">
        <ele>1625.5</ele>
        <time>2021-08-11T08:01:09Z</time>
      </trkpt>
      <trkpt lat="42.7037590" lon="1.4060840">
        <ele>1625.8</ele>
        <time>2021-08-11T08:01:11Z</time>
      </trkpt>
      <trkpt lat="42.7037570" lon="1.4060860">
        <ele>1625.9</ele>
        <time>2021-08-11T08:01:12Z</time>
      </trkpt>
      <trkpt lat="42.7037090" lon="1.4060380">
        <ele>1627.6</ele>
        <time>2021-08-11T08:01:21Z</time>
      </trkpt>
      <trkpt lat="42.7036480" lon="1.4059750">
        <ele>1629.8</ele>
        <time>2021-08-11T08:01:31Z</time>
      </trkpt>
      <trkpt lat="42.7035720" lon="1.4059250">
        <ele>1632.2</ele>
        <time>2021-08-11T08:01:44Z</time>
      </trkpt>
      <trkpt lat="42.7035640" lon="1.4059230">
        <ele>1632.4</ele>
        <time>2021-08-11T08:01:46Z</time>
      </trkpt>
      <trkpt lat="42.7035320" lon="1.4058910">
        <ele>1633.5</ele>
        <time>2021-08-11T08:01:58Z</time>
      </trkpt>
      <trkpt lat="42.7035130" lon="1.4058690">
        <ele>1634.2</ele>
        <time>2021-08-11T08:02:11Z</time>
      </trkpt>
      <trkpt lat="42.7034650" lon="1.4058660">
        <ele>1635.6</ele>
        <time>2021-08-11T08:02:24Z</time>
      </trkpt>
      <trkpt lat="42.7034060" lon="1.4058940">
        <ele>1637.4</ele>
        <time>2021-08-11T08:02:38Z</time>
      </trkpt>
      <trkpt lat="42.7033730" lon="1.4058810">
        <ele>1638.3</ele>
        <time>2021-08-11T08:02:42Z</time>
      </trkpt>
      <trkpt lat="42.7033620" lon="1.4058740">
        <ele>1638.7</ele>
        <time>2021-08-11T08:02:44Z</time>
      </trkpt>
      <trkpt lat="42.7032870" lon="1.4058300">
        <ele>1641.0</ele>
        <time>2021-08-11T08:02:57Z</time>
      </trkpt>
      <trkpt lat="42.7032580" lon="1.4058380">
        <ele>1641.8</ele>
        <time>2021-08-11T08:03:27Z</time>
      </trkpt>
      <trkpt lat="42.7031860" lon="1.4058490">
        <ele>1643.9</ele>
        <time>2021-08-11T08:03:40Z</time>
      </trkpt>
      <trkpt lat="42.7031240" lon="1.4058470">
        <ele>1645.7</ele>
        <time>2021-08-11T08:03:50Z</time>
      </trkpt>
      <trkpt lat="42.7030950" lon="1.4058620">
        <ele>1646.5</ele>
        <time>2021-08-11T08:03:54Z</time>
      </trkpt>
      <trkpt lat="42.7030400" lon="1.4058530">
        <ele>1648.1</ele>
        <time>2021-08-11T08:04:02Z</time>
      </trkpt>
      <trkpt lat="42.7030370" lon="1.4058550">
        <ele>1648.2</ele>
        <time>2021-08-11T08:04:03Z</time>
      </trkpt>
      <trkpt lat="42.7030320" lon="1.4058570">
        <ele>1648.4</ele>
        <time>2021-08-11T08:04:04Z</time>
      </trkpt>
      <trkpt lat="42.7030290" lon="1.4058590">
        <ele>1648.5</ele>
        <time>2021-08-11T08:04:05Z</time>
      </trkpt>
      <trkpt lat="42.7030290" lon="1.4058630">
        <ele>1648.5</ele>
        <time>2021-08-11T08:04:06Z</time>
      </trkpt>
      <trkpt lat="42.7030290" lon="1.4058640">
        <ele>1648.6</ele>
        <time>2021-08-11T08:04:07Z</time>
      </trkpt>
      <trkpt lat="42.7030270" lon="1.4058630">
        <ele>1648.6</ele>
        <time>2021-08-11T08:04:08Z</time>
      </trkpt>
      <trkpt lat="42.7030310" lon="1.4058510">
        <ele>1648.9</ele>
        <time>2021-08-11T08:04:29Z</time>
      </trkpt>
      <trkpt lat="42.7030340" lon="1.4058510">
        <ele>1649.0</ele>
        <time>2021-08-11T08:04:33Z</time>
      </trkpt>
      <trkpt lat="42.7030340" lon="1.4058500">
        <ele>1649.0</ele>
        <time>2021-08-11T08:04:35Z</time>
      </trkpt>
      <trkpt lat="42.7030180" lon="1.4058470">
        <ele>1649.5</ele>
        <time>2021-08-11T08:04:43Z</time>
      </trkpt>
      <trkpt lat="42.7029200" lon="1.4058750">
        <ele>1652.3</ele>
        <time>2021-08-11T08:05:01Z</time>
      </trkpt>
      <trkpt lat="42.7029150" lon="1.4058740">
        <ele>1652.5</ele>
        <time>2021-08-11T08:05:02Z</time>
      </trkpt>
      <trkpt lat="42.7028670" lon="1.4058890">
        <ele>1653.8</ele>
        <time>2021-08-11T08:05:10Z</time>
      </trkpt>
      <trkpt lat="42.7028650" lon="1.4058950">
        <ele>1654.0</ele>
        <time>2021-08-11T08:05:15Z</time>
      </trkpt>
      <trkpt lat="42.7028660" lon="1.4059010">
        <ele>1654.1</ele>
        <time>2021-08-11T08:05:18Z</time>
      </trkpt>
      <trkpt lat="42.7028650" lon="1.4059060">
        <ele>1654.2</ele>
        <time>2021-08-11T08:05:20Z</time>
      </trkpt>
      <trkpt lat="42.7028650" lon="1.4059060">
        <ele>1654.2</ele>
        <time>2021-08-11T08:46:53Z</time>
      </trkpt>
      <trkpt lat="42.7027930" lon="1.4058290">
        <ele>1656.8</ele>
        <time>2021-08-11T08:46:55Z</time>
      </trkpt>
      <trkpt lat="42.7027960" lon="1.4058220">
        <ele>1657.0</ele>
        <time>2021-08-11T08:46:56Z</time>
      </trkpt>
      <trkpt lat="42.7027940" lon="1.4057970">
        <ele>1657.5</ele>
        <time>2021-08-11T08:47:00Z</time>
      </trkpt>
      <trkpt lat="42.7027920" lon="1.4057970">
        <ele>1657.6</ele>
        <time>2021-08-11T08:47:01Z</time>
      </trkpt>
      <trkpt lat="42.7027680" lon="1.4057960">
        <ele>1658.3</ele>
        <time>2021-08-11T08:47:03Z</time>
      </trkpt>
      <trkpt lat="42.7027420" lon="1.4057800">
        <ele>1659.1</ele>
        <time>2021-08-11T08:47:09Z</time>
      </trkpt>
      <trkpt lat="42.7027360" lon="1.4057750">
        <ele>1659.3</ele>
        <time>2021-08-11T08:47:10Z</time>
      </trkpt>
      <trkpt lat="42.7027120" lon="1.4057490">
        <ele>1660.1</ele>
        <time>2021-08-11T08:47:14Z</time>
      </trkpt>
      <trkpt lat="42.7026390" lon="1.4057700">
        <ele>1662.3</ele>
        <time>2021-08-11T08:47:26Z</time>
      </trkpt>
      <trkpt lat="42.7026050" lon="1.4057910">
        <ele>1663.3</ele>
        <time>2021-08-11T08:47:32Z</time>
      </trkpt>
      <trkpt lat="42.7025990" lon="1.4057890">
        <ele>1663.5</ele>
        <time>2021-08-11T08:47:33Z</time>
      </trkpt>
      <trkpt lat="42.7025950" lon="1.4057820">
        <ele>1663.7</ele>
        <time>2021-08-11T08:47:34Z</time>
      </trkpt>
      <trkpt lat="42.7025930" lon="1.4057800">
        <ele>1663.8</ele>
        <time>2021-08-11T08:47:35Z</time>
      </trkpt>
      <trkpt lat="42.7025890" lon="1.4057720">
        <ele>1664.0</ele>
        <time>2021-08-11T08:47:36Z</time>
      </trkpt>
      <trkpt lat="42.7025740" lon="1.4057480">
        <ele>1664.6</ele>
        <time>2021-08-11T08:47:40Z</time>
      </trkpt>
      <trkpt lat="42.7025260" lon="1.4057100">
        <ele>1666.2</ele>
        <time>2021-08-11T08:47:52Z</time>
      </trkpt>
      <trkpt lat="42.7025210" lon="1.4056900">
        <ele>1666.6</ele>
        <time>2021-08-11T08:47:55Z</time>
      </trkpt>
      <trkpt lat="42.7025160" lon="1.4056840">
        <ele>1666.8</ele>
        <time>2021-08-11T08:47:56Z</time>
      </trkpt>
      <trkpt lat="42.7025130" lon="1.4056790">
        <ele>1667.0</ele>
        <time>2021-08-11T08:47:57Z</time>
      </trkpt>
      <trkpt lat="42.7025090" lon="1.4056720">
        <ele>1667.1</ele>
        <time>2021-08-11T08:47:58Z</time>
      </trkpt>
      <trkpt lat="42.7024780" lon="1.4056590">
        <ele>1668.1</ele>
        <time>2021-08-11T08:48:06Z</time>
      </trkpt>
      <trkpt lat="42.7023850" lon="1.4055970">
        <ele>1671.9</ele>
        <time>2021-08-11T08:48:33Z</time>
      </trkpt>
      <trkpt lat="42.7023130" lon="1.4055850">
        <ele>1673.0</ele>
        <time>2021-08-11T08:48:43Z</time>
      </trkpt>
      <trkpt lat="42.7022520" lon="1.4055550">
        <ele>1673.9</ele>
        <time>2021-08-11T08:48:51Z</time>
      </trkpt>
      <trkpt lat="42.7020790" lon="1.4055610">
        <ele>1676.3</ele>
        <time>2021-08-11T08:49:18Z</time>
      </trkpt>
      <trkpt lat="42.7019800" lon="1.4055330">
        <ele>1677.9</ele>
        <time>2021-08-11T08:49:32Z</time>
      </trkpt>
      <trkpt lat="42.7018570" lon="1.4055300">
        <ele>1680.7</ele>
        <time>2021-08-11T08:49:51Z</time>
      </trkpt>
      <trkpt lat="42.7017230" lon="1.4054910">
        <ele>1684.8</ele>
        <time>2021-08-11T08:50:21Z</time>
      </trkpt>
      <trkpt lat="42.7017120" lon="1.4054890">
        <ele>1685.1</ele>
        <time>2021-08-11T08:50:25Z</time>
      </trkpt>
      <trkpt lat="42.7016950" lon="1.4054970">
        <ele>1685.6</ele>
        <time>2021-08-11T08:50:36Z</time>
      </trkpt>
      <trkpt lat="42.7016540" lon="1.4053880">
        <ele>1688.2</ele>
        <time>2021-08-11T08:50:53Z</time>
      </trkpt>
      <trkpt lat="42.7016410" lon="1.4053830">
        <ele>1688.6</ele>
        <time>2021-08-11T08:50:55Z</time>
      </trkpt>
      <trkpt lat="42.7015620" lon="1.4052970">
        <ele>1691.6</ele>
        <time>2021-08-11T08:51:20Z</time>
      </trkpt>
      <trkpt lat="42.7015340" lon="1.4053150">
        <ele>1692.7</ele>
        <time>2021-08-11T08:51:27Z</time>
      </trkpt>
      <trkpt lat="42.7015200" lon="1.4053260">
        <ele>1693.3</ele>
        <time>2021-08-11T08:52:22Z</time>
      </trkpt>
      <trkpt lat="42.7015200" lon="1.4053270">
        <ele>1693.3</ele>
        <time>2021-08-11T08:52:31Z</time>
      </trkpt>
      <trkpt lat="42.7015190" lon="1.4053280">
        <ele>1693.3</ele>
        <time>2021-08-11T08:52:34Z</time>
      </trkpt>
      <trkpt lat="42.7014650" lon="1.4052870">
        <ele>1695.7</ele>
        <time>2021-08-11T08:52:55Z</time>
      </trkpt>
      <trkpt lat="42.7014320" lon="1.4052580">
        <ele>1697.3</ele>
        <time>2021-08-11T08:53:08Z</time>
      </trkpt>
      <trkpt lat="42.7013850" lon="1.4052510">
        <ele>1699.4</ele>
        <time>2021-08-11T08:53:23Z</time>
      </trkpt>
      <trkpt lat="42.7013760" lon="1.4052500">
        <ele>1699.8</ele>
        <time>2021-08-11T08:53:26Z</time>
      </trkpt>
      <trkpt lat="42.7013180" lon="1.4050840">
        <ele>1705.5</ele>
        <time>2021-08-11T08:54:47Z</time>
      </trkpt>
      <trkpt lat="42.7013140" lon="1.4050820">
        <ele>1705.7</ele>
        <time>2021-08-11T08:55:08Z</time>
      </trkpt>
      <trkpt lat="42.7012940" lon="1.4050580">
        <ele>1706.7</ele>
        <time>2021-08-11T08:55:57Z</time>
      </trkpt>
      <trkpt lat="42.7012270" lon="1.4050120">
        <ele>1709.4</ele>
        <time>2021-08-11T08:56:31Z</time>
      </trkpt>
      <trkpt lat="42.7012040" lon="1.4049680">
        <ele>1710.7</ele>
        <time>2021-08-11T08:56:40Z</time>
      </trkpt>
      <trkpt lat="42.7011950" lon="1.4049380">
        <ele>1711.3</ele>
        <time>2021-08-11T08:56:45Z</time>
      </trkpt>
      <trkpt lat="42.7011680" lon="1.4048920">
        <ele>1712.4</ele>
        <time>2021-08-11T08:56:51Z</time>
      </trkpt>
      <trkpt lat="42.7011630" lon="1.4048860">
        <ele>1712.5</ele>
        <time>2021-08-11T08:56:52Z</time>
      </trkpt>
      <trkpt lat="42.7011600" lon="1.4048800">
        <ele>1712.6</ele>
        <time>2021-08-11T08:56:53Z</time>
      </trkpt>
      <trkpt lat="42.7011570" lon="1.4048720">
        <ele>1712.8</ele>
        <time>2021-08-11T08:56:54Z</time>
      </trkpt>
      <trkpt lat="42.7011450" lon="1.4048500">
        <ele>1713.2</ele>
        <time>2021-08-11T08:56:58Z</time>
      </trkpt>
      <trkpt lat="42.7010730" lon="1.4047690">
        <ele>1715.0</ele>
        <time>2021-08-11T08:57:23Z</time>
      </trkpt>
      <trkpt lat="42.7010670" lon="1.4047620">
        <ele>1715.1</ele>
        <time>2021-08-11T08:58:04Z</time>
      </trkpt>
      <trkpt lat="42.7010610" lon="1.4047710">
        <ele>1715.3</ele>
        <time>2021-08-11T08:58:13Z</time>
      </trkpt>
      <trkpt lat="42.7010550" lon="1.4047590">
        <ele>1715.5</ele>
        <time>2021-08-11T08:58:27Z</time>
      </trkpt>
      <trkpt lat="42.7010420" lon="1.4047410">
        <ele>1715.8</ele>
        <time>2021-08-11T08:58:31Z</time>
      </trkpt>
      <trkpt lat="42.7010030" lon="1.4046750">
        <ele>1717.1</ele>
        <time>2021-08-11T08:58:42Z</time>
      </trkpt>
      <trkpt lat="42.7009700" lon="1.4046470">
        <ele>1717.9</ele>
        <time>2021-08-11T08:58:54Z</time>
      </trkpt>
      <trkpt lat="42.7009550" lon="1.4046450">
        <ele>1718.2</ele>
        <time>2021-08-11T08:58:59Z</time>
      </trkpt>
      <trkpt lat="42.7009340" lon="1.4046610">
        <ele>1718.7</ele>
        <time>2021-08-11T08:59:11Z</time>
      </trkpt>
      <trkpt lat="42.7009360" lon="1.4046630">
        <ele>1718.8</ele>
        <time>2021-08-11T08:59:12Z</time>
      </trkpt>
      <trkpt lat="42.7009370" lon="1.4046660">
        <ele>1718.8</ele>
        <time>2021-08-11T08:59:13Z</time>
      </trkpt>
      <trkpt lat="42.7009390" lon="1.4046700">
        <ele>1718.9</ele>
        <time>2021-08-11T08:59:14Z</time>
      </trkpt>
      <trkpt lat="42.7009380" lon="1.4046550">
        <ele>1719.1</ele>
        <time>2021-08-11T08:59:22Z</time>
      </trkpt>
      <trkpt lat="42.7009370" lon="1.4046480">
        <ele>1719.3</ele>
        <time>2021-08-11T08:59:27Z</time>
      </trkpt>
      <trkpt lat="42.7009340" lon="1.4046420">
        <ele>1719.4</ele>
        <time>2021-08-11T08:59:31Z</time>
      </trkpt>
      <trkpt lat="42.7009330" lon="1.4046400">
        <ele>1719.4</ele>
        <time>2021-08-11T08:59:33Z</time>
      </trkpt>
      <trkpt lat="42.7009280" lon="1.4046240">
        <ele>1719.7</ele>
        <time>2021-08-11T08:59:36Z</time>
      </trkpt>
      <trkpt lat="42.7009230" lon="1.4046140">
        <ele>1719.8</ele>
        <time>2021-08-11T08:59:38Z</time>
      </trkpt>
      <trkpt lat="42.7009220" lon="1.4046120">
        <ele>1719.9</ele>
        <time>2021-08-11T08:59:39Z</time>
      </trkpt>
      <trkpt lat="42.7009180" lon="1.4046090">
        <ele>1720.0</ele>
        <time>2021-08-11T08:59:40Z</time>
      </trkpt>
      <trkpt lat="42.7009080" lon="1.4045970">
        <ele>1720.2</ele>
        <time>2021-08-11T08:59:43Z</time>
      </trkpt>
      <trkpt lat="42.7007860" lon="1.4044250">
        <ele>1723.7</ele>
        <time>2021-08-11T09:00:14Z</time>
      </trkpt>
      <trkpt lat="42.7006370" lon="1.4043320">
        <ele>1728.8</ele>
        <time>2021-08-11T09:01:02Z</time>
      </trkpt>
      <trkpt lat="42.7006220" lon="1.4043080">
        <ele>1729.7</ele>
        <time>2021-08-11T09:01:17Z</time>
      </trkpt>
      <trkpt lat="42.7006040" lon="1.4042730">
        <ele>1730.8</ele>
        <time>2021-08-11T09:01:25Z</time>
      </trkpt>
      <trkpt lat="42.7005370" lon="1.4040910">
        <ele>1735.5</ele>
        <time>2021-08-11T09:01:53Z</time>
      </trkpt>
      <trkpt lat="42.7005010" lon="1.4040350">
        <ele>1737.0</ele>
        <time>2021-08-11T09:02:13Z</time>
      </trkpt>
      <trkpt lat="42.7004680" lon="1.4040040">
        <ele>1738.2</ele>
        <time>2021-08-11T09:02:39Z</time>
      </trkpt>
      <trkpt lat="42.7003750" lon="1.4039690">
        <ele>1741.3</ele>
        <time>2021-08-11T09:03:05Z</time>
      </trkpt>
      <trkpt lat="42.7003330" lon="1.4039340">
        <ele>1742.8</ele>
        <time>2021-08-11T09:03:18Z</time>
      </trkpt>
      <trkpt lat="42.7002560" lon="1.4037760">
        <ele>1746.6</ele>
        <time>2021-08-11T09:03:52Z</time>
      </trkpt>
      <trkpt lat="42.7002190" lon="1.4037510">
        <ele>1747.6</ele>
        <time>2021-08-11T09:04:41Z</time>
      </trkpt>
      <trkpt lat="42.7002080" lon="1.4037190">
        <ele>1748.1</ele>
        <time>2021-08-11T09:04:47Z</time>
      </trkpt>
      <trkpt lat="42.7001880" lon="1.4036780">
        <ele>1749.0</ele>
        <time>2021-08-11T09:04:53Z</time>
      </trkpt>
      <trkpt lat="42.7001750" lon="1.4036530">
        <ele>1749.5</ele>
        <time>2021-08-11T09:04:56Z</time>
      </trkpt>
      <trkpt lat="42.7001560" lon="1.4036210">
        <ele>1750.1</ele>
        <time>2021-08-11T09:05:00Z</time>
      </trkpt>
      <trkpt lat="42.7001430" lon="1.4036170">
        <ele>1750.4</ele>
        <time>2021-08-11T09:05:02Z</time>
      </trkpt>
      <trkpt lat="42.7001320" lon="1.4036190">
        <ele>1750.6</ele>
        <time>2021-08-11T09:05:04Z</time>
      </trkpt>
      <trkpt lat="42.7001210" lon="1.4036130">
        <ele>1750.9</ele>
        <time>2021-08-11T09:05:10Z</time>
      </trkpt>
      <trkpt lat="42.7001190" lon="1.4036090">
        <ele>1751.0</ele>
        <time>2021-08-11T09:05:11Z</time>
      </trkpt>
      <trkpt lat="42.7001150" lon="1.4036020">
        <ele>1751.1</ele>
        <time>2021-08-11T09:05:13Z</time>
      </trkpt>
      <trkpt lat="42.7000910" lon="1.4035080">
        <ele>1752.6</ele>
        <time>2021-08-11T09:05:28Z</time>
      </trkpt>
      <trkpt lat="42.6999640" lon="1.4033220">
        <ele>1755.9</ele>
        <time>2021-08-11T09:05:54Z</time>
      </trkpt>
      <trkpt lat="42.6998420" lon="1.4031480">
        <ele>1759.3</ele>
        <time>2021-08-11T09:06:26Z</time>
      </trkpt>
      <trkpt lat="42.6997250" lon="1.4029630">
        <ele>1763.8</ele>
        <time>2021-08-11T09:07:00Z</time>
      </trkpt>
      <trkpt lat="42.6996330" lon="1.4028120">
        <ele>1767.6</ele>
        <time>2021-08-11T09:07:35Z</time>
      </trkpt>
      <trkpt lat="42.6995560" lon="1.4025910">
        <ele>1772.3</ele>
        <time>2021-08-11T09:08:06Z</time>
      </trkpt>
      <trkpt lat="42.6994950" lon="1.4023680">
        <ele>1777.1</ele>
        <time>2021-08-11T09:08:38Z</time>
      </trkpt>
      <trkpt lat="42.6994690" lon="1.4022590">
        <ele>1779.1</ele>
        <time>2021-08-11T09:08:51Z</time>
      </trkpt>
      <trkpt lat="42.6993980" lon="1.4021890">
        <ele>1781.0</ele>
        <time>2021-08-11T09:09:06Z</time>
      </trkpt>
      <trkpt lat="42.6993160" lon="1.4020120">
        <ele>1784.6</ele>
        <time>2021-08-11T09:09:34Z</time>
      </trkpt>
      <trkpt lat="42.6991910" lon="1.4019070">
        <ele>1788.5</ele>
        <time>2021-08-11T09:10:09Z</time>
      </trkpt>
      <trkpt lat="42.6990190" lon="1.4018130">
        <ele>1793.1</ele>
        <time>2021-08-11T09:10:37Z</time>
      </trkpt>
      <trkpt lat="42.6989700" lon="1.4018040">
        <ele>1794.1</ele>
        <time>2021-08-11T09:10:46Z</time>
      </trkpt>
      <trkpt lat="42.6989630" lon="1.4018000">
        <ele>1794.3</ele>
        <time>2021-08-11T09:10:47Z</time>
      </trkpt>
      <trkpt lat="42.6989560" lon="1.4017990">
        <ele>1794.4</ele>
        <time>2021-08-11T09:10:48Z</time>
      </trkpt>
      <trkpt lat="42.6989420" lon="1.4017940">
        <ele>1794.7</ele>
        <time>2021-08-11T09:10:50Z</time>
      </trkpt>
      <trkpt lat="42.6988780" lon="1.4017640">
        <ele>1796.1</ele>
        <time>2021-08-11T09:10:59Z</time>
      </trkpt>
      <trkpt lat="42.6988110" lon="1.4017420">
        <ele>1797.3</ele>
        <time>2021-08-11T09:11:09Z</time>
      </trkpt>
      <trkpt lat="42.6987790" lon="1.4017340">
        <ele>1797.9</ele>
        <time>2021-08-11T09:11:14Z</time>
      </trkpt>
      <trkpt lat="42.6986660" lon="1.4016930">
        <ele>1799.9</ele>
        <time>2021-08-11T09:11:30Z</time>
      </trkpt>
      <trkpt lat="42.6985160" lon="1.4017260">
        <ele>1802.9</ele>
        <time>2021-08-11T09:11:59Z</time>
      </trkpt>
      <trkpt lat="42.6985570" lon="1.4017090">
        <ele>1803.9</ele>
        <time>2021-08-11T09:12:14Z</time>
      </trkpt>
      <trkpt lat="42.6985280" lon="1.4016840">
        <ele>1804.8</ele>
        <time>2021-08-11T09:12:26Z</time>
      </trkpt>
      <trkpt lat="42.6985150" lon="1.4016920">
        <ele>1805.2</ele>
        <time>2021-08-11T09:12:30Z</time>
      </trkpt>
      <trkpt lat="42.6985130" lon="1.4016890">
        <ele>1805.3</ele>
        <time>2021-08-11T09:12:37Z</time>
      </trkpt>
      <trkpt lat="42.6985060" lon="1.4016730">
        <ele>1805.7</ele>
        <time>2021-08-11T09:12:41Z</time>
      </trkpt>
      <trkpt lat="42.6985020" lon="1.4016590">
        <ele>1806.0</ele>
        <time>2021-08-11T09:12:43Z</time>
      </trkpt>
      <trkpt lat="42.6984940" lon="1.4016370">
        <ele>1806.6</ele>
        <time>2021-08-11T09:12:46Z</time>
      </trkpt>
      <trkpt lat="42.6984670" lon="1.4015690">
        <ele>1808.3</ele>
        <time>2021-08-11T09:13:02Z</time>
      </trkpt>
      <trkpt lat="42.6984530" lon="1.4015650">
        <ele>1808.7</ele>
        <time>2021-08-11T09:13:05Z</time>
      </trkpt>
      <trkpt lat="42.6984450" lon="1.4015760">
        <ele>1809.0</ele>
        <time>2021-08-11T09:13:14Z</time>
      </trkpt>
      <trkpt lat="42.6984360" lon="1.4015830">
        <ele>1809.4</ele>
        <time>2021-08-11T09:13:17Z</time>
      </trkpt>
      <trkpt lat="42.6984270" lon="1.4015660">
        <ele>1809.8</ele>
        <time>2021-08-11T09:13:30Z</time>
      </trkpt>
      <trkpt lat="42.6983300" lon="1.4014980">
        <ele>1812.8</ele>
        <time>2021-08-11T09:13:48Z</time>
      </trkpt>
      <trkpt lat="42.6983190" lon="1.4014830">
        <ele>1813.2</ele>
        <time>2021-08-11T09:13:50Z</time>
      </trkpt>
      <trkpt lat="42.6982940" lon="1.4014530">
        <ele>1814.0</ele>
        <time>2021-08-11T09:13:55Z</time>
      </trkpt>
      <trkpt lat="42.6982930" lon="1.4014500">
        <ele>1814.1</ele>
        <time>2021-08-11T09:13:56Z</time>
      </trkpt>
      <trkpt lat="42.6982910" lon="1.4014440">
        <ele>1814.2</ele>
        <time>2021-08-11T09:13:57Z</time>
      </trkpt>
      <trkpt lat="42.6982790" lon="1.4014040">
        <ele>1814.9</ele>
        <time>2021-08-11T09:14:03Z</time>
      </trkpt>
      <trkpt lat="42.6982760" lon="1.4013940">
        <ele>1815.1</ele>
        <time>2021-08-11T09:14:04Z</time>
      </trkpt>
      <trkpt lat="42.6982700" lon="1.4013820">
        <ele>1815.3</ele>
        <time>2021-08-11T09:14:05Z</time>
      </trkpt>
      <trkpt lat="42.6981850" lon="1.4013330">
        <ele>1817.2</ele>
        <time>2021-08-11T09:14:23Z</time>
      </trkpt>
      <trkpt lat="42.6980760" lon="1.4012920">
        <ele>1819.2</ele>
        <time>2021-08-11T09:14:44Z</time>
      </trkpt>
      <trkpt lat="42.6979850" lon="1.4012110">
        <ele>1820.8</ele>
        <time>2021-08-11T09:15:36Z</time>
      </trkpt>
      <trkpt lat="42.6979840" lon="1.4012140">
        <ele>1820.9</ele>
        <time>2021-08-11T09:15:55Z</time>
      </trkpt>
      <trkpt lat="42.6979410" lon="1.4011750">
        <ele>1821.7</ele>
        <time>2021-08-11T09:16:26Z</time>
      </trkpt>
      <trkpt lat="42.6979300" lon="1.4011660">
        <ele>1821.9</ele>
        <time>2021-08-11T09:16:30Z</time>
      </trkpt>
      <trkpt lat="42.6979180" lon="1.4011640">
        <ele>1822.1</ele>
        <time>2021-08-11T09:16:32Z</time>
      </trkpt>
      <trkpt lat="42.6979130" lon="1.4011660">
        <ele>1822.2</ele>
        <time>2021-08-11T09:16:33Z</time>
      </trkpt>
      <trkpt lat="42.6979100" lon="1.4011700">
        <ele>1822.2</ele>
        <time>2021-08-11T09:16:34Z</time>
      </trkpt>
      <trkpt lat="42.6979010" lon="1.4011780">
        <ele>1822.4</ele>
        <time>2021-08-11T09:16:37Z</time>
      </trkpt>
      <trkpt lat="42.6978990" lon="1.4011780">
        <ele>1822.4</ele>
        <time>2021-08-11T09:16:38Z</time>
      </trkpt>
      <trkpt lat="42.6978960" lon="1.4011790">
        <ele>1822.5</ele>
        <time>2021-08-11T09:16:39Z</time>
      </trkpt>
      <trkpt lat="42.6978930" lon="1.4011820">
        <ele>1822.6</ele>
        <time>2021-08-11T09:16:41Z</time>
      </trkpt>
      <trkpt lat="42.6978930" lon="1.4011840">
        <ele>1822.6</ele>
        <time>2021-08-11T09:16:42Z</time>
      </trkpt>
      <trkpt lat="42.6978860" lon="1.4011870">
        <ele>1822.7</ele>
        <time>2021-08-11T09:16:44Z</time>
      </trkpt>
      <trkpt lat="42.6978840" lon="1.4011870">
        <ele>1822.7</ele>
        <time>2021-08-11T09:16:45Z</time>
      </trkpt>
      <trkpt lat="42.6978800" lon="1.4011900">
        <ele>1822.8</ele>
        <time>2021-08-11T09:16:46Z</time>
      </trkpt>
      <trkpt lat="42.6978690" lon="1.4012040">
        <ele>1823.0</ele>
        <time>2021-08-11T09:16:51Z</time>
      </trkpt>
      <trkpt lat="42.6978650" lon="1.4012060">
        <ele>1823.1</ele>
        <time>2021-08-11T09:16:55Z</time>
      </trkpt>
      <trkpt lat="42.6977770" lon="1.4010170">
        <ele>1825.7</ele>
        <time>2021-08-11T09:17:36Z</time>
      </trkpt>
      <trkpt lat="42.6977480" lon="1.4007830">
        <ele>1828.9</ele>
        <time>2021-08-11T09:18:14Z</time>
      </trkpt>
      <trkpt lat="42.6976610" lon="1.4006610">
        <ele>1831.8</ele>
        <time>2021-08-11T09:18:39Z</time>
      </trkpt>
      <trkpt lat="42.6976540" lon="1.4006580">
        <ele>1832.0</ele>
        <time>2021-08-11T09:18:41Z</time>
      </trkpt>
      <trkpt lat="42.6976430" lon="1.4006520">
        <ele>1832.3</ele>
        <time>2021-08-11T09:18:43Z</time>
      </trkpt>
      <trkpt lat="42.6976340" lon="1.4006530">
        <ele>1832.6</ele>
        <time>2021-08-11T09:18:45Z</time>
      </trkpt>
      <trkpt lat="42.6975570" lon="1.4005850">
        <ele>1834.9</ele>
        <time>2021-08-11T09:18:58Z</time>
      </trkpt>
      <trkpt lat="42.6975380" lon="1.4005680">
        <ele>1835.5</ele>
        <time>2021-08-11T09:19:03Z</time>
      </trkpt>
      <trkpt lat="42.6975120" lon="1.4005450">
        <ele>1836.3</ele>
        <time>2021-08-11T09:19:10Z</time>
      </trkpt>
      <trkpt lat="42.6975120" lon="1.4005440">
        <ele>1836.3</ele>
        <time>2021-08-11T09:19:17Z</time>
      </trkpt>
      <trkpt lat="42.6974910" lon="1.4005610">
        <ele>1836.9</ele>
        <time>2021-08-11T09:19:30Z</time>
      </trkpt>
      <trkpt lat="42.6975530" lon="1.4005090">
        <ele>1838.7</ele>
        <time>2021-08-11T09:19:46Z</time>
      </trkpt>
      <trkpt lat="42.6975520" lon="1.4005140">
        <ele>1838.8</ele>
        <time>2021-08-11T09:19:49Z</time>
      </trkpt>
      <trkpt lat="42.6974520" lon="1.4004800">
        <ele>1841.3</ele>
        <time>2021-08-11T09:20:12Z</time>
      </trkpt>
      <trkpt lat="42.6974130" lon="1.4004520">
        <ele>1842.5</ele>
        <time>2021-08-11T09:20:18Z</time>
      </trkpt>
      <trkpt lat="42.6974000" lon="1.4004400">
        <ele>1842.9</ele>
        <time>2021-08-11T09:20:20Z</time>
      </trkpt>
      <trkpt lat="42.6973840" lon="1.4004180">
        <ele>1843.5</ele>
        <time>2021-08-11T09:20:22Z</time>
      </trkpt>
      <trkpt lat="42.6973770" lon="1.4004100">
        <ele>1843.7</ele>
        <time>2021-08-11T09:20:23Z</time>
      </trkpt>
      <trkpt lat="42.6973620" lon="1.4003960">
        <ele>1844.2</ele>
        <time>2021-08-11T09:20:25Z</time>
      </trkpt>
      <trkpt lat="42.6973430" lon="1.4003700">
        <ele>1845.0</ele>
        <time>2021-08-11T09:20:29Z</time>
      </trkpt>
      <trkpt lat="42.6973400" lon="1.4003630">
        <ele>1845.1</ele>
        <time>2021-08-11T09:20:30Z</time>
      </trkpt>
      <trkpt lat="42.6973370" lon="1.4003600">
        <ele>1845.3</ele>
        <time>2021-08-11T09:20:31Z</time>
      </trkpt>
      <trkpt lat="42.6973140" lon="1.4003470">
        <ele>1846.0</ele>
        <time>2021-08-11T09:20:36Z</time>
      </trkpt>
      <trkpt lat="42.6973100" lon="1.4003320">
        <ele>1846.4</ele>
        <time>2021-08-11T09:20:38Z</time>
      </trkpt>
      <trkpt lat="42.6972930" lon="1.4003140">
        <ele>1847.1</ele>
        <time>2021-08-11T09:20:42Z</time>
      </trkpt>
      <trkpt lat="42.6972850" lon="1.4003100">
        <ele>1847.4</ele>
        <time>2021-08-11T09:20:44Z</time>
      </trkpt>
      <trkpt lat="42.6972510" lon="1.4002920">
        <ele>1848.6</ele>
        <time>2021-08-11T09:20:52Z</time>
      </trkpt>
      <trkpt lat="42.6971190" lon="1.4002100">
        <ele>1853.6</ele>
        <time>2021-08-11T09:21:27Z</time>
      </trkpt>
      <trkpt lat="42.6971110" lon="1.4002030">
        <ele>1853.9</ele>
        <time>2021-08-11T09:21:28Z</time>
      </trkpt>
      <trkpt lat="42.6970930" lon="1.4001840">
        <ele>1854.7</ele>
        <time>2021-08-11T09:21:32Z</time>
      </trkpt>
      <trkpt lat="42.6970760" lon="1.4001680">
        <ele>1855.4</ele>
        <time>2021-08-11T09:21:35Z</time>
      </trkpt>
      <trkpt lat="42.6970580" lon="1.4001600">
        <ele>1856.0</ele>
        <time>2021-08-11T09:21:38Z</time>
      </trkpt>
      <trkpt lat="42.6970160" lon="1.4001570">
        <ele>1857.2</ele>
        <time>2021-08-11T09:21:45Z</time>
      </trkpt>
      <trkpt lat="42.6970040" lon="1.4001580">
        <ele>1857.6</ele>
        <time>2021-08-11T09:21:49Z</time>
      </trkpt>
      <trkpt lat="42.6969830" lon="1.4001490">
        <ele>1858.2</ele>
        <time>2021-08-11T09:21:54Z</time>
      </trkpt>
      <trkpt lat="42.6969560" lon="1.4001100">
        <ele>1859.3</ele>
        <time>2021-08-11T09:22:05Z</time>
      </trkpt>
      <trkpt lat="42.6969510" lon="1.4001040">
        <ele>1859.5</ele>
        <time>2021-08-11T09:22:08Z</time>
      </trkpt>
      <trkpt lat="42.6968970" lon="1.4000090">
        <ele>1861.7</ele>
        <time>2021-08-11T09:22:31Z</time>
      </trkpt>
      <trkpt lat="42.6968920" lon="1.3999990">
        <ele>1862.0</ele>
        <time>2021-08-11T09:22:34Z</time>
      </trkpt>
      <trkpt lat="42.6969040" lon="1.3999890">
        <ele>1862.3</ele>
        <time>2021-08-11T09:22:51Z</time>
      </trkpt>
      <trkpt lat="42.6968800" lon="1.3999230">
        <ele>1863.7</ele>
        <time>2021-08-11T09:23:03Z</time>
      </trkpt>
      <trkpt lat="42.6968720" lon="1.3998640">
        <ele>1864.9</ele>
        <time>2021-08-11T09:23:12Z</time>
      </trkpt>
      <trkpt lat="42.6968920" lon="1.3996920">
        <ele>1868.8</ele>
        <time>2021-08-11T09:23:51Z</time>
      </trkpt>
      <trkpt lat="42.6968940" lon="1.3996740">
        <ele>1869.3</ele>
        <time>2021-08-11T09:23:54Z</time>
      </trkpt>
      <trkpt lat="42.6969050" lon="1.3996650">
        <ele>1869.7</ele>
        <time>2021-08-11T09:23:57Z</time>
      </trkpt>
      <trkpt lat="42.6969430" lon="1.3996400">
        <ele>1871.2</ele>
        <time>2021-08-11T09:24:06Z</time>
      </trkpt>
      <trkpt lat="42.6969620" lon="1.3995680">
        <ele>1873.3</ele>
        <time>2021-08-11T09:24:22Z</time>
      </trkpt>
      <trkpt lat="42.6969380" lon="1.3994540">
        <ele>1876.7</ele>
        <time>2021-08-11T09:24:41Z</time>
      </trkpt>
      <trkpt lat="42.6969470" lon="1.3993300">
        <ele>1880.5</ele>
        <time>2021-08-11T09:25:11Z</time>
      </trkpt>
      <trkpt lat="42.6969530" lon="1.3993120">
        <ele>1881.1</ele>
        <time>2021-08-11T09:25:14Z</time>
      </trkpt>
      <trkpt lat="42.6969260" lon="1.3991180">
        <ele>1887.7</ele>
        <time>2021-08-11T09:26:10Z</time>
      </trkpt>
      <trkpt lat="42.6969480" lon="1.3989620">
        <ele>1893.1</ele>
        <time>2021-08-11T09:26:46Z</time>
      </trkpt>
      <trkpt lat="42.6969020" lon="1.3989260">
        <ele>1895.4</ele>
        <time>2021-08-11T09:27:06Z</time>
      </trkpt>
      <trkpt lat="42.6968720" lon="1.3988960">
        <ele>1897.1</ele>
        <time>2021-08-11T09:27:12Z</time>
      </trkpt>
      <trkpt lat="42.6968520" lon="1.3988540">
        <ele>1898.7</ele>
        <time>2021-08-11T09:27:27Z</time>
      </trkpt>
      <trkpt lat="42.6968840" lon="1.3988050">
        <ele>1900.9</ele>
        <time>2021-08-11T09:27:46Z</time>
      </trkpt>
      <trkpt lat="42.6968360" lon="1.3987420">
        <ele>1904.3</ele>
        <time>2021-08-11T09:28:13Z</time>
      </trkpt>
      <trkpt lat="42.6968350" lon="1.3987380">
        <ele>1904.5</ele>
        <time>2021-08-11T09:28:14Z</time>
      </trkpt>
      <trkpt lat="42.6968380" lon="1.3987280">
        <ele>1904.9</ele>
        <time>2021-08-11T09:28:15Z</time>
      </trkpt>
      <trkpt lat="42.6968500" lon="1.3987120">
        <ele>1905.7</ele>
        <time>2021-08-11T09:28:19Z</time>
      </trkpt>
      <trkpt lat="42.6968600" lon="1.3987010">
        <ele>1906.5</ele>
        <time>2021-08-11T09:28:22Z</time>
      </trkpt>
      <trkpt lat="42.6968690" lon="1.3986680">
        <ele>1907.9</ele>
        <time>2021-08-11T09:28:35Z</time>
      </trkpt>
      <trkpt lat="42.6968070" lon="1.3986450">
        <ele>1911.5</ele>
        <time>2021-08-11T09:29:02Z</time>
      </trkpt>
      <trkpt lat="42.6967960" lon="1.3985280">
        <ele>1916.0</ele>
        <time>2021-08-11T09:29:38Z</time>
      </trkpt>
      <trkpt lat="42.6967980" lon="1.3985270">
        <ele>1916.0</ele>
        <time>2021-08-11T09:29:39Z</time>
      </trkpt>
      <trkpt lat="42.6967990" lon="1.3985250">
        <ele>1916.1</ele>
        <time>2021-08-11T09:29:40Z</time>
      </trkpt>
      <trkpt lat="42.6968000" lon="1.3985230">
        <ele>1916.2</ele>
        <time>2021-08-11T09:29:41Z</time>
      </trkpt>
      <trkpt lat="42.6968010" lon="1.3984920">
        <ele>1917.0</ele>
        <time>2021-08-11T09:29:49Z</time>
      </trkpt>
      <trkpt lat="42.6968010" lon="1.3984840">
        <ele>1917.2</ele>
        <time>2021-08-11T09:29:51Z</time>
      </trkpt>
      <trkpt lat="42.6968010" lon="1.3984420">
        <ele>1918.2</ele>
        <time>2021-08-11T09:30:08Z</time>
      </trkpt>
      <trkpt lat="42.6968250" lon="1.3984060">
        <ele>1919.3</ele>
        <time>2021-08-11T09:30:15Z</time>
      </trkpt>
      <trkpt lat="42.6968460" lon="1.3984030">
        <ele>1919.9</ele>
        <time>2021-08-11T09:30:25Z</time>
      </trkpt>
      <trkpt lat="42.6968490" lon="1.3984000">
        <ele>1920.0</ele>
        <time>2021-08-11T09:30:34Z</time>
      </trkpt>
      <trkpt lat="42.6968370" lon="1.3984080">
        <ele>1920.3</ele>
        <time>2021-08-11T09:30:43Z</time>
      </trkpt>
      <trkpt lat="42.6968050" lon="1.3984050">
        <ele>1921.1</ele>
        <time>2021-08-11T09:30:47Z</time>
      </trkpt>
      <trkpt lat="42.6968370" lon="1.3984000">
        <ele>1921.7</ele>
        <time>2021-08-11T09:30:57Z</time>
      </trkpt>
      <trkpt lat="42.6968470" lon="1.3983940">
        <ele>1922.0</ele>
        <time>2021-08-11T09:31:00Z</time>
      </trkpt>
      <trkpt lat="42.6968550" lon="1.3983870">
        <ele>1922.1</ele>
        <time>2021-08-11T09:31:01Z</time>
      </trkpt>
      <trkpt lat="42.6968610" lon="1.3983810">
        <ele>1922.3</ele>
        <time>2021-08-11T09:31:02Z</time>
      </trkpt>
      <trkpt lat="42.6968680" lon="1.3983770">
        <ele>1922.4</ele>
        <time>2021-08-11T09:31:03Z</time>
      </trkpt>
      <trkpt lat="42.6968920" lon="1.3983330">
        <ele>1923.1</ele>
        <time>2021-08-11T09:31:07Z</time>
      </trkpt>
      <trkpt lat="42.6968980" lon="1.3983200">
        <ele>1923.3</ele>
        <time>2021-08-11T09:31:11Z</time>
      </trkpt>
      <trkpt lat="42.6969080" lon="1.3983040">
        <ele>1923.6</ele>
        <time>2021-08-11T09:31:14Z</time>
      </trkpt>
      <trkpt lat="42.6969040" lon="1.3982510">
        <ele>1924.3</ele>
        <time>2021-08-11T09:31:21Z</time>
      </trkpt>
      <trkpt lat="42.6969020" lon="1.3982350">
        <ele>1924.5</ele>
        <time>2021-08-11T09:31:23Z</time>
      </trkpt>
      <trkpt lat="42.6969030" lon="1.3982170">
        <ele>1924.7</ele>
        <time>2021-08-11T09:31:25Z</time>
      </trkpt>
      <trkpt lat="42.6969030" lon="1.3982130">
        <ele>1924.7</ele>
        <time>2021-08-11T09:31:26Z</time>
      </trkpt>
      <trkpt lat="42.6969050" lon="1.3982080">
        <ele>1924.8</ele>
        <time>2021-08-11T09:31:28Z</time>
      </trkpt>
      <trkpt lat="42.6969050" lon="1.3982060">
        <ele>1924.8</ele>
        <time>2021-08-11T09:31:29Z</time>
      </trkpt>
      <trkpt lat="42.6969350" lon="1.3982000">
        <ele>1925.4</ele>
        <time>2021-08-11T09:31:35Z</time>
      </trkpt>
      <trkpt lat="42.6969310" lon="1.3981750">
        <ele>1925.7</ele>
        <time>2021-08-11T09:32:01Z</time>
      </trkpt>
      <trkpt lat="42.6969200" lon="1.3981090">
        <ele>1926.4</ele>
        <time>2021-08-11T09:32:11Z</time>
      </trkpt>
      <trkpt lat="42.6969230" lon="1.3980980">
        <ele>1926.5</ele>
        <time>2021-08-11T09:32:13Z</time>
      </trkpt>
      <trkpt lat="42.6969280" lon="1.3980940">
        <ele>1926.6</ele>
        <time>2021-08-11T09:32:14Z</time>
      </trkpt>
      <trkpt lat="42.6969280" lon="1.3980930">
        <ele>1926.6</ele>
        <time>2021-08-11T09:32:15Z</time>
      </trkpt>
      <trkpt lat="42.6969380" lon="1.3980930">
        <ele>1926.8</ele>
        <time>2021-08-11T09:32:18Z</time>
      </trkpt>
      <trkpt lat="42.6969420" lon="1.3980930">
        <ele>1926.9</ele>
        <time>2021-08-11T09:32:19Z</time>
      </trkpt>
      <trkpt lat="42.6969440" lon="1.3980910">
        <ele>1926.9</ele>
        <time>2021-08-11T09:32:20Z</time>
      </trkpt>
      <trkpt lat="42.6969460" lon="1.3980860">
        <ele>1927.0</ele>
        <time>2021-08-11T09:32:23Z</time>
      </trkpt>
      <trkpt lat="42.6969460" lon="1.3980830">
        <ele>1927.0</ele>
        <time>2021-08-11T09:32:25Z</time>
      </trkpt>
      <trkpt lat="42.6969450" lon="1.3980790">
        <ele>1927.0</ele>
        <time>2021-08-11T09:32:27Z</time>
      </trkpt>
      <trkpt lat="42.6969430" lon="1.3980660">
        <ele>1927.2</ele>
        <time>2021-08-11T09:32:30Z</time>
      </trkpt>
      <trkpt lat="42.6969400" lon="1.3980590">
        <ele>1927.2</ele>
        <time>2021-08-11T09:32:32Z</time>
      </trkpt>
      <trkpt lat="42.6969320" lon="1.3980270">
        <ele>1927.6</ele>
        <time>2021-08-11T09:32:36Z</time>
      </trkpt>
      <trkpt lat="42.6969180" lon="1.3979970">
        <ele>1927.9</ele>
        <time>2021-08-11T09:32:41Z</time>
      </trkpt>
      <trkpt lat="42.6969050" lon="1.3979570">
        <ele>1928.4</ele>
        <time>2021-08-11T09:32:48Z</time>
      </trkpt>
      <trkpt lat="42.6969480" lon="1.3977170">
        <ele>1930.8</ele>
        <time>2021-08-11T09:33:17Z</time>
      </trkpt>
      <trkpt lat="42.6970420" lon="1.3975490">
        <ele>1933.4</ele>
        <time>2021-08-11T09:33:45Z</time>
      </trkpt>
      <trkpt lat="42.6970700" lon="1.3974660">
        <ele>1934.6</ele>
        <time>2021-08-11T09:34:11Z</time>
      </trkpt>
      <trkpt lat="42.6970530" lon="1.3974730">
        <ele>1934.9</ele>
        <time>2021-08-11T09:34:35Z</time>
      </trkpt>
      <trkpt lat="42.6970530" lon="1.3974730">
        <ele>1934.9</ele>
        <time>2021-08-11T09:34:36Z</time>
      </trkpt>
      <trkpt lat="42.6970620" lon="1.3974270">
        <ele>1935.5</ele>
        <time>2021-08-11T09:56:22Z</time>
      </trkpt>
      <trkpt lat="42.6970610" lon="1.3974260">
        <ele>1935.5</ele>
        <time>2021-08-11T09:56:23Z</time>
      </trkpt>
      <trkpt lat="42.6970490" lon="1.3974060">
        <ele>1935.9</ele>
        <time>2021-08-11T09:56:27Z</time>
      </trkpt>
      <trkpt lat="42.6970340" lon="1.3973950">
        <ele>1936.2</ele>
        <time>2021-08-11T09:56:32Z</time>
      </trkpt>
      <trkpt lat="42.6970430" lon="1.3973930">
        <ele>1936.5</ele>
        <time>2021-08-11T09:56:36Z</time>
      </trkpt>
      <trkpt lat="42.6970430" lon="1.3973920">
        <ele>1936.5</ele>
        <time>2021-08-11T09:56:39Z</time>
      </trkpt>
      <trkpt lat="42.6970430" lon="1.3973930">
        <ele>1936.5</ele>
        <time>2021-08-11T09:56:41Z</time>
      </trkpt>
      <trkpt lat="42.6970430" lon="1.3973930">
        <ele>1936.5</ele>
        <time>2021-08-11T09:56:42Z</time>
      </trkpt>
      <trkpt lat="42.6970360" lon="1.3973780">
        <ele>1936.7</ele>
        <time>2021-08-11T09:56:45Z</time>
      </trkpt>
      <trkpt lat="42.6970270" lon="1.3973640">
        <ele>1937.0</ele>
        <time>2021-08-11T09:56:48Z</time>
      </trkpt>
      <trkpt lat="42.6970140" lon="1.3973460">
        <ele>1937.4</ele>
        <time>2021-08-11T09:56:51Z</time>
      </trkpt>
      <trkpt lat="42.6970060" lon="1.3973060">
        <ele>1938.1</ele>
        <time>2021-08-11T09:56:57Z</time>
      </trkpt>
      <trkpt lat="42.6970040" lon="1.3973000">
        <ele>1938.2</ele>
        <time>2021-08-11T09:56:58Z</time>
      </trkpt>
      <trkpt lat="42.6970020" lon="1.3972950">
        <ele>1938.3</ele>
        <time>2021-08-11T09:56:59Z</time>
      </trkpt>
      <trkpt lat="42.6969850" lon="1.3972550">
        <ele>1939.1</ele>
        <time>2021-08-11T09:57:04Z</time>
      </trkpt>
      <trkpt lat="42.6969720" lon="1.3972430">
        <ele>1939.5</ele>
        <time>2021-08-11T09:57:06Z</time>
      </trkpt>
      <trkpt lat="42.6969520" lon="1.3972310">
        <ele>1940.2</ele>
        <time>2021-08-11T09:57:09Z</time>
      </trkpt>
      <trkpt lat="42.6969320" lon="1.3970940">
        <ele>1943.3</ele>
        <time>2021-08-11T09:57:30Z</time>
      </trkpt>
      <trkpt lat="42.6968870" lon="1.3970740">
        <ele>1944.9</ele>
        <time>2021-08-11T09:57:38Z</time>
      </trkpt>
      <trkpt lat="42.6967890" lon="1.3970170">
        <ele>1948.6</ele>
        <time>2021-08-11T09:58:01Z</time>
      </trkpt>
      <trkpt lat="42.6967080" lon="1.3970150">
        <ele>1951.6</ele>
        <time>2021-08-11T09:58:20Z</time>
      </trkpt>
      <trkpt lat="42.6967500" lon="1.3969550">
        <ele>1954.1</ele>
        <time>2021-08-11T09:58:31Z</time>
      </trkpt>
      <trkpt lat="42.6966620" lon="1.3969420">
        <ele>1958.0</ele>
        <time>2021-08-11T09:58:44Z</time>
      </trkpt>
      <trkpt lat="42.6965860" lon="1.3970180">
        <ele>1962.4</ele>
        <time>2021-08-11T09:58:55Z</time>
      </trkpt>
      <trkpt lat="42.6965370" lon="1.3968940">
        <ele>1967.3</ele>
        <time>2021-08-11T09:59:40Z</time>
      </trkpt>
      <trkpt lat="42.6964820" lon="1.3969090">
        <ele>1969.8</ele>
        <time>2021-08-11T09:59:59Z</time>
      </trkpt>
      <trkpt lat="42.6964250" lon="1.3967150">
        <ele>1976.7</ele>
        <time>2021-08-11T10:01:01Z</time>
      </trkpt>
      <trkpt lat="42.6963180" lon="1.3966300">
        <ele>1981.4</ele>
        <time>2021-08-11T10:01:47Z</time>
      </trkpt>
      <trkpt lat="42.6962030" lon="1.3965880">
        <ele>1985.4</ele>
        <time>2021-08-11T10:02:34Z</time>
      </trkpt>
      <trkpt lat="42.6961290" lon="1.3965070">
        <ele>1988.1</ele>
        <time>2021-08-11T10:02:59Z</time>
      </trkpt>
      <trkpt lat="42.6961210" lon="1.3964850">
        <ele>1988.5</ele>
        <time>2021-08-11T10:03:08Z</time>
      </trkpt>
      <trkpt lat="42.6959550" lon="1.3964010">
        <ele>1993.0</ele>
        <time>2021-08-11T10:03:42Z</time>
      </trkpt>
      <trkpt lat="42.6958130" lon="1.3963410">
        <ele>1997.0</ele>
        <time>2021-08-11T10:04:16Z</time>
      </trkpt>
      <trkpt lat="42.6957600" lon="1.3963410">
        <ele>1998.7</ele>
        <time>2021-08-11T10:04:26Z</time>
      </trkpt>
      <trkpt lat="42.6957250" lon="1.3963370">
        <ele>1999.8</ele>
        <time>2021-08-11T10:04:31Z</time>
      </trkpt>
      <trkpt lat="42.6957120" lon="1.3963310">
        <ele>2000.3</ele>
        <time>2021-08-11T10:04:32Z</time>
      </trkpt>
      <trkpt lat="42.6956960" lon="1.3962970">
        <ele>2001.4</ele>
        <time>2021-08-11T10:04:37Z</time>
      </trkpt>
      <trkpt lat="42.6956960" lon="1.3962910">
        <ele>2001.6</ele>
        <time>2021-08-11T10:04:38Z</time>
      </trkpt>
      <trkpt lat="42.6956950" lon="1.3962900">
        <ele>2001.6</ele>
        <time>2021-08-11T10:04:39Z</time>
      </trkpt>
      <trkpt lat="42.6956650" lon="1.3962620">
        <ele>2002.9</ele>
        <time>2021-08-11T10:04:59Z</time>
      </trkpt>
      <trkpt lat="42.6956660" lon="1.3962240">
        <ele>2004.0</ele>
        <time>2021-08-11T10:05:05Z</time>
      </trkpt>
      <trkpt lat="42.6955620" lon="1.3961080">
        <ele>2008.8</ele>
        <time>2021-08-11T10:05:37Z</time>
      </trkpt>
      <trkpt lat="42.6955640" lon="1.3960960">
        <ele>2009.1</ele>
        <time>2021-08-11T10:05:38Z</time>
      </trkpt>
      <trkpt lat="42.6955600" lon="1.3960910">
        <ele>2009.3</ele>
        <time>2021-08-11T10:05:39Z</time>
      </trkpt>
      <trkpt lat="42.6955550" lon="1.3960890">
        <ele>2009.5</ele>
        <time>2021-08-11T10:05:40Z</time>
      </trkpt>
      <trkpt lat="42.6955430" lon="1.3960960">
        <ele>2010.0</ele>
        <time>2021-08-11T10:05:41Z</time>
      </trkpt>
      <trkpt lat="42.6954740" lon="1.3961330">
        <ele>2012.6</ele>
        <time>2021-08-11T10:05:53Z</time>
      </trkpt>
      <trkpt lat="42.6954270" lon="1.3961020">
        <ele>2014.4</ele>
        <time>2021-08-11T10:06:04Z</time>
      </trkpt>
      <trkpt lat="42.6954150" lon="1.3961170">
        <ele>2015.0</ele>
        <time>2021-08-11T10:06:08Z</time>
      </trkpt>
      <trkpt lat="42.6953870" lon="1.3960710">
        <ele>2016.5</ele>
        <time>2021-08-11T10:06:24Z</time>
      </trkpt>
      <trkpt lat="42.6953310" lon="1.3959820">
        <ele>2019.7</ele>
        <time>2021-08-11T10:06:51Z</time>
      </trkpt>
      <trkpt lat="42.6952880" lon="1.3959930">
        <ele>2021.4</ele>
        <time>2021-08-11T10:07:09Z</time>
      </trkpt>
      <trkpt lat="42.6952680" lon="1.3959760">
        <ele>2022.4</ele>
        <time>2021-08-11T10:07:17Z</time>
      </trkpt>
      <trkpt lat="42.6952350" lon="1.3959850">
        <ele>2023.7</ele>
        <time>2021-08-11T10:07:30Z</time>
      </trkpt>
      <trkpt lat="42.6952170" lon="1.3959920">
        <ele>2024.5</ele>
        <time>2021-08-11T10:07:35Z</time>
      </trkpt>
      <trkpt lat="42.6952010" lon="1.3960260">
        <ele>2025.8</ele>
        <time>2021-08-11T10:07:44Z</time>
      </trkpt>
      <trkpt lat="42.6952360" lon="1.3959910">
        <ele>2027.7</ele>
        <time>2021-08-11T10:08:19Z</time>
      </trkpt>
      <trkpt lat="42.6952340" lon="1.3959880">
        <ele>2027.8</ele>
        <time>2021-08-11T10:08:31Z</time>
      </trkpt>
      <trkpt lat="42.6952090" lon="1.3959940">
        <ele>2028.9</ele>
        <time>2021-08-11T10:08:36Z</time>
      </trkpt>
      <trkpt lat="42.6952100" lon="1.3959940">
        <ele>2029.0</ele>
        <time>2021-08-11T10:08:37Z</time>
      </trkpt>
      <trkpt lat="42.6951890" lon="1.3959940">
        <ele>2029.9</ele>
        <time>2021-08-11T10:08:48Z</time>
      </trkpt>
      <trkpt lat="42.6951470" lon="1.3960100">
        <ele>2031.8</ele>
        <time>2021-08-11T10:08:53Z</time>
      </trkpt>
      <trkpt lat="42.6951440" lon="1.3960340">
        <ele>2032.7</ele>
        <time>2021-08-11T10:08:56Z</time>
      </trkpt>
      <trkpt lat="42.6951350" lon="1.3960630">
        <ele>2033.7</ele>
        <time>2021-08-11T10:09:01Z</time>
      </trkpt>
      <trkpt lat="42.6951230" lon="1.3960560">
        <ele>2034.3</ele>
        <time>2021-08-11T10:09:04Z</time>
      </trkpt>
      <trkpt lat="42.6951210" lon="1.3960550">
        <ele>2034.4</ele>
        <time>2021-08-11T10:09:05Z</time>
      </trkpt>
      <trkpt lat="42.6951100" lon="1.3960580">
        <ele>2035.0</ele>
        <time>2021-08-11T10:09:07Z</time>
      </trkpt>
      <trkpt lat="42.6951080" lon="1.3960640">
        <ele>2035.2</ele>
        <time>2021-08-11T10:09:08Z</time>
      </trkpt>
      <trkpt lat="42.6951030" lon="1.3960780">
        <ele>2035.7</ele>
        <time>2021-08-11T10:09:10Z</time>
      </trkpt>
      <trkpt lat="42.6950980" lon="1.3960870">
        <ele>2036.1</ele>
        <time>2021-08-11T10:09:11Z</time>
      </trkpt>
      <trkpt lat="42.6950950" lon="1.3960940">
        <ele>2036.4</ele>
        <time>2021-08-11T10:09:12Z</time>
      </trkpt>
      <trkpt lat="42.6950920" lon="1.3961020">
        <ele>2036.7</ele>
        <time>2021-08-11T10:09:13Z</time>
      </trkpt>
      <trkpt lat="42.6950890" lon="1.3961110">
        <ele>2037.0</ele>
        <time>2021-08-11T10:09:14Z</time>
      </trkpt>
      <trkpt lat="42.6950880" lon="1.3961300">
        <ele>2037.7</ele>
        <time>2021-08-11T10:09:16Z</time>
      </trkpt>
      <trkpt lat="42.6950830" lon="1.3961490">
        <ele>2038.3</ele>
        <time>2021-08-11T10:09:20Z</time>
      </trkpt>
      <trkpt lat="42.6950700" lon="1.3961750">
        <ele>2039.3</ele>
        <time>2021-08-11T10:09:25Z</time>
      </trkpt>
      <trkpt lat="42.6950660" lon="1.3961770">
        <ele>2039.4</ele>
        <time>2021-08-11T10:09:27Z</time>
      </trkpt>
      <trkpt lat="42.6950560" lon="1.3961730">
        <ele>2040.0</ele>
        <time>2021-08-11T10:09:31Z</time>
      </trkpt>
      <trkpt lat="42.6950410" lon="1.3961610">
        <ele>2040.6</ele>
        <time>2021-08-11T10:09:34Z</time>
      </trkpt>
      <trkpt lat="42.6950390" lon="1.3961580">
        <ele>2040.7</ele>
        <time>2021-08-11T10:09:38Z</time>
      </trkpt>
      <trkpt lat="42.6948960" lon="1.3961470">
        <ele>2046.0</ele>
        <time>2021-08-11T10:10:18Z</time>
      </trkpt>
      <trkpt lat="42.6948230" lon="1.3961250">
        <ele>2048.7</ele>
        <time>2021-08-11T10:10:35Z</time>
      </trkpt>
      <trkpt lat="42.6948120" lon="1.3961340">
        <ele>2049.1</ele>
        <time>2021-08-11T10:10:38Z</time>
      </trkpt>
      <trkpt lat="42.6946720" lon="1.3960020">
        <ele>2055.1</ele>
        <time>2021-08-11T10:11:20Z</time>
      </trkpt>
      <trkpt lat="42.6946090" lon="1.3959660">
        <ele>2057.5</ele>
        <time>2021-08-11T10:11:40Z</time>
      </trkpt>
      <trkpt lat="42.6945660" lon="1.3959620">
        <ele>2059.1</ele>
        <time>2021-08-11T10:12:00Z</time>
      </trkpt>
      <trkpt lat="42.6945700" lon="1.3959520">
        <ele>2059.4</ele>
        <time>2021-08-11T10:12:03Z</time>
      </trkpt>
      <trkpt lat="42.6945690" lon="1.3959250">
        <ele>2060.2</ele>
        <time>2021-08-11T10:12:08Z</time>
      </trkpt>
      <trkpt lat="42.6945520" lon="1.3959040">
        <ele>2061.0</ele>
        <time>2021-08-11T10:12:15Z</time>
      </trkpt>
      <trkpt lat="42.6945420" lon="1.3958600">
        <ele>2062.2</ele>
        <time>2021-08-11T10:12:23Z</time>
      </trkpt>
      <trkpt lat="42.6944700" lon="1.3958040">
        <ele>2065.2</ele>
        <time>2021-08-11T10:12:39Z</time>
      </trkpt>
      <trkpt lat="42.6944400" lon="1.3958220">
        <ele>2066.3</ele>
        <time>2021-08-11T10:12:44Z</time>
      </trkpt>
      <trkpt lat="42.6944380" lon="1.3958240">
        <ele>2066.4</ele>
        <time>2021-08-11T10:12:45Z</time>
      </trkpt>
      <trkpt lat="42.6944300" lon="1.3958230">
        <ele>2066.6</ele>
        <time>2021-08-11T10:12:48Z</time>
      </trkpt>
      <trkpt lat="42.6943600" lon="1.3958850">
        <ele>2069.3</ele>
        <time>2021-08-11T10:13:05Z</time>
      </trkpt>
      <trkpt lat="42.6943180" lon="1.3959460">
        <ele>2071.1</ele>
        <time>2021-08-11T10:13:17Z</time>
      </trkpt>
      <trkpt lat="42.6943290" lon="1.3959470">
        <ele>2071.4</ele>
        <time>2021-08-11T10:13:28Z</time>
      </trkpt>
      <trkpt lat="42.6943370" lon="1.3959330">
        <ele>2071.8</ele>
        <time>2021-08-11T10:13:37Z</time>
      </trkpt>
      <trkpt lat="42.6943280" lon="1.3959420">
        <ele>2072.1</ele>
        <time>2021-08-11T10:13:43Z</time>
      </trkpt>
      <trkpt lat="42.6943080" lon="1.3959550">
        <ele>2072.7</ele>
        <time>2021-08-11T10:13:47Z</time>
      </trkpt>
      <trkpt lat="42.6942820" lon="1.3959420">
        <ele>2073.5</ele>
        <time>2021-08-11T10:13:52Z</time>
      </trkpt>
      <trkpt lat="42.6942590" lon="1.3959420">
        <ele>2074.1</ele>
        <time>2021-08-11T10:13:55Z</time>
      </trkpt>
      <trkpt lat="42.6942410" lon="1.3959480">
        <ele>2074.6</ele>
        <time>2021-08-11T10:13:56Z</time>
      </trkpt>
      <trkpt lat="42.6942260" lon="1.3959550">
        <ele>2075.0</ele>
        <time>2021-08-11T10:13:57Z</time>
      </trkpt>
      <trkpt lat="42.6942220" lon="1.3959590">
        <ele>2075.1</ele>
        <time>2021-08-11T10:13:58Z</time>
      </trkpt>
      <trkpt lat="42.6942010" lon="1.3959830">
        <ele>2075.8</ele>
        <time>2021-08-11T10:14:01Z</time>
      </trkpt>
      <trkpt lat="42.6941770" lon="1.3960060">
        <ele>2076.5</ele>
        <time>2021-08-11T10:14:04Z</time>
      </trkpt>
      <trkpt lat="42.6941700" lon="1.3960140">
        <ele>2076.8</ele>
        <time>2021-08-11T10:14:05Z</time>
      </trkpt>
      <trkpt lat="42.6941660" lon="1.3960260">
        <ele>2077.0</ele>
        <time>2021-08-11T10:14:07Z</time>
      </trkpt>
      <trkpt lat="42.6941650" lon="1.3960360">
        <ele>2077.2</ele>
        <time>2021-08-11T10:14:08Z</time>
      </trkpt>
      <trkpt lat="42.6941650" lon="1.3960440">
        <ele>2077.3</ele>
        <time>2021-08-11T10:14:09Z</time>
      </trkpt>
      <trkpt lat="42.6941650" lon="1.3960500">
        <ele>2077.4</ele>
        <time>2021-08-11T10:14:10Z</time>
      </trkpt>
      <trkpt lat="42.6941620" lon="1.3960540">
        <ele>2077.5</ele>
        <time>2021-08-11T10:14:11Z</time>
      </trkpt>
      <trkpt lat="42.6941610" lon="1.3960560">
        <ele>2077.6</ele>
        <time>2021-08-11T10:14:12Z</time>
      </trkpt>
      <trkpt lat="42.6941580" lon="1.3960560">
        <ele>2077.7</ele>
        <time>2021-08-11T10:14:13Z</time>
      </trkpt>
      <trkpt lat="42.6941550" lon="1.3960580">
        <ele>2077.8</ele>
        <time>2021-08-11T10:14:14Z</time>
      </trkpt>
      <trkpt lat="42.6941510" lon="1.3960600">
        <ele>2077.9</ele>
        <time>2021-08-11T10:14:15Z</time>
      </trkpt>
      <trkpt lat="42.6940810" lon="1.3960990">
        <ele>2079.9</ele>
        <time>2021-08-11T10:14:43Z</time>
      </trkpt>
      <trkpt lat="42.6940200" lon="1.3960590">
        <ele>2081.8</ele>
        <time>2021-08-11T10:14:59Z</time>
      </trkpt>
      <trkpt lat="42.6939500" lon="1.3961050">
        <ele>2084.1</ele>
        <time>2021-08-11T10:15:31Z</time>
      </trkpt>
      <trkpt lat="42.6938590" lon="1.3961570">
        <ele>2087.2</ele>
        <time>2021-08-11T10:15:52Z</time>
      </trkpt>
      <trkpt lat="42.6937920" lon="1.3961930">
        <ele>2089.4</ele>
        <time>2021-08-11T10:16:02Z</time>
      </trkpt>
      <trkpt lat="42.6937100" lon="1.3962370">
        <ele>2092.1</ele>
        <time>2021-08-11T10:16:36Z</time>
      </trkpt>
      <trkpt lat="42.6936630" lon="1.3962730">
        <ele>2093.8</ele>
        <time>2021-08-11T10:16:46Z</time>
      </trkpt>
      <trkpt lat="42.6935750" lon="1.3963020">
        <ele>2096.7</ele>
        <time>2021-08-11T10:17:06Z</time>
      </trkpt>
      <trkpt lat="42.6935800" lon="1.3963570">
        <ele>2098.0</ele>
        <time>2021-08-11T10:17:15Z</time>
      </trkpt>
      <trkpt lat="42.6934920" lon="1.3964360">
        <ele>2101.5</ele>
        <time>2021-08-11T10:17:34Z</time>
      </trkpt>
      <trkpt lat="42.6934890" lon="1.3964400">
        <ele>2101.6</ele>
        <time>2021-08-11T10:17:35Z</time>
      </trkpt>
      <trkpt lat="42.6934850" lon="1.3964450">
        <ele>2101.8</ele>
        <time>2021-08-11T10:17:36Z</time>
      </trkpt>
      <trkpt lat="42.6934810" lon="1.3964490">
        <ele>2102.0</ele>
        <time>2021-08-11T10:17:37Z</time>
      </trkpt>
      <trkpt lat="42.6934790" lon="1.3964530">
        <ele>2102.1</ele>
        <time>2021-08-11T10:17:38Z</time>
      </trkpt>
      <trkpt lat="42.6934740" lon="1.3964680">
        <ele>2102.5</ele>
        <time>2021-08-11T10:17:41Z</time>
      </trkpt>
      <trkpt lat="42.6935240" lon="1.3964970">
        <ele>2104.4</ele>
        <time>2021-08-11T10:18:14Z</time>
      </trkpt>
      <trkpt lat="42.6935080" lon="1.3964890">
        <ele>2105.0</ele>
        <time>2021-08-11T10:18:17Z</time>
      </trkpt>
      <trkpt lat="42.6934820" lon="1.3964770">
        <ele>2105.9</ele>
        <time>2021-08-11T10:18:21Z</time>
      </trkpt>
      <trkpt lat="42.6934750" lon="1.3964310">
        <ele>2107.2</ele>
        <time>2021-08-11T10:18:27Z</time>
      </trkpt>
      <trkpt lat="42.6934610" lon="1.3964040">
        <ele>2108.1</ele>
        <time>2021-08-11T10:18:31Z</time>
      </trkpt>
      <trkpt lat="42.6934400" lon="1.3963920">
        <ele>2109.0</ele>
        <time>2021-08-11T10:18:35Z</time>
      </trkpt>
      <trkpt lat="42.6934080" lon="1.3963770">
        <ele>2110.2</ele>
        <time>2021-08-11T10:18:41Z</time>
      </trkpt>
      <trkpt lat="42.6934140" lon="1.3963500">
        <ele>2111.0</ele>
        <time>2021-08-11T10:18:47Z</time>
      </trkpt>
      <trkpt lat="42.6934160" lon="1.3963440">
        <ele>2111.2</ele>
        <time>2021-08-11T10:18:48Z</time>
      </trkpt>
      <trkpt lat="42.6934250" lon="1.3963340">
        <ele>2111.6</ele>
        <time>2021-08-11T10:18:50Z</time>
      </trkpt>
      <trkpt lat="42.6934180" lon="1.3962990">
        <ele>2112.7</ele>
        <time>2021-08-11T10:18:56Z</time>
      </trkpt>
      <trkpt lat="42.6934160" lon="1.3962970">
        <ele>2112.8</ele>
        <time>2021-08-11T10:18:57Z</time>
      </trkpt>
      <trkpt lat="42.6934150" lon="1.3962960">
        <ele>2112.8</ele>
        <time>2021-08-11T10:18:58Z</time>
      </trkpt>
      <trkpt lat="42.6933830" lon="1.3962580">
        <ele>2114.5</ele>
        <time>2021-08-11T10:19:11Z</time>
      </trkpt>
      <trkpt lat="42.6933760" lon="1.3962560">
        <ele>2114.8</ele>
        <time>2021-08-11T10:19:16Z</time>
      </trkpt>
      <trkpt lat="42.6932350" lon="1.3963120">
        <ele>2120.6</ele>
        <time>2021-08-11T10:19:55Z</time>
      </trkpt>
      <trkpt lat="42.6931970" lon="1.3963190">
        <ele>2122.1</ele>
        <time>2021-08-11T10:20:01Z</time>
      </trkpt>
      <trkpt lat="42.6931690" lon="1.3963620">
        <ele>2123.8</ele>
        <time>2021-08-11T10:20:10Z</time>
      </trkpt>
      <trkpt lat="42.6931640" lon="1.3963640">
        <ele>2124.0</ele>
        <time>2021-08-11T10:20:12Z</time>
      </trkpt>
      <trkpt lat="42.6931670" lon="1.3963580">
        <ele>2124.2</ele>
        <time>2021-08-11T10:20:14Z</time>
      </trkpt>
      <trkpt lat="42.6931700" lon="1.3963380">
        <ele>2124.8</ele>
        <time>2021-08-11T10:20:17Z</time>
      </trkpt>
      <trkpt lat="42.6931460" lon="1.3962540">
        <ele>2127.4</ele>
        <time>2021-08-11T10:20:46Z</time>
      </trkpt>
      <trkpt lat="42.6931430" lon="1.3962570">
        <ele>2127.6</ele>
        <time>2021-08-11T10:20:49Z</time>
      </trkpt>
      <trkpt lat="42.6931470" lon="1.3962590">
        <ele>2127.7</ele>
        <time>2021-08-11T10:20:52Z</time>
      </trkpt>
      <trkpt lat="42.6931640" lon="1.3962580">
        <ele>2128.4</ele>
        <time>2021-08-11T10:20:56Z</time>
      </trkpt>
      <trkpt lat="42.6931690" lon="1.3962560">
        <ele>2128.7</ele>
        <time>2021-08-11T10:20:59Z</time>
      </trkpt>
      <trkpt lat="42.6931440" lon="1.3962450">
        <ele>2129.8</ele>
        <time>2021-08-11T10:21:11Z</time>
      </trkpt>
      <trkpt lat="42.6931260" lon="1.3962370">
        <ele>2130.6</ele>
        <time>2021-08-11T10:21:15Z</time>
      </trkpt>
      <trkpt lat="42.6931200" lon="1.3962250">
        <ele>2131.0</ele>
        <time>2021-08-11T10:21:20Z</time>
      </trkpt>
      <trkpt lat="42.6931110" lon="1.3962130">
        <ele>2131.6</ele>
        <time>2021-08-11T10:21:24Z</time>
      </trkpt>
      <trkpt lat="42.6931070" lon="1.3961830">
        <ele>2132.5</ele>
        <time>2021-08-11T10:21:29Z</time>
      </trkpt>
      <trkpt lat="42.6931090" lon="1.3961780">
        <ele>2132.7</ele>
        <time>2021-08-11T10:21:30Z</time>
      </trkpt>
      <trkpt lat="42.6931080" lon="1.3961750">
        <ele>2132.8</ele>
        <time>2021-08-11T10:21:31Z</time>
      </trkpt>
      <trkpt lat="42.6930880" lon="1.3961700">
        <ele>2133.7</ele>
        <time>2021-08-11T10:21:35Z</time>
      </trkpt>
      <trkpt lat="42.6930690" lon="1.3961750">
        <ele>2134.6</ele>
        <time>2021-08-11T10:21:41Z</time>
      </trkpt>
      <trkpt lat="42.6930680" lon="1.3961770">
        <ele>2134.7</ele>
        <time>2021-08-11T10:21:43Z</time>
      </trkpt>
      <trkpt lat="42.6930900" lon="1.3962330">
        <ele>2136.7</ele>
        <time>2021-08-11T10:21:48Z</time>
      </trkpt>
      <trkpt lat="42.6930940" lon="1.3962730">
        <ele>2138.1</ele>
        <time>2021-08-11T10:21:52Z</time>
      </trkpt>
      <trkpt lat="42.6931020" lon="1.3963190">
        <ele>2139.6</ele>
        <time>2021-08-11T10:22:03Z</time>
      </trkpt>
      <trkpt lat="42.6930960" lon="1.3963060">
        <ele>2140.1</ele>
        <time>2021-08-11T10:22:09Z</time>
      </trkpt>
      <trkpt lat="42.6929980" lon="1.3962890">
        <ele>2144.3</ele>
        <time>2021-08-11T10:22:43Z</time>
      </trkpt>
      <trkpt lat="42.6930140" lon="1.3962060">
        <ele>2146.9</ele>
        <time>2021-08-11T10:22:58Z</time>
      </trkpt>
      <trkpt lat="42.6929960" lon="1.3961660">
        <ele>2148.4</ele>
        <time>2021-08-11T10:23:20Z</time>
      </trkpt>
      <trkpt lat="42.6929860" lon="1.3961930">
        <ele>2149.4</ele>
        <time>2021-08-11T10:23:32Z</time>
      </trkpt>
      <trkpt lat="42.6929840" lon="1.3961920">
        <ele>2149.5</ele>
        <time>2021-08-11T10:23:33Z</time>
      </trkpt>
      <trkpt lat="42.6929830" lon="1.3961910">
        <ele>2149.5</ele>
        <time>2021-08-11T10:23:34Z</time>
      </trkpt>
      <trkpt lat="42.6929810" lon="1.3961880">
        <ele>2149.6</ele>
        <time>2021-08-11T10:23:40Z</time>
      </trkpt>
      <trkpt lat="42.6929790" lon="1.3961850">
        <ele>2149.8</ele>
        <time>2021-08-11T10:23:44Z</time>
      </trkpt>
      <trkpt lat="42.6929770" lon="1.3961880">
        <ele>2149.9</ele>
        <time>2021-08-11T10:23:51Z</time>
      </trkpt>
      <trkpt lat="42.6929620" lon="1.3961340">
        <ele>2151.7</ele>
        <time>2021-08-11T10:23:59Z</time>
      </trkpt>
      <trkpt lat="42.6929580" lon="1.3960980">
        <ele>2152.9</ele>
        <time>2021-08-11T10:24:03Z</time>
      </trkpt>
      <trkpt lat="42.6929550" lon="1.3960710">
        <ele>2153.8</ele>
        <time>2021-08-11T10:24:08Z</time>
      </trkpt>
      <trkpt lat="42.6929400" lon="1.3960330">
        <ele>2155.1</ele>
        <time>2021-08-11T10:24:14Z</time>
      </trkpt>
      <trkpt lat="42.6929340" lon="1.3960230">
        <ele>2155.5</ele>
        <time>2021-08-11T10:24:17Z</time>
      </trkpt>
      <trkpt lat="42.6929360" lon="1.3960190">
        <ele>2155.6</ele>
        <time>2021-08-11T10:24:18Z</time>
      </trkpt>
      <trkpt lat="42.6929360" lon="1.3960170">
        <ele>2155.7</ele>
        <time>2021-08-11T10:24:19Z</time>
      </trkpt>
      <trkpt lat="42.6929380" lon="1.3960190">
        <ele>2155.8</ele>
        <time>2021-08-11T10:24:24Z</time>
      </trkpt>
      <trkpt lat="42.6929370" lon="1.3960220">
        <ele>2155.9</ele>
        <time>2021-08-11T10:24:25Z</time>
      </trkpt>
      <trkpt lat="42.6929350" lon="1.3960200">
        <ele>2156.0</ele>
        <time>2021-08-11T10:24:26Z</time>
      </trkpt>
      <trkpt lat="42.6929350" lon="1.3960080">
        <ele>2156.3</ele>
        <time>2021-08-11T10:24:28Z</time>
      </trkpt>
      <trkpt lat="42.6929380" lon="1.3960000">
        <ele>2156.6</ele>
        <time>2021-08-11T10:24:30Z</time>
      </trkpt>
      <trkpt lat="42.6929500" lon="1.3959900">
        <ele>2157.2</ele>
        <time>2021-08-11T10:24:33Z</time>
      </trkpt>
      <trkpt lat="42.6929640" lon="1.3959800">
        <ele>2157.8</ele>
        <time>2021-08-11T10:24:42Z</time>
      </trkpt>
      <trkpt lat="42.6929710" lon="1.3959530">
        <ele>2158.7</ele>
        <time>2021-08-11T10:24:48Z</time>
      </trkpt>
      <trkpt lat="42.6929570" lon="1.3959520">
        <ele>2159.2</ele>
        <time>2021-08-11T10:24:51Z</time>
      </trkpt>
      <trkpt lat="42.6929160" lon="1.3959840">
        <ele>2161.1</ele>
        <time>2021-08-11T10:24:59Z</time>
      </trkpt>
      <trkpt lat="42.6928060" lon="1.3959400">
        <ele>2165.6</ele>
        <time>2021-08-11T10:25:46Z</time>
      </trkpt>
      <trkpt lat="42.6927140" lon="1.3959580">
        <ele>2169.4</ele>
        <time>2021-08-11T10:26:14Z</time>
      </trkpt>
      <trkpt lat="42.6925830" lon="1.3958660">
        <ele>2175.0</ele>
        <time>2021-08-11T10:26:54Z</time>
      </trkpt>
      <trkpt lat="42.6925240" lon="1.3958480">
        <ele>2177.2</ele>
        <time>2021-08-11T10:27:16Z</time>
      </trkpt>
      <trkpt lat="42.6924720" lon="1.3957890">
        <ele>2179.7</ele>
        <time>2021-08-11T10:27:30Z</time>
      </trkpt>
      <trkpt lat="42.6924440" lon="1.3957650">
        <ele>2180.9</ele>
        <time>2021-08-11T10:27:36Z</time>
      </trkpt>
      <trkpt lat="42.6924380" lon="1.3957500">
        <ele>2181.3</ele>
        <time>2021-08-11T10:27:38Z</time>
      </trkpt>
      <trkpt lat="42.6924300" lon="1.3957430">
        <ele>2181.7</ele>
        <time>2021-08-11T10:27:40Z</time>
      </trkpt>
      <trkpt lat="42.6924220" lon="1.3957340">
        <ele>2182.0</ele>
        <time>2021-08-11T10:27:43Z</time>
      </trkpt>
      <trkpt lat="42.6924100" lon="1.3956780">
        <ele>2183.5</ele>
        <time>2021-08-11T10:27:55Z</time>
      </trkpt>
      <trkpt lat="42.6923160" lon="1.3956610">
        <ele>2186.8</ele>
        <time>2021-08-11T10:28:15Z</time>
      </trkpt>
      <trkpt lat="42.6922740" lon="1.3956410">
        <ele>2188.4</ele>
        <time>2021-08-11T10:28:29Z</time>
      </trkpt>
      <trkpt lat="42.6922430" lon="1.3956150">
        <ele>2189.6</ele>
        <time>2021-08-11T10:28:36Z</time>
      </trkpt>
      <trkpt lat="42.6921950" lon="1.3956000">
        <ele>2191.4</ele>
        <time>2021-08-11T10:28:55Z</time>
      </trkpt>
      <trkpt lat="42.6921950" lon="1.3956000">
        <ele>2191.4</ele>
        <time>2021-08-11T10:28:56Z</time>
      </trkpt>
      <trkpt lat="42.6921950" lon="1.3956010">
        <ele>2191.4</ele>
        <time>2021-08-11T10:28:57Z</time>
      </trkpt>
      <trkpt lat="42.6921950" lon="1.3956020">
        <ele>2191.4</ele>
        <time>2021-08-11T10:28:58Z</time>
      </trkpt>
      <trkpt lat="42.6921980" lon="1.3956050">
        <ele>2191.6</ele>
        <time>2021-08-11T10:29:01Z</time>
      </trkpt>
      <trkpt lat="42.6921870" lon="1.3955600">
        <ele>2192.8</ele>
        <time>2021-08-11T10:29:15Z</time>
      </trkpt>
      <trkpt lat="42.6921820" lon="1.3955680">
        <ele>2193.1</ele>
        <time>2021-08-11T10:29:17Z</time>
      </trkpt>
      <trkpt lat="42.6921810" lon="1.3955710">
        <ele>2193.2</ele>
        <time>2021-08-11T10:29:18Z</time>
      </trkpt>
      <trkpt lat="42.6921370" lon="1.3955530">
        <ele>2194.8</ele>
        <time>2021-08-11T10:29:37Z</time>
      </trkpt>
      <trkpt lat="42.6921370" lon="1.3955520">
        <ele>2194.8</ele>
        <time>2021-08-11T10:29:39Z</time>
      </trkpt>
      <trkpt lat="42.6921380" lon="1.3955530">
        <ele>2194.9</ele>
        <time>2021-08-11T10:29:40Z</time>
      </trkpt>
      <trkpt lat="42.6921390" lon="1.3955530">
        <ele>2194.9</ele>
        <time>2021-08-11T10:29:41Z</time>
      </trkpt>
      <trkpt lat="42.6921420" lon="1.3955500">
        <ele>2195.0</ele>
        <time>2021-08-11T10:29:43Z</time>
      </trkpt>
      <trkpt lat="42.6921400" lon="1.3955420">
        <ele>2195.3</ele>
        <time>2021-08-11T10:29:45Z</time>
      </trkpt>
      <trkpt lat="42.6921310" lon="1.3955340">
        <ele>2195.6</ele>
        <time>2021-08-11T10:29:47Z</time>
      </trkpt>
      <trkpt lat="42.6921170" lon="1.3955360">
        <ele>2196.1</ele>
        <time>2021-08-11T10:29:49Z</time>
      </trkpt>
      <trkpt lat="42.6921110" lon="1.3955420">
        <ele>2196.4</ele>
        <time>2021-08-11T10:29:50Z</time>
      </trkpt>
      <trkpt lat="42.6920490" lon="1.3956280">
        <ele>2199.2</ele>
        <time>2021-08-11T10:30:10Z</time>
      </trkpt>
      <trkpt lat="42.6920230" lon="1.3956560">
        <ele>2200.2</ele>
        <time>2021-08-11T10:30:17Z</time>
      </trkpt>
      <trkpt lat="42.6919030" lon="1.3956200">
        <ele>2203.8</ele>
        <time>2021-08-11T10:30:41Z</time>
      </trkpt>
      <trkpt lat="42.6917820" lon="1.3956080">
        <ele>2207.4</ele>
        <time>2021-08-11T10:31:04Z</time>
      </trkpt>
      <trkpt lat="42.6917740" lon="1.3956260">
        <ele>2207.9</ele>
        <time>2021-08-11T10:31:07Z</time>
      </trkpt>
      <trkpt lat="42.6917670" lon="1.3956330">
        <ele>2208.1</ele>
        <time>2021-08-11T10:31:09Z</time>
      </trkpt>
      <trkpt lat="42.6917500" lon="1.3956420">
        <ele>2208.7</ele>
        <time>2021-08-11T10:31:12Z</time>
      </trkpt>
      <trkpt lat="42.6917290" lon="1.3956540">
        <ele>2209.3</ele>
        <time>2021-08-11T10:31:16Z</time>
      </trkpt>
      <trkpt lat="42.6916600" lon="1.3956260">
        <ele>2211.4</ele>
        <time>2021-08-11T10:31:32Z</time>
      </trkpt>
      <trkpt lat="42.6916480" lon="1.3956250">
        <ele>2211.7</ele>
        <time>2021-08-11T10:31:37Z</time>
      </trkpt>
      <trkpt lat="42.6915870" lon="1.3956510">
        <ele>2213.5</ele>
        <time>2021-08-11T10:31:50Z</time>
      </trkpt>
      <trkpt lat="42.6915760" lon="1.3956480">
        <ele>2213.8</ele>
        <time>2021-08-11T10:31:52Z</time>
      </trkpt>
      <trkpt lat="42.6915710" lon="1.3956520">
        <ele>2213.9</ele>
        <time>2021-08-11T10:31:54Z</time>
      </trkpt>
      <trkpt lat="42.6915640" lon="1.3956530">
        <ele>2214.1</ele>
        <time>2021-08-11T10:31:57Z</time>
      </trkpt>
      <trkpt lat="42.6915450" lon="1.3956690">
        <ele>2214.7</ele>
        <time>2021-08-11T10:32:02Z</time>
      </trkpt>
      <trkpt lat="42.6914460" lon="1.3956790">
        <ele>2216.9</ele>
        <time>2021-08-11T10:32:20Z</time>
      </trkpt>
      <trkpt lat="42.6914160" lon="1.3957150">
        <ele>2217.6</ele>
        <time>2021-08-11T10:32:25Z</time>
      </trkpt>
      <trkpt lat="42.6912960" lon="1.3958890">
        <ele>2219.9</ele>
        <time>2021-08-11T10:32:54Z</time>
      </trkpt>
      <trkpt lat="42.6912450" lon="1.3960130">
        <ele>2221.1</ele>
        <time>2021-08-11T10:33:13Z</time>
      </trkpt>
      <trkpt lat="42.6912150" lon="1.3962580">
        <ele>2223.4</ele>
        <time>2021-08-11T10:33:41Z</time>
      </trkpt>
      <trkpt lat="42.6911620" lon="1.3964890">
        <ele>2225.5</ele>
        <time>2021-08-11T10:34:07Z</time>
      </trkpt>
      <trkpt lat="42.6912090" lon="1.3964960">
        <ele>2226.0</ele>
        <time>2021-08-11T10:34:16Z</time>
      </trkpt>
      <trkpt lat="42.6913750" lon="1.3964170">
        <ele>2226.6</ele>
        <time>2021-08-11T10:34:42Z</time>
      </trkpt>
      <trkpt lat="42.6914160" lon="1.3964730">
        <ele>2226.6</ele>
        <time>2021-08-11T10:34:55Z</time>
      </trkpt>
      <trkpt lat="42.6912370" lon="1.3965450">
        <ele>2226.6</ele>
        <time>2021-08-11T14:20:09Z</time>
      </trkpt>
      <trkpt lat="42.6912410" lon="1.3965370">
        <ele>2226.3</ele>
        <time>2021-08-11T14:20:10Z</time>
      </trkpt>
      <trkpt lat="42.6912470" lon="1.3965220">
        <ele>2226.2</ele>
        <time>2021-08-11T14:20:12Z</time>
      </trkpt>
      <trkpt lat="42.6912480" lon="1.3965140">
        <ele>2226.1</ele>
        <time>2021-08-11T14:20:13Z</time>
      </trkpt>
      <trkpt lat="42.6912470" lon="1.3964840">
        <ele>2225.9</ele>
        <time>2021-08-11T14:20:16Z</time>
      </trkpt>
      <trkpt lat="42.6912380" lon="1.3964450">
        <ele>2225.5</ele>
        <time>2021-08-11T14:20:19Z</time>
      </trkpt>
      <trkpt lat="42.6912200" lon="1.3963630">
        <ele>2224.8</ele>
        <time>2021-08-11T14:20:27Z</time>
      </trkpt>
      <trkpt lat="42.6912180" lon="1.3963510">
        <ele>2224.7</ele>
        <time>2021-08-11T14:20:28Z</time>
      </trkpt>
      <trkpt lat="42.6912220" lon="1.3963180">
        <ele>2224.3</ele>
        <time>2021-08-11T14:20:33Z</time>
      </trkpt>
      <trkpt lat="42.6912240" lon="1.3963120">
        <ele>2224.3</ele>
        <time>2021-08-11T14:20:34Z</time>
      </trkpt>
      <trkpt lat="42.6912270" lon="1.3962940">
        <ele>2224.1</ele>
        <time>2021-08-11T14:20:36Z</time>
      </trkpt>
      <trkpt lat="42.6912420" lon="1.3962680">
        <ele>2223.7</ele>
        <time>2021-08-11T14:20:40Z</time>
      </trkpt>
      <trkpt lat="42.6912860" lon="1.3962080">
        <ele>2222.8</ele>
        <time>2021-08-11T14:20:47Z</time>
      </trkpt>
      <trkpt lat="42.6912900" lon="1.3960860">
        <ele>2221.5</ele>
        <time>2021-08-11T14:20:59Z</time>
      </trkpt>
      <trkpt lat="42.6913240" lon="1.3958710">
        <ele>2219.5</ele>
        <time>2021-08-11T14:21:29Z</time>
      </trkpt>
      <trkpt lat="42.6912550" lon="1.3956990">
        <ele>2218.3</ele>
        <time>2021-08-11T14:22:24Z</time>
      </trkpt>
      <trkpt lat="42.6911890" lon="1.3955830">
        <ele>2218.5</ele>
        <time>2021-08-11T14:22:45Z</time>
      </trkpt>
      <trkpt lat="42.6911470" lon="1.3955260">
        <ele>2218.8</ele>
        <time>2021-08-11T14:22:58Z</time>
      </trkpt>
      <trkpt lat="42.6910820" lon="1.3953250">
        <ele>2220.0</ele>
        <time>2021-08-11T14:23:44Z</time>
      </trkpt>
      <trkpt lat="42.6910490" lon="1.3951820">
        <ele>2220.6</ele>
        <time>2021-08-11T14:24:02Z</time>
      </trkpt>
      <trkpt lat="42.6910460" lon="1.3951740">
        <ele>2220.6</ele>
        <time>2021-08-11T14:24:03Z</time>
      </trkpt>
      <trkpt lat="42.6909090" lon="1.3952430">
        <ele>2220.6</ele>
        <time>2021-08-11T14:24:39Z</time>
      </trkpt>
      <trkpt lat="42.6907910" lon="1.3951150">
        <ele>2221.1</ele>
        <time>2021-08-11T14:25:22Z</time>
      </trkpt>
      <trkpt lat="42.6907240" lon="1.3951600">
        <ele>2221.8</ele>
        <time>2021-08-11T14:25:36Z</time>
      </trkpt>
      <trkpt lat="42.6906850" lon="1.3951530">
        <ele>2222.4</ele>
        <time>2021-08-11T14:25:47Z</time>
      </trkpt>
      <trkpt lat="42.6906610" lon="1.3951300">
        <ele>2222.9</ele>
        <time>2021-08-11T14:26:16Z</time>
      </trkpt>
      <trkpt lat="42.6905900" lon="1.3949160">
        <ele>2226.0</ele>
        <time>2021-08-11T14:27:01Z</time>
      </trkpt>
      <trkpt lat="42.6905620" lon="1.3948940">
        <ele>2226.6</ele>
        <time>2021-08-11T14:27:13Z</time>
      </trkpt>
      <trkpt lat="42.6905540" lon="1.3949210">
        <ele>2227.0</ele>
        <time>2021-08-11T14:27:25Z</time>
      </trkpt>
      <trkpt lat="42.6905150" lon="1.3949300">
        <ele>2227.7</ele>
        <time>2021-08-11T14:27:33Z</time>
      </trkpt>
      <trkpt lat="42.6905020" lon="1.3949510">
        <ele>2228.1</ele>
        <time>2021-08-11T14:27:36Z</time>
      </trkpt>
      <trkpt lat="42.6904990" lon="1.3950250">
        <ele>2229.0</ele>
        <time>2021-08-11T14:27:44Z</time>
      </trkpt>
      <trkpt lat="42.6904950" lon="1.3950370">
        <ele>2229.2</ele>
        <time>2021-08-11T14:27:46Z</time>
      </trkpt>
      <trkpt lat="42.6904770" lon="1.3950470">
        <ele>2229.5</ele>
        <time>2021-08-11T14:27:49Z</time>
      </trkpt>
      <trkpt lat="42.6904460" lon="1.3950860">
        <ele>2230.1</ele>
        <time>2021-08-11T14:27:57Z</time>
      </trkpt>
      <trkpt lat="42.6903560" lon="1.3950700">
        <ele>2231.6</ele>
        <time>2021-08-11T14:28:17Z</time>
      </trkpt>
      <trkpt lat="42.6902950" lon="1.3949940">
        <ele>2233.1</ele>
        <time>2021-08-11T14:29:00Z</time>
      </trkpt>
      <trkpt lat="42.6902930" lon="1.3949870">
        <ele>2233.2</ele>
        <time>2021-08-11T14:29:10Z</time>
      </trkpt>
      <trkpt lat="42.6903070" lon="1.3949790">
        <ele>2233.5</ele>
        <time>2021-08-11T14:29:30Z</time>
      </trkpt>
      <trkpt lat="42.6902570" lon="1.3949910">
        <ele>2234.6</ele>
        <time>2021-08-11T14:29:42Z</time>
      </trkpt>
      <trkpt lat="42.6902140" lon="1.3950540">
        <ele>2235.9</ele>
        <time>2021-08-11T14:29:52Z</time>
      </trkpt>
      <trkpt lat="42.6901830" lon="1.3950790">
        <ele>2236.6</ele>
        <time>2021-08-11T14:29:58Z</time>
      </trkpt>
      <trkpt lat="42.6901700" lon="1.3950900">
        <ele>2236.9</ele>
        <time>2021-08-11T14:30:01Z</time>
      </trkpt>
      <trkpt lat="42.6901640" lon="1.3951000">
        <ele>2237.1</ele>
        <time>2021-08-11T14:30:03Z</time>
      </trkpt>
      <trkpt lat="42.6901510" lon="1.3951260">
        <ele>2237.5</ele>
        <time>2021-08-11T14:30:08Z</time>
      </trkpt>
      <trkpt lat="42.6901480" lon="1.3951520">
        <ele>2237.8</ele>
        <time>2021-08-11T14:30:11Z</time>
      </trkpt>
      <trkpt lat="42.6901390" lon="1.3951740">
        <ele>2238.1</ele>
        <time>2021-08-11T14:30:14Z</time>
      </trkpt>
      <trkpt lat="42.6901350" lon="1.3951800">
        <ele>2238.2</ele>
        <time>2021-08-11T14:30:15Z</time>
      </trkpt>
      <trkpt lat="42.6901330" lon="1.3951900">
        <ele>2238.3</ele>
        <time>2021-08-11T14:30:17Z</time>
      </trkpt>
      <trkpt lat="42.6901270" lon="1.3952120">
        <ele>2238.7</ele>
        <time>2021-08-11T14:30:20Z</time>
      </trkpt>
      <trkpt lat="42.6901170" lon="1.3952290">
        <ele>2239.0</ele>
        <time>2021-08-11T14:30:22Z</time>
      </trkpt>
      <trkpt lat="42.6901110" lon="1.3952370">
        <ele>2239.2</ele>
        <time>2021-08-11T14:30:23Z</time>
      </trkpt>
      <trkpt lat="42.6900720" lon="1.3952520">
        <ele>2240.0</ele>
        <time>2021-08-11T14:30:31Z</time>
      </trkpt>
      <trkpt lat="42.6900650" lon="1.3952600">
        <ele>2240.2</ele>
        <time>2021-08-11T14:30:33Z</time>
      </trkpt>
      <trkpt lat="42.6900600" lon="1.3952670">
        <ele>2240.3</ele>
        <time>2021-08-11T14:30:35Z</time>
      </trkpt>
      <trkpt lat="42.6900550" lon="1.3952790">
        <ele>2240.5</ele>
        <time>2021-08-11T14:30:43Z</time>
      </trkpt>
      <trkpt lat="42.6900450" lon="1.3952800">
        <ele>2240.7</ele>
        <time>2021-08-11T14:30:51Z</time>
      </trkpt>
      <trkpt lat="42.6900480" lon="1.3952880">
        <ele>2240.9</ele>
        <time>2021-08-11T14:31:00Z</time>
      </trkpt>
      <trkpt lat="42.6900380" lon="1.3952930">
        <ele>2241.1</ele>
        <time>2021-08-11T14:31:10Z</time>
      </trkpt>
      <trkpt lat="42.6899570" lon="1.3953730">
        <ele>2243.1</ele>
        <time>2021-08-11T14:31:40Z</time>
      </trkpt>
      <trkpt lat="42.6899760" lon="1.3954040">
        <ele>2243.6</ele>
        <time>2021-08-11T14:31:57Z</time>
      </trkpt>
      <trkpt lat="42.6899750" lon="1.3954100">
        <ele>2243.7</ele>
        <time>2021-08-11T14:32:14Z</time>
      </trkpt>
      <trkpt lat="42.6899730" lon="1.3954290">
        <ele>2244.0</ele>
        <time>2021-08-11T14:32:29Z</time>
      </trkpt>
      <trkpt lat="42.6899300" lon="1.3954260">
        <ele>2244.9</ele>
        <time>2021-08-11T14:32:39Z</time>
      </trkpt>
      <trkpt lat="42.6899110" lon="1.3954310">
        <ele>2245.2</ele>
        <time>2021-08-11T14:32:43Z</time>
      </trkpt>
      <trkpt lat="42.6898890" lon="1.3954280">
        <ele>2245.7</ele>
        <time>2021-08-11T14:32:50Z</time>
      </trkpt>
      <trkpt lat="42.6898850" lon="1.3954200">
        <ele>2245.8</ele>
        <time>2021-08-11T14:32:52Z</time>
      </trkpt>
      <trkpt lat="42.6898820" lon="1.3954140">
        <ele>2245.9</ele>
        <time>2021-08-11T14:32:53Z</time>
      </trkpt>
      <trkpt lat="42.6898520" lon="1.3953720">
        <ele>2246.8</ele>
        <time>2021-08-11T14:33:05Z</time>
      </trkpt>
      <trkpt lat="42.6898510" lon="1.3953720">
        <ele>2246.8</ele>
        <time>2021-08-11T14:33:06Z</time>
      </trkpt>
      <trkpt lat="42.6898500" lon="1.3953730">
        <ele>2246.8</ele>
        <time>2021-08-11T14:33:07Z</time>
      </trkpt>
      <trkpt lat="42.6898500" lon="1.3953720">
        <ele>2246.8</ele>
        <time>2021-08-11T14:33:08Z</time>
      </trkpt>
      <trkpt lat="42.6898450" lon="1.3953680">
        <ele>2247.0</ele>
        <time>2021-08-11T14:33:12Z</time>
      </trkpt>
      <trkpt lat="42.6898090" lon="1.3953790">
        <ele>2247.7</ele>
        <time>2021-08-11T14:33:23Z</time>
      </trkpt>
      <trkpt lat="42.6898080" lon="1.3953860">
        <ele>2247.8</ele>
        <time>2021-08-11T14:33:29Z</time>
      </trkpt>
      <trkpt lat="42.6898090" lon="1.3953870">
        <ele>2247.8</ele>
        <time>2021-08-11T14:33:38Z</time>
      </trkpt>
      <trkpt lat="42.6898150" lon="1.3953930">
        <ele>2248.0</ele>
        <time>2021-08-11T14:33:45Z</time>
      </trkpt>
      <trkpt lat="42.6897950" lon="1.3953830">
        <ele>2248.4</ele>
        <time>2021-08-11T14:33:50Z</time>
      </trkpt>
      <trkpt lat="42.6897600" lon="1.3953830">
        <ele>2249.1</ele>
        <time>2021-08-11T14:33:54Z</time>
      </trkpt>
      <trkpt lat="42.6897210" lon="1.3953800">
        <ele>2249.9</ele>
        <time>2021-08-11T14:33:59Z</time>
      </trkpt>
      <trkpt lat="42.6896590" lon="1.3953420">
        <ele>2251.2</ele>
        <time>2021-08-11T14:34:09Z</time>
      </trkpt>
      <trkpt lat="42.6896520" lon="1.3953350">
        <ele>2251.4</ele>
        <time>2021-08-11T14:34:10Z</time>
      </trkpt>
      <trkpt lat="42.6896450" lon="1.3953290">
        <ele>2251.6</ele>
        <time>2021-08-11T14:34:11Z</time>
      </trkpt>
      <trkpt lat="42.6896170" lon="1.3953150">
        <ele>2252.1</ele>
        <time>2021-08-11T14:34:14Z</time>
      </trkpt>
      <trkpt lat="42.6896070" lon="1.3953120">
        <ele>2252.4</ele>
        <time>2021-08-11T14:34:15Z</time>
      </trkpt>
      <trkpt lat="42.6895910" lon="1.3953080">
        <ele>2252.7</ele>
        <time>2021-08-11T14:34:17Z</time>
      </trkpt>
      <trkpt lat="42.6895840" lon="1.3953070">
        <ele>2252.8</ele>
        <time>2021-08-11T14:34:18Z</time>
      </trkpt>
      <trkpt lat="42.6895730" lon="1.3953040">
        <ele>2253.0</ele>
        <time>2021-08-11T14:34:20Z</time>
      </trkpt>
      <trkpt lat="42.6895360" lon="1.3953490">
        <ele>2254.0</ele>
        <time>2021-08-11T14:34:28Z</time>
      </trkpt>
      <trkpt lat="42.6895230" lon="1.3953580">
        <ele>2254.3</ele>
        <time>2021-08-11T14:34:31Z</time>
      </trkpt>
      <trkpt lat="42.6894660" lon="1.3955210">
        <ele>2256.9</ele>
        <time>2021-08-11T14:35:02Z</time>
      </trkpt>
      <trkpt lat="42.6894630" lon="1.3955310">
        <ele>2257.1</ele>
        <time>2021-08-11T14:35:03Z</time>
      </trkpt>
      <trkpt lat="42.6894610" lon="1.3955390">
        <ele>2257.2</ele>
        <time>2021-08-11T14:35:04Z</time>
      </trkpt>
      <trkpt lat="42.6894610" lon="1.3955460">
        <ele>2257.3</ele>
        <time>2021-08-11T14:35:05Z</time>
      </trkpt>
      <trkpt lat="42.6894560" lon="1.3955830">
        <ele>2257.9</ele>
        <time>2021-08-11T14:35:12Z</time>
      </trkpt>
      <trkpt lat="42.6894290" lon="1.3956280">
        <ele>2258.7</ele>
        <time>2021-08-11T14:35:18Z</time>
      </trkpt>
      <trkpt lat="42.6894270" lon="1.3956580">
        <ele>2259.2</ele>
        <time>2021-08-11T14:35:22Z</time>
      </trkpt>
      <trkpt lat="42.6894160" lon="1.3956850">
        <ele>2259.6</ele>
        <time>2021-08-11T14:35:31Z</time>
      </trkpt>
      <trkpt lat="42.6893880" lon="1.3956590">
        <ele>2260.3</ele>
        <time>2021-08-11T14:35:37Z</time>
      </trkpt>
      <trkpt lat="42.6893680" lon="1.3956370">
        <ele>2260.8</ele>
        <time>2021-08-11T14:35:43Z</time>
      </trkpt>
      <trkpt lat="42.6892640" lon="1.3955080">
        <ele>2263.6</ele>
        <time>2021-08-11T14:36:07Z</time>
      </trkpt>
      <trkpt lat="42.6892610" lon="1.3955050">
        <ele>2263.7</ele>
        <time>2021-08-11T14:36:08Z</time>
      </trkpt>
      <trkpt lat="42.6892550" lon="1.3954990">
        <ele>2263.8</ele>
        <time>2021-08-11T14:36:09Z</time>
      </trkpt>
      <trkpt lat="42.6892280" lon="1.3954820">
        <ele>2264.4</ele>
        <time>2021-08-11T14:36:14Z</time>
      </trkpt>
      <trkpt lat="42.6892000" lon="1.3954680">
        <ele>2265.0</ele>
        <time>2021-08-11T14:36:19Z</time>
      </trkpt>
      <trkpt lat="42.6891850" lon="1.3954740">
        <ele>2265.3</ele>
        <time>2021-08-11T14:36:22Z</time>
      </trkpt>
      <trkpt lat="42.6891790" lon="1.3954860">
        <ele>2265.5</ele>
        <time>2021-08-11T14:36:24Z</time>
      </trkpt>
      <trkpt lat="42.6891790" lon="1.3954930">
        <ele>2265.6</ele>
        <time>2021-08-11T14:36:25Z</time>
      </trkpt>
      <trkpt lat="42.6891760" lon="1.3954990">
        <ele>2265.7</ele>
        <time>2021-08-11T14:36:26Z</time>
      </trkpt>
      <trkpt lat="42.6891730" lon="1.3955120">
        <ele>2265.9</ele>
        <time>2021-08-11T14:36:28Z</time>
      </trkpt>
      <trkpt lat="42.6891750" lon="1.3955250">
        <ele>2266.1</ele>
        <time>2021-08-11T14:36:30Z</time>
      </trkpt>
      <trkpt lat="42.6891750" lon="1.3955280">
        <ele>2266.2</ele>
        <time>2021-08-11T14:36:31Z</time>
      </trkpt>
      <trkpt lat="42.6891770" lon="1.3955290">
        <ele>2266.2</ele>
        <time>2021-08-11T14:36:32Z</time>
      </trkpt>
      <trkpt lat="42.6891700" lon="1.3955360">
        <ele>2266.4</ele>
        <time>2021-08-11T14:36:34Z</time>
      </trkpt>
      <trkpt lat="42.6891630" lon="1.3955440">
        <ele>2266.6</ele>
        <time>2021-08-11T14:36:36Z</time>
      </trkpt>
      <trkpt lat="42.6891040" lon="1.3955960">
        <ele>2268.0</ele>
        <time>2021-08-11T14:36:58Z</time>
      </trkpt>
      <trkpt lat="42.6890840" lon="1.3955890">
        <ele>2268.4</ele>
        <time>2021-08-11T14:37:02Z</time>
      </trkpt>
      <trkpt lat="42.6890680" lon="1.3955870">
        <ele>2268.7</ele>
        <time>2021-08-11T14:37:05Z</time>
      </trkpt>
      <trkpt lat="42.6890450" lon="1.3955840">
        <ele>2269.1</ele>
        <time>2021-08-11T14:37:09Z</time>
      </trkpt>
      <trkpt lat="42.6890010" lon="1.3955680">
        <ele>2270.1</ele>
        <time>2021-08-11T14:37:24Z</time>
      </trkpt>
      <trkpt lat="42.6889720" lon="1.3955630">
        <ele>2270.6</ele>
        <time>2021-08-11T14:37:32Z</time>
      </trkpt>
      <trkpt lat="42.6889690" lon="1.3955650">
        <ele>2270.7</ele>
        <time>2021-08-11T14:37:33Z</time>
      </trkpt>
      <trkpt lat="42.6889530" lon="1.3956100">
        <ele>2271.4</ele>
        <time>2021-08-11T14:37:40Z</time>
      </trkpt>
      <trkpt lat="42.6889050" lon="1.3956710">
        <ele>2272.7</ele>
        <time>2021-08-11T14:37:56Z</time>
      </trkpt>
      <trkpt lat="42.6888390" lon="1.3956350">
        <ele>2274.1</ele>
        <time>2021-08-11T14:38:31Z</time>
      </trkpt>
      <trkpt lat="42.6887320" lon="1.3956480">
        <ele>2276.3</ele>
        <time>2021-08-11T14:39:31Z</time>
      </trkpt>
      <trkpt lat="42.6887290" lon="1.3956500">
        <ele>2276.3</ele>
        <time>2021-08-11T14:39:36Z</time>
      </trkpt>
      <trkpt lat="42.6887270" lon="1.3956480">
        <ele>2276.4</ele>
        <time>2021-08-11T14:39:41Z</time>
      </trkpt>
      <trkpt lat="42.6887270" lon="1.3956470">
        <ele>2276.4</ele>
        <time>2021-08-11T14:39:48Z</time>
      </trkpt>
      <trkpt lat="42.6887270" lon="1.3956470">
        <ele>2276.4</ele>
        <time>2021-08-11T14:39:52Z</time>
      </trkpt>
      <trkpt lat="42.6887240" lon="1.3956490">
        <ele>2276.5</ele>
        <time>2021-08-11T14:39:59Z</time>
      </trkpt>
      <trkpt lat="42.6887140" lon="1.3956470">
        <ele>2276.7</ele>
        <time>2021-08-11T14:40:23Z</time>
      </trkpt>
      <trkpt lat="42.6887070" lon="1.3956380">
        <ele>2276.9</ele>
        <time>2021-08-11T14:40:47Z</time>
      </trkpt>
      <trkpt lat="42.6887070" lon="1.3956380">
        <ele>2276.9</ele>
        <time>2021-08-11T14:40:51Z</time>
      </trkpt>
      <trkpt lat="42.6887040" lon="1.3956310">
        <ele>2277.0</ele>
        <time>2021-08-11T14:40:55Z</time>
      </trkpt>
      <trkpt lat="42.6887030" lon="1.3956290">
        <ele>2277.0</ele>
        <time>2021-08-11T14:40:56Z</time>
      </trkpt>
      <trkpt lat="42.6887020" lon="1.3956260">
        <ele>2277.1</ele>
        <time>2021-08-11T14:40:57Z</time>
      </trkpt>
      <trkpt lat="42.6887010" lon="1.3956240">
        <ele>2277.1</ele>
        <time>2021-08-11T14:40:58Z</time>
      </trkpt>
      <trkpt lat="42.6887010" lon="1.3956280">
        <ele>2277.2</ele>
        <time>2021-08-11T14:41:01Z</time>
      </trkpt>
      <trkpt lat="42.6887010" lon="1.3956280">
        <ele>2277.2</ele>
        <time>2021-08-11T14:41:02Z</time>
      </trkpt>
      <trkpt lat="42.6887010" lon="1.3956280">
        <ele>2277.2</ele>
        <time>2021-08-11T14:41:03Z</time>
      </trkpt>
      <trkpt lat="42.6887010" lon="1.3956270">
        <ele>2277.2</ele>
        <time>2021-08-11T14:41:05Z</time>
      </trkpt>
      <trkpt lat="42.6887010" lon="1.3956270">
        <ele>2277.2</ele>
        <time>2021-08-11T14:41:06Z</time>
      </trkpt>
      <trkpt lat="42.6887020" lon="1.3956260">
        <ele>2277.2</ele>
        <time>2021-08-11T14:41:07Z</time>
      </trkpt>
      <trkpt lat="42.6887050" lon="1.3956260">
        <ele>2277.3</ele>
        <time>2021-08-11T14:41:09Z</time>
      </trkpt>
      <trkpt lat="42.6887120" lon="1.3956290">
        <ele>2277.4</ele>
        <time>2021-08-11T14:41:14Z</time>
      </trkpt>
      <trkpt lat="42.6887090" lon="1.3956330">
        <ele>2277.5</ele>
        <time>2021-08-11T14:41:18Z</time>
      </trkpt>
      <trkpt lat="42.6887090" lon="1.3956330">
        <ele>2277.5</ele>
        <time>2021-08-11T14:41:19Z</time>
      </trkpt>
      <trkpt lat="42.6886940" lon="1.3956390">
        <ele>2277.8</ele>
        <time>2021-08-11T14:41:25Z</time>
      </trkpt>
      <trkpt lat="42.6886770" lon="1.3956470">
        <ele>2278.2</ele>
        <time>2021-08-11T14:41:28Z</time>
      </trkpt>
      <trkpt lat="42.6886470" lon="1.3956670">
        <ele>2278.8</ele>
        <time>2021-08-11T14:41:33Z</time>
      </trkpt>
      <trkpt lat="42.6886370" lon="1.3956790">
        <ele>2279.1</ele>
        <time>2021-08-11T14:41:35Z</time>
      </trkpt>
      <trkpt lat="42.6886240" lon="1.3956970">
        <ele>2279.5</ele>
        <time>2021-08-11T14:41:38Z</time>
      </trkpt>
      <trkpt lat="42.6886220" lon="1.3957040">
        <ele>2279.6</ele>
        <time>2021-08-11T14:41:39Z</time>
      </trkpt>
      <trkpt lat="42.6886190" lon="1.3957070">
        <ele>2279.6</ele>
        <time>2021-08-11T14:41:40Z</time>
      </trkpt>
      <trkpt lat="42.6886120" lon="1.3957790">
        <ele>2280.7</ele>
        <time>2021-08-11T14:41:56Z</time>
      </trkpt>
      <trkpt lat="42.6886010" lon="1.3958240">
        <ele>2281.4</ele>
        <time>2021-08-11T14:42:07Z</time>
      </trkpt>
      <trkpt lat="42.6885920" lon="1.3958480">
        <ele>2281.8</ele>
        <time>2021-08-11T14:42:23Z</time>
      </trkpt>
      <trkpt lat="42.6885600" lon="1.3958710">
        <ele>2282.5</ele>
        <time>2021-08-11T14:42:31Z</time>
      </trkpt>
      <trkpt lat="42.6884620" lon="1.3960360">
        <ele>2285.6</ele>
        <time>2021-08-11T14:43:14Z</time>
      </trkpt>
      <trkpt lat="42.6883910" lon="1.3959680">
        <ele>2287.3</ele>
        <time>2021-08-11T14:43:43Z</time>
      </trkpt>
      <trkpt lat="42.6883580" lon="1.3959760">
        <ele>2288.0</ele>
        <time>2021-08-11T14:43:54Z</time>
      </trkpt>
      <trkpt lat="42.6882630" lon="1.3959680">
        <ele>2289.9</ele>
        <time>2021-08-11T14:44:19Z</time>
      </trkpt>
      <trkpt lat="42.6882410" lon="1.3959500">
        <ele>2290.4</ele>
        <time>2021-08-11T14:44:28Z</time>
      </trkpt>
      <trkpt lat="42.6880640" lon="1.3959520">
        <ele>2293.9</ele>
        <time>2021-08-11T14:44:56Z</time>
      </trkpt>
      <trkpt lat="42.6879050" lon="1.3959370">
        <ele>2297.1</ele>
        <time>2021-08-11T14:45:37Z</time>
      </trkpt>
      <trkpt lat="42.6878030" lon="1.3960020">
        <ele>2299.3</ele>
        <time>2021-08-11T14:46:18Z</time>
      </trkpt>
      <trkpt lat="42.6876590" lon="1.3960910">
        <ele>2302.4</ele>
        <time>2021-08-11T14:46:54Z</time>
      </trkpt>
      <trkpt lat="42.6875130" lon="1.3960590">
        <ele>2305.4</ele>
        <time>2021-08-11T14:47:26Z</time>
      </trkpt>
      <trkpt lat="42.6874960" lon="1.3960610">
        <ele>2305.7</ele>
        <time>2021-08-11T14:47:30Z</time>
      </trkpt>
      <trkpt lat="42.6873930" lon="1.3960570">
        <ele>2307.8</ele>
        <time>2021-08-11T14:48:00Z</time>
      </trkpt>
      <trkpt lat="42.6872160" lon="1.3960630">
        <ele>2311.3</ele>
        <time>2021-08-11T14:48:35Z</time>
      </trkpt>
      <trkpt lat="42.6871570" lon="1.3961590">
        <ele>2313.1</ele>
        <time>2021-08-11T14:49:10Z</time>
      </trkpt>
      <trkpt lat="42.6869800" lon="1.3961420">
        <ele>2316.6</ele>
        <time>2021-08-11T14:49:52Z</time>
      </trkpt>
      <trkpt lat="42.6869120" lon="1.3961160">
        <ele>2318.0</ele>
        <time>2021-08-11T14:50:08Z</time>
      </trkpt>
      <trkpt lat="42.6868830" lon="1.3960810">
        <ele>2318.8</ele>
        <time>2021-08-11T14:50:27Z</time>
      </trkpt>
      <trkpt lat="42.6868910" lon="1.3960820">
        <ele>2319.0</ele>
        <time>2021-08-11T14:50:33Z</time>
      </trkpt>
      <trkpt lat="42.6869050" lon="1.3960890">
        <ele>2319.3</ele>
        <time>2021-08-11T14:50:36Z</time>
      </trkpt>
      <trkpt lat="42.6869140" lon="1.3960990">
        <ele>2319.5</ele>
        <time>2021-08-11T14:50:41Z</time>
      </trkpt>
      <trkpt lat="42.6868990" lon="1.3961000">
        <ele>2319.8</ele>
        <time>2021-08-11T14:51:00Z</time>
      </trkpt>
      <trkpt lat="42.6868980" lon="1.3960960">
        <ele>2319.9</ele>
        <time>2021-08-11T14:51:09Z</time>
      </trkpt>
      <trkpt lat="42.6868930" lon="1.3960940">
        <ele>2320.0</ele>
        <time>2021-08-11T14:51:15Z</time>
      </trkpt>
      <trkpt lat="42.6868990" lon="1.3960920">
        <ele>2320.1</ele>
        <time>2021-08-11T14:51:21Z</time>
      </trkpt>
      <trkpt lat="42.6868780" lon="1.3960870">
        <ele>2320.5</ele>
        <time>2021-08-11T14:51:31Z</time>
      </trkpt>
      <trkpt lat="42.6868680" lon="1.3960880">
        <ele>2320.7</ele>
        <time>2021-08-11T14:51:32Z</time>
      </trkpt>
      <trkpt lat="42.6868450" lon="1.3960890">
        <ele>2321.2</ele>
        <time>2021-08-11T14:51:36Z</time>
      </trkpt>
      <trkpt lat="42.6868330" lon="1.3960890">
        <ele>2321.4</ele>
        <time>2021-08-11T14:51:38Z</time>
      </trkpt>
      <trkpt lat="42.6868220" lon="1.3960900">
        <ele>2321.6</ele>
        <time>2021-08-11T14:51:40Z</time>
      </trkpt>
      <trkpt lat="42.6868170" lon="1.3960920">
        <ele>2321.7</ele>
        <time>2021-08-11T14:51:41Z</time>
      </trkpt>
      <trkpt lat="42.6868120" lon="1.3960940">
        <ele>2321.8</ele>
        <time>2021-08-11T14:51:42Z</time>
      </trkpt>
      <trkpt lat="42.6868070" lon="1.3960950">
        <ele>2321.9</ele>
        <time>2021-08-11T14:51:43Z</time>
      </trkpt>
      <trkpt lat="42.6868000" lon="1.3960940">
        <ele>2322.1</ele>
        <time>2021-08-11T14:51:45Z</time>
      </trkpt>
      <trkpt lat="42.6867940" lon="1.3960920">
        <ele>2322.2</ele>
        <time>2021-08-11T14:51:46Z</time>
      </trkpt>
      <trkpt lat="42.6867890" lon="1.3960910">
        <ele>2322.3</ele>
        <time>2021-08-11T14:51:47Z</time>
      </trkpt>
      <trkpt lat="42.6867600" lon="1.3960980">
        <ele>2322.9</ele>
        <time>2021-08-11T14:51:50Z</time>
      </trkpt>
      <trkpt lat="42.6867440" lon="1.3961080">
        <ele>2323.2</ele>
        <time>2021-08-11T14:51:52Z</time>
      </trkpt>
      <trkpt lat="42.6866980" lon="1.3961010">
        <ele>2324.1</ele>
        <time>2021-08-11T14:51:57Z</time>
      </trkpt>
      <trkpt lat="42.6866790" lon="1.3960970">
        <ele>2324.5</ele>
        <time>2021-08-11T14:52:00Z</time>
      </trkpt>
      <trkpt lat="42.6866550" lon="1.3960920">
        <ele>2325.0</ele>
        <time>2021-08-11T14:52:03Z</time>
      </trkpt>
      <trkpt lat="42.6866330" lon="1.3960850">
        <ele>2325.5</ele>
        <time>2021-08-11T14:52:06Z</time>
      </trkpt>
      <trkpt lat="42.6866130" lon="1.3960820">
        <ele>2325.9</ele>
        <time>2021-08-11T14:52:09Z</time>
      </trkpt>
      <trkpt lat="42.6866050" lon="1.3960780">
        <ele>2326.0</ele>
        <time>2021-08-11T14:52:10Z</time>
      </trkpt>
      <trkpt lat="42.6865920" lon="1.3960660">
        <ele>2326.3</ele>
        <time>2021-08-11T14:52:12Z</time>
      </trkpt>
      <trkpt lat="42.6865480" lon="1.3960240">
        <ele>2327.4</ele>
        <time>2021-08-11T14:52:20Z</time>
      </trkpt>
      <trkpt lat="42.6865350" lon="1.3960180">
        <ele>2327.7</ele>
        <time>2021-08-11T14:52:22Z</time>
      </trkpt>
      <trkpt lat="42.6864150" lon="1.3958820">
        <ele>2330.8</ele>
        <time>2021-08-11T14:52:43Z</time>
      </trkpt>
      <trkpt lat="42.6863460" lon="1.3959070">
        <ele>2332.2</ele>
        <time>2021-08-11T14:52:53Z</time>
      </trkpt>
      <trkpt lat="42.6863380" lon="1.3959080">
        <ele>2332.4</ele>
        <time>2021-08-11T14:52:55Z</time>
      </trkpt>
      <trkpt lat="42.6863350" lon="1.3959080">
        <ele>2332.4</ele>
        <time>2021-08-11T14:52:56Z</time>
      </trkpt>
      <trkpt lat="42.6861860" lon="1.3959470">
        <ele>2335.4</ele>
        <time>2021-08-11T14:53:20Z</time>
      </trkpt>
      <trkpt lat="42.6861050" lon="1.3959080">
        <ele>2337.1</ele>
        <time>2021-08-11T14:53:35Z</time>
      </trkpt>
      <trkpt lat="42.6859910" lon="1.3958220">
        <ele>2339.7</ele>
        <time>2021-08-11T14:54:07Z</time>
      </trkpt>
      <trkpt lat="42.6858160" lon="1.3957940">
        <ele>2343.2</ele>
        <time>2021-08-11T14:54:39Z</time>
      </trkpt>
      <trkpt lat="42.6857730" lon="1.3957700">
        <ele>2344.1</ele>
        <time>2021-08-11T14:54:48Z</time>
      </trkpt>
      <trkpt lat="42.6856150" lon="1.3956490">
        <ele>2347.7</ele>
        <time>2021-08-11T14:55:23Z</time>
      </trkpt>
      <trkpt lat="42.6855370" lon="1.3955130">
        <ele>2350.3</ele>
        <time>2021-08-11T14:55:43Z</time>
      </trkpt>
      <trkpt lat="42.6854620" lon="1.3955320">
        <ele>2351.8</ele>
        <time>2021-08-11T14:56:13Z</time>
      </trkpt>
      <trkpt lat="42.6854630" lon="1.3955240">
        <ele>2351.9</ele>
        <time>2021-08-11T14:56:21Z</time>
      </trkpt>
      <trkpt lat="42.6854850" lon="1.3955350">
        <ele>2352.4</ele>
        <time>2021-08-11T14:56:27Z</time>
      </trkpt>
      <trkpt lat="42.6854830" lon="1.3955130">
        <ele>2352.7</ele>
        <time>2021-08-11T14:56:35Z</time>
      </trkpt>
      <trkpt lat="42.6855000" lon="1.3955160">
        <ele>2353.0</ele>
        <time>2021-08-11T14:56:40Z</time>
      </trkpt>
      <trkpt lat="42.6855070" lon="1.3955150">
        <ele>2353.2</ele>
        <time>2021-08-11T14:56:45Z</time>
      </trkpt>
      <trkpt lat="42.6855120" lon="1.3955160">
        <ele>2353.3</ele>
        <time>2021-08-11T14:56:49Z</time>
      </trkpt>
      <trkpt lat="42.6855070" lon="1.3955090">
        <ele>2353.4</ele>
        <time>2021-08-11T14:57:05Z</time>
      </trkpt>
      <trkpt lat="42.6854460" lon="1.3954940">
        <ele>2354.6</ele>
        <time>2021-08-11T14:57:14Z</time>
      </trkpt>
      <trkpt lat="42.6854230" lon="1.3954900">
        <ele>2355.1</ele>
        <time>2021-08-11T14:57:16Z</time>
      </trkpt>
      <trkpt lat="42.6854130" lon="1.3954900">
        <ele>2355.3</ele>
        <time>2021-08-11T14:57:17Z</time>
      </trkpt>
      <trkpt lat="42.6854040" lon="1.3954880">
        <ele>2355.5</ele>
        <time>2021-08-11T14:57:18Z</time>
      </trkpt>
      <trkpt lat="42.6853940" lon="1.3954910">
        <ele>2355.7</ele>
        <time>2021-08-11T14:57:19Z</time>
      </trkpt>
      <trkpt lat="42.6853870" lon="1.3954890">
        <ele>2355.8</ele>
        <time>2021-08-11T14:57:20Z</time>
      </trkpt>
      <trkpt lat="42.6853780" lon="1.3954890">
        <ele>2356.0</ele>
        <time>2021-08-11T14:57:21Z</time>
      </trkpt>
      <trkpt lat="42.6853690" lon="1.3954880">
        <ele>2356.2</ele>
        <time>2021-08-11T14:57:22Z</time>
      </trkpt>
      <trkpt lat="42.6853590" lon="1.3954900">
        <ele>2356.4</ele>
        <time>2021-08-11T14:57:23Z</time>
      </trkpt>
      <trkpt lat="42.6853460" lon="1.3954900">
        <ele>2356.6</ele>
        <time>2021-08-11T14:57:24Z</time>
      </trkpt>
      <trkpt lat="42.6853370" lon="1.3954880">
        <ele>2356.8</ele>
        <time>2021-08-11T14:57:25Z</time>
      </trkpt>
      <trkpt lat="42.6853210" lon="1.3954860">
        <ele>2357.1</ele>
        <time>2021-08-11T14:57:27Z</time>
      </trkpt>
      <trkpt lat="42.6853160" lon="1.3954830">
        <ele>2357.3</ele>
        <time>2021-08-11T14:57:28Z</time>
      </trkpt>
      <trkpt lat="42.6853080" lon="1.3954770">
        <ele>2357.4</ele>
        <time>2021-08-11T14:57:29Z</time>
      </trkpt>
      <trkpt lat="42.6852660" lon="1.3954420">
        <ele>2358.4</ele>
        <time>2021-08-11T14:57:35Z</time>
      </trkpt>
      <trkpt lat="42.6852410" lon="1.3954040">
        <ele>2359.2</ele>
        <time>2021-08-11T14:57:39Z</time>
      </trkpt>
      <trkpt lat="42.6852340" lon="1.3953930">
        <ele>2359.4</ele>
        <time>2021-08-11T14:57:40Z</time>
      </trkpt>
      <trkpt lat="42.6852250" lon="1.3953840">
        <ele>2359.6</ele>
        <time>2021-08-11T14:57:41Z</time>
      </trkpt>
      <trkpt lat="42.6852160" lon="1.3953730">
        <ele>2359.8</ele>
        <time>2021-08-11T14:57:42Z</time>
      </trkpt>
      <trkpt lat="42.6852070" lon="1.3953660">
        <ele>2360.0</ele>
        <time>2021-08-11T14:57:43Z</time>
      </trkpt>
      <trkpt lat="42.6852020" lon="1.3953600">
        <ele>2360.2</ele>
        <time>2021-08-11T14:57:44Z</time>
      </trkpt>
      <trkpt lat="42.6851860" lon="1.3953470">
        <ele>2360.5</ele>
        <time>2021-08-11T14:57:47Z</time>
      </trkpt>
      <trkpt lat="42.6851740" lon="1.3953350">
        <ele>2360.8</ele>
        <time>2021-08-11T14:57:49Z</time>
      </trkpt>
      <trkpt lat="42.6851600" lon="1.3953270">
        <ele>2361.1</ele>
        <time>2021-08-11T14:57:51Z</time>
      </trkpt>
      <trkpt lat="42.6851510" lon="1.3953050">
        <ele>2361.5</ele>
        <time>2021-08-11T14:57:54Z</time>
      </trkpt>
      <trkpt lat="42.6851390" lon="1.3952950">
        <ele>2361.8</ele>
        <time>2021-08-11T14:57:56Z</time>
      </trkpt>
      <trkpt lat="42.6851250" lon="1.3952740">
        <ele>2362.2</ele>
        <time>2021-08-11T14:57:59Z</time>
      </trkpt>
      <trkpt lat="42.6851200" lon="1.3952520">
        <ele>2362.5</ele>
        <time>2021-08-11T14:58:01Z</time>
      </trkpt>
      <trkpt lat="42.6850010" lon="1.3952220">
        <ele>2364.9</ele>
        <time>2021-08-11T14:58:42Z</time>
      </trkpt>
      <trkpt lat="42.6848250" lon="1.3951480">
        <ele>2368.6</ele>
        <time>2021-08-11T14:59:07Z</time>
      </trkpt>
      <trkpt lat="42.6848100" lon="1.3951540">
        <ele>2368.9</ele>
        <time>2021-08-11T14:59:09Z</time>
      </trkpt>
      <trkpt lat="42.6847390" lon="1.3950300">
        <ele>2371.2</ele>
        <time>2021-08-11T15:00:39Z</time>
      </trkpt>
      <trkpt lat="42.6845750" lon="1.3949200">
        <ele>2374.8</ele>
        <time>2021-08-11T15:01:08Z</time>
      </trkpt>
      <trkpt lat="42.6844670" lon="1.3948410">
        <ele>2377.3</ele>
        <time>2021-08-11T15:01:24Z</time>
      </trkpt>
      <trkpt lat="42.6844750" lon="1.3947800">
        <ele>2378.2</ele>
        <time>2021-08-11T15:01:35Z</time>
      </trkpt>
      <trkpt lat="42.6844750" lon="1.3947780">
        <ele>2378.2</ele>
        <time>2021-08-11T15:01:43Z</time>
      </trkpt>
      <trkpt lat="42.6844610" lon="1.3947970">
        <ele>2378.6</ele>
        <time>2021-08-11T15:02:01Z</time>
      </trkpt>
      <trkpt lat="42.6843860" lon="1.3947490">
        <ele>2380.2</ele>
        <time>2021-08-11T15:02:12Z</time>
      </trkpt>
      <trkpt lat="42.6843120" lon="1.3947160">
        <ele>2381.8</ele>
        <time>2021-08-11T15:02:21Z</time>
      </trkpt>
      <trkpt lat="42.6842940" lon="1.3947080">
        <ele>2382.2</ele>
        <time>2021-08-11T15:02:23Z</time>
      </trkpt>
      <trkpt lat="42.6841990" lon="1.3946270">
        <ele>2384.4</ele>
        <time>2021-08-11T15:02:35Z</time>
      </trkpt>
      <trkpt lat="42.6841230" lon="1.3945540">
        <ele>2386.2</ele>
        <time>2021-08-11T15:02:50Z</time>
      </trkpt>
      <trkpt lat="42.6839420" lon="1.3945250">
        <ele>2389.9</ele>
        <time>2021-08-11T15:03:12Z</time>
      </trkpt>
      <trkpt lat="42.6837740" lon="1.3944800">
        <ele>2393.3</ele>
        <time>2021-08-11T15:03:39Z</time>
      </trkpt>
      <trkpt lat="42.6837060" lon="1.3944210">
        <ele>2394.9</ele>
        <time>2021-08-11T15:04:01Z</time>
      </trkpt>
      <trkpt lat="42.6836870" lon="1.3944220">
        <ele>2395.2</ele>
        <time>2021-08-11T15:04:08Z</time>
      </trkpt>
      <trkpt lat="42.6836620" lon="1.3944510">
        <ele>2395.9</ele>
        <time>2021-08-11T15:04:15Z</time>
      </trkpt>
      <trkpt lat="42.6836430" lon="1.3945200">
        <ele>2397.0</ele>
        <time>2021-08-11T15:04:41Z</time>
      </trkpt>
      <trkpt lat="42.6835100" lon="1.3944960">
        <ele>2399.6</ele>
        <time>2021-08-11T15:05:16Z</time>
      </trkpt>
      <trkpt lat="42.6833710" lon="1.3942620">
        <ele>2403.1</ele>
        <time>2021-08-11T15:05:43Z</time>
      </trkpt>
      <trkpt lat="42.6832940" lon="1.3943500">
        <ele>2405.3</ele>
        <time>2021-08-11T15:06:08Z</time>
      </trkpt>
      <trkpt lat="42.6833030" lon="1.3943710">
        <ele>2405.7</ele>
        <time>2021-08-11T15:06:14Z</time>
      </trkpt>
      <trkpt lat="42.6832060" lon="1.3944310">
        <ele>2408.0</ele>
        <time>2021-08-11T15:06:38Z</time>
      </trkpt>
      <trkpt lat="42.6831360" lon="1.3943960">
        <ele>2409.6</ele>
        <time>2021-08-11T15:06:44Z</time>
      </trkpt>
      <trkpt lat="42.6830690" lon="1.3943820">
        <ele>2411.0</ele>
        <time>2021-08-11T15:06:52Z</time>
      </trkpt>
      <trkpt lat="42.6830490" lon="1.3943790">
        <ele>2411.5</ele>
        <time>2021-08-11T15:06:56Z</time>
      </trkpt>
      <trkpt lat="42.6830360" lon="1.3943740">
        <ele>2411.7</ele>
        <time>2021-08-11T15:06:58Z</time>
      </trkpt>
      <trkpt lat="42.6829990" lon="1.3943630">
        <ele>2412.6</ele>
        <time>2021-08-11T15:07:03Z</time>
      </trkpt>
      <trkpt lat="42.6829910" lon="1.3943610">
        <ele>2412.7</ele>
        <time>2021-08-11T15:07:04Z</time>
      </trkpt>
      <trkpt lat="42.6829840" lon="1.3943620">
        <ele>2412.9</ele>
        <time>2021-08-11T15:07:05Z</time>
      </trkpt>
      <trkpt lat="42.6829600" lon="1.3943580">
        <ele>2413.4</ele>
        <time>2021-08-11T15:07:09Z</time>
      </trkpt>
      <trkpt lat="42.6828300" lon="1.3943770">
        <ele>2416.2</ele>
        <time>2021-08-11T15:07:38Z</time>
      </trkpt>
      <trkpt lat="42.6828230" lon="1.3943650">
        <ele>2416.5</ele>
        <time>2021-08-11T15:07:45Z</time>
      </trkpt>
      <trkpt lat="42.6826540" lon="1.3942930">
        <ele>2420.3</ele>
        <time>2021-08-11T15:08:22Z</time>
      </trkpt>
      <trkpt lat="42.6826150" lon="1.3942830">
        <ele>2421.1</ele>
        <time>2021-08-11T15:08:28Z</time>
      </trkpt>
      <trkpt lat="42.6825340" lon="1.3942180">
        <ele>2423.2</ele>
        <time>2021-08-11T15:08:41Z</time>
      </trkpt>
      <trkpt lat="42.6824710" lon="1.3942100">
        <ele>2424.5</ele>
        <time>2021-08-11T15:08:53Z</time>
      </trkpt>
      <trkpt lat="42.6824470" lon="1.3941960">
        <ele>2425.1</ele>
        <time>2021-08-11T15:08:58Z</time>
      </trkpt>
      <trkpt lat="42.6823140" lon="1.3941190">
        <ele>2428.2</ele>
        <time>2021-08-11T15:09:17Z</time>
      </trkpt>
      <trkpt lat="42.6822650" lon="1.3939530">
        <ele>2431.0</ele>
        <time>2021-08-11T15:10:01Z</time>
      </trkpt>
      <trkpt lat="42.6822680" lon="1.3939460">
        <ele>2431.1</ele>
        <time>2021-08-11T15:10:05Z</time>
      </trkpt>
      <trkpt lat="42.6822660" lon="1.3939440">
        <ele>2431.2</ele>
        <time>2021-08-11T15:10:09Z</time>
      </trkpt>
      <trkpt lat="42.6822850" lon="1.3939530">
        <ele>2431.6</ele>
        <time>2021-08-11T15:10:35Z</time>
      </trkpt>
      <trkpt lat="42.6823130" lon="1.3939500">
        <ele>2432.2</ele>
        <time>2021-08-11T15:10:41Z</time>
      </trkpt>
      <trkpt lat="42.6823090" lon="1.3939510">
        <ele>2432.3</ele>
        <time>2021-08-11T15:10:47Z</time>
      </trkpt>
      <trkpt lat="42.6823110" lon="1.3939480">
        <ele>2432.4</ele>
        <time>2021-08-11T15:10:50Z</time>
      </trkpt>
      <trkpt lat="42.6823120" lon="1.3939480">
        <ele>2432.4</ele>
        <time>2021-08-11T15:10:51Z</time>
      </trkpt>
      <trkpt lat="42.6823170" lon="1.3939380">
        <ele>2432.6</ele>
        <time>2021-08-11T15:10:59Z</time>
      </trkpt>
      <trkpt lat="42.6822290" lon="1.3938690">
        <ele>2434.8</ele>
        <time>2021-08-11T15:11:34Z</time>
      </trkpt>
      <trkpt lat="42.6822310" lon="1.3938700">
        <ele>2434.8</ele>
        <time>2021-08-11T15:11:40Z</time>
      </trkpt>
      <trkpt lat="42.6822140" lon="1.3938700">
        <ele>2435.2</ele>
        <time>2021-08-11T15:11:43Z</time>
      </trkpt>
      <trkpt lat="42.6821930" lon="1.3938730">
        <ele>2435.6</ele>
        <time>2021-08-11T15:11:46Z</time>
      </trkpt>
      <trkpt lat="42.6821860" lon="1.3938730">
        <ele>2435.8</ele>
        <time>2021-08-11T15:11:48Z</time>
      </trkpt>
      <trkpt lat="42.6821820" lon="1.3938740">
        <ele>2435.9</ele>
        <time>2021-08-11T15:11:49Z</time>
      </trkpt>
      <trkpt lat="42.6821780" lon="1.3938760">
        <ele>2436.0</ele>
        <time>2021-08-11T15:11:50Z</time>
      </trkpt>
      <trkpt lat="42.6821790" lon="1.3938780">
        <ele>2436.0</ele>
        <time>2021-08-11T15:11:51Z</time>
      </trkpt>
      <trkpt lat="42.6821760" lon="1.3938800">
        <ele>2436.1</ele>
        <time>2021-08-11T15:11:52Z</time>
      </trkpt>
      <trkpt lat="42.6821800" lon="1.3939000">
        <ele>2436.4</ele>
        <time>2021-08-11T15:11:55Z</time>
      </trkpt>
      <trkpt lat="42.6821780" lon="1.3939030">
        <ele>2436.5</ele>
        <time>2021-08-11T15:11:57Z</time>
      </trkpt>
      <trkpt lat="42.6821790" lon="1.3939010">
        <ele>2436.5</ele>
        <time>2021-08-11T15:11:58Z</time>
      </trkpt>
      <trkpt lat="42.6821830" lon="1.3938980">
        <ele>2436.6</ele>
        <time>2021-08-11T15:12:00Z</time>
      </trkpt>
      <trkpt lat="42.6821830" lon="1.3938920">
        <ele>2436.7</ele>
        <time>2021-08-11T15:12:01Z</time>
      </trkpt>
      <trkpt lat="42.6821790" lon="1.3938850">
        <ele>2436.9</ele>
        <time>2021-08-11T15:12:03Z</time>
      </trkpt>
      <trkpt lat="42.6821710" lon="1.3938740">
        <ele>2437.1</ele>
        <time>2021-08-11T15:12:05Z</time>
      </trkpt>
      <trkpt lat="42.6820830" lon="1.3938260">
        <ele>2439.1</ele>
        <time>2021-08-11T15:12:19Z</time>
      </trkpt>
      <trkpt lat="42.6820570" lon="1.3938250">
        <ele>2439.7</ele>
        <time>2021-08-11T15:12:25Z</time>
      </trkpt>
      <trkpt lat="42.6820260" lon="1.3938860">
        <ele>2440.9</ele>
        <time>2021-08-11T15:12:42Z</time>
      </trkpt>
      <trkpt lat="42.6820280" lon="1.3938910">
        <ele>2441.0</ele>
        <time>2021-08-11T15:12:43Z</time>
      </trkpt>
      <trkpt lat="42.6820300" lon="1.3938970">
        <ele>2441.1</ele>
        <time>2021-08-11T15:12:44Z</time>
      </trkpt>
      <trkpt lat="42.6820260" lon="1.3939760">
        <ele>2442.3</ele>
        <time>2021-08-11T15:12:59Z</time>
      </trkpt>
      <trkpt lat="42.6820110" lon="1.3940270">
        <ele>2443.2</ele>
        <time>2021-08-11T15:13:14Z</time>
      </trkpt>
      <trkpt lat="42.6819920" lon="1.3940120">
        <ele>2443.7</ele>
        <time>2021-08-11T15:13:23Z</time>
      </trkpt>
      <trkpt lat="42.6819450" lon="1.3940110">
        <ele>2444.7</ele>
        <time>2021-08-11T15:13:34Z</time>
      </trkpt>
      <trkpt lat="42.6819440" lon="1.3941940">
        <ele>2447.6</ele>
        <time>2021-08-11T15:14:13Z</time>
      </trkpt>
      <trkpt lat="42.6819580" lon="1.3942330">
        <ele>2448.2</ele>
        <time>2021-08-11T15:14:21Z</time>
      </trkpt>
      <trkpt lat="42.6819550" lon="1.3942410">
        <ele>2448.4</ele>
        <time>2021-08-11T15:14:27Z</time>
      </trkpt>
      <trkpt lat="42.6819600" lon="1.3942390">
        <ele>2448.5</ele>
        <time>2021-08-11T15:14:29Z</time>
      </trkpt>
      <trkpt lat="42.6819670" lon="1.3942390">
        <ele>2448.7</ele>
        <time>2021-08-11T15:14:30Z</time>
      </trkpt>
      <trkpt lat="42.6819690" lon="1.3942440">
        <ele>2448.7</ele>
        <time>2021-08-11T15:14:31Z</time>
      </trkpt>
      <trkpt lat="42.6819710" lon="1.3942520">
        <ele>2448.9</ele>
        <time>2021-08-11T15:14:37Z</time>
      </trkpt>
      <trkpt lat="42.6819050" lon="1.3943840">
        <ele>2451.4</ele>
        <time>2021-08-11T15:15:21Z</time>
      </trkpt>
      <trkpt lat="42.6818870" lon="1.3943950">
        <ele>2451.8</ele>
        <time>2021-08-11T15:15:32Z</time>
      </trkpt>
      <trkpt lat="42.6818550" lon="1.3944070">
        <ele>2452.5</ele>
        <time>2021-08-11T15:15:38Z</time>
      </trkpt>
      <trkpt lat="42.6818500" lon="1.3944090">
        <ele>2452.7</ele>
        <time>2021-08-11T15:15:39Z</time>
      </trkpt>
      <trkpt lat="42.6818430" lon="1.3944110">
        <ele>2452.8</ele>
        <time>2021-08-11T15:15:40Z</time>
      </trkpt>
      <trkpt lat="42.6818090" lon="1.3944120">
        <ele>2453.5</ele>
        <time>2021-08-11T15:15:45Z</time>
      </trkpt>
      <trkpt lat="42.6817880" lon="1.3944300">
        <ele>2454.1</ele>
        <time>2021-08-11T15:15:48Z</time>
      </trkpt>
      <trkpt lat="42.6817500" lon="1.3944800">
        <ele>2455.2</ele>
        <time>2021-08-11T15:16:11Z</time>
      </trkpt>
      <trkpt lat="42.6816180" lon="1.3944700">
        <ele>2458.1</ele>
        <time>2021-08-11T15:16:39Z</time>
      </trkpt>
      <trkpt lat="42.6815990" lon="1.3944830">
        <ele>2458.5</ele>
        <time>2021-08-11T15:16:45Z</time>
      </trkpt>
      <trkpt lat="42.6815290" lon="1.3944920">
        <ele>2460.0</ele>
        <time>2021-08-11T15:17:04Z</time>
      </trkpt>
      <trkpt lat="42.6815690" lon="1.3945090">
        <ele>2460.9</ele>
        <time>2021-08-11T15:17:27Z</time>
      </trkpt>
      <trkpt lat="42.6815610" lon="1.3945070">
        <ele>2461.1</ele>
        <time>2021-08-11T15:17:36Z</time>
      </trkpt>
      <trkpt lat="42.6815430" lon="1.3945010">
        <ele>2461.5</ele>
        <time>2021-08-11T15:17:42Z</time>
      </trkpt>
      <trkpt lat="42.6815300" lon="1.3945000">
        <ele>2461.8</ele>
        <time>2021-08-11T15:17:46Z</time>
      </trkpt>
      <trkpt lat="42.6814830" lon="1.3945270">
        <ele>2462.9</ele>
        <time>2021-08-11T15:17:57Z</time>
      </trkpt>
      <trkpt lat="42.6814710" lon="1.3945320">
        <ele>2463.1</ele>
        <time>2021-08-11T15:18:00Z</time>
      </trkpt>
      <trkpt lat="42.6814630" lon="1.3945340">
        <ele>2463.3</ele>
        <time>2021-08-11T15:18:01Z</time>
      </trkpt>
      <trkpt lat="42.6814500" lon="1.3945450">
        <ele>2463.7</ele>
        <time>2021-08-11T15:18:04Z</time>
      </trkpt>
      <trkpt lat="42.6814460" lon="1.3945430">
        <ele>2463.7</ele>
        <time>2021-08-11T15:18:07Z</time>
      </trkpt>
      <trkpt lat="42.6814450" lon="1.3945470">
        <ele>2463.8</ele>
        <time>2021-08-11T15:18:09Z</time>
      </trkpt>
      <trkpt lat="42.6814420" lon="1.3945650">
        <ele>2464.1</ele>
        <time>2021-08-11T15:18:23Z</time>
      </trkpt>
      <trkpt lat="42.6814410" lon="1.3945610">
        <ele>2464.2</ele>
        <time>2021-08-11T15:18:25Z</time>
      </trkpt>
      <trkpt lat="42.6814240" lon="1.3945480">
        <ele>2464.6</ele>
        <time>2021-08-11T15:18:31Z</time>
      </trkpt>
      <trkpt lat="42.6814080" lon="1.3945380">
        <ele>2465.0</ele>
        <time>2021-08-11T15:18:35Z</time>
      </trkpt>
      <trkpt lat="42.6813820" lon="1.3945150">
        <ele>2465.6</ele>
        <time>2021-08-11T15:18:41Z</time>
      </trkpt>
      <trkpt lat="42.6813710" lon="1.3945070">
        <ele>2465.9</ele>
        <time>2021-08-11T15:18:43Z</time>
      </trkpt>
      <trkpt lat="42.6813570" lon="1.3945000">
        <ele>2466.2</ele>
        <time>2021-08-11T15:18:46Z</time>
      </trkpt>
      <trkpt lat="42.6812400" lon="1.3944990">
        <ele>2468.7</ele>
        <time>2021-08-11T15:19:58Z</time>
      </trkpt>
      <trkpt lat="42.6812300" lon="1.3945430">
        <ele>2469.5</ele>
        <time>2021-08-11T15:20:13Z</time>
      </trkpt>
      <trkpt lat="42.6812350" lon="1.3945250">
        <ele>2469.8</ele>
        <time>2021-08-11T15:20:22Z</time>
      </trkpt>
      <trkpt lat="42.6812390" lon="1.3945160">
        <ele>2469.9</ele>
        <time>2021-08-11T15:20:27Z</time>
      </trkpt>
      <trkpt lat="42.6812360" lon="1.3945180">
        <ele>2470.0</ele>
        <time>2021-08-11T15:20:33Z</time>
      </trkpt>
      <trkpt lat="42.6812380" lon="1.3944980">
        <ele>2470.3</ele>
        <time>2021-08-11T15:20:38Z</time>
      </trkpt>
      <trkpt lat="42.6812360" lon="1.3945040">
        <ele>2470.4</ele>
        <time>2021-08-11T15:20:44Z</time>
      </trkpt>
      <trkpt lat="42.6812160" lon="1.3945060">
        <ele>2470.9</ele>
        <time>2021-08-11T15:20:53Z</time>
      </trkpt>
      <trkpt lat="42.6812150" lon="1.3945050">
        <ele>2470.9</ele>
        <time>2021-08-11T15:20:54Z</time>
      </trkpt>
      <trkpt lat="42.6812140" lon="1.3945060">
        <ele>2470.9</ele>
        <time>2021-08-11T15:20:55Z</time>
      </trkpt>
      <trkpt lat="42.6812130" lon="1.3945090">
        <ele>2471.0</ele>
        <time>2021-08-11T15:20:56Z</time>
      </trkpt>
      <trkpt lat="42.6812120" lon="1.3945210">
        <ele>2471.2</ele>
        <time>2021-08-11T15:20:58Z</time>
      </trkpt>
      <trkpt lat="42.6812120" lon="1.3945250">
        <ele>2471.2</ele>
        <time>2021-08-11T15:20:59Z</time>
      </trkpt>
      <trkpt lat="42.6811460" lon="1.3945750">
        <ele>2472.9</ele>
        <time>2021-08-11T15:21:12Z</time>
      </trkpt>
      <trkpt lat="42.6811460" lon="1.3945840">
        <ele>2473.0</ele>
        <time>2021-08-11T15:21:13Z</time>
      </trkpt>
      <trkpt lat="42.6811320" lon="1.3946020">
        <ele>2473.4</ele>
        <time>2021-08-11T15:21:17Z</time>
      </trkpt>
      <trkpt lat="42.6811280" lon="1.3946050">
        <ele>2473.5</ele>
        <time>2021-08-11T15:21:18Z</time>
      </trkpt>
      <trkpt lat="42.6811070" lon="1.3946180">
        <ele>2474.0</ele>
        <time>2021-08-11T15:21:21Z</time>
      </trkpt>
      <trkpt lat="42.6810720" lon="1.3946270">
        <ele>2474.8</ele>
        <time>2021-08-11T15:21:26Z</time>
      </trkpt>
      <trkpt lat="42.6810310" lon="1.3946160">
        <ele>2475.7</ele>
        <time>2021-08-11T15:21:36Z</time>
      </trkpt>
      <trkpt lat="42.6810290" lon="1.3946100">
        <ele>2475.8</ele>
        <time>2021-08-11T15:21:40Z</time>
      </trkpt>
      <trkpt lat="42.6810300" lon="1.3946090">
        <ele>2475.8</ele>
        <time>2021-08-11T15:21:41Z</time>
      </trkpt>
      <trkpt lat="42.6810210" lon="1.3946070">
        <ele>2476.0</ele>
        <time>2021-08-11T15:21:48Z</time>
      </trkpt>
      <trkpt lat="42.6810360" lon="1.3945840">
        <ele>2476.5</ele>
        <time>2021-08-11T15:22:17Z</time>
      </trkpt>
      <trkpt lat="42.6810530" lon="1.3945800">
        <ele>2476.9</ele>
        <time>2021-08-11T15:22:21Z</time>
      </trkpt>
      <trkpt lat="42.6810800" lon="1.3945760">
        <ele>2477.4</ele>
        <time>2021-08-11T15:22:29Z</time>
      </trkpt>
      <trkpt lat="42.6810650" lon="1.3945760">
        <ele>2477.8</ele>
        <time>2021-08-11T15:22:38Z</time>
      </trkpt>
      <trkpt lat="42.6810400" lon="1.3945810">
        <ele>2478.3</ele>
        <time>2021-08-11T15:22:46Z</time>
      </trkpt>
      <trkpt lat="42.6810580" lon="1.3945840">
        <ele>2478.7</ele>
        <time>2021-08-11T15:22:55Z</time>
      </trkpt>
      <trkpt lat="42.6810610" lon="1.3945850">
        <ele>2478.8</ele>
        <time>2021-08-11T15:22:56Z</time>
      </trkpt>
      <trkpt lat="42.6810610" lon="1.3945860">
        <ele>2478.8</ele>
        <time>2021-08-11T15:22:58Z</time>
      </trkpt>
      <trkpt lat="42.6810760" lon="1.3945850">
        <ele>2479.1</ele>
        <time>2021-08-11T15:23:11Z</time>
      </trkpt>
      <trkpt lat="42.6810430" lon="1.3946100">
        <ele>2479.9</ele>
        <time>2021-08-11T15:23:13Z</time>
      </trkpt>
      <trkpt lat="42.6810270" lon="1.3946270">
        <ele>2480.3</ele>
        <time>2021-08-11T15:23:18Z</time>
      </trkpt>
      <trkpt lat="42.6810010" lon="1.3945990">
        <ele>2481.1</ele>
        <time>2021-08-11T15:23:48Z</time>
      </trkpt>
      <trkpt lat="42.6809920" lon="1.3945990">
        <ele>2481.3</ele>
        <time>2021-08-11T15:23:56Z</time>
      </trkpt>
      <trkpt lat="42.6809960" lon="1.3946330">
        <ele>2481.8</ele>
        <time>2021-08-11T15:24:06Z</time>
      </trkpt>
      <trkpt lat="42.6809890" lon="1.3947390">
        <ele>2483.5</ele>
        <time>2021-08-11T15:24:44Z</time>
      </trkpt>
      <trkpt lat="42.6809850" lon="1.3947590">
        <ele>2483.8</ele>
        <time>2021-08-11T15:24:50Z</time>
      </trkpt>
      <trkpt lat="42.6809610" lon="1.3948420">
        <ele>2485.2</ele>
        <time>2021-08-11T15:25:09Z</time>
      </trkpt>
      <trkpt lat="42.6809640" lon="1.3948520">
        <ele>2485.4</ele>
        <time>2021-08-11T15:25:19Z</time>
      </trkpt>
      <trkpt lat="42.6809460" lon="1.3948770">
        <ele>2485.9</ele>
        <time>2021-08-11T15:25:28Z</time>
      </trkpt>
      <trkpt lat="42.6809860" lon="1.3949790">
        <ele>2487.8</ele>
        <time>2021-08-11T15:25:59Z</time>
      </trkpt>
      <trkpt lat="42.6809810" lon="1.3949760">
        <ele>2487.9</ele>
        <time>2021-08-11T15:26:01Z</time>
      </trkpt>
      <trkpt lat="42.6809610" lon="1.3949890">
        <ele>2488.4</ele>
        <time>2021-08-11T15:26:05Z</time>
      </trkpt>
      <trkpt lat="42.6809420" lon="1.3950030">
        <ele>2488.8</ele>
        <time>2021-08-11T15:26:09Z</time>
      </trkpt>
      <trkpt lat="42.6809410" lon="1.3950220">
        <ele>2489.1</ele>
        <time>2021-08-11T15:26:14Z</time>
      </trkpt>
      <trkpt lat="42.6809360" lon="1.3951040">
        <ele>2490.4</ele>
        <time>2021-08-11T15:26:32Z</time>
      </trkpt>
      <trkpt lat="42.6809370" lon="1.3951060">
        <ele>2490.5</ele>
        <time>2021-08-11T15:26:34Z</time>
      </trkpt>
      <trkpt lat="42.6809360" lon="1.3951060">
        <ele>2490.5</ele>
        <time>2021-08-11T15:26:35Z</time>
      </trkpt>
      <trkpt lat="42.6809340" lon="1.3951060">
        <ele>2490.5</ele>
        <time>2021-08-11T15:26:37Z</time>
      </trkpt>
      <trkpt lat="42.6809240" lon="1.3951160">
        <ele>2490.8</ele>
        <time>2021-08-11T15:26:42Z</time>
      </trkpt>
      <trkpt lat="42.6809200" lon="1.3951170">
        <ele>2490.9</ele>
        <time>2021-08-11T15:26:43Z</time>
      </trkpt>
      <trkpt lat="42.6809060" lon="1.3951280">
        <ele>2491.2</ele>
        <time>2021-08-11T15:26:50Z</time>
      </trkpt>
      <trkpt lat="42.6809040" lon="1.3951420">
        <ele>2491.5</ele>
        <time>2021-08-11T15:26:57Z</time>
      </trkpt>
      <trkpt lat="42.6808250" lon="1.3952470">
        <ele>2493.8</ele>
        <time>2021-08-11T15:27:39Z</time>
      </trkpt>
      <trkpt lat="42.6808200" lon="1.3952440">
        <ele>2494.0</ele>
        <time>2021-08-11T15:27:44Z</time>
      </trkpt>
      <trkpt lat="42.6807980" lon="1.3952940">
        <ele>2494.9</ele>
        <time>2021-08-11T15:28:00Z</time>
      </trkpt>
      <trkpt lat="42.6808060" lon="1.3953130">
        <ele>2495.2</ele>
        <time>2021-08-11T15:28:04Z</time>
      </trkpt>
      <trkpt lat="42.6807930" lon="1.3953250">
        <ele>2495.6</ele>
        <time>2021-08-11T15:28:08Z</time>
      </trkpt>
      <trkpt lat="42.6807780" lon="1.3953800">
        <ele>2496.5</ele>
        <time>2021-08-11T15:28:17Z</time>
      </trkpt>
      <trkpt lat="42.6807760" lon="1.3953870">
        <ele>2496.6</ele>
        <time>2021-08-11T15:28:18Z</time>
      </trkpt>
      <trkpt lat="42.6807740" lon="1.3953940">
        <ele>2496.7</ele>
        <time>2021-08-11T15:28:19Z</time>
      </trkpt>
      <trkpt lat="42.6807730" lon="1.3953990">
        <ele>2496.8</ele>
        <time>2021-08-11T15:28:20Z</time>
      </trkpt>
      <trkpt lat="42.6807650" lon="1.3954180">
        <ele>2497.2</ele>
        <time>2021-08-11T15:28:23Z</time>
      </trkpt>
      <trkpt lat="42.6807470" lon="1.3954410">
        <ele>2497.7</ele>
        <time>2021-08-11T15:28:27Z</time>
      </trkpt>
      <trkpt lat="42.6807340" lon="1.3954770">
        <ele>2498.3</ele>
        <time>2021-08-11T15:28:32Z</time>
      </trkpt>
      <trkpt lat="42.6807320" lon="1.3954830">
        <ele>2498.4</ele>
        <time>2021-08-11T15:28:36Z</time>
      </trkpt>
      <trkpt lat="42.6807970" lon="1.3955340">
        <ele>2500.0</ele>
        <time>2021-08-11T15:29:13Z</time>
      </trkpt>
      <trkpt lat="42.6807430" lon="1.3955920">
        <ele>2501.5</ele>
        <time>2021-08-11T15:29:27Z</time>
      </trkpt>
      <trkpt lat="42.6807610" lon="1.3956350">
        <ele>2502.3</ele>
        <time>2021-08-11T15:29:57Z</time>
      </trkpt>
      <trkpt lat="42.6807950" lon="1.3956640">
        <ele>2503.2</ele>
        <time>2021-08-11T15:30:10Z</time>
      </trkpt>
      <trkpt lat="42.6808010" lon="1.3956640">
        <ele>2503.3</ele>
        <time>2021-08-11T15:30:16Z</time>
      </trkpt>
      <trkpt lat="42.6808020" lon="1.3956660">
        <ele>2503.3</ele>
        <time>2021-08-11T15:30:18Z</time>
      </trkpt>
      <trkpt lat="42.6808000" lon="1.3956680">
        <ele>2503.4</ele>
        <time>2021-08-11T15:30:21Z</time>
      </trkpt>
      <trkpt lat="42.6807870" lon="1.3956930">
        <ele>2503.9</ele>
        <time>2021-08-11T15:30:33Z</time>
      </trkpt>
      <trkpt lat="42.6807900" lon="1.3957100">
        <ele>2504.2</ele>
        <time>2021-08-11T15:30:41Z</time>
      </trkpt>
      <trkpt lat="42.6807590" lon="1.3957570">
        <ele>2505.1</ele>
        <time>2021-08-11T15:30:55Z</time>
      </trkpt>
      <trkpt lat="42.6807300" lon="1.3958970">
        <ele>2507.4</ele>
        <time>2021-08-11T15:31:29Z</time>
      </trkpt>
      <trkpt lat="42.6807390" lon="1.3958800">
        <ele>2507.8</ele>
        <time>2021-08-11T15:31:34Z</time>
      </trkpt>
      <trkpt lat="42.6807600" lon="1.3958850">
        <ele>2508.2</ele>
        <time>2021-08-11T15:31:56Z</time>
      </trkpt>
      <trkpt lat="42.6807440" lon="1.3959580">
        <ele>2509.4</ele>
        <time>2021-08-11T15:32:06Z</time>
      </trkpt>
      <trkpt lat="42.6807160" lon="1.3959980">
        <ele>2510.3</ele>
        <time>2021-08-11T15:32:10Z</time>
      </trkpt>
      <trkpt lat="42.6807100" lon="1.3960060">
        <ele>2510.5</ele>
        <time>2021-08-11T15:32:11Z</time>
      </trkpt>
      <trkpt lat="42.6807050" lon="1.3960100">
        <ele>2510.6</ele>
        <time>2021-08-11T15:32:12Z</time>
      </trkpt>
      <trkpt lat="42.6807010" lon="1.3960130">
        <ele>2510.7</ele>
        <time>2021-08-11T15:32:14Z</time>
      </trkpt>
      <trkpt lat="42.6807020" lon="1.3960080">
        <ele>2510.8</ele>
        <time>2021-08-11T15:32:17Z</time>
      </trkpt>
      <trkpt lat="42.6807010" lon="1.3960060">
        <ele>2510.8</ele>
        <time>2021-08-11T15:32:18Z</time>
      </trkpt>
      <trkpt lat="42.6807010" lon="1.3960140">
        <ele>2511.0</ele>
        <time>2021-08-11T15:32:22Z</time>
      </trkpt>
      <trkpt lat="42.6807040" lon="1.3960120">
        <ele>2511.0</ele>
        <time>2021-08-11T15:32:25Z</time>
      </trkpt>
      <trkpt lat="42.6807030" lon="1.3960170">
        <ele>2511.1</ele>
        <time>2021-08-11T15:32:27Z</time>
      </trkpt>
      <trkpt lat="42.6806870" lon="1.3960510">
        <ele>2511.8</ele>
        <time>2021-08-11T15:32:48Z</time>
      </trkpt>
      <trkpt lat="42.6806430" lon="1.3961250">
        <ele>2513.3</ele>
        <time>2021-08-11T15:33:04Z</time>
      </trkpt>
      <trkpt lat="42.6806420" lon="1.3961340">
        <ele>2513.4</ele>
        <time>2021-08-11T15:33:07Z</time>
      </trkpt>
      <trkpt lat="42.6806410" lon="1.3961370">
        <ele>2513.5</ele>
        <time>2021-08-11T15:33:11Z</time>
      </trkpt>
      <trkpt lat="42.6806500" lon="1.3961140">
        <ele>2513.9</ele>
        <time>2021-08-11T15:33:21Z</time>
      </trkpt>
      <trkpt lat="42.6806420" lon="1.3961430">
        <ele>2514.4</ele>
        <time>2021-08-11T15:33:27Z</time>
      </trkpt>
      <trkpt lat="42.6805920" lon="1.3962000">
        <ele>2515.8</ele>
        <time>2021-08-11T15:34:01Z</time>
      </trkpt>
      <trkpt lat="42.6805680" lon="1.3961750">
        <ele>2516.4</ele>
        <time>2021-08-11T15:34:12Z</time>
      </trkpt>
      <trkpt lat="42.6805670" lon="1.3961840">
        <ele>2516.6</ele>
        <time>2021-08-11T15:34:20Z</time>
      </trkpt>
      <trkpt lat="42.6805680" lon="1.3962290">
        <ele>2517.3</ele>
        <time>2021-08-11T15:34:31Z</time>
      </trkpt>
      <trkpt lat="42.6805710" lon="1.3962430">
        <ele>2517.5</ele>
        <time>2021-08-11T15:34:34Z</time>
      </trkpt>
      <trkpt lat="42.6805710" lon="1.3962440">
        <ele>2517.5</ele>
        <time>2021-08-11T15:34:35Z</time>
      </trkpt>
      <trkpt lat="42.6805820" lon="1.3962420">
        <ele>2517.8</ele>
        <time>2021-08-11T15:34:40Z</time>
      </trkpt>
      <trkpt lat="42.6805950" lon="1.3962480">
        <ele>2518.1</ele>
        <time>2021-08-11T15:34:48Z</time>
      </trkpt>
      <trkpt lat="42.6805920" lon="1.3962580">
        <ele>2518.2</ele>
        <time>2021-08-11T15:34:50Z</time>
      </trkpt>
      <trkpt lat="42.6805910" lon="1.3962620">
        <ele>2518.3</ele>
        <time>2021-08-11T15:34:57Z</time>
      </trkpt>
      <trkpt lat="42.6805910" lon="1.3962580">
        <ele>2518.4</ele>
        <time>2021-08-11T15:35:05Z</time>
      </trkpt>
      <trkpt lat="42.6805940" lon="1.3962530">
        <ele>2518.5</ele>
        <time>2021-08-11T15:35:11Z</time>
      </trkpt>
      <trkpt lat="42.6805940" lon="1.3962530">
        <ele>2518.5</ele>
        <time>2021-08-11T15:35:12Z</time>
      </trkpt>
      <trkpt lat="42.6805940" lon="1.3962530">
        <ele>2518.5</ele>
        <time>2021-08-11T15:35:13Z</time>
      </trkpt>
      <trkpt lat="42.6805940" lon="1.3962530">
        <ele>2518.5</ele>
        <time>2021-08-11T15:35:14Z</time>
      </trkpt>
      <trkpt lat="42.6805630" lon="1.3962680">
        <ele>2519.2</ele>
        <time>2021-08-11T15:35:42Z</time>
      </trkpt>
      <trkpt lat="42.6805580" lon="1.3962880">
        <ele>2519.5</ele>
        <time>2021-08-11T15:35:44Z</time>
      </trkpt>
      <trkpt lat="42.6805440" lon="1.3963220">
        <ele>2520.1</ele>
        <time>2021-08-11T15:35:47Z</time>
      </trkpt>
      <trkpt lat="42.6805330" lon="1.3963500">
        <ele>2520.6</ele>
        <time>2021-08-11T15:35:50Z</time>
      </trkpt>
      <trkpt lat="42.6805260" lon="1.3963710">
        <ele>2521.0</ele>
        <time>2021-08-11T15:35:52Z</time>
      </trkpt>
      <trkpt lat="42.6805240" lon="1.3963800">
        <ele>2521.1</ele>
        <time>2021-08-11T15:35:53Z</time>
      </trkpt>
      <trkpt lat="42.6805220" lon="1.3963920">
        <ele>2521.3</ele>
        <time>2021-08-11T15:35:54Z</time>
      </trkpt>
      <trkpt lat="42.6805180" lon="1.3964020">
        <ele>2521.5</ele>
        <time>2021-08-11T15:35:55Z</time>
      </trkpt>
      <trkpt lat="42.6805160" lon="1.3965320">
        <ele>2523.6</ele>
        <time>2021-08-11T15:36:08Z</time>
      </trkpt>
      <trkpt lat="42.6804930" lon="1.3965620">
        <ele>2524.2</ele>
        <time>2021-08-11T15:36:11Z</time>
      </trkpt>
      <trkpt lat="42.6804910" lon="1.3965830">
        <ele>2524.6</ele>
        <time>2021-08-11T15:36:13Z</time>
      </trkpt>
      <trkpt lat="42.6804910" lon="1.3965900">
        <ele>2524.7</ele>
        <time>2021-08-11T15:36:14Z</time>
      </trkpt>
      <trkpt lat="42.6804900" lon="1.3965990">
        <ele>2524.8</ele>
        <time>2021-08-11T15:36:15Z</time>
      </trkpt>
      <trkpt lat="42.6804890" lon="1.3966100">
        <ele>2525.0</ele>
        <time>2021-08-11T15:36:16Z</time>
      </trkpt>
      <trkpt lat="42.6804900" lon="1.3966210">
        <ele>2525.2</ele>
        <time>2021-08-11T15:36:17Z</time>
      </trkpt>
      <trkpt lat="42.6804930" lon="1.3966310">
        <ele>2525.4</ele>
        <time>2021-08-11T15:36:18Z</time>
      </trkpt>
      <trkpt lat="42.6804820" lon="1.3966690">
        <ele>2526.0</ele>
        <time>2021-08-11T15:36:22Z</time>
      </trkpt>
      <trkpt lat="42.6804450" lon="1.3969010">
        <ele>2529.8</ele>
        <time>2021-08-11T15:37:02Z</time>
      </trkpt>
      <trkpt lat="42.6804020" lon="1.3969660">
        <ele>2531.1</ele>
        <time>2021-08-11T15:37:23Z</time>
      </trkpt>
      <trkpt lat="42.6803250" lon="1.3970790">
        <ele>2533.6</ele>
        <time>2021-08-11T15:37:51Z</time>
      </trkpt>
      <trkpt lat="42.6802880" lon="1.3971420">
        <ele>2534.9</ele>
        <time>2021-08-11T15:38:00Z</time>
      </trkpt>
      <trkpt lat="42.6802760" lon="1.3971430">
        <ele>2535.1</ele>
        <time>2021-08-11T15:38:02Z</time>
      </trkpt>
      <trkpt lat="42.6802590" lon="1.3971770">
        <ele>2535.8</ele>
        <time>2021-08-11T15:38:07Z</time>
      </trkpt>
      <trkpt lat="42.6802560" lon="1.3971840">
        <ele>2535.9</ele>
        <time>2021-08-11T15:38:08Z</time>
      </trkpt>
      <trkpt lat="42.6802460" lon="1.3971990">
        <ele>2536.2</ele>
        <time>2021-08-11T15:38:10Z</time>
      </trkpt>
      <trkpt lat="42.6802340" lon="1.3972250">
        <ele>2536.7</ele>
        <time>2021-08-11T15:38:15Z</time>
      </trkpt>
      <trkpt lat="42.6801600" lon="1.3972580">
        <ele>2538.4</ele>
        <time>2021-08-11T15:38:33Z</time>
      </trkpt>
      <trkpt lat="42.6800520" lon="1.3974280">
        <ele>2541.9</ele>
        <time>2021-08-11T15:39:07Z</time>
      </trkpt>
      <trkpt lat="42.6799330" lon="1.3975860">
        <ele>2545.5</ele>
        <time>2021-08-11T15:39:45Z</time>
      </trkpt>
      <trkpt lat="42.6799180" lon="1.3976100">
        <ele>2546.0</ele>
        <time>2021-08-11T15:39:52Z</time>
      </trkpt>
      <trkpt lat="42.6799120" lon="1.3976250">
        <ele>2546.3</ele>
        <time>2021-08-11T15:39:56Z</time>
      </trkpt>
      <trkpt lat="42.6799000" lon="1.3976670">
        <ele>2547.0</ele>
        <time>2021-08-11T15:40:06Z</time>
      </trkpt>
      <trkpt lat="42.6799010" lon="1.3976800">
        <ele>2547.2</ele>
        <time>2021-08-11T15:40:09Z</time>
      </trkpt>
      <trkpt lat="42.6799000" lon="1.3976870">
        <ele>2547.3</ele>
        <time>2021-08-11T15:40:10Z</time>
      </trkpt>
      <trkpt lat="42.6798920" lon="1.3976930">
        <ele>2547.5</ele>
        <time>2021-08-11T15:40:11Z</time>
      </trkpt>
      <trkpt lat="42.6798880" lon="1.3977040">
        <ele>2547.7</ele>
        <time>2021-08-11T15:40:13Z</time>
      </trkpt>
      <trkpt lat="42.6798850" lon="1.3977190">
        <ele>2547.9</ele>
        <time>2021-08-11T15:40:17Z</time>
      </trkpt>
      <trkpt lat="42.6798860" lon="1.3977320">
        <ele>2548.1</ele>
        <time>2021-08-11T15:40:19Z</time>
      </trkpt>
      <trkpt lat="42.6798900" lon="1.3977360">
        <ele>2548.3</ele>
        <time>2021-08-11T15:40:20Z</time>
      </trkpt>
      <trkpt lat="42.6798960" lon="1.3977470">
        <ele>2548.5</ele>
        <time>2021-08-11T15:40:25Z</time>
      </trkpt>
      <trkpt lat="42.6798900" lon="1.3977570">
        <ele>2548.7</ele>
        <time>2021-08-11T15:40:26Z</time>
      </trkpt>
      <trkpt lat="42.6798880" lon="1.3977600">
        <ele>2548.7</ele>
        <time>2021-08-11T15:40:27Z</time>
      </trkpt>
      <trkpt lat="42.6798890" lon="1.3977510">
        <ele>2548.9</ele>
        <time>2021-08-11T15:40:28Z</time>
      </trkpt>
      <trkpt lat="42.6798930" lon="1.3977440">
        <ele>2549.0</ele>
        <time>2021-08-11T15:40:30Z</time>
      </trkpt>
      <trkpt lat="42.6798920" lon="1.3977490">
        <ele>2549.1</ele>
        <time>2021-08-11T15:40:32Z</time>
      </trkpt>
      <trkpt lat="42.6799020" lon="1.3977930">
        <ele>2549.8</ele>
        <time>2021-08-11T15:40:39Z</time>
      </trkpt>
      <trkpt lat="42.6798900" lon="1.3978600">
        <ele>2550.9</ele>
        <time>2021-08-11T15:40:53Z</time>
      </trkpt>
      <trkpt lat="42.6798840" lon="1.3979410">
        <ele>2552.2</ele>
        <time>2021-08-11T15:41:06Z</time>
      </trkpt>
      <trkpt lat="42.6798870" lon="1.3979570">
        <ele>2552.5</ele>
        <time>2021-08-11T15:41:08Z</time>
      </trkpt>
      <trkpt lat="42.6798890" lon="1.3979640">
        <ele>2552.6</ele>
        <time>2021-08-11T15:41:09Z</time>
      </trkpt>
      <trkpt lat="42.6798900" lon="1.3979720">
        <ele>2552.7</ele>
        <time>2021-08-11T15:41:10Z</time>
      </trkpt>
      <trkpt lat="42.6798900" lon="1.3979780">
        <ele>2552.8</ele>
        <time>2021-08-11T15:41:11Z</time>
      </trkpt>
      <trkpt lat="42.6798920" lon="1.3979840">
        <ele>2552.9</ele>
        <time>2021-08-11T15:41:12Z</time>
      </trkpt>
      <trkpt lat="42.6798990" lon="1.3979920">
        <ele>2553.1</ele>
        <time>2021-08-11T15:41:13Z</time>
      </trkpt>
      <trkpt lat="42.6799000" lon="1.3979980">
        <ele>2553.2</ele>
        <time>2021-08-11T15:41:14Z</time>
      </trkpt>
      <trkpt lat="42.6798830" lon="1.3981030">
        <ele>2554.9</ele>
        <time>2021-08-11T15:41:25Z</time>
      </trkpt>
      <trkpt lat="42.6798830" lon="1.3981090">
        <ele>2555.0</ele>
        <time>2021-08-11T15:41:26Z</time>
      </trkpt>
      <trkpt lat="42.6798840" lon="1.3981170">
        <ele>2555.1</ele>
        <time>2021-08-11T15:41:27Z</time>
      </trkpt>
      <trkpt lat="42.6798830" lon="1.3981230">
        <ele>2555.2</ele>
        <time>2021-08-11T15:41:28Z</time>
      </trkpt>
      <trkpt lat="42.6798810" lon="1.3981290">
        <ele>2555.3</ele>
        <time>2021-08-11T15:41:29Z</time>
      </trkpt>
      <trkpt lat="42.6798780" lon="1.3981330">
        <ele>2555.4</ele>
        <time>2021-08-11T15:41:30Z</time>
      </trkpt>
      <trkpt lat="42.6793460" lon="1.3987370">
        <ele>2574.7</ele>
        <time>2021-08-12T04:41:58Z</time>
      </trkpt>
      <trkpt lat="42.6793460" lon="1.3987370">
        <ele>2574.7</ele>
        <time>2021-08-12T04:42:09Z</time>
      </trkpt>
      <trkpt lat="42.6792940" lon="1.3987210">
        <ele>2575.8</ele>
        <time>2021-08-12T04:42:21Z</time>
      </trkpt>
      <trkpt lat="42.6792880" lon="1.3987290">
        <ele>2575.9</ele>
        <time>2021-08-12T04:42:28Z</time>
      </trkpt>
      <trkpt lat="42.6792520" lon="1.3987670">
        <ele>2576.8</ele>
        <time>2021-08-12T04:42:38Z</time>
      </trkpt>
      <trkpt lat="42.6792460" lon="1.3987780">
        <ele>2577.0</ele>
        <time>2021-08-12T04:42:40Z</time>
      </trkpt>
      <trkpt lat="42.6792400" lon="1.3987930">
        <ele>2577.2</ele>
        <time>2021-08-12T04:42:42Z</time>
      </trkpt>
      <trkpt lat="42.6792290" lon="1.3988350">
        <ele>2577.9</ele>
        <time>2021-08-12T04:42:47Z</time>
      </trkpt>
      <trkpt lat="42.6792140" lon="1.3988420">
        <ele>2578.2</ele>
        <time>2021-08-12T04:42:49Z</time>
      </trkpt>
      <trkpt lat="42.6791750" lon="1.3988420">
        <ele>2578.9</ele>
        <time>2021-08-12T04:42:54Z</time>
      </trkpt>
      <trkpt lat="42.6791560" lon="1.3986270">
        <ele>2582.0</ele>
        <time>2021-08-12T04:43:35Z</time>
      </trkpt>
      <trkpt lat="42.6791090" lon="1.3984490">
        <ele>2584.7</ele>
        <time>2021-08-12T04:44:38Z</time>
      </trkpt>
      <trkpt lat="42.6790430" lon="1.3983580">
        <ele>2586.5</ele>
        <time>2021-08-12T04:44:52Z</time>
      </trkpt>
      <trkpt lat="42.6789300" lon="1.3981750">
        <ele>2589.9</ele>
        <time>2021-08-12T04:45:30Z</time>
      </trkpt>
      <trkpt lat="42.6789100" lon="1.3979320">
        <ele>2593.4</ele>
        <time>2021-08-12T04:45:53Z</time>
      </trkpt>
      <trkpt lat="42.6789670" lon="1.3976800">
        <ele>2597.2</ele>
        <time>2021-08-12T04:46:20Z</time>
      </trkpt>
      <trkpt lat="42.6789580" lon="1.3974350">
        <ele>2600.6</ele>
        <time>2021-08-12T04:46:49Z</time>
      </trkpt>
      <trkpt lat="42.6789010" lon="1.3973890">
        <ele>2601.9</ele>
        <time>2021-08-12T04:47:06Z</time>
      </trkpt>
      <trkpt lat="42.6788310" lon="1.3973160">
        <ele>2603.6</ele>
        <time>2021-08-12T04:47:26Z</time>
      </trkpt>
      <trkpt lat="42.6787360" lon="1.3973470">
        <ele>2605.5</ele>
        <time>2021-08-12T04:48:13Z</time>
      </trkpt>
      <trkpt lat="42.6786660" lon="1.3972950">
        <ele>2607.1</ele>
        <time>2021-08-12T04:49:11Z</time>
      </trkpt>
      <trkpt lat="42.6786490" lon="1.3972860">
        <ele>2607.4</ele>
        <time>2021-08-12T04:49:16Z</time>
      </trkpt>
      <trkpt lat="42.6786440" lon="1.3972820">
        <ele>2607.5</ele>
        <time>2021-08-12T04:49:17Z</time>
      </trkpt>
      <trkpt lat="42.6786450" lon="1.3972820">
        <ele>2607.5</ele>
        <time>2021-08-12T04:49:23Z</time>
      </trkpt>
      <trkpt lat="42.6786910" lon="1.3973190">
        <ele>2608.6</ele>
        <time>2021-08-12T04:50:13Z</time>
      </trkpt>
      <trkpt lat="42.6786920" lon="1.3973440">
        <ele>2608.9</ele>
        <time>2021-08-12T04:50:35Z</time>
      </trkpt>
      <trkpt lat="42.6786520" lon="1.3974810">
        <ele>2611.0</ele>
        <time>2021-08-12T04:51:38Z</time>
      </trkpt>
      <trkpt lat="42.6785190" lon="1.3974550">
        <ele>2613.6</ele>
        <time>2021-08-12T04:52:39Z</time>
      </trkpt>
      <trkpt lat="42.6784380" lon="1.3976220">
        <ele>2616.5</ele>
        <time>2021-08-12T04:53:23Z</time>
      </trkpt>
      <trkpt lat="42.6783610" lon="1.3975720">
        <ele>2618.1</ele>
        <time>2021-08-12T04:54:12Z</time>
      </trkpt>
      <trkpt lat="42.6783510" lon="1.3975610">
        <ele>2618.4</ele>
        <time>2021-08-12T04:54:17Z</time>
      </trkpt>
      <trkpt lat="42.6783490" lon="1.3975630">
        <ele>2618.4</ele>
        <time>2021-08-12T04:54:19Z</time>
      </trkpt>
      <trkpt lat="42.6783500" lon="1.3975680">
        <ele>2618.5</ele>
        <time>2021-08-12T04:54:21Z</time>
      </trkpt>
      <trkpt lat="42.6783510" lon="1.3975650">
        <ele>2618.6</ele>
        <time>2021-08-12T04:54:23Z</time>
      </trkpt>
      <trkpt lat="42.6783540" lon="1.3975640">
        <ele>2618.6</ele>
        <time>2021-08-12T04:54:29Z</time>
      </trkpt>
      <trkpt lat="42.6783530" lon="1.3975620">
        <ele>2618.6</ele>
        <time>2021-08-12T04:54:32Z</time>
      </trkpt>
      <trkpt lat="42.6783640" lon="1.3975710">
        <ele>2618.9</ele>
        <time>2021-08-12T04:55:03Z</time>
      </trkpt>
      <trkpt lat="42.6782500" lon="1.3974580">
        <ele>2621.6</ele>
        <time>2021-08-12T04:55:58Z</time>
      </trkpt>
      <trkpt lat="42.6782470" lon="1.3974270">
        <ele>2622.1</ele>
        <time>2021-08-12T04:56:08Z</time>
      </trkpt>
      <trkpt lat="42.6782370" lon="1.3974190">
        <ele>2622.3</ele>
        <time>2021-08-12T04:56:22Z</time>
      </trkpt>
      <trkpt lat="42.6782510" lon="1.3973650">
        <ele>2623.1</ele>
        <time>2021-08-12T04:56:43Z</time>
      </trkpt>
      <trkpt lat="42.6782580" lon="1.3973670">
        <ele>2623.2</ele>
        <time>2021-08-12T04:56:46Z</time>
      </trkpt>
      <trkpt lat="42.6782600" lon="1.3973660">
        <ele>2623.3</ele>
        <time>2021-08-12T04:56:47Z</time>
      </trkpt>
      <trkpt lat="42.6782550" lon="1.3973630">
        <ele>2623.4</ele>
        <time>2021-08-12T04:56:52Z</time>
      </trkpt>
      <trkpt lat="42.6782560" lon="1.3973660">
        <ele>2623.4</ele>
        <time>2021-08-12T04:56:53Z</time>
      </trkpt>
      <trkpt lat="42.6782590" lon="1.3973700">
        <ele>2623.5</ele>
        <time>2021-08-12T04:56:54Z</time>
      </trkpt>
      <trkpt lat="42.6782610" lon="1.3973740">
        <ele>2623.6</ele>
        <time>2021-08-12T04:56:55Z</time>
      </trkpt>
      <trkpt lat="42.6782620" lon="1.3973830">
        <ele>2623.7</ele>
        <time>2021-08-12T04:57:02Z</time>
      </trkpt>
      <trkpt lat="42.6782590" lon="1.3973890">
        <ele>2623.8</ele>
        <time>2021-08-12T04:57:05Z</time>
      </trkpt>
      <trkpt lat="42.6782560" lon="1.3974000">
        <ele>2624.0</ele>
        <time>2021-08-12T04:57:32Z</time>
      </trkpt>
      <trkpt lat="42.6782560" lon="1.3973920">
        <ele>2624.1</ele>
        <time>2021-08-12T04:57:51Z</time>
      </trkpt>
      <trkpt lat="42.6782310" lon="1.3974330">
        <ele>2624.9</ele>
        <time>2021-08-12T04:58:22Z</time>
      </trkpt>
      <trkpt lat="42.6782580" lon="1.3974360">
        <ele>2625.4</ele>
        <time>2021-08-12T04:59:00Z</time>
      </trkpt>
      <trkpt lat="42.6782600" lon="1.3974400">
        <ele>2625.5</ele>
        <time>2021-08-12T04:59:07Z</time>
      </trkpt>
      <trkpt lat="42.6782760" lon="1.3974300">
        <ele>2625.8</ele>
        <time>2021-08-12T04:59:14Z</time>
      </trkpt>
      <trkpt lat="42.6782700" lon="1.3974260">
        <ele>2625.9</ele>
        <time>2021-08-12T04:59:24Z</time>
      </trkpt>
      <trkpt lat="42.6782580" lon="1.3973930">
        <ele>2626.4</ele>
        <time>2021-08-12T05:00:38Z</time>
      </trkpt>
      <trkpt lat="42.6782610" lon="1.3973980">
        <ele>2626.5</ele>
        <time>2021-08-12T05:00:39Z</time>
      </trkpt>
      <trkpt lat="42.6782610" lon="1.3973950">
        <ele>2626.6</ele>
        <time>2021-08-12T05:01:00Z</time>
      </trkpt>
      <trkpt lat="42.6782710" lon="1.3973850">
        <ele>2626.8</ele>
        <time>2021-08-12T05:01:20Z</time>
      </trkpt>
      <trkpt lat="42.6782720" lon="1.3973800">
        <ele>2626.9</ele>
        <time>2021-08-12T05:02:01Z</time>
      </trkpt>
      <trkpt lat="42.6782580" lon="1.3973720">
        <ele>2627.2</ele>
        <time>2021-08-12T05:02:26Z</time>
      </trkpt>
      <trkpt lat="42.6782280" lon="1.3973780">
        <ele>2627.8</ele>
        <time>2021-08-12T05:02:48Z</time>
      </trkpt>
      <trkpt lat="42.6782220" lon="1.3973430">
        <ele>2628.3</ele>
        <time>2021-08-12T05:03:14Z</time>
      </trkpt>
      <trkpt lat="42.6782680" lon="1.3974100">
        <ele>2629.6</ele>
        <time>2021-08-12T05:03:31Z</time>
      </trkpt>
      <trkpt lat="42.6781930" lon="1.3972880">
        <ele>2631.9</ele>
        <time>2021-08-12T05:04:06Z</time>
      </trkpt>
      <trkpt lat="42.6781580" lon="1.3972240">
        <ele>2634.4</ele>
        <time>2021-08-12T05:04:38Z</time>
      </trkpt>
      <trkpt lat="42.6780220" lon="1.3972210">
        <ele>2638.4</ele>
        <time>2021-08-12T05:05:27Z</time>
      </trkpt>
      <trkpt lat="42.6780150" lon="1.3973360">
        <ele>2640.8</ele>
        <time>2021-08-12T05:05:54Z</time>
      </trkpt>
      <trkpt lat="42.6779550" lon="1.3974180">
        <ele>2643.3</ele>
        <time>2021-08-12T05:06:42Z</time>
      </trkpt>
      <trkpt lat="42.6779490" lon="1.3974210">
        <ele>2643.5</ele>
        <time>2021-08-12T05:07:15Z</time>
      </trkpt>
      <trkpt lat="42.6779190" lon="1.3974740">
        <ele>2644.9</ele>
        <time>2021-08-12T05:07:38Z</time>
      </trkpt>
      <trkpt lat="42.6779090" lon="1.3975120">
        <ele>2645.7</ele>
        <time>2021-08-12T05:07:45Z</time>
      </trkpt>
      <trkpt lat="42.6779050" lon="1.3975240">
        <ele>2646.0</ele>
        <time>2021-08-12T05:07:47Z</time>
      </trkpt>
      <trkpt lat="42.6779030" lon="1.3975290">
        <ele>2646.1</ele>
        <time>2021-08-12T05:07:48Z</time>
      </trkpt>
      <trkpt lat="42.6778810" lon="1.3975210">
        <ele>2646.8</ele>
        <time>2021-08-12T05:08:02Z</time>
      </trkpt>
      <trkpt lat="42.6778660" lon="1.3975250">
        <ele>2647.2</ele>
        <time>2021-08-12T05:08:27Z</time>
      </trkpt>
      <trkpt lat="42.6778640" lon="1.3975360">
        <ele>2647.5</ele>
        <time>2021-08-12T05:08:46Z</time>
      </trkpt>
      <trkpt lat="42.6778490" lon="1.3975660">
        <ele>2648.2</ele>
        <time>2021-08-12T05:08:53Z</time>
      </trkpt>
      <trkpt lat="42.6778110" lon="1.3976210">
        <ele>2649.9</ele>
        <time>2021-08-12T05:09:36Z</time>
      </trkpt>
      <trkpt lat="42.6777500" lon="1.3977380">
        <ele>2652.9</ele>
        <time>2021-08-12T05:10:29Z</time>
      </trkpt>
      <trkpt lat="42.6777580" lon="1.3978350">
        <ele>2655.0</ele>
        <time>2021-08-12T05:11:18Z</time>
      </trkpt>
      <trkpt lat="42.6777160" lon="1.3979310">
        <ele>2657.3</ele>
        <time>2021-08-12T05:11:44Z</time>
      </trkpt>
      <trkpt lat="42.6776750" lon="1.3979850">
        <ele>2659.0</ele>
        <time>2021-08-12T05:11:54Z</time>
      </trkpt>
      <trkpt lat="42.6776780" lon="1.3979870">
        <ele>2659.1</ele>
        <time>2021-08-12T05:11:59Z</time>
      </trkpt>
      <trkpt lat="42.6776710" lon="1.3979900">
        <ele>2659.3</ele>
        <time>2021-08-12T05:12:04Z</time>
      </trkpt>
      <trkpt lat="42.6776560" lon="1.3980030">
        <ele>2659.8</ele>
        <time>2021-08-12T05:12:07Z</time>
      </trkpt>
      <trkpt lat="42.6776470" lon="1.3980110">
        <ele>2660.1</ele>
        <time>2021-08-12T05:12:09Z</time>
      </trkpt>
      <trkpt lat="42.6776390" lon="1.3980210">
        <ele>2660.4</ele>
        <time>2021-08-12T05:12:11Z</time>
      </trkpt>
      <trkpt lat="42.6776250" lon="1.3980530">
        <ele>2661.2</ele>
        <time>2021-08-12T05:12:15Z</time>
      </trkpt>
      <trkpt lat="42.6776190" lon="1.3980670">
        <ele>2661.6</ele>
        <time>2021-08-12T05:12:17Z</time>
      </trkpt>
      <trkpt lat="42.6775180" lon="1.3982490">
        <ele>2666.4</ele>
        <time>2021-08-12T05:13:16Z</time>
      </trkpt>
      <trkpt lat="42.6774410" lon="1.3983050">
        <ele>2668.9</ele>
        <time>2021-08-12T05:13:43Z</time>
      </trkpt>
      <trkpt lat="42.6774320" lon="1.3983100">
        <ele>2669.2</ele>
        <time>2021-08-12T05:13:55Z</time>
      </trkpt>
      <trkpt lat="42.6774300" lon="1.3983150">
        <ele>2669.3</ele>
        <time>2021-08-12T05:13:56Z</time>
      </trkpt>
      <trkpt lat="42.6774210" lon="1.3983210">
        <ele>2669.6</ele>
        <time>2021-08-12T05:13:58Z</time>
      </trkpt>
      <trkpt lat="42.6774120" lon="1.3983320">
        <ele>2670.0</ele>
        <time>2021-08-12T05:14:00Z</time>
      </trkpt>
      <trkpt lat="42.6774000" lon="1.3983530">
        <ele>2670.6</ele>
        <time>2021-08-12T05:14:03Z</time>
      </trkpt>
      <trkpt lat="42.6773790" lon="1.3984310">
        <ele>2672.3</ele>
        <time>2021-08-12T05:14:18Z</time>
      </trkpt>
      <trkpt lat="42.6773630" lon="1.3984470">
        <ele>2672.9</ele>
        <time>2021-08-12T05:14:22Z</time>
      </trkpt>
      <trkpt lat="42.6773540" lon="1.3984600">
        <ele>2673.3</ele>
        <time>2021-08-12T05:14:24Z</time>
      </trkpt>
      <trkpt lat="42.6773480" lon="1.3984660">
        <ele>2673.5</ele>
        <time>2021-08-12T05:14:25Z</time>
      </trkpt>
      <trkpt lat="42.6773420" lon="1.3984700">
        <ele>2673.7</ele>
        <time>2021-08-12T05:14:26Z</time>
      </trkpt>
      <trkpt lat="42.6773390" lon="1.3984750">
        <ele>2673.8</ele>
        <time>2021-08-12T05:14:27Z</time>
      </trkpt>
      <trkpt lat="42.6773350" lon="1.3984820">
        <ele>2674.0</ele>
        <time>2021-08-12T05:14:28Z</time>
      </trkpt>
      <trkpt lat="42.6773270" lon="1.3984990">
        <ele>2674.4</ele>
        <time>2021-08-12T05:14:31Z</time>
      </trkpt>
      <trkpt lat="42.6773120" lon="1.3985160">
        <ele>2675.0</ele>
        <time>2021-08-12T05:14:35Z</time>
      </trkpt>
      <trkpt lat="42.6772150" lon="1.3987080">
        <ele>2679.9</ele>
        <time>2021-08-12T05:15:06Z</time>
      </trkpt>
      <trkpt lat="42.6771950" lon="1.3987290">
        <ele>2680.7</ele>
        <time>2021-08-12T05:15:18Z</time>
      </trkpt>
      <trkpt lat="42.6771900" lon="1.3987420">
        <ele>2681.0</ele>
        <time>2021-08-12T05:15:30Z</time>
      </trkpt>
      <trkpt lat="42.6771930" lon="1.3988580">
        <ele>2683.5</ele>
        <time>2021-08-12T05:15:59Z</time>
      </trkpt>
      <trkpt lat="42.6771730" lon="1.3988680">
        <ele>2684.1</ele>
        <time>2021-08-12T05:16:04Z</time>
      </trkpt>
      <trkpt lat="42.6771560" lon="1.3988710">
        <ele>2684.6</ele>
        <time>2021-08-12T05:16:08Z</time>
      </trkpt>
      <trkpt lat="42.6771550" lon="1.3988750">
        <ele>2684.7</ele>
        <time>2021-08-12T05:16:09Z</time>
      </trkpt>
      <trkpt lat="42.6771540" lon="1.3988820">
        <ele>2684.8</ele>
        <time>2021-08-12T05:16:11Z</time>
      </trkpt>
      <trkpt lat="42.6771570" lon="1.3988910">
        <ele>2685.0</ele>
        <time>2021-08-12T05:16:13Z</time>
      </trkpt>
      <trkpt lat="42.6771570" lon="1.3988970">
        <ele>2685.1</ele>
        <time>2021-08-12T05:16:14Z</time>
      </trkpt>
      <trkpt lat="42.6771600" lon="1.3989070">
        <ele>2685.4</ele>
        <time>2021-08-12T05:16:16Z</time>
      </trkpt>
      <trkpt lat="42.6771550" lon="1.3989150">
        <ele>2685.6</ele>
        <time>2021-08-12T05:16:18Z</time>
      </trkpt>
      <trkpt lat="42.6771410" lon="1.3989350">
        <ele>2686.2</ele>
        <time>2021-08-12T05:16:23Z</time>
      </trkpt>
      <trkpt lat="42.6771310" lon="1.3989470">
        <ele>2686.6</ele>
        <time>2021-08-12T05:16:27Z</time>
      </trkpt>
      <trkpt lat="42.6770970" lon="1.3989510">
        <ele>2687.6</ele>
        <time>2021-08-12T05:16:45Z</time>
      </trkpt>
      <trkpt lat="42.6770060" lon="1.3991380">
        <ele>2692.3</ele>
        <time>2021-08-12T05:17:42Z</time>
      </trkpt>
      <trkpt lat="42.6769130" lon="1.3990150">
        <ele>2696.1</ele>
        <time>2021-08-12T05:18:43Z</time>
      </trkpt>
      <trkpt lat="42.6767920" lon="1.3988580">
        <ele>2700.9</ele>
        <time>2021-08-12T05:19:53Z</time>
      </trkpt>
      <trkpt lat="42.6767760" lon="1.3988760">
        <ele>2701.5</ele>
        <time>2021-08-12T05:20:05Z</time>
      </trkpt>
      <trkpt lat="42.6767150" lon="1.3989470">
        <ele>2703.8</ele>
        <time>2021-08-12T05:20:33Z</time>
      </trkpt>
      <trkpt lat="42.6767160" lon="1.3989370">
        <ele>2704.0</ele>
        <time>2021-08-12T05:20:37Z</time>
      </trkpt>
      <trkpt lat="42.6767170" lon="1.3989350">
        <ele>2704.1</ele>
        <time>2021-08-12T05:20:38Z</time>
      </trkpt>
      <trkpt lat="42.6767180" lon="1.3989330">
        <ele>2704.1</ele>
        <time>2021-08-12T05:20:39Z</time>
      </trkpt>
      <trkpt lat="42.6767200" lon="1.3989340">
        <ele>2704.2</ele>
        <time>2021-08-12T05:20:40Z</time>
      </trkpt>
      <trkpt lat="42.6767100" lon="1.3989340">
        <ele>2704.5</ele>
        <time>2021-08-12T05:20:43Z</time>
      </trkpt>
      <trkpt lat="42.6767030" lon="1.3989340">
        <ele>2704.7</ele>
        <time>2021-08-12T05:20:44Z</time>
      </trkpt>
      <trkpt lat="42.6766980" lon="1.3989330">
        <ele>2704.8</ele>
        <time>2021-08-12T05:20:45Z</time>
      </trkpt>
      <trkpt lat="42.6766910" lon="1.3989310">
        <ele>2705.0</ele>
        <time>2021-08-12T05:20:47Z</time>
      </trkpt>
      <trkpt lat="42.6766890" lon="1.3989340">
        <ele>2705.1</ele>
        <time>2021-08-12T05:20:49Z</time>
      </trkpt>
      <trkpt lat="42.6766870" lon="1.3989300">
        <ele>2705.2</ele>
        <time>2021-08-12T05:20:53Z</time>
      </trkpt>
      <trkpt lat="42.6766840" lon="1.3989280">
        <ele>2705.3</ele>
        <time>2021-08-12T05:20:54Z</time>
      </trkpt>
      <trkpt lat="42.6766790" lon="1.3989290">
        <ele>2705.5</ele>
        <time>2021-08-12T05:20:55Z</time>
      </trkpt>
      <trkpt lat="42.6766720" lon="1.3989290">
        <ele>2705.7</ele>
        <time>2021-08-12T05:20:56Z</time>
      </trkpt>
      <trkpt lat="42.6765880" lon="1.3989460">
        <ele>2708.1</ele>
        <time>2021-08-12T05:21:20Z</time>
      </trkpt>
      <trkpt lat="42.6765860" lon="1.3989520">
        <ele>2708.3</ele>
        <time>2021-08-12T05:21:21Z</time>
      </trkpt>
      <trkpt lat="42.6765780" lon="1.3989610">
        <ele>2708.6</ele>
        <time>2021-08-12T05:21:25Z</time>
      </trkpt>
      <trkpt lat="42.6765780" lon="1.3989630">
        <ele>2708.6</ele>
        <time>2021-08-12T05:21:26Z</time>
      </trkpt>
      <trkpt lat="42.6765420" lon="1.3990260">
        <ele>2710.3</ele>
        <time>2021-08-12T05:21:41Z</time>
      </trkpt>
      <trkpt lat="42.6764990" lon="1.3990770">
        <ele>2712.0</ele>
        <time>2021-08-12T05:22:26Z</time>
      </trkpt>
      <trkpt lat="42.6764990" lon="1.3990760">
        <ele>2712.0</ele>
        <time>2021-08-12T05:22:27Z</time>
      </trkpt>
      <trkpt lat="42.6764960" lon="1.3990760">
        <ele>2712.1</ele>
        <time>2021-08-12T05:22:29Z</time>
      </trkpt>
      <trkpt lat="42.6764510" lon="1.3990370">
        <ele>2713.6</ele>
        <time>2021-08-12T05:22:43Z</time>
      </trkpt>
      <trkpt lat="42.6764410" lon="1.3990230">
        <ele>2714.0</ele>
        <time>2021-08-12T05:22:48Z</time>
      </trkpt>
      <trkpt lat="42.6764240" lon="1.3990180">
        <ele>2714.5</ele>
        <time>2021-08-12T05:22:54Z</time>
      </trkpt>
      <trkpt lat="42.6764240" lon="1.3990170">
        <ele>2714.5</ele>
        <time>2021-08-12T05:22:55Z</time>
      </trkpt>
      <trkpt lat="42.6764230" lon="1.3990160">
        <ele>2714.6</ele>
        <time>2021-08-12T05:22:56Z</time>
      </trkpt>
      <trkpt lat="42.6764220" lon="1.3990120">
        <ele>2714.7</ele>
        <time>2021-08-12T05:23:02Z</time>
      </trkpt>
      <trkpt lat="42.6764120" lon="1.3990160">
        <ele>2715.0</ele>
        <time>2021-08-12T05:23:05Z</time>
      </trkpt>
      <trkpt lat="42.6764060" lon="1.3990320">
        <ele>2715.4</ele>
        <time>2021-08-12T05:23:07Z</time>
      </trkpt>
      <trkpt lat="42.6764000" lon="1.3990470">
        <ele>2715.7</ele>
        <time>2021-08-12T05:23:09Z</time>
      </trkpt>
      <trkpt lat="42.6763720" lon="1.3990810">
        <ele>2716.8</ele>
        <time>2021-08-12T05:23:15Z</time>
      </trkpt>
      <trkpt lat="42.6763550" lon="1.3991040">
        <ele>2717.5</ele>
        <time>2021-08-12T05:23:20Z</time>
      </trkpt>
      <trkpt lat="42.6763480" lon="1.3991090">
        <ele>2717.7</ele>
        <time>2021-08-12T05:23:22Z</time>
      </trkpt>
      <trkpt lat="42.6763420" lon="1.3990990">
        <ele>2718.0</ele>
        <time>2021-08-12T05:23:26Z</time>
      </trkpt>
      <trkpt lat="42.6763370" lon="1.3990930">
        <ele>2718.2</ele>
        <time>2021-08-12T05:23:29Z</time>
      </trkpt>
      <trkpt lat="42.6762910" lon="1.3990500">
        <ele>2719.8</ele>
        <time>2021-08-12T05:23:45Z</time>
      </trkpt>
      <trkpt lat="42.6762690" lon="1.3990560">
        <ele>2720.5</ele>
        <time>2021-08-12T05:23:50Z</time>
      </trkpt>
      <trkpt lat="42.6762350" lon="1.3990300">
        <ele>2721.6</ele>
        <time>2021-08-12T05:24:03Z</time>
      </trkpt>
      <trkpt lat="42.6762280" lon="1.3990040">
        <ele>2722.2</ele>
        <time>2021-08-12T05:24:13Z</time>
      </trkpt>
      <trkpt lat="42.6761600" lon="1.3988960">
        <ele>2725.2</ele>
        <time>2021-08-12T05:25:14Z</time>
      </trkpt>
      <trkpt lat="42.6761220" lon="1.3988460">
        <ele>2726.7</ele>
        <time>2021-08-12T05:25:25Z</time>
      </trkpt>
      <trkpt lat="42.6760830" lon="1.3988430">
        <ele>2727.8</ele>
        <time>2021-08-12T05:25:37Z</time>
      </trkpt>
      <trkpt lat="42.6760270" lon="1.3987960">
        <ele>2729.8</ele>
        <time>2021-08-12T05:26:00Z</time>
      </trkpt>
      <trkpt lat="42.6760000" lon="1.3988230">
        <ele>2730.7</ele>
        <time>2021-08-12T05:26:07Z</time>
      </trkpt>
      <trkpt lat="42.6758770" lon="1.3988160">
        <ele>2734.3</ele>
        <time>2021-08-12T05:27:09Z</time>
      </trkpt>
      <trkpt lat="42.6758650" lon="1.3988090">
        <ele>2734.7</ele>
        <time>2021-08-12T05:27:24Z</time>
      </trkpt>
      <trkpt lat="42.6758440" lon="1.3988130">
        <ele>2735.3</ele>
        <time>2021-08-12T05:27:28Z</time>
      </trkpt>
      <trkpt lat="42.6758000" lon="1.3988080">
        <ele>2736.5</ele>
        <time>2021-08-12T05:27:35Z</time>
      </trkpt>
      <trkpt lat="42.6757770" lon="1.3988370">
        <ele>2737.4</ele>
        <time>2021-08-12T05:27:50Z</time>
      </trkpt>
      <trkpt lat="42.6757750" lon="1.3988390">
        <ele>2737.5</ele>
        <time>2021-08-12T05:27:51Z</time>
      </trkpt>
      <trkpt lat="42.6757750" lon="1.3988400">
        <ele>2737.5</ele>
        <time>2021-08-12T05:27:52Z</time>
      </trkpt>
      <trkpt lat="42.6757660" lon="1.3988410">
        <ele>2737.8</ele>
        <time>2021-08-12T05:28:09Z</time>
      </trkpt>
      <trkpt lat="42.6757360" lon="1.3988860">
        <ele>2739.1</ele>
        <time>2021-08-12T05:28:16Z</time>
      </trkpt>
      <trkpt lat="42.6756190" lon="1.3989530">
        <ele>2742.8</ele>
        <time>2021-08-12T05:28:52Z</time>
      </trkpt>
      <trkpt lat="42.6755880" lon="1.3988660">
        <ele>2744.8</ele>
        <time>2021-08-12T05:29:11Z</time>
      </trkpt>
      <trkpt lat="42.6754700" lon="1.3987960">
        <ele>2748.5</ele>
        <time>2021-08-12T05:29:58Z</time>
      </trkpt>
      <trkpt lat="42.6754360" lon="1.3987880">
        <ele>2750.1</ele>
        <time>2021-08-12T05:30:07Z</time>
      </trkpt>
      <trkpt lat="42.6754330" lon="1.3987870">
        <ele>2750.3</ele>
        <time>2021-08-12T05:30:11Z</time>
      </trkpt>
      <trkpt lat="42.6754220" lon="1.3987800">
        <ele>2752.1</ele>
        <time>2021-08-12T05:30:16Z</time>
      </trkpt>
      <trkpt lat="42.6753880" lon="1.3987660">
        <ele>2753.6</ele>
        <time>2021-08-12T05:30:27Z</time>
      </trkpt>
      <trkpt lat="42.6753300" lon="1.3987360">
        <ele>2756.9</ele>
        <time>2021-08-12T05:30:43Z</time>
      </trkpt>
      <trkpt lat="42.6752610" lon="1.3986910">
        <ele>2760.4</ele>
        <time>2021-08-12T05:31:09Z</time>
      </trkpt>
      <trkpt lat="42.6752160" lon="1.3986940">
        <ele>2762.3</ele>
        <time>2021-08-12T05:31:25Z</time>
      </trkpt>
      <trkpt lat="42.6751680" lon="1.3986700">
        <ele>2765.7</ele>
        <time>2021-08-12T05:31:47Z</time>
      </trkpt>
      <trkpt lat="42.6751780" lon="1.3986600">
        <ele>2765.9</ele>
        <time>2021-08-12T05:31:55Z</time>
      </trkpt>
      <trkpt lat="42.6751640" lon="1.3986460">
        <ele>2766.3</ele>
        <time>2021-08-12T05:32:00Z</time>
      </trkpt>
      <trkpt lat="42.6751460" lon="1.3986300">
        <ele>2767.9</ele>
        <time>2021-08-12T05:32:10Z</time>
      </trkpt>
      <trkpt lat="42.6751520" lon="1.3986100">
        <ele>2766.9</ele>
        <time>2021-08-12T05:32:23Z</time>
      </trkpt>
      <trkpt lat="42.6751530" lon="1.3986080">
        <ele>2767.1</ele>
        <time>2021-08-12T05:32:24Z</time>
      </trkpt>
      <trkpt lat="42.6751370" lon="1.3985980">
        <ele>2768.7</ele>
        <time>2021-08-12T05:32:31Z</time>
      </trkpt>
      <trkpt lat="42.6751320" lon="1.3985960">
        <ele>2768.8</ele>
        <time>2021-08-12T05:32:32Z</time>
      </trkpt>
      <trkpt lat="42.6751140" lon="1.3985920">
        <ele>2770.4</ele>
        <time>2021-08-12T05:32:39Z</time>
      </trkpt>
      <trkpt lat="42.6751140" lon="1.3985900">
        <ele>2770.6</ele>
        <time>2021-08-12T05:32:40Z</time>
      </trkpt>
      <trkpt lat="42.6751090" lon="1.3985920">
        <ele>2770.8</ele>
        <time>2021-08-12T05:32:41Z</time>
      </trkpt>
      <trkpt lat="42.6750900" lon="1.3986010">
        <ele>2770.9</ele>
        <time>2021-08-12T05:32:46Z</time>
      </trkpt>
      <trkpt lat="42.6750730" lon="1.3985950">
        <ele>2772.6</ele>
        <time>2021-08-12T05:32:50Z</time>
      </trkpt>
      <trkpt lat="42.6750330" lon="1.3985640">
        <ele>2774.5</ele>
        <time>2021-08-12T05:33:05Z</time>
      </trkpt>
      <trkpt lat="42.6749410" lon="1.3985950">
        <ele>2779.8</ele>
        <time>2021-08-12T05:34:21Z</time>
      </trkpt>
      <trkpt lat="42.6749490" lon="1.3985920">
        <ele>2780.0</ele>
        <time>2021-08-12T05:34:31Z</time>
      </trkpt>
      <trkpt lat="42.6748790" lon="1.3986030">
        <ele>2783.3</ele>
        <time>2021-08-12T05:35:06Z</time>
      </trkpt>
      <trkpt lat="42.6748770" lon="1.3985950">
        <ele>2783.5</ele>
        <time>2021-08-12T05:35:09Z</time>
      </trkpt>
      <trkpt lat="42.6748730" lon="1.3987420">
        <ele>2782.6</ele>
        <time>2021-08-12T05:36:13Z</time>
      </trkpt>
      <trkpt lat="42.6748780" lon="1.3987520">
        <ele>2782.8</ele>
        <time>2021-08-12T05:36:16Z</time>
      </trkpt>
      <trkpt lat="42.6749140" lon="1.3988200">
        <ele>2781.1</ele>
        <time>2021-08-12T05:36:33Z</time>
      </trkpt>
      <trkpt lat="42.6749040" lon="1.3990300">
        <ele>2779.8</ele>
        <time>2021-08-12T05:37:18Z</time>
      </trkpt>
      <trkpt lat="42.6748960" lon="1.3991430">
        <ele>2779.4</ele>
        <time>2021-08-12T05:37:55Z</time>
      </trkpt>
      <trkpt lat="42.6748910" lon="1.3991590">
        <ele>2781.0</ele>
        <time>2021-08-12T05:38:00Z</time>
      </trkpt>
      <trkpt lat="42.6749010" lon="1.3991880">
        <ele>2779.5</ele>
        <time>2021-08-12T05:38:19Z</time>
      </trkpt>
      <trkpt lat="42.6748880" lon="1.3991380">
        <ele>2781.4</ele>
        <time>2021-08-12T05:38:30Z</time>
      </trkpt>
      <trkpt lat="42.6748400" lon="1.3991700">
        <ele>2782.8</ele>
        <time>2021-08-12T05:38:52Z</time>
      </trkpt>
      <trkpt lat="42.6747980" lon="1.3991890">
        <ele>2786.0</ele>
        <time>2021-08-12T05:39:21Z</time>
      </trkpt>
      <trkpt lat="42.6747340" lon="1.3992090">
        <ele>2788.1</ele>
        <time>2021-08-12T05:39:47Z</time>
      </trkpt>
      <trkpt lat="42.6746000" lon="1.3992690">
        <ele>2792.6</ele>
        <time>2021-08-12T05:40:27Z</time>
      </trkpt>
      <trkpt lat="42.6744520" lon="1.3993840">
        <ele>2798.1</ele>
        <time>2021-08-12T05:41:19Z</time>
      </trkpt>
      <trkpt lat="42.6744480" lon="1.3993890">
        <ele>2798.3</ele>
        <time>2021-08-12T05:41:20Z</time>
      </trkpt>
      <trkpt lat="42.6744410" lon="1.3994000">
        <ele>2798.6</ele>
        <time>2021-08-12T05:41:21Z</time>
      </trkpt>
      <trkpt lat="42.6744020" lon="1.3994120">
        <ele>2799.9</ele>
        <time>2021-08-12T05:41:30Z</time>
      </trkpt>
      <trkpt lat="42.6742380" lon="1.3994940">
        <ele>2805.5</ele>
        <time>2021-08-12T05:41:57Z</time>
      </trkpt>
      <trkpt lat="42.6741480" lon="1.3994950">
        <ele>2808.3</ele>
        <time>2021-08-12T05:42:14Z</time>
      </trkpt>
      <trkpt lat="42.6741220" lon="1.3995110">
        <ele>2809.2</ele>
        <time>2021-08-12T05:42:20Z</time>
      </trkpt>
      <trkpt lat="42.6741190" lon="1.3995080">
        <ele>2809.4</ele>
        <time>2021-08-12T05:42:21Z</time>
      </trkpt>
      <trkpt lat="42.6741000" lon="1.3994750">
        <ele>2810.3</ele>
        <time>2021-08-12T05:42:26Z</time>
      </trkpt>
      <trkpt lat="42.6740800" lon="1.3994510">
        <ele>2811.2</ele>
        <time>2021-08-12T05:42:31Z</time>
      </trkpt>
      <trkpt lat="42.6740330" lon="1.3994540">
        <ele>2812.7</ele>
        <time>2021-08-12T05:42:41Z</time>
      </trkpt>
      <trkpt lat="42.6739590" lon="1.3994770">
        <ele>2815.1</ele>
        <time>2021-08-12T05:42:55Z</time>
      </trkpt>
      <trkpt lat="42.6739180" lon="1.3994590">
        <ele>2816.5</ele>
        <time>2021-08-12T05:43:06Z</time>
      </trkpt>
      <trkpt lat="42.6738910" lon="1.3994590">
        <ele>2817.4</ele>
        <time>2021-08-12T05:43:15Z</time>
      </trkpt>
      <trkpt lat="42.6738820" lon="1.3994440">
        <ele>2817.8</ele>
        <time>2021-08-12T05:43:19Z</time>
      </trkpt>
      <trkpt lat="42.6738260" lon="1.3994590">
        <ele>2819.6</ele>
        <time>2021-08-12T05:43:44Z</time>
      </trkpt>
      <trkpt lat="42.6736970" lon="1.3995880">
        <ele>2824.8</ele>
        <time>2021-08-12T05:44:32Z</time>
      </trkpt>
      <trkpt lat="42.6736410" lon="1.3996070">
        <ele>2826.6</ele>
        <time>2021-08-12T05:44:50Z</time>
      </trkpt>
      <trkpt lat="42.6735550" lon="1.3996230">
        <ele>2829.4</ele>
        <time>2021-08-12T05:45:10Z</time>
      </trkpt>
      <trkpt lat="42.6735490" lon="1.3996240">
        <ele>2829.6</ele>
        <time>2021-08-12T05:45:11Z</time>
      </trkpt>
      <trkpt lat="42.6735380" lon="1.3996420">
        <ele>2830.1</ele>
        <time>2021-08-12T05:45:14Z</time>
      </trkpt>
      <trkpt lat="42.6734260" lon="1.3996700">
        <ele>2833.8</ele>
        <time>2021-08-12T05:45:34Z</time>
      </trkpt>
      <trkpt lat="42.6733680" lon="1.3996720">
        <ele>2835.6</ele>
        <time>2021-08-12T05:45:45Z</time>
      </trkpt>
      <trkpt lat="42.6733490" lon="1.3996670">
        <ele>2836.2</ele>
        <time>2021-08-12T05:45:53Z</time>
      </trkpt>
      <trkpt lat="42.6732240" lon="1.3997920">
        <ele>2841.2</ele>
        <time>2021-08-12T05:46:30Z</time>
      </trkpt>
      <trkpt lat="42.6731730" lon="1.3996740">
        <ele>2844.4</ele>
        <time>2021-08-12T05:47:08Z</time>
      </trkpt>
      <trkpt lat="42.6731070" lon="1.3996570">
        <ele>2846.6</ele>
        <time>2021-08-12T05:47:35Z</time>
      </trkpt>
      <trkpt lat="42.6730810" lon="1.3996410">
        <ele>2847.5</ele>
        <time>2021-08-12T05:47:42Z</time>
      </trkpt>
      <trkpt lat="42.6730380" lon="1.3996190">
        <ele>2848.9</ele>
        <time>2021-08-12T05:47:52Z</time>
      </trkpt>
      <trkpt lat="42.6729720" lon="1.3996050">
        <ele>2851.1</ele>
        <time>2021-08-12T05:48:01Z</time>
      </trkpt>
      <trkpt lat="42.6729420" lon="1.3995180">
        <ele>2853.3</ele>
        <time>2021-08-12T05:48:37Z</time>
      </trkpt>
      <trkpt lat="42.6728330" lon="1.3994710">
        <ele>2857.0</ele>
        <time>2021-08-12T05:49:31Z</time>
      </trkpt>
      <trkpt lat="42.6727160" lon="1.3994720">
        <ele>2860.7</ele>
        <time>2021-08-12T05:50:03Z</time>
      </trkpt>
      <trkpt lat="42.6725430" lon="1.3994090">
        <ele>2866.4</ele>
        <time>2021-08-12T05:50:36Z</time>
      </trkpt>
      <trkpt lat="42.6724610" lon="1.3993810">
        <ele>2869.1</ele>
        <time>2021-08-12T05:50:48Z</time>
      </trkpt>
      <trkpt lat="42.6722880" lon="1.3993410">
        <ele>2874.8</ele>
        <time>2021-08-12T05:51:26Z</time>
      </trkpt>
      <trkpt lat="42.6721290" lon="1.3993560">
        <ele>2879.8</ele>
        <time>2021-08-12T05:52:19Z</time>
      </trkpt>
      <trkpt lat="42.6720240" lon="1.3994280">
        <ele>2883.6</ele>
        <time>2021-08-12T05:52:44Z</time>
      </trkpt>
      <trkpt lat="42.6718970" lon="1.3995730">
        <ele>2888.9</ele>
        <time>2021-08-12T05:53:42Z</time>
      </trkpt>
      <trkpt lat="42.6717780" lon="1.3996240">
        <ele>2892.9</ele>
        <time>2021-08-12T05:54:26Z</time>
      </trkpt>
      <trkpt lat="42.6716930" lon="1.3996720">
        <ele>2895.8</ele>
        <time>2021-08-12T05:54:47Z</time>
      </trkpt>
      <trkpt lat="42.6715860" lon="1.3997000">
        <ele>2899.3</ele>
        <time>2021-08-12T05:55:11Z</time>
      </trkpt>
      <trkpt lat="42.6716050" lon="1.3996850">
        <ele>2900.0</ele>
        <time>2021-08-12T05:55:18Z</time>
      </trkpt>
      <trkpt lat="42.6715840" lon="1.3997440">
        <ele>2901.6</ele>
        <time>2021-08-12T05:55:31Z</time>
      </trkpt>
      <trkpt lat="42.6715950" lon="1.3997340">
        <ele>2902.0</ele>
        <time>2021-08-12T05:55:38Z</time>
      </trkpt>
      <trkpt lat="42.6715930" lon="1.3997330">
        <ele>2902.0</ele>
        <time>2021-08-12T05:55:43Z</time>
      </trkpt>
      <trkpt lat="42.6715730" lon="1.3996890">
        <ele>2903.3</ele>
        <time>2021-08-12T05:56:11Z</time>
      </trkpt>
      <trkpt lat="42.6715020" lon="1.3997410">
        <ele>2905.8</ele>
        <time>2021-08-12T05:57:07Z</time>
      </trkpt>
      <trkpt lat="42.6714270" lon="1.3997620">
        <ele>2907.6</ele>
        <time>2021-08-12T05:57:28Z</time>
      </trkpt>
      <trkpt lat="42.6714070" lon="1.3998050">
        <ele>2908.1</ele>
        <time>2021-08-12T05:57:36Z</time>
      </trkpt>
      <trkpt lat="42.6713920" lon="1.3997850">
        <ele>2908.4</ele>
        <time>2021-08-12T05:57:57Z</time>
      </trkpt>
      <trkpt lat="42.6713690" lon="1.3997790">
        <ele>2908.7</ele>
        <time>2021-08-12T05:58:24Z</time>
      </trkpt>
      <trkpt lat="42.6713050" lon="1.3998960">
        <ele>2909.9</ele>
        <time>2021-08-12T05:59:03Z</time>
      </trkpt>
      <trkpt lat="42.6712720" lon="1.3999820">
        <ele>2910.5</ele>
        <time>2021-08-12T05:59:25Z</time>
      </trkpt>
      <trkpt lat="42.6711870" lon="1.3999830">
        <ele>2911.1</ele>
        <time>2021-08-12T05:59:58Z</time>
      </trkpt>
      <trkpt lat="42.6711440" lon="1.3999330">
        <ele>2912.1</ele>
        <time>2021-08-12T06:00:20Z</time>
      </trkpt>
      <trkpt lat="42.6711410" lon="1.3999280">
        <ele>2912.2</ele>
        <time>2021-08-12T06:00:33Z</time>
      </trkpt>
      <trkpt lat="42.6711420" lon="1.3999280">
        <ele>2912.3</ele>
        <time>2021-08-12T06:00:57Z</time>
      </trkpt>
      <trkpt lat="42.6711390" lon="1.3999320">
        <ele>2912.4</ele>
        <time>2021-08-12T06:01:03Z</time>
      </trkpt>
      <trkpt lat="42.6711380" lon="1.3999320">
        <ele>2912.4</ele>
        <time>2021-08-12T06:01:04Z</time>
      </trkpt>
      <trkpt lat="42.6711410" lon="1.3999370">
        <ele>2912.6</ele>
        <time>2021-08-12T06:01:09Z</time>
      </trkpt>
      <trkpt lat="42.6711480" lon="1.3999300">
        <ele>2912.9</ele>
        <time>2021-08-12T06:01:16Z</time>
      </trkpt>
      <trkpt lat="42.6711360" lon="1.3999370">
        <ele>2913.3</ele>
        <time>2021-08-12T06:01:50Z</time>
      </trkpt>
      <trkpt lat="42.6711700" lon="1.3999270">
        <ele>2914.5</ele>
        <time>2021-08-12T06:02:02Z</time>
      </trkpt>
      <trkpt lat="42.6711830" lon="1.3999240">
        <ele>2914.9</ele>
        <time>2021-08-12T06:02:10Z</time>
      </trkpt>
      <trkpt lat="42.6711780" lon="1.3999260">
        <ele>2915.1</ele>
        <time>2021-08-12T06:02:14Z</time>
      </trkpt>
      <trkpt lat="42.6711750" lon="1.3999350">
        <ele>2915.3</ele>
        <time>2021-08-12T06:02:25Z</time>
      </trkpt>
      <trkpt lat="42.6711750" lon="1.3999350">
        <ele>2915.3</ele>
        <time>2021-08-12T06:17:01Z</time>
      </trkpt>
      <trkpt lat="42.6711750" lon="1.3999350">
        <ele>2915.3</ele>
        <time>2021-08-12T06:17:03Z</time>
      </trkpt>
      <trkpt lat="42.6711750" lon="1.3999350">
        <ele>2915.3</ele>
        <time>2021-08-12T06:17:04Z</time>
      </trkpt>
      <trkpt lat="42.6711750" lon="1.3999350">
        <ele>2915.3</ele>
        <time>2021-08-12T06:17:08Z</time>
      </trkpt>
      <trkpt lat="42.6711750" lon="1.3999350">
        <ele>2915.3</ele>
        <time>2021-08-12T06:17:10Z</time>
      </trkpt>
      <trkpt lat="42.6707500" lon="1.4011800">
        <ele>2948.8</ele>
        <time>2021-08-12T06:17:19Z</time>
      </trkpt>
      <trkpt lat="42.6708390" lon="1.4013960">
        <ele>2954.8</ele>
        <time>2021-08-12T06:17:33Z</time>
      </trkpt>
      <trkpt lat="42.6708500" lon="1.4014860">
        <ele>2957.0</ele>
        <time>2021-08-12T06:17:39Z</time>
      </trkpt>
      <trkpt lat="42.6708480" lon="1.4015320">
        <ele>2958.1</ele>
        <time>2021-08-12T06:17:43Z</time>
      </trkpt>
      <trkpt lat="42.6708490" lon="1.4015450">
        <ele>2958.5</ele>
        <time>2021-08-12T06:17:44Z</time>
      </trkpt>
      <trkpt lat="42.6708490" lon="1.4015690">
        <ele>2959.0</ele>
        <time>2021-08-12T06:17:46Z</time>
      </trkpt>
      <trkpt lat="42.6708340" lon="1.4016260">
        <ele>2960.5</ele>
        <time>2021-08-12T06:18:20Z</time>
      </trkpt>
      <trkpt lat="42.6708560" lon="1.4016460">
        <ele>2961.4</ele>
        <time>2021-08-12T06:18:27Z</time>
      </trkpt>
      <trkpt lat="42.6708600" lon="1.4016380">
        <ele>2961.6</ele>
        <time>2021-08-12T06:18:28Z</time>
      </trkpt>
      <trkpt lat="42.6708570" lon="1.4015880">
        <ele>2962.9</ele>
        <time>2021-08-12T06:18:31Z</time>
      </trkpt>
      <trkpt lat="42.6708550" lon="1.4015760">
        <ele>2963.2</ele>
        <time>2021-08-12T06:18:32Z</time>
      </trkpt>
      <trkpt lat="42.6708570" lon="1.4015640">
        <ele>2963.5</ele>
        <time>2021-08-12T06:18:35Z</time>
      </trkpt>
      <trkpt lat="42.6708630" lon="1.4015770">
        <ele>2963.8</ele>
        <time>2021-08-12T06:18:36Z</time>
      </trkpt>
      <trkpt lat="42.6708910" lon="1.4016360">
        <ele>2965.5</ele>
        <time>2021-08-12T06:18:42Z</time>
      </trkpt>
      <trkpt lat="42.6708970" lon="1.4017120">
        <ele>2967.4</ele>
        <time>2021-08-12T06:18:49Z</time>
      </trkpt>
      <trkpt lat="42.6708980" lon="1.4017320">
        <ele>2967.9</ele>
        <time>2021-08-12T06:18:51Z</time>
      </trkpt>
      <trkpt lat="42.6708920" lon="1.4017400">
        <ele>2968.2</ele>
        <time>2021-08-12T06:18:52Z</time>
      </trkpt>
      <trkpt lat="42.6708920" lon="1.4017490">
        <ele>2968.4</ele>
        <time>2021-08-12T06:18:53Z</time>
      </trkpt>
      <trkpt lat="42.6708920" lon="1.4017570">
        <ele>2968.6</ele>
        <time>2021-08-12T06:18:54Z</time>
      </trkpt>
      <trkpt lat="42.6708700" lon="1.4018010">
        <ele>2969.9</ele>
        <time>2021-08-12T06:19:00Z</time>
      </trkpt>
      <trkpt lat="42.6708380" lon="1.4018470">
        <ele>2971.4</ele>
        <time>2021-08-12T06:19:06Z</time>
      </trkpt>
      <trkpt lat="42.6708190" lon="1.4018740">
        <ele>2972.3</ele>
        <time>2021-08-12T06:19:10Z</time>
      </trkpt>
      <trkpt lat="42.6708160" lon="1.4019330">
        <ele>2973.8</ele>
        <time>2021-08-12T06:19:19Z</time>
      </trkpt>
      <trkpt lat="42.6708090" lon="1.4019720">
        <ele>2974.8</ele>
        <time>2021-08-12T06:19:24Z</time>
      </trkpt>
      <trkpt lat="42.6708060" lon="1.4019820">
        <ele>2975.0</ele>
        <time>2021-08-12T06:19:25Z</time>
      </trkpt>
      <trkpt lat="42.6707890" lon="1.4020400">
        <ele>2976.5</ele>
        <time>2021-08-12T06:19:35Z</time>
      </trkpt>
      <trkpt lat="42.6708210" lon="1.4021670">
        <ele>2978.8</ele>
        <time>2021-08-12T06:20:03Z</time>
      </trkpt>
      <trkpt lat="42.6707990" lon="1.4022450">
        <ele>2978.9</ele>
        <time>2021-08-12T06:20:20Z</time>
      </trkpt>
      <trkpt lat="42.6707920" lon="1.4022500">
        <ele>2979.0</ele>
        <time>2021-08-12T06:20:23Z</time>
      </trkpt>
      <trkpt lat="42.6707920" lon="1.4022490">
        <ele>2979.0</ele>
        <time>2021-08-12T06:20:25Z</time>
      </trkpt>
      <trkpt lat="42.6707940" lon="1.4022430">
        <ele>2979.0</ele>
        <time>2021-08-12T06:20:29Z</time>
      </trkpt>
      <trkpt lat="42.6708050" lon="1.4022300">
        <ele>2979.1</ele>
        <time>2021-08-12T06:20:34Z</time>
      </trkpt>
      <trkpt lat="42.6708120" lon="1.4022190">
        <ele>2979.1</ele>
        <time>2021-08-12T06:20:51Z</time>
      </trkpt>
      <trkpt lat="42.6707940" lon="1.4022090">
        <ele>2979.3</ele>
        <time>2021-08-12T06:20:59Z</time>
      </trkpt>
      <trkpt lat="42.6708000" lon="1.4021970">
        <ele>2979.4</ele>
        <time>2021-08-12T06:21:08Z</time>
      </trkpt>
      <trkpt lat="42.6707990" lon="1.4021890">
        <ele>2979.4</ele>
        <time>2021-08-12T06:21:18Z</time>
      </trkpt>
      <trkpt lat="42.6707980" lon="1.4021880">
        <ele>2979.4</ele>
        <time>2021-08-12T06:21:21Z</time>
      </trkpt>
      <trkpt lat="42.6707950" lon="1.4021870">
        <ele>2979.4</ele>
        <time>2021-08-12T06:21:27Z</time>
      </trkpt>
      <trkpt lat="42.6707950" lon="1.4021860">
        <ele>2979.5</ele>
        <time>2021-08-12T06:21:29Z</time>
      </trkpt>
      <trkpt lat="42.6707960" lon="1.4021860">
        <ele>2979.5</ele>
        <time>2021-08-12T06:21:31Z</time>
      </trkpt>
      <trkpt lat="42.6707970" lon="1.4021890">
        <ele>2979.5</ele>
        <time>2021-08-12T06:21:34Z</time>
      </trkpt>
      <trkpt lat="42.6707940" lon="1.4021830">
        <ele>2979.5</ele>
        <time>2021-08-12T06:21:38Z</time>
      </trkpt>
      <trkpt lat="42.6707930" lon="1.4021820">
        <ele>2979.6</ele>
        <time>2021-08-12T06:21:39Z</time>
      </trkpt>
      <trkpt lat="42.6707910" lon="1.4021810">
        <ele>2979.6</ele>
        <time>2021-08-12T06:21:40Z</time>
      </trkpt>
      <trkpt lat="42.6707570" lon="1.4021530">
        <ele>2980.0</ele>
        <time>2021-08-12T06:21:49Z</time>
      </trkpt>
      <trkpt lat="42.6705730" lon="1.4021840">
        <ele>2981.7</ele>
        <time>2021-08-12T06:22:12Z</time>
      </trkpt>
      <trkpt lat="42.6703980" lon="1.4021800">
        <ele>2984.7</ele>
        <time>2021-08-12T06:22:40Z</time>
      </trkpt>
      <trkpt lat="42.6702230" lon="1.4021270">
        <ele>2989.8</ele>
        <time>2021-08-12T06:23:12Z</time>
      </trkpt>
      <trkpt lat="42.6700570" lon="1.4020500">
        <ele>2995.3</ele>
        <time>2021-08-12T06:23:41Z</time>
      </trkpt>
      <trkpt lat="42.6699390" lon="1.4019770">
        <ele>2999.5</ele>
        <time>2021-08-12T06:24:05Z</time>
      </trkpt>
      <trkpt lat="42.6697760" lon="1.4018750">
        <ele>3004.7</ele>
        <time>2021-08-12T06:24:39Z</time>
      </trkpt>
      <trkpt lat="42.6697290" lon="1.4018450">
        <ele>3005.6</ele>
        <time>2021-08-12T06:24:51Z</time>
      </trkpt>
      <trkpt lat="42.6697120" lon="1.4019290">
        <ele>3006.4</ele>
        <time>2021-08-12T06:25:38Z</time>
      </trkpt>
      <trkpt lat="42.6695750" lon="1.4017900">
        <ele>3008.5</ele>
        <time>2021-08-12T06:26:26Z</time>
      </trkpt>
      <trkpt lat="42.6694570" lon="1.4016100">
        <ele>3012.3</ele>
        <time>2021-08-12T06:27:04Z</time>
      </trkpt>
      <trkpt lat="42.6694290" lon="1.4015750">
        <ele>3013.2</ele>
        <time>2021-08-12T06:27:19Z</time>
      </trkpt>
      <trkpt lat="42.6694050" lon="1.4015450">
        <ele>3014.0</ele>
        <time>2021-08-12T06:27:32Z</time>
      </trkpt>
      <trkpt lat="42.6693140" lon="1.4013450">
        <ele>3016.8</ele>
        <time>2021-08-12T06:28:20Z</time>
      </trkpt>
      <trkpt lat="42.6692310" lon="1.4011730">
        <ele>3019.4</ele>
        <time>2021-08-12T06:28:49Z</time>
      </trkpt>
      <trkpt lat="42.6691110" lon="1.4010060">
        <ele>3022.4</ele>
        <time>2021-08-12T06:29:17Z</time>
      </trkpt>
      <trkpt lat="42.6690150" lon="1.4008130">
        <ele>3025.6</ele>
        <time>2021-08-12T06:29:42Z</time>
      </trkpt>
      <trkpt lat="42.6689510" lon="1.4006070">
        <ele>3028.5</ele>
        <time>2021-08-12T06:30:04Z</time>
      </trkpt>
      <trkpt lat="42.6688500" lon="1.4004450">
        <ele>3029.7</ele>
        <time>2021-08-12T06:30:30Z</time>
      </trkpt>
      <trkpt lat="42.6687740" lon="1.4004310">
        <ele>3030.1</ele>
        <time>2021-08-12T06:30:38Z</time>
      </trkpt>
      <trkpt lat="42.6686140" lon="1.4003060">
        <ele>3031.4</ele>
        <time>2021-08-12T06:30:57Z</time>
      </trkpt>
      <trkpt lat="42.6684640" lon="1.4001510">
        <ele>3032.8</ele>
        <time>2021-08-12T06:31:16Z</time>
      </trkpt>
      <trkpt lat="42.6683960" lon="1.4000200">
        <ele>3033.4</ele>
        <time>2021-08-12T06:31:28Z</time>
      </trkpt>
      <trkpt lat="42.6684270" lon="1.3998360">
        <ele>3034.9</ele>
        <time>2021-08-12T06:31:42Z</time>
      </trkpt>
      <trkpt lat="42.6684230" lon="1.3995950">
        <ele>3038.3</ele>
        <time>2021-08-12T06:32:06Z</time>
      </trkpt>
      <trkpt lat="42.6684390" lon="1.3994980">
        <ele>3040.0</ele>
        <time>2021-08-12T06:32:16Z</time>
      </trkpt>
      <trkpt lat="42.6684380" lon="1.3994220">
        <ele>3041.1</ele>
        <time>2021-08-12T06:32:24Z</time>
      </trkpt>
      <trkpt lat="42.6684480" lon="1.3993790">
        <ele>3041.7</ele>
        <time>2021-08-12T06:32:28Z</time>
      </trkpt>
      <trkpt lat="42.6684700" lon="1.3993310">
        <ele>3042.5</ele>
        <time>2021-08-12T06:32:34Z</time>
      </trkpt>
      <trkpt lat="42.6684520" lon="1.3992560">
        <ele>3043.7</ele>
        <time>2021-08-12T06:32:40Z</time>
      </trkpt>
      <trkpt lat="42.6684840" lon="1.3991700">
        <ele>3045.1</ele>
        <time>2021-08-12T06:32:51Z</time>
      </trkpt>
      <trkpt lat="42.6684900" lon="1.3991330">
        <ele>3046.0</ele>
        <time>2021-08-12T06:32:55Z</time>
      </trkpt>
      <trkpt lat="42.6684950" lon="1.3990100">
        <ele>3047.7</ele>
        <time>2021-08-12T06:33:21Z</time>
      </trkpt>
      <trkpt lat="42.6684870" lon="1.3990090">
        <ele>3047.8</ele>
        <time>2021-08-12T06:33:23Z</time>
      </trkpt>
      <trkpt lat="42.6684750" lon="1.3990100">
        <ele>3048.1</ele>
        <time>2021-08-12T06:33:25Z</time>
      </trkpt>
      <trkpt lat="42.6684020" lon="1.3989680">
        <ele>3050.0</ele>
        <time>2021-08-12T06:33:45Z</time>
      </trkpt>
      <trkpt lat="42.6683750" lon="1.3989410">
        <ele>3050.8</ele>
        <time>2021-08-12T06:33:55Z</time>
      </trkpt>
      <trkpt lat="42.6683610" lon="1.3989260">
        <ele>3051.2</ele>
        <time>2021-08-12T06:34:01Z</time>
      </trkpt>
      <trkpt lat="42.6683110" lon="1.3989190">
        <ele>3052.3</ele>
        <time>2021-08-12T06:34:12Z</time>
      </trkpt>
      <trkpt lat="42.6683000" lon="1.3989090">
        <ele>3052.5</ele>
        <time>2021-08-12T06:34:15Z</time>
      </trkpt>
      <trkpt lat="42.6682980" lon="1.3989020">
        <ele>3052.6</ele>
        <time>2021-08-12T06:34:16Z</time>
      </trkpt>
      <trkpt lat="42.6682980" lon="1.3988940">
        <ele>3052.7</ele>
        <time>2021-08-12T06:34:17Z</time>
      </trkpt>
      <trkpt lat="42.6682950" lon="1.3988870">
        <ele>3052.8</ele>
        <time>2021-08-12T06:34:18Z</time>
      </trkpt>
      <trkpt lat="42.6682920" lon="1.3988810">
        <ele>3052.9</ele>
        <time>2021-08-12T06:34:19Z</time>
      </trkpt>
      <trkpt lat="42.6682880" lon="1.3988730">
        <ele>3053.0</ele>
        <time>2021-08-12T06:34:20Z</time>
      </trkpt>
      <trkpt lat="42.6682850" lon="1.3988670">
        <ele>3053.1</ele>
        <time>2021-08-12T06:34:21Z</time>
      </trkpt>
      <trkpt lat="42.6682810" lon="1.3988610">
        <ele>3053.2</ele>
        <time>2021-08-12T06:34:22Z</time>
      </trkpt>
      <trkpt lat="42.6682460" lon="1.3987960">
        <ele>3053.8</ele>
        <time>2021-08-12T06:34:32Z</time>
      </trkpt>
      <trkpt lat="42.6682430" lon="1.3987860">
        <ele>3053.8</ele>
        <time>2021-08-12T06:34:33Z</time>
      </trkpt>
      <trkpt lat="42.6681900" lon="1.3985550">
        <ele>3055.1</ele>
        <time>2021-08-12T06:34:59Z</time>
      </trkpt>
      <trkpt lat="42.6681630" lon="1.3983880">
        <ele>3056.7</ele>
        <time>2021-08-12T06:35:29Z</time>
      </trkpt>
      <trkpt lat="42.6681420" lon="1.3982910">
        <ele>3058.1</ele>
        <time>2021-08-12T06:35:45Z</time>
      </trkpt>
      <trkpt lat="42.6680990" lon="1.3981330">
        <ele>3061.6</ele>
        <time>2021-08-12T06:36:27Z</time>
      </trkpt>
      <trkpt lat="42.6680470" lon="1.3979870">
        <ele>3065.1</ele>
        <time>2021-08-12T06:36:57Z</time>
      </trkpt>
      <trkpt lat="42.6680460" lon="1.3979680">
        <ele>3065.5</ele>
        <time>2021-08-12T06:37:00Z</time>
      </trkpt>
      <trkpt lat="42.6680470" lon="1.3979090">
        <ele>3066.7</ele>
        <time>2021-08-12T06:37:08Z</time>
      </trkpt>
      <trkpt lat="42.6680090" lon="1.3978830">
        <ele>3068.0</ele>
        <time>2021-08-12T06:37:20Z</time>
      </trkpt>
      <trkpt lat="42.6680240" lon="1.3978390">
        <ele>3069.1</ele>
        <time>2021-08-12T06:37:28Z</time>
      </trkpt>
      <trkpt lat="42.6680370" lon="1.3978350">
        <ele>3069.6</ele>
        <time>2021-08-12T06:37:31Z</time>
      </trkpt>
      <trkpt lat="42.6679700" lon="1.3977660">
        <ele>3072.5</ele>
        <time>2021-08-12T06:38:05Z</time>
      </trkpt>
      <trkpt lat="42.6679220" lon="1.3976410">
        <ele>3076.5</ele>
        <time>2021-08-12T06:38:48Z</time>
      </trkpt>
      <trkpt lat="42.6678280" lon="1.3975220">
        <ele>3081.0</ele>
        <time>2021-08-12T06:39:27Z</time>
      </trkpt>
      <trkpt lat="42.6676970" lon="1.3974920">
        <ele>3084.8</ele>
        <time>2021-08-12T06:40:19Z</time>
      </trkpt>
      <trkpt lat="42.6677200" lon="1.3974920">
        <ele>3084.5</ele>
        <time>2021-08-12T06:40:51Z</time>
      </trkpt>
      <trkpt lat="42.6677250" lon="1.3974860">
        <ele>3084.3</ele>
        <time>2021-08-12T06:40:53Z</time>
      </trkpt>
      <trkpt lat="42.6677370" lon="1.3974900">
        <ele>3084.1</ele>
        <time>2021-08-12T06:40:54Z</time>
      </trkpt>
      <trkpt lat="42.6677390" lon="1.3974930">
        <ele>3084.0</ele>
        <time>2021-08-12T06:40:55Z</time>
      </trkpt>
      <trkpt lat="42.6677340" lon="1.3975010">
        <ele>3083.8</ele>
        <time>2021-08-12T06:40:56Z</time>
      </trkpt>
      <trkpt lat="42.6677190" lon="1.3975100">
        <ele>3083.5</ele>
        <time>2021-08-12T06:40:57Z</time>
      </trkpt>
      <trkpt lat="42.6677150" lon="1.3975220">
        <ele>3083.3</ele>
        <time>2021-08-12T06:40:58Z</time>
      </trkpt>
      <trkpt lat="42.6676760" lon="1.3975980">
        <ele>3081.9</ele>
        <time>2021-08-12T06:41:12Z</time>
      </trkpt>
      <trkpt lat="42.6676660" lon="1.3976140">
        <ele>3081.6</ele>
        <time>2021-08-12T06:41:15Z</time>
      </trkpt>
      <trkpt lat="42.6676500" lon="1.3976350">
        <ele>3081.2</ele>
        <time>2021-08-12T06:41:19Z</time>
      </trkpt>
      <trkpt lat="42.6676290" lon="1.3976520">
        <ele>3080.8</ele>
        <time>2021-08-12T06:41:23Z</time>
      </trkpt>
      <trkpt lat="42.6676210" lon="1.3976600">
        <ele>3080.6</ele>
        <time>2021-08-12T06:41:25Z</time>
      </trkpt>
      <trkpt lat="42.6676180" lon="1.3976640">
        <ele>3080.5</ele>
        <time>2021-08-12T06:41:26Z</time>
      </trkpt>
      <trkpt lat="42.6676000" lon="1.3976900">
        <ele>3080.1</ele>
        <time>2021-08-12T06:41:33Z</time>
      </trkpt>
      <trkpt lat="42.6676040" lon="1.3976850">
        <ele>3080.0</ele>
        <time>2021-08-12T06:41:45Z</time>
      </trkpt>
      <trkpt lat="42.6675460" lon="1.3976080">
        <ele>3078.8</ele>
        <time>2021-08-12T06:42:19Z</time>
      </trkpt>
      <trkpt lat="42.6675380" lon="1.3976190">
        <ele>3078.6</ele>
        <time>2021-08-12T06:42:21Z</time>
      </trkpt>
      <trkpt lat="42.6675250" lon="1.3976370">
        <ele>3078.3</ele>
        <time>2021-08-12T06:42:24Z</time>
      </trkpt>
      <trkpt lat="42.6675090" lon="1.3976470">
        <ele>3078.1</ele>
        <time>2021-08-12T06:42:30Z</time>
      </trkpt>
      <trkpt lat="42.6674650" lon="1.3976530">
        <ele>3077.5</ele>
        <time>2021-08-12T06:43:02Z</time>
      </trkpt>
      <trkpt lat="42.6674010" lon="1.3976870">
        <ele>3076.6</ele>
        <time>2021-08-12T06:44:00Z</time>
      </trkpt>
      <trkpt lat="42.6673830" lon="1.3977200">
        <ele>3076.2</ele>
        <time>2021-08-12T06:44:09Z</time>
      </trkpt>
      <trkpt lat="42.6673460" lon="1.3977460">
        <ele>3075.7</ele>
        <time>2021-08-12T06:44:19Z</time>
      </trkpt>
      <trkpt lat="42.6673360" lon="1.3977310">
        <ele>3075.5</ele>
        <time>2021-08-12T06:44:26Z</time>
      </trkpt>
      <trkpt lat="42.6673350" lon="1.3977290">
        <ele>3075.5</ele>
        <time>2021-08-12T06:44:27Z</time>
      </trkpt>
      <trkpt lat="42.6673100" lon="1.3977070">
        <ele>3075.2</ele>
        <time>2021-08-12T06:44:41Z</time>
      </trkpt>
      <trkpt lat="42.6673030" lon="1.3977060">
        <ele>3075.1</ele>
        <time>2021-08-12T06:44:48Z</time>
      </trkpt>
      <trkpt lat="42.6673020" lon="1.3977020">
        <ele>3075.0</ele>
        <time>2021-08-12T06:44:50Z</time>
      </trkpt>
      <trkpt lat="42.6673030" lon="1.3977030">
        <ele>3075.0</ele>
        <time>2021-08-12T06:44:51Z</time>
      </trkpt>
      <trkpt lat="42.6672970" lon="1.3976880">
        <ele>3074.9</ele>
        <time>2021-08-12T06:44:57Z</time>
      </trkpt>
      <trkpt lat="42.6672890" lon="1.3976780">
        <ele>3074.8</ele>
        <time>2021-08-12T06:44:59Z</time>
      </trkpt>
      <trkpt lat="42.6672350" lon="1.3977390">
        <ele>3074.0</ele>
        <time>2021-08-12T06:45:25Z</time>
      </trkpt>
      <trkpt lat="42.6671510" lon="1.3977870">
        <ele>3073.0</ele>
        <time>2021-08-12T06:45:42Z</time>
      </trkpt>
      <trkpt lat="42.6670810" lon="1.3978550">
        <ele>3072.0</ele>
        <time>2021-08-12T06:46:06Z</time>
      </trkpt>
      <trkpt lat="42.6669950" lon="1.3979030">
        <ele>3070.5</ele>
        <time>2021-08-12T06:47:31Z</time>
      </trkpt>
      <trkpt lat="42.6670090" lon="1.3979130">
        <ele>3070.3</ele>
        <time>2021-08-12T06:47:43Z</time>
      </trkpt>
      <trkpt lat="42.6670130" lon="1.3979180">
        <ele>3070.2</ele>
        <time>2021-08-12T06:47:56Z</time>
      </trkpt>
      <trkpt lat="42.6670070" lon="1.3979140">
        <ele>3070.0</ele>
        <time>2021-08-12T06:48:13Z</time>
      </trkpt>
      <trkpt lat="42.6670070" lon="1.3979080">
        <ele>3069.9</ele>
        <time>2021-08-12T06:48:31Z</time>
      </trkpt>
      <trkpt lat="42.6670080" lon="1.3979040">
        <ele>3069.9</ele>
        <time>2021-08-12T06:48:35Z</time>
      </trkpt>
      <trkpt lat="42.6670250" lon="1.3978950">
        <ele>3069.5</ele>
        <time>2021-08-12T06:48:42Z</time>
      </trkpt>
      <trkpt lat="42.6670210" lon="1.3979100">
        <ele>3069.3</ele>
        <time>2021-08-12T06:49:03Z</time>
      </trkpt>
      <trkpt lat="42.6669970" lon="1.3978840">
        <ele>3068.6</ele>
        <time>2021-08-12T06:49:17Z</time>
      </trkpt>
      <trkpt lat="42.6670000" lon="1.3978850">
        <ele>3068.6</ele>
        <time>2021-08-12T06:49:24Z</time>
      </trkpt>
      <trkpt lat="42.6670000" lon="1.3978830">
        <ele>3068.5</ele>
        <time>2021-08-12T06:49:26Z</time>
      </trkpt>
      <trkpt lat="42.6670010" lon="1.3978860">
        <ele>3068.5</ele>
        <time>2021-08-12T06:49:30Z</time>
      </trkpt>
      <trkpt lat="42.6669960" lon="1.3978900">
        <ele>3068.3</ele>
        <time>2021-08-12T06:49:34Z</time>
      </trkpt>
      <trkpt lat="42.6669940" lon="1.3978910">
        <ele>3068.3</ele>
        <time>2021-08-12T06:49:35Z</time>
      </trkpt>
      <trkpt lat="42.6669940" lon="1.3978910">
        <ele>3068.3</ele>
        <time>2021-08-12T06:49:37Z</time>
      </trkpt>
      <trkpt lat="42.6669940" lon="1.3978910">
        <ele>3068.3</ele>
        <time>2021-08-12T06:49:38Z</time>
      </trkpt>
      <trkpt lat="42.6670240" lon="1.3978950">
        <ele>3067.5</ele>
        <time>2021-08-12T06:49:57Z</time>
      </trkpt>
      <trkpt lat="42.6670240" lon="1.3978980">
        <ele>3067.5</ele>
        <time>2021-08-12T06:50:06Z</time>
      </trkpt>
      <trkpt lat="42.6670250" lon="1.3978980">
        <ele>3067.5</ele>
        <time>2021-08-12T06:50:10Z</time>
      </trkpt>
      <trkpt lat="42.6670250" lon="1.3978990">
        <ele>3067.4</ele>
        <time>2021-08-12T06:50:11Z</time>
      </trkpt>
      <trkpt lat="42.6670270" lon="1.3978990">
        <ele>3067.4</ele>
        <time>2021-08-12T06:50:12Z</time>
      </trkpt>
      <trkpt lat="42.6670270" lon="1.3979010">
        <ele>3067.4</ele>
        <time>2021-08-12T06:50:16Z</time>
      </trkpt>
      <trkpt lat="42.6670260" lon="1.3979040">
        <ele>3067.3</ele>
        <time>2021-08-12T06:50:25Z</time>
      </trkpt>
      <trkpt lat="42.6670240" lon="1.3979020">
        <ele>3067.2</ele>
        <time>2021-08-12T06:50:41Z</time>
      </trkpt>
      <trkpt lat="42.6670320" lon="1.3978870">
        <ele>3066.9</ele>
        <time>2021-08-12T06:51:15Z</time>
      </trkpt>
      <trkpt lat="42.6670320" lon="1.3978860">
        <ele>3066.9</ele>
        <time>2021-08-12T06:51:19Z</time>
      </trkpt>
      <trkpt lat="42.6670310" lon="1.3978850">
        <ele>3066.9</ele>
        <time>2021-08-12T06:51:42Z</time>
      </trkpt>
      <trkpt lat="42.6670270" lon="1.3978690">
        <ele>3066.5</ele>
        <time>2021-08-12T06:52:03Z</time>
      </trkpt>
      <trkpt lat="42.6670240" lon="1.3978840">
        <ele>3066.2</ele>
        <time>2021-08-12T06:52:15Z</time>
      </trkpt>
      <trkpt lat="42.6670240" lon="1.3978810">
        <ele>3066.2</ele>
        <time>2021-08-12T06:52:20Z</time>
      </trkpt>
      <trkpt lat="42.6670460" lon="1.3978760">
        <ele>3065.6</ele>
        <time>2021-08-12T06:52:25Z</time>
      </trkpt>
      <trkpt lat="42.6670500" lon="1.3978750">
        <ele>3065.4</ele>
        <time>2021-08-12T06:52:27Z</time>
      </trkpt>
      <trkpt lat="42.6670540" lon="1.3978740">
        <ele>3065.3</ele>
        <time>2021-08-12T06:52:37Z</time>
      </trkpt>
      <trkpt lat="42.6670540" lon="1.3978750">
        <ele>3065.3</ele>
        <time>2021-08-12T06:52:38Z</time>
      </trkpt>
      <trkpt lat="42.6670550" lon="1.3978750">
        <ele>3065.3</ele>
        <time>2021-08-12T06:52:40Z</time>
      </trkpt>
      <trkpt lat="42.6670530" lon="1.3978650">
        <ele>3065.1</ele>
        <time>2021-08-12T06:52:51Z</time>
      </trkpt>
      <trkpt lat="42.6670490" lon="1.3978640">
        <ele>3065.0</ele>
        <time>2021-08-12T06:53:19Z</time>
      </trkpt>
      <trkpt lat="42.6670570" lon="1.3978490">
        <ele>3064.6</ele>
        <time>2021-08-12T06:53:32Z</time>
      </trkpt>
      <trkpt lat="42.6670680" lon="1.3978350">
        <ele>3064.2</ele>
        <time>2021-08-12T06:53:40Z</time>
      </trkpt>
      <trkpt lat="42.6670880" lon="1.3977930">
        <ele>3065.8</ele>
        <time>2021-08-12T06:53:51Z</time>
      </trkpt>
      <trkpt lat="42.6670900" lon="1.3977840">
        <ele>3066.0</ele>
        <time>2021-08-12T06:53:56Z</time>
      </trkpt>
      <trkpt lat="42.6670940" lon="1.3977790">
        <ele>3066.2</ele>
        <time>2021-08-12T06:53:57Z</time>
      </trkpt>
      <trkpt lat="42.6670670" lon="1.3978600">
        <ele>3068.1</ele>
        <time>2021-08-12T06:54:12Z</time>
      </trkpt>
      <trkpt lat="42.6670810" lon="1.3978610">
        <ele>3068.6</ele>
        <time>2021-08-12T06:54:24Z</time>
      </trkpt>
      <trkpt lat="42.6670950" lon="1.3978530">
        <ele>3068.9</ele>
        <time>2021-08-12T06:54:29Z</time>
      </trkpt>
      <trkpt lat="42.6670970" lon="1.3978470">
        <ele>3069.0</ele>
        <time>2021-08-12T06:54:31Z</time>
      </trkpt>
      <trkpt lat="42.6670970" lon="1.3978430">
        <ele>3069.1</ele>
        <time>2021-08-12T06:54:34Z</time>
      </trkpt>
      <trkpt lat="42.6670990" lon="1.3978390">
        <ele>3069.2</ele>
        <time>2021-08-12T06:54:35Z</time>
      </trkpt>
      <trkpt lat="42.6670990" lon="1.3978360">
        <ele>3069.3</ele>
        <time>2021-08-12T06:54:36Z</time>
      </trkpt>
      <trkpt lat="42.6671050" lon="1.3978340">
        <ele>3069.4</ele>
        <time>2021-08-12T06:54:39Z</time>
      </trkpt>
      <trkpt lat="42.6671060" lon="1.3978360">
        <ele>3069.5</ele>
        <time>2021-08-12T06:54:40Z</time>
      </trkpt>
      <trkpt lat="42.6671110" lon="1.3978360">
        <ele>3069.6</ele>
        <time>2021-08-12T06:54:44Z</time>
      </trkpt>
      <trkpt lat="42.6671100" lon="1.3978380">
        <ele>3069.6</ele>
        <time>2021-08-12T06:54:47Z</time>
      </trkpt>
      <trkpt lat="42.6671100" lon="1.3978390">
        <ele>3069.6</ele>
        <time>2021-08-12T06:54:50Z</time>
      </trkpt>
      <trkpt lat="42.6671100" lon="1.3978390">
        <ele>3069.6</ele>
        <time>2021-08-12T06:54:52Z</time>
      </trkpt>
      <trkpt lat="42.6671100" lon="1.3978390">
        <ele>3069.6</ele>
        <time>2021-08-12T06:54:54Z</time>
      </trkpt>
      <trkpt lat="42.6671070" lon="1.3978370">
        <ele>3069.7</ele>
        <time>2021-08-12T06:55:04Z</time>
      </trkpt>
      <trkpt lat="42.6671100" lon="1.3978380">
        <ele>3069.8</ele>
        <time>2021-08-12T06:55:06Z</time>
      </trkpt>
      <trkpt lat="42.6671350" lon="1.3978030">
        <ele>3070.6</ele>
        <time>2021-08-12T06:55:16Z</time>
      </trkpt>
      <trkpt lat="42.6672310" lon="1.3977320">
        <ele>3072.5</ele>
        <time>2021-08-12T06:56:00Z</time>
      </trkpt>
      <trkpt lat="42.6672620" lon="1.3977130">
        <ele>3072.9</ele>
        <time>2021-08-12T06:56:10Z</time>
      </trkpt>
      <trkpt lat="42.6673560" lon="1.3977210">
        <ele>3074.2</ele>
        <time>2021-08-12T06:57:10Z</time>
      </trkpt>
      <trkpt lat="42.6674380" lon="1.3977550">
        <ele>3075.3</ele>
        <time>2021-08-12T06:58:07Z</time>
      </trkpt>
      <trkpt lat="42.6674910" lon="1.3977160">
        <ele>3076.2</ele>
        <time>2021-08-12T06:58:42Z</time>
      </trkpt>
      <trkpt lat="42.6675010" lon="1.3977370">
        <ele>3076.5</ele>
        <time>2021-08-12T06:58:57Z</time>
      </trkpt>
      <trkpt lat="42.6675380" lon="1.3977570">
        <ele>3077.1</ele>
        <time>2021-08-12T06:59:18Z</time>
      </trkpt>
      <trkpt lat="42.6675530" lon="1.3977750">
        <ele>3077.4</ele>
        <time>2021-08-12T06:59:32Z</time>
      </trkpt>
      <trkpt lat="42.6676100" lon="1.3977870">
        <ele>3078.3</ele>
        <time>2021-08-12T06:59:59Z</time>
      </trkpt>
      <trkpt lat="42.6676240" lon="1.3977760">
        <ele>3078.6</ele>
        <time>2021-08-12T07:00:11Z</time>
      </trkpt>
      <trkpt lat="42.6676500" lon="1.3976340">
        <ele>3080.6</ele>
        <time>2021-08-12T07:00:29Z</time>
      </trkpt>
      <trkpt lat="42.6676670" lon="1.3975810">
        <ele>3081.5</ele>
        <time>2021-08-12T07:00:40Z</time>
      </trkpt>
      <trkpt lat="42.6676990" lon="1.3974050">
        <ele>3085.5</ele>
        <time>2021-08-12T07:01:02Z</time>
      </trkpt>
      <trkpt lat="42.6678220" lon="1.3972440">
        <ele>3085.9</ele>
        <time>2021-08-12T07:01:32Z</time>
      </trkpt>
      <trkpt lat="42.6679110" lon="1.3970860">
        <ele>3087.4</ele>
        <time>2021-08-12T07:02:05Z</time>
      </trkpt>
      <trkpt lat="42.6679700" lon="1.3970170">
        <ele>3088.5</ele>
        <time>2021-08-12T07:02:41Z</time>
      </trkpt>
      <trkpt lat="42.6680700" lon="1.3968610">
        <ele>3087.7</ele>
        <time>2021-08-12T07:03:46Z</time>
      </trkpt>
      <trkpt lat="42.6680790" lon="1.3968790">
        <ele>3087.6</ele>
        <time>2021-08-12T07:04:13Z</time>
      </trkpt>
      <trkpt lat="42.6680810" lon="1.3968860">
        <ele>3087.6</ele>
        <time>2021-08-12T07:04:21Z</time>
      </trkpt>
      <trkpt lat="42.6680850" lon="1.3968780">
        <ele>3087.5</ele>
        <time>2021-08-12T07:04:27Z</time>
      </trkpt>
      <trkpt lat="42.6680860" lon="1.3968790">
        <ele>3087.5</ele>
        <time>2021-08-12T07:04:38Z</time>
      </trkpt>
      <trkpt lat="42.6680840" lon="1.3968850">
        <ele>3087.5</ele>
        <time>2021-08-12T07:04:52Z</time>
      </trkpt>
      <trkpt lat="42.6680760" lon="1.3968750">
        <ele>3087.4</ele>
        <time>2021-08-12T07:05:10Z</time>
      </trkpt>
      <trkpt lat="42.6680820" lon="1.3968620">
        <ele>3087.4</ele>
        <time>2021-08-12T07:06:05Z</time>
      </trkpt>
      <trkpt lat="42.6680780" lon="1.3968750">
        <ele>3087.3</ele>
        <time>2021-08-12T07:06:17Z</time>
      </trkpt>
      <trkpt lat="42.6680670" lon="1.3968760">
        <ele>3087.3</ele>
        <time>2021-08-12T07:06:24Z</time>
      </trkpt>
      <trkpt lat="42.6680660" lon="1.3968760">
        <ele>3087.3</ele>
        <time>2021-08-12T07:06:29Z</time>
      </trkpt>
      <trkpt lat="42.6680650" lon="1.3968790">
        <ele>3087.3</ele>
        <time>2021-08-12T07:06:30Z</time>
      </trkpt>
      <trkpt lat="42.6680680" lon="1.3968900">
        <ele>3087.2</ele>
        <time>2021-08-12T07:06:52Z</time>
      </trkpt>
      <trkpt lat="42.6680750" lon="1.3968970">
        <ele>3087.2</ele>
        <time>2021-08-12T07:07:16Z</time>
      </trkpt>
      <trkpt lat="42.6680600" lon="1.3968930">
        <ele>3087.1</ele>
        <time>2021-08-12T07:07:38Z</time>
      </trkpt>
      <trkpt lat="42.6680570" lon="1.3968920">
        <ele>3087.1</ele>
        <time>2021-08-12T07:07:44Z</time>
      </trkpt>
      <trkpt lat="42.6680580" lon="1.3968920">
        <ele>3087.1</ele>
        <time>2021-08-12T07:07:46Z</time>
      </trkpt>
      <trkpt lat="42.6680570" lon="1.3968940">
        <ele>3087.1</ele>
        <time>2021-08-12T07:07:55Z</time>
      </trkpt>
      <trkpt lat="42.6680570" lon="1.3968940">
        <ele>3087.1</ele>
        <time>2021-08-12T07:07:57Z</time>
      </trkpt>
      <trkpt lat="42.6680570" lon="1.3968950">
        <ele>3087.1</ele>
        <time>2021-08-12T07:08:00Z</time>
      </trkpt>
      <trkpt lat="42.6680370" lon="1.3969650">
        <ele>3086.8</ele>
        <time>2021-08-12T07:08:27Z</time>
      </trkpt>
      <trkpt lat="42.6680360" lon="1.3969690">
        <ele>3086.8</ele>
        <time>2021-08-12T07:08:28Z</time>
      </trkpt>
      <trkpt lat="42.6680380" lon="1.3969880">
        <ele>3086.7</ele>
        <time>2021-08-12T07:08:32Z</time>
      </trkpt>
      <trkpt lat="42.6680370" lon="1.3969910">
        <ele>3086.7</ele>
        <time>2021-08-12T07:08:34Z</time>
      </trkpt>
      <trkpt lat="42.6680050" lon="1.3970250">
        <ele>3086.5</ele>
        <time>2021-08-12T07:08:44Z</time>
      </trkpt>
      <trkpt lat="42.6680000" lon="1.3970290">
        <ele>3086.5</ele>
        <time>2021-08-12T07:08:45Z</time>
      </trkpt>
      <trkpt lat="42.6679920" lon="1.3970300">
        <ele>3086.5</ele>
        <time>2021-08-12T07:08:46Z</time>
      </trkpt>
      <trkpt lat="42.6679900" lon="1.3970320">
        <ele>3086.5</ele>
        <time>2021-08-12T07:08:47Z</time>
      </trkpt>
      <trkpt lat="42.6679830" lon="1.3970400">
        <ele>3086.5</ele>
        <time>2021-08-12T07:08:51Z</time>
      </trkpt>
      <trkpt lat="42.6679830" lon="1.3970410">
        <ele>3086.5</ele>
        <time>2021-08-12T07:08:52Z</time>
      </trkpt>
      <trkpt lat="42.6679830" lon="1.3970430">
        <ele>3086.4</ele>
        <time>2021-08-12T07:08:53Z</time>
      </trkpt>
      <trkpt lat="42.6679770" lon="1.3970530">
        <ele>3086.4</ele>
        <time>2021-08-12T07:08:56Z</time>
      </trkpt>
      <trkpt lat="42.6679700" lon="1.3970550">
        <ele>3086.4</ele>
        <time>2021-08-12T07:09:01Z</time>
      </trkpt>
      <trkpt lat="42.6679730" lon="1.3970640">
        <ele>3086.4</ele>
        <time>2021-08-12T07:09:07Z</time>
      </trkpt>
      <trkpt lat="42.6679320" lon="1.3971170">
        <ele>3086.2</ele>
        <time>2021-08-12T07:09:35Z</time>
      </trkpt>
      <trkpt lat="42.6678630" lon="1.3973120">
        <ele>3085.8</ele>
        <time>2021-08-12T07:10:20Z</time>
      </trkpt>
      <trkpt lat="42.6678490" lon="1.3973370">
        <ele>3085.7</ele>
        <time>2021-08-12T07:10:25Z</time>
      </trkpt>
      <trkpt lat="42.6678400" lon="1.3973490">
        <ele>3085.7</ele>
        <time>2021-08-12T07:10:27Z</time>
      </trkpt>
      <trkpt lat="42.6677200" lon="1.3974090">
        <ele>3085.5</ele>
        <time>2021-08-12T07:11:49Z</time>
      </trkpt>
      <trkpt lat="42.6677080" lon="1.3973980">
        <ele>3085.2</ele>
        <time>2021-08-12T07:12:14Z</time>
      </trkpt>
      <trkpt lat="42.6677270" lon="1.3974150">
        <ele>3084.8</ele>
        <time>2021-08-12T07:13:31Z</time>
      </trkpt>
      <trkpt lat="42.6677260" lon="1.3974300">
        <ele>3084.6</ele>
        <time>2021-08-12T07:13:46Z</time>
      </trkpt>
      <trkpt lat="42.6677280" lon="1.3974280">
        <ele>3084.5</ele>
        <time>2021-08-12T07:13:47Z</time>
      </trkpt>
      <trkpt lat="42.6677320" lon="1.3974260">
        <ele>3084.4</ele>
        <time>2021-08-12T07:13:51Z</time>
      </trkpt>
      <trkpt lat="42.6677310" lon="1.3974220">
        <ele>3084.3</ele>
        <time>2021-08-12T07:13:54Z</time>
      </trkpt>
      <trkpt lat="42.6677320" lon="1.3974190">
        <ele>3084.3</ele>
        <time>2021-08-12T07:13:55Z</time>
      </trkpt>
      <trkpt lat="42.6677320" lon="1.3974160">
        <ele>3084.2</ele>
        <time>2021-08-12T07:13:56Z</time>
      </trkpt>
      <trkpt lat="42.6677330" lon="1.3974140">
        <ele>3084.2</ele>
        <time>2021-08-12T07:13:57Z</time>
      </trkpt>
      <trkpt lat="42.6677320" lon="1.3974070">
        <ele>3084.1</ele>
        <time>2021-08-12T07:14:03Z</time>
      </trkpt>
      <trkpt lat="42.6677310" lon="1.3974080">
        <ele>3084.1</ele>
        <time>2021-08-12T07:14:06Z</time>
      </trkpt>
      <trkpt lat="42.6676940" lon="1.3973960">
        <ele>3083.2</ele>
        <time>2021-08-12T07:15:00Z</time>
      </trkpt>
      <trkpt lat="42.6677160" lon="1.3973740">
        <ele>3082.6</ele>
        <time>2021-08-12T07:15:07Z</time>
      </trkpt>
      <trkpt lat="42.6677380" lon="1.3974090">
        <ele>3081.7</ele>
        <time>2021-08-12T07:15:18Z</time>
      </trkpt>
      <trkpt lat="42.6677440" lon="1.3974160">
        <ele>3081.5</ele>
        <time>2021-08-12T07:15:23Z</time>
      </trkpt>
      <trkpt lat="42.6677430" lon="1.3974490">
        <ele>3080.8</ele>
        <time>2021-08-12T07:15:45Z</time>
      </trkpt>
      <trkpt lat="42.6677580" lon="1.3974720">
        <ele>3080.2</ele>
        <time>2021-08-12T07:15:53Z</time>
      </trkpt>
      <trkpt lat="42.6678980" lon="1.3976040">
        <ele>3075.0</ele>
        <time>2021-08-12T07:16:24Z</time>
      </trkpt>
      <trkpt lat="42.6679430" lon="1.3975940">
        <ele>3073.6</ele>
        <time>2021-08-12T07:16:29Z</time>
      </trkpt>
      <trkpt lat="42.6679570" lon="1.3976210">
        <ele>3072.8</ele>
        <time>2021-08-12T07:16:32Z</time>
      </trkpt>
      <trkpt lat="42.6679560" lon="1.3976440">
        <ele>3072.2</ele>
        <time>2021-08-12T07:16:35Z</time>
      </trkpt>
      <trkpt lat="42.6679530" lon="1.3976610">
        <ele>3071.8</ele>
        <time>2021-08-12T07:16:37Z</time>
      </trkpt>
      <trkpt lat="42.6679560" lon="1.3976700">
        <ele>3071.6</ele>
        <time>2021-08-12T07:16:38Z</time>
      </trkpt>
      <trkpt lat="42.6679560" lon="1.3976760">
        <ele>3071.5</ele>
        <time>2021-08-12T07:16:39Z</time>
      </trkpt>
      <trkpt lat="42.6679700" lon="1.3977150">
        <ele>3070.6</ele>
        <time>2021-08-12T07:16:45Z</time>
      </trkpt>
      <trkpt lat="42.6679740" lon="1.3977330">
        <ele>3070.2</ele>
        <time>2021-08-12T07:16:47Z</time>
      </trkpt>
      <trkpt lat="42.6679710" lon="1.3977600">
        <ele>3069.7</ele>
        <time>2021-08-12T07:16:51Z</time>
      </trkpt>
      <trkpt lat="42.6679690" lon="1.3977900">
        <ele>3069.1</ele>
        <time>2021-08-12T07:16:58Z</time>
      </trkpt>
      <trkpt lat="42.6680570" lon="1.3978090">
        <ele>3066.8</ele>
        <time>2021-08-12T07:17:21Z</time>
      </trkpt>
      <trkpt lat="42.6680900" lon="1.3978770">
        <ele>3065.4</ele>
        <time>2021-08-12T07:17:39Z</time>
      </trkpt>
      <trkpt lat="42.6680680" lon="1.3979130">
        <ele>3064.6</ele>
        <time>2021-08-12T07:17:49Z</time>
      </trkpt>
      <trkpt lat="42.6681190" lon="1.3979610">
        <ele>3063.1</ele>
        <time>2021-08-12T07:18:02Z</time>
      </trkpt>
      <trkpt lat="42.6681000" lon="1.3980010">
        <ele>3062.2</ele>
        <time>2021-08-12T07:18:11Z</time>
      </trkpt>
      <trkpt lat="42.6681570" lon="1.3981770">
        <ele>3058.8</ele>
        <time>2021-08-12T07:18:50Z</time>
      </trkpt>
      <trkpt lat="42.6681430" lon="1.3982240">
        <ele>3058.0</ele>
        <time>2021-08-12T07:19:04Z</time>
      </trkpt>
      <trkpt lat="42.6682030" lon="1.3983890">
        <ele>3056.1</ele>
        <time>2021-08-12T07:19:39Z</time>
      </trkpt>
      <trkpt lat="42.6682300" lon="1.3984570">
        <ele>3055.5</ele>
        <time>2021-08-12T07:19:48Z</time>
      </trkpt>
      <trkpt lat="42.6682300" lon="1.3984640">
        <ele>3055.5</ele>
        <time>2021-08-12T07:19:49Z</time>
      </trkpt>
      <trkpt lat="42.6682350" lon="1.3984800">
        <ele>3055.4</ele>
        <time>2021-08-12T07:19:52Z</time>
      </trkpt>
      <trkpt lat="42.6682680" lon="1.3987140">
        <ele>3054.2</ele>
        <time>2021-08-12T07:20:19Z</time>
      </trkpt>
      <trkpt lat="42.6683440" lon="1.3988390">
        <ele>3053.5</ele>
        <time>2021-08-12T07:20:31Z</time>
      </trkpt>
      <trkpt lat="42.6683620" lon="1.3988930">
        <ele>3053.0</ele>
        <time>2021-08-12T07:20:35Z</time>
      </trkpt>
      <trkpt lat="42.6683940" lon="1.3989420">
        <ele>3052.4</ele>
        <time>2021-08-12T07:20:40Z</time>
      </trkpt>
      <trkpt lat="42.6684420" lon="1.3989510">
        <ele>3051.6</ele>
        <time>2021-08-12T07:20:47Z</time>
      </trkpt>
      <trkpt lat="42.6684730" lon="1.3990110">
        <ele>3050.5</ele>
        <time>2021-08-12T07:20:56Z</time>
      </trkpt>
      <trkpt lat="42.6684780" lon="1.3990390">
        <ele>3050.1</ele>
        <time>2021-08-12T07:21:01Z</time>
      </trkpt>
      <trkpt lat="42.6685370" lon="1.3990090">
        <ele>3048.8</ele>
        <time>2021-08-12T07:21:11Z</time>
      </trkpt>
      <trkpt lat="42.6685850" lon="1.3991520">
        <ele>3046.8</ele>
        <time>2021-08-12T07:21:28Z</time>
      </trkpt>
      <trkpt lat="42.6685340" lon="1.3992370">
        <ele>3045.1</ele>
        <time>2021-08-12T07:21:36Z</time>
      </trkpt>
      <trkpt lat="42.6685130" lon="1.3993520">
        <ele>3043.2</ele>
        <time>2021-08-12T07:21:47Z</time>
      </trkpt>
      <trkpt lat="42.6684710" lon="1.3995940">
        <ele>3039.4</ele>
        <time>2021-08-12T07:22:05Z</time>
      </trkpt>
      <trkpt lat="42.6684880" lon="1.3998350">
        <ele>3035.4</ele>
        <time>2021-08-12T07:22:28Z</time>
      </trkpt>
      <trkpt lat="42.6684800" lon="1.3999090">
        <ele>3034.5</ele>
        <time>2021-08-12T07:22:34Z</time>
      </trkpt>
      <trkpt lat="42.6684730" lon="1.4000620">
        <ele>3033.4</ele>
        <time>2021-08-12T07:22:45Z</time>
      </trkpt>
      <trkpt lat="42.6684910" lon="1.4000890">
        <ele>3033.2</ele>
        <time>2021-08-12T07:22:48Z</time>
      </trkpt>
      <trkpt lat="42.6686410" lon="1.4002360">
        <ele>3032.0</ele>
        <time>2021-08-12T07:23:02Z</time>
      </trkpt>
      <trkpt lat="42.6686620" lon="1.4002710">
        <ele>3031.7</ele>
        <time>2021-08-12T07:23:06Z</time>
      </trkpt>
      <trkpt lat="42.6687860" lon="1.4003880">
        <ele>3030.5</ele>
        <time>2021-08-12T07:23:20Z</time>
      </trkpt>
      <trkpt lat="42.6688000" lon="1.4003990">
        <ele>3030.4</ele>
        <time>2021-08-12T07:23:21Z</time>
      </trkpt>
      <trkpt lat="42.6688630" lon="1.4004310">
        <ele>3030.0</ele>
        <time>2021-08-12T07:23:27Z</time>
      </trkpt>
      <trkpt lat="42.6688860" lon="1.4004400">
        <ele>3029.8</ele>
        <time>2021-08-12T07:23:29Z</time>
      </trkpt>
      <trkpt lat="42.6689530" lon="1.4004550">
        <ele>3029.5</ele>
        <time>2021-08-12T07:23:35Z</time>
      </trkpt>
      <trkpt lat="42.6690150" lon="1.4004730">
        <ele>3029.0</ele>
        <time>2021-08-12T07:23:41Z</time>
      </trkpt>
      <trkpt lat="42.6690270" lon="1.4004980">
        <ele>3028.8</ele>
        <time>2021-08-12T07:23:43Z</time>
      </trkpt>
      <trkpt lat="42.6690310" lon="1.4005540">
        <ele>3028.2</ele>
        <time>2021-08-12T07:23:47Z</time>
      </trkpt>
      <trkpt lat="42.6690550" lon="1.4006540">
        <ele>3026.9</ele>
        <time>2021-08-12T07:23:54Z</time>
      </trkpt>
      <trkpt lat="42.6691390" lon="1.4008600">
        <ele>3023.2</ele>
        <time>2021-08-12T07:24:13Z</time>
      </trkpt>
      <trkpt lat="42.6691450" lon="1.4008730">
        <ele>3023.0</ele>
        <time>2021-08-12T07:24:14Z</time>
      </trkpt>
      <trkpt lat="42.6692360" lon="1.4009140">
        <ele>3021.3</ele>
        <time>2021-08-12T07:24:27Z</time>
      </trkpt>
      <trkpt lat="42.6692570" lon="1.4009280">
        <ele>3020.9</ele>
        <time>2021-08-12T07:24:29Z</time>
      </trkpt>
      <trkpt lat="42.6693290" lon="1.4010230">
        <ele>3019.0</ele>
        <time>2021-08-12T07:24:39Z</time>
      </trkpt>
      <trkpt lat="42.6694660" lon="1.4011860">
        <ele>3015.8</ele>
        <time>2021-08-12T07:24:59Z</time>
      </trkpt>
      <trkpt lat="42.6696020" lon="1.4013060">
        <ele>3012.4</ele>
        <time>2021-08-12T07:25:21Z</time>
      </trkpt>
      <trkpt lat="42.6696660" lon="1.4014590">
        <ele>3009.3</ele>
        <time>2021-08-12T07:25:43Z</time>
      </trkpt>
      <trkpt lat="42.6697270" lon="1.4016980">
        <ele>3006.7</ele>
        <time>2021-08-12T07:26:11Z</time>
      </trkpt>
      <trkpt lat="42.6697390" lon="1.4017610">
        <ele>3006.1</ele>
        <time>2021-08-12T07:26:18Z</time>
      </trkpt>
      <trkpt lat="42.6697630" lon="1.4017710">
        <ele>3005.7</ele>
        <time>2021-08-12T07:26:31Z</time>
      </trkpt>
      <trkpt lat="42.6697670" lon="1.4017570">
        <ele>3005.5</ele>
        <time>2021-08-12T07:26:57Z</time>
      </trkpt>
      <trkpt lat="42.6697850" lon="1.4017230">
        <ele>3004.9</ele>
        <time>2021-08-12T07:27:26Z</time>
      </trkpt>
      <trkpt lat="42.6697970" lon="1.4017280">
        <ele>3004.7</ele>
        <time>2021-08-12T07:27:38Z</time>
      </trkpt>
      <trkpt lat="42.6697970" lon="1.4017280">
        <ele>3004.7</ele>
        <time>2021-08-12T07:27:39Z</time>
      </trkpt>
      <trkpt lat="42.6697970" lon="1.4017290">
        <ele>3004.7</ele>
        <time>2021-08-12T07:27:40Z</time>
      </trkpt>
      <trkpt lat="42.6697970" lon="1.4017310">
        <ele>3004.6</ele>
        <time>2021-08-12T07:27:42Z</time>
      </trkpt>
      <trkpt lat="42.6697680" lon="1.4017540">
        <ele>3003.8</ele>
        <time>2021-08-12T07:28:02Z</time>
      </trkpt>
      <trkpt lat="42.6697730" lon="1.4017540">
        <ele>3003.7</ele>
        <time>2021-08-12T07:28:05Z</time>
      </trkpt>
      <trkpt lat="42.6697740" lon="1.4017680">
        <ele>3003.4</ele>
        <time>2021-08-12T07:28:09Z</time>
      </trkpt>
      <trkpt lat="42.6697770" lon="1.4017730">
        <ele>3003.3</ele>
        <time>2021-08-12T07:28:12Z</time>
      </trkpt>
      <trkpt lat="42.6697780" lon="1.4017770">
        <ele>3003.2</ele>
        <time>2021-08-12T07:28:14Z</time>
      </trkpt>
      <trkpt lat="42.6697810" lon="1.4017830">
        <ele>3003.0</ele>
        <time>2021-08-12T07:28:16Z</time>
      </trkpt>
      <trkpt lat="42.6697830" lon="1.4017930">
        <ele>3002.8</ele>
        <time>2021-08-12T07:28:23Z</time>
      </trkpt>
      <trkpt lat="42.6698360" lon="1.4018210">
        <ele>3000.9</ele>
        <time>2021-08-12T07:28:46Z</time>
      </trkpt>
      <trkpt lat="42.6699820" lon="1.4019320">
        <ele>2995.2</ele>
        <time>2021-08-12T07:29:13Z</time>
      </trkpt>
      <trkpt lat="42.6701370" lon="1.4020460">
        <ele>2989.3</ele>
        <time>2021-08-12T07:29:48Z</time>
      </trkpt>
      <trkpt lat="42.6702790" lon="1.4020600">
        <ele>2985.0</ele>
        <time>2021-08-12T07:30:23Z</time>
      </trkpt>
      <trkpt lat="42.6703460" lon="1.4020940">
        <ele>2983.4</ele>
        <time>2021-08-12T07:30:35Z</time>
      </trkpt>
      <trkpt lat="42.6703640" lon="1.4021040">
        <ele>2983.0</ele>
        <time>2021-08-12T07:30:43Z</time>
      </trkpt>
      <trkpt lat="42.6704380" lon="1.4020950">
        <ele>2981.8</ele>
        <time>2021-08-12T07:30:57Z</time>
      </trkpt>
      <trkpt lat="42.6705110" lon="1.4021490">
        <ele>2980.9</ele>
        <time>2021-08-12T07:31:06Z</time>
      </trkpt>
      <trkpt lat="42.6705200" lon="1.4021510">
        <ele>2980.9</ele>
        <time>2021-08-12T07:31:07Z</time>
      </trkpt>
      <trkpt lat="42.6705300" lon="1.4021570">
        <ele>2980.8</ele>
        <time>2021-08-12T07:31:14Z</time>
      </trkpt>
      <trkpt lat="42.6705730" lon="1.4021410">
        <ele>2980.4</ele>
        <time>2021-08-12T07:31:20Z</time>
      </trkpt>
      <trkpt lat="42.6707460" lon="1.4021470">
        <ele>2978.9</ele>
        <time>2021-08-12T07:31:46Z</time>
      </trkpt>
      <trkpt lat="42.6708400" lon="1.4022190">
        <ele>2979.9</ele>
        <time>2021-08-12T07:32:46Z</time>
      </trkpt>
      <trkpt lat="42.6708510" lon="1.4022230">
        <ele>2980.2</ele>
        <time>2021-08-12T07:33:09Z</time>
      </trkpt>
      <trkpt lat="42.6708650" lon="1.4022450">
        <ele>2980.6</ele>
        <time>2021-08-12T07:33:31Z</time>
      </trkpt>
      <trkpt lat="42.6708620" lon="1.4022390">
        <ele>2980.8</ele>
        <time>2021-08-12T07:33:37Z</time>
      </trkpt>
      <trkpt lat="42.6708540" lon="1.4022400">
        <ele>2980.9</ele>
        <time>2021-08-12T07:33:45Z</time>
      </trkpt>
      <trkpt lat="42.6708530" lon="1.4022370">
        <ele>2981.0</ele>
        <time>2021-08-12T07:33:52Z</time>
      </trkpt>
      <trkpt lat="42.6709150" lon="1.4022610">
        <ele>2982.4</ele>
        <time>2021-08-12T07:34:08Z</time>
      </trkpt>
      <trkpt lat="42.6709200" lon="1.4022570">
        <ele>2982.5</ele>
        <time>2021-08-12T07:34:09Z</time>
      </trkpt>
      <trkpt lat="42.6709230" lon="1.4022530">
        <ele>2982.6</ele>
        <time>2021-08-12T07:34:10Z</time>
      </trkpt>
      <trkpt lat="42.6709340" lon="1.4022380">
        <ele>2982.9</ele>
        <time>2021-08-12T07:34:13Z</time>
      </trkpt>
      <trkpt lat="42.6709460" lon="1.4022480">
        <ele>2983.2</ele>
        <time>2021-08-12T07:34:15Z</time>
      </trkpt>
      <trkpt lat="42.6709560" lon="1.4022590">
        <ele>2983.5</ele>
        <time>2021-08-12T07:34:17Z</time>
      </trkpt>
      <trkpt lat="42.6709590" lon="1.4023200">
        <ele>2984.5</ele>
        <time>2021-08-12T07:34:24Z</time>
      </trkpt>
      <trkpt lat="42.6710380" lon="1.4023220">
        <ele>2986.2</ele>
        <time>2021-08-12T07:34:36Z</time>
      </trkpt>
      <trkpt lat="42.6710410" lon="1.4023500">
        <ele>2986.6</ele>
        <time>2021-08-12T07:34:41Z</time>
      </trkpt>
      <trkpt lat="42.6710290" lon="1.4024120">
        <ele>2987.6</ele>
        <time>2021-08-12T07:34:49Z</time>
      </trkpt>
      <trkpt lat="42.6710270" lon="1.4024290">
        <ele>2987.9</ele>
        <time>2021-08-12T07:34:51Z</time>
      </trkpt>
      <trkpt lat="42.6710320" lon="1.4024430">
        <ele>2988.1</ele>
        <time>2021-08-12T07:34:55Z</time>
      </trkpt>
      <trkpt lat="42.6710360" lon="1.4024430">
        <ele>2988.2</ele>
        <time>2021-08-12T07:34:56Z</time>
      </trkpt>
      <trkpt lat="42.6710410" lon="1.4024400">
        <ele>2988.3</ele>
        <time>2021-08-12T07:34:57Z</time>
      </trkpt>
      <trkpt lat="42.6710750" lon="1.4024260">
        <ele>2989.1</ele>
        <time>2021-08-12T07:35:09Z</time>
      </trkpt>
      <trkpt lat="42.6710920" lon="1.4024110">
        <ele>2989.5</ele>
        <time>2021-08-12T07:35:14Z</time>
      </trkpt>
      <trkpt lat="42.6711020" lon="1.4024130">
        <ele>2989.7</ele>
        <time>2021-08-12T07:35:15Z</time>
      </trkpt>
      <trkpt lat="42.6711100" lon="1.4024160">
        <ele>2989.9</ele>
        <time>2021-08-12T07:35:16Z</time>
      </trkpt>
      <trkpt lat="42.6711440" lon="1.4025710">
        <ele>2992.5</ele>
        <time>2021-08-12T07:35:40Z</time>
      </trkpt>
      <trkpt lat="42.6712900" lon="1.4025390">
        <ele>2995.7</ele>
        <time>2021-08-12T07:36:31Z</time>
      </trkpt>
      <trkpt lat="42.6713440" lon="1.4025360">
        <ele>2996.8</ele>
        <time>2021-08-12T07:36:48Z</time>
      </trkpt>
      <trkpt lat="42.6713460" lon="1.4025460">
        <ele>2997.0</ele>
        <time>2021-08-12T07:36:51Z</time>
      </trkpt>
      <trkpt lat="42.6713460" lon="1.4025530">
        <ele>2997.1</ele>
        <time>2021-08-12T07:36:52Z</time>
      </trkpt>
      <trkpt lat="42.6713460" lon="1.4025630">
        <ele>2997.2</ele>
        <time>2021-08-12T07:36:53Z</time>
      </trkpt>
      <trkpt lat="42.6713470" lon="1.4025690">
        <ele>2997.3</ele>
        <time>2021-08-12T07:36:54Z</time>
      </trkpt>
      <trkpt lat="42.6713490" lon="1.4025760">
        <ele>2997.5</ele>
        <time>2021-08-12T07:36:55Z</time>
      </trkpt>
      <trkpt lat="42.6713580" lon="1.4026000">
        <ele>2997.9</ele>
        <time>2021-08-12T07:37:00Z</time>
      </trkpt>
      <trkpt lat="42.6713740" lon="1.4025980">
        <ele>2998.2</ele>
        <time>2021-08-12T07:37:04Z</time>
      </trkpt>
      <trkpt lat="42.6714500" lon="1.4025700">
        <ele>2999.9</ele>
        <time>2021-08-12T07:37:16Z</time>
      </trkpt>
      <trkpt lat="42.6715640" lon="1.4025730">
        <ele>3002.4</ele>
        <time>2021-08-12T07:37:45Z</time>
      </trkpt>
      <trkpt lat="42.6715750" lon="1.4025730">
        <ele>3002.6</ele>
        <time>2021-08-12T07:37:47Z</time>
      </trkpt>
      <trkpt lat="42.6715830" lon="1.4025740">
        <ele>3002.8</ele>
        <time>2021-08-12T07:37:48Z</time>
      </trkpt>
      <trkpt lat="42.6716230" lon="1.4025730">
        <ele>3003.6</ele>
        <time>2021-08-12T07:37:57Z</time>
      </trkpt>
      <trkpt lat="42.6716680" lon="1.4026040">
        <ele>3004.7</ele>
        <time>2021-08-12T07:38:06Z</time>
      </trkpt>
      <trkpt lat="42.6716900" lon="1.4026130">
        <ele>3005.2</ele>
        <time>2021-08-12T07:38:10Z</time>
      </trkpt>
      <trkpt lat="42.6717150" lon="1.4026140">
        <ele>3005.8</ele>
        <time>2021-08-12T07:38:14Z</time>
      </trkpt>
      <trkpt lat="42.6717330" lon="1.4026410">
        <ele>3006.3</ele>
        <time>2021-08-12T07:38:19Z</time>
      </trkpt>
      <trkpt lat="42.6717390" lon="1.4026480">
        <ele>3006.5</ele>
        <time>2021-08-12T07:38:20Z</time>
      </trkpt>
      <trkpt lat="42.6717410" lon="1.4026500">
        <ele>3006.6</ele>
        <time>2021-08-12T07:38:21Z</time>
      </trkpt>
      <trkpt lat="42.6717570" lon="1.4026610">
        <ele>3006.9</ele>
        <time>2021-08-12T07:38:29Z</time>
      </trkpt>
      <trkpt lat="42.6717990" lon="1.4028560">
        <ele>3010.1</ele>
        <time>2021-08-12T07:39:06Z</time>
      </trkpt>
      <trkpt lat="42.6717630" lon="1.4030490">
        <ele>3013.3</ele>
        <time>2021-08-12T07:39:34Z</time>
      </trkpt>
      <trkpt lat="42.6717610" lon="1.4032520">
        <ele>3016.5</ele>
        <time>2021-08-12T07:39:56Z</time>
      </trkpt>
      <trkpt lat="42.6717700" lon="1.4032920">
        <ele>3017.2</ele>
        <time>2021-08-12T07:40:00Z</time>
      </trkpt>
      <trkpt lat="42.6717730" lon="1.4033100">
        <ele>3017.5</ele>
        <time>2021-08-12T07:40:02Z</time>
      </trkpt>
      <trkpt lat="42.6717850" lon="1.4035590">
        <ele>3021.4</ele>
        <time>2021-08-12T07:40:32Z</time>
      </trkpt>
      <trkpt lat="42.6717920" lon="1.4037330">
        <ele>3024.1</ele>
        <time>2021-08-12T07:40:56Z</time>
      </trkpt>
      <trkpt lat="42.6718130" lon="1.4038350">
        <ele>3025.8</ele>
        <time>2021-08-12T07:41:15Z</time>
      </trkpt>
      <trkpt lat="42.6718210" lon="1.4038710">
        <ele>3026.4</ele>
        <time>2021-08-12T07:41:21Z</time>
      </trkpt>
      <trkpt lat="42.6718250" lon="1.4038930">
        <ele>3026.8</ele>
        <time>2021-08-12T07:41:24Z</time>
      </trkpt>
      <trkpt lat="42.6718270" lon="1.4039000">
        <ele>3026.9</ele>
        <time>2021-08-12T07:41:25Z</time>
      </trkpt>
      <trkpt lat="42.6718290" lon="1.4039080">
        <ele>3027.0</ele>
        <time>2021-08-12T07:41:26Z</time>
      </trkpt>
      <trkpt lat="42.6718330" lon="1.4039250">
        <ele>3027.3</ele>
        <time>2021-08-12T07:41:28Z</time>
      </trkpt>
      <trkpt lat="42.6718380" lon="1.4039330">
        <ele>3027.5</ele>
        <time>2021-08-12T07:41:29Z</time>
      </trkpt>
      <trkpt lat="42.6718420" lon="1.4039410">
        <ele>3027.6</ele>
        <time>2021-08-12T07:41:30Z</time>
      </trkpt>
      <trkpt lat="42.6718430" lon="1.4039490">
        <ele>3027.7</ele>
        <time>2021-08-12T07:41:31Z</time>
      </trkpt>
      <trkpt lat="42.6718460" lon="1.4039590">
        <ele>3027.9</ele>
        <time>2021-08-12T07:41:32Z</time>
      </trkpt>
      <trkpt lat="42.6718520" lon="1.4039680">
        <ele>3028.1</ele>
        <time>2021-08-12T07:41:33Z</time>
      </trkpt>
      <trkpt lat="42.6718630" lon="1.4040060">
        <ele>3028.8</ele>
        <time>2021-08-12T07:41:37Z</time>
      </trkpt>
      <trkpt lat="42.6718700" lon="1.4040220">
        <ele>3029.0</ele>
        <time>2021-08-12T07:41:39Z</time>
      </trkpt>
      <trkpt lat="42.6718740" lon="1.4040450">
        <ele>3029.4</ele>
        <time>2021-08-12T07:41:42Z</time>
      </trkpt>
      <trkpt lat="42.6718790" lon="1.4040720">
        <ele>3029.9</ele>
        <time>2021-08-12T07:41:46Z</time>
      </trkpt>
      <trkpt lat="42.6718870" lon="1.4040860">
        <ele>3030.1</ele>
        <time>2021-08-12T07:41:48Z</time>
      </trkpt>
      <trkpt lat="42.6718970" lon="1.4040880">
        <ele>3030.4</ele>
        <time>2021-08-12T07:41:55Z</time>
      </trkpt>
      <trkpt lat="42.6718960" lon="1.4040850">
        <ele>3030.4</ele>
        <time>2021-08-12T07:41:57Z</time>
      </trkpt>
      <trkpt lat="42.6718980" lon="1.4040810">
        <ele>3030.5</ele>
        <time>2021-08-12T07:42:00Z</time>
      </trkpt>
      <trkpt lat="42.6718960" lon="1.4040830">
        <ele>3030.5</ele>
        <time>2021-08-12T07:42:01Z</time>
      </trkpt>
      <trkpt lat="42.6718970" lon="1.4040910">
        <ele>3030.7</ele>
        <time>2021-08-12T07:42:02Z</time>
      </trkpt>
      <trkpt lat="42.6719000" lon="1.4041620">
        <ele>3031.8</ele>
        <time>2021-08-12T07:42:12Z</time>
      </trkpt>
      <trkpt lat="42.6718900" lon="1.4041970">
        <ele>3032.4</ele>
        <time>2021-08-12T07:42:16Z</time>
      </trkpt>
      <trkpt lat="42.6718910" lon="1.4042050">
        <ele>3032.5</ele>
        <time>2021-08-12T07:42:17Z</time>
      </trkpt>
      <trkpt lat="42.6718940" lon="1.4042150">
        <ele>3032.7</ele>
        <time>2021-08-12T07:42:18Z</time>
      </trkpt>
      <trkpt lat="42.6718980" lon="1.4042270">
        <ele>3032.9</ele>
        <time>2021-08-12T07:42:19Z</time>
      </trkpt>
      <trkpt lat="42.6719000" lon="1.4042350">
        <ele>3033.0</ele>
        <time>2021-08-12T07:42:20Z</time>
      </trkpt>
      <trkpt lat="42.6719000" lon="1.4042450">
        <ele>3033.2</ele>
        <time>2021-08-12T07:42:21Z</time>
      </trkpt>
      <trkpt lat="42.6718960" lon="1.4042510">
        <ele>3033.3</ele>
        <time>2021-08-12T07:42:22Z</time>
      </trkpt>
      <trkpt lat="42.6718930" lon="1.4042570">
        <ele>3033.4</ele>
        <time>2021-08-12T07:42:23Z</time>
      </trkpt>
      <trkpt lat="42.6718890" lon="1.4042640">
        <ele>3033.6</ele>
        <time>2021-08-12T07:42:24Z</time>
      </trkpt>
      <trkpt lat="42.6718750" lon="1.4042840">
        <ele>3034.0</ele>
        <time>2021-08-12T07:42:28Z</time>
      </trkpt>
      <trkpt lat="42.6718720" lon="1.4042970">
        <ele>3034.2</ele>
        <time>2021-08-12T07:42:30Z</time>
      </trkpt>
      <trkpt lat="42.6719730" lon="1.4044870">
        <ele>3037.9</ele>
        <time>2021-08-12T07:43:01Z</time>
      </trkpt>
      <trkpt lat="42.6720020" lon="1.4045860">
        <ele>3039.6</ele>
        <time>2021-08-12T07:43:12Z</time>
      </trkpt>
      <trkpt lat="42.6720160" lon="1.4046580">
        <ele>3040.8</ele>
        <time>2021-08-12T07:43:24Z</time>
      </trkpt>
      <trkpt lat="42.6720100" lon="1.4048940">
        <ele>3044.5</ele>
        <time>2021-08-12T07:43:52Z</time>
      </trkpt>
      <trkpt lat="42.6720160" lon="1.4049810">
        <ele>3045.9</ele>
        <time>2021-08-12T07:44:00Z</time>
      </trkpt>
      <trkpt lat="42.6720240" lon="1.4050230">
        <ele>3046.6</ele>
        <time>2021-08-12T07:44:03Z</time>
      </trkpt>
      <trkpt lat="42.6720250" lon="1.4050360">
        <ele>3046.8</ele>
        <time>2021-08-12T07:44:04Z</time>
      </trkpt>
      <trkpt lat="42.6720260" lon="1.4050600">
        <ele>3047.2</ele>
        <time>2021-08-12T07:44:06Z</time>
      </trkpt>
      <trkpt lat="42.6720270" lon="1.4050800">
        <ele>3047.5</ele>
        <time>2021-08-12T07:44:08Z</time>
      </trkpt>
      <trkpt lat="42.6720190" lon="1.4051260">
        <ele>3048.2</ele>
        <time>2021-08-12T07:44:15Z</time>
      </trkpt>
      <trkpt lat="42.6720190" lon="1.4051410">
        <ele>3048.5</ele>
        <time>2021-08-12T07:44:16Z</time>
      </trkpt>
      <trkpt lat="42.6720630" lon="1.4052920">
        <ele>3051.0</ele>
        <time>2021-08-12T07:44:43Z</time>
      </trkpt>
      <trkpt lat="42.6720620" lon="1.4055330">
        <ele>3054.8</ele>
        <time>2021-08-12T07:45:05Z</time>
      </trkpt>
      <trkpt lat="42.6719990" lon="1.4056880">
        <ele>3058.3</ele>
        <time>2021-08-12T07:45:21Z</time>
      </trkpt>
      <trkpt lat="42.6719720" lon="1.4057900">
        <ele>3060.1</ele>
        <time>2021-08-12T07:45:30Z</time>
      </trkpt>
      <trkpt lat="42.6719810" lon="1.4058840">
        <ele>3061.4</ele>
        <time>2021-08-12T07:45:38Z</time>
      </trkpt>
      <trkpt lat="42.6719670" lon="1.4059490">
        <ele>3062.2</ele>
        <time>2021-08-12T07:45:43Z</time>
      </trkpt>
      <trkpt lat="42.6719700" lon="1.4061890">
        <ele>3063.9</ele>
        <time>2021-08-12T07:46:03Z</time>
      </trkpt>
      <trkpt lat="42.6719340" lon="1.4063400">
        <ele>3064.4</ele>
        <time>2021-08-12T07:46:18Z</time>
      </trkpt>
      <trkpt lat="42.6719290" lon="1.4063580">
        <ele>3064.4</ele>
        <time>2021-08-12T07:46:36Z</time>
      </trkpt>
      <trkpt lat="42.6719280" lon="1.4063640">
        <ele>3064.3</ele>
        <time>2021-08-12T07:46:41Z</time>
      </trkpt>
      <trkpt lat="42.6719250" lon="1.4063620">
        <ele>3064.3</ele>
        <time>2021-08-12T07:46:42Z</time>
      </trkpt>
      <trkpt lat="42.6719280" lon="1.4063640">
        <ele>3064.3</ele>
        <time>2021-08-12T07:46:43Z</time>
      </trkpt>
      <trkpt lat="42.6719970" lon="1.4063860">
        <ele>3064.1</ele>
        <time>2021-08-12T07:47:17Z</time>
      </trkpt>
      <trkpt lat="42.6719900" lon="1.4063850">
        <ele>3064.0</ele>
        <time>2021-08-12T07:47:38Z</time>
      </trkpt>
      <trkpt lat="42.6719800" lon="1.4063830">
        <ele>3064.0</ele>
        <time>2021-08-12T07:48:12Z</time>
      </trkpt>
      <trkpt lat="42.6719790" lon="1.4063830">
        <ele>3064.0</ele>
        <time>2021-08-12T07:48:15Z</time>
      </trkpt>
      <trkpt lat="42.6719780" lon="1.4063830">
        <ele>3064.0</ele>
        <time>2021-08-12T07:48:16Z</time>
      </trkpt>
      <trkpt lat="42.6719790" lon="1.4063840">
        <ele>3064.0</ele>
        <time>2021-08-12T07:48:17Z</time>
      </trkpt>
      <trkpt lat="42.6719670" lon="1.4062720">
        <ele>3063.6</ele>
        <time>2021-08-12T07:48:58Z</time>
      </trkpt>
      <trkpt lat="42.6719440" lon="1.4062460">
        <ele>3063.5</ele>
        <time>2021-08-12T07:49:05Z</time>
      </trkpt>
      <trkpt lat="42.6719420" lon="1.4062390">
        <ele>3063.5</ele>
        <time>2021-08-12T07:49:06Z</time>
      </trkpt>
      <trkpt lat="42.6719340" lon="1.4062180">
        <ele>3063.4</ele>
        <time>2021-08-12T07:49:09Z</time>
      </trkpt>
      <trkpt lat="42.6719170" lon="1.4061950">
        <ele>3063.2</ele>
        <time>2021-08-12T07:49:19Z</time>
      </trkpt>
      <trkpt lat="42.6719150" lon="1.4061950">
        <ele>3063.2</ele>
        <time>2021-08-12T07:49:20Z</time>
      </trkpt>
      <trkpt lat="42.6719160" lon="1.4061950">
        <ele>3063.2</ele>
        <time>2021-08-12T07:49:22Z</time>
      </trkpt>
      <trkpt lat="42.6719140" lon="1.4061980">
        <ele>3063.2</ele>
        <time>2021-08-12T07:49:25Z</time>
      </trkpt>
      <trkpt lat="42.6719110" lon="1.4061960">
        <ele>3063.2</ele>
        <time>2021-08-12T07:49:27Z</time>
      </trkpt>
      <trkpt lat="42.6719300" lon="1.4061230">
        <ele>3062.8</ele>
        <time>2021-08-12T07:49:40Z</time>
      </trkpt>
      <trkpt lat="42.6719310" lon="1.4061100">
        <ele>3062.7</ele>
        <time>2021-08-12T07:49:41Z</time>
      </trkpt>
      <trkpt lat="42.6719290" lon="1.4061190">
        <ele>3062.7</ele>
        <time>2021-08-12T07:51:21Z</time>
      </trkpt>
      <trkpt lat="42.6719510" lon="1.4061390">
        <ele>3062.4</ele>
        <time>2021-08-12T07:51:41Z</time>
      </trkpt>
      <trkpt lat="42.6719670" lon="1.4059640">
        <ele>3061.1</ele>
        <time>2021-08-12T07:52:18Z</time>
      </trkpt>
      <trkpt lat="42.6719690" lon="1.4059540">
        <ele>3061.0</ele>
        <time>2021-08-12T07:52:19Z</time>
      </trkpt>
      <trkpt lat="42.6719790" lon="1.4058930">
        <ele>3060.4</ele>
        <time>2021-08-12T07:52:24Z</time>
      </trkpt>
      <trkpt lat="42.6719770" lon="1.4058820">
        <ele>3060.3</ele>
        <time>2021-08-12T07:52:25Z</time>
      </trkpt>
      <trkpt lat="42.6719760" lon="1.4058710">
        <ele>3060.2</ele>
        <time>2021-08-12T07:52:26Z</time>
      </trkpt>
      <trkpt lat="42.6719700" lon="1.4058570">
        <ele>3060.1</ele>
        <time>2021-08-12T07:52:27Z</time>
      </trkpt>
      <trkpt lat="42.6719650" lon="1.4058360">
        <ele>3059.8</ele>
        <time>2021-08-12T07:52:29Z</time>
      </trkpt>
      <trkpt lat="42.6719600" lon="1.4058030">
        <ele>3059.4</ele>
        <time>2021-08-12T07:52:34Z</time>
      </trkpt>
      <trkpt lat="42.6719580" lon="1.4057910">
        <ele>3059.3</ele>
        <time>2021-08-12T07:52:35Z</time>
      </trkpt>
      <trkpt lat="42.6719570" lon="1.4057600">
        <ele>3059.0</ele>
        <time>2021-08-12T07:52:37Z</time>
      </trkpt>
      <trkpt lat="42.6719640" lon="1.4056980">
        <ele>3058.3</ele>
        <time>2021-08-12T07:52:43Z</time>
      </trkpt>
      <trkpt lat="42.6719800" lon="1.4056090">
        <ele>3057.1</ele>
        <time>2021-08-12T07:52:53Z</time>
      </trkpt>
      <trkpt lat="42.6720090" lon="1.4054960">
        <ele>3055.2</ele>
        <time>2021-08-12T07:53:06Z</time>
      </trkpt>
      <trkpt lat="42.6720200" lon="1.4054210">
        <ele>3053.9</ele>
        <time>2021-08-12T07:53:12Z</time>
      </trkpt>
      <trkpt lat="42.6720160" lon="1.4054140">
        <ele>3053.8</ele>
        <time>2021-08-12T07:53:13Z</time>
      </trkpt>
      <trkpt lat="42.6719860" lon="1.4052000">
        <ele>3050.1</ele>
        <time>2021-08-12T07:53:41Z</time>
      </trkpt>
      <trkpt lat="42.6719880" lon="1.4049640">
        <ele>3046.1</ele>
        <time>2021-08-12T07:54:03Z</time>
      </trkpt>
      <trkpt lat="42.6719860" lon="1.4049540">
        <ele>3045.9</ele>
        <time>2021-08-12T07:54:04Z</time>
      </trkpt>
      <trkpt lat="42.6719850" lon="1.4049410">
        <ele>3045.7</ele>
        <time>2021-08-12T07:54:05Z</time>
      </trkpt>
      <trkpt lat="42.6719850" lon="1.4049300">
        <ele>3045.5</ele>
        <time>2021-08-12T07:54:06Z</time>
      </trkpt>
      <trkpt lat="42.6719940" lon="1.4047330">
        <ele>3042.1</ele>
        <time>2021-08-12T07:54:23Z</time>
      </trkpt>
      <trkpt lat="42.6720030" lon="1.4046930">
        <ele>3041.4</ele>
        <time>2021-08-12T07:54:28Z</time>
      </trkpt>
      <trkpt lat="42.6719970" lon="1.4046540">
        <ele>3040.8</ele>
        <time>2021-08-12T07:54:33Z</time>
      </trkpt>
      <trkpt lat="42.6719530" lon="1.4044190">
        <ele>3036.6</ele>
        <time>2021-08-12T07:55:04Z</time>
      </trkpt>
      <trkpt lat="42.6718870" lon="1.4042330">
        <ele>3033.1</ele>
        <time>2021-08-12T07:55:29Z</time>
      </trkpt>
      <trkpt lat="42.6718630" lon="1.4040030">
        <ele>3029.2</ele>
        <time>2021-08-12T07:55:57Z</time>
      </trkpt>
      <trkpt lat="42.6718060" lon="1.4037690">
        <ele>3025.0</ele>
        <time>2021-08-12T07:56:28Z</time>
      </trkpt>
      <trkpt lat="42.6717800" lon="1.4036820">
        <ele>3023.4</ele>
        <time>2021-08-12T07:56:42Z</time>
      </trkpt>
      <trkpt lat="42.6717690" lon="1.4036060">
        <ele>3022.1</ele>
        <time>2021-08-12T07:56:52Z</time>
      </trkpt>
      <trkpt lat="42.6717670" lon="1.4035970">
        <ele>3021.9</ele>
        <time>2021-08-12T07:56:53Z</time>
      </trkpt>
      <trkpt lat="42.6717670" lon="1.4035760">
        <ele>3021.6</ele>
        <time>2021-08-12T07:56:55Z</time>
      </trkpt>
      <trkpt lat="42.6717700" lon="1.4035340">
        <ele>3020.8</ele>
        <time>2021-08-12T07:56:58Z</time>
      </trkpt>
      <trkpt lat="42.6717700" lon="1.4035200">
        <ele>3020.6</ele>
        <time>2021-08-12T07:56:59Z</time>
      </trkpt>
      <trkpt lat="42.6717690" lon="1.4034990">
        <ele>3020.3</ele>
        <time>2021-08-12T07:57:01Z</time>
      </trkpt>
      <trkpt lat="42.6717660" lon="1.4034440">
        <ele>3019.3</ele>
        <time>2021-08-12T07:57:05Z</time>
      </trkpt>
      <trkpt lat="42.6717520" lon="1.4033920">
        <ele>3018.4</ele>
        <time>2021-08-12T07:57:10Z</time>
      </trkpt>
      <trkpt lat="42.6717530" lon="1.4033650">
        <ele>3017.9</ele>
        <time>2021-08-12T07:57:12Z</time>
      </trkpt>
      <trkpt lat="42.6717520" lon="1.4033380">
        <ele>3017.5</ele>
        <time>2021-08-12T07:57:14Z</time>
      </trkpt>
      <trkpt lat="42.6717390" lon="1.4030960">
        <ele>3013.3</ele>
        <time>2021-08-12T07:57:33Z</time>
      </trkpt>
      <trkpt lat="42.6717920" lon="1.4028730">
        <ele>3009.4</ele>
        <time>2021-08-12T07:57:54Z</time>
      </trkpt>
      <trkpt lat="42.6717360" lon="1.4027380">
        <ele>3006.7</ele>
        <time>2021-08-12T07:58:12Z</time>
      </trkpt>
      <trkpt lat="42.6716320" lon="1.4026030">
        <ele>3003.4</ele>
        <time>2021-08-12T07:58:38Z</time>
      </trkpt>
      <trkpt lat="42.6714700" lon="1.4025620">
        <ele>2999.6</ele>
        <time>2021-08-12T07:59:04Z</time>
      </trkpt>
      <trkpt lat="42.6713650" lon="1.4025990">
        <ele>2997.1</ele>
        <time>2021-08-12T07:59:23Z</time>
      </trkpt>
      <trkpt lat="42.6712820" lon="1.4025310">
        <ele>2994.8</ele>
        <time>2021-08-12T07:59:47Z</time>
      </trkpt>
      <trkpt lat="42.6712780" lon="1.4025320">
        <ele>2994.7</ele>
        <time>2021-08-12T07:59:48Z</time>
      </trkpt>
      <trkpt lat="42.6712710" lon="1.4025390">
        <ele>2994.5</ele>
        <time>2021-08-12T07:59:50Z</time>
      </trkpt>
      <trkpt lat="42.6712680" lon="1.4025440">
        <ele>2994.4</ele>
        <time>2021-08-12T07:59:51Z</time>
      </trkpt>
      <trkpt lat="42.6712560" lon="1.4025480">
        <ele>2994.2</ele>
        <time>2021-08-12T07:59:54Z</time>
      </trkpt>
      <trkpt lat="42.6712520" lon="1.4025550">
        <ele>2994.0</ele>
        <time>2021-08-12T07:59:55Z</time>
      </trkpt>
      <trkpt lat="42.6712200" lon="1.4025660">
        <ele>2993.2</ele>
        <time>2021-08-12T08:00:06Z</time>
      </trkpt>
      <trkpt lat="42.6712130" lon="1.4025630">
        <ele>2993.1</ele>
        <time>2021-08-12T08:00:08Z</time>
      </trkpt>
      <trkpt lat="42.6712110" lon="1.4025620">
        <ele>2993.0</ele>
        <time>2021-08-12T08:00:09Z</time>
      </trkpt>
      <trkpt lat="42.6711860" lon="1.4025740">
        <ele>2992.4</ele>
        <time>2021-08-12T08:00:17Z</time>
      </trkpt>
      <trkpt lat="42.6711780" lon="1.4025830">
        <ele>2992.2</ele>
        <time>2021-08-12T08:00:19Z</time>
      </trkpt>
      <trkpt lat="42.6711350" lon="1.4025830">
        <ele>2991.2</ele>
        <time>2021-08-12T08:00:30Z</time>
      </trkpt>
      <trkpt lat="42.6711240" lon="1.4025340">
        <ele>2990.3</ele>
        <time>2021-08-12T08:00:37Z</time>
      </trkpt>
      <trkpt lat="42.6711040" lon="1.4024750">
        <ele>2989.2</ele>
        <time>2021-08-12T08:00:46Z</time>
      </trkpt>
      <trkpt lat="42.6711050" lon="1.4024520">
        <ele>2988.8</ele>
        <time>2021-08-12T08:00:52Z</time>
      </trkpt>
      <trkpt lat="42.6710850" lon="1.4024230">
        <ele>2988.1</ele>
        <time>2021-08-12T08:01:03Z</time>
      </trkpt>
      <trkpt lat="42.6710600" lon="1.4024310">
        <ele>2987.5</ele>
        <time>2021-08-12T08:01:11Z</time>
      </trkpt>
      <trkpt lat="42.6710320" lon="1.4024420">
        <ele>2986.9</ele>
        <time>2021-08-12T08:01:20Z</time>
      </trkpt>
      <trkpt lat="42.6709570" lon="1.4023090">
        <ele>2984.0</ele>
        <time>2021-08-12T08:01:47Z</time>
      </trkpt>
      <trkpt lat="42.6709460" lon="1.4023120">
        <ele>2983.8</ele>
        <time>2021-08-12T08:01:49Z</time>
      </trkpt>
      <trkpt lat="42.6708910" lon="1.4022610">
        <ele>2982.2</ele>
        <time>2021-08-12T08:02:11Z</time>
      </trkpt>
      <trkpt lat="42.6708630" lon="1.4022080">
        <ele>2981.1</ele>
        <time>2021-08-12T08:02:21Z</time>
      </trkpt>
      <trkpt lat="42.6708610" lon="1.4020030">
        <ele>2975.0</ele>
        <time>2021-08-12T08:02:56Z</time>
      </trkpt>
      <trkpt lat="42.6708860" lon="1.4019510">
        <ele>2973.5</ele>
        <time>2021-08-12T08:03:06Z</time>
      </trkpt>
      <trkpt lat="42.6708820" lon="1.4019380">
        <ele>2973.2</ele>
        <time>2021-08-12T08:03:08Z</time>
      </trkpt>
      <trkpt lat="42.6708820" lon="1.4019290">
        <ele>2973.0</ele>
        <time>2021-08-12T08:03:09Z</time>
      </trkpt>
      <trkpt lat="42.6708870" lon="1.4019200">
        <ele>2972.7</ele>
        <time>2021-08-12T08:03:10Z</time>
      </trkpt>
      <trkpt lat="42.6708910" lon="1.4019060">
        <ele>2972.3</ele>
        <time>2021-08-12T08:03:12Z</time>
      </trkpt>
      <trkpt lat="42.6708950" lon="1.4019020">
        <ele>2972.2</ele>
        <time>2021-08-12T08:03:13Z</time>
      </trkpt>
      <trkpt lat="42.6708990" lon="1.4018990">
        <ele>2972.0</ele>
        <time>2021-08-12T08:03:14Z</time>
      </trkpt>
      <trkpt lat="42.6709050" lon="1.4018960">
        <ele>2971.8</ele>
        <time>2021-08-12T08:03:15Z</time>
      </trkpt>
      <trkpt lat="42.6709270" lon="1.4018830">
        <ele>2971.0</ele>
        <time>2021-08-12T08:03:18Z</time>
      </trkpt>
      <trkpt lat="42.6709330" lon="1.4018750">
        <ele>2970.8</ele>
        <time>2021-08-12T08:03:19Z</time>
      </trkpt>
      <trkpt lat="42.6709620" lon="1.4018430">
        <ele>2969.5</ele>
        <time>2021-08-12T08:03:26Z</time>
      </trkpt>
      <trkpt lat="42.6709790" lon="1.4018190">
        <ele>2968.7</ele>
        <time>2021-08-12T08:03:30Z</time>
      </trkpt>
      <trkpt lat="42.6710000" lon="1.4017860">
        <ele>2967.7</ele>
        <time>2021-08-12T08:03:36Z</time>
      </trkpt>
      <trkpt lat="42.6709330" lon="1.4016930">
        <ele>2964.6</ele>
        <time>2021-08-12T08:03:54Z</time>
      </trkpt>
      <trkpt lat="42.6709650" lon="1.4016130">
        <ele>2962.4</ele>
        <time>2021-08-12T08:04:06Z</time>
      </trkpt>
      <trkpt lat="42.6709560" lon="1.4015840">
        <ele>2961.6</ele>
        <time>2021-08-12T08:04:10Z</time>
      </trkpt>
      <trkpt lat="42.6709440" lon="1.4015730">
        <ele>2961.2</ele>
        <time>2021-08-12T08:04:13Z</time>
      </trkpt>
      <trkpt lat="42.6709390" lon="1.4015670">
        <ele>2961.0</ele>
        <time>2021-08-12T08:04:15Z</time>
      </trkpt>
      <trkpt lat="42.6709320" lon="1.4015630">
        <ele>2960.7</ele>
        <time>2021-08-12T08:04:16Z</time>
      </trkpt>
      <trkpt lat="42.6709220" lon="1.4015560">
        <ele>2960.3</ele>
        <time>2021-08-12T08:04:18Z</time>
      </trkpt>
      <trkpt lat="42.6709170" lon="1.4015510">
        <ele>2960.1</ele>
        <time>2021-08-12T08:04:19Z</time>
      </trkpt>
      <trkpt lat="42.6709150" lon="1.4015450">
        <ele>2960.0</ele>
        <time>2021-08-12T08:04:20Z</time>
      </trkpt>
      <trkpt lat="42.6709270" lon="1.4015130">
        <ele>2959.1</ele>
        <time>2021-08-12T08:04:25Z</time>
      </trkpt>
      <trkpt lat="42.6709180" lon="1.4015060">
        <ele>2958.8</ele>
        <time>2021-08-12T08:04:28Z</time>
      </trkpt>
      <trkpt lat="42.6708720" lon="1.4014700">
        <ele>2957.1</ele>
        <time>2021-08-12T08:04:40Z</time>
      </trkpt>
      <trkpt lat="42.6708750" lon="1.4014190">
        <ele>2955.8</ele>
        <time>2021-08-12T08:04:49Z</time>
      </trkpt>
      <trkpt lat="42.6708930" lon="1.4013720">
        <ele>2954.6</ele>
        <time>2021-08-12T08:04:58Z</time>
      </trkpt>
      <trkpt lat="42.6708790" lon="1.4012700">
        <ele>2952.1</ele>
        <time>2021-08-12T08:05:12Z</time>
      </trkpt>
      <trkpt lat="42.6708790" lon="1.4012220">
        <ele>2950.9</ele>
        <time>2021-08-12T08:05:21Z</time>
      </trkpt>
      <trkpt lat="42.6708820" lon="1.4012090">
        <ele>2950.6</ele>
        <time>2021-08-12T08:05:26Z</time>
      </trkpt>
      <trkpt lat="42.6708630" lon="1.4011940">
        <ele>2949.9</ele>
        <time>2021-08-12T08:05:36Z</time>
      </trkpt>
      <trkpt lat="42.6708450" lon="1.4011670">
        <ele>2949.0</ele>
        <time>2021-08-12T08:05:43Z</time>
      </trkpt>
      <trkpt lat="42.6708480" lon="1.4011580">
        <ele>2948.8</ele>
        <time>2021-08-12T08:05:45Z</time>
      </trkpt>
      <trkpt lat="42.6708480" lon="1.4011530">
        <ele>2948.7</ele>
        <time>2021-08-12T08:05:46Z</time>
      </trkpt>
      <trkpt lat="42.6708430" lon="1.4011490">
        <ele>2948.5</ele>
        <time>2021-08-12T08:05:47Z</time>
      </trkpt>
      <trkpt lat="42.6708730" lon="1.4011040">
        <ele>2947.0</ele>
        <time>2021-08-12T08:05:52Z</time>
      </trkpt>
      <trkpt lat="42.6708800" lon="1.4010680">
        <ele>2946.1</ele>
        <time>2021-08-12T08:05:56Z</time>
      </trkpt>
      <trkpt lat="42.6708810" lon="1.4010600">
        <ele>2945.9</ele>
        <time>2021-08-12T08:05:57Z</time>
      </trkpt>
      <trkpt lat="42.6708620" lon="1.4009940">
        <ele>2944.2</ele>
        <time>2021-08-12T08:06:06Z</time>
      </trkpt>
      <trkpt lat="42.6708460" lon="1.4009450">
        <ele>2942.9</ele>
        <time>2021-08-12T08:06:11Z</time>
      </trkpt>
      <trkpt lat="42.6708490" lon="1.4008950">
        <ele>2941.7</ele>
        <time>2021-08-12T08:06:16Z</time>
      </trkpt>
      <trkpt lat="42.6708500" lon="1.4008820">
        <ele>2941.4</ele>
        <time>2021-08-12T08:06:18Z</time>
      </trkpt>
      <trkpt lat="42.6708540" lon="1.4008720">
        <ele>2941.2</ele>
        <time>2021-08-12T08:06:19Z</time>
      </trkpt>
      <trkpt lat="42.6708630" lon="1.4008650">
        <ele>2940.8</ele>
        <time>2021-08-12T08:06:20Z</time>
      </trkpt>
      <trkpt lat="42.6709340" lon="1.4007740">
        <ele>2937.6</ele>
        <time>2021-08-12T08:06:36Z</time>
      </trkpt>
      <trkpt lat="42.6709450" lon="1.4007880">
        <ele>2937.2</ele>
        <time>2021-08-12T08:06:42Z</time>
      </trkpt>
      <trkpt lat="42.6709780" lon="1.4007390">
        <ele>2935.6</ele>
        <time>2021-08-12T08:06:50Z</time>
      </trkpt>
      <trkpt lat="42.6710270" lon="1.4006970">
        <ele>2933.7</ele>
        <time>2021-08-12T08:06:56Z</time>
      </trkpt>
      <trkpt lat="42.6710470" lon="1.4006820">
        <ele>2932.9</ele>
        <time>2021-08-12T08:06:59Z</time>
      </trkpt>
      <trkpt lat="42.6710850" lon="1.4006650">
        <ele>2931.6</ele>
        <time>2021-08-12T08:07:14Z</time>
      </trkpt>
      <trkpt lat="42.6711040" lon="1.4006060">
        <ele>2930.1</ele>
        <time>2021-08-12T08:07:21Z</time>
      </trkpt>
      <trkpt lat="42.6711240" lon="1.4005590">
        <ele>2928.8</ele>
        <time>2021-08-12T08:07:25Z</time>
      </trkpt>
      <trkpt lat="42.6711380" lon="1.4005260">
        <ele>2927.9</ele>
        <time>2021-08-12T08:07:28Z</time>
      </trkpt>
      <trkpt lat="42.6711550" lon="1.4005040">
        <ele>2927.1</ele>
        <time>2021-08-12T08:07:31Z</time>
      </trkpt>
      <trkpt lat="42.6711690" lon="1.4004590">
        <ele>2925.9</ele>
        <time>2021-08-12T08:07:37Z</time>
      </trkpt>
      <trkpt lat="42.6711720" lon="1.4004530">
        <ele>2925.8</ele>
        <time>2021-08-12T08:07:38Z</time>
      </trkpt>
      <trkpt lat="42.6711670" lon="1.4004410">
        <ele>2925.4</ele>
        <time>2021-08-12T08:07:39Z</time>
      </trkpt>
      <trkpt lat="42.6711680" lon="1.4004300">
        <ele>2925.2</ele>
        <time>2021-08-12T08:07:40Z</time>
      </trkpt>
      <trkpt lat="42.6711700" lon="1.4004050">
        <ele>2924.6</ele>
        <time>2021-08-12T08:07:44Z</time>
      </trkpt>
      <trkpt lat="42.6711690" lon="1.4003860">
        <ele>2924.1</ele>
        <time>2021-08-12T08:07:47Z</time>
      </trkpt>
      <trkpt lat="42.6711820" lon="1.4003070">
        <ele>2922.2</ele>
        <time>2021-08-12T08:07:56Z</time>
      </trkpt>
      <trkpt lat="42.6711930" lon="1.4002710">
        <ele>2921.2</ele>
        <time>2021-08-12T08:08:01Z</time>
      </trkpt>
      <trkpt lat="42.6712120" lon="1.4002150">
        <ele>2919.8</ele>
        <time>2021-08-12T08:08:08Z</time>
      </trkpt>
      <trkpt lat="42.6712280" lon="1.4001940">
        <ele>2919.0</ele>
        <time>2021-08-12T08:08:12Z</time>
      </trkpt>
      <trkpt lat="42.6712350" lon="1.4001660">
        <ele>2918.3</ele>
        <time>2021-08-12T08:08:15Z</time>
      </trkpt>
      <trkpt lat="42.6712660" lon="1.4000620">
        <ele>2915.6</ele>
        <time>2021-08-12T08:08:48Z</time>
      </trkpt>
      <trkpt lat="42.6712790" lon="1.4000310">
        <ele>2914.8</ele>
        <time>2021-08-12T08:08:53Z</time>
      </trkpt>
      <trkpt lat="42.6712830" lon="1.4000250">
        <ele>2914.6</ele>
        <time>2021-08-12T08:08:54Z</time>
      </trkpt>
      <trkpt lat="42.6712880" lon="1.4000150">
        <ele>2914.3</ele>
        <time>2021-08-12T08:08:55Z</time>
      </trkpt>
      <trkpt lat="42.6712890" lon="1.4000030">
        <ele>2914.0</ele>
        <time>2021-08-12T08:08:59Z</time>
      </trkpt>
      <trkpt lat="42.6712870" lon="1.4000030">
        <ele>2913.9</ele>
        <time>2021-08-12T08:09:00Z</time>
      </trkpt>
      <trkpt lat="42.6712830" lon="1.4000030">
        <ele>2913.8</ele>
        <time>2021-08-12T08:09:01Z</time>
      </trkpt>
      <trkpt lat="42.6712770" lon="1.4000030">
        <ele>2913.6</ele>
        <time>2021-08-12T08:09:03Z</time>
      </trkpt>
      <trkpt lat="42.6712700" lon="1.3999930">
        <ele>2913.3</ele>
        <time>2021-08-12T08:09:06Z</time>
      </trkpt>
      <trkpt lat="42.6712630" lon="1.3999900">
        <ele>2913.0</ele>
        <time>2021-08-12T08:09:07Z</time>
      </trkpt>
      <trkpt lat="42.6712610" lon="1.3999900">
        <ele>2913.0</ele>
        <time>2021-08-12T08:09:08Z</time>
      </trkpt>
      <trkpt lat="42.6712570" lon="1.3999870">
        <ele>2912.8</ele>
        <time>2021-08-12T08:09:10Z</time>
      </trkpt>
      <trkpt lat="42.6712510" lon="1.3999910">
        <ele>2912.6</ele>
        <time>2021-08-12T08:09:17Z</time>
      </trkpt>
      <trkpt lat="42.6712560" lon="1.3999920">
        <ele>2912.5</ele>
        <time>2021-08-12T08:09:31Z</time>
      </trkpt>
      <trkpt lat="42.6712490" lon="1.3999970">
        <ele>2912.2</ele>
        <time>2021-08-12T08:09:39Z</time>
      </trkpt>
      <trkpt lat="42.6712340" lon="1.3999930">
        <ele>2911.7</ele>
        <time>2021-08-12T08:09:44Z</time>
      </trkpt>
      <trkpt lat="42.6712290" lon="1.3999860">
        <ele>2911.5</ele>
        <time>2021-08-12T08:09:49Z</time>
      </trkpt>
      <trkpt lat="42.6712290" lon="1.3999860">
        <ele>2911.5</ele>
        <time>2021-08-12T08:09:55Z</time>
      </trkpt>
      <trkpt lat="42.6712230" lon="1.3999740">
        <ele>2911.1</ele>
        <time>2021-08-12T08:09:59Z</time>
      </trkpt>
      <trkpt lat="42.6712010" lon="1.3999580">
        <ele>2911.1</ele>
        <time>2021-08-12T08:10:03Z</time>
      </trkpt>
      <trkpt lat="42.6711820" lon="1.3999460">
        <ele>2911.0</ele>
        <time>2021-08-12T08:10:11Z</time>
      </trkpt>
      <trkpt lat="42.6711720" lon="1.3999410">
        <ele>2911.0</ele>
        <time>2021-08-12T08:10:20Z</time>
      </trkpt>
      <trkpt lat="42.6711750" lon="1.3999450">
        <ele>2911.0</ele>
        <time>2021-08-12T08:10:28Z</time>
      </trkpt>
      <trkpt lat="42.6711930" lon="1.3999540">
        <ele>2910.9</ele>
        <time>2021-08-12T08:10:39Z</time>
      </trkpt>
      <trkpt lat="42.6711950" lon="1.3999590">
        <ele>2910.9</ele>
        <time>2021-08-12T08:10:48Z</time>
      </trkpt>
      <trkpt lat="42.6711960" lon="1.3999630">
        <ele>2910.9</ele>
        <time>2021-08-12T08:10:51Z</time>
      </trkpt>
      <trkpt lat="42.6712040" lon="1.3999660">
        <ele>2910.9</ele>
        <time>2021-08-12T08:11:01Z</time>
      </trkpt>
      <trkpt lat="42.6712060" lon="1.3999670">
        <ele>2910.9</ele>
        <time>2021-08-12T08:11:03Z</time>
      </trkpt>
      <trkpt lat="42.6711870" lon="1.3999550">
        <ele>2910.9</ele>
        <time>2021-08-12T08:11:46Z</time>
      </trkpt>
      <trkpt lat="42.6712070" lon="1.3999340">
        <ele>2910.8</ele>
        <time>2021-08-12T08:12:11Z</time>
      </trkpt>
      <trkpt lat="42.6712050" lon="1.3999430">
        <ele>2910.8</ele>
        <time>2021-08-12T08:12:38Z</time>
      </trkpt>
      <trkpt lat="42.6711980" lon="1.3999400">
        <ele>2910.8</ele>
        <time>2021-08-12T08:12:42Z</time>
      </trkpt>
      <trkpt lat="42.6711940" lon="1.3999420">
        <ele>2910.7</ele>
        <time>2021-08-12T08:12:45Z</time>
      </trkpt>
      <trkpt lat="42.6711990" lon="1.3999540">
        <ele>2910.7</ele>
        <time>2021-08-12T08:12:52Z</time>
      </trkpt>
      <trkpt lat="42.6711980" lon="1.3999470">
        <ele>2910.7</ele>
        <time>2021-08-12T08:13:04Z</time>
      </trkpt>
      <trkpt lat="42.6711990" lon="1.3999470">
        <ele>2910.7</ele>
        <time>2021-08-12T08:13:05Z</time>
      </trkpt>
      <trkpt lat="42.6712000" lon="1.3999450">
        <ele>2910.7</ele>
        <time>2021-08-12T08:13:06Z</time>
      </trkpt>
      <trkpt lat="42.6712070" lon="1.3999470">
        <ele>2910.7</ele>
        <time>2021-08-12T08:13:15Z</time>
      </trkpt>
      <trkpt lat="42.6712000" lon="1.3999330">
        <ele>2910.6</ele>
        <time>2021-08-12T08:13:33Z</time>
      </trkpt>
      <trkpt lat="42.6712320" lon="1.3999490">
        <ele>2910.6</ele>
        <time>2021-08-12T08:13:58Z</time>
      </trkpt>
      <trkpt lat="42.6712180" lon="1.3999330">
        <ele>2910.5</ele>
        <time>2021-08-12T08:14:09Z</time>
      </trkpt>
      <trkpt lat="42.6712260" lon="1.3999630">
        <ele>2910.5</ele>
        <time>2021-08-12T08:14:53Z</time>
      </trkpt>
      <trkpt lat="42.6712260" lon="1.3999610">
        <ele>2910.4</ele>
        <time>2021-08-12T08:15:12Z</time>
      </trkpt>
      <trkpt lat="42.6712160" lon="1.3999630">
        <ele>2910.4</ele>
        <time>2021-08-12T08:15:45Z</time>
      </trkpt>
      <trkpt lat="42.6712160" lon="1.3999670">
        <ele>2910.4</ele>
        <time>2021-08-12T08:15:56Z</time>
      </trkpt>
      <trkpt lat="42.6712090" lon="1.3999750">
        <ele>2910.4</ele>
        <time>2021-08-12T08:16:08Z</time>
      </trkpt>
      <trkpt lat="42.6712230" lon="1.3999860">
        <ele>2910.3</ele>
        <time>2021-08-12T08:16:21Z</time>
      </trkpt>
      <trkpt lat="42.6712500" lon="1.3999880">
        <ele>2910.3</ele>
        <time>2021-08-12T08:16:40Z</time>
      </trkpt>
      <trkpt lat="42.6712500" lon="1.3999870">
        <ele>2910.3</ele>
        <time>2021-08-12T08:16:41Z</time>
      </trkpt>
      <trkpt lat="42.6712490" lon="1.3999850">
        <ele>2910.3</ele>
        <time>2021-08-12T08:16:44Z</time>
      </trkpt>
      <trkpt lat="42.6712510" lon="1.3999850">
        <ele>2910.3</ele>
        <time>2021-08-12T08:16:49Z</time>
      </trkpt>
      <trkpt lat="42.6712520" lon="1.3999820">
        <ele>2910.3</ele>
        <time>2021-08-12T08:16:54Z</time>
      </trkpt>
      <trkpt lat="42.6712300" lon="1.3999710">
        <ele>2910.2</ele>
        <time>2021-08-12T08:17:04Z</time>
      </trkpt>
      <trkpt lat="42.6712290" lon="1.3999690">
        <ele>2910.2</ele>
        <time>2021-08-12T08:17:08Z</time>
      </trkpt>
      <trkpt lat="42.6712280" lon="1.3999680">
        <ele>2910.2</ele>
        <time>2021-08-12T08:17:10Z</time>
      </trkpt>
      <trkpt lat="42.6712240" lon="1.3999720">
        <ele>2910.2</ele>
        <time>2021-08-12T08:17:21Z</time>
      </trkpt>
      <trkpt lat="42.6712230" lon="1.3999760">
        <ele>2910.2</ele>
        <time>2021-08-12T08:17:24Z</time>
      </trkpt>
      <trkpt lat="42.6712220" lon="1.3999760">
        <ele>2910.2</ele>
        <time>2021-08-12T08:17:25Z</time>
      </trkpt>
      <trkpt lat="42.6712230" lon="1.3999770">
        <ele>2910.2</ele>
        <time>2021-08-12T08:17:26Z</time>
      </trkpt>
      <trkpt lat="42.6712210" lon="1.3999730">
        <ele>2910.2</ele>
        <time>2021-08-12T08:17:31Z</time>
      </trkpt>
      <trkpt lat="42.6712220" lon="1.3999690">
        <ele>2910.2</ele>
        <time>2021-08-12T08:17:33Z</time>
      </trkpt>
      <trkpt lat="42.6712210" lon="1.3999670">
        <ele>2910.1</ele>
        <time>2021-08-12T08:17:37Z</time>
      </trkpt>
      <trkpt lat="42.6711990" lon="1.3999310">
        <ele>2910.1</ele>
        <time>2021-08-12T08:18:43Z</time>
      </trkpt>
      <trkpt lat="42.6711880" lon="1.3999270">
        <ele>2910.0</ele>
        <time>2021-08-12T08:18:52Z</time>
      </trkpt>
      <trkpt lat="42.6711950" lon="1.3999280">
        <ele>2910.0</ele>
        <time>2021-08-12T08:19:03Z</time>
      </trkpt>
      <trkpt lat="42.6712120" lon="1.3999460">
        <ele>2910.0</ele>
        <time>2021-08-12T08:19:19Z</time>
      </trkpt>
      <trkpt lat="42.6711990" lon="1.3999480">
        <ele>2909.9</ele>
        <time>2021-08-12T08:19:29Z</time>
      </trkpt>
      <trkpt lat="42.6712240" lon="1.3999620">
        <ele>2909.9</ele>
        <time>2021-08-12T08:19:50Z</time>
      </trkpt>
      <trkpt lat="42.6712280" lon="1.3999590">
        <ele>2909.8</ele>
        <time>2021-08-12T08:20:01Z</time>
      </trkpt>
      <trkpt lat="42.6712220" lon="1.3999550">
        <ele>2909.8</ele>
        <time>2021-08-12T08:20:03Z</time>
      </trkpt>
      <trkpt lat="42.6712180" lon="1.3999510">
        <ele>2909.8</ele>
        <time>2021-08-12T08:20:05Z</time>
      </trkpt>
      <trkpt lat="42.6711940" lon="1.4000090">
        <ele>2909.7</ele>
        <time>2021-08-12T08:21:44Z</time>
      </trkpt>
      <trkpt lat="42.6712050" lon="1.3999660">
        <ele>2909.6</ele>
        <time>2021-08-12T08:22:21Z</time>
      </trkpt>
      <trkpt lat="42.6711990" lon="1.3999610">
        <ele>2909.6</ele>
        <time>2021-08-12T08:23:00Z</time>
      </trkpt>
      <trkpt lat="42.6711960" lon="1.3999570">
        <ele>2909.6</ele>
        <time>2021-08-12T08:23:08Z</time>
      </trkpt>
      <trkpt lat="42.6711990" lon="1.3999580">
        <ele>2909.6</ele>
        <time>2021-08-12T08:23:10Z</time>
      </trkpt>
      <trkpt lat="42.6711990" lon="1.3999560">
        <ele>2909.6</ele>
        <time>2021-08-12T08:23:11Z</time>
      </trkpt>
      <trkpt lat="42.6711920" lon="1.3999440">
        <ele>2909.5</ele>
        <time>2021-08-12T08:23:13Z</time>
      </trkpt>
      <trkpt lat="42.6711910" lon="1.3999390">
        <ele>2909.5</ele>
        <time>2021-08-12T08:23:14Z</time>
      </trkpt>
      <trkpt lat="42.6711850" lon="1.3999290">
        <ele>2909.5</ele>
        <time>2021-08-12T08:23:19Z</time>
      </trkpt>
      <trkpt lat="42.6711840" lon="1.3999300">
        <ele>2909.5</ele>
        <time>2021-08-12T08:23:20Z</time>
      </trkpt>
      <trkpt lat="42.6711810" lon="1.3999320">
        <ele>2909.5</ele>
        <time>2021-08-12T08:23:22Z</time>
      </trkpt>
      <trkpt lat="42.6711660" lon="1.3999420">
        <ele>2909.4</ele>
        <time>2021-08-12T08:23:36Z</time>
      </trkpt>
      <trkpt lat="42.6711570" lon="1.3999270">
        <ele>2909.4</ele>
        <time>2021-08-12T08:23:56Z</time>
      </trkpt>
      <trkpt lat="42.6711590" lon="1.3999280">
        <ele>2909.4</ele>
        <time>2021-08-12T08:23:57Z</time>
      </trkpt>
      <trkpt lat="42.6711700" lon="1.3999440">
        <ele>2909.4</ele>
        <time>2021-08-12T08:24:01Z</time>
      </trkpt>
      <trkpt lat="42.6711530" lon="1.3999180">
        <ele>2909.3</ele>
        <time>2021-08-12T08:24:16Z</time>
      </trkpt>
      <trkpt lat="42.6711550" lon="1.3999150">
        <ele>2909.3</ele>
        <time>2021-08-12T08:24:17Z</time>
      </trkpt>
      <trkpt lat="42.6711960" lon="1.3999640">
        <ele>2909.2</ele>
        <time>2021-08-12T08:24:35Z</time>
      </trkpt>
      <trkpt lat="42.6712120" lon="1.3999790">
        <ele>2909.1</ele>
        <time>2021-08-12T08:24:48Z</time>
      </trkpt>
      <trkpt lat="42.6712250" lon="1.3999700">
        <ele>2909.1</ele>
        <time>2021-08-12T08:25:25Z</time>
      </trkpt>
      <trkpt lat="42.6712090" lon="1.3999610">
        <ele>2909.0</ele>
        <time>2021-08-12T08:26:08Z</time>
      </trkpt>
      <trkpt lat="42.6712000" lon="1.3999710">
        <ele>2909.0</ele>
        <time>2021-08-12T08:26:58Z</time>
      </trkpt>
      <trkpt lat="42.6711980" lon="1.3999660">
        <ele>2909.0</ele>
        <time>2021-08-12T08:27:01Z</time>
      </trkpt>
      <trkpt lat="42.6712010" lon="1.3999700">
        <ele>2909.0</ele>
        <time>2021-08-12T08:27:04Z</time>
      </trkpt>
      <trkpt lat="42.6712010" lon="1.3999710">
        <ele>2909.0</ele>
        <time>2021-08-12T08:27:05Z</time>
      </trkpt>
      <trkpt lat="42.6712040" lon="1.3999750">
        <ele>2909.0</ele>
        <time>2021-08-12T08:27:07Z</time>
      </trkpt>
      <trkpt lat="42.6712130" lon="1.3999730">
        <ele>2908.9</ele>
        <time>2021-08-12T08:27:12Z</time>
      </trkpt>
      <trkpt lat="42.6712170" lon="1.3999950">
        <ele>2908.9</ele>
        <time>2021-08-12T08:27:22Z</time>
      </trkpt>
      <trkpt lat="42.6712150" lon="1.3999960">
        <ele>2908.9</ele>
        <time>2021-08-12T08:27:23Z</time>
      </trkpt>
      <trkpt lat="42.6712140" lon="1.4000000">
        <ele>2908.9</ele>
        <time>2021-08-12T08:27:24Z</time>
      </trkpt>
      <trkpt lat="42.6712110" lon="1.4000030">
        <ele>2908.9</ele>
        <time>2021-08-12T08:27:25Z</time>
      </trkpt>
      <trkpt lat="42.6712070" lon="1.3999980">
        <ele>2908.9</ele>
        <time>2021-08-12T08:27:26Z</time>
      </trkpt>
      <trkpt lat="42.6712040" lon="1.3999860">
        <ele>2908.8</ele>
        <time>2021-08-12T08:27:27Z</time>
      </trkpt>
      <trkpt lat="42.6712040" lon="1.3999830">
        <ele>2908.8</ele>
        <time>2021-08-12T08:27:28Z</time>
      </trkpt>
      <trkpt lat="42.6712030" lon="1.3999660">
        <ele>2908.8</ele>
        <time>2021-08-12T08:27:31Z</time>
      </trkpt>
      <trkpt lat="42.6712010" lon="1.3999650">
        <ele>2908.8</ele>
        <time>2021-08-12T08:27:34Z</time>
      </trkpt>
      <trkpt lat="42.6712010" lon="1.3999640">
        <ele>2908.8</ele>
        <time>2021-08-12T08:27:35Z</time>
      </trkpt>
      <trkpt lat="42.6711920" lon="1.3999570">
        <ele>2908.8</ele>
        <time>2021-08-12T08:27:40Z</time>
      </trkpt>
      <trkpt lat="42.6711750" lon="1.3999480">
        <ele>2908.7</ele>
        <time>2021-08-12T08:27:47Z</time>
      </trkpt>
      <trkpt lat="42.6711530" lon="1.3999240">
        <ele>2908.6</ele>
        <time>2021-08-12T08:28:02Z</time>
      </trkpt>
      <trkpt lat="42.6711680" lon="1.3999350">
        <ele>2908.6</ele>
        <time>2021-08-12T08:28:11Z</time>
      </trkpt>
      <trkpt lat="42.6711930" lon="1.3999510">
        <ele>2908.5</ele>
        <time>2021-08-12T08:28:20Z</time>
      </trkpt>
      <trkpt lat="42.6711980" lon="1.3999390">
        <ele>2908.5</ele>
        <time>2021-08-12T08:28:32Z</time>
      </trkpt>
      <trkpt lat="42.6711930" lon="1.3999440">
        <ele>2908.5</ele>
        <time>2021-08-12T08:28:38Z</time>
      </trkpt>
      <trkpt lat="42.6711850" lon="1.3999670">
        <ele>2908.4</ele>
        <time>2021-08-12T08:28:45Z</time>
      </trkpt>
      <trkpt lat="42.6711730" lon="1.3999490">
        <ele>2908.4</ele>
        <time>2021-08-12T08:28:52Z</time>
      </trkpt>
      <trkpt lat="42.6711770" lon="1.3999570">
        <ele>2908.4</ele>
        <time>2021-08-12T08:28:59Z</time>
      </trkpt>
      <trkpt lat="42.6711790" lon="1.3999610">
        <ele>2908.4</ele>
        <time>2021-08-12T08:29:00Z</time>
      </trkpt>
      <trkpt lat="42.6711930" lon="1.3999800">
        <ele>2908.3</ele>
        <time>2021-08-12T08:29:09Z</time>
      </trkpt>
      <trkpt lat="42.6712140" lon="1.3999780">
        <ele>2908.3</ele>
        <time>2021-08-12T08:29:19Z</time>
      </trkpt>
      <trkpt lat="42.6712090" lon="1.3999770">
        <ele>2908.3</ele>
        <time>2021-08-12T08:29:27Z</time>
      </trkpt>
      <trkpt lat="42.6712070" lon="1.3999760">
        <ele>2908.2</ele>
        <time>2021-08-12T08:29:28Z</time>
      </trkpt>
      <trkpt lat="42.6711980" lon="1.3999760">
        <ele>2908.2</ele>
        <time>2021-08-12T08:29:35Z</time>
      </trkpt>
      <trkpt lat="42.6712070" lon="1.3999800">
        <ele>2908.2</ele>
        <time>2021-08-12T08:29:54Z</time>
      </trkpt>
      <trkpt lat="42.6712100" lon="1.3999770">
        <ele>2908.2</ele>
        <time>2021-08-12T08:29:57Z</time>
      </trkpt>
      <trkpt lat="42.6712160" lon="1.3999770">
        <ele>2908.2</ele>
        <time>2021-08-12T08:30:03Z</time>
      </trkpt>
      <trkpt lat="42.6712100" lon="1.3999760">
        <ele>2908.2</ele>
        <time>2021-08-12T08:30:28Z</time>
      </trkpt>
      <trkpt lat="42.6711690" lon="1.3999290">
        <ele>2908.0</ele>
        <time>2021-08-12T08:31:19Z</time>
      </trkpt>
      <trkpt lat="42.6711890" lon="1.3999600">
        <ele>2908.0</ele>
        <time>2021-08-12T08:31:39Z</time>
      </trkpt>
      <trkpt lat="42.6711680" lon="1.3999430">
        <ele>2907.9</ele>
        <time>2021-08-12T08:33:08Z</time>
      </trkpt>
      <trkpt lat="42.6711630" lon="1.3999370">
        <ele>2907.9</ele>
        <time>2021-08-12T08:33:16Z</time>
      </trkpt>
      <trkpt lat="42.6711890" lon="1.3999330">
        <ele>2907.8</ele>
        <time>2021-08-12T08:33:38Z</time>
      </trkpt>
      <trkpt lat="42.6711920" lon="1.3999290">
        <ele>2907.8</ele>
        <time>2021-08-12T08:33:50Z</time>
      </trkpt>
      <trkpt lat="42.6711860" lon="1.3999440">
        <ele>2907.8</ele>
        <time>2021-08-12T08:34:00Z</time>
      </trkpt>
      <trkpt lat="42.6711860" lon="1.3999310">
        <ele>2907.8</ele>
        <time>2021-08-12T08:34:13Z</time>
      </trkpt>
      <trkpt lat="42.6711780" lon="1.3999510">
        <ele>2907.7</ele>
        <time>2021-08-12T08:34:27Z</time>
      </trkpt>
      <trkpt lat="42.6711750" lon="1.3999560">
        <ele>2907.7</ele>
        <time>2021-08-12T08:34:32Z</time>
      </trkpt>
      <trkpt lat="42.6711760" lon="1.3999580">
        <ele>2907.7</ele>
        <time>2021-08-12T08:34:34Z</time>
      </trkpt>
      <trkpt lat="42.6711780" lon="1.3999610">
        <ele>2907.7</ele>
        <time>2021-08-12T08:34:36Z</time>
      </trkpt>
      <trkpt lat="42.6711870" lon="1.3999650">
        <ele>2907.7</ele>
        <time>2021-08-12T08:34:38Z</time>
      </trkpt>
      <trkpt lat="42.6711940" lon="1.3999630">
        <ele>2907.7</ele>
        <time>2021-08-12T08:35:04Z</time>
      </trkpt>
      <trkpt lat="42.6711960" lon="1.3999670">
        <ele>2907.7</ele>
        <time>2021-08-12T08:35:10Z</time>
      </trkpt>
      <trkpt lat="42.6712370" lon="1.3999070">
        <ele>2907.5</ele>
        <time>2021-08-12T08:36:05Z</time>
      </trkpt>
      <trkpt lat="42.6711960" lon="1.3998700">
        <ele>2907.4</ele>
        <time>2021-08-12T08:36:19Z</time>
      </trkpt>
      <trkpt lat="42.6711750" lon="1.3998510">
        <ele>2907.3</ele>
        <time>2021-08-12T08:36:50Z</time>
      </trkpt>
      <trkpt lat="42.6711690" lon="1.3998480">
        <ele>2907.3</ele>
        <time>2021-08-12T08:36:58Z</time>
      </trkpt>
      <trkpt lat="42.6711690" lon="1.3998600">
        <ele>2907.3</ele>
        <time>2021-08-12T08:37:11Z</time>
      </trkpt>
      <trkpt lat="42.6711790" lon="1.3998530">
        <ele>2907.3</ele>
        <time>2021-08-12T08:37:27Z</time>
      </trkpt>
      <trkpt lat="42.6712510" lon="1.3998960">
        <ele>2907.1</ele>
        <time>2021-08-12T08:37:40Z</time>
      </trkpt>
      <trkpt lat="42.6712500" lon="1.3998950">
        <ele>2907.1</ele>
        <time>2021-08-12T08:37:41Z</time>
      </trkpt>
      <trkpt lat="42.6712510" lon="1.3999000">
        <ele>2907.1</ele>
        <time>2021-08-12T08:37:42Z</time>
      </trkpt>
      <trkpt lat="42.6712540" lon="1.3999200">
        <ele>2907.1</ele>
        <time>2021-08-12T08:37:45Z</time>
      </trkpt>
      <trkpt lat="42.6712550" lon="1.3999250">
        <ele>2907.0</ele>
        <time>2021-08-12T08:37:46Z</time>
      </trkpt>
      <trkpt lat="42.6712560" lon="1.3999300">
        <ele>2907.0</ele>
        <time>2021-08-12T08:37:47Z</time>
      </trkpt>
      <trkpt lat="42.6712530" lon="1.3999420">
        <ele>2907.0</ele>
        <time>2021-08-12T08:37:49Z</time>
      </trkpt>
      <trkpt lat="42.6712270" lon="1.3999730">
        <ele>2906.9</ele>
        <time>2021-08-12T08:37:57Z</time>
      </trkpt>
      <trkpt lat="42.6712110" lon="1.3999700">
        <ele>2906.9</ele>
        <time>2021-08-12T08:38:03Z</time>
      </trkpt>
      <trkpt lat="42.6712050" lon="1.3999720">
        <ele>2906.9</ele>
        <time>2021-08-12T08:38:11Z</time>
      </trkpt>
      <trkpt lat="42.6712000" lon="1.3999710">
        <ele>2906.9</ele>
        <time>2021-08-12T08:38:17Z</time>
      </trkpt>
      <trkpt lat="42.6711920" lon="1.3999660">
        <ele>2906.9</ele>
        <time>2021-08-12T08:38:21Z</time>
      </trkpt>
      <trkpt lat="42.6711760" lon="1.3999680">
        <ele>2906.8</ele>
        <time>2021-08-12T08:38:33Z</time>
      </trkpt>
      <trkpt lat="42.6711640" lon="1.3999790">
        <ele>2906.8</ele>
        <time>2021-08-12T08:38:35Z</time>
      </trkpt>
      <trkpt lat="42.6711540" lon="1.3999810">
        <ele>2906.8</ele>
        <time>2021-08-12T08:38:37Z</time>
      </trkpt>
      <trkpt lat="42.6711540" lon="1.3999650">
        <ele>2906.7</ele>
        <time>2021-08-12T08:38:42Z</time>
      </trkpt>
      <trkpt lat="42.6712060" lon="1.3999560">
        <ele>2906.6</ele>
        <time>2021-08-12T08:38:54Z</time>
      </trkpt>
      <trkpt lat="42.6712180" lon="1.3999530">
        <ele>2906.6</ele>
        <time>2021-08-12T08:39:00Z</time>
      </trkpt>
      <trkpt lat="42.6712540" lon="1.3999610">
        <ele>2906.5</ele>
        <time>2021-08-12T08:39:05Z</time>
      </trkpt>
      <trkpt lat="42.6713020" lon="1.3999840">
        <ele>2906.4</ele>
        <time>2021-08-12T08:39:12Z</time>
      </trkpt>
      <trkpt lat="42.6713060" lon="1.3999820">
        <ele>2906.4</ele>
        <time>2021-08-12T08:39:17Z</time>
      </trkpt>
      <trkpt lat="42.6712870" lon="1.3999700">
        <ele>2906.4</ele>
        <time>2021-08-12T08:39:21Z</time>
      </trkpt>
      <trkpt lat="42.6712800" lon="1.3999680">
        <ele>2906.3</ele>
        <time>2021-08-12T08:39:23Z</time>
      </trkpt>
      <trkpt lat="42.6712620" lon="1.3999680">
        <ele>2906.3</ele>
        <time>2021-08-12T08:39:35Z</time>
      </trkpt>
      <trkpt lat="42.6712510" lon="1.3999710">
        <ele>2906.3</ele>
        <time>2021-08-12T08:39:40Z</time>
      </trkpt>
      <trkpt lat="42.6712500" lon="1.3999660">
        <ele>2906.3</ele>
        <time>2021-08-12T08:39:45Z</time>
      </trkpt>
      <trkpt lat="42.6712650" lon="1.3999780">
        <ele>2906.2</ele>
        <time>2021-08-12T08:39:52Z</time>
      </trkpt>
      <trkpt lat="42.6712890" lon="1.3999740">
        <ele>2906.2</ele>
        <time>2021-08-12T08:40:57Z</time>
      </trkpt>
      <trkpt lat="42.6712800" lon="1.3999720">
        <ele>2906.2</ele>
        <time>2021-08-12T08:40:59Z</time>
      </trkpt>
      <trkpt lat="42.6712750" lon="1.3999720">
        <ele>2906.1</ele>
        <time>2021-08-12T08:41:00Z</time>
      </trkpt>
      <trkpt lat="42.6712720" lon="1.3999710">
        <ele>2906.1</ele>
        <time>2021-08-12T08:41:01Z</time>
      </trkpt>
      <trkpt lat="42.6712660" lon="1.3999700">
        <ele>2906.1</ele>
        <time>2021-08-12T08:41:02Z</time>
      </trkpt>
      <trkpt lat="42.6712490" lon="1.3999550">
        <ele>2906.1</ele>
        <time>2021-08-12T08:41:11Z</time>
      </trkpt>
      <trkpt lat="42.6712410" lon="1.3999550">
        <ele>2906.1</ele>
        <time>2021-08-12T08:41:32Z</time>
      </trkpt>
      <trkpt lat="42.6712590" lon="1.3999700">
        <ele>2906.0</ele>
        <time>2021-08-12T08:41:44Z</time>
      </trkpt>
      <trkpt lat="42.6712100" lon="1.3999560">
        <ele>2905.9</ele>
        <time>2021-08-12T08:42:19Z</time>
      </trkpt>
      <trkpt lat="42.6712350" lon="1.3999480">
        <ele>2905.9</ele>
        <time>2021-08-12T08:42:41Z</time>
      </trkpt>
      <trkpt lat="42.6712400" lon="1.3999530">
        <ele>2905.8</ele>
        <time>2021-08-12T08:42:49Z</time>
      </trkpt>
      <trkpt lat="42.6712870" lon="1.3999750">
        <ele>2905.7</ele>
        <time>2021-08-12T08:43:10Z</time>
      </trkpt>
      <trkpt lat="42.6712880" lon="1.3999750">
        <ele>2905.7</ele>
        <time>2021-08-12T08:43:11Z</time>
      </trkpt>
      <trkpt lat="42.6712880" lon="1.3999760">
        <ele>2905.7</ele>
        <time>2021-08-12T08:43:12Z</time>
      </trkpt>
      <trkpt lat="42.6712910" lon="1.3999790">
        <ele>2905.7</ele>
        <time>2021-08-12T08:43:16Z</time>
      </trkpt>
      <trkpt lat="42.6712910" lon="1.3999780">
        <ele>2905.7</ele>
        <time>2021-08-12T08:43:19Z</time>
      </trkpt>
      <trkpt lat="42.6712890" lon="1.3999810">
        <ele>2905.7</ele>
        <time>2021-08-12T08:43:23Z</time>
      </trkpt>
      <trkpt lat="42.6712590" lon="1.3999720">
        <ele>2905.6</ele>
        <time>2021-08-12T08:43:36Z</time>
      </trkpt>
      <trkpt lat="42.6712550" lon="1.3999680">
        <ele>2905.6</ele>
        <time>2021-08-12T08:43:42Z</time>
      </trkpt>
      <trkpt lat="42.6712600" lon="1.3999560">
        <ele>2905.6</ele>
        <time>2021-08-12T08:44:00Z</time>
      </trkpt>
      <trkpt lat="42.6712550" lon="1.3999520">
        <ele>2905.6</ele>
        <time>2021-08-12T08:44:20Z</time>
      </trkpt>
      <trkpt lat="42.6712790" lon="1.3999480">
        <ele>2905.6</ele>
        <time>2021-08-12T08:44:40Z</time>
      </trkpt>
      <trkpt lat="42.6712740" lon="1.3999430">
        <ele>2905.5</ele>
        <time>2021-08-12T08:44:57Z</time>
      </trkpt>
      <trkpt lat="42.6712890" lon="1.3999700">
        <ele>2905.5</ele>
        <time>2021-08-12T08:45:09Z</time>
      </trkpt>
      <trkpt lat="42.6712800" lon="1.3999790">
        <ele>2905.5</ele>
        <time>2021-08-12T08:45:19Z</time>
      </trkpt>
      <trkpt lat="42.6712840" lon="1.3999840">
        <ele>2905.4</ele>
        <time>2021-08-12T08:45:21Z</time>
      </trkpt>
      <trkpt lat="42.6712920" lon="1.3999950">
        <ele>2905.4</ele>
        <time>2021-08-12T08:45:28Z</time>
      </trkpt>
      <trkpt lat="42.6712920" lon="1.3999960">
        <ele>2905.4</ele>
        <time>2021-08-12T08:45:30Z</time>
      </trkpt>
      <trkpt lat="42.6712920" lon="1.3999970">
        <ele>2905.4</ele>
        <time>2021-08-12T08:45:31Z</time>
      </trkpt>
      <trkpt lat="42.6711990" lon="1.3999590">
        <ele>2905.2</ele>
        <time>2021-08-12T08:46:03Z</time>
      </trkpt>
      <trkpt lat="42.6712410" lon="1.3999410">
        <ele>2905.1</ele>
        <time>2021-08-12T08:47:52Z</time>
      </trkpt>
      <trkpt lat="42.6712420" lon="1.3999200">
        <ele>2905.1</ele>
        <time>2021-08-12T08:47:59Z</time>
      </trkpt>
      <trkpt lat="42.6712420" lon="1.3999120">
        <ele>2905.1</ele>
        <time>2021-08-12T08:48:00Z</time>
      </trkpt>
      <trkpt lat="42.6712410" lon="1.3998950">
        <ele>2905.0</ele>
        <time>2021-08-12T08:48:04Z</time>
      </trkpt>
      <trkpt lat="42.6712500" lon="1.3998580">
        <ele>2905.0</ele>
        <time>2021-08-12T08:48:12Z</time>
      </trkpt>
      <trkpt lat="42.6712440" lon="1.3998500">
        <ele>2905.0</ele>
        <time>2021-08-12T08:48:14Z</time>
      </trkpt>
      <trkpt lat="42.6712410" lon="1.3998440">
        <ele>2904.9</ele>
        <time>2021-08-12T08:48:15Z</time>
      </trkpt>
      <trkpt lat="42.6712420" lon="1.3998310">
        <ele>2904.9</ele>
        <time>2021-08-12T08:48:17Z</time>
      </trkpt>
      <trkpt lat="42.6712440" lon="1.3998120">
        <ele>2904.9</ele>
        <time>2021-08-12T08:48:20Z</time>
      </trkpt>
      <trkpt lat="42.6712490" lon="1.3998020">
        <ele>2904.9</ele>
        <time>2021-08-12T08:48:22Z</time>
      </trkpt>
      <trkpt lat="42.6712540" lon="1.3997860">
        <ele>2904.8</ele>
        <time>2021-08-12T08:48:24Z</time>
      </trkpt>
      <trkpt lat="42.6712580" lon="1.3997790">
        <ele>2904.8</ele>
        <time>2021-08-12T08:48:25Z</time>
      </trkpt>
      <trkpt lat="42.6712740" lon="1.3997070">
        <ele>2904.7</ele>
        <time>2021-08-12T08:48:33Z</time>
      </trkpt>
      <trkpt lat="42.6712740" lon="1.3996920">
        <ele>2904.7</ele>
        <time>2021-08-12T08:48:35Z</time>
      </trkpt>
      <trkpt lat="42.6712750" lon="1.3996860">
        <ele>2904.7</ele>
        <time>2021-08-12T08:48:36Z</time>
      </trkpt>
      <trkpt lat="42.6712760" lon="1.3996800">
        <ele>2904.7</ele>
        <time>2021-08-12T08:48:37Z</time>
      </trkpt>
      <trkpt lat="42.6712760" lon="1.3996720">
        <ele>2904.4</ele>
        <time>2021-08-12T08:48:39Z</time>
      </trkpt>
      <trkpt lat="42.6712790" lon="1.3996680">
        <ele>2904.3</ele>
        <time>2021-08-12T08:48:41Z</time>
      </trkpt>
      <trkpt lat="42.6712800" lon="1.3996330">
        <ele>2903.6</ele>
        <time>2021-08-12T08:48:46Z</time>
      </trkpt>
      <trkpt lat="42.6712900" lon="1.3995600">
        <ele>2902.1</ele>
        <time>2021-08-12T08:48:56Z</time>
      </trkpt>
      <trkpt lat="42.6713090" lon="1.3995030">
        <ele>2900.8</ele>
        <time>2021-08-12T08:49:04Z</time>
      </trkpt>
      <trkpt lat="42.6713160" lon="1.3994600">
        <ele>2899.9</ele>
        <time>2021-08-12T08:49:15Z</time>
      </trkpt>
      <trkpt lat="42.6713690" lon="1.3992970">
        <ele>2896.3</ele>
        <time>2021-08-12T08:49:44Z</time>
      </trkpt>
      <trkpt lat="42.6714140" lon="1.3990940">
        <ele>2891.9</ele>
        <time>2021-08-12T08:50:28Z</time>
      </trkpt>
      <trkpt lat="42.6713950" lon="1.3989150">
        <ele>2887.7</ele>
        <time>2021-08-12T08:51:06Z</time>
      </trkpt>
      <trkpt lat="42.6713670" lon="1.3986730">
        <ele>2881.9</ele>
        <time>2021-08-12T08:51:39Z</time>
      </trkpt>
      <trkpt lat="42.6714410" lon="1.3984750">
        <ele>2877.1</ele>
        <time>2021-08-12T08:52:21Z</time>
      </trkpt>
      <trkpt lat="42.6714600" lon="1.3983450">
        <ele>2874.1</ele>
        <time>2021-08-12T08:52:49Z</time>
      </trkpt>
      <trkpt lat="42.6714530" lon="1.3981170">
        <ele>2869.2</ele>
        <time>2021-08-12T08:53:27Z</time>
      </trkpt>
      <trkpt lat="42.6714710" lon="1.3978860">
        <ele>2863.8</ele>
        <time>2021-08-12T08:54:13Z</time>
      </trkpt>
      <trkpt lat="42.6714430" lon="1.3978240">
        <ele>2862.2</ele>
        <time>2021-08-12T08:54:24Z</time>
      </trkpt>
      <trkpt lat="42.6713910" lon="1.3976520">
        <ele>2858.4</ele>
        <time>2021-08-12T08:55:08Z</time>
      </trkpt>
      <trkpt lat="42.6713660" lon="1.3976330">
        <ele>2857.7</ele>
        <time>2021-08-12T08:55:17Z</time>
      </trkpt>
      <trkpt lat="42.6713490" lon="1.3974230">
        <ele>2854.5</ele>
        <time>2021-08-12T08:56:06Z</time>
      </trkpt>
      <trkpt lat="42.6712230" lon="1.3972520">
        <ele>2852.3</ele>
        <time>2021-08-12T08:56:42Z</time>
      </trkpt>
      <trkpt lat="42.6711970" lon="1.3970120">
        <ele>2851.9</ele>
        <time>2021-08-12T08:57:08Z</time>
      </trkpt>
      <trkpt lat="42.6712340" lon="1.3967660">
        <ele>2852.2</ele>
        <time>2021-08-12T08:57:29Z</time>
      </trkpt>
      <trkpt lat="42.6712220" lon="1.3966510">
        <ele>2851.9</ele>
        <time>2021-08-12T08:57:42Z</time>
      </trkpt>
      <trkpt lat="42.6712230" lon="1.3964120">
        <ele>2849.9</ele>
        <time>2021-08-12T08:58:06Z</time>
      </trkpt>
      <trkpt lat="42.6712210" lon="1.3963380">
        <ele>2848.9</ele>
        <time>2021-08-12T08:58:22Z</time>
      </trkpt>
      <trkpt lat="42.6712220" lon="1.3962700">
        <ele>2847.7</ele>
        <time>2021-08-12T08:58:35Z</time>
      </trkpt>
      <trkpt lat="42.6711960" lon="1.3960570">
        <ele>2843.0</ele>
        <time>2021-08-12T08:59:06Z</time>
      </trkpt>
      <trkpt lat="42.6712160" lon="1.3958140">
        <ele>2837.6</ele>
        <time>2021-08-12T08:59:37Z</time>
      </trkpt>
      <trkpt lat="42.6712170" lon="1.3957650">
        <ele>2836.6</ele>
        <time>2021-08-12T08:59:43Z</time>
      </trkpt>
      <trkpt lat="42.6712180" lon="1.3956370">
        <ele>2834.3</ele>
        <time>2021-08-12T09:00:00Z</time>
      </trkpt>
      <trkpt lat="42.6712170" lon="1.3955300">
        <ele>2832.3</ele>
        <time>2021-08-12T09:00:18Z</time>
      </trkpt>
      <trkpt lat="42.6711860" lon="1.3952940">
        <ele>2827.5</ele>
        <time>2021-08-12T09:00:52Z</time>
      </trkpt>
      <trkpt lat="42.6711960" lon="1.3950500">
        <ele>2822.4</ele>
        <time>2021-08-12T09:01:21Z</time>
      </trkpt>
      <trkpt lat="42.6711810" lon="1.3948610">
        <ele>2818.6</ele>
        <time>2021-08-12T09:01:55Z</time>
      </trkpt>
      <trkpt lat="42.6711370" lon="1.3947220">
        <ele>2815.8</ele>
        <time>2021-08-12T09:02:07Z</time>
      </trkpt>
      <trkpt lat="42.6711300" lon="1.3946850">
        <ele>2815.2</ele>
        <time>2021-08-12T09:02:10Z</time>
      </trkpt>
      <trkpt lat="42.6713050" lon="1.3947420">
        <ele>2810.9</ele>
        <time>2021-08-12T09:02:42Z</time>
      </trkpt>
      <trkpt lat="42.6712980" lon="1.3947110">
        <ele>2810.3</ele>
        <time>2021-08-12T09:03:01Z</time>
      </trkpt>
      <trkpt lat="42.6713000" lon="1.3946960">
        <ele>2810.1</ele>
        <time>2021-08-12T09:03:10Z</time>
      </trkpt>
      <trkpt lat="42.6713020" lon="1.3946900">
        <ele>2810.0</ele>
        <time>2021-08-12T09:03:13Z</time>
      </trkpt>
      <trkpt lat="42.6713160" lon="1.3946830">
        <ele>2809.6</ele>
        <time>2021-08-12T09:03:18Z</time>
      </trkpt>
      <trkpt lat="42.6713950" lon="1.3945310">
        <ele>2806.6</ele>
        <time>2021-08-12T09:04:22Z</time>
      </trkpt>
      <trkpt lat="42.6713990" lon="1.3944270">
        <ele>2804.9</ele>
        <time>2021-08-12T09:05:04Z</time>
      </trkpt>
      <trkpt lat="42.6713330" lon="1.3942660">
        <ele>2801.6</ele>
        <time>2021-08-12T09:06:06Z</time>
      </trkpt>
      <trkpt lat="42.6712410" lon="1.3940860">
        <ele>2798.4</ele>
        <time>2021-08-12T09:06:48Z</time>
      </trkpt>
      <trkpt lat="42.6712030" lon="1.3940230">
        <ele>2797.6</ele>
        <time>2021-08-12T09:07:01Z</time>
      </trkpt>
      <trkpt lat="42.6711190" lon="1.3938430">
        <ele>2797.3</ele>
        <time>2021-08-12T09:07:40Z</time>
      </trkpt>
      <trkpt lat="42.6710730" lon="1.3936480">
        <ele>2797.8</ele>
        <time>2021-08-12T09:08:12Z</time>
      </trkpt>
      <trkpt lat="42.6709540" lon="1.3934550">
        <ele>2797.2</ele>
        <time>2021-08-12T09:08:47Z</time>
      </trkpt>
      <trkpt lat="42.6708810" lon="1.3932940">
        <ele>2796.4</ele>
        <time>2021-08-12T09:09:07Z</time>
      </trkpt>
      <trkpt lat="42.6708750" lon="1.3932390">
        <ele>2796.1</ele>
        <time>2021-08-12T09:09:16Z</time>
      </trkpt>
      <trkpt lat="42.6707610" lon="1.3931030">
        <ele>2795.6</ele>
        <time>2021-08-12T09:10:08Z</time>
      </trkpt>
      <trkpt lat="42.6707020" lon="1.3930270">
        <ele>2796.2</ele>
        <time>2021-08-12T09:11:05Z</time>
      </trkpt>
      <trkpt lat="42.6706740" lon="1.3930240">
        <ele>2796.5</ele>
        <time>2021-08-12T09:11:14Z</time>
      </trkpt>
      <trkpt lat="42.6706690" lon="1.3930210">
        <ele>2796.6</ele>
        <time>2021-08-12T09:11:15Z</time>
      </trkpt>
      <trkpt lat="42.6706710" lon="1.3930070">
        <ele>2796.8</ele>
        <time>2021-08-12T09:11:19Z</time>
      </trkpt>
      <trkpt lat="42.6706270" lon="1.3930130">
        <ele>2797.6</ele>
        <time>2021-08-12T09:11:44Z</time>
      </trkpt>
      <trkpt lat="42.6705650" lon="1.3930150">
        <ele>2799.1</ele>
        <time>2021-08-12T09:12:13Z</time>
      </trkpt>
      <trkpt lat="42.6705580" lon="1.3929820">
        <ele>2799.8</ele>
        <time>2021-08-12T09:12:19Z</time>
      </trkpt>
      <trkpt lat="42.6705020" lon="1.3929900">
        <ele>2801.6</ele>
        <time>2021-08-12T09:12:39Z</time>
      </trkpt>
      <trkpt lat="42.6704620" lon="1.3929310">
        <ele>2803.6</ele>
        <time>2021-08-12T09:13:18Z</time>
      </trkpt>
      <trkpt lat="42.6704150" lon="1.3928300">
        <ele>2806.9</ele>
        <time>2021-08-12T09:13:52Z</time>
      </trkpt>
      <trkpt lat="42.6704030" lon="1.3928190">
        <ele>2807.4</ele>
        <time>2021-08-12T09:14:10Z</time>
      </trkpt>
      <trkpt lat="42.6703960" lon="1.3927800">
        <ele>2808.6</ele>
        <time>2021-08-12T09:14:20Z</time>
      </trkpt>
      <trkpt lat="42.6703890" lon="1.3927720">
        <ele>2808.9</ele>
        <time>2021-08-12T09:14:22Z</time>
      </trkpt>
      <trkpt lat="42.6703860" lon="1.3927650">
        <ele>2809.1</ele>
        <time>2021-08-12T09:14:23Z</time>
      </trkpt>
      <trkpt lat="42.6703790" lon="1.3927550">
        <ele>2809.5</ele>
        <time>2021-08-12T09:14:25Z</time>
      </trkpt>
      <trkpt lat="42.6703740" lon="1.3927360">
        <ele>2810.1</ele>
        <time>2021-08-12T09:14:28Z</time>
      </trkpt>
      <trkpt lat="42.6703570" lon="1.3927030">
        <ele>2811.2</ele>
        <time>2021-08-12T09:14:33Z</time>
      </trkpt>
      <trkpt lat="42.6703450" lon="1.3926940">
        <ele>2811.7</ele>
        <time>2021-08-12T09:14:35Z</time>
      </trkpt>
      <trkpt lat="42.6703380" lon="1.3926910">
        <ele>2812.0</ele>
        <time>2021-08-12T09:14:36Z</time>
      </trkpt>
      <trkpt lat="42.6702870" lon="1.3926550">
        <ele>2814.0</ele>
        <time>2021-08-12T09:14:45Z</time>
      </trkpt>
      <trkpt lat="42.6702820" lon="1.3926470">
        <ele>2814.3</ele>
        <time>2021-08-12T09:14:47Z</time>
      </trkpt>
      <trkpt lat="42.6702750" lon="1.3926390">
        <ele>2814.6</ele>
        <time>2021-08-12T09:14:49Z</time>
      </trkpt>
      <trkpt lat="42.6702660" lon="1.3926330">
        <ele>2814.9</ele>
        <time>2021-08-12T09:14:53Z</time>
      </trkpt>
      <trkpt lat="42.6702600" lon="1.3926270">
        <ele>2815.2</ele>
        <time>2021-08-12T09:14:56Z</time>
      </trkpt>
      <trkpt lat="42.6702570" lon="1.3926160">
        <ele>2815.5</ele>
        <time>2021-08-12T09:15:01Z</time>
      </trkpt>
      <trkpt lat="42.6702440" lon="1.3926060">
        <ele>2815.9</ele>
        <time>2021-08-12T09:15:24Z</time>
      </trkpt>
      <trkpt lat="42.6702150" lon="1.3925820">
        <ele>2817.0</ele>
        <time>2021-08-12T09:15:33Z</time>
      </trkpt>
      <trkpt lat="42.6702000" lon="1.3925750">
        <ele>2817.5</ele>
        <time>2021-08-12T09:15:36Z</time>
      </trkpt>
      <trkpt lat="42.6701810" lon="1.3925650">
        <ele>2818.1</ele>
        <time>2021-08-12T09:15:41Z</time>
      </trkpt>
      <trkpt lat="42.6701640" lon="1.3925540">
        <ele>2818.7</ele>
        <time>2021-08-12T09:15:46Z</time>
      </trkpt>
      <trkpt lat="42.6701530" lon="1.3925490">
        <ele>2819.1</ele>
        <time>2021-08-12T09:15:52Z</time>
      </trkpt>
      <trkpt lat="42.6701440" lon="1.3925400">
        <ele>2819.4</ele>
        <time>2021-08-12T09:16:05Z</time>
      </trkpt>
      <trkpt lat="42.6701150" lon="1.3923900">
        <ele>2823.0</ele>
        <time>2021-08-12T09:16:39Z</time>
      </trkpt>
      <trkpt lat="42.6701040" lon="1.3923980">
        <ele>2823.4</ele>
        <time>2021-08-12T09:16:42Z</time>
      </trkpt>
      <trkpt lat="42.6700990" lon="1.3924000">
        <ele>2823.6</ele>
        <time>2021-08-12T09:16:44Z</time>
      </trkpt>
      <trkpt lat="42.6700940" lon="1.3924250">
        <ele>2824.2</ele>
        <time>2021-08-12T09:16:49Z</time>
      </trkpt>
      <trkpt lat="42.6700930" lon="1.3924350">
        <ele>2824.4</ele>
        <time>2021-08-12T09:16:50Z</time>
      </trkpt>
      <trkpt lat="42.6700930" lon="1.3924440">
        <ele>2824.6</ele>
        <time>2021-08-12T09:16:54Z</time>
      </trkpt>
      <trkpt lat="42.6700540" lon="1.3924360">
        <ele>2826.0</ele>
        <time>2021-08-12T09:17:29Z</time>
      </trkpt>
      <trkpt lat="42.6700550" lon="1.3924310">
        <ele>2826.1</ele>
        <time>2021-08-12T09:17:32Z</time>
      </trkpt>
      <trkpt lat="42.6700250" lon="1.3924440">
        <ele>2827.3</ele>
        <time>2021-08-12T09:17:43Z</time>
      </trkpt>
      <trkpt lat="42.6700140" lon="1.3924040">
        <ele>2828.5</ele>
        <time>2021-08-12T09:17:52Z</time>
      </trkpt>
      <trkpt lat="42.6699790" lon="1.3922020">
        <ele>2834.5</ele>
        <time>2021-08-12T09:18:59Z</time>
      </trkpt>
      <trkpt lat="42.6699550" lon="1.3921120">
        <ele>2837.7</ele>
        <time>2021-08-12T09:19:53Z</time>
      </trkpt>
      <trkpt lat="42.6699560" lon="1.3921080">
        <ele>2837.8</ele>
        <time>2021-08-12T09:19:54Z</time>
      </trkpt>
      <trkpt lat="42.6699570" lon="1.3921010">
        <ele>2838.0</ele>
        <time>2021-08-12T09:19:56Z</time>
      </trkpt>
      <trkpt lat="42.6699570" lon="1.3920920">
        <ele>2838.3</ele>
        <time>2021-08-12T09:19:58Z</time>
      </trkpt>
      <trkpt lat="42.6699570" lon="1.3920870">
        <ele>2838.5</ele>
        <time>2021-08-12T09:19:59Z</time>
      </trkpt>
      <trkpt lat="42.6699570" lon="1.3920720">
        <ele>2839.0</ele>
        <time>2021-08-12T09:20:02Z</time>
      </trkpt>
      <trkpt lat="42.6699560" lon="1.3920680">
        <ele>2839.1</ele>
        <time>2021-08-12T09:20:03Z</time>
      </trkpt>
      <trkpt lat="42.6699540" lon="1.3920650">
        <ele>2839.2</ele>
        <time>2021-08-12T09:20:04Z</time>
      </trkpt>
      <trkpt lat="42.6699480" lon="1.3920610">
        <ele>2839.5</ele>
        <time>2021-08-12T09:20:08Z</time>
      </trkpt>
      <trkpt lat="42.6699500" lon="1.3920660">
        <ele>2839.7</ele>
        <time>2021-08-12T09:20:10Z</time>
      </trkpt>
      <trkpt lat="42.6699500" lon="1.3920660">
        <ele>2839.7</ele>
        <time>2021-08-12T09:20:11Z</time>
      </trkpt>
      <trkpt lat="42.6699500" lon="1.3920660">
        <ele>2839.7</ele>
        <time>2021-08-12T09:20:14Z</time>
      </trkpt>
      <trkpt lat="42.6699490" lon="1.3920720">
        <ele>2839.9</ele>
        <time>2021-08-12T09:20:17Z</time>
      </trkpt>
      <trkpt lat="42.6699450" lon="1.3920730">
        <ele>2840.1</ele>
        <time>2021-08-12T09:20:18Z</time>
      </trkpt>
      <trkpt lat="42.6699410" lon="1.3920760">
        <ele>2840.3</ele>
        <time>2021-08-12T09:20:19Z</time>
      </trkpt>
      <trkpt lat="42.6699390" lon="1.3920720">
        <ele>2840.5</ele>
        <time>2021-08-12T09:20:20Z</time>
      </trkpt>
      <trkpt lat="42.6699330" lon="1.3920710">
        <ele>2840.7</ele>
        <time>2021-08-12T09:20:23Z</time>
      </trkpt>
      <trkpt lat="42.6698910" lon="1.3920650">
        <ele>2842.5</ele>
        <time>2021-08-12T09:20:42Z</time>
      </trkpt>
      <trkpt lat="42.6699000" lon="1.3920370">
        <ele>2843.4</ele>
        <time>2021-08-12T09:20:52Z</time>
      </trkpt>
      <trkpt lat="42.6698170" lon="1.3919340">
        <ele>2847.7</ele>
        <time>2021-08-12T09:21:39Z</time>
      </trkpt>
      <trkpt lat="42.6698280" lon="1.3918700">
        <ele>2849.4</ele>
        <time>2021-08-12T09:22:01Z</time>
      </trkpt>
      <trkpt lat="42.6698290" lon="1.3918740">
        <ele>2849.5</ele>
        <time>2021-08-12T09:22:03Z</time>
      </trkpt>
      <trkpt lat="42.6698300" lon="1.3918800">
        <ele>2849.7</ele>
        <time>2021-08-12T09:22:05Z</time>
      </trkpt>
      <trkpt lat="42.6698350" lon="1.3918860">
        <ele>2849.9</ele>
        <time>2021-08-12T09:22:07Z</time>
      </trkpt>
      <trkpt lat="42.6698380" lon="1.3918910">
        <ele>2850.1</ele>
        <time>2021-08-12T09:22:14Z</time>
      </trkpt>
      <trkpt lat="42.6698300" lon="1.3918940">
        <ele>2850.4</ele>
        <time>2021-08-12T09:22:21Z</time>
      </trkpt>
      <trkpt lat="42.6698220" lon="1.3918940">
        <ele>2850.6</ele>
        <time>2021-08-12T09:22:25Z</time>
      </trkpt>
      <trkpt lat="42.6698190" lon="1.3918940">
        <ele>2850.7</ele>
        <time>2021-08-12T09:22:30Z</time>
      </trkpt>
      <trkpt lat="42.6698210" lon="1.3918940">
        <ele>2850.7</ele>
        <time>2021-08-12T09:22:35Z</time>
      </trkpt>
      <trkpt lat="42.6698250" lon="1.3919030">
        <ele>2851.0</ele>
        <time>2021-08-12T09:22:42Z</time>
      </trkpt>
      <trkpt lat="42.6698320" lon="1.3919080">
        <ele>2851.2</ele>
        <time>2021-08-12T09:22:50Z</time>
      </trkpt>
      <trkpt lat="42.6698300" lon="1.3919220">
        <ele>2851.5</ele>
        <time>2021-08-12T09:22:56Z</time>
      </trkpt>
      <trkpt lat="42.6698220" lon="1.3919430">
        <ele>2852.0</ele>
        <time>2021-08-12T09:23:11Z</time>
      </trkpt>
      <trkpt lat="42.6698210" lon="1.3919410">
        <ele>2852.1</ele>
        <time>2021-08-12T09:23:12Z</time>
      </trkpt>
      <trkpt lat="42.6698120" lon="1.3919180">
        <ele>2852.5</ele>
        <time>2021-08-12T09:23:34Z</time>
      </trkpt>
      <trkpt lat="42.6698200" lon="1.3919360">
        <ele>2852.9</ele>
        <time>2021-08-12T09:23:37Z</time>
      </trkpt>
      <trkpt lat="42.6698190" lon="1.3919260">
        <ele>2853.1</ele>
        <time>2021-08-12T09:23:46Z</time>
      </trkpt>
      <trkpt lat="42.6698210" lon="1.3919200">
        <ele>2853.2</ele>
        <time>2021-08-12T09:23:48Z</time>
      </trkpt>
      <trkpt lat="42.6698200" lon="1.3919220">
        <ele>2853.2</ele>
        <time>2021-08-12T09:23:50Z</time>
      </trkpt>
      <trkpt lat="42.6698190" lon="1.3919240">
        <ele>2853.2</ele>
        <time>2021-08-12T09:23:51Z</time>
      </trkpt>
      <trkpt lat="42.6698160" lon="1.3919200">
        <ele>2853.3</ele>
        <time>2021-08-12T09:23:58Z</time>
      </trkpt>
      <trkpt lat="42.6698160" lon="1.3919190">
        <ele>2853.3</ele>
        <time>2021-08-12T09:23:59Z</time>
      </trkpt>
      <trkpt lat="42.6698120" lon="1.3919200">
        <ele>2853.4</ele>
        <time>2021-08-12T09:24:07Z</time>
      </trkpt>
      <trkpt lat="42.6698080" lon="1.3919230">
        <ele>2853.5</ele>
        <time>2021-08-12T09:24:10Z</time>
      </trkpt>
      <trkpt lat="42.6698100" lon="1.3919240">
        <ele>2853.5</ele>
        <time>2021-08-12T09:24:11Z</time>
      </trkpt>
      <trkpt lat="42.6698050" lon="1.3919290">
        <ele>2853.6</ele>
        <time>2021-08-12T09:24:17Z</time>
      </trkpt>
      <trkpt lat="42.6698400" lon="1.3918750">
        <ele>2854.2</ele>
        <time>2021-08-12T09:24:52Z</time>
      </trkpt>
      <trkpt lat="42.6698400" lon="1.3918730">
        <ele>2854.2</ele>
        <time>2021-08-12T09:24:59Z</time>
      </trkpt>
      <trkpt lat="42.6698400" lon="1.3918730">
        <ele>2854.2</ele>
        <time>2021-08-12T09:25:00Z</time>
      </trkpt>
      <trkpt lat="42.6698390" lon="1.3918720">
        <ele>2854.2</ele>
        <time>2021-08-12T09:25:05Z</time>
      </trkpt>
      <trkpt lat="42.6698410" lon="1.3918730">
        <ele>2854.2</ele>
        <time>2021-08-12T09:25:07Z</time>
      </trkpt>
      <trkpt lat="42.6698420" lon="1.3918750">
        <ele>2854.2</ele>
        <time>2021-08-12T09:25:08Z</time>
      </trkpt>
      <trkpt lat="42.6698440" lon="1.3918740">
        <ele>2854.2</ele>
        <time>2021-08-12T09:25:09Z</time>
      </trkpt>
      <trkpt lat="42.6698460" lon="1.3918700">
        <ele>2854.3</ele>
        <time>2021-08-12T09:25:11Z</time>
      </trkpt>
      <trkpt lat="42.6698440" lon="1.3918680">
        <ele>2854.3</ele>
        <time>2021-08-12T09:25:15Z</time>
      </trkpt>
      <trkpt lat="42.6698450" lon="1.3918670">
        <ele>2854.3</ele>
        <time>2021-08-12T09:25:23Z</time>
      </trkpt>
      <trkpt lat="42.6698220" lon="1.3918860">
        <ele>2854.2</ele>
        <time>2021-08-12T09:25:49Z</time>
      </trkpt>
      <trkpt lat="42.6698150" lon="1.3918860">
        <ele>2854.2</ele>
        <time>2021-08-12T09:25:56Z</time>
      </trkpt>
      <trkpt lat="42.6697030" lon="1.3918140">
        <ele>2853.2</ele>
        <time>2021-08-12T09:26:58Z</time>
      </trkpt>
      <trkpt lat="42.6696980" lon="1.3918190">
        <ele>2853.1</ele>
        <time>2021-08-12T09:27:01Z</time>
      </trkpt>
      <trkpt lat="42.6697040" lon="1.3918150">
        <ele>2853.1</ele>
        <time>2021-08-12T09:27:05Z</time>
      </trkpt>
      <trkpt lat="42.6697010" lon="1.3918070">
        <ele>2853.0</ele>
        <time>2021-08-12T09:27:09Z</time>
      </trkpt>
      <trkpt lat="42.6696980" lon="1.3918060">
        <ele>2853.0</ele>
        <time>2021-08-12T09:27:11Z</time>
      </trkpt>
      <trkpt lat="42.6696900" lon="1.3918170">
        <ele>2852.9</ele>
        <time>2021-08-12T09:27:27Z</time>
      </trkpt>
      <trkpt lat="42.6696930" lon="1.3918210">
        <ele>2852.9</ele>
        <time>2021-08-12T09:27:34Z</time>
      </trkpt>
      <trkpt lat="42.6696880" lon="1.3918180">
        <ele>2852.9</ele>
        <time>2021-08-12T09:27:36Z</time>
      </trkpt>
      <trkpt lat="42.6696910" lon="1.3917470">
        <ele>2852.9</ele>
        <time>2021-08-12T09:28:01Z</time>
      </trkpt>
      <trkpt lat="42.6696940" lon="1.3917490">
        <ele>2852.9</ele>
        <time>2021-08-12T09:28:10Z</time>
      </trkpt>
      <trkpt lat="42.6696900" lon="1.3917470">
        <ele>2852.9</ele>
        <time>2021-08-12T09:28:12Z</time>
      </trkpt>
      <trkpt lat="42.6696820" lon="1.3917190">
        <ele>2853.0</ele>
        <time>2021-08-12T09:28:34Z</time>
      </trkpt>
      <trkpt lat="42.6696850" lon="1.3917100">
        <ele>2853.1</ele>
        <time>2021-08-12T09:28:47Z</time>
      </trkpt>
      <trkpt lat="42.6696480" lon="1.3916910">
        <ele>2853.6</ele>
        <time>2021-08-12T09:29:05Z</time>
      </trkpt>
      <trkpt lat="42.6695480" lon="1.3916960">
        <ele>2857.8</ele>
        <time>2021-08-12T09:29:50Z</time>
      </trkpt>
      <trkpt lat="42.6694930" lon="1.3916940">
        <ele>2858.9</ele>
        <time>2021-08-12T09:30:18Z</time>
      </trkpt>
      <trkpt lat="42.6694170" lon="1.3916870">
        <ele>2860.2</ele>
        <time>2021-08-12T09:30:33Z</time>
      </trkpt>
      <trkpt lat="42.6693760" lon="1.3916740">
        <ele>2860.9</ele>
        <time>2021-08-12T09:30:41Z</time>
      </trkpt>
      <trkpt lat="42.6693680" lon="1.3916940">
        <ele>2861.2</ele>
        <time>2021-08-12T09:30:47Z</time>
      </trkpt>
      <trkpt lat="42.6693670" lon="1.3917010">
        <ele>2861.3</ele>
        <time>2021-08-12T09:30:50Z</time>
      </trkpt>
      <trkpt lat="42.6693660" lon="1.3917020">
        <ele>2861.3</ele>
        <time>2021-08-12T09:30:52Z</time>
      </trkpt>
      <trkpt lat="42.6693200" lon="1.3917130">
        <ele>2862.1</ele>
        <time>2021-08-12T09:31:15Z</time>
      </trkpt>
      <trkpt lat="42.6692900" lon="1.3917080">
        <ele>2862.6</ele>
        <time>2021-08-12T09:31:23Z</time>
      </trkpt>
      <trkpt lat="42.6692770" lon="1.3917080">
        <ele>2862.9</ele>
        <time>2021-08-12T09:31:27Z</time>
      </trkpt>
      <trkpt lat="42.6692740" lon="1.3917090">
        <ele>2862.9</ele>
        <time>2021-08-12T09:31:28Z</time>
      </trkpt>
      <trkpt lat="42.6692650" lon="1.3917090">
        <ele>2863.1</ele>
        <time>2021-08-12T09:31:30Z</time>
      </trkpt>
      <trkpt lat="42.6692320" lon="1.3917050">
        <ele>2863.6</ele>
        <time>2021-08-12T09:31:41Z</time>
      </trkpt>
      <trkpt lat="42.6692210" lon="1.3917060">
        <ele>2863.8</ele>
        <time>2021-08-12T09:31:44Z</time>
      </trkpt>
      <trkpt lat="42.6692040" lon="1.3916980">
        <ele>2864.1</ele>
        <time>2021-08-12T09:31:48Z</time>
      </trkpt>
      <trkpt lat="42.6691380" lon="1.3917130">
        <ele>2865.2</ele>
        <time>2021-08-12T09:31:59Z</time>
      </trkpt>
      <trkpt lat="42.6691350" lon="1.3917170">
        <ele>2865.2</ele>
        <time>2021-08-12T09:32:00Z</time>
      </trkpt>
      <trkpt lat="42.6691260" lon="1.3917250">
        <ele>2865.4</ele>
        <time>2021-08-12T09:32:04Z</time>
      </trkpt>
      <trkpt lat="42.6690770" lon="1.3917230">
        <ele>2866.2</ele>
        <time>2021-08-12T09:32:33Z</time>
      </trkpt>
      <trkpt lat="42.6690610" lon="1.3917420">
        <ele>2866.6</ele>
        <time>2021-08-12T09:32:41Z</time>
      </trkpt>
      <trkpt lat="42.6690410" lon="1.3917900">
        <ele>2867.4</ele>
        <time>2021-08-12T09:32:53Z</time>
      </trkpt>
      <trkpt lat="42.6690290" lon="1.3917860">
        <ele>2867.6</ele>
        <time>2021-08-12T09:32:56Z</time>
      </trkpt>
      <trkpt lat="42.6690210" lon="1.3917920">
        <ele>2867.8</ele>
        <time>2021-08-12T09:33:01Z</time>
      </trkpt>
      <trkpt lat="42.6690190" lon="1.3917920">
        <ele>2867.9</ele>
        <time>2021-08-12T09:33:02Z</time>
      </trkpt>
      <trkpt lat="42.6690150" lon="1.3917970">
        <ele>2868.0</ele>
        <time>2021-08-12T09:33:03Z</time>
      </trkpt>
      <trkpt lat="42.6690050" lon="1.3917920">
        <ele>2868.2</ele>
        <time>2021-08-12T09:33:05Z</time>
      </trkpt>
      <trkpt lat="42.6688880" lon="1.3918040">
        <ele>2870.3</ele>
        <time>2021-08-12T09:33:41Z</time>
      </trkpt>
      <trkpt lat="42.6688830" lon="1.3918090">
        <ele>2870.4</ele>
        <time>2021-08-12T09:33:43Z</time>
      </trkpt>
      <trkpt lat="42.6688640" lon="1.3917880">
        <ele>2870.8</ele>
        <time>2021-08-12T09:34:14Z</time>
      </trkpt>
      <trkpt lat="42.6688420" lon="1.3917870">
        <ele>2871.0</ele>
        <time>2021-08-12T09:35:07Z</time>
      </trkpt>
      <trkpt lat="42.6688340" lon="1.3917830">
        <ele>2871.0</ele>
        <time>2021-08-12T09:35:29Z</time>
      </trkpt>
      <trkpt lat="42.6688590" lon="1.3917590">
        <ele>2871.2</ele>
        <time>2021-08-12T09:35:42Z</time>
      </trkpt>
      <trkpt lat="42.6688410" lon="1.3917500">
        <ele>2871.3</ele>
        <time>2021-08-12T09:35:50Z</time>
      </trkpt>
      <trkpt lat="42.6688140" lon="1.3917400">
        <ele>2871.2</ele>
        <time>2021-08-12T09:36:03Z</time>
      </trkpt>
      <trkpt lat="42.6688120" lon="1.3917430">
        <ele>2871.2</ele>
        <time>2021-08-12T09:36:04Z</time>
      </trkpt>
      <trkpt lat="42.6688110" lon="1.3917450">
        <ele>2871.2</ele>
        <time>2021-08-12T09:36:07Z</time>
      </trkpt>
      <trkpt lat="42.6688120" lon="1.3917460">
        <ele>2871.2</ele>
        <time>2021-08-12T09:36:08Z</time>
      </trkpt>
      <trkpt lat="42.6688100" lon="1.3917460">
        <ele>2871.2</ele>
        <time>2021-08-12T09:36:09Z</time>
      </trkpt>
      <trkpt lat="42.6688090" lon="1.3917460">
        <ele>2871.2</ele>
        <time>2021-08-12T09:36:10Z</time>
      </trkpt>
      <trkpt lat="42.6688080" lon="1.3917460">
        <ele>2871.2</ele>
        <time>2021-08-12T09:36:11Z</time>
      </trkpt>
      <trkpt lat="42.6688050" lon="1.3917540">
        <ele>2871.1</ele>
        <time>2021-08-12T09:36:14Z</time>
      </trkpt>
      <trkpt lat="42.6687980" lon="1.3917700">
        <ele>2871.1</ele>
        <time>2021-08-12T09:36:18Z</time>
      </trkpt>
      <trkpt lat="42.6687920" lon="1.3917950">
        <ele>2870.9</ele>
        <time>2021-08-12T09:36:21Z</time>
      </trkpt>
      <trkpt lat="42.6687760" lon="1.3918210">
        <ele>2870.6</ele>
        <time>2021-08-12T09:36:24Z</time>
      </trkpt>
      <trkpt lat="42.6687650" lon="1.3918400">
        <ele>2869.9</ele>
        <time>2021-08-12T09:36:26Z</time>
      </trkpt>
      <trkpt lat="42.6687320" lon="1.3919110">
        <ele>2867.2</ele>
        <time>2021-08-12T09:36:40Z</time>
      </trkpt>
      <trkpt lat="42.6687370" lon="1.3919150">
        <ele>2866.9</ele>
        <time>2021-08-12T09:36:42Z</time>
      </trkpt>
      <trkpt lat="42.6687360" lon="1.3919210">
        <ele>2866.7</ele>
        <time>2021-08-12T09:36:45Z</time>
      </trkpt>
      <trkpt lat="42.6686500" lon="1.3920170">
        <ele>2861.7</ele>
        <time>2021-08-12T09:37:24Z</time>
      </trkpt>
      <trkpt lat="42.6684840" lon="1.3920430">
        <ele>2854.2</ele>
        <time>2021-08-12T09:38:22Z</time>
      </trkpt>
      <trkpt lat="42.6684780" lon="1.3920510">
        <ele>2853.8</ele>
        <time>2021-08-12T09:38:25Z</time>
      </trkpt>
      <trkpt lat="42.6684350" lon="1.3920420">
        <ele>2851.9</ele>
        <time>2021-08-12T09:38:39Z</time>
      </trkpt>
      <trkpt lat="42.6683200" lon="1.3920820">
        <ele>2846.5</ele>
        <time>2021-08-12T09:39:29Z</time>
      </trkpt>
      <trkpt lat="42.6682820" lon="1.3921060">
        <ele>2844.6</ele>
        <time>2021-08-12T09:39:38Z</time>
      </trkpt>
      <trkpt lat="42.6681240" lon="1.3922000">
        <ele>2836.9</ele>
        <time>2021-08-12T09:40:21Z</time>
      </trkpt>
      <trkpt lat="42.6680610" lon="1.3922730">
        <ele>2833.2</ele>
        <time>2021-08-12T09:40:35Z</time>
      </trkpt>
      <trkpt lat="42.6680450" lon="1.3922850">
        <ele>2832.3</ele>
        <time>2021-08-12T09:40:38Z</time>
      </trkpt>
      <trkpt lat="42.6680410" lon="1.3922900">
        <ele>2832.1</ele>
        <time>2021-08-12T09:40:39Z</time>
      </trkpt>
      <trkpt lat="42.6680050" lon="1.3922940">
        <ele>2830.5</ele>
        <time>2021-08-12T09:40:44Z</time>
      </trkpt>
      <trkpt lat="42.6679640" lon="1.3923060">
        <ele>2828.6</ele>
        <time>2021-08-12T09:40:50Z</time>
      </trkpt>
      <trkpt lat="42.6677960" lon="1.3922980">
        <ele>2821.0</ele>
        <time>2021-08-12T09:41:11Z</time>
      </trkpt>
      <trkpt lat="42.6677110" lon="1.3923290">
        <ele>2817.1</ele>
        <time>2021-08-12T09:42:02Z</time>
      </trkpt>
      <trkpt lat="42.6676990" lon="1.3923370">
        <ele>2816.5</ele>
        <time>2021-08-12T09:42:07Z</time>
      </trkpt>
      <trkpt lat="42.6676960" lon="1.3923410">
        <ele>2816.3</ele>
        <time>2021-08-12T09:42:08Z</time>
      </trkpt>
      <trkpt lat="42.6676790" lon="1.3923570">
        <ele>2815.3</ele>
        <time>2021-08-12T09:42:11Z</time>
      </trkpt>
      <trkpt lat="42.6676520" lon="1.3923720">
        <ele>2814.0</ele>
        <time>2021-08-12T09:42:18Z</time>
      </trkpt>
      <trkpt lat="42.6676490" lon="1.3923800">
        <ele>2813.7</ele>
        <time>2021-08-12T09:42:22Z</time>
      </trkpt>
      <trkpt lat="42.6676300" lon="1.3923820">
        <ele>2812.9</ele>
        <time>2021-08-12T09:42:28Z</time>
      </trkpt>
      <trkpt lat="42.6675920" lon="1.3923920">
        <ele>2811.1</ele>
        <time>2021-08-12T09:42:41Z</time>
      </trkpt>
      <trkpt lat="42.6675410" lon="1.3924240">
        <ele>2808.6</ele>
        <time>2021-08-12T09:42:58Z</time>
      </trkpt>
      <trkpt lat="42.6673710" lon="1.3923860">
        <ele>2800.9</ele>
        <time>2021-08-12T09:43:32Z</time>
      </trkpt>
      <trkpt lat="42.6672080" lon="1.3924640">
        <ele>2793.1</ele>
        <time>2021-08-12T09:44:04Z</time>
      </trkpt>
      <trkpt lat="42.6670690" lon="1.3926080">
        <ele>2785.2</ele>
        <time>2021-08-12T09:44:54Z</time>
      </trkpt>
      <trkpt lat="42.6669160" lon="1.3925880">
        <ele>2778.3</ele>
        <time>2021-08-12T09:45:32Z</time>
      </trkpt>
      <trkpt lat="42.6668840" lon="1.3925760">
        <ele>2776.8</ele>
        <time>2021-08-12T09:45:52Z</time>
      </trkpt>
      <trkpt lat="42.6668420" lon="1.3925950">
        <ele>2774.8</ele>
        <time>2021-08-12T09:46:05Z</time>
      </trkpt>
      <trkpt lat="42.6668380" lon="1.3926160">
        <ele>2774.1</ele>
        <time>2021-08-12T09:46:11Z</time>
      </trkpt>
      <trkpt lat="42.6668070" lon="1.3926400">
        <ele>2772.5</ele>
        <time>2021-08-12T09:46:25Z</time>
      </trkpt>
      <trkpt lat="42.6668020" lon="1.3926470">
        <ele>2772.2</ele>
        <time>2021-08-12T09:46:29Z</time>
      </trkpt>
      <trkpt lat="42.6668020" lon="1.3926490">
        <ele>2772.1</ele>
        <time>2021-08-12T09:46:30Z</time>
      </trkpt>
      <trkpt lat="42.6668010" lon="1.3926490">
        <ele>2772.1</ele>
        <time>2021-08-12T09:46:31Z</time>
      </trkpt>
      <trkpt lat="42.6667980" lon="1.3926510">
        <ele>2771.9</ele>
        <time>2021-08-12T09:46:32Z</time>
      </trkpt>
      <trkpt lat="42.6667960" lon="1.3926520">
        <ele>2771.8</ele>
        <time>2021-08-12T09:46:33Z</time>
      </trkpt>
      <trkpt lat="42.6667910" lon="1.3926480">
        <ele>2771.6</ele>
        <time>2021-08-12T09:46:38Z</time>
      </trkpt>
      <trkpt lat="42.6667700" lon="1.3926580">
        <ele>2770.6</ele>
        <time>2021-08-12T09:46:50Z</time>
      </trkpt>
      <trkpt lat="42.6667400" lon="1.3926250">
        <ele>2768.9</ele>
        <time>2021-08-12T09:47:02Z</time>
      </trkpt>
      <trkpt lat="42.6666280" lon="1.3925790">
        <ele>2763.6</ele>
        <time>2021-08-12T09:47:38Z</time>
      </trkpt>
      <trkpt lat="42.6664870" lon="1.3925360">
        <ele>2757.1</ele>
        <time>2021-08-12T09:48:24Z</time>
      </trkpt>
      <trkpt lat="42.6663410" lon="1.3926730">
        <ele>2749.1</ele>
        <time>2021-08-12T09:49:02Z</time>
      </trkpt>
      <trkpt lat="42.6661800" lon="1.3927830">
        <ele>2741.0</ele>
        <time>2021-08-12T09:49:43Z</time>
      </trkpt>
      <trkpt lat="42.6661200" lon="1.3928240">
        <ele>2738.0</ele>
        <time>2021-08-12T09:50:04Z</time>
      </trkpt>
      <trkpt lat="42.6660340" lon="1.3928230">
        <ele>2734.1</ele>
        <time>2021-08-12T09:50:35Z</time>
      </trkpt>
      <trkpt lat="42.6659300" lon="1.3927630">
        <ele>2729.0</ele>
        <time>2021-08-12T09:51:04Z</time>
      </trkpt>
      <trkpt lat="42.6658560" lon="1.3926430">
        <ele>2723.9</ele>
        <time>2021-08-12T09:51:37Z</time>
      </trkpt>
      <trkpt lat="42.6656940" lon="1.3927300">
        <ele>2716.0</ele>
        <time>2021-08-12T09:52:08Z</time>
      </trkpt>
      <trkpt lat="42.6656700" lon="1.3927110">
        <ele>2714.8</ele>
        <time>2021-08-12T09:52:20Z</time>
      </trkpt>
      <trkpt lat="42.6656340" lon="1.3926810">
        <ele>2712.9</ele>
        <time>2021-08-12T09:52:44Z</time>
      </trkpt>
      <trkpt lat="42.6655260" lon="1.3927180">
        <ele>2707.9</ele>
        <time>2021-08-12T09:53:17Z</time>
      </trkpt>
      <trkpt lat="42.6654800" lon="1.3927240">
        <ele>2705.8</ele>
        <time>2021-08-12T09:53:33Z</time>
      </trkpt>
      <trkpt lat="42.6654800" lon="1.3927200">
        <ele>2705.7</ele>
        <time>2021-08-12T09:53:34Z</time>
      </trkpt>
      <trkpt lat="42.6654820" lon="1.3927040">
        <ele>2705.1</ele>
        <time>2021-08-12T09:53:38Z</time>
      </trkpt>
      <trkpt lat="42.6654820" lon="1.3927090">
        <ele>2705.0</ele>
        <time>2021-08-12T09:53:40Z</time>
      </trkpt>
      <trkpt lat="42.6654690" lon="1.3927180">
        <ele>2704.3</ele>
        <time>2021-08-12T09:53:42Z</time>
      </trkpt>
      <trkpt lat="42.6654620" lon="1.3927200">
        <ele>2704.0</ele>
        <time>2021-08-12T09:53:43Z</time>
      </trkpt>
      <trkpt lat="42.6654560" lon="1.3927210">
        <ele>2703.7</ele>
        <time>2021-08-12T09:53:44Z</time>
      </trkpt>
      <trkpt lat="42.6654510" lon="1.3927140">
        <ele>2703.4</ele>
        <time>2021-08-12T09:53:45Z</time>
      </trkpt>
      <trkpt lat="42.6654480" lon="1.3927070">
        <ele>2703.1</ele>
        <time>2021-08-12T09:53:46Z</time>
      </trkpt>
      <trkpt lat="42.6654410" lon="1.3926950">
        <ele>2702.6</ele>
        <time>2021-08-12T09:53:50Z</time>
      </trkpt>
      <trkpt lat="42.6654190" lon="1.3926780">
        <ele>2701.5</ele>
        <time>2021-08-12T09:53:59Z</time>
      </trkpt>
      <trkpt lat="42.6653710" lon="1.3926400">
        <ele>2699.0</ele>
        <time>2021-08-12T09:54:12Z</time>
      </trkpt>
      <trkpt lat="42.6653210" lon="1.3924980">
        <ele>2693.8</ele>
        <time>2021-08-12T09:54:50Z</time>
      </trkpt>
      <trkpt lat="42.6652790" lon="1.3924490">
        <ele>2691.3</ele>
        <time>2021-08-12T09:55:13Z</time>
      </trkpt>
      <trkpt lat="42.6652190" lon="1.3925360">
        <ele>2687.4</ele>
        <time>2021-08-12T09:55:31Z</time>
      </trkpt>
      <trkpt lat="42.6651040" lon="1.3926170">
        <ele>2681.5</ele>
        <time>2021-08-12T09:55:57Z</time>
      </trkpt>
      <trkpt lat="42.6650320" lon="1.3925240">
        <ele>2677.1</ele>
        <time>2021-08-12T09:56:28Z</time>
      </trkpt>
      <trkpt lat="42.6650170" lon="1.3925220">
        <ele>2676.4</ele>
        <time>2021-08-12T09:56:41Z</time>
      </trkpt>
      <trkpt lat="42.6649530" lon="1.3924970">
        <ele>2673.4</ele>
        <time>2021-08-12T09:57:03Z</time>
      </trkpt>
      <trkpt lat="42.6649240" lon="1.3925110">
        <ele>2672.0</ele>
        <time>2021-08-12T09:57:17Z</time>
      </trkpt>
      <trkpt lat="42.6648680" lon="1.3924830">
        <ele>2669.3</ele>
        <time>2021-08-12T09:57:37Z</time>
      </trkpt>
      <trkpt lat="42.6648470" lon="1.3924720">
        <ele>2668.3</ele>
        <time>2021-08-12T09:57:47Z</time>
      </trkpt>
      <trkpt lat="42.6647320" lon="1.3923700">
        <ele>2662.1</ele>
        <time>2021-08-12T09:58:30Z</time>
      </trkpt>
      <trkpt lat="42.6646600" lon="1.3922680">
        <ele>2657.5</ele>
        <time>2021-08-12T09:58:59Z</time>
      </trkpt>
      <trkpt lat="42.6646470" lon="1.3922610">
        <ele>2656.8</ele>
        <time>2021-08-12T09:59:03Z</time>
      </trkpt>
      <trkpt lat="42.6646470" lon="1.3922580">
        <ele>2656.7</ele>
        <time>2021-08-12T09:59:04Z</time>
      </trkpt>
      <trkpt lat="42.6646360" lon="1.3922800">
        <ele>2655.9</ele>
        <time>2021-08-12T09:59:10Z</time>
      </trkpt>
      <trkpt lat="42.6645690" lon="1.3923420">
        <ele>2652.2</ele>
        <time>2021-08-12T09:59:33Z</time>
      </trkpt>
      <trkpt lat="42.6645190" lon="1.3923660">
        <ele>2649.8</ele>
        <time>2021-08-12T10:00:09Z</time>
      </trkpt>
      <trkpt lat="42.6644690" lon="1.3923540">
        <ele>2647.5</ele>
        <time>2021-08-12T10:00:28Z</time>
      </trkpt>
      <trkpt lat="42.6644580" lon="1.3923670">
        <ele>2646.9</ele>
        <time>2021-08-12T10:00:32Z</time>
      </trkpt>
      <trkpt lat="42.6644540" lon="1.3923690">
        <ele>2646.7</ele>
        <time>2021-08-12T10:00:33Z</time>
      </trkpt>
      <trkpt lat="42.6644490" lon="1.3923720">
        <ele>2646.5</ele>
        <time>2021-08-12T10:00:34Z</time>
      </trkpt>
      <trkpt lat="42.6644090" lon="1.3923790">
        <ele>2644.6</ele>
        <time>2021-08-12T10:00:58Z</time>
      </trkpt>
      <trkpt lat="42.6643790" lon="1.3924260">
        <ele>2642.6</ele>
        <time>2021-08-12T10:01:11Z</time>
      </trkpt>
      <trkpt lat="42.6643540" lon="1.3924140">
        <ele>2641.4</ele>
        <time>2021-08-12T10:01:19Z</time>
      </trkpt>
      <trkpt lat="42.6643360" lon="1.3924030">
        <ele>2640.5</ele>
        <time>2021-08-12T10:01:24Z</time>
      </trkpt>
      <trkpt lat="42.6642410" lon="1.3923950">
        <ele>2636.2</ele>
        <time>2021-08-12T10:01:57Z</time>
      </trkpt>
      <trkpt lat="42.6641730" lon="1.3923200">
        <ele>2632.3</ele>
        <time>2021-08-12T10:02:23Z</time>
      </trkpt>
      <trkpt lat="42.6640730" lon="1.3923440">
        <ele>2627.7</ele>
        <time>2021-08-12T10:03:02Z</time>
      </trkpt>
      <trkpt lat="42.6640080" lon="1.3923850">
        <ele>2624.5</ele>
        <time>2021-08-12T10:03:27Z</time>
      </trkpt>
      <trkpt lat="42.6639510" lon="1.3922940">
        <ele>2620.5</ele>
        <time>2021-08-12T10:03:45Z</time>
      </trkpt>
      <trkpt lat="42.6639060" lon="1.3921660">
        <ele>2615.9</ele>
        <time>2021-08-12T10:04:11Z</time>
      </trkpt>
      <trkpt lat="42.6638930" lon="1.3921410">
        <ele>2614.8</ele>
        <time>2021-08-12T10:04:25Z</time>
      </trkpt>
      <trkpt lat="42.6637350" lon="1.3921770">
        <ele>2607.6</ele>
        <time>2021-08-12T10:05:06Z</time>
      </trkpt>
      <trkpt lat="42.6636680" lon="1.3921970">
        <ele>2604.6</ele>
        <time>2021-08-12T10:05:26Z</time>
      </trkpt>
      <trkpt lat="42.6636610" lon="1.3921660">
        <ele>2603.5</ele>
        <time>2021-08-12T10:05:30Z</time>
      </trkpt>
      <trkpt lat="42.6636480" lon="1.3921480">
        <ele>2602.6</ele>
        <time>2021-08-12T10:05:33Z</time>
      </trkpt>
      <trkpt lat="42.6636310" lon="1.3921360">
        <ele>2601.8</ele>
        <time>2021-08-12T10:05:37Z</time>
      </trkpt>
      <trkpt lat="42.6635370" lon="1.3921740">
        <ele>2597.4</ele>
        <time>2021-08-12T10:06:05Z</time>
      </trkpt>
      <trkpt lat="42.6635100" lon="1.3921610">
        <ele>2596.1</ele>
        <time>2021-08-12T10:06:24Z</time>
      </trkpt>
      <trkpt lat="42.6633460" lon="1.3922240">
        <ele>2588.4</ele>
        <time>2021-08-12T10:07:11Z</time>
      </trkpt>
      <trkpt lat="42.6631770" lon="1.3923090">
        <ele>2585.7</ele>
        <time>2021-08-12T10:07:43Z</time>
      </trkpt>
      <trkpt lat="42.6631040" lon="1.3922700">
        <ele>2584.7</ele>
        <time>2021-08-12T10:07:57Z</time>
      </trkpt>
      <trkpt lat="42.6629730" lon="1.3922040">
        <ele>2582.9</ele>
        <time>2021-08-12T10:08:30Z</time>
      </trkpt>
      <trkpt lat="42.6629030" lon="1.3921730">
        <ele>2582.0</ele>
        <time>2021-08-12T10:08:48Z</time>
      </trkpt>
      <trkpt lat="42.6627330" lon="1.3922100">
        <ele>2579.8</ele>
        <time>2021-08-12T10:09:27Z</time>
      </trkpt>
      <trkpt lat="42.6625650" lon="1.3921410">
        <ele>2577.5</ele>
        <time>2021-08-12T10:09:58Z</time>
      </trkpt>
      <trkpt lat="42.6624080" lon="1.3921770">
        <ele>2575.5</ele>
        <time>2021-08-12T10:10:22Z</time>
      </trkpt>
      <trkpt lat="42.6623270" lon="1.3921350">
        <ele>2574.4</ele>
        <time>2021-08-12T10:10:42Z</time>
      </trkpt>
      <trkpt lat="42.6623430" lon="1.3920230">
        <ele>2573.3</ele>
        <time>2021-08-12T10:11:03Z</time>
      </trkpt>
      <trkpt lat="42.6622360" lon="1.3919170">
        <ele>2571.6</ele>
        <time>2021-08-12T10:11:31Z</time>
      </trkpt>
      <trkpt lat="42.6622190" lon="1.3918970">
        <ele>2571.3</ele>
        <time>2021-08-12T10:11:37Z</time>
      </trkpt>
      <trkpt lat="42.6621870" lon="1.3918400">
        <ele>2570.7</ele>
        <time>2021-08-12T10:11:47Z</time>
      </trkpt>
      <trkpt lat="42.6620550" lon="1.3916660">
        <ele>2568.3</ele>
        <time>2021-08-12T10:12:13Z</time>
      </trkpt>
      <trkpt lat="42.6619890" lon="1.3915930">
        <ele>2567.2</ele>
        <time>2021-08-12T10:12:22Z</time>
      </trkpt>
      <trkpt lat="42.6618370" lon="1.3914730">
        <ele>2565.0</ele>
        <time>2021-08-12T10:12:44Z</time>
      </trkpt>
      <trkpt lat="42.6618090" lon="1.3914690">
        <ele>2564.6</ele>
        <time>2021-08-12T10:12:50Z</time>
      </trkpt>
      <trkpt lat="42.6617450" lon="1.3914560">
        <ele>2563.8</ele>
        <time>2021-08-12T10:12:59Z</time>
      </trkpt>
      <trkpt lat="42.6617270" lon="1.3914810">
        <ele>2563.4</ele>
        <time>2021-08-12T10:13:11Z</time>
      </trkpt>
      <trkpt lat="42.6617480" lon="1.3914890">
        <ele>2563.2</ele>
        <time>2021-08-12T10:13:52Z</time>
      </trkpt>
      <trkpt lat="42.6617430" lon="1.3914860">
        <ele>2563.1</ele>
        <time>2021-08-12T10:14:00Z</time>
      </trkpt>
      <trkpt lat="42.6617500" lon="1.3914770">
        <ele>2563.0</ele>
        <time>2021-08-12T10:14:10Z</time>
      </trkpt>
      <trkpt lat="42.6617350" lon="1.3914810">
        <ele>2562.8</ele>
        <time>2021-08-12T10:14:19Z</time>
      </trkpt>
      <trkpt lat="42.6617410" lon="1.3914800">
        <ele>2562.7</ele>
        <time>2021-08-12T10:14:27Z</time>
      </trkpt>
      <trkpt lat="42.6617160" lon="1.3914830">
        <ele>2562.4</ele>
        <time>2021-08-12T10:15:28Z</time>
      </trkpt>
      <trkpt lat="42.6617420" lon="1.3914820">
        <ele>2562.0</ele>
        <time>2021-08-12T10:16:22Z</time>
      </trkpt>
      <trkpt lat="42.6617470" lon="1.3914860">
        <ele>2562.0</ele>
        <time>2021-08-12T10:16:53Z</time>
      </trkpt>
      <trkpt lat="42.6617400" lon="1.3915000">
        <ele>2561.8</ele>
        <time>2021-08-12T10:16:56Z</time>
      </trkpt>
      <trkpt lat="42.6617410" lon="1.3915010">
        <ele>2561.8</ele>
        <time>2021-08-12T10:16:57Z</time>
      </trkpt>
      <trkpt lat="42.6617420" lon="1.3915020">
        <ele>2561.8</ele>
        <time>2021-08-12T10:16:58Z</time>
      </trkpt>
      <trkpt lat="42.6617460" lon="1.3915020">
        <ele>2561.7</ele>
        <time>2021-08-12T10:16:59Z</time>
      </trkpt>
      <trkpt lat="42.6617470" lon="1.3915020">
        <ele>2561.7</ele>
        <time>2021-08-12T10:17:01Z</time>
      </trkpt>
      <trkpt lat="42.6617530" lon="1.3915130">
        <ele>2561.6</ele>
        <time>2021-08-12T10:17:03Z</time>
      </trkpt>
      <trkpt lat="42.6617570" lon="1.3915290">
        <ele>2561.4</ele>
        <time>2021-08-12T10:17:19Z</time>
      </trkpt>
      <trkpt lat="42.6617510" lon="1.3915190">
        <ele>2561.3</ele>
        <time>2021-08-12T10:17:22Z</time>
      </trkpt>
      <trkpt lat="42.6617440" lon="1.3915120">
        <ele>2561.2</ele>
        <time>2021-08-12T10:17:27Z</time>
      </trkpt>
      <trkpt lat="42.6617370" lon="1.3914700">
        <ele>2560.8</ele>
        <time>2021-08-12T10:17:39Z</time>
      </trkpt>
      <trkpt lat="42.6617300" lon="1.3914800">
        <ele>2560.6</ele>
        <time>2021-08-12T10:17:47Z</time>
      </trkpt>
      <trkpt lat="42.6617420" lon="1.3914570">
        <ele>2560.4</ele>
        <time>2021-08-12T10:17:55Z</time>
      </trkpt>
      <trkpt lat="42.6617270" lon="1.3914300">
        <ele>2560.1</ele>
        <time>2021-08-12T10:17:59Z</time>
      </trkpt>
      <trkpt lat="42.6617230" lon="1.3914180">
        <ele>2559.9</ele>
        <time>2021-08-12T10:18:10Z</time>
      </trkpt>
      <trkpt lat="42.6617400" lon="1.3914260">
        <ele>2559.7</ele>
        <time>2021-08-12T10:18:26Z</time>
      </trkpt>
      <trkpt lat="42.6617500" lon="1.3914570">
        <ele>2559.4</ele>
        <time>2021-08-12T10:19:11Z</time>
      </trkpt>
      <trkpt lat="42.6617650" lon="1.3914500">
        <ele>2559.2</ele>
        <time>2021-08-12T10:19:17Z</time>
      </trkpt>
      <trkpt lat="42.6617720" lon="1.3914590">
        <ele>2559.1</ele>
        <time>2021-08-12T10:19:50Z</time>
      </trkpt>
      <trkpt lat="42.6617650" lon="1.3914730">
        <ele>2558.9</ele>
        <time>2021-08-12T10:19:53Z</time>
      </trkpt>
      <trkpt lat="42.6617640" lon="1.3914830">
        <ele>2558.8</ele>
        <time>2021-08-12T10:19:57Z</time>
      </trkpt>
      <trkpt lat="42.6617550" lon="1.3914820">
        <ele>2558.7</ele>
        <time>2021-08-12T10:20:18Z</time>
      </trkpt>
      <trkpt lat="42.6617360" lon="1.3914750">
        <ele>2558.4</ele>
        <time>2021-08-12T10:20:41Z</time>
      </trkpt>
      <trkpt lat="42.6617200" lon="1.3914840">
        <ele>2558.2</ele>
        <time>2021-08-12T10:21:43Z</time>
      </trkpt>
      <trkpt lat="42.6617230" lon="1.3914870">
        <ele>2558.2</ele>
        <time>2021-08-12T10:21:54Z</time>
      </trkpt>
      <trkpt lat="42.6617230" lon="1.3914920">
        <ele>2558.1</ele>
        <time>2021-08-12T10:22:01Z</time>
      </trkpt>
      <trkpt lat="42.6617160" lon="1.3914980">
        <ele>2558.0</ele>
        <time>2021-08-12T10:22:52Z</time>
      </trkpt>
      <trkpt lat="42.6617290" lon="1.3914870">
        <ele>2557.8</ele>
        <time>2021-08-12T10:22:55Z</time>
      </trkpt>
      <trkpt lat="42.6617440" lon="1.3914770">
        <ele>2557.6</ele>
        <time>2021-08-12T10:22:58Z</time>
      </trkpt>
      <trkpt lat="42.6617370" lon="1.3914860">
        <ele>2557.5</ele>
        <time>2021-08-12T10:23:25Z</time>
      </trkpt>
      <trkpt lat="42.6616730" lon="1.3915130">
        <ele>2556.6</ele>
        <time>2021-08-12T10:24:20Z</time>
      </trkpt>
      <trkpt lat="42.6616610" lon="1.3914940">
        <ele>2556.4</ele>
        <time>2021-08-12T10:24:52Z</time>
      </trkpt>
      <trkpt lat="42.6617120" lon="1.3914520">
        <ele>2555.6</ele>
        <time>2021-08-12T10:25:57Z</time>
      </trkpt>
      <trkpt lat="42.6617100" lon="1.3914500">
        <ele>2555.6</ele>
        <time>2021-08-12T10:26:00Z</time>
      </trkpt>
      <trkpt lat="42.6616620" lon="1.3914210">
        <ele>2554.9</ele>
        <time>2021-08-12T10:26:18Z</time>
      </trkpt>
      <trkpt lat="42.6616770" lon="1.3913490">
        <ele>2554.2</ele>
        <time>2021-08-12T10:26:36Z</time>
      </trkpt>
      <trkpt lat="42.6615690" lon="1.3911490">
        <ele>2551.9</ele>
        <time>2021-08-12T10:27:13Z</time>
      </trkpt>
      <trkpt lat="42.6614740" lon="1.3910190">
        <ele>2550.1</ele>
        <time>2021-08-12T10:27:26Z</time>
      </trkpt>
      <trkpt lat="42.6614400" lon="1.3909630">
        <ele>2549.5</ele>
        <time>2021-08-12T10:27:31Z</time>
      </trkpt>
      <trkpt lat="42.6614270" lon="1.3909310">
        <ele>2549.1</ele>
        <time>2021-08-12T10:27:34Z</time>
      </trkpt>
      <trkpt lat="42.6614200" lon="1.3909110">
        <ele>2548.9</ele>
        <time>2021-08-12T10:27:36Z</time>
      </trkpt>
      <trkpt lat="42.6614120" lon="1.3908800">
        <ele>2548.6</ele>
        <time>2021-08-12T10:27:39Z</time>
      </trkpt>
      <trkpt lat="42.6613960" lon="1.3908580">
        <ele>2548.3</ele>
        <time>2021-08-12T10:27:42Z</time>
      </trkpt>
      <trkpt lat="42.6613910" lon="1.3908530">
        <ele>2548.2</ele>
        <time>2021-08-12T10:27:43Z</time>
      </trkpt>
      <trkpt lat="42.6613760" lon="1.3908280">
        <ele>2547.9</ele>
        <time>2021-08-12T10:27:46Z</time>
      </trkpt>
      <trkpt lat="42.6612370" lon="1.3906820">
        <ele>2545.7</ele>
        <time>2021-08-12T10:28:12Z</time>
      </trkpt>
      <trkpt lat="42.6611410" lon="1.3905850">
        <ele>2544.1</ele>
        <time>2021-08-12T10:28:25Z</time>
      </trkpt>
      <trkpt lat="42.6610050" lon="1.3904320">
        <ele>2541.9</ele>
        <time>2021-08-12T10:28:56Z</time>
      </trkpt>
      <trkpt lat="42.6609610" lon="1.3902360">
        <ele>2539.9</ele>
        <time>2021-08-12T10:29:26Z</time>
      </trkpt>
      <trkpt lat="42.6609590" lon="1.3901990">
        <ele>2539.6</ele>
        <time>2021-08-12T10:29:31Z</time>
      </trkpt>
      <trkpt lat="42.6609500" lon="1.3901790">
        <ele>2539.4</ele>
        <time>2021-08-12T10:29:33Z</time>
      </trkpt>
      <trkpt lat="42.6609430" lon="1.3901730">
        <ele>2539.3</ele>
        <time>2021-08-12T10:29:34Z</time>
      </trkpt>
      <trkpt lat="42.6609390" lon="1.3901630">
        <ele>2539.1</ele>
        <time>2021-08-12T10:29:35Z</time>
      </trkpt>
      <trkpt lat="42.6609350" lon="1.3901540">
        <ele>2539.1</ele>
        <time>2021-08-12T10:29:36Z</time>
      </trkpt>
      <trkpt lat="42.6608960" lon="1.3900670">
        <ele>2538.1</ele>
        <time>2021-08-12T10:29:45Z</time>
      </trkpt>
      <trkpt lat="42.6608760" lon="1.3900260">
        <ele>2537.6</ele>
        <time>2021-08-12T10:29:49Z</time>
      </trkpt>
      <trkpt lat="42.6608710" lon="1.3900020">
        <ele>2537.4</ele>
        <time>2021-08-12T10:29:51Z</time>
      </trkpt>
      <trkpt lat="42.6608680" lon="1.3899900">
        <ele>2537.3</ele>
        <time>2021-08-12T10:29:52Z</time>
      </trkpt>
      <trkpt lat="42.6608660" lon="1.3899790">
        <ele>2537.2</ele>
        <time>2021-08-12T10:29:53Z</time>
      </trkpt>
      <trkpt lat="42.6608630" lon="1.3899680">
        <ele>2537.1</ele>
        <time>2021-08-12T10:29:54Z</time>
      </trkpt>
      <trkpt lat="42.6608600" lon="1.3899580">
        <ele>2537.0</ele>
        <time>2021-08-12T10:29:55Z</time>
      </trkpt>
      <trkpt lat="42.6608570" lon="1.3899470">
        <ele>2536.8</ele>
        <time>2021-08-12T10:29:56Z</time>
      </trkpt>
      <trkpt lat="42.6608430" lon="1.3899160">
        <ele>2536.5</ele>
        <time>2021-08-12T10:30:05Z</time>
      </trkpt>
      <trkpt lat="42.6608450" lon="1.3899050">
        <ele>2536.4</ele>
        <time>2021-08-12T10:30:10Z</time>
      </trkpt>
      <trkpt lat="42.6608360" lon="1.3898740">
        <ele>2536.1</ele>
        <time>2021-08-12T10:30:16Z</time>
      </trkpt>
      <trkpt lat="42.6608290" lon="1.3898220">
        <ele>2535.6</ele>
        <time>2021-08-12T10:30:22Z</time>
      </trkpt>
      <trkpt lat="42.6608210" lon="1.3898030">
        <ele>2535.4</ele>
        <time>2021-08-12T10:30:24Z</time>
      </trkpt>
      <trkpt lat="42.6607380" lon="1.3895810">
        <ele>2533.0</ele>
        <time>2021-08-12T10:30:46Z</time>
      </trkpt>
      <trkpt lat="42.6607000" lon="1.3893330">
        <ele>2530.6</ele>
        <time>2021-08-12T10:31:09Z</time>
      </trkpt>
      <trkpt lat="42.6606900" lon="1.3892670">
        <ele>2530.0</ele>
        <time>2021-08-12T10:31:17Z</time>
      </trkpt>
      <trkpt lat="42.6606350" lon="1.3890400">
        <ele>2527.7</ele>
        <time>2021-08-12T10:31:40Z</time>
      </trkpt>
      <trkpt lat="42.6606290" lon="1.3888880">
        <ele>2526.3</ele>
        <time>2021-08-12T10:31:56Z</time>
      </trkpt>
      <trkpt lat="42.6605440" lon="1.3887780">
        <ele>2524.8</ele>
        <time>2021-08-12T10:32:12Z</time>
      </trkpt>
      <trkpt lat="42.6605110" lon="1.3887500">
        <ele>2524.3</ele>
        <time>2021-08-12T10:32:16Z</time>
      </trkpt>
      <trkpt lat="42.6603420" lon="1.3886640">
        <ele>2522.0</ele>
        <time>2021-08-12T10:32:39Z</time>
      </trkpt>
      <trkpt lat="42.6603200" lon="1.3885920">
        <ele>2521.3</ele>
        <time>2021-08-12T10:32:49Z</time>
      </trkpt>
      <trkpt lat="42.6601820" lon="1.3885050">
        <ele>2519.3</ele>
        <time>2021-08-12T10:33:26Z</time>
      </trkpt>
      <trkpt lat="42.6601730" lon="1.3885030">
        <ele>2519.2</ele>
        <time>2021-08-12T10:33:27Z</time>
      </trkpt>
      <trkpt lat="42.6599890" lon="1.3884440">
        <ele>2516.8</ele>
        <time>2021-08-12T10:33:46Z</time>
      </trkpt>
      <trkpt lat="42.6599080" lon="1.3884370">
        <ele>2515.7</ele>
        <time>2021-08-12T10:33:53Z</time>
      </trkpt>
      <trkpt lat="42.6597230" lon="1.3884030">
        <ele>2513.3</ele>
        <time>2021-08-12T10:34:13Z</time>
      </trkpt>
      <trkpt lat="42.6595760" lon="1.3882490">
        <ele>2511.0</ele>
        <time>2021-08-12T10:34:32Z</time>
      </trkpt>
      <trkpt lat="42.6594270" lon="1.3881640">
        <ele>2508.9</ele>
        <time>2021-08-12T10:34:59Z</time>
      </trkpt>
      <trkpt lat="42.6592540" lon="1.3881540">
        <ele>2506.7</ele>
        <time>2021-08-12T10:35:23Z</time>
      </trkpt>
      <trkpt lat="42.6592340" lon="1.3881510">
        <ele>2506.4</ele>
        <time>2021-08-12T10:35:25Z</time>
      </trkpt>
      <trkpt lat="42.6592030" lon="1.3881250">
        <ele>2505.9</ele>
        <time>2021-08-12T10:35:29Z</time>
      </trkpt>
      <trkpt lat="42.6590500" lon="1.3879840">
        <ele>2503.6</ele>
        <time>2021-08-12T10:35:49Z</time>
      </trkpt>
      <trkpt lat="42.6590040" lon="1.3879130">
        <ele>2502.7</ele>
        <time>2021-08-12T10:35:57Z</time>
      </trkpt>
      <trkpt lat="42.6589410" lon="1.3878140">
        <ele>2501.4</ele>
        <time>2021-08-12T10:36:09Z</time>
      </trkpt>
      <trkpt lat="42.6588990" lon="1.3877510">
        <ele>2500.6</ele>
        <time>2021-08-12T10:36:18Z</time>
      </trkpt>
      <trkpt lat="42.6587470" lon="1.3876160">
        <ele>2498.3</ele>
        <time>2021-08-12T10:36:46Z</time>
      </trkpt>
      <trkpt lat="42.6586510" lon="1.3875930">
        <ele>2497.1</ele>
        <time>2021-08-12T10:37:00Z</time>
      </trkpt>
      <trkpt lat="42.6584940" lon="1.3876040">
        <ele>2495.0</ele>
        <time>2021-08-12T10:37:31Z</time>
      </trkpt>
      <trkpt lat="42.6583600" lon="1.3874370">
        <ele>2492.7</ele>
        <time>2021-08-12T10:37:50Z</time>
      </trkpt>
      <trkpt lat="42.6582210" lon="1.3873940">
        <ele>2490.9</ele>
        <time>2021-08-12T10:38:06Z</time>
      </trkpt>
      <trkpt lat="42.6580770" lon="1.3874200">
        <ele>2489.0</ele>
        <time>2021-08-12T10:38:50Z</time>
      </trkpt>
      <trkpt lat="42.6579800" lon="1.3873870">
        <ele>2487.7</ele>
        <time>2021-08-12T10:39:06Z</time>
      </trkpt>
      <trkpt lat="42.6578010" lon="1.3874110">
        <ele>2485.4</ele>
        <time>2021-08-12T10:39:34Z</time>
      </trkpt>
      <trkpt lat="42.6577010" lon="1.3874460">
        <ele>2484.1</ele>
        <time>2021-08-12T10:39:50Z</time>
      </trkpt>
      <trkpt lat="42.6575820" lon="1.3874440">
        <ele>2482.6</ele>
        <time>2021-08-12T10:40:09Z</time>
      </trkpt>
      <trkpt lat="42.6574970" lon="1.3874880">
        <ele>2481.4</ele>
        <time>2021-08-12T10:41:00Z</time>
      </trkpt>
      <trkpt lat="42.6574970" lon="1.3874810">
        <ele>2481.4</ele>
        <time>2021-08-12T10:41:08Z</time>
      </trkpt>
      <trkpt lat="42.6574970" lon="1.3874810">
        <ele>2481.4</ele>
        <time>2021-08-12T10:41:09Z</time>
      </trkpt>
      <trkpt lat="42.6574970" lon="1.3874810">
        <ele>2481.4</ele>
        <time>2021-08-12T10:41:10Z</time>
      </trkpt>
      <trkpt lat="42.6574930" lon="1.3874800">
        <ele>2481.3</ele>
        <time>2021-08-12T10:41:13Z</time>
      </trkpt>
      <trkpt lat="42.6574930" lon="1.3874780">
        <ele>2481.3</ele>
        <time>2021-08-12T10:41:14Z</time>
      </trkpt>
      <trkpt lat="42.6574900" lon="1.3874700">
        <ele>2481.2</ele>
        <time>2021-08-12T10:41:16Z</time>
      </trkpt>
      <trkpt lat="42.6574880" lon="1.3874670">
        <ele>2481.2</ele>
        <time>2021-08-12T10:41:23Z</time>
      </trkpt>
      <trkpt lat="42.6574660" lon="1.3874770">
        <ele>2480.9</ele>
        <time>2021-08-12T10:41:42Z</time>
      </trkpt>
      <trkpt lat="42.6574640" lon="1.3874860">
        <ele>2480.8</ele>
        <time>2021-08-12T10:41:47Z</time>
      </trkpt>
      <trkpt lat="42.6574620" lon="1.3874880">
        <ele>2480.7</ele>
        <time>2021-08-12T10:41:48Z</time>
      </trkpt>
      <trkpt lat="42.6574570" lon="1.3874880">
        <ele>2480.7</ele>
        <time>2021-08-12T10:41:49Z</time>
      </trkpt>
      <trkpt lat="42.6574500" lon="1.3874860">
        <ele>2480.6</ele>
        <time>2021-08-12T10:41:50Z</time>
      </trkpt>
      <trkpt lat="42.6574450" lon="1.3874840">
        <ele>2480.5</ele>
        <time>2021-08-12T10:41:51Z</time>
      </trkpt>
      <trkpt lat="42.6574340" lon="1.3874780">
        <ele>2480.4</ele>
        <time>2021-08-12T10:41:55Z</time>
      </trkpt>
      <trkpt lat="42.6574310" lon="1.3874740">
        <ele>2480.3</ele>
        <time>2021-08-12T10:41:57Z</time>
      </trkpt>
      <trkpt lat="42.6574370" lon="1.3874600">
        <ele>2480.2</ele>
        <time>2021-08-12T10:42:08Z</time>
      </trkpt>
      <trkpt lat="42.6574320" lon="1.3874650">
        <ele>2480.1</ele>
        <time>2021-08-12T10:42:12Z</time>
      </trkpt>
      <trkpt lat="42.6574300" lon="1.3874800">
        <ele>2479.9</ele>
        <time>2021-08-12T10:42:15Z</time>
      </trkpt>
      <trkpt lat="42.6574300" lon="1.3874840">
        <ele>2479.9</ele>
        <time>2021-08-12T10:42:16Z</time>
      </trkpt>
      <trkpt lat="42.6573940" lon="1.3875090">
        <ele>2479.4</ele>
        <time>2021-08-12T10:42:34Z</time>
      </trkpt>
      <trkpt lat="42.6573800" lon="1.3875220">
        <ele>2479.2</ele>
        <time>2021-08-12T10:42:39Z</time>
      </trkpt>
      <trkpt lat="42.6573830" lon="1.3875260">
        <ele>2479.1</ele>
        <time>2021-08-12T10:42:43Z</time>
      </trkpt>
      <trkpt lat="42.6573740" lon="1.3875500">
        <ele>2478.9</ele>
        <time>2021-08-12T10:42:49Z</time>
      </trkpt>
      <trkpt lat="42.6573550" lon="1.3875910">
        <ele>2478.4</ele>
        <time>2021-08-12T10:43:01Z</time>
      </trkpt>
      <trkpt lat="42.6573450" lon="1.3875880">
        <ele>2478.3</ele>
        <time>2021-08-12T10:43:14Z</time>
      </trkpt>
      <trkpt lat="42.6572940" lon="1.3875990">
        <ele>2477.6</ele>
        <time>2021-08-12T10:43:30Z</time>
      </trkpt>
      <trkpt lat="42.6572580" lon="1.3875820">
        <ele>2477.1</ele>
        <time>2021-08-12T10:43:39Z</time>
      </trkpt>
      <trkpt lat="42.6572540" lon="1.3875850">
        <ele>2477.1</ele>
        <time>2021-08-12T10:43:40Z</time>
      </trkpt>
      <trkpt lat="42.6572480" lon="1.3875840">
        <ele>2477.0</ele>
        <time>2021-08-12T10:43:41Z</time>
      </trkpt>
      <trkpt lat="42.6572400" lon="1.3875850">
        <ele>2476.9</ele>
        <time>2021-08-12T10:43:43Z</time>
      </trkpt>
      <trkpt lat="42.6570620" lon="1.3876060">
        <ele>2474.6</ele>
        <time>2021-08-12T10:44:14Z</time>
      </trkpt>
      <trkpt lat="42.6569990" lon="1.3875930">
        <ele>2473.8</ele>
        <time>2021-08-12T10:44:24Z</time>
      </trkpt>
      <trkpt lat="42.6568510" lon="1.3876360">
        <ele>2471.8</ele>
        <time>2021-08-12T10:45:01Z</time>
      </trkpt>
      <trkpt lat="42.6568450" lon="1.3876400">
        <ele>2471.7</ele>
        <time>2021-08-12T10:45:03Z</time>
      </trkpt>
      <trkpt lat="42.6568420" lon="1.3876420">
        <ele>2471.7</ele>
        <time>2021-08-12T10:45:04Z</time>
      </trkpt>
      <trkpt lat="42.6568330" lon="1.3876530">
        <ele>2471.5</ele>
        <time>2021-08-12T10:45:06Z</time>
      </trkpt>
      <trkpt lat="42.6568260" lon="1.3876590">
        <ele>2471.4</ele>
        <time>2021-08-12T10:45:07Z</time>
      </trkpt>
      <trkpt lat="42.6567800" lon="1.3876730">
        <ele>2470.8</ele>
        <time>2021-08-12T10:45:14Z</time>
      </trkpt>
      <trkpt lat="42.6566450" lon="1.3877330">
        <ele>2469.0</ele>
        <time>2021-08-12T10:45:33Z</time>
      </trkpt>
      <trkpt lat="42.6565230" lon="1.3877630">
        <ele>2467.4</ele>
        <time>2021-08-12T10:45:49Z</time>
      </trkpt>
      <trkpt lat="42.6564740" lon="1.3878200">
        <ele>2466.6</ele>
        <time>2021-08-12T10:45:56Z</time>
      </trkpt>
      <trkpt lat="42.6564420" lon="1.3878560">
        <ele>2466.1</ele>
        <time>2021-08-12T10:46:00Z</time>
      </trkpt>
      <trkpt lat="42.6562970" lon="1.3878900">
        <ele>2463.2</ele>
        <time>2021-08-12T10:46:24Z</time>
      </trkpt>
      <trkpt lat="42.6563270" lon="1.3877400">
        <ele>2462.8</ele>
        <time>2021-08-12T10:46:40Z</time>
      </trkpt>
      <trkpt lat="42.6563370" lon="1.3876700">
        <ele>2462.6</ele>
        <time>2021-08-12T10:46:46Z</time>
      </trkpt>
      <trkpt lat="42.6563380" lon="1.3876170">
        <ele>2462.4</ele>
        <time>2021-08-12T10:46:50Z</time>
      </trkpt>
      <trkpt lat="42.6562980" lon="1.3874840">
        <ele>2461.8</ele>
        <time>2021-08-12T10:47:05Z</time>
      </trkpt>
      <trkpt lat="42.6562010" lon="1.3873860">
        <ele>2460.6</ele>
        <time>2021-08-12T10:47:29Z</time>
      </trkpt>
      <trkpt lat="42.6561910" lon="1.3873850">
        <ele>2460.5</ele>
        <time>2021-08-12T10:47:31Z</time>
      </trkpt>
      <trkpt lat="42.6561530" lon="1.3874670">
        <ele>2459.5</ele>
        <time>2021-08-12T10:48:03Z</time>
      </trkpt>
      <trkpt lat="42.6561310" lon="1.3875380">
        <ele>2458.8</ele>
        <time>2021-08-12T10:48:13Z</time>
      </trkpt>
      <trkpt lat="42.6561300" lon="1.3875740">
        <ele>2458.4</ele>
        <time>2021-08-12T10:48:18Z</time>
      </trkpt>
      <trkpt lat="42.6561310" lon="1.3876120">
        <ele>2458.0</ele>
        <time>2021-08-12T10:48:25Z</time>
      </trkpt>
      <trkpt lat="42.6560890" lon="1.3875950">
        <ele>2457.3</ele>
        <time>2021-08-12T10:48:42Z</time>
      </trkpt>
      <trkpt lat="42.6560660" lon="1.3875980">
        <ele>2457.0</ele>
        <time>2021-08-12T10:48:57Z</time>
      </trkpt>
      <trkpt lat="42.6560210" lon="1.3875740">
        <ele>2456.3</ele>
        <time>2021-08-12T10:49:10Z</time>
      </trkpt>
      <trkpt lat="42.6559420" lon="1.3874180">
        <ele>2454.4</ele>
        <time>2021-08-12T10:49:32Z</time>
      </trkpt>
      <trkpt lat="42.6559120" lon="1.3873740">
        <ele>2453.8</ele>
        <time>2021-08-12T10:49:37Z</time>
      </trkpt>
      <trkpt lat="42.6558590" lon="1.3873370">
        <ele>2452.9</ele>
        <time>2021-08-12T10:49:43Z</time>
      </trkpt>
      <trkpt lat="42.6558250" lon="1.3873250">
        <ele>2452.4</ele>
        <time>2021-08-12T10:49:49Z</time>
      </trkpt>
      <trkpt lat="42.6558630" lon="1.3872240">
        <ele>2451.3</ele>
        <time>2021-08-12T10:50:03Z</time>
      </trkpt>
      <trkpt lat="42.6558600" lon="1.3871950">
        <ele>2451.1</ele>
        <time>2021-08-12T10:50:07Z</time>
      </trkpt>
      <trkpt lat="42.6556960" lon="1.3871240">
        <ele>2449.1</ele>
        <time>2021-08-12T10:50:44Z</time>
      </trkpt>
      <trkpt lat="42.6555500" lon="1.3870080">
        <ele>2446.9</ele>
        <time>2021-08-12T10:51:11Z</time>
      </trkpt>
      <trkpt lat="42.6554080" lon="1.3869230">
        <ele>2444.9</ele>
        <time>2021-08-12T10:51:55Z</time>
      </trkpt>
      <trkpt lat="42.6553100" lon="1.3867810">
        <ele>2442.0</ele>
        <time>2021-08-12T10:52:43Z</time>
      </trkpt>
      <trkpt lat="42.6553020" lon="1.3867700">
        <ele>2441.9</ele>
        <time>2021-08-12T10:52:46Z</time>
      </trkpt>
      <trkpt lat="42.6553010" lon="1.3867650">
        <ele>2441.8</ele>
        <time>2021-08-12T10:52:47Z</time>
      </trkpt>
      <trkpt lat="42.6552940" lon="1.3867670">
        <ele>2441.8</ele>
        <time>2021-08-12T10:52:51Z</time>
      </trkpt>
      <trkpt lat="42.6552960" lon="1.3867530">
        <ele>2441.7</ele>
        <time>2021-08-12T10:52:54Z</time>
      </trkpt>
      <trkpt lat="42.6552930" lon="1.3867070">
        <ele>2441.4</ele>
        <time>2021-08-12T10:52:58Z</time>
      </trkpt>
      <trkpt lat="42.6552950" lon="1.3866790">
        <ele>2441.2</ele>
        <time>2021-08-12T10:53:03Z</time>
      </trkpt>
      <trkpt lat="42.6552910" lon="1.3866850">
        <ele>2441.2</ele>
        <time>2021-08-12T10:53:14Z</time>
      </trkpt>
      <trkpt lat="42.6552940" lon="1.3866870">
        <ele>2441.2</ele>
        <time>2021-08-12T10:53:17Z</time>
      </trkpt>
      <trkpt lat="42.6552960" lon="1.3866930">
        <ele>2441.1</ele>
        <time>2021-08-12T10:53:25Z</time>
      </trkpt>
      <trkpt lat="42.6552950" lon="1.3866700">
        <ele>2441.0</ele>
        <time>2021-08-12T10:53:38Z</time>
      </trkpt>
      <trkpt lat="42.6552870" lon="1.3866680">
        <ele>2440.9</ele>
        <time>2021-08-12T10:53:45Z</time>
      </trkpt>
      <trkpt lat="42.6552870" lon="1.3866680">
        <ele>2440.9</ele>
        <time>2021-08-12T10:53:50Z</time>
      </trkpt>
      <trkpt lat="42.6552850" lon="1.3866800">
        <ele>2440.8</ele>
        <time>2021-08-12T10:54:07Z</time>
      </trkpt>
      <trkpt lat="42.6552930" lon="1.3866620">
        <ele>2440.7</ele>
        <time>2021-08-12T10:54:23Z</time>
      </trkpt>
      <trkpt lat="42.6552900" lon="1.3866470">
        <ele>2440.6</ele>
        <time>2021-08-12T10:54:47Z</time>
      </trkpt>
      <trkpt lat="42.6552900" lon="1.3866460">
        <ele>2440.6</ele>
        <time>2021-08-12T10:54:52Z</time>
      </trkpt>
      <trkpt lat="42.6552900" lon="1.3866520">
        <ele>2440.6</ele>
        <time>2021-08-12T10:55:05Z</time>
      </trkpt>
      <trkpt lat="42.6552890" lon="1.3866400">
        <ele>2440.5</ele>
        <time>2021-08-12T10:55:13Z</time>
      </trkpt>
      <trkpt lat="42.6552930" lon="1.3866190">
        <ele>2440.4</ele>
        <time>2021-08-12T10:55:19Z</time>
      </trkpt>
      <trkpt lat="42.6552860" lon="1.3866120">
        <ele>2440.3</ele>
        <time>2021-08-12T10:55:27Z</time>
      </trkpt>
      <trkpt lat="42.6552850" lon="1.3866120">
        <ele>2440.3</ele>
        <time>2021-08-12T10:55:28Z</time>
      </trkpt>
      <trkpt lat="42.6552880" lon="1.3866100">
        <ele>2440.3</ele>
        <time>2021-08-12T10:55:30Z</time>
      </trkpt>
      <trkpt lat="42.6552910" lon="1.3866090">
        <ele>2440.2</ele>
        <time>2021-08-12T10:55:31Z</time>
      </trkpt>
      <trkpt lat="42.6552990" lon="1.3866090">
        <ele>2440.2</ele>
        <time>2021-08-12T10:55:33Z</time>
      </trkpt>
      <trkpt lat="42.6553070" lon="1.3866110">
        <ele>2440.1</ele>
        <time>2021-08-12T10:55:38Z</time>
      </trkpt>
      <trkpt lat="42.6552740" lon="1.3865830">
        <ele>2439.8</ele>
        <time>2021-08-12T10:56:03Z</time>
      </trkpt>
      <trkpt lat="42.6552630" lon="1.3866110">
        <ele>2439.6</ele>
        <time>2021-08-12T10:56:14Z</time>
      </trkpt>
      <trkpt lat="42.6552730" lon="1.3866260">
        <ele>2439.5</ele>
        <time>2021-08-12T10:56:18Z</time>
      </trkpt>
      <trkpt lat="42.6552730" lon="1.3866250">
        <ele>2439.5</ele>
        <time>2021-08-12T10:56:20Z</time>
      </trkpt>
      <trkpt lat="42.6552700" lon="1.3866280">
        <ele>2439.4</ele>
        <time>2021-08-12T10:56:23Z</time>
      </trkpt>
      <trkpt lat="42.6552620" lon="1.3866610">
        <ele>2439.2</ele>
        <time>2021-08-12T10:56:40Z</time>
      </trkpt>
      <trkpt lat="42.6552750" lon="1.3866460">
        <ele>2439.1</ele>
        <time>2021-08-12T10:56:51Z</time>
      </trkpt>
      <trkpt lat="42.6552380" lon="1.3865990">
        <ele>2438.6</ele>
        <time>2021-08-12T10:57:26Z</time>
      </trkpt>
      <trkpt lat="42.6552250" lon="1.3865950">
        <ele>2438.5</ele>
        <time>2021-08-12T10:57:32Z</time>
      </trkpt>
      <trkpt lat="42.6552250" lon="1.3865910">
        <ele>2438.5</ele>
        <time>2021-08-12T10:57:41Z</time>
      </trkpt>
      <trkpt lat="42.6552240" lon="1.3866020">
        <ele>2438.4</ele>
        <time>2021-08-12T10:57:48Z</time>
      </trkpt>
      <trkpt lat="42.6552250" lon="1.3866210">
        <ele>2438.3</ele>
        <time>2021-08-12T10:57:54Z</time>
      </trkpt>
      <trkpt lat="42.6552240" lon="1.3866240">
        <ele>2438.2</ele>
        <time>2021-08-12T10:57:55Z</time>
      </trkpt>
      <trkpt lat="42.6552230" lon="1.3866280">
        <ele>2438.2</ele>
        <time>2021-08-12T10:57:56Z</time>
      </trkpt>
      <trkpt lat="42.6552190" lon="1.3866380">
        <ele>2438.1</ele>
        <time>2021-08-12T10:57:58Z</time>
      </trkpt>
      <trkpt lat="42.6552170" lon="1.3866450">
        <ele>2438.1</ele>
        <time>2021-08-12T10:58:05Z</time>
      </trkpt>
      <trkpt lat="42.6552180" lon="1.3866450">
        <ele>2438.1</ele>
        <time>2021-08-12T10:58:07Z</time>
      </trkpt>
      <trkpt lat="42.6552170" lon="1.3866450">
        <ele>2438.1</ele>
        <time>2021-08-12T10:58:09Z</time>
      </trkpt>
      <trkpt lat="42.6552170" lon="1.3866450">
        <ele>2438.1</ele>
        <time>2021-08-12T10:58:10Z</time>
      </trkpt>
      <trkpt lat="42.6552110" lon="1.3866860">
        <ele>2437.8</ele>
        <time>2021-08-12T10:58:36Z</time>
      </trkpt>
      <trkpt lat="42.6552100" lon="1.3866850">
        <ele>2437.7</ele>
        <time>2021-08-12T10:58:37Z</time>
      </trkpt>
      <trkpt lat="42.6552080" lon="1.3866850">
        <ele>2437.7</ele>
        <time>2021-08-12T10:58:45Z</time>
      </trkpt>
      <trkpt lat="42.6552130" lon="1.3866860">
        <ele>2437.7</ele>
        <time>2021-08-12T10:58:51Z</time>
      </trkpt>
      <trkpt lat="42.6552140" lon="1.3866850">
        <ele>2437.7</ele>
        <time>2021-08-12T10:58:54Z</time>
      </trkpt>
      <trkpt lat="42.6551960" lon="1.3866900">
        <ele>2437.5</ele>
        <time>2021-08-12T10:59:32Z</time>
      </trkpt>
      <trkpt lat="42.6551920" lon="1.3866930">
        <ele>2437.4</ele>
        <time>2021-08-12T10:59:41Z</time>
      </trkpt>
      <trkpt lat="42.6552040" lon="1.3866910">
        <ele>2437.3</ele>
        <time>2021-08-12T10:59:49Z</time>
      </trkpt>
      <trkpt lat="42.6552060" lon="1.3866870">
        <ele>2437.3</ele>
        <time>2021-08-12T10:59:58Z</time>
      </trkpt>
      <trkpt lat="42.6552070" lon="1.3866880">
        <ele>2437.2</ele>
        <time>2021-08-12T11:00:03Z</time>
      </trkpt>
      <trkpt lat="42.6552070" lon="1.3866850">
        <ele>2437.2</ele>
        <time>2021-08-12T11:00:08Z</time>
      </trkpt>
      <trkpt lat="42.6552080" lon="1.3866830">
        <ele>2437.2</ele>
        <time>2021-08-12T11:00:09Z</time>
      </trkpt>
      <trkpt lat="42.6552130" lon="1.3866840">
        <ele>2437.2</ele>
        <time>2021-08-12T11:00:11Z</time>
      </trkpt>
      <trkpt lat="42.6552110" lon="1.3866760">
        <ele>2437.1</ele>
        <time>2021-08-12T11:00:16Z</time>
      </trkpt>
      <trkpt lat="42.6552110" lon="1.3866740">
        <ele>2437.1</ele>
        <time>2021-08-12T11:00:17Z</time>
      </trkpt>
      <trkpt lat="42.6552130" lon="1.3866640">
        <ele>2437.0</ele>
        <time>2021-08-12T11:00:19Z</time>
      </trkpt>
      <trkpt lat="42.6552100" lon="1.3866540">
        <ele>2436.9</ele>
        <time>2021-08-12T11:00:26Z</time>
      </trkpt>
      <trkpt lat="42.6552070" lon="1.3866550">
        <ele>2436.9</ele>
        <time>2021-08-12T11:00:28Z</time>
      </trkpt>
      <trkpt lat="42.6552090" lon="1.3866530">
        <ele>2436.9</ele>
        <time>2021-08-12T11:00:29Z</time>
      </trkpt>
      <trkpt lat="42.6552150" lon="1.3866520">
        <ele>2436.8</ele>
        <time>2021-08-12T11:00:33Z</time>
      </trkpt>
      <trkpt lat="42.6552120" lon="1.3866510">
        <ele>2436.8</ele>
        <time>2021-08-12T11:00:34Z</time>
      </trkpt>
      <trkpt lat="42.6552150" lon="1.3866510">
        <ele>2436.7</ele>
        <time>2021-08-12T11:00:36Z</time>
      </trkpt>
      <trkpt lat="42.6552200" lon="1.3866430">
        <ele>2436.7</ele>
        <time>2021-08-12T11:00:45Z</time>
      </trkpt>
      <trkpt lat="42.6552240" lon="1.3866390">
        <ele>2436.6</ele>
        <time>2021-08-12T11:00:48Z</time>
      </trkpt>
      <trkpt lat="42.6552270" lon="1.3866370">
        <ele>2436.6</ele>
        <time>2021-08-12T11:00:50Z</time>
      </trkpt>
      <trkpt lat="42.6552270" lon="1.3866340">
        <ele>2436.5</ele>
        <time>2021-08-12T11:00:56Z</time>
      </trkpt>
      <trkpt lat="42.6551820" lon="1.3864530">
        <ele>2435.4</ele>
        <time>2021-08-12T11:01:37Z</time>
      </trkpt>
      <trkpt lat="42.6551810" lon="1.3864490">
        <ele>2435.4</ele>
        <time>2021-08-12T11:01:38Z</time>
      </trkpt>
      <trkpt lat="42.6551820" lon="1.3864430">
        <ele>2435.3</ele>
        <time>2021-08-12T11:01:39Z</time>
      </trkpt>
      <trkpt lat="42.6551770" lon="1.3863990">
        <ele>2435.2</ele>
        <time>2021-08-12T11:01:48Z</time>
      </trkpt>
      <trkpt lat="42.6551780" lon="1.3863950">
        <ele>2435.1</ele>
        <time>2021-08-12T11:01:49Z</time>
      </trkpt>
      <trkpt lat="42.6551760" lon="1.3863900">
        <ele>2435.1</ele>
        <time>2021-08-12T11:01:50Z</time>
      </trkpt>
      <trkpt lat="42.6551710" lon="1.3863510">
        <ele>2435.0</ele>
        <time>2021-08-12T11:01:54Z</time>
      </trkpt>
      <trkpt lat="42.6551880" lon="1.3862510">
        <ele>2434.7</ele>
        <time>2021-08-12T11:02:11Z</time>
      </trkpt>
      <trkpt lat="42.6551780" lon="1.3861810">
        <ele>2434.5</ele>
        <time>2021-08-12T11:02:40Z</time>
      </trkpt>
      <trkpt lat="42.6551170" lon="1.3859480">
        <ele>2433.7</ele>
        <time>2021-08-12T11:03:07Z</time>
      </trkpt>
      <trkpt lat="42.6551240" lon="1.3857010">
        <ele>2432.3</ele>
        <time>2021-08-12T11:03:34Z</time>
      </trkpt>
      <trkpt lat="42.6551100" lon="1.3856360">
        <ele>2431.7</ele>
        <time>2021-08-12T11:03:39Z</time>
      </trkpt>
      <trkpt lat="42.6551570" lon="1.3854070">
        <ele>2429.6</ele>
        <time>2021-08-12T11:04:05Z</time>
      </trkpt>
      <trkpt lat="42.6551810" lon="1.3853170">
        <ele>2428.5</ele>
        <time>2021-08-12T11:04:13Z</time>
      </trkpt>
      <trkpt lat="42.6551450" lon="1.3851050">
        <ele>2425.8</ele>
        <time>2021-08-12T11:04:34Z</time>
      </trkpt>
      <trkpt lat="42.6550820" lon="1.3848720">
        <ele>2422.9</ele>
        <time>2021-08-12T11:05:02Z</time>
      </trkpt>
      <trkpt lat="42.6550500" lon="1.3847620">
        <ele>2421.8</ele>
        <time>2021-08-12T11:05:11Z</time>
      </trkpt>
      <trkpt lat="42.6550510" lon="1.3847520">
        <ele>2421.7</ele>
        <time>2021-08-12T11:05:12Z</time>
      </trkpt>
      <trkpt lat="42.6550500" lon="1.3847430">
        <ele>2421.6</ele>
        <time>2021-08-12T11:05:13Z</time>
      </trkpt>
      <trkpt lat="42.6549890" lon="1.3845930">
        <ele>2419.7</ele>
        <time>2021-08-12T11:05:34Z</time>
      </trkpt>
      <trkpt lat="42.6549290" lon="1.3843730">
        <ele>2416.6</ele>
        <time>2021-08-12T11:06:06Z</time>
      </trkpt>
      <trkpt lat="42.6547880" lon="1.3842300">
        <ele>2412.6</ele>
        <time>2021-08-12T11:06:37Z</time>
      </trkpt>
      <trkpt lat="42.6546730" lon="1.3842020">
        <ele>2410.0</ele>
        <time>2021-08-12T11:06:56Z</time>
      </trkpt>
      <trkpt lat="42.6546220" lon="1.3842020">
        <ele>2408.8</ele>
        <time>2021-08-12T11:07:09Z</time>
      </trkpt>
      <trkpt lat="42.6546070" lon="1.3841780">
        <ele>2408.2</ele>
        <time>2021-08-12T11:07:15Z</time>
      </trkpt>
      <trkpt lat="42.6544640" lon="1.3841610">
        <ele>2404.4</ele>
        <time>2021-08-12T11:07:55Z</time>
      </trkpt>
      <trkpt lat="42.6543120" lon="1.3840740">
        <ele>2400.9</ele>
        <time>2021-08-12T11:08:34Z</time>
      </trkpt>
      <trkpt lat="42.6541570" lon="1.3839600">
        <ele>2397.0</ele>
        <time>2021-08-12T11:08:56Z</time>
      </trkpt>
      <trkpt lat="42.6540120" lon="1.3838100">
        <ele>2391.5</ele>
        <time>2021-08-12T11:09:21Z</time>
      </trkpt>
      <trkpt lat="42.6538990" lon="1.3836160">
        <ele>2386.0</ele>
        <time>2021-08-12T11:09:48Z</time>
      </trkpt>
      <trkpt lat="42.6537940" lon="1.3834210">
        <ele>2381.9</ele>
        <time>2021-08-12T11:10:16Z</time>
      </trkpt>
      <trkpt lat="42.6536840" lon="1.3832230">
        <ele>2378.6</ele>
        <time>2021-08-12T11:10:45Z</time>
      </trkpt>
      <trkpt lat="42.6536570" lon="1.3831350">
        <ele>2377.3</ele>
        <time>2021-08-12T11:10:54Z</time>
      </trkpt>
      <trkpt lat="42.6535670" lon="1.3830400">
        <ele>2374.9</ele>
        <time>2021-08-12T11:11:13Z</time>
      </trkpt>
      <trkpt lat="42.6535190" lon="1.3830010">
        <ele>2373.6</ele>
        <time>2021-08-12T11:11:21Z</time>
      </trkpt>
      <trkpt lat="42.6534480" lon="1.3829650">
        <ele>2372.0</ele>
        <time>2021-08-12T11:12:05Z</time>
      </trkpt>
      <trkpt lat="42.6533700" lon="1.3830050">
        <ele>2370.6</ele>
        <time>2021-08-12T11:12:43Z</time>
      </trkpt>
      <trkpt lat="42.6533650" lon="1.3829600">
        <ele>2370.3</ele>
        <time>2021-08-12T11:12:50Z</time>
      </trkpt>
      <trkpt lat="42.6533600" lon="1.3829550">
        <ele>2370.3</ele>
        <time>2021-08-12T11:12:51Z</time>
      </trkpt>
      <trkpt lat="42.6533330" lon="1.3829420">
        <ele>2370.1</ele>
        <time>2021-08-12T11:12:55Z</time>
      </trkpt>
      <trkpt lat="42.6533230" lon="1.3829350">
        <ele>2370.1</ele>
        <time>2021-08-12T11:12:57Z</time>
      </trkpt>
      <trkpt lat="42.6533090" lon="1.3829270">
        <ele>2370.0</ele>
        <time>2021-08-12T11:13:00Z</time>
      </trkpt>
      <trkpt lat="42.6531500" lon="1.3829650">
        <ele>2369.9</ele>
        <time>2021-08-12T11:13:18Z</time>
      </trkpt>
      <trkpt lat="42.6531310" lon="1.3829720">
        <ele>2369.9</ele>
        <time>2021-08-12T11:13:20Z</time>
      </trkpt>
      <trkpt lat="42.6531220" lon="1.3829720">
        <ele>2370.0</ele>
        <time>2021-08-12T11:13:21Z</time>
      </trkpt>
      <trkpt lat="42.6530470" lon="1.3829770">
        <ele>2370.3</ele>
        <time>2021-08-12T11:13:29Z</time>
      </trkpt>
      <trkpt lat="42.6530060" lon="1.3829580">
        <ele>2370.5</ele>
        <time>2021-08-12T11:13:34Z</time>
      </trkpt>
      <trkpt lat="42.6528300" lon="1.3828780">
        <ele>2370.5</ele>
        <time>2021-08-12T11:13:54Z</time>
      </trkpt>
      <trkpt lat="42.6526530" lon="1.3828380">
        <ele>2369.2</ele>
        <time>2021-08-12T11:14:13Z</time>
      </trkpt>
      <trkpt lat="42.6525670" lon="1.3828620">
        <ele>2367.7</ele>
        <time>2021-08-12T11:14:25Z</time>
      </trkpt>
      <trkpt lat="42.6524610" lon="1.3828090">
        <ele>2364.6</ele>
        <time>2021-08-12T11:14:46Z</time>
      </trkpt>
      <trkpt lat="42.6524240" lon="1.3827950">
        <ele>2363.4</ele>
        <time>2021-08-12T11:15:13Z</time>
      </trkpt>
      <trkpt lat="42.6523820" lon="1.3827270">
        <ele>2361.6</ele>
        <time>2021-08-12T11:15:24Z</time>
      </trkpt>
      <trkpt lat="42.6522990" lon="1.3827040">
        <ele>2359.5</ele>
        <time>2021-08-12T11:15:38Z</time>
      </trkpt>
      <trkpt lat="42.6522790" lon="1.3826820">
        <ele>2359.0</ele>
        <time>2021-08-12T11:15:44Z</time>
      </trkpt>
      <trkpt lat="42.6522620" lon="1.3826630">
        <ele>2358.6</ele>
        <time>2021-08-12T11:15:49Z</time>
      </trkpt>
      <trkpt lat="42.6522550" lon="1.3826590">
        <ele>2358.5</ele>
        <time>2021-08-12T11:15:50Z</time>
      </trkpt>
      <trkpt lat="42.6522450" lon="1.3826520">
        <ele>2358.3</ele>
        <time>2021-08-12T11:15:51Z</time>
      </trkpt>
      <trkpt lat="42.6522180" lon="1.3826110">
        <ele>2357.9</ele>
        <time>2021-08-12T11:15:56Z</time>
      </trkpt>
      <trkpt lat="42.6522150" lon="1.3826050">
        <ele>2357.8</ele>
        <time>2021-08-12T11:15:57Z</time>
      </trkpt>
      <trkpt lat="42.6522110" lon="1.3825980">
        <ele>2357.8</ele>
        <time>2021-08-12T11:15:58Z</time>
      </trkpt>
      <trkpt lat="42.6522080" lon="1.3825920">
        <ele>2357.7</ele>
        <time>2021-08-12T11:15:59Z</time>
      </trkpt>
      <trkpt lat="42.6521470" lon="1.3825500">
        <ele>2357.4</ele>
        <time>2021-08-12T11:16:13Z</time>
      </trkpt>
      <trkpt lat="42.6521140" lon="1.3825330">
        <ele>2357.4</ele>
        <time>2021-08-12T11:16:18Z</time>
      </trkpt>
      <trkpt lat="42.6520790" lon="1.3824850">
        <ele>2357.6</ele>
        <time>2021-08-12T11:16:26Z</time>
      </trkpt>
      <trkpt lat="42.6520270" lon="1.3824460">
        <ele>2357.8</ele>
        <time>2021-08-12T11:16:32Z</time>
      </trkpt>
      <trkpt lat="42.6518650" lon="1.3823220">
        <ele>2359.2</ele>
        <time>2021-08-12T11:16:53Z</time>
      </trkpt>
      <trkpt lat="42.6517040" lon="1.3822060">
        <ele>2360.6</ele>
        <time>2021-08-12T11:17:14Z</time>
      </trkpt>
      <trkpt lat="42.6516660" lon="1.3821840">
        <ele>2360.8</ele>
        <time>2021-08-12T11:17:18Z</time>
      </trkpt>
      <trkpt lat="42.6516500" lon="1.3821670">
        <ele>2360.9</ele>
        <time>2021-08-12T11:17:20Z</time>
      </trkpt>
      <trkpt lat="42.6516440" lon="1.3821540">
        <ele>2360.9</ele>
        <time>2021-08-12T11:17:21Z</time>
      </trkpt>
      <trkpt lat="42.6516400" lon="1.3821450">
        <ele>2360.9</ele>
        <time>2021-08-12T11:17:22Z</time>
      </trkpt>
      <trkpt lat="42.6516340" lon="1.3821390">
        <ele>2360.9</ele>
        <time>2021-08-12T11:17:23Z</time>
      </trkpt>
      <trkpt lat="42.6516260" lon="1.3821350">
        <ele>2360.9</ele>
        <time>2021-08-12T11:17:24Z</time>
      </trkpt>
      <trkpt lat="42.6516190" lon="1.3821300">
        <ele>2361.0</ele>
        <time>2021-08-12T11:17:25Z</time>
      </trkpt>
      <trkpt lat="42.6516100" lon="1.3821250">
        <ele>2361.0</ele>
        <time>2021-08-12T11:17:26Z</time>
      </trkpt>
      <trkpt lat="42.6516020" lon="1.3821170">
        <ele>2361.0</ele>
        <time>2021-08-12T11:17:27Z</time>
      </trkpt>
      <trkpt lat="42.6515950" lon="1.3821110">
        <ele>2361.0</ele>
        <time>2021-08-12T11:17:28Z</time>
      </trkpt>
      <trkpt lat="42.6515840" lon="1.3821050">
        <ele>2360.9</ele>
        <time>2021-08-12T11:17:29Z</time>
      </trkpt>
      <trkpt lat="42.6515750" lon="1.3820980">
        <ele>2360.9</ele>
        <time>2021-08-12T11:17:30Z</time>
      </trkpt>
      <trkpt lat="42.6515680" lon="1.3820900">
        <ele>2360.9</ele>
        <time>2021-08-12T11:17:31Z</time>
      </trkpt>
      <trkpt lat="42.6515500" lon="1.3820780">
        <ele>2360.8</ele>
        <time>2021-08-12T11:17:33Z</time>
      </trkpt>
      <trkpt lat="42.6515240" lon="1.3820660">
        <ele>2360.7</ele>
        <time>2021-08-12T11:17:37Z</time>
      </trkpt>
      <trkpt lat="42.6513880" lon="1.3820460">
        <ele>2358.8</ele>
        <time>2021-08-12T11:17:55Z</time>
      </trkpt>
      <trkpt lat="42.6513610" lon="1.3820590">
        <ele>2358.3</ele>
        <time>2021-08-12T11:18:00Z</time>
      </trkpt>
      <trkpt lat="42.6513400" lon="1.3820870">
        <ele>2357.8</ele>
        <time>2021-08-12T11:18:07Z</time>
      </trkpt>
      <trkpt lat="42.6513140" lon="1.3820840">
        <ele>2357.4</ele>
        <time>2021-08-12T11:18:14Z</time>
      </trkpt>
      <trkpt lat="42.6512960" lon="1.3820920">
        <ele>2357.1</ele>
        <time>2021-08-12T11:18:19Z</time>
      </trkpt>
      <trkpt lat="42.6512560" lon="1.3820450">
        <ele>2356.5</ele>
        <time>2021-08-12T11:18:32Z</time>
      </trkpt>
      <trkpt lat="42.6510740" lon="1.3819920">
        <ele>2357.1</ele>
        <time>2021-08-12T11:18:58Z</time>
      </trkpt>
      <trkpt lat="42.6508880" lon="1.3819530">
        <ele>2358.0</ele>
        <time>2021-08-12T11:19:19Z</time>
      </trkpt>
      <trkpt lat="42.6507690" lon="1.3818860">
        <ele>2358.0</ele>
        <time>2021-08-12T11:19:33Z</time>
      </trkpt>
      <trkpt lat="42.6506140" lon="1.3818150">
        <ele>2357.8</ele>
        <time>2021-08-12T11:19:51Z</time>
      </trkpt>
      <trkpt lat="42.6504460" lon="1.3817560">
        <ele>2357.0</ele>
        <time>2021-08-12T11:20:19Z</time>
      </trkpt>
      <trkpt lat="42.6502790" lon="1.3816980">
        <ele>2355.5</ele>
        <time>2021-08-12T11:20:49Z</time>
      </trkpt>
      <trkpt lat="42.6501790" lon="1.3815950">
        <ele>2354.9</ele>
        <time>2021-08-12T11:21:12Z</time>
      </trkpt>
      <trkpt lat="42.6500740" lon="1.3815370">
        <ele>2355.0</ele>
        <time>2021-08-12T11:21:25Z</time>
      </trkpt>
      <trkpt lat="42.6499910" lon="1.3814650">
        <ele>2355.3</ele>
        <time>2021-08-12T11:21:35Z</time>
      </trkpt>
      <trkpt lat="42.6498670" lon="1.3813470">
        <ele>2356.3</ele>
        <time>2021-08-12T11:21:52Z</time>
      </trkpt>
      <trkpt lat="42.6498310" lon="1.3813100">
        <ele>2356.7</ele>
        <time>2021-08-12T11:21:57Z</time>
      </trkpt>
      <trkpt lat="42.6498110" lon="1.3812880">
        <ele>2356.9</ele>
        <time>2021-08-12T11:22:00Z</time>
      </trkpt>
      <trkpt lat="42.6496560" lon="1.3811560">
        <ele>2359.3</ele>
        <time>2021-08-12T11:22:27Z</time>
      </trkpt>
      <trkpt lat="42.6494900" lon="1.3811430">
        <ele>2361.7</ele>
        <time>2021-08-12T11:22:49Z</time>
      </trkpt>
      <trkpt lat="42.6494780" lon="1.3811380">
        <ele>2361.8</ele>
        <time>2021-08-12T11:22:51Z</time>
      </trkpt>
      <trkpt lat="42.6494660" lon="1.3811330">
        <ele>2361.9</ele>
        <time>2021-08-12T11:22:53Z</time>
      </trkpt>
      <trkpt lat="42.6494630" lon="1.3811320">
        <ele>2362.0</ele>
        <time>2021-08-12T11:22:54Z</time>
      </trkpt>
      <trkpt lat="42.6494600" lon="1.3811340">
        <ele>2362.0</ele>
        <time>2021-08-12T11:22:55Z</time>
      </trkpt>
      <trkpt lat="42.6494580" lon="1.3811390">
        <ele>2362.0</ele>
        <time>2021-08-12T11:22:56Z</time>
      </trkpt>
      <trkpt lat="42.6494570" lon="1.3811440">
        <ele>2362.1</ele>
        <time>2021-08-12T11:22:58Z</time>
      </trkpt>
      <trkpt lat="42.6493480" lon="1.3811490">
        <ele>2362.3</ele>
        <time>2021-08-12T11:23:18Z</time>
      </trkpt>
      <trkpt lat="42.6493400" lon="1.3811770">
        <ele>2361.8</ele>
        <time>2021-08-12T11:23:22Z</time>
      </trkpt>
      <trkpt lat="42.6493250" lon="1.3813040">
        <ele>2360.1</ele>
        <time>2021-08-12T11:23:38Z</time>
      </trkpt>
      <trkpt lat="42.6493260" lon="1.3814530">
        <ele>2358.5</ele>
        <time>2021-08-12T11:23:59Z</time>
      </trkpt>
      <trkpt lat="42.6493260" lon="1.3815230">
        <ele>2358.0</ele>
        <time>2021-08-12T11:24:06Z</time>
      </trkpt>
      <trkpt lat="42.6492770" lon="1.3817630">
        <ele>2357.6</ele>
        <time>2021-08-12T11:24:29Z</time>
      </trkpt>
      <trkpt lat="42.6492230" lon="1.3819980">
        <ele>2359.3</ele>
        <time>2021-08-12T11:24:48Z</time>
      </trkpt>
      <trkpt lat="42.6492250" lon="1.3820330">
        <ele>2359.6</ele>
        <time>2021-08-12T11:24:51Z</time>
      </trkpt>
      <trkpt lat="42.6492260" lon="1.3820570">
        <ele>2359.9</ele>
        <time>2021-08-12T11:24:53Z</time>
      </trkpt>
      <trkpt lat="42.6492240" lon="1.3820800">
        <ele>2360.2</ele>
        <time>2021-08-12T11:24:55Z</time>
      </trkpt>
      <trkpt lat="42.6492210" lon="1.3820910">
        <ele>2360.3</ele>
        <time>2021-08-12T11:24:56Z</time>
      </trkpt>
      <trkpt lat="42.6491970" lon="1.3821280">
        <ele>2360.9</ele>
        <time>2021-08-12T11:25:00Z</time>
      </trkpt>
      <trkpt lat="42.6491890" lon="1.3821460">
        <ele>2361.2</ele>
        <time>2021-08-12T11:25:02Z</time>
      </trkpt>
      <trkpt lat="42.6491780" lon="1.3821690">
        <ele>2361.5</ele>
        <time>2021-08-12T11:25:05Z</time>
      </trkpt>
      <trkpt lat="42.6491560" lon="1.3822860">
        <ele>2363.0</ele>
        <time>2021-08-12T11:25:19Z</time>
      </trkpt>
      <trkpt lat="42.6491550" lon="1.3822930">
        <ele>2363.1</ele>
        <time>2021-08-12T11:25:20Z</time>
      </trkpt>
      <trkpt lat="42.6491010" lon="1.3823870">
        <ele>2364.4</ele>
        <time>2021-08-12T11:25:35Z</time>
      </trkpt>
      <trkpt lat="42.6490610" lon="1.3824030">
        <ele>2365.0</ele>
        <time>2021-08-12T11:25:42Z</time>
      </trkpt>
      <trkpt lat="42.6490430" lon="1.3824110">
        <ele>2365.2</ele>
        <time>2021-08-12T11:25:45Z</time>
      </trkpt>
      <trkpt lat="42.6490140" lon="1.3825360">
        <ele>2366.4</ele>
        <time>2021-08-12T11:26:05Z</time>
      </trkpt>
      <trkpt lat="42.6490140" lon="1.3825600">
        <ele>2366.6</ele>
        <time>2021-08-12T11:26:08Z</time>
      </trkpt>
      <trkpt lat="42.6490120" lon="1.3825690">
        <ele>2366.6</ele>
        <time>2021-08-12T11:26:09Z</time>
      </trkpt>
      <trkpt lat="42.6490110" lon="1.3825740">
        <ele>2366.7</ele>
        <time>2021-08-12T11:26:10Z</time>
      </trkpt>
      <trkpt lat="42.6490110" lon="1.3825770">
        <ele>2366.7</ele>
        <time>2021-08-12T11:26:11Z</time>
      </trkpt>
      <trkpt lat="42.6490090" lon="1.3825820">
        <ele>2366.8</ele>
        <time>2021-08-12T11:26:12Z</time>
      </trkpt>
      <trkpt lat="42.6489850" lon="1.3825920">
        <ele>2367.1</ele>
        <time>2021-08-12T11:26:18Z</time>
      </trkpt>
      <trkpt lat="42.6489710" lon="1.3825930">
        <ele>2367.3</ele>
        <time>2021-08-12T11:26:22Z</time>
      </trkpt>
      <trkpt lat="42.6489390" lon="1.3826050">
        <ele>2367.8</ele>
        <time>2021-08-12T11:26:28Z</time>
      </trkpt>
      <trkpt lat="42.6489240" lon="1.3826200">
        <ele>2368.0</ele>
        <time>2021-08-12T11:26:31Z</time>
      </trkpt>
      <trkpt lat="42.6489130" lon="1.3826330">
        <ele>2368.3</ele>
        <time>2021-08-12T11:26:33Z</time>
      </trkpt>
      <trkpt lat="42.6488950" lon="1.3826440">
        <ele>2368.6</ele>
        <time>2021-08-12T11:26:35Z</time>
      </trkpt>
      <trkpt lat="42.6488180" lon="1.3826210">
        <ele>2370.1</ele>
        <time>2021-08-12T11:26:44Z</time>
      </trkpt>
      <trkpt lat="42.6487810" lon="1.3826120">
        <ele>2371.0</ele>
        <time>2021-08-12T11:26:50Z</time>
      </trkpt>
      <trkpt lat="42.6487550" lon="1.3826050">
        <ele>2371.5</ele>
        <time>2021-08-12T11:26:56Z</time>
      </trkpt>
      <trkpt lat="42.6487500" lon="1.3826020">
        <ele>2371.7</ele>
        <time>2021-08-12T11:26:57Z</time>
      </trkpt>
      <trkpt lat="42.6487260" lon="1.3825710">
        <ele>2372.4</ele>
        <time>2021-08-12T11:27:02Z</time>
      </trkpt>
      <trkpt lat="42.6487200" lon="1.3825660">
        <ele>2372.5</ele>
        <time>2021-08-12T11:27:03Z</time>
      </trkpt>
      <trkpt lat="42.6487100" lon="1.3825590">
        <ele>2372.7</ele>
        <time>2021-08-12T11:27:05Z</time>
      </trkpt>
      <trkpt lat="42.6487060" lon="1.3825550">
        <ele>2372.8</ele>
        <time>2021-08-12T11:27:06Z</time>
      </trkpt>
      <trkpt lat="42.6487020" lon="1.3825520">
        <ele>2372.9</ele>
        <time>2021-08-12T11:27:07Z</time>
      </trkpt>
      <trkpt lat="42.6486980" lon="1.3825500">
        <ele>2373.0</ele>
        <time>2021-08-12T11:27:08Z</time>
      </trkpt>
      <trkpt lat="42.6486740" lon="1.3825550">
        <ele>2373.5</ele>
        <time>2021-08-12T11:27:11Z</time>
      </trkpt>
      <trkpt lat="42.6486470" lon="1.3825450">
        <ele>2373.9</ele>
        <time>2021-08-12T11:27:17Z</time>
      </trkpt>
      <trkpt lat="42.6485960" lon="1.3824090">
        <ele>2374.8</ele>
        <time>2021-08-12T11:27:42Z</time>
      </trkpt>
      <trkpt lat="42.6485480" lon="1.3823080">
        <ele>2374.4</ele>
        <time>2021-08-12T11:27:55Z</time>
      </trkpt>
      <trkpt lat="42.6485330" lon="1.3822700">
        <ele>2374.1</ele>
        <time>2021-08-12T11:27:59Z</time>
      </trkpt>
      <trkpt lat="42.6485050" lon="1.3822130">
        <ele>2373.6</ele>
        <time>2021-08-12T11:28:05Z</time>
      </trkpt>
      <trkpt lat="42.6484560" lon="1.3821260">
        <ele>2372.8</ele>
        <time>2021-08-12T11:28:13Z</time>
      </trkpt>
      <trkpt lat="42.6483160" lon="1.3819630">
        <ele>2371.6</ele>
        <time>2021-08-12T11:28:31Z</time>
      </trkpt>
      <trkpt lat="42.6482930" lon="1.3818780">
        <ele>2371.0</ele>
        <time>2021-08-12T11:28:37Z</time>
      </trkpt>
      <trkpt lat="42.6482820" lon="1.3818120">
        <ele>2370.5</ele>
        <time>2021-08-12T11:28:42Z</time>
      </trkpt>
      <trkpt lat="42.6482090" lon="1.3816370">
        <ele>2368.5</ele>
        <time>2021-08-12T11:28:59Z</time>
      </trkpt>
      <trkpt lat="42.6481080" lon="1.3814620">
        <ele>2364.9</ele>
        <time>2021-08-12T11:29:23Z</time>
      </trkpt>
      <trkpt lat="42.6480840" lon="1.3812430">
        <ele>2358.8</ele>
        <time>2021-08-12T11:30:14Z</time>
      </trkpt>
      <trkpt lat="42.6480860" lon="1.3812250">
        <ele>2358.2</ele>
        <time>2021-08-12T11:30:18Z</time>
      </trkpt>
      <trkpt lat="42.6480830" lon="1.3812190">
        <ele>2358.0</ele>
        <time>2021-08-12T11:30:20Z</time>
      </trkpt>
      <trkpt lat="42.6480800" lon="1.3812150">
        <ele>2357.8</ele>
        <time>2021-08-12T11:30:21Z</time>
      </trkpt>
      <trkpt lat="42.6480690" lon="1.3811760">
        <ele>2356.5</ele>
        <time>2021-08-12T11:30:37Z</time>
      </trkpt>
      <trkpt lat="42.6480670" lon="1.3811590">
        <ele>2356.0</ele>
        <time>2021-08-12T11:30:49Z</time>
      </trkpt>
      <trkpt lat="42.6480660" lon="1.3810100">
        <ele>2351.7</ele>
        <time>2021-08-12T11:31:14Z</time>
      </trkpt>
      <trkpt lat="42.6479860" lon="1.3808910">
        <ele>2347.7</ele>
        <time>2021-08-12T11:31:41Z</time>
      </trkpt>
      <trkpt lat="42.6478450" lon="1.3807410">
        <ele>2344.0</ele>
        <time>2021-08-12T11:32:01Z</time>
      </trkpt>
      <trkpt lat="42.6477560" lon="1.3805840">
        <ele>2341.9</ele>
        <time>2021-08-12T11:32:23Z</time>
      </trkpt>
      <trkpt lat="42.6476790" lon="1.3804260">
        <ele>2339.7</ele>
        <time>2021-08-12T11:32:40Z</time>
      </trkpt>
      <trkpt lat="42.6476340" lon="1.3802100">
        <ele>2335.9</ele>
        <time>2021-08-12T11:33:20Z</time>
      </trkpt>
      <trkpt lat="42.6474820" lon="1.3803510">
        <ele>2333.8</ele>
        <time>2021-08-12T11:33:41Z</time>
      </trkpt>
      <trkpt lat="42.6473350" lon="1.3804930">
        <ele>2333.5</ele>
        <time>2021-08-12T11:34:00Z</time>
      </trkpt>
      <trkpt lat="42.6471640" lon="1.3805810">
        <ele>2332.1</ele>
        <time>2021-08-12T11:34:18Z</time>
      </trkpt>
      <trkpt lat="42.6470840" lon="1.3804950">
        <ele>2329.7</ele>
        <time>2021-08-12T11:34:37Z</time>
      </trkpt>
      <trkpt lat="42.6470380" lon="1.3803180">
        <ele>2324.7</ele>
        <time>2021-08-12T11:35:07Z</time>
      </trkpt>
      <trkpt lat="42.6469420" lon="1.3802500">
        <ele>2319.8</ele>
        <time>2021-08-12T11:35:39Z</time>
      </trkpt>
      <trkpt lat="42.6469320" lon="1.3802220">
        <ele>2318.7</ele>
        <time>2021-08-12T11:35:50Z</time>
      </trkpt>
      <trkpt lat="42.6469460" lon="1.3801120">
        <ele>2315.0</ele>
        <time>2021-08-12T11:36:22Z</time>
      </trkpt>
      <trkpt lat="42.6469260" lon="1.3801180">
        <ele>2314.2</ele>
        <time>2021-08-12T11:36:26Z</time>
      </trkpt>
      <trkpt lat="42.6468410" lon="1.3801180">
        <ele>2311.3</ele>
        <time>2021-08-12T11:36:43Z</time>
      </trkpt>
      <trkpt lat="42.6467510" lon="1.3800850">
        <ele>2309.2</ele>
        <time>2021-08-12T11:36:59Z</time>
      </trkpt>
      <trkpt lat="42.6466730" lon="1.3800420">
        <ele>2307.9</ele>
        <time>2021-08-12T11:37:08Z</time>
      </trkpt>
      <trkpt lat="42.6466000" lon="1.3800120">
        <ele>2305.9</ele>
        <time>2021-08-12T11:37:24Z</time>
      </trkpt>
      <trkpt lat="42.6465280" lon="1.3799960">
        <ele>2304.0</ele>
        <time>2021-08-12T11:37:36Z</time>
      </trkpt>
      <trkpt lat="42.6464180" lon="1.3800280">
        <ele>2301.0</ele>
        <time>2021-08-12T11:37:54Z</time>
      </trkpt>
      <trkpt lat="42.6463320" lon="1.3800130">
        <ele>2298.8</ele>
        <time>2021-08-12T11:38:05Z</time>
      </trkpt>
      <trkpt lat="42.6462740" lon="1.3800700">
        <ele>2296.9</ele>
        <time>2021-08-12T11:38:29Z</time>
      </trkpt>
      <trkpt lat="42.6461700" lon="1.3800800">
        <ele>2294.1</ele>
        <time>2021-08-12T11:38:45Z</time>
      </trkpt>
      <trkpt lat="42.6461220" lon="1.3800710">
        <ele>2292.9</ele>
        <time>2021-08-12T11:39:04Z</time>
      </trkpt>
      <trkpt lat="42.6461220" lon="1.3800710">
        <ele>2292.9</ele>
        <time>2021-08-12T11:39:05Z</time>
      </trkpt>
      <trkpt lat="42.6461210" lon="1.3800730">
        <ele>2292.8</ele>
        <time>2021-08-12T11:39:08Z</time>
      </trkpt>
      <trkpt lat="42.6461260" lon="1.3800720">
        <ele>2292.7</ele>
        <time>2021-08-12T11:39:25Z</time>
      </trkpt>
      <trkpt lat="42.6461290" lon="1.3800730">
        <ele>2292.6</ele>
        <time>2021-08-12T11:39:29Z</time>
      </trkpt>
      <trkpt lat="42.6461300" lon="1.3800700">
        <ele>2292.5</ele>
        <time>2021-08-12T11:39:32Z</time>
      </trkpt>
      <trkpt lat="42.6461310" lon="1.3800710">
        <ele>2292.5</ele>
        <time>2021-08-12T11:39:33Z</time>
      </trkpt>
      <trkpt lat="42.6461320" lon="1.3800730">
        <ele>2292.5</ele>
        <time>2021-08-12T11:39:35Z</time>
      </trkpt>
      <trkpt lat="42.6461440" lon="1.3800650">
        <ele>2292.1</ele>
        <time>2021-08-12T11:39:47Z</time>
      </trkpt>
      <trkpt lat="42.6461460" lon="1.3800770">
        <ele>2291.9</ele>
        <time>2021-08-12T11:39:59Z</time>
      </trkpt>
      <trkpt lat="42.6461470" lon="1.3800790">
        <ele>2291.8</ele>
        <time>2021-08-12T11:40:02Z</time>
      </trkpt>
      <trkpt lat="42.6461090" lon="1.3800950">
        <ele>2290.8</ele>
        <time>2021-08-12T11:40:27Z</time>
      </trkpt>
      <trkpt lat="42.6461010" lon="1.3800540">
        <ele>2290.0</ele>
        <time>2021-08-12T11:40:42Z</time>
      </trkpt>
      <trkpt lat="42.6460960" lon="1.3800510">
        <ele>2289.8</ele>
        <time>2021-08-12T11:40:43Z</time>
      </trkpt>
      <trkpt lat="42.6460920" lon="1.3800480">
        <ele>2289.7</ele>
        <time>2021-08-12T11:40:44Z</time>
      </trkpt>
      <trkpt lat="42.6460740" lon="1.3800390">
        <ele>2289.2</ele>
        <time>2021-08-12T11:40:49Z</time>
      </trkpt>
      <trkpt lat="42.6460710" lon="1.3800370">
        <ele>2289.1</ele>
        <time>2021-08-12T11:40:51Z</time>
      </trkpt>
      <trkpt lat="42.6460740" lon="1.3800360">
        <ele>2289.0</ele>
        <time>2021-08-12T11:40:53Z</time>
      </trkpt>
      <trkpt lat="42.6460720" lon="1.3800370">
        <ele>2289.0</ele>
        <time>2021-08-12T11:40:54Z</time>
      </trkpt>
      <trkpt lat="42.6460700" lon="1.3800370">
        <ele>2288.9</ele>
        <time>2021-08-12T11:40:55Z</time>
      </trkpt>
      <trkpt lat="42.6460580" lon="1.3800440">
        <ele>2288.6</ele>
        <time>2021-08-12T11:40:59Z</time>
      </trkpt>
      <trkpt lat="42.6460560" lon="1.3800410">
        <ele>2288.5</ele>
        <time>2021-08-12T11:41:00Z</time>
      </trkpt>
      <trkpt lat="42.6460440" lon="1.3800490">
        <ele>2288.1</ele>
        <time>2021-08-12T11:41:03Z</time>
      </trkpt>
      <trkpt lat="42.6460380" lon="1.3800500">
        <ele>2288.0</ele>
        <time>2021-08-12T11:41:05Z</time>
      </trkpt>
      <trkpt lat="42.6459970" lon="1.3800210">
        <ele>2286.8</ele>
        <time>2021-08-12T11:41:13Z</time>
      </trkpt>
      <trkpt lat="42.6459920" lon="1.3800250">
        <ele>2286.6</ele>
        <time>2021-08-12T11:41:14Z</time>
      </trkpt>
      <trkpt lat="42.6459820" lon="1.3800450">
        <ele>2286.1</ele>
        <time>2021-08-12T11:41:18Z</time>
      </trkpt>
      <trkpt lat="42.6459810" lon="1.3800500">
        <ele>2286.0</ele>
        <time>2021-08-12T11:41:19Z</time>
      </trkpt>
      <trkpt lat="42.6459760" lon="1.3800470">
        <ele>2285.9</ele>
        <time>2021-08-12T11:41:22Z</time>
      </trkpt>
      <trkpt lat="42.6459630" lon="1.3800500">
        <ele>2285.6</ele>
        <time>2021-08-12T11:41:25Z</time>
      </trkpt>
      <trkpt lat="42.6459460" lon="1.3800570">
        <ele>2285.1</ele>
        <time>2021-08-12T11:41:30Z</time>
      </trkpt>
      <trkpt lat="42.6459410" lon="1.3800510">
        <ele>2284.9</ele>
        <time>2021-08-12T11:41:32Z</time>
      </trkpt>
      <trkpt lat="42.6458980" lon="1.3800970">
        <ele>2283.5</ele>
        <time>2021-08-12T11:41:50Z</time>
      </trkpt>
      <trkpt lat="42.6457260" lon="1.3801070">
        <ele>2278.9</ele>
        <time>2021-08-12T11:42:18Z</time>
      </trkpt>
      <trkpt lat="42.6456820" lon="1.3799970">
        <ele>2276.5</ele>
        <time>2021-08-12T11:42:59Z</time>
      </trkpt>
      <trkpt lat="42.6456840" lon="1.3799930">
        <ele>2276.4</ele>
        <time>2021-08-12T11:43:09Z</time>
      </trkpt>
      <trkpt lat="42.6456710" lon="1.3799440">
        <ele>2275.4</ele>
        <time>2021-08-12T11:43:55Z</time>
      </trkpt>
      <trkpt lat="42.6456780" lon="1.3798850">
        <ele>2274.3</ele>
        <time>2021-08-12T11:44:10Z</time>
      </trkpt>
      <trkpt lat="42.6456740" lon="1.3798460">
        <ele>2273.5</ele>
        <time>2021-08-12T11:44:21Z</time>
      </trkpt>
      <trkpt lat="42.6456120" lon="1.3796290">
        <ele>2269.0</ele>
        <time>2021-08-12T11:45:01Z</time>
      </trkpt>
      <trkpt lat="42.6454810" lon="1.3795060">
        <ele>2264.8</ele>
        <time>2021-08-12T11:45:30Z</time>
      </trkpt>
      <trkpt lat="42.6453810" lon="1.3795380">
        <ele>2262.1</ele>
        <time>2021-08-12T11:46:14Z</time>
      </trkpt>
      <trkpt lat="42.6452220" lon="1.3794630">
        <ele>2257.7</ele>
        <time>2021-08-12T11:46:47Z</time>
      </trkpt>
      <trkpt lat="42.6450900" lon="1.3794450">
        <ele>2254.2</ele>
        <time>2021-08-12T11:47:20Z</time>
      </trkpt>
      <trkpt lat="42.6450490" lon="1.3794280">
        <ele>2253.1</ele>
        <time>2021-08-12T11:47:37Z</time>
      </trkpt>
      <trkpt lat="42.6450560" lon="1.3794210">
        <ele>2252.8</ele>
        <time>2021-08-12T11:47:43Z</time>
      </trkpt>
      <trkpt lat="42.6450570" lon="1.3794210">
        <ele>2252.8</ele>
        <time>2021-08-12T11:47:44Z</time>
      </trkpt>
      <trkpt lat="42.6450590" lon="1.3794190">
        <ele>2252.8</ele>
        <time>2021-08-12T11:47:45Z</time>
      </trkpt>
      <trkpt lat="42.6450580" lon="1.3793970">
        <ele>2252.3</ele>
        <time>2021-08-12T11:47:58Z</time>
      </trkpt>
      <trkpt lat="42.6449340" lon="1.3793480">
        <ele>2248.9</ele>
        <time>2021-08-12T11:48:13Z</time>
      </trkpt>
      <trkpt lat="42.6447680" lon="1.3792540">
        <ele>2244.2</ele>
        <time>2021-08-12T11:48:32Z</time>
      </trkpt>
      <trkpt lat="42.6446090" lon="1.3791390">
        <ele>2239.5</ele>
        <time>2021-08-12T11:48:53Z</time>
      </trkpt>
      <trkpt lat="42.6445340" lon="1.3789990">
        <ele>2236.2</ele>
        <time>2021-08-12T11:49:11Z</time>
      </trkpt>
      <trkpt lat="42.6444090" lon="1.3788710">
        <ele>2232.7</ele>
        <time>2021-08-12T11:50:01Z</time>
      </trkpt>
      <trkpt lat="42.6442520" lon="1.3788560">
        <ele>2228.7</ele>
        <time>2021-08-12T11:50:46Z</time>
      </trkpt>
      <trkpt lat="42.6440860" lon="1.3788270">
        <ele>2224.9</ele>
        <time>2021-08-12T11:51:20Z</time>
      </trkpt>
      <trkpt lat="42.6440390" lon="1.3788140">
        <ele>2223.9</ele>
        <time>2021-08-12T11:51:27Z</time>
      </trkpt>
      <trkpt lat="42.6438750" lon="1.3789190">
        <ele>2220.1</ele>
        <time>2021-08-12T11:51:59Z</time>
      </trkpt>
      <trkpt lat="42.6436990" lon="1.3789580">
        <ele>2216.8</ele>
        <time>2021-08-12T11:52:23Z</time>
      </trkpt>
      <trkpt lat="42.6436340" lon="1.3789990">
        <ele>2215.9</ele>
        <time>2021-08-12T11:52:32Z</time>
      </trkpt>
      <trkpt lat="42.6436230" lon="1.3790030">
        <ele>2215.7</ele>
        <time>2021-08-12T11:52:33Z</time>
      </trkpt>
      <trkpt lat="42.6436110" lon="1.3790080">
        <ele>2215.6</ele>
        <time>2021-08-12T11:52:34Z</time>
      </trkpt>
      <trkpt lat="42.6436020" lon="1.3790110">
        <ele>2215.4</ele>
        <time>2021-08-12T11:52:35Z</time>
      </trkpt>
      <trkpt lat="42.6434650" lon="1.3790470">
        <ele>2213.9</ele>
        <time>2021-08-12T11:53:02Z</time>
      </trkpt>
      <trkpt lat="42.6434300" lon="1.3790390">
        <ele>2213.6</ele>
        <time>2021-08-12T11:53:06Z</time>
      </trkpt>
      <trkpt lat="42.6434230" lon="1.3790340">
        <ele>2213.6</ele>
        <time>2021-08-12T11:53:07Z</time>
      </trkpt>
      <trkpt lat="42.6434160" lon="1.3790310">
        <ele>2213.5</ele>
        <time>2021-08-12T11:53:08Z</time>
      </trkpt>
      <trkpt lat="42.6433710" lon="1.3790220">
        <ele>2213.2</ele>
        <time>2021-08-12T11:53:14Z</time>
      </trkpt>
      <trkpt lat="42.6432340" lon="1.3790400">
        <ele>2212.3</ele>
        <time>2021-08-12T11:53:34Z</time>
      </trkpt>
      <trkpt lat="42.6431050" lon="1.3790640">
        <ele>2211.7</ele>
        <time>2021-08-12T11:53:52Z</time>
      </trkpt>
      <trkpt lat="42.6429520" lon="1.3790330">
        <ele>2210.5</ele>
        <time>2021-08-12T11:54:08Z</time>
      </trkpt>
      <trkpt lat="42.6427670" lon="1.3790500">
        <ele>2208.6</ele>
        <time>2021-08-12T11:54:27Z</time>
      </trkpt>
      <trkpt lat="42.6426560" lon="1.3790750">
        <ele>2207.4</ele>
        <time>2021-08-12T11:54:38Z</time>
      </trkpt>
      <trkpt lat="42.6424810" lon="1.3790090">
        <ele>2205.6</ele>
        <time>2021-08-12T11:54:55Z</time>
      </trkpt>
      <trkpt lat="42.6424030" lon="1.3790210">
        <ele>2204.8</ele>
        <time>2021-08-12T11:55:02Z</time>
      </trkpt>
      <trkpt lat="42.6422760" lon="1.3790380">
        <ele>2203.5</ele>
        <time>2021-08-12T11:55:14Z</time>
      </trkpt>
      <trkpt lat="42.6421860" lon="1.3791040">
        <ele>2202.5</ele>
        <time>2021-08-12T11:55:23Z</time>
      </trkpt>
      <trkpt lat="42.6420480" lon="1.3792340">
        <ele>2200.8</ele>
        <time>2021-08-12T11:55:55Z</time>
      </trkpt>
      <trkpt lat="42.6419570" lon="1.3794580">
        <ele>2198.9</ele>
        <time>2021-08-12T11:56:11Z</time>
      </trkpt>
      <trkpt lat="42.6419090" lon="1.3795540">
        <ele>2198.1</ele>
        <time>2021-08-12T11:56:19Z</time>
      </trkpt>
      <trkpt lat="42.6419010" lon="1.3795660">
        <ele>2197.9</ele>
        <time>2021-08-12T11:56:20Z</time>
      </trkpt>
      <trkpt lat="42.6418920" lon="1.3795780">
        <ele>2197.8</ele>
        <time>2021-08-12T11:56:21Z</time>
      </trkpt>
      <trkpt lat="42.6418820" lon="1.3795880">
        <ele>2197.7</ele>
        <time>2021-08-12T11:56:22Z</time>
      </trkpt>
      <trkpt lat="42.6418710" lon="1.3795960">
        <ele>2197.6</ele>
        <time>2021-08-12T11:56:23Z</time>
      </trkpt>
      <trkpt lat="42.6418610" lon="1.3796030">
        <ele>2197.4</ele>
        <time>2021-08-12T11:56:24Z</time>
      </trkpt>
      <trkpt lat="42.6417550" lon="1.3796420">
        <ele>2196.3</ele>
        <time>2021-08-12T11:56:34Z</time>
      </trkpt>
      <trkpt lat="42.6416980" lon="1.3796650">
        <ele>2195.7</ele>
        <time>2021-08-12T11:56:39Z</time>
      </trkpt>
      <trkpt lat="42.6415380" lon="1.3797390">
        <ele>2194.0</ele>
        <time>2021-08-12T11:56:54Z</time>
      </trkpt>
      <trkpt lat="42.6413550" lon="1.3797500">
        <ele>2192.2</ele>
        <time>2021-08-12T11:57:12Z</time>
      </trkpt>
      <trkpt lat="42.6412010" lon="1.3797400">
        <ele>2190.6</ele>
        <time>2021-08-12T11:57:27Z</time>
      </trkpt>
      <trkpt lat="42.6410270" lon="1.3798120">
        <ele>2188.8</ele>
        <time>2021-08-12T11:57:45Z</time>
      </trkpt>
      <trkpt lat="42.6408770" lon="1.3799110">
        <ele>2187.1</ele>
        <time>2021-08-12T11:58:03Z</time>
      </trkpt>
      <trkpt lat="42.6407210" lon="1.3798170">
        <ele>2185.4</ele>
        <time>2021-08-12T11:58:45Z</time>
      </trkpt>
      <trkpt lat="42.6406710" lon="1.3798520">
        <ele>2184.8</ele>
        <time>2021-08-12T11:59:11Z</time>
      </trkpt>
      <trkpt lat="42.6406700" lon="1.3800050">
        <ele>2183.7</ele>
        <time>2021-08-12T11:59:45Z</time>
      </trkpt>
      <trkpt lat="42.6406340" lon="1.3800850">
        <ele>2183.0</ele>
        <time>2021-08-12T12:00:02Z</time>
      </trkpt>
      <trkpt lat="42.6406290" lon="1.3800880">
        <ele>2182.9</ele>
        <time>2021-08-12T12:00:04Z</time>
      </trkpt>
      <trkpt lat="42.6406050" lon="1.3801140">
        <ele>2182.6</ele>
        <time>2021-08-12T12:00:11Z</time>
      </trkpt>
      <trkpt lat="42.6404360" lon="1.3801860">
        <ele>2180.8</ele>
        <time>2021-08-12T12:00:33Z</time>
      </trkpt>
      <trkpt lat="42.6403460" lon="1.3802560">
        <ele>2179.8</ele>
        <time>2021-08-12T12:00:57Z</time>
      </trkpt>
      <trkpt lat="42.6402640" lon="1.3803020">
        <ele>2178.9</ele>
        <time>2021-08-12T12:01:13Z</time>
      </trkpt>
      <trkpt lat="42.6402610" lon="1.3803070">
        <ele>2178.9</ele>
        <time>2021-08-12T12:01:14Z</time>
      </trkpt>
      <trkpt lat="42.6402530" lon="1.3803150">
        <ele>2178.8</ele>
        <time>2021-08-12T12:01:17Z</time>
      </trkpt>
      <trkpt lat="42.6402500" lon="1.3803220">
        <ele>2178.7</ele>
        <time>2021-08-12T12:01:18Z</time>
      </trkpt>
      <trkpt lat="42.6402490" lon="1.3803300">
        <ele>2178.6</ele>
        <time>2021-08-12T12:01:19Z</time>
      </trkpt>
      <trkpt lat="42.6402160" lon="1.3803650">
        <ele>2178.2</ele>
        <time>2021-08-12T12:01:28Z</time>
      </trkpt>
      <trkpt lat="42.6401510" lon="1.3803600">
        <ele>2177.6</ele>
        <time>2021-08-12T12:01:42Z</time>
      </trkpt>
      <trkpt lat="42.6401420" lon="1.3803630">
        <ele>2177.5</ele>
        <time>2021-08-12T12:01:44Z</time>
      </trkpt>
      <trkpt lat="42.6401380" lon="1.3803630">
        <ele>2177.4</ele>
        <time>2021-08-12T12:01:45Z</time>
      </trkpt>
      <trkpt lat="42.6401330" lon="1.3803650">
        <ele>2177.4</ele>
        <time>2021-08-12T12:01:46Z</time>
      </trkpt>
      <trkpt lat="42.6401190" lon="1.3803680">
        <ele>2177.2</ele>
        <time>2021-08-12T12:01:49Z</time>
      </trkpt>
      <trkpt lat="42.6401130" lon="1.3803730">
        <ele>2177.2</ele>
        <time>2021-08-12T12:01:51Z</time>
      </trkpt>
      <trkpt lat="42.6400740" lon="1.3804170">
        <ele>2176.6</ele>
        <time>2021-08-12T12:02:07Z</time>
      </trkpt>
      <trkpt lat="42.6400190" lon="1.3804340">
        <ele>2176.1</ele>
        <time>2021-08-12T12:02:37Z</time>
      </trkpt>
      <trkpt lat="42.6400050" lon="1.3804510">
        <ele>2175.9</ele>
        <time>2021-08-12T12:02:45Z</time>
      </trkpt>
      <trkpt lat="42.6399920" lon="1.3804500">
        <ele>2175.8</ele>
        <time>2021-08-12T12:02:58Z</time>
      </trkpt>
      <trkpt lat="42.6399950" lon="1.3804500">
        <ele>2175.7</ele>
        <time>2021-08-12T12:03:01Z</time>
      </trkpt>
      <trkpt lat="42.6399960" lon="1.3804460">
        <ele>2175.7</ele>
        <time>2021-08-12T12:03:02Z</time>
      </trkpt>
      <trkpt lat="42.6399960" lon="1.3804450">
        <ele>2175.7</ele>
        <time>2021-08-12T12:03:03Z</time>
      </trkpt>
      <trkpt lat="42.6398450" lon="1.3805080">
        <ele>2174.1</ele>
        <time>2021-08-12T12:03:25Z</time>
      </trkpt>
      <trkpt lat="42.6398150" lon="1.3805090">
        <ele>2173.8</ele>
        <time>2021-08-12T12:03:29Z</time>
      </trkpt>
      <trkpt lat="42.6397950" lon="1.3805370">
        <ele>2173.5</ele>
        <time>2021-08-12T12:03:33Z</time>
      </trkpt>
      <trkpt lat="42.6396440" lon="1.3806460">
        <ele>2171.8</ele>
        <time>2021-08-12T12:03:58Z</time>
      </trkpt>
      <trkpt lat="42.6396370" lon="1.3806450">
        <ele>2171.7</ele>
        <time>2021-08-12T12:04:01Z</time>
      </trkpt>
      <trkpt lat="42.6396300" lon="1.3806620">
        <ele>2171.6</ele>
        <time>2021-08-12T12:04:05Z</time>
      </trkpt>
      <trkpt lat="42.6395900" lon="1.3806750">
        <ele>2171.1</ele>
        <time>2021-08-12T12:04:27Z</time>
      </trkpt>
      <trkpt lat="42.6394470" lon="1.3807940">
        <ele>2169.5</ele>
        <time>2021-08-12T12:04:59Z</time>
      </trkpt>
      <trkpt lat="42.6393040" lon="1.3808910">
        <ele>2167.8</ele>
        <time>2021-08-12T12:05:25Z</time>
      </trkpt>
      <trkpt lat="42.6391960" lon="1.3810290">
        <ele>2166.4</ele>
        <time>2021-08-12T12:06:23Z</time>
      </trkpt>
      <trkpt lat="42.6391860" lon="1.3810250">
        <ele>2166.2</ele>
        <time>2021-08-12T12:06:27Z</time>
      </trkpt>
      <trkpt lat="42.6390340" lon="1.3811520">
        <ele>2164.4</ele>
        <time>2021-08-12T12:06:57Z</time>
      </trkpt>
      <trkpt lat="42.6388560" lon="1.3812110">
        <ele>2162.6</ele>
        <time>2021-08-12T12:07:23Z</time>
      </trkpt>
      <trkpt lat="42.6387170" lon="1.3813490">
        <ele>2160.9</ele>
        <time>2021-08-12T12:07:58Z</time>
      </trkpt>
      <trkpt lat="42.6386270" lon="1.3814010">
        <ele>2159.9</ele>
        <time>2021-08-12T12:08:09Z</time>
      </trkpt>
      <trkpt lat="42.6384780" lon="1.3815360">
        <ele>2158.1</ele>
        <time>2021-08-12T12:08:39Z</time>
      </trkpt>
      <trkpt lat="42.6384170" lon="1.3815650">
        <ele>2157.4</ele>
        <time>2021-08-12T12:08:48Z</time>
      </trkpt>
      <trkpt lat="42.6382590" lon="1.3816100">
        <ele>2155.8</ele>
        <time>2021-08-12T12:09:06Z</time>
      </trkpt>
      <trkpt lat="42.6380780" lon="1.3816610">
        <ele>2153.9</ele>
        <time>2021-08-12T12:09:27Z</time>
      </trkpt>
      <trkpt lat="42.6379220" lon="1.3816650">
        <ele>2152.4</ele>
        <time>2021-08-12T12:09:48Z</time>
      </trkpt>
      <trkpt lat="42.6377740" lon="1.3815920">
        <ele>2150.8</ele>
        <time>2021-08-12T12:10:05Z</time>
      </trkpt>
      <trkpt lat="42.6377160" lon="1.3815890">
        <ele>2150.2</ele>
        <time>2021-08-12T12:10:12Z</time>
      </trkpt>
      <trkpt lat="42.6376510" lon="1.3815910">
        <ele>2149.5</ele>
        <time>2021-08-12T12:10:18Z</time>
      </trkpt>
      <trkpt lat="42.6374680" lon="1.3815840">
        <ele>2147.7</ele>
        <time>2021-08-12T12:10:36Z</time>
      </trkpt>
      <trkpt lat="42.6374510" lon="1.3815830">
        <ele>2147.5</ele>
        <time>2021-08-12T12:10:38Z</time>
      </trkpt>
      <trkpt lat="42.6373950" lon="1.3815600">
        <ele>2146.9</ele>
        <time>2021-08-12T12:10:44Z</time>
      </trkpt>
      <trkpt lat="42.6373860" lon="1.3815550">
        <ele>2146.8</ele>
        <time>2021-08-12T12:10:45Z</time>
      </trkpt>
      <trkpt lat="42.6373460" lon="1.3815220">
        <ele>2146.3</ele>
        <time>2021-08-12T12:10:52Z</time>
      </trkpt>
      <trkpt lat="42.6372220" lon="1.3815080">
        <ele>2145.1</ele>
        <time>2021-08-12T12:11:11Z</time>
      </trkpt>
      <trkpt lat="42.6371570" lon="1.3815510">
        <ele>2144.4</ele>
        <time>2021-08-12T12:11:20Z</time>
      </trkpt>
      <trkpt lat="42.6371470" lon="1.3815540">
        <ele>2144.3</ele>
        <time>2021-08-12T12:11:21Z</time>
      </trkpt>
      <trkpt lat="42.6371400" lon="1.3815550">
        <ele>2144.2</ele>
        <time>2021-08-12T12:11:22Z</time>
      </trkpt>
      <trkpt lat="42.6370350" lon="1.3815190">
        <ele>2143.1</ele>
        <time>2021-08-12T12:11:37Z</time>
      </trkpt>
      <trkpt lat="42.6368660" lon="1.3816090">
        <ele>2141.3</ele>
        <time>2021-08-12T12:12:02Z</time>
      </trkpt>
      <trkpt lat="42.6368080" lon="1.3816180">
        <ele>2141.3</ele>
        <time>2021-08-12T12:12:12Z</time>
      </trkpt>
      <trkpt lat="42.6367960" lon="1.3816090">
        <ele>2141.3</ele>
        <time>2021-08-12T12:12:15Z</time>
      </trkpt>
      <trkpt lat="42.6367730" lon="1.3816110">
        <ele>2141.3</ele>
        <time>2021-08-12T12:12:20Z</time>
      </trkpt>
      <trkpt lat="42.6367570" lon="1.3816050">
        <ele>2141.3</ele>
        <time>2021-08-12T12:12:22Z</time>
      </trkpt>
      <trkpt lat="42.6367230" lon="1.3815820">
        <ele>2141.3</ele>
        <time>2021-08-12T12:12:28Z</time>
      </trkpt>
      <trkpt lat="42.6366730" lon="1.3816060">
        <ele>2141.3</ele>
        <time>2021-08-12T12:12:34Z</time>
      </trkpt>
      <trkpt lat="42.6366430" lon="1.3816230">
        <ele>2141.3</ele>
        <time>2021-08-12T12:12:40Z</time>
      </trkpt>
      <trkpt lat="42.6364960" lon="1.3815400">
        <ele>2141.2</ele>
        <time>2021-08-12T12:13:04Z</time>
      </trkpt>
      <trkpt lat="42.6364270" lon="1.3815200">
        <ele>2141.1</ele>
        <time>2021-08-12T12:13:20Z</time>
      </trkpt>
      <trkpt lat="42.6362670" lon="1.3815590">
        <ele>2140.3</ele>
        <time>2021-08-12T12:13:49Z</time>
      </trkpt>
      <trkpt lat="42.6361820" lon="1.3816150">
        <ele>2139.0</ele>
        <time>2021-08-12T12:14:15Z</time>
      </trkpt>
      <trkpt lat="42.6361780" lon="1.3816160">
        <ele>2138.9</ele>
        <time>2021-08-12T12:14:16Z</time>
      </trkpt>
      <trkpt lat="42.6361710" lon="1.3816250">
        <ele>2138.7</ele>
        <time>2021-08-12T12:14:18Z</time>
      </trkpt>
      <trkpt lat="42.6361670" lon="1.3816300">
        <ele>2138.6</ele>
        <time>2021-08-12T12:14:19Z</time>
      </trkpt>
      <trkpt lat="42.6360030" lon="1.3817500">
        <ele>2134.8</ele>
        <time>2021-08-12T12:14:44Z</time>
      </trkpt>
      <trkpt lat="42.6359100" lon="1.3818090">
        <ele>2131.5</ele>
        <time>2021-08-12T12:14:58Z</time>
      </trkpt>
      <trkpt lat="42.6358990" lon="1.3818100">
        <ele>2131.1</ele>
        <time>2021-08-12T12:15:03Z</time>
      </trkpt>
      <trkpt lat="42.6359020" lon="1.3818080">
        <ele>2131.0</ele>
        <time>2021-08-12T12:15:16Z</time>
      </trkpt>
      <trkpt lat="42.6358920" lon="1.3817950">
        <ele>2130.5</ele>
        <time>2021-08-12T12:15:29Z</time>
      </trkpt>
      <trkpt lat="42.6358620" lon="1.3818150">
        <ele>2129.2</ele>
        <time>2021-08-12T12:15:44Z</time>
      </trkpt>
      <trkpt lat="42.6358460" lon="1.3818420">
        <ele>2128.2</ele>
        <time>2021-08-12T12:15:51Z</time>
      </trkpt>
      <trkpt lat="42.6358170" lon="1.3818530">
        <ele>2127.2</ele>
        <time>2021-08-12T12:15:58Z</time>
      </trkpt>
      <trkpt lat="42.6356920" lon="1.3820110">
        <ele>2123.2</ele>
        <time>2021-08-12T12:16:45Z</time>
      </trkpt>
      <trkpt lat="42.6356420" lon="1.3821450">
        <ele>2122.1</ele>
        <time>2021-08-12T12:17:28Z</time>
      </trkpt>
      <trkpt lat="42.6356260" lon="1.3823540">
        <ele>2120.6</ele>
        <time>2021-08-12T12:18:16Z</time>
      </trkpt>
      <trkpt lat="42.6354820" lon="1.3825000">
        <ele>2119.1</ele>
        <time>2021-08-12T12:18:48Z</time>
      </trkpt>
      <trkpt lat="42.6352980" lon="1.3825150">
        <ele>2118.8</ele>
        <time>2021-08-12T12:19:23Z</time>
      </trkpt>
      <trkpt lat="42.6352180" lon="1.3826040">
        <ele>2119.1</ele>
        <time>2021-08-12T12:19:37Z</time>
      </trkpt>
      <trkpt lat="42.6351160" lon="1.3826940">
        <ele>2119.9</ele>
        <time>2021-08-12T12:19:51Z</time>
      </trkpt>
      <trkpt lat="42.6350080" lon="1.3828060">
        <ele>2121.2</ele>
        <time>2021-08-12T12:20:11Z</time>
      </trkpt>
      <trkpt lat="42.6349430" lon="1.3828570">
        <ele>2122.0</ele>
        <time>2021-08-12T12:20:21Z</time>
      </trkpt>
      <trkpt lat="42.6347910" lon="1.3829610">
        <ele>2123.3</ele>
        <time>2021-08-12T12:20:49Z</time>
      </trkpt>
      <trkpt lat="42.6346480" lon="1.3830250">
        <ele>2124.0</ele>
        <time>2021-08-12T12:21:31Z</time>
      </trkpt>
      <trkpt lat="42.6345130" lon="1.3829110">
        <ele>2125.1</ele>
        <time>2021-08-12T12:22:22Z</time>
      </trkpt>
      <trkpt lat="42.6343750" lon="1.3828960">
        <ele>2124.6</ele>
        <time>2021-08-12T12:23:20Z</time>
      </trkpt>
      <trkpt lat="42.6343330" lon="1.3828990">
        <ele>2124.2</ele>
        <time>2021-08-12T12:23:29Z</time>
      </trkpt>
      <trkpt lat="42.6343800" lon="1.3827410">
        <ele>2123.9</ele>
        <time>2021-08-12T12:24:02Z</time>
      </trkpt>
      <trkpt lat="42.6343580" lon="1.3827460">
        <ele>2124.0</ele>
        <time>2021-08-12T12:24:13Z</time>
      </trkpt>
      <trkpt lat="42.6343280" lon="1.3827150">
        <ele>2124.4</ele>
        <time>2021-08-12T12:24:37Z</time>
      </trkpt>
      <trkpt lat="42.6342440" lon="1.3827690">
        <ele>2127.7</ele>
        <time>2021-08-12T12:25:36Z</time>
      </trkpt>
      <trkpt lat="42.6342400" lon="1.3827770">
        <ele>2127.8</ele>
        <time>2021-08-12T12:25:38Z</time>
      </trkpt>
      <trkpt lat="42.6342330" lon="1.3827830">
        <ele>2128.0</ele>
        <time>2021-08-12T12:25:43Z</time>
      </trkpt>
      <trkpt lat="42.6342000" lon="1.3827980">
        <ele>2128.9</ele>
        <time>2021-08-12T12:25:51Z</time>
      </trkpt>
      <trkpt lat="42.6341260" lon="1.3828860">
        <ele>2131.0</ele>
        <time>2021-08-12T12:26:08Z</time>
      </trkpt>
      <trkpt lat="42.6341260" lon="1.3828960">
        <ele>2131.2</ele>
        <time>2021-08-12T12:26:10Z</time>
      </trkpt>
      <trkpt lat="42.6341250" lon="1.3829040">
        <ele>2131.3</ele>
        <time>2021-08-12T12:26:11Z</time>
      </trkpt>
      <trkpt lat="42.6340710" lon="1.3829630">
        <ele>2132.8</ele>
        <time>2021-08-12T12:26:37Z</time>
      </trkpt>
      <trkpt lat="42.6340660" lon="1.3829660">
        <ele>2132.9</ele>
        <time>2021-08-12T12:26:41Z</time>
      </trkpt>
      <trkpt lat="42.6340200" lon="1.3829790">
        <ele>2134.0</ele>
        <time>2021-08-12T12:26:55Z</time>
      </trkpt>
      <trkpt lat="42.6339500" lon="1.3830270">
        <ele>2135.9</ele>
        <time>2021-08-12T12:27:09Z</time>
      </trkpt>
      <trkpt lat="42.6337960" lon="1.3830520">
        <ele>2139.8</ele>
        <time>2021-08-12T12:27:49Z</time>
      </trkpt>
      <trkpt lat="42.6337980" lon="1.3830610">
        <ele>2140.0</ele>
        <time>2021-08-12T12:27:55Z</time>
      </trkpt>
      <trkpt lat="42.6337960" lon="1.3830670">
        <ele>2140.2</ele>
        <time>2021-08-12T12:27:59Z</time>
      </trkpt>
      <trkpt lat="42.6338090" lon="1.3830860">
        <ele>2140.7</ele>
        <time>2021-08-12T12:28:09Z</time>
      </trkpt>
      <trkpt lat="42.6338060" lon="1.3830790">
        <ele>2140.9</ele>
        <time>2021-08-12T12:28:15Z</time>
      </trkpt>
      <trkpt lat="42.6338100" lon="1.3830560">
        <ele>2141.4</ele>
        <time>2021-08-12T12:28:25Z</time>
      </trkpt>
      <trkpt lat="42.6338290" lon="1.3830140">
        <ele>2142.6</ele>
        <time>2021-08-12T12:28:39Z</time>
      </trkpt>
      <trkpt lat="42.6337710" lon="1.3829220">
        <ele>2146.0</ele>
        <time>2021-08-12T12:29:16Z</time>
      </trkpt>
      <trkpt lat="42.6337480" lon="1.3829430">
        <ele>2147.1</ele>
        <time>2021-08-12T12:29:28Z</time>
      </trkpt>
      <trkpt lat="42.6337400" lon="1.3829970">
        <ele>2148.7</ele>
        <time>2021-08-12T12:29:53Z</time>
      </trkpt>
      <trkpt lat="42.6337390" lon="1.3830160">
        <ele>2149.3</ele>
        <time>2021-08-12T12:30:04Z</time>
      </trkpt>
      <trkpt lat="42.6337110" lon="1.3829860">
        <ele>2150.6</ele>
        <time>2021-08-12T12:30:17Z</time>
      </trkpt>
      <trkpt lat="42.6336880" lon="1.3830200">
        <ele>2151.7</ele>
        <time>2021-08-12T12:30:39Z</time>
      </trkpt>
      <trkpt lat="42.6336700" lon="1.3829900">
        <ele>2152.6</ele>
        <time>2021-08-12T12:30:54Z</time>
      </trkpt>
      <trkpt lat="42.6336740" lon="1.3829910">
        <ele>2152.7</ele>
        <time>2021-08-12T12:30:57Z</time>
      </trkpt>
      <trkpt lat="42.6336670" lon="1.3829940">
        <ele>2152.9</ele>
        <time>2021-08-12T12:30:59Z</time>
      </trkpt>
      <trkpt lat="42.6336640" lon="1.3829950">
        <ele>2153.0</ele>
        <time>2021-08-12T12:31:01Z</time>
      </trkpt>
      <trkpt lat="42.6336660" lon="1.3829970">
        <ele>2153.1</ele>
        <time>2021-08-12T12:31:02Z</time>
      </trkpt>
      <trkpt lat="42.6336650" lon="1.3829950">
        <ele>2153.1</ele>
        <time>2021-08-12T12:31:03Z</time>
      </trkpt>
      <trkpt lat="42.6336230" lon="1.3829900">
        <ele>2154.2</ele>
        <time>2021-08-12T12:31:19Z</time>
      </trkpt>
      <trkpt lat="42.6335980" lon="1.3829830">
        <ele>2154.7</ele>
        <time>2021-08-12T12:31:22Z</time>
      </trkpt>
      <trkpt lat="42.6335500" lon="1.3829840">
        <ele>2155.6</ele>
        <time>2021-08-12T12:31:46Z</time>
      </trkpt>
      <trkpt lat="42.6335100" lon="1.3829350">
        <ele>2156.5</ele>
        <time>2021-08-12T12:32:01Z</time>
      </trkpt>
      <trkpt lat="42.6334940" lon="1.3829200">
        <ele>2156.7</ele>
        <time>2021-08-12T12:32:05Z</time>
      </trkpt>
      <trkpt lat="42.6334960" lon="1.3829200">
        <ele>2156.7</ele>
        <time>2021-08-12T12:32:09Z</time>
      </trkpt>
      <trkpt lat="42.6334650" lon="1.3830750">
        <ele>2157.3</ele>
        <time>2021-08-12T12:32:55Z</time>
      </trkpt>
      <trkpt lat="42.6334530" lon="1.3830710">
        <ele>2157.2</ele>
        <time>2021-08-12T12:33:00Z</time>
      </trkpt>
      <trkpt lat="42.6334480" lon="1.3830830">
        <ele>2157.2</ele>
        <time>2021-08-12T12:33:13Z</time>
      </trkpt>
      <trkpt lat="42.6334510" lon="1.3830730">
        <ele>2157.2</ele>
        <time>2021-08-12T12:33:16Z</time>
      </trkpt>
      <trkpt lat="42.6334330" lon="1.3830630">
        <ele>2157.0</ele>
        <time>2021-08-12T12:33:22Z</time>
      </trkpt>
      <trkpt lat="42.6334220" lon="1.3830690">
        <ele>2156.9</ele>
        <time>2021-08-12T12:33:24Z</time>
      </trkpt>
      <trkpt lat="42.6333940" lon="1.3830830">
        <ele>2156.7</ele>
        <time>2021-08-12T12:33:28Z</time>
      </trkpt>
      <trkpt lat="42.6333420" lon="1.3830760">
        <ele>2156.0</ele>
        <time>2021-08-12T12:33:35Z</time>
      </trkpt>
      <trkpt lat="42.6332870" lon="1.3830100">
        <ele>2154.7</ele>
        <time>2021-08-12T12:33:53Z</time>
      </trkpt>
      <trkpt lat="42.6332710" lon="1.3829540">
        <ele>2153.9</ele>
        <time>2021-08-12T12:34:04Z</time>
      </trkpt>
      <trkpt lat="42.6332700" lon="1.3829340">
        <ele>2153.6</ele>
        <time>2021-08-12T12:34:09Z</time>
      </trkpt>
      <trkpt lat="42.6332560" lon="1.3829120">
        <ele>2153.2</ele>
        <time>2021-08-12T12:34:16Z</time>
      </trkpt>
      <trkpt lat="42.6332510" lon="1.3828560">
        <ele>2152.4</ele>
        <time>2021-08-12T12:34:32Z</time>
      </trkpt>
      <trkpt lat="42.6332160" lon="1.3828090">
        <ele>2151.5</ele>
        <time>2021-08-12T12:34:39Z</time>
      </trkpt>
      <trkpt lat="42.6330970" lon="1.3826430">
        <ele>2148.9</ele>
        <time>2021-08-12T12:35:01Z</time>
      </trkpt>
      <trkpt lat="42.6330840" lon="1.3826360">
        <ele>2148.7</ele>
        <time>2021-08-12T12:35:02Z</time>
      </trkpt>
      <trkpt lat="42.6329220" lon="1.3825860">
        <ele>2147.3</ele>
        <time>2021-08-12T12:35:51Z</time>
      </trkpt>
      <trkpt lat="42.6329220" lon="1.3825790">
        <ele>2147.2</ele>
        <time>2021-08-12T12:36:22Z</time>
      </trkpt>
      <trkpt lat="42.6329240" lon="1.3825730">
        <ele>2147.2</ele>
        <time>2021-08-12T12:36:26Z</time>
      </trkpt>
      <trkpt lat="42.6329250" lon="1.3825700">
        <ele>2147.2</ele>
        <time>2021-08-12T12:36:27Z</time>
      </trkpt>
      <trkpt lat="42.6329250" lon="1.3825680">
        <ele>2147.2</ele>
        <time>2021-08-12T12:36:28Z</time>
      </trkpt>
      <trkpt lat="42.6329270" lon="1.3825670">
        <ele>2147.2</ele>
        <time>2021-08-12T12:36:29Z</time>
      </trkpt>
      <trkpt lat="42.6329280" lon="1.3825670">
        <ele>2147.1</ele>
        <time>2021-08-12T12:36:30Z</time>
      </trkpt>
      <trkpt lat="42.6329320" lon="1.3825690">
        <ele>2147.1</ele>
        <time>2021-08-12T12:36:34Z</time>
      </trkpt>
      <trkpt lat="42.6329400" lon="1.3825670">
        <ele>2147.1</ele>
        <time>2021-08-12T12:36:48Z</time>
      </trkpt>
      <trkpt lat="42.6329400" lon="1.3825500">
        <ele>2147.0</ele>
        <time>2021-08-12T12:37:02Z</time>
      </trkpt>
      <trkpt lat="42.6329410" lon="1.3825480">
        <ele>2147.0</ele>
        <time>2021-08-12T12:37:03Z</time>
      </trkpt>
      <trkpt lat="42.6329460" lon="1.3825480">
        <ele>2146.9</ele>
        <time>2021-08-12T12:37:06Z</time>
      </trkpt>
      <trkpt lat="42.6329490" lon="1.3825480">
        <ele>2146.9</ele>
        <time>2021-08-12T12:37:08Z</time>
      </trkpt>
      <trkpt lat="42.6329580" lon="1.3825790">
        <ele>2146.8</ele>
        <time>2021-08-12T12:37:18Z</time>
      </trkpt>
      <trkpt lat="42.6329900" lon="1.3825910">
        <ele>2146.5</ele>
        <time>2021-08-12T12:37:26Z</time>
      </trkpt>
      <trkpt lat="42.6329940" lon="1.3825750">
        <ele>2146.4</ele>
        <time>2021-08-12T12:37:29Z</time>
      </trkpt>
      <trkpt lat="42.6329930" lon="1.3825750">
        <ele>2146.4</ele>
        <time>2021-08-12T12:37:30Z</time>
      </trkpt>
      <trkpt lat="42.6329920" lon="1.3825840">
        <ele>2146.4</ele>
        <time>2021-08-12T12:37:32Z</time>
      </trkpt>
      <trkpt lat="42.6329880" lon="1.3825750">
        <ele>2146.3</ele>
        <time>2021-08-12T12:37:41Z</time>
      </trkpt>
      <trkpt lat="42.6329990" lon="1.3825840">
        <ele>2146.2</ele>
        <time>2021-08-12T12:37:49Z</time>
      </trkpt>
      <trkpt lat="42.6330070" lon="1.3825560">
        <ele>2146.0</ele>
        <time>2021-08-12T12:38:05Z</time>
      </trkpt>
      <trkpt lat="42.6330060" lon="1.3825500">
        <ele>2146.0</ele>
        <time>2021-08-12T12:38:07Z</time>
      </trkpt>
      <trkpt lat="42.6330050" lon="1.3825410">
        <ele>2145.9</ele>
        <time>2021-08-12T12:38:13Z</time>
      </trkpt>
      <trkpt lat="42.6329900" lon="1.3825300">
        <ele>2145.7</ele>
        <time>2021-08-12T12:39:05Z</time>
      </trkpt>
      <trkpt lat="42.6330090" lon="1.3825640">
        <ele>2145.4</ele>
        <time>2021-08-12T12:39:12Z</time>
      </trkpt>
      <trkpt lat="42.6330380" lon="1.3825740">
        <ele>2145.1</ele>
        <time>2021-08-12T12:39:16Z</time>
      </trkpt>
      <trkpt lat="42.6330470" lon="1.3825690">
        <ele>2145.0</ele>
        <time>2021-08-12T12:39:18Z</time>
      </trkpt>
      <trkpt lat="42.6330500" lon="1.3825630">
        <ele>2144.9</ele>
        <time>2021-08-12T12:39:26Z</time>
      </trkpt>
      <trkpt lat="42.6330490" lon="1.3825630">
        <ele>2144.9</ele>
        <time>2021-08-12T12:39:29Z</time>
      </trkpt>
      <trkpt lat="42.6330560" lon="1.3825760">
        <ele>2144.7</ele>
        <time>2021-08-12T12:39:41Z</time>
      </trkpt>
      <trkpt lat="42.6330560" lon="1.3825760">
        <ele>2144.7</ele>
        <time>2021-08-12T12:39:42Z</time>
      </trkpt>
      <trkpt lat="42.6330490" lon="1.3825840">
        <ele>2144.6</ele>
        <time>2021-08-12T12:39:49Z</time>
      </trkpt>
      <trkpt lat="42.6330430" lon="1.3825820">
        <ele>2144.5</ele>
        <time>2021-08-12T12:39:53Z</time>
      </trkpt>
      <trkpt lat="42.6330410" lon="1.3825780">
        <ele>2144.5</ele>
        <time>2021-08-12T12:39:57Z</time>
      </trkpt>
      <trkpt lat="42.6330270" lon="1.3825790">
        <ele>2144.3</ele>
        <time>2021-08-12T12:40:08Z</time>
      </trkpt>
      <trkpt lat="42.6329770" lon="1.3825630">
        <ele>2143.6</ele>
        <time>2021-08-12T12:41:00Z</time>
      </trkpt>
      <trkpt lat="42.6329450" lon="1.3825540">
        <ele>2143.2</ele>
        <time>2021-08-12T12:41:23Z</time>
      </trkpt>
      <trkpt lat="42.6328830" lon="1.3826080">
        <ele>2142.1</ele>
        <time>2021-08-12T12:41:42Z</time>
      </trkpt>
      <trkpt lat="42.6328680" lon="1.3825880">
        <ele>2141.8</ele>
        <time>2021-08-12T12:41:50Z</time>
      </trkpt>
      <trkpt lat="42.6328170" lon="1.3825740">
        <ele>2141.2</ele>
        <time>2021-08-12T12:42:02Z</time>
      </trkpt>
      <trkpt lat="42.6326340" lon="1.3825530">
        <ele>2139.4</ele>
        <time>2021-08-12T12:42:28Z</time>
      </trkpt>
      <trkpt lat="42.6325590" lon="1.3825360">
        <ele>2138.9</ele>
        <time>2021-08-12T12:42:37Z</time>
      </trkpt>
      <trkpt lat="42.6323960" lon="1.3824430">
        <ele>2137.8</ele>
        <time>2021-08-12T12:43:01Z</time>
      </trkpt>
      <trkpt lat="42.6322130" lon="1.3823950">
        <ele>2136.9</ele>
        <time>2021-08-12T12:43:32Z</time>
      </trkpt>
      <trkpt lat="42.6320870" lon="1.3824320">
        <ele>2136.4</ele>
        <time>2021-08-12T12:43:52Z</time>
      </trkpt>
      <trkpt lat="42.6319100" lon="1.3824030">
        <ele>2134.3</ele>
        <time>2021-08-12T12:44:21Z</time>
      </trkpt>
      <trkpt lat="42.6317900" lon="1.3823990">
        <ele>2131.6</ele>
        <time>2021-08-12T12:44:40Z</time>
      </trkpt>
      <trkpt lat="42.6316150" lon="1.3824650">
        <ele>2128.1</ele>
        <time>2021-08-12T12:45:05Z</time>
      </trkpt>
      <trkpt lat="42.6314800" lon="1.3825540">
        <ele>2126.7</ele>
        <time>2021-08-12T12:46:00Z</time>
      </trkpt>
      <trkpt lat="42.6313950" lon="1.3826260">
        <ele>2126.6</ele>
        <time>2021-08-12T12:46:15Z</time>
      </trkpt>
      <trkpt lat="42.6313300" lon="1.3826620">
        <ele>2126.8</ele>
        <time>2021-08-12T12:46:22Z</time>
      </trkpt>
      <trkpt lat="42.6311560" lon="1.3827210">
        <ele>2128.0</ele>
        <time>2021-08-12T12:46:47Z</time>
      </trkpt>
      <trkpt lat="42.6310910" lon="1.3828650">
        <ele>2129.0</ele>
        <time>2021-08-12T12:47:00Z</time>
      </trkpt>
      <trkpt lat="42.6309440" lon="1.3830090">
        <ele>2129.4</ele>
        <time>2021-08-12T12:47:21Z</time>
      </trkpt>
      <trkpt lat="42.6307770" lon="1.3831100">
        <ele>2129.0</ele>
        <time>2021-08-12T12:47:47Z</time>
      </trkpt>
      <trkpt lat="42.6306070" lon="1.3832270">
        <ele>2128.6</ele>
        <time>2021-08-12T12:48:07Z</time>
      </trkpt>
      <trkpt lat="42.6304700" lon="1.3833460">
        <ele>2128.0</ele>
        <time>2021-08-12T12:48:24Z</time>
      </trkpt>
      <trkpt lat="42.6304420" lon="1.3834080">
        <ele>2127.8</ele>
        <time>2021-08-12T12:48:30Z</time>
      </trkpt>
      <trkpt lat="42.6302930" lon="1.3835210">
        <ele>2126.7</ele>
        <time>2021-08-12T12:48:50Z</time>
      </trkpt>
      <trkpt lat="42.6301480" lon="1.3836490">
        <ele>2125.6</ele>
        <time>2021-08-12T12:49:15Z</time>
      </trkpt>
      <trkpt lat="42.6301360" lon="1.3836720">
        <ele>2125.5</ele>
        <time>2021-08-12T12:49:20Z</time>
      </trkpt>
      <trkpt lat="42.6301310" lon="1.3836730">
        <ele>2125.5</ele>
        <time>2021-08-12T12:49:21Z</time>
      </trkpt>
      <trkpt lat="42.6301090" lon="1.3836840">
        <ele>2125.4</ele>
        <time>2021-08-12T12:49:24Z</time>
      </trkpt>
      <trkpt lat="42.6300980" lon="1.3837010">
        <ele>2125.4</ele>
        <time>2021-08-12T12:49:26Z</time>
      </trkpt>
      <trkpt lat="42.6300960" lon="1.3837130">
        <ele>2125.3</ele>
        <time>2021-08-12T12:49:27Z</time>
      </trkpt>
      <trkpt lat="42.6300940" lon="1.3837210">
        <ele>2125.3</ele>
        <time>2021-08-12T12:49:28Z</time>
      </trkpt>
      <trkpt lat="42.6299360" lon="1.3838530">
        <ele>2125.0</ele>
        <time>2021-08-12T12:49:50Z</time>
      </trkpt>
      <trkpt lat="42.6298290" lon="1.3839350">
        <ele>2124.3</ele>
        <time>2021-08-12T12:50:05Z</time>
      </trkpt>
      <trkpt lat="42.6298200" lon="1.3839400">
        <ele>2124.3</ele>
        <time>2021-08-12T12:50:06Z</time>
      </trkpt>
      <trkpt lat="42.6298110" lon="1.3839420">
        <ele>2124.2</ele>
        <time>2021-08-12T12:50:07Z</time>
      </trkpt>
      <trkpt lat="42.6298010" lon="1.3839430">
        <ele>2124.1</ele>
        <time>2021-08-12T12:50:08Z</time>
      </trkpt>
      <trkpt lat="42.6297850" lon="1.3839550">
        <ele>2124.0</ele>
        <time>2021-08-12T12:50:10Z</time>
      </trkpt>
      <trkpt lat="42.6297750" lon="1.3839580">
        <ele>2123.9</ele>
        <time>2021-08-12T12:50:11Z</time>
      </trkpt>
      <trkpt lat="42.6297580" lon="1.3839710">
        <ele>2123.8</ele>
        <time>2021-08-12T12:50:13Z</time>
      </trkpt>
      <trkpt lat="42.6296920" lon="1.3840600">
        <ele>2123.4</ele>
        <time>2021-08-12T12:50:25Z</time>
      </trkpt>
      <trkpt lat="42.6296860" lon="1.3840650">
        <ele>2123.4</ele>
        <time>2021-08-12T12:50:27Z</time>
      </trkpt>
      <trkpt lat="42.6296800" lon="1.3840730">
        <ele>2123.4</ele>
        <time>2021-08-12T12:50:29Z</time>
      </trkpt>
      <trkpt lat="42.6296770" lon="1.3840820">
        <ele>2123.4</ele>
        <time>2021-08-12T12:50:31Z</time>
      </trkpt>
      <trkpt lat="42.6296750" lon="1.3840830">
        <ele>2123.4</ele>
        <time>2021-08-12T12:50:32Z</time>
      </trkpt>
      <trkpt lat="42.6296740" lon="1.3840850">
        <ele>2123.4</ele>
        <time>2021-08-12T12:50:33Z</time>
      </trkpt>
      <trkpt lat="42.6296730" lon="1.3840890">
        <ele>2123.4</ele>
        <time>2021-08-12T12:50:34Z</time>
      </trkpt>
      <trkpt lat="42.6296610" lon="1.3840960">
        <ele>2123.4</ele>
        <time>2021-08-12T12:50:39Z</time>
      </trkpt>
      <trkpt lat="42.6296490" lon="1.3840980">
        <ele>2123.4</ele>
        <time>2021-08-12T12:50:47Z</time>
      </trkpt>
      <trkpt lat="42.6296390" lon="1.3841060">
        <ele>2123.4</ele>
        <time>2021-08-12T12:50:50Z</time>
      </trkpt>
      <trkpt lat="42.6296000" lon="1.3841730">
        <ele>2123.5</ele>
        <time>2021-08-12T12:50:58Z</time>
      </trkpt>
      <trkpt lat="42.6295960" lon="1.3841770">
        <ele>2123.5</ele>
        <time>2021-08-12T12:50:59Z</time>
      </trkpt>
      <trkpt lat="42.6296210" lon="1.3843950">
        <ele>2123.5</ele>
        <time>2021-08-12T12:51:25Z</time>
      </trkpt>
      <trkpt lat="42.6296180" lon="1.3843980">
        <ele>2123.5</ele>
        <time>2021-08-12T12:51:27Z</time>
      </trkpt>
      <trkpt lat="42.6296190" lon="1.3844030">
        <ele>2123.5</ele>
        <time>2021-08-12T12:51:28Z</time>
      </trkpt>
      <trkpt lat="42.6296020" lon="1.3846330">
        <ele>2121.7</ele>
        <time>2021-08-12T12:52:01Z</time>
      </trkpt>
      <trkpt lat="42.6295280" lon="1.3847310">
        <ele>2120.2</ele>
        <time>2021-08-12T12:52:21Z</time>
      </trkpt>
      <trkpt lat="42.6294930" lon="1.3848230">
        <ele>2119.2</ele>
        <time>2021-08-12T12:52:35Z</time>
      </trkpt>
      <trkpt lat="42.6294840" lon="1.3850460">
        <ele>2117.9</ele>
        <time>2021-08-12T12:53:13Z</time>
      </trkpt>
      <trkpt lat="42.6294960" lon="1.3851000">
        <ele>2118.0</ele>
        <time>2021-08-12T12:53:41Z</time>
      </trkpt>
      <trkpt lat="42.6294690" lon="1.3850900">
        <ele>2118.2</ele>
        <time>2021-08-12T12:53:50Z</time>
      </trkpt>
      <trkpt lat="42.6293080" lon="1.3852090">
        <ele>2119.5</ele>
        <time>2021-08-12T12:54:14Z</time>
      </trkpt>
      <trkpt lat="42.6291870" lon="1.3853940">
        <ele>2119.1</ele>
        <time>2021-08-12T12:54:49Z</time>
      </trkpt>
      <trkpt lat="42.6291490" lon="1.3856280">
        <ele>2117.5</ele>
        <time>2021-08-12T12:55:13Z</time>
      </trkpt>
      <trkpt lat="42.6291340" lon="1.3857740">
        <ele>2115.9</ele>
        <time>2021-08-12T12:55:32Z</time>
      </trkpt>
      <trkpt lat="42.6290570" lon="1.3859920">
        <ele>2112.9</ele>
        <time>2021-08-12T12:56:05Z</time>
      </trkpt>
      <trkpt lat="42.6289660" lon="1.3861850">
        <ele>2110.0</ele>
        <time>2021-08-12T12:56:23Z</time>
      </trkpt>
      <trkpt lat="42.6289550" lon="1.3862230">
        <ele>2109.5</ele>
        <time>2021-08-12T12:56:27Z</time>
      </trkpt>
      <trkpt lat="42.6289330" lon="1.3862880">
        <ele>2108.7</ele>
        <time>2021-08-12T12:56:33Z</time>
      </trkpt>
      <trkpt lat="42.6289030" lon="1.3863680">
        <ele>2107.7</ele>
        <time>2021-08-12T12:56:40Z</time>
      </trkpt>
      <trkpt lat="42.6288980" lon="1.3864590">
        <ele>2106.7</ele>
        <time>2021-08-12T12:56:46Z</time>
      </trkpt>
      <trkpt lat="42.6288600" lon="1.3865710">
        <ele>2105.5</ele>
        <time>2021-08-12T12:57:00Z</time>
      </trkpt>
      <trkpt lat="42.6287850" lon="1.3867980">
        <ele>2103.9</ele>
        <time>2021-08-12T12:57:24Z</time>
      </trkpt>
      <trkpt lat="42.6287370" lon="1.3869230">
        <ele>2102.4</ele>
        <time>2021-08-12T12:57:47Z</time>
      </trkpt>
      <trkpt lat="42.6287030" lon="1.3871580">
        <ele>2098.2</ele>
        <time>2021-08-12T12:58:24Z</time>
      </trkpt>
      <trkpt lat="42.6286620" lon="1.3872430">
        <ele>2096.0</ele>
        <time>2021-08-12T12:58:42Z</time>
      </trkpt>
      <trkpt lat="42.6285900" lon="1.3873010">
        <ele>2093.7</ele>
        <time>2021-08-12T12:58:58Z</time>
      </trkpt>
      <trkpt lat="42.6285630" lon="1.3873350">
        <ele>2092.7</ele>
        <time>2021-08-12T12:59:05Z</time>
      </trkpt>
      <trkpt lat="42.6285520" lon="1.3873530">
        <ele>2092.3</ele>
        <time>2021-08-12T12:59:08Z</time>
      </trkpt>
      <trkpt lat="42.6285470" lon="1.3873590">
        <ele>2092.2</ele>
        <time>2021-08-12T12:59:09Z</time>
      </trkpt>
      <trkpt lat="42.6285450" lon="1.3873650">
        <ele>2092.0</ele>
        <time>2021-08-12T12:59:10Z</time>
      </trkpt>
      <trkpt lat="42.6285110" lon="1.3874140">
        <ele>2090.9</ele>
        <time>2021-08-12T12:59:19Z</time>
      </trkpt>
      <trkpt lat="42.6284830" lon="1.3874510">
        <ele>2090.0</ele>
        <time>2021-08-12T12:59:26Z</time>
      </trkpt>
      <trkpt lat="42.6284420" lon="1.3875280">
        <ele>2088.5</ele>
        <time>2021-08-12T12:59:39Z</time>
      </trkpt>
      <trkpt lat="42.6284320" lon="1.3875520">
        <ele>2088.1</ele>
        <time>2021-08-12T12:59:44Z</time>
      </trkpt>
      <trkpt lat="42.6284220" lon="1.3876150">
        <ele>2087.2</ele>
        <time>2021-08-12T12:59:56Z</time>
      </trkpt>
      <trkpt lat="42.6284100" lon="1.3876720">
        <ele>2086.4</ele>
        <time>2021-08-12T13:00:08Z</time>
      </trkpt>
      <trkpt lat="42.6283800" lon="1.3877360">
        <ele>2085.7</ele>
        <time>2021-08-12T13:00:17Z</time>
      </trkpt>
      <trkpt lat="42.6283740" lon="1.3877440">
        <ele>2085.6</ele>
        <time>2021-08-12T13:00:18Z</time>
      </trkpt>
      <trkpt lat="42.6283280" lon="1.3878360">
        <ele>2085.1</ele>
        <time>2021-08-12T13:00:31Z</time>
      </trkpt>
      <trkpt lat="42.6283170" lon="1.3878530">
        <ele>2085.0</ele>
        <time>2021-08-12T13:00:34Z</time>
      </trkpt>
      <trkpt lat="42.6282210" lon="1.3879400">
        <ele>2085.2</ele>
        <time>2021-08-12T13:00:55Z</time>
      </trkpt>
      <trkpt lat="42.6281670" lon="1.3880230">
        <ele>2085.5</ele>
        <time>2021-08-12T13:01:08Z</time>
      </trkpt>
      <trkpt lat="42.6281020" lon="1.3881080">
        <ele>2085.6</ele>
        <time>2021-08-12T13:01:22Z</time>
      </trkpt>
      <trkpt lat="42.6280470" lon="1.3881530">
        <ele>2085.3</ele>
        <time>2021-08-12T13:01:38Z</time>
      </trkpt>
      <trkpt lat="42.6280600" lon="1.3881940">
        <ele>2084.9</ele>
        <time>2021-08-12T13:01:45Z</time>
      </trkpt>
      <trkpt lat="42.6280580" lon="1.3882040">
        <ele>2084.8</ele>
        <time>2021-08-12T13:01:46Z</time>
      </trkpt>
      <trkpt lat="42.6280540" lon="1.3882090">
        <ele>2084.8</ele>
        <time>2021-08-12T13:01:47Z</time>
      </trkpt>
      <trkpt lat="42.6279910" lon="1.3882210">
        <ele>2083.7</ele>
        <time>2021-08-12T13:02:00Z</time>
      </trkpt>
      <trkpt lat="42.6279730" lon="1.3882380">
        <ele>2083.1</ele>
        <time>2021-08-12T13:02:05Z</time>
      </trkpt>
      <trkpt lat="42.6279500" lon="1.3882560">
        <ele>2082.5</ele>
        <time>2021-08-12T13:02:11Z</time>
      </trkpt>
      <trkpt lat="42.6279450" lon="1.3882730">
        <ele>2082.3</ele>
        <time>2021-08-12T13:02:13Z</time>
      </trkpt>
      <trkpt lat="42.6279470" lon="1.3882820">
        <ele>2082.1</ele>
        <time>2021-08-12T13:02:14Z</time>
      </trkpt>
      <trkpt lat="42.6279460" lon="1.3882860">
        <ele>2082.1</ele>
        <time>2021-08-12T13:02:15Z</time>
      </trkpt>
      <trkpt lat="42.6279470" lon="1.3882930">
        <ele>2081.9</ele>
        <time>2021-08-12T13:02:16Z</time>
      </trkpt>
      <trkpt lat="42.6279360" lon="1.3883670">
        <ele>2080.8</ele>
        <time>2021-08-12T13:02:23Z</time>
      </trkpt>
      <trkpt lat="42.6279310" lon="1.3883940">
        <ele>2080.3</ele>
        <time>2021-08-12T13:02:26Z</time>
      </trkpt>
      <trkpt lat="42.6279280" lon="1.3884030">
        <ele>2080.2</ele>
        <time>2021-08-12T13:02:27Z</time>
      </trkpt>
      <trkpt lat="42.6278780" lon="1.3884840">
        <ele>2078.5</ele>
        <time>2021-08-12T13:02:37Z</time>
      </trkpt>
      <trkpt lat="42.6278650" lon="1.3885190">
        <ele>2077.9</ele>
        <time>2021-08-12T13:02:40Z</time>
      </trkpt>
      <trkpt lat="42.6278600" lon="1.3885280">
        <ele>2077.7</ele>
        <time>2021-08-12T13:02:41Z</time>
      </trkpt>
      <trkpt lat="42.6278570" lon="1.3885340">
        <ele>2077.6</ele>
        <time>2021-08-12T13:02:42Z</time>
      </trkpt>
      <trkpt lat="42.6277970" lon="1.3886190">
        <ele>2075.8</ele>
        <time>2021-08-12T13:02:53Z</time>
      </trkpt>
      <trkpt lat="42.6277760" lon="1.3886820">
        <ele>2074.7</ele>
        <time>2021-08-12T13:02:59Z</time>
      </trkpt>
      <trkpt lat="42.6277670" lon="1.3887010">
        <ele>2074.4</ele>
        <time>2021-08-12T13:03:01Z</time>
      </trkpt>
      <trkpt lat="42.6276970" lon="1.3888740">
        <ele>2071.3</ele>
        <time>2021-08-12T13:03:26Z</time>
      </trkpt>
      <trkpt lat="42.6276880" lon="1.3888760">
        <ele>2071.1</ele>
        <time>2021-08-12T13:03:30Z</time>
      </trkpt>
      <trkpt lat="42.6276840" lon="1.3888790">
        <ele>2071.0</ele>
        <time>2021-08-12T13:03:31Z</time>
      </trkpt>
      <trkpt lat="42.6276700" lon="1.3888970">
        <ele>2070.6</ele>
        <time>2021-08-12T13:03:35Z</time>
      </trkpt>
      <trkpt lat="42.6276630" lon="1.3889080">
        <ele>2070.4</ele>
        <time>2021-08-12T13:03:37Z</time>
      </trkpt>
      <trkpt lat="42.6276620" lon="1.3889520">
        <ele>2069.7</ele>
        <time>2021-08-12T13:03:44Z</time>
      </trkpt>
      <trkpt lat="42.6276420" lon="1.3889370">
        <ele>2069.2</ele>
        <time>2021-08-12T13:03:52Z</time>
      </trkpt>
      <trkpt lat="42.6276350" lon="1.3889540">
        <ele>2068.9</ele>
        <time>2021-08-12T13:03:56Z</time>
      </trkpt>
      <trkpt lat="42.6276220" lon="1.3889970">
        <ele>2068.2</ele>
        <time>2021-08-12T13:04:03Z</time>
      </trkpt>
      <trkpt lat="42.6276180" lon="1.3890100">
        <ele>2067.9</ele>
        <time>2021-08-12T13:04:05Z</time>
      </trkpt>
      <trkpt lat="42.6276080" lon="1.3890280">
        <ele>2067.6</ele>
        <time>2021-08-12T13:04:08Z</time>
      </trkpt>
      <trkpt lat="42.6276040" lon="1.3890910">
        <ele>2066.6</ele>
        <time>2021-08-12T13:04:18Z</time>
      </trkpt>
      <trkpt lat="42.6275980" lon="1.3890970">
        <ele>2066.5</ele>
        <time>2021-08-12T13:04:20Z</time>
      </trkpt>
      <trkpt lat="42.6275850" lon="1.3891260">
        <ele>2065.9</ele>
        <time>2021-08-12T13:04:25Z</time>
      </trkpt>
      <trkpt lat="42.6275680" lon="1.3891680">
        <ele>2065.2</ele>
        <time>2021-08-12T13:04:31Z</time>
      </trkpt>
      <trkpt lat="42.6275690" lon="1.3891750">
        <ele>2065.1</ele>
        <time>2021-08-12T13:04:32Z</time>
      </trkpt>
      <trkpt lat="42.6275750" lon="1.3891990">
        <ele>2064.7</ele>
        <time>2021-08-12T13:04:37Z</time>
      </trkpt>
      <trkpt lat="42.6275830" lon="1.3892470">
        <ele>2063.9</ele>
        <time>2021-08-12T13:04:50Z</time>
      </trkpt>
      <trkpt lat="42.6276150" lon="1.3892700">
        <ele>2063.1</ele>
        <time>2021-08-12T13:04:59Z</time>
      </trkpt>
      <trkpt lat="42.6276290" lon="1.3892780">
        <ele>2062.8</ele>
        <time>2021-08-12T13:05:04Z</time>
      </trkpt>
      <trkpt lat="42.6276320" lon="1.3892780">
        <ele>2062.8</ele>
        <time>2021-08-12T13:05:05Z</time>
      </trkpt>
      <trkpt lat="42.6276400" lon="1.3892870">
        <ele>2062.5</ele>
        <time>2021-08-12T13:05:11Z</time>
      </trkpt>
      <trkpt lat="42.6276340" lon="1.3893090">
        <ele>2062.2</ele>
        <time>2021-08-12T13:05:14Z</time>
      </trkpt>
      <trkpt lat="42.6276590" lon="1.3894780">
        <ele>2059.5</ele>
        <time>2021-08-12T13:05:41Z</time>
      </trkpt>
      <trkpt lat="42.6276680" lon="1.3895650">
        <ele>2058.1</ele>
        <time>2021-08-12T13:05:51Z</time>
      </trkpt>
      <trkpt lat="42.6277050" lon="1.3897960">
        <ele>2054.4</ele>
        <time>2021-08-12T13:06:33Z</time>
      </trkpt>
      <trkpt lat="42.6277570" lon="1.3900270">
        <ele>2050.7</ele>
        <time>2021-08-12T13:07:09Z</time>
      </trkpt>
      <trkpt lat="42.6277800" lon="1.3900340">
        <ele>2050.2</ele>
        <time>2021-08-12T13:07:15Z</time>
      </trkpt>
      <trkpt lat="42.6278000" lon="1.3901430">
        <ele>2048.4</ele>
        <time>2021-08-12T13:07:29Z</time>
      </trkpt>
      <trkpt lat="42.6277870" lon="1.3902990">
        <ele>2046.0</ele>
        <time>2021-08-12T13:08:04Z</time>
      </trkpt>
      <trkpt lat="42.6277520" lon="1.3902920">
        <ele>2045.2</ele>
        <time>2021-08-12T13:08:09Z</time>
      </trkpt>
      <trkpt lat="42.6277130" lon="1.3902650">
        <ele>2044.3</ele>
        <time>2021-08-12T13:08:15Z</time>
      </trkpt>
      <trkpt lat="42.6276620" lon="1.3902240">
        <ele>2043.0</ele>
        <time>2021-08-12T13:08:29Z</time>
      </trkpt>
      <trkpt lat="42.6276100" lon="1.3901780">
        <ele>2041.7</ele>
        <time>2021-08-12T13:08:46Z</time>
      </trkpt>
      <trkpt lat="42.6274820" lon="1.3900140">
        <ele>2038.0</ele>
        <time>2021-08-12T13:09:37Z</time>
      </trkpt>
      <trkpt lat="42.6274690" lon="1.3899990">
        <ele>2037.6</ele>
        <time>2021-08-12T13:09:45Z</time>
      </trkpt>
      <trkpt lat="42.6274590" lon="1.3899870">
        <ele>2037.4</ele>
        <time>2021-08-12T13:09:48Z</time>
      </trkpt>
      <trkpt lat="42.6274360" lon="1.3899760">
        <ele>2036.9</ele>
        <time>2021-08-12T13:09:53Z</time>
      </trkpt>
      <trkpt lat="42.6273780" lon="1.3899470">
        <ele>2035.5</ele>
        <time>2021-08-12T13:10:08Z</time>
      </trkpt>
      <trkpt lat="42.6273750" lon="1.3899380">
        <ele>2035.4</ele>
        <time>2021-08-12T13:10:09Z</time>
      </trkpt>
      <trkpt lat="42.6272920" lon="1.3897670">
        <ele>2032.2</ele>
        <time>2021-08-12T13:10:42Z</time>
      </trkpt>
      <trkpt lat="42.6272870" lon="1.3897640">
        <ele>2032.1</ele>
        <time>2021-08-12T13:10:46Z</time>
      </trkpt>
      <trkpt lat="42.6271970" lon="1.3896640">
        <ele>2029.6</ele>
        <time>2021-08-12T13:11:22Z</time>
      </trkpt>
      <trkpt lat="42.6271860" lon="1.3896920">
        <ele>2029.1</ele>
        <time>2021-08-12T13:11:27Z</time>
      </trkpt>
      <trkpt lat="42.6271770" lon="1.3897240">
        <ele>2028.6</ele>
        <time>2021-08-12T13:11:32Z</time>
      </trkpt>
      <trkpt lat="42.6271710" lon="1.3897400">
        <ele>2028.3</ele>
        <time>2021-08-12T13:11:37Z</time>
      </trkpt>
      <trkpt lat="42.6271680" lon="1.3897650">
        <ele>2027.9</ele>
        <time>2021-08-12T13:11:43Z</time>
      </trkpt>
      <trkpt lat="42.6271730" lon="1.3897710">
        <ele>2027.8</ele>
        <time>2021-08-12T13:11:50Z</time>
      </trkpt>
      <trkpt lat="42.6271470" lon="1.3897640">
        <ele>2027.2</ele>
        <time>2021-08-12T13:12:03Z</time>
      </trkpt>
      <trkpt lat="42.6270280" lon="1.3896150">
        <ele>2023.8</ele>
        <time>2021-08-12T13:12:29Z</time>
      </trkpt>
      <trkpt lat="42.6269960" lon="1.3895500">
        <ele>2022.6</ele>
        <time>2021-08-12T13:12:38Z</time>
      </trkpt>
      <trkpt lat="42.6268330" lon="1.3894800">
        <ele>2019.0</ele>
        <time>2021-08-12T13:13:15Z</time>
      </trkpt>
      <trkpt lat="42.6267760" lon="1.3895640">
        <ele>2017.2</ele>
        <time>2021-08-12T13:13:31Z</time>
      </trkpt>
      <trkpt lat="42.6267400" lon="1.3895280">
        <ele>2016.2</ele>
        <time>2021-08-12T13:13:42Z</time>
      </trkpt>
      <trkpt lat="42.6267410" lon="1.3895110">
        <ele>2016.0</ele>
        <time>2021-08-12T13:13:49Z</time>
      </trkpt>
      <trkpt lat="42.6267210" lon="1.3894820">
        <ele>2015.3</ele>
        <time>2021-08-12T13:13:56Z</time>
      </trkpt>
      <trkpt lat="42.6266780" lon="1.3893470">
        <ele>2013.1</ele>
        <time>2021-08-12T13:14:24Z</time>
      </trkpt>
      <trkpt lat="42.6266740" lon="1.3893090">
        <ele>2012.5</ele>
        <time>2021-08-12T13:14:29Z</time>
      </trkpt>
      <trkpt lat="42.6266540" lon="1.3892260">
        <ele>2011.1</ele>
        <time>2021-08-12T13:14:41Z</time>
      </trkpt>
      <trkpt lat="42.6266500" lon="1.3892170">
        <ele>2010.9</ele>
        <time>2021-08-12T13:14:42Z</time>
      </trkpt>
      <trkpt lat="42.6266150" lon="1.3891280">
        <ele>2009.4</ele>
        <time>2021-08-12T13:14:52Z</time>
      </trkpt>
      <trkpt lat="42.6266010" lon="1.3890990">
        <ele>2008.8</ele>
        <time>2021-08-12T13:14:55Z</time>
      </trkpt>
      <trkpt lat="42.6265970" lon="1.3890910">
        <ele>2008.7</ele>
        <time>2021-08-12T13:14:56Z</time>
      </trkpt>
      <trkpt lat="42.6265840" lon="1.3890440">
        <ele>2007.9</ele>
        <time>2021-08-12T13:15:02Z</time>
      </trkpt>
      <trkpt lat="42.6265260" lon="1.3889650">
        <ele>2006.1</ele>
        <time>2021-08-12T13:15:13Z</time>
      </trkpt>
      <trkpt lat="42.6264920" lon="1.3888960">
        <ele>2004.9</ele>
        <time>2021-08-12T13:15:21Z</time>
      </trkpt>
      <trkpt lat="42.6264860" lon="1.3888860">
        <ele>2004.7</ele>
        <time>2021-08-12T13:15:22Z</time>
      </trkpt>
      <trkpt lat="42.6264740" lon="1.3888620">
        <ele>2004.2</ele>
        <time>2021-08-12T13:15:24Z</time>
      </trkpt>
      <trkpt lat="42.6264690" lon="1.3888500">
        <ele>2004.0</ele>
        <time>2021-08-12T13:15:25Z</time>
      </trkpt>
      <trkpt lat="42.6264640" lon="1.3888440">
        <ele>2003.8</ele>
        <time>2021-08-12T13:15:26Z</time>
      </trkpt>
      <trkpt lat="42.6264630" lon="1.3888350">
        <ele>2003.7</ele>
        <time>2021-08-12T13:15:27Z</time>
      </trkpt>
      <trkpt lat="42.6264630" lon="1.3888250">
        <ele>2003.5</ele>
        <time>2021-08-12T13:15:29Z</time>
      </trkpt>
      <trkpt lat="42.6264520" lon="1.3888010">
        <ele>2003.1</ele>
        <time>2021-08-12T13:15:35Z</time>
      </trkpt>
      <trkpt lat="42.6264520" lon="1.3887960">
        <ele>2003.0</ele>
        <time>2021-08-12T13:15:36Z</time>
      </trkpt>
      <trkpt lat="42.6264490" lon="1.3887890">
        <ele>2002.9</ele>
        <time>2021-08-12T13:15:38Z</time>
      </trkpt>
      <trkpt lat="42.6264440" lon="1.3887780">
        <ele>2002.7</ele>
        <time>2021-08-12T13:15:41Z</time>
      </trkpt>
      <trkpt lat="42.6264400" lon="1.3887690">
        <ele>2002.5</ele>
        <time>2021-08-12T13:15:43Z</time>
      </trkpt>
      <trkpt lat="42.6264360" lon="1.3887650">
        <ele>2002.4</ele>
        <time>2021-08-12T13:15:44Z</time>
      </trkpt>
      <trkpt lat="42.6264030" lon="1.3887070">
        <ele>2001.3</ele>
        <time>2021-08-12T13:15:53Z</time>
      </trkpt>
      <trkpt lat="42.6263940" lon="1.3886760">
        <ele>2000.8</ele>
        <time>2021-08-12T13:15:57Z</time>
      </trkpt>
      <trkpt lat="42.6263790" lon="1.3886560">
        <ele>2000.3</ele>
        <time>2021-08-12T13:16:00Z</time>
      </trkpt>
      <trkpt lat="42.6263600" lon="1.3885160">
        <ele>1998.1</ele>
        <time>2021-08-12T13:16:14Z</time>
      </trkpt>
      <trkpt lat="42.6263380" lon="1.3884260">
        <ele>1996.6</ele>
        <time>2021-08-12T13:16:24Z</time>
      </trkpt>
      <trkpt lat="42.6262970" lon="1.3885710">
        <ele>1994.2</ele>
        <time>2021-08-12T13:16:45Z</time>
      </trkpt>
      <trkpt lat="42.6262390" lon="1.3887130">
        <ele>1991.7</ele>
        <time>2021-08-12T13:17:02Z</time>
      </trkpt>
      <trkpt lat="42.6261950" lon="1.3888820">
        <ele>1988.9</ele>
        <time>2021-08-12T13:17:21Z</time>
      </trkpt>
      <trkpt lat="42.6262070" lon="1.3889420">
        <ele>1987.9</ele>
        <time>2021-08-12T13:17:31Z</time>
      </trkpt>
      <trkpt lat="42.6262060" lon="1.3889550">
        <ele>1987.7</ele>
        <time>2021-08-12T13:17:33Z</time>
      </trkpt>
      <trkpt lat="42.6262070" lon="1.3889630">
        <ele>1987.6</ele>
        <time>2021-08-12T13:17:34Z</time>
      </trkpt>
      <trkpt lat="42.6262090" lon="1.3889720">
        <ele>1987.4</ele>
        <time>2021-08-12T13:17:35Z</time>
      </trkpt>
      <trkpt lat="42.6262130" lon="1.3889820">
        <ele>1987.3</ele>
        <time>2021-08-12T13:17:36Z</time>
      </trkpt>
      <trkpt lat="42.6262320" lon="1.3890290">
        <ele>1986.4</ele>
        <time>2021-08-12T13:17:43Z</time>
      </trkpt>
      <trkpt lat="42.6262190" lon="1.3890350">
        <ele>1986.1</ele>
        <time>2021-08-12T13:17:44Z</time>
      </trkpt>
      <trkpt lat="42.6262180" lon="1.3890400">
        <ele>1986.1</ele>
        <time>2021-08-12T13:17:45Z</time>
      </trkpt>
      <trkpt lat="42.6262150" lon="1.3890440">
        <ele>1986.0</ele>
        <time>2021-08-12T13:17:46Z</time>
      </trkpt>
      <trkpt lat="42.6261900" lon="1.3890690">
        <ele>1985.3</ele>
        <time>2021-08-12T13:17:52Z</time>
      </trkpt>
      <trkpt lat="42.6261260" lon="1.3890720">
        <ele>1984.0</ele>
        <time>2021-08-12T13:18:03Z</time>
      </trkpt>
      <trkpt lat="42.6260960" lon="1.3890750">
        <ele>1983.3</ele>
        <time>2021-08-12T13:18:12Z</time>
      </trkpt>
      <trkpt lat="42.6260390" lon="1.3890430">
        <ele>1982.0</ele>
        <time>2021-08-12T13:18:28Z</time>
      </trkpt>
      <trkpt lat="42.6259770" lon="1.3889270">
        <ele>1979.8</ele>
        <time>2021-08-12T13:18:49Z</time>
      </trkpt>
      <trkpt lat="42.6259470" lon="1.3890100">
        <ele>1978.3</ele>
        <time>2021-08-12T13:19:06Z</time>
      </trkpt>
      <trkpt lat="42.6259560" lon="1.3890880">
        <ele>1977.1</ele>
        <time>2021-08-12T13:19:16Z</time>
      </trkpt>
      <trkpt lat="42.6259590" lon="1.3891030">
        <ele>1976.9</ele>
        <time>2021-08-12T13:19:18Z</time>
      </trkpt>
      <trkpt lat="42.6259450" lon="1.3893360">
        <ele>1973.2</ele>
        <time>2021-08-12T13:19:55Z</time>
      </trkpt>
      <trkpt lat="42.6258560" lon="1.3891960">
        <ele>1970.3</ele>
        <time>2021-08-12T13:20:12Z</time>
      </trkpt>
      <trkpt lat="42.6258470" lon="1.3891240">
        <ele>1969.2</ele>
        <time>2021-08-12T13:20:17Z</time>
      </trkpt>
      <trkpt lat="42.6258320" lon="1.3890500">
        <ele>1968.0</ele>
        <time>2021-08-12T13:20:23Z</time>
      </trkpt>
      <trkpt lat="42.6258300" lon="1.3889890">
        <ele>1967.1</ele>
        <time>2021-08-12T13:20:28Z</time>
      </trkpt>
      <trkpt lat="42.6258250" lon="1.3889180">
        <ele>1965.9</ele>
        <time>2021-08-12T13:20:35Z</time>
      </trkpt>
      <trkpt lat="42.6258030" lon="1.3887900">
        <ele>1963.9</ele>
        <time>2021-08-12T13:21:01Z</time>
      </trkpt>
      <trkpt lat="42.6257990" lon="1.3888050">
        <ele>1963.7</ele>
        <time>2021-08-12T13:21:02Z</time>
      </trkpt>
      <trkpt lat="42.6257920" lon="1.3888110">
        <ele>1963.5</ele>
        <time>2021-08-12T13:21:04Z</time>
      </trkpt>
      <trkpt lat="42.6256980" lon="1.3890280">
        <ele>1959.6</ele>
        <time>2021-08-12T13:21:21Z</time>
      </trkpt>
      <trkpt lat="42.6256520" lon="1.3891760">
        <ele>1957.1</ele>
        <time>2021-08-12T13:21:34Z</time>
      </trkpt>
      <trkpt lat="42.6256450" lon="1.3891950">
        <ele>1956.7</ele>
        <time>2021-08-12T13:21:37Z</time>
      </trkpt>
      <trkpt lat="42.6256690" lon="1.3892870">
        <ele>1955.2</ele>
        <time>2021-08-12T13:21:46Z</time>
      </trkpt>
      <trkpt lat="42.6256830" lon="1.3893270">
        <ele>1954.5</ele>
        <time>2021-08-12T13:21:50Z</time>
      </trkpt>
      <trkpt lat="42.6255260" lon="1.3892220">
        <ele>1950.8</ele>
        <time>2021-08-12T13:22:20Z</time>
      </trkpt>
      <trkpt lat="42.6254000" lon="1.3890610">
        <ele>1947.1</ele>
        <time>2021-08-12T13:22:49Z</time>
      </trkpt>
      <trkpt lat="42.6253930" lon="1.3890530">
        <ele>1947.0</ele>
        <time>2021-08-12T13:22:51Z</time>
      </trkpt>
      <trkpt lat="42.6253860" lon="1.3890270">
        <ele>1946.5</ele>
        <time>2021-08-12T13:22:55Z</time>
      </trkpt>
      <trkpt lat="42.6253590" lon="1.3889330">
        <ele>1944.9</ele>
        <time>2021-08-12T13:23:07Z</time>
      </trkpt>
      <trkpt lat="42.6253560" lon="1.3888950">
        <ele>1944.4</ele>
        <time>2021-08-12T13:23:11Z</time>
      </trkpt>
      <trkpt lat="42.6253510" lon="1.3888630">
        <ele>1943.8</ele>
        <time>2021-08-12T13:23:15Z</time>
      </trkpt>
      <trkpt lat="42.6253280" lon="1.3888290">
        <ele>1943.1</ele>
        <time>2021-08-12T13:23:20Z</time>
      </trkpt>
      <trkpt lat="42.6253200" lon="1.3887920">
        <ele>1942.5</ele>
        <time>2021-08-12T13:23:25Z</time>
      </trkpt>
      <trkpt lat="42.6253120" lon="1.3887010">
        <ele>1941.1</ele>
        <time>2021-08-12T13:23:38Z</time>
      </trkpt>
      <trkpt lat="42.6253100" lon="1.3886510">
        <ele>1940.3</ele>
        <time>2021-08-12T13:23:44Z</time>
      </trkpt>
      <trkpt lat="42.6252970" lon="1.3886320">
        <ele>1939.9</ele>
        <time>2021-08-12T13:23:47Z</time>
      </trkpt>
      <trkpt lat="42.6252980" lon="1.3886220">
        <ele>1939.8</ele>
        <time>2021-08-12T13:23:48Z</time>
      </trkpt>
      <trkpt lat="42.6252580" lon="1.3885550">
        <ele>1938.4</ele>
        <time>2021-08-12T13:24:01Z</time>
      </trkpt>
      <trkpt lat="42.6252560" lon="1.3885560">
        <ele>1938.4</ele>
        <time>2021-08-12T13:24:02Z</time>
      </trkpt>
      <trkpt lat="42.6251980" lon="1.3884000">
        <ele>1935.6</ele>
        <time>2021-08-12T13:24:34Z</time>
      </trkpt>
      <trkpt lat="42.6251930" lon="1.3883840">
        <ele>1935.4</ele>
        <time>2021-08-12T13:24:36Z</time>
      </trkpt>
      <trkpt lat="42.6251620" lon="1.3882270">
        <ele>1932.8</ele>
        <time>2021-08-12T13:24:58Z</time>
      </trkpt>
      <trkpt lat="42.6251290" lon="1.3881850">
        <ele>1931.9</ele>
        <time>2021-08-12T13:25:07Z</time>
      </trkpt>
      <trkpt lat="42.6251180" lon="1.3881740">
        <ele>1931.6</ele>
        <time>2021-08-12T13:25:11Z</time>
      </trkpt>
      <trkpt lat="42.6251160" lon="1.3881670">
        <ele>1931.5</ele>
        <time>2021-08-12T13:25:12Z</time>
      </trkpt>
      <trkpt lat="42.6251130" lon="1.3881630">
        <ele>1931.4</ele>
        <time>2021-08-12T13:25:13Z</time>
      </trkpt>
      <trkpt lat="42.6250910" lon="1.3881450">
        <ele>1930.8</ele>
        <time>2021-08-12T13:25:21Z</time>
      </trkpt>
      <trkpt lat="42.6250930" lon="1.3881560">
        <ele>1930.7</ele>
        <time>2021-08-12T13:25:30Z</time>
      </trkpt>
      <trkpt lat="42.6250820" lon="1.3879720">
        <ele>1927.8</ele>
        <time>2021-08-12T13:25:48Z</time>
      </trkpt>
      <trkpt lat="42.6250890" lon="1.3879490">
        <ele>1927.4</ele>
        <time>2021-08-12T13:25:50Z</time>
      </trkpt>
      <trkpt lat="42.6251000" lon="1.3879260">
        <ele>1927.0</ele>
        <time>2021-08-12T13:25:52Z</time>
      </trkpt>
      <trkpt lat="42.6251420" lon="1.3878860">
        <ele>1925.9</ele>
        <time>2021-08-12T13:26:12Z</time>
      </trkpt>
      <trkpt lat="42.6251550" lon="1.3880680">
        <ele>1923.0</ele>
        <time>2021-08-12T13:26:28Z</time>
      </trkpt>
      <trkpt lat="42.6251290" lon="1.3881710">
        <ele>1921.3</ele>
        <time>2021-08-12T13:26:52Z</time>
      </trkpt>
      <trkpt lat="42.6251320" lon="1.3881760">
        <ele>1921.2</ele>
        <time>2021-08-12T13:26:56Z</time>
      </trkpt>
      <trkpt lat="42.6251360" lon="1.3881770">
        <ele>1921.2</ele>
        <time>2021-08-12T13:26:58Z</time>
      </trkpt>
      <trkpt lat="42.6251380" lon="1.3881760">
        <ele>1921.1</ele>
        <time>2021-08-12T13:26:59Z</time>
      </trkpt>
      <trkpt lat="42.6251400" lon="1.3881780">
        <ele>1921.1</ele>
        <time>2021-08-12T13:27:00Z</time>
      </trkpt>
      <trkpt lat="42.6251450" lon="1.3881750">
        <ele>1920.9</ele>
        <time>2021-08-12T13:27:04Z</time>
      </trkpt>
      <trkpt lat="42.6251360" lon="1.3880610">
        <ele>1919.2</ele>
        <time>2021-08-12T13:27:13Z</time>
      </trkpt>
      <trkpt lat="42.6251360" lon="1.3880460">
        <ele>1918.9</ele>
        <time>2021-08-12T13:27:14Z</time>
      </trkpt>
      <trkpt lat="42.6251380" lon="1.3880300">
        <ele>1918.7</ele>
        <time>2021-08-12T13:27:15Z</time>
      </trkpt>
      <trkpt lat="42.6251540" lon="1.3879130">
        <ele>1916.8</ele>
        <time>2021-08-12T13:27:28Z</time>
      </trkpt>
      <trkpt lat="42.6251610" lon="1.3878860">
        <ele>1916.4</ele>
        <time>2021-08-12T13:27:41Z</time>
      </trkpt>
      <trkpt lat="42.6251640" lon="1.3878860">
        <ele>1916.3</ele>
        <time>2021-08-12T13:27:42Z</time>
      </trkpt>
      <trkpt lat="42.6251670" lon="1.3878850">
        <ele>1916.2</ele>
        <time>2021-08-12T13:27:44Z</time>
      </trkpt>
      <trkpt lat="42.6251720" lon="1.3878830">
        <ele>1916.1</ele>
        <time>2021-08-12T13:27:46Z</time>
      </trkpt>
      <trkpt lat="42.6251840" lon="1.3878880">
        <ele>1915.9</ele>
        <time>2021-08-12T13:27:50Z</time>
      </trkpt>
      <trkpt lat="42.6251830" lon="1.3878880">
        <ele>1915.8</ele>
        <time>2021-08-12T13:27:52Z</time>
      </trkpt>
      <trkpt lat="42.6250560" lon="1.3885280">
        <ele>1912.1</ele>
        <time>2021-08-12T16:34:03Z</time>
      </trkpt>
      <trkpt lat="42.6250560" lon="1.3885280">
        <ele>1912.1</ele>
        <time>2021-08-12T16:34:04Z</time>
      </trkpt>
      <trkpt lat="42.6250560" lon="1.3885280">
        <ele>1912.1</ele>
        <time>2021-08-12T16:34:07Z</time>
      </trkpt>
      <trkpt lat="42.6250560" lon="1.3885280">
        <ele>1912.1</ele>
        <time>2021-08-12T16:34:09Z</time>
      </trkpt>
      <trkpt lat="42.6250560" lon="1.3885280">
        <ele>1912.1</ele>
        <time>2021-08-12T16:34:10Z</time>
      </trkpt>
      <trkpt lat="42.6250530" lon="1.3885460">
        <ele>1912.1</ele>
        <time>2021-08-12T16:34:11Z</time>
      </trkpt>
      <trkpt lat="42.6250510" lon="1.3885590">
        <ele>1912.1</ele>
        <time>2021-08-12T16:34:12Z</time>
      </trkpt>
      <trkpt lat="42.6250540" lon="1.3885690">
        <ele>1912.1</ele>
        <time>2021-08-12T16:34:13Z</time>
      </trkpt>
      <trkpt lat="42.6250510" lon="1.3885790">
        <ele>1912.1</ele>
        <time>2021-08-12T16:34:14Z</time>
      </trkpt>
      <trkpt lat="42.6250540" lon="1.3885990">
        <ele>1912.1</ele>
        <time>2021-08-12T16:34:18Z</time>
      </trkpt>
      <trkpt lat="42.6250380" lon="1.3886190">
        <ele>1912.0</ele>
        <time>2021-08-12T16:34:27Z</time>
      </trkpt>
      <trkpt lat="42.6250410" lon="1.3886180">
        <ele>1912.0</ele>
        <time>2021-08-12T16:34:28Z</time>
      </trkpt>
      <trkpt lat="42.6251900" lon="1.3880520">
        <ele>1911.2</ele>
        <time>2021-08-12T16:34:55Z</time>
      </trkpt>
      <trkpt lat="42.6251980" lon="1.3880680">
        <ele>1911.2</ele>
        <time>2021-08-12T16:35:05Z</time>
      </trkpt>
      <trkpt lat="42.6252000" lon="1.3880670">
        <ele>1911.2</ele>
        <time>2021-08-12T16:35:08Z</time>
      </trkpt>
      <trkpt lat="42.6252020" lon="1.3880640">
        <ele>1911.2</ele>
        <time>2021-08-12T16:35:09Z</time>
      </trkpt>
      <trkpt lat="42.6252030" lon="1.3880840">
        <ele>1911.1</ele>
        <time>2021-08-12T16:35:15Z</time>
      </trkpt>
      <trkpt lat="42.6252010" lon="1.3880890">
        <ele>1911.1</ele>
        <time>2021-08-12T16:35:16Z</time>
      </trkpt>
      <trkpt lat="42.6252010" lon="1.3880950">
        <ele>1911.1</ele>
        <time>2021-08-12T16:35:17Z</time>
      </trkpt>
      <trkpt lat="42.6251930" lon="1.3881280">
        <ele>1911.1</ele>
        <time>2021-08-12T16:35:23Z</time>
      </trkpt>
      <trkpt lat="42.6251890" lon="1.3881850">
        <ele>1911.0</ele>
        <time>2021-08-12T16:35:25Z</time>
      </trkpt>
      <trkpt lat="42.6251870" lon="1.3882060">
        <ele>1910.9</ele>
        <time>2021-08-12T16:35:27Z</time>
      </trkpt>
      <trkpt lat="42.6251850" lon="1.3882150">
        <ele>1910.9</ele>
        <time>2021-08-12T16:35:28Z</time>
      </trkpt>
      <trkpt lat="42.6251830" lon="1.3882230">
        <ele>1910.9</ele>
        <time>2021-08-12T16:35:29Z</time>
      </trkpt>
      <trkpt lat="42.6251780" lon="1.3882390">
        <ele>1910.9</ele>
        <time>2021-08-12T16:35:31Z</time>
      </trkpt>
      <trkpt lat="42.6251640" lon="1.3882440">
        <ele>1910.9</ele>
        <time>2021-08-12T16:35:33Z</time>
      </trkpt>
      <trkpt lat="42.6251580" lon="1.3882450">
        <ele>1910.8</ele>
        <time>2021-08-12T16:35:34Z</time>
      </trkpt>
      <trkpt lat="42.6251580" lon="1.3882470">
        <ele>1910.8</ele>
        <time>2021-08-12T16:35:35Z</time>
      </trkpt>
      <trkpt lat="42.6251560" lon="1.3882520">
        <ele>1910.8</ele>
        <time>2021-08-12T16:35:36Z</time>
      </trkpt>
      <trkpt lat="42.6251520" lon="1.3882600">
        <ele>1910.8</ele>
        <time>2021-08-12T16:35:37Z</time>
      </trkpt>
      <trkpt lat="42.6251480" lon="1.3882680">
        <ele>1910.8</ele>
        <time>2021-08-12T16:35:38Z</time>
      </trkpt>
      <trkpt lat="42.6251440" lon="1.3882780">
        <ele>1910.8</ele>
        <time>2021-08-12T16:35:39Z</time>
      </trkpt>
      <trkpt lat="42.6251200" lon="1.3883660">
        <ele>1910.6</ele>
        <time>2021-08-12T16:35:49Z</time>
      </trkpt>
      <trkpt lat="42.6250530" lon="1.3884830">
        <ele>1910.4</ele>
        <time>2021-08-12T16:36:09Z</time>
      </trkpt>
      <trkpt lat="42.6250460" lon="1.3884980">
        <ele>1910.4</ele>
        <time>2021-08-12T16:36:11Z</time>
      </trkpt>
      <trkpt lat="42.6250390" lon="1.3885110">
        <ele>1910.3</ele>
        <time>2021-08-12T16:36:13Z</time>
      </trkpt>
      <trkpt lat="42.6248710" lon="1.3886730">
        <ele>1909.8</ele>
        <time>2021-08-12T16:36:34Z</time>
      </trkpt>
      <trkpt lat="42.6246770" lon="1.3886950">
        <ele>1907.8</ele>
        <time>2021-08-12T16:36:52Z</time>
      </trkpt>
      <trkpt lat="42.6244940" lon="1.3886810">
        <ele>1906.5</ele>
        <time>2021-08-12T16:37:14Z</time>
      </trkpt>
      <trkpt lat="42.6244460" lon="1.3886880">
        <ele>1905.9</ele>
        <time>2021-08-12T16:37:22Z</time>
      </trkpt>
      <trkpt lat="42.6243280" lon="1.3887080">
        <ele>1903.6</ele>
        <time>2021-08-12T16:37:37Z</time>
      </trkpt>
      <trkpt lat="42.6241620" lon="1.3886580">
        <ele>1899.3</ele>
        <time>2021-08-12T16:38:13Z</time>
      </trkpt>
      <trkpt lat="42.6241120" lon="1.3886290">
        <ele>1897.9</ele>
        <time>2021-08-12T16:38:19Z</time>
      </trkpt>
      <trkpt lat="42.6240320" lon="1.3886150">
        <ele>1896.0</ele>
        <time>2021-08-12T16:38:28Z</time>
      </trkpt>
      <trkpt lat="42.6238850" lon="1.3885980">
        <ele>1892.5</ele>
        <time>2021-08-12T16:38:52Z</time>
      </trkpt>
      <trkpt lat="42.6238730" lon="1.3885840">
        <ele>1892.1</ele>
        <time>2021-08-12T16:38:55Z</time>
      </trkpt>
      <trkpt lat="42.6238640" lon="1.3885740">
        <ele>1891.8</ele>
        <time>2021-08-12T16:38:57Z</time>
      </trkpt>
      <trkpt lat="42.6237180" lon="1.3884980">
        <ele>1888.5</ele>
        <time>2021-08-12T16:39:18Z</time>
      </trkpt>
      <trkpt lat="42.6236290" lon="1.3884830">
        <ele>1886.9</ele>
        <time>2021-08-12T16:39:25Z</time>
      </trkpt>
      <trkpt lat="42.6234570" lon="1.3884270">
        <ele>1882.9</ele>
        <time>2021-08-12T16:39:52Z</time>
      </trkpt>
      <trkpt lat="42.6232930" lon="1.3883190">
        <ele>1878.9</ele>
        <time>2021-08-12T16:40:21Z</time>
      </trkpt>
      <trkpt lat="42.6232200" lon="1.3882640">
        <ele>1877.3</ele>
        <time>2021-08-12T16:40:33Z</time>
      </trkpt>
      <trkpt lat="42.6230550" lon="1.3881690">
        <ele>1873.9</ele>
        <time>2021-08-12T16:40:53Z</time>
      </trkpt>
      <trkpt lat="42.6228920" lon="1.3880450">
        <ele>1871.1</ele>
        <time>2021-08-12T16:41:18Z</time>
      </trkpt>
      <trkpt lat="42.6228680" lon="1.3880330">
        <ele>1870.8</ele>
        <time>2021-08-12T16:41:21Z</time>
      </trkpt>
      <trkpt lat="42.6227960" lon="1.3879870">
        <ele>1869.9</ele>
        <time>2021-08-12T16:41:29Z</time>
      </trkpt>
      <trkpt lat="42.6227750" lon="1.3879870">
        <ele>1869.6</ele>
        <time>2021-08-12T16:41:31Z</time>
      </trkpt>
      <trkpt lat="42.6227080" lon="1.3879590">
        <ele>1869.0</ele>
        <time>2021-08-12T16:41:39Z</time>
      </trkpt>
      <trkpt lat="42.6225420" lon="1.3878530">
        <ele>1868.3</ele>
        <time>2021-08-12T16:41:57Z</time>
      </trkpt>
      <trkpt lat="42.6223900" lon="1.3877070">
        <ele>1867.5</ele>
        <time>2021-08-12T16:42:20Z</time>
      </trkpt>
      <trkpt lat="42.6222610" lon="1.3875500">
        <ele>1866.1</ele>
        <time>2021-08-12T16:42:41Z</time>
      </trkpt>
      <trkpt lat="42.6221690" lon="1.3873340">
        <ele>1864.4</ele>
        <time>2021-08-12T16:43:05Z</time>
      </trkpt>
      <trkpt lat="42.6220310" lon="1.3871820">
        <ele>1861.6</ele>
        <time>2021-08-12T16:43:29Z</time>
      </trkpt>
      <trkpt lat="42.6218970" lon="1.3871300">
        <ele>1859.7</ele>
        <time>2021-08-12T16:43:48Z</time>
      </trkpt>
      <trkpt lat="42.6217410" lon="1.3869960">
        <ele>1859.2</ele>
        <time>2021-08-12T16:44:14Z</time>
      </trkpt>
      <trkpt lat="42.6216220" lon="1.3867950">
        <ele>1859.5</ele>
        <time>2021-08-12T16:44:34Z</time>
      </trkpt>
      <trkpt lat="42.6215780" lon="1.3867060">
        <ele>1859.6</ele>
        <time>2021-08-12T16:44:44Z</time>
      </trkpt>
      <trkpt lat="42.6215720" lon="1.3867010">
        <ele>1859.6</ele>
        <time>2021-08-12T16:44:45Z</time>
      </trkpt>
      <trkpt lat="42.6215650" lon="1.3866960">
        <ele>1859.6</ele>
        <time>2021-08-12T16:44:46Z</time>
      </trkpt>
      <trkpt lat="42.6215590" lon="1.3866900">
        <ele>1859.6</ele>
        <time>2021-08-12T16:44:47Z</time>
      </trkpt>
      <trkpt lat="42.6215350" lon="1.3866580">
        <ele>1859.7</ele>
        <time>2021-08-12T16:44:51Z</time>
      </trkpt>
      <trkpt lat="42.6214690" lon="1.3865900">
        <ele>1859.9</ele>
        <time>2021-08-12T16:45:00Z</time>
      </trkpt>
      <trkpt lat="42.6214620" lon="1.3864660">
        <ele>1860.2</ele>
        <time>2021-08-12T16:45:13Z</time>
      </trkpt>
      <trkpt lat="42.6214620" lon="1.3862840">
        <ele>1860.8</ele>
        <time>2021-08-12T16:45:39Z</time>
      </trkpt>
      <trkpt lat="42.6213380" lon="1.3864680">
        <ele>1861.6</ele>
        <time>2021-08-12T16:45:58Z</time>
      </trkpt>
      <trkpt lat="42.6212650" lon="1.3865880">
        <ele>1862.0</ele>
        <time>2021-08-12T16:46:12Z</time>
      </trkpt>
      <trkpt lat="42.6211800" lon="1.3867040">
        <ele>1862.5</ele>
        <time>2021-08-12T16:46:26Z</time>
      </trkpt>
      <trkpt lat="42.6211380" lon="1.3868310">
        <ele>1862.9</ele>
        <time>2021-08-12T16:46:39Z</time>
      </trkpt>
      <trkpt lat="42.6211330" lon="1.3868400">
        <ele>1862.9</ele>
        <time>2021-08-12T16:46:40Z</time>
      </trkpt>
      <trkpt lat="42.6211290" lon="1.3868490">
        <ele>1862.9</ele>
        <time>2021-08-12T16:46:41Z</time>
      </trkpt>
      <trkpt lat="42.6211230" lon="1.3868730">
        <ele>1863.0</ele>
        <time>2021-08-12T16:46:43Z</time>
      </trkpt>
      <trkpt lat="42.6211130" lon="1.3869090">
        <ele>1863.1</ele>
        <time>2021-08-12T16:46:46Z</time>
      </trkpt>
      <trkpt lat="42.6210390" lon="1.3869850">
        <ele>1863.3</ele>
        <time>2021-08-12T16:46:55Z</time>
      </trkpt>
      <trkpt lat="42.6210200" lon="1.3869950">
        <ele>1863.4</ele>
        <time>2021-08-12T16:46:58Z</time>
      </trkpt>
      <trkpt lat="42.6209720" lon="1.3870420">
        <ele>1863.5</ele>
        <time>2021-08-12T16:47:05Z</time>
      </trkpt>
      <trkpt lat="42.6209440" lon="1.3870670">
        <ele>1863.6</ele>
        <time>2021-08-12T16:47:09Z</time>
      </trkpt>
      <trkpt lat="42.6208970" lon="1.3871100">
        <ele>1863.7</ele>
        <time>2021-08-12T16:47:16Z</time>
      </trkpt>
      <trkpt lat="42.6207570" lon="1.3872640">
        <ele>1864.1</ele>
        <time>2021-08-12T16:47:34Z</time>
      </trkpt>
      <trkpt lat="42.6206060" lon="1.3874070">
        <ele>1864.6</ele>
        <time>2021-08-12T16:47:57Z</time>
      </trkpt>
      <trkpt lat="42.6205080" lon="1.3874740">
        <ele>1865.0</ele>
        <time>2021-08-12T16:48:10Z</time>
      </trkpt>
      <trkpt lat="42.6203980" lon="1.3875060">
        <ele>1865.3</ele>
        <time>2021-08-12T16:48:25Z</time>
      </trkpt>
      <trkpt lat="42.6202970" lon="1.3875070">
        <ele>1865.6</ele>
        <time>2021-08-12T16:48:36Z</time>
      </trkpt>
      <trkpt lat="42.6201130" lon="1.3874860">
        <ele>1866.1</ele>
        <time>2021-08-12T16:48:55Z</time>
      </trkpt>
      <trkpt lat="42.6200760" lon="1.3874780">
        <ele>1866.2</ele>
        <time>2021-08-12T16:48:59Z</time>
      </trkpt>
      <trkpt lat="42.6199470" lon="1.3874460">
        <ele>1866.6</ele>
        <time>2021-08-12T16:49:17Z</time>
      </trkpt>
      <trkpt lat="42.6199410" lon="1.3874400">
        <ele>1866.6</ele>
        <time>2021-08-12T16:49:18Z</time>
      </trkpt>
      <trkpt lat="42.6199340" lon="1.3874350">
        <ele>1866.6</ele>
        <time>2021-08-12T16:49:19Z</time>
      </trkpt>
      <trkpt lat="42.6199080" lon="1.3874140">
        <ele>1866.7</ele>
        <time>2021-08-12T16:49:23Z</time>
      </trkpt>
      <trkpt lat="42.6199040" lon="1.3874010">
        <ele>1866.7</ele>
        <time>2021-08-12T16:49:24Z</time>
      </trkpt>
      <trkpt lat="42.6197840" lon="1.3873110">
        <ele>1867.0</ele>
        <time>2021-08-12T16:49:42Z</time>
      </trkpt>
      <trkpt lat="42.6196100" lon="1.3872180">
        <ele>1868.5</ele>
        <time>2021-08-12T16:50:04Z</time>
      </trkpt>
      <trkpt lat="42.6195870" lon="1.3872170">
        <ele>1868.7</ele>
        <time>2021-08-12T16:50:07Z</time>
      </trkpt>
      <trkpt lat="42.6194060" lon="1.3871780">
        <ele>1870.1</ele>
        <time>2021-08-12T16:50:29Z</time>
      </trkpt>
      <trkpt lat="42.6192410" lon="1.3872760">
        <ele>1871.5</ele>
        <time>2021-08-12T16:50:54Z</time>
      </trkpt>
      <trkpt lat="42.6190740" lon="1.3873680">
        <ele>1872.8</ele>
        <time>2021-08-12T16:51:19Z</time>
      </trkpt>
      <trkpt lat="42.6189190" lon="1.3874950">
        <ele>1874.0</ele>
        <time>2021-08-12T16:51:39Z</time>
      </trkpt>
      <trkpt lat="42.6188110" lon="1.3877020">
        <ele>1875.1</ele>
        <time>2021-08-12T16:52:02Z</time>
      </trkpt>
      <trkpt lat="42.6187860" lon="1.3877600">
        <ele>1875.4</ele>
        <time>2021-08-12T16:52:07Z</time>
      </trkpt>
      <trkpt lat="42.6187330" lon="1.3878410">
        <ele>1875.9</ele>
        <time>2021-08-12T16:52:16Z</time>
      </trkpt>
      <trkpt lat="42.6186860" lon="1.3879120">
        <ele>1876.3</ele>
        <time>2021-08-12T16:52:24Z</time>
      </trkpt>
      <trkpt lat="42.6185610" lon="1.3880380">
        <ele>1877.2</ele>
        <time>2021-08-12T16:52:42Z</time>
      </trkpt>
      <trkpt lat="42.6185350" lon="1.3880590">
        <ele>1877.8</ele>
        <time>2021-08-12T16:52:46Z</time>
      </trkpt>
      <trkpt lat="42.6184780" lon="1.3880960">
        <ele>1879.1</ele>
        <time>2021-08-12T16:52:57Z</time>
      </trkpt>
      <trkpt lat="42.6184780" lon="1.3880950">
        <ele>1879.1</ele>
        <time>2021-08-12T16:53:00Z</time>
      </trkpt>
      <trkpt lat="42.6184730" lon="1.3881040">
        <ele>1879.3</ele>
        <time>2021-08-12T16:53:07Z</time>
      </trkpt>
      <trkpt lat="42.6183870" lon="1.3881410">
        <ele>1881.1</ele>
        <time>2021-08-12T16:53:20Z</time>
      </trkpt>
      <trkpt lat="42.6183790" lon="1.3881420">
        <ele>1881.3</ele>
        <time>2021-08-12T16:53:21Z</time>
      </trkpt>
      <trkpt lat="42.6183720" lon="1.3881430">
        <ele>1881.5</ele>
        <time>2021-08-12T16:53:22Z</time>
      </trkpt>
      <trkpt lat="42.6183670" lon="1.3881430">
        <ele>1881.6</ele>
        <time>2021-08-12T16:53:23Z</time>
      </trkpt>
      <trkpt lat="42.6183440" lon="1.3881550">
        <ele>1882.1</ele>
        <time>2021-08-12T16:53:25Z</time>
      </trkpt>
      <trkpt lat="42.6183150" lon="1.3881680">
        <ele>1882.7</ele>
        <time>2021-08-12T16:53:28Z</time>
      </trkpt>
      <trkpt lat="42.6181380" lon="1.3882300">
        <ele>1886.4</ele>
        <time>2021-08-12T16:53:47Z</time>
      </trkpt>
      <trkpt lat="42.6181100" lon="1.3882500">
        <ele>1887.1</ele>
        <time>2021-08-12T16:53:50Z</time>
      </trkpt>
      <trkpt lat="42.6179350" lon="1.3883260">
        <ele>1890.8</ele>
        <time>2021-08-12T16:54:12Z</time>
      </trkpt>
      <trkpt lat="42.6177770" lon="1.3883960">
        <ele>1894.2</ele>
        <time>2021-08-12T16:54:33Z</time>
      </trkpt>
      <trkpt lat="42.6177620" lon="1.3884080">
        <ele>1894.6</ele>
        <time>2021-08-12T16:54:35Z</time>
      </trkpt>
      <trkpt lat="42.6177490" lon="1.3884240">
        <ele>1894.9</ele>
        <time>2021-08-12T16:54:37Z</time>
      </trkpt>
      <trkpt lat="42.6176440" lon="1.3885360">
        <ele>1897.7</ele>
        <time>2021-08-12T16:54:51Z</time>
      </trkpt>
      <trkpt lat="42.6176100" lon="1.3885710">
        <ele>1898.5</ele>
        <time>2021-08-12T16:54:58Z</time>
      </trkpt>
      <trkpt lat="42.6175490" lon="1.3885990">
        <ele>1899.8</ele>
        <time>2021-08-12T16:55:08Z</time>
      </trkpt>
      <trkpt lat="42.6175400" lon="1.3886050">
        <ele>1900.1</ele>
        <time>2021-08-12T16:55:10Z</time>
      </trkpt>
      <trkpt lat="42.6175370" lon="1.3886040">
        <ele>1900.1</ele>
        <time>2021-08-12T16:55:11Z</time>
      </trkpt>
      <trkpt lat="42.6175140" lon="1.3886190">
        <ele>1900.6</ele>
        <time>2021-08-12T16:55:16Z</time>
      </trkpt>
      <trkpt lat="42.6174820" lon="1.3886600">
        <ele>1901.5</ele>
        <time>2021-08-12T16:55:25Z</time>
      </trkpt>
      <trkpt lat="42.6174000" lon="1.3888830">
        <ele>1905.3</ele>
        <time>2021-08-12T16:55:54Z</time>
      </trkpt>
      <trkpt lat="42.6172520" lon="1.3890280">
        <ele>1909.0</ele>
        <time>2021-08-12T16:56:25Z</time>
      </trkpt>
      <trkpt lat="42.6170960" lon="1.3891630">
        <ele>1912.8</ele>
        <time>2021-08-12T16:56:47Z</time>
      </trkpt>
      <trkpt lat="42.6170650" lon="1.3891880">
        <ele>1913.5</ele>
        <time>2021-08-12T16:56:53Z</time>
      </trkpt>
      <trkpt lat="42.6170070" lon="1.3893060">
        <ele>1915.7</ele>
        <time>2021-08-12T16:57:13Z</time>
      </trkpt>
      <trkpt lat="42.6169390" lon="1.3894320">
        <ele>1918.0</ele>
        <time>2021-08-12T16:57:37Z</time>
      </trkpt>
      <trkpt lat="42.6168360" lon="1.3896070">
        <ele>1921.4</ele>
        <time>2021-08-12T16:58:03Z</time>
      </trkpt>
      <trkpt lat="42.6167900" lon="1.3896960">
        <ele>1923.0</ele>
        <time>2021-08-12T16:58:16Z</time>
      </trkpt>
      <trkpt lat="42.6167900" lon="1.3896960">
        <ele>1923.0</ele>
        <time>2021-08-12T16:58:17Z</time>
      </trkpt>
      <trkpt lat="42.6167820" lon="1.3897060">
        <ele>1923.2</ele>
        <time>2021-08-12T16:58:18Z</time>
      </trkpt>
      <trkpt lat="42.6167700" lon="1.3897190">
        <ele>1923.6</ele>
        <time>2021-08-12T16:58:20Z</time>
      </trkpt>
      <trkpt lat="42.6167590" lon="1.3897350">
        <ele>1923.9</ele>
        <time>2021-08-12T16:58:24Z</time>
      </trkpt>
      <trkpt lat="42.6166890" lon="1.3898000">
        <ele>1925.6</ele>
        <time>2021-08-12T16:58:38Z</time>
      </trkpt>
      <trkpt lat="42.6166700" lon="1.3898240">
        <ele>1926.1</ele>
        <time>2021-08-12T16:58:43Z</time>
      </trkpt>
      <trkpt lat="42.6165880" lon="1.3898720">
        <ele>1928.0</ele>
        <time>2021-08-12T16:58:58Z</time>
      </trkpt>
      <trkpt lat="42.6165150" lon="1.3899430">
        <ele>1929.8</ele>
        <time>2021-08-12T16:59:11Z</time>
      </trkpt>
      <trkpt lat="42.6165090" lon="1.3899480">
        <ele>1929.9</ele>
        <time>2021-08-12T16:59:12Z</time>
      </trkpt>
      <trkpt lat="42.6164940" lon="1.3899640">
        <ele>1930.3</ele>
        <time>2021-08-12T16:59:16Z</time>
      </trkpt>
      <trkpt lat="42.6164600" lon="1.3899980">
        <ele>1931.2</ele>
        <time>2021-08-12T16:59:25Z</time>
      </trkpt>
      <trkpt lat="42.6164090" lon="1.3900410">
        <ele>1932.4</ele>
        <time>2021-08-12T16:59:37Z</time>
      </trkpt>
      <trkpt lat="42.6163990" lon="1.3900470">
        <ele>1932.6</ele>
        <time>2021-08-12T16:59:39Z</time>
      </trkpt>
      <trkpt lat="42.6163930" lon="1.3900490">
        <ele>1932.8</ele>
        <time>2021-08-12T16:59:40Z</time>
      </trkpt>
      <trkpt lat="42.6163690" lon="1.3900440">
        <ele>1933.3</ele>
        <time>2021-08-12T16:59:45Z</time>
      </trkpt>
      <trkpt lat="42.6162240" lon="1.3900460">
        <ele>1936.2</ele>
        <time>2021-08-12T17:00:12Z</time>
      </trkpt>
      <trkpt lat="42.6162150" lon="1.3900550">
        <ele>1936.5</ele>
        <time>2021-08-12T17:00:14Z</time>
      </trkpt>
      <trkpt lat="42.6161670" lon="1.3900610">
        <ele>1937.4</ele>
        <time>2021-08-12T17:00:22Z</time>
      </trkpt>
      <trkpt lat="42.6160510" lon="1.3900930">
        <ele>1939.9</ele>
        <time>2021-08-12T17:00:42Z</time>
      </trkpt>
      <trkpt lat="42.6159560" lon="1.3900830">
        <ele>1941.8</ele>
        <time>2021-08-12T17:01:00Z</time>
      </trkpt>
      <trkpt lat="42.6159040" lon="1.3900980">
        <ele>1942.9</ele>
        <time>2021-08-12T17:01:11Z</time>
      </trkpt>
      <trkpt lat="42.6158600" lon="1.3901540">
        <ele>1944.1</ele>
        <time>2021-08-12T17:01:21Z</time>
      </trkpt>
      <trkpt lat="42.6158540" lon="1.3901600">
        <ele>1944.3</ele>
        <time>2021-08-12T17:01:22Z</time>
      </trkpt>
      <trkpt lat="42.6158160" lon="1.3901980">
        <ele>1945.2</ele>
        <time>2021-08-12T17:01:30Z</time>
      </trkpt>
      <trkpt lat="42.6158160" lon="1.3902050">
        <ele>1945.4</ele>
        <time>2021-08-12T17:01:35Z</time>
      </trkpt>
      <trkpt lat="42.6157990" lon="1.3902420">
        <ele>1946.0</ele>
        <time>2021-08-12T17:01:46Z</time>
      </trkpt>
      <trkpt lat="42.6157580" lon="1.3902500">
        <ele>1946.9</ele>
        <time>2021-08-12T17:01:56Z</time>
      </trkpt>
      <trkpt lat="42.6156970" lon="1.3903020">
        <ele>1948.3</ele>
        <time>2021-08-12T17:02:16Z</time>
      </trkpt>
      <trkpt lat="42.6156880" lon="1.3903080">
        <ele>1948.5</ele>
        <time>2021-08-12T17:02:18Z</time>
      </trkpt>
      <trkpt lat="42.6155930" lon="1.3903670">
        <ele>1950.7</ele>
        <time>2021-08-12T17:02:35Z</time>
      </trkpt>
      <trkpt lat="42.6155450" lon="1.3904070">
        <ele>1951.8</ele>
        <time>2021-08-12T17:02:48Z</time>
      </trkpt>
      <trkpt lat="42.6155440" lon="1.3904080">
        <ele>1951.8</ele>
        <time>2021-08-12T17:02:59Z</time>
      </trkpt>
      <trkpt lat="42.6154080" lon="1.3904430">
        <ele>1954.7</ele>
        <time>2021-08-12T17:03:27Z</time>
      </trkpt>
      <trkpt lat="42.6154060" lon="1.3904480">
        <ele>1954.8</ele>
        <time>2021-08-12T17:03:30Z</time>
      </trkpt>
      <trkpt lat="42.6154050" lon="1.3904490">
        <ele>1954.8</ele>
        <time>2021-08-12T17:03:32Z</time>
      </trkpt>
      <trkpt lat="42.6153520" lon="1.3904580">
        <ele>1955.9</ele>
        <time>2021-08-12T17:03:45Z</time>
      </trkpt>
      <trkpt lat="42.6152840" lon="1.3904900">
        <ele>1957.3</ele>
        <time>2021-08-12T17:04:03Z</time>
      </trkpt>
      <trkpt lat="42.6152590" lon="1.3905070">
        <ele>1957.9</ele>
        <time>2021-08-12T17:04:19Z</time>
      </trkpt>
      <trkpt lat="42.6152330" lon="1.3904930">
        <ele>1958.5</ele>
        <time>2021-08-12T17:04:32Z</time>
      </trkpt>
      <trkpt lat="42.6150740" lon="1.3905820">
        <ele>1962.0</ele>
        <time>2021-08-12T17:05:02Z</time>
      </trkpt>
      <trkpt lat="42.6150480" lon="1.3906270">
        <ele>1962.9</ele>
        <time>2021-08-12T17:05:09Z</time>
      </trkpt>
      <trkpt lat="42.6149260" lon="1.3906150">
        <ele>1965.4</ele>
        <time>2021-08-12T17:05:48Z</time>
      </trkpt>
      <trkpt lat="42.6148200" lon="1.3906980">
        <ele>1967.9</ele>
        <time>2021-08-12T17:06:43Z</time>
      </trkpt>
      <trkpt lat="42.6147700" lon="1.3907260">
        <ele>1969.0</ele>
        <time>2021-08-12T17:06:55Z</time>
      </trkpt>
      <trkpt lat="42.6147470" lon="1.3907190">
        <ele>1969.4</ele>
        <time>2021-08-12T17:07:01Z</time>
      </trkpt>
      <trkpt lat="42.6147310" lon="1.3907450">
        <ele>1970.0</ele>
        <time>2021-08-12T17:07:09Z</time>
      </trkpt>
      <trkpt lat="42.6145900" lon="1.3908450">
        <ele>1973.2</ele>
        <time>2021-08-12T17:08:03Z</time>
      </trkpt>
      <trkpt lat="42.6145800" lon="1.3908760">
        <ele>1973.7</ele>
        <time>2021-08-12T17:08:06Z</time>
      </trkpt>
      <trkpt lat="42.6145600" lon="1.3909150">
        <ele>1974.9</ele>
        <time>2021-08-12T17:08:12Z</time>
      </trkpt>
      <trkpt lat="42.6145270" lon="1.3909830">
        <ele>1980.5</ele>
        <time>2021-08-12T17:08:22Z</time>
      </trkpt>
      <trkpt lat="42.6145130" lon="1.3910240">
        <ele>1983.6</ele>
        <time>2021-08-12T17:08:26Z</time>
      </trkpt>
      <trkpt lat="42.6144250" lon="1.3912090">
        <ele>1988.6</ele>
        <time>2021-08-12T17:08:46Z</time>
      </trkpt>
      <trkpt lat="42.6144140" lon="1.3912220">
        <ele>1988.9</ele>
        <time>2021-08-12T17:08:48Z</time>
      </trkpt>
      <trkpt lat="42.6143410" lon="1.3912420">
        <ele>1990.1</ele>
        <time>2021-08-12T17:09:07Z</time>
      </trkpt>
      <trkpt lat="42.6143370" lon="1.3912520">
        <ele>1990.2</ele>
        <time>2021-08-12T17:09:13Z</time>
      </trkpt>
      <trkpt lat="42.6142990" lon="1.3913450">
        <ele>1991.2</ele>
        <time>2021-08-12T17:09:29Z</time>
      </trkpt>
      <trkpt lat="42.6142930" lon="1.3913590">
        <ele>1991.3</ele>
        <time>2021-08-12T17:09:31Z</time>
      </trkpt>
      <trkpt lat="42.6142130" lon="1.3914620">
        <ele>1992.5</ele>
        <time>2021-08-12T17:09:44Z</time>
      </trkpt>
      <trkpt lat="42.6141010" lon="1.3916200">
        <ele>1995.5</ele>
        <time>2021-08-12T17:10:17Z</time>
      </trkpt>
      <trkpt lat="42.6139700" lon="1.3917860">
        <ele>1999.8</ele>
        <time>2021-08-12T17:10:50Z</time>
      </trkpt>
      <trkpt lat="42.6138300" lon="1.3919170">
        <ele>2004.2</ele>
        <time>2021-08-12T17:11:42Z</time>
      </trkpt>
      <trkpt lat="42.6138180" lon="1.3919330">
        <ele>2004.6</ele>
        <time>2021-08-12T17:11:50Z</time>
      </trkpt>
      <trkpt lat="42.6137800" lon="1.3920240">
        <ele>2006.3</ele>
        <time>2021-08-12T17:12:15Z</time>
      </trkpt>
      <trkpt lat="42.6137430" lon="1.3920800">
        <ele>2007.4</ele>
        <time>2021-08-12T17:12:37Z</time>
      </trkpt>
      <trkpt lat="42.6135740" lon="1.3921470">
        <ele>2010.1</ele>
        <time>2021-08-12T17:13:14Z</time>
      </trkpt>
      <trkpt lat="42.6134740" lon="1.3922180">
        <ele>2011.7</ele>
        <time>2021-08-12T17:13:33Z</time>
      </trkpt>
      <trkpt lat="42.6132960" lon="1.3922520">
        <ele>2015.0</ele>
        <time>2021-08-12T17:14:07Z</time>
      </trkpt>
      <trkpt lat="42.6132240" lon="1.3922520">
        <ele>2016.4</ele>
        <time>2021-08-12T17:14:20Z</time>
      </trkpt>
      <trkpt lat="42.6130580" lon="1.3923350">
        <ele>2018.9</ele>
        <time>2021-08-12T17:14:53Z</time>
      </trkpt>
      <trkpt lat="42.6130470" lon="1.3923970">
        <ele>2019.4</ele>
        <time>2021-08-12T17:15:02Z</time>
      </trkpt>
      <trkpt lat="42.6130290" lon="1.3924490">
        <ele>2019.7</ele>
        <time>2021-08-12T17:15:08Z</time>
      </trkpt>
      <trkpt lat="42.6130040" lon="1.3924900">
        <ele>2019.9</ele>
        <time>2021-08-12T17:15:13Z</time>
      </trkpt>
      <trkpt lat="42.6130020" lon="1.3924980">
        <ele>2019.9</ele>
        <time>2021-08-12T17:15:14Z</time>
      </trkpt>
      <trkpt lat="42.6129940" lon="1.3925130">
        <ele>2020.0</ele>
        <time>2021-08-12T17:15:16Z</time>
      </trkpt>
      <trkpt lat="42.6129970" lon="1.3925540">
        <ele>2020.2</ele>
        <time>2021-08-12T17:15:20Z</time>
      </trkpt>
      <trkpt lat="42.6129950" lon="1.3925780">
        <ele>2020.2</ele>
        <time>2021-08-12T17:15:22Z</time>
      </trkpt>
      <trkpt lat="42.6129940" lon="1.3926640">
        <ele>2020.5</ele>
        <time>2021-08-12T17:15:30Z</time>
      </trkpt>
      <trkpt lat="42.6129850" lon="1.3927180">
        <ele>2020.6</ele>
        <time>2021-08-12T17:15:34Z</time>
      </trkpt>
      <trkpt lat="42.6129780" lon="1.3927430">
        <ele>2020.6</ele>
        <time>2021-08-12T17:15:36Z</time>
      </trkpt>
      <trkpt lat="42.6129810" lon="1.3927720">
        <ele>2020.7</ele>
        <time>2021-08-12T17:15:38Z</time>
      </trkpt>
      <trkpt lat="42.6129040" lon="1.3929930">
        <ele>2020.8</ele>
        <time>2021-08-12T17:15:56Z</time>
      </trkpt>
      <trkpt lat="42.6128320" lon="1.3931210">
        <ele>2020.5</ele>
        <time>2021-08-12T17:16:07Z</time>
      </trkpt>
      <trkpt lat="42.6127690" lon="1.3932300">
        <ele>2020.2</ele>
        <time>2021-08-12T17:16:16Z</time>
      </trkpt>
      <trkpt lat="42.6127470" lon="1.3932690">
        <ele>2020.0</ele>
        <time>2021-08-12T17:16:20Z</time>
      </trkpt>
      <trkpt lat="42.6127040" lon="1.3933570">
        <ele>2019.7</ele>
        <time>2021-08-12T17:16:27Z</time>
      </trkpt>
      <trkpt lat="42.6126580" lon="1.3934440">
        <ele>2019.4</ele>
        <time>2021-08-12T17:16:34Z</time>
      </trkpt>
      <trkpt lat="42.6125650" lon="1.3935760">
        <ele>2019.0</ele>
        <time>2021-08-12T17:16:48Z</time>
      </trkpt>
      <trkpt lat="42.6125020" lon="1.3937420">
        <ele>2019.0</ele>
        <time>2021-08-12T17:17:01Z</time>
      </trkpt>
      <trkpt lat="42.6125390" lon="1.3939910">
        <ele>2019.1</ele>
        <time>2021-08-12T17:17:19Z</time>
      </trkpt>
      <trkpt lat="42.6125440" lon="1.3940480">
        <ele>2019.1</ele>
        <time>2021-08-12T17:17:24Z</time>
      </trkpt>
      <trkpt lat="42.6124280" lon="1.3941750">
        <ele>2019.7</ele>
        <time>2021-08-12T17:17:45Z</time>
      </trkpt>
      <trkpt lat="42.6123990" lon="1.3942050">
        <ele>2019.9</ele>
        <time>2021-08-12T17:17:48Z</time>
      </trkpt>
      <trkpt lat="42.6123950" lon="1.3942300">
        <ele>2020.0</ele>
        <time>2021-08-12T17:17:50Z</time>
      </trkpt>
      <trkpt lat="42.6123690" lon="1.3943430">
        <ele>2020.5</ele>
        <time>2021-08-12T17:18:01Z</time>
      </trkpt>
      <trkpt lat="42.6123580" lon="1.3945890">
        <ele>2021.2</ele>
        <time>2021-08-12T17:18:26Z</time>
      </trkpt>
      <trkpt lat="42.6123310" lon="1.3947100">
        <ele>2021.5</ele>
        <time>2021-08-12T17:18:35Z</time>
      </trkpt>
      <trkpt lat="42.6123110" lon="1.3949560">
        <ele>2021.7</ele>
        <time>2021-08-12T17:18:54Z</time>
      </trkpt>
      <trkpt lat="42.6123340" lon="1.3950300">
        <ele>2021.7</ele>
        <time>2021-08-12T17:19:00Z</time>
      </trkpt>
      <trkpt lat="42.6123200" lon="1.3951220">
        <ele>2021.6</ele>
        <time>2021-08-12T17:19:09Z</time>
      </trkpt>
      <trkpt lat="42.6123070" lon="1.3951490">
        <ele>2021.6</ele>
        <time>2021-08-12T17:19:11Z</time>
      </trkpt>
      <trkpt lat="42.6122500" lon="1.3953810">
        <ele>2021.7</ele>
        <time>2021-08-12T17:19:31Z</time>
      </trkpt>
      <trkpt lat="42.6122460" lon="1.3954280">
        <ele>2021.7</ele>
        <time>2021-08-12T17:19:35Z</time>
      </trkpt>
      <trkpt lat="42.6121950" lon="1.3956620">
        <ele>2021.3</ele>
        <time>2021-08-12T17:19:54Z</time>
      </trkpt>
      <trkpt lat="42.6121640" lon="1.3957690">
        <ele>2020.9</ele>
        <time>2021-08-12T17:20:07Z</time>
      </trkpt>
      <trkpt lat="42.6121320" lon="1.3958050">
        <ele>2020.8</ele>
        <time>2021-08-12T17:20:15Z</time>
      </trkpt>
      <trkpt lat="42.6120490" lon="1.3959550">
        <ele>2020.3</ele>
        <time>2021-08-12T17:20:32Z</time>
      </trkpt>
      <trkpt lat="42.6120290" lon="1.3960020">
        <ele>2020.2</ele>
        <time>2021-08-12T17:20:42Z</time>
      </trkpt>
      <trkpt lat="42.6119950" lon="1.3961400">
        <ele>2020.0</ele>
        <time>2021-08-12T17:21:16Z</time>
      </trkpt>
      <trkpt lat="42.6120420" lon="1.3962910">
        <ele>2019.8</ele>
        <time>2021-08-12T17:21:49Z</time>
      </trkpt>
      <trkpt lat="42.6120590" lon="1.3962960">
        <ele>2019.5</ele>
        <time>2021-08-12T17:21:50Z</time>
      </trkpt>
      <trkpt lat="42.6120740" lon="1.3963030">
        <ele>2019.5</ele>
        <time>2021-08-12T17:21:51Z</time>
      </trkpt>
      <trkpt lat="42.6121340" lon="1.3963430">
        <ele>2019.5</ele>
        <time>2021-08-12T17:21:57Z</time>
      </trkpt>
      <trkpt lat="42.6121340" lon="1.3963510">
        <ele>2019.3</ele>
        <time>2021-08-12T17:22:00Z</time>
      </trkpt>
      <trkpt lat="42.6121460" lon="1.3965820">
        <ele>2019.1</ele>
        <time>2021-08-12T17:22:22Z</time>
      </trkpt>
      <trkpt lat="42.6120570" lon="1.3965600">
        <ele>2019.0</ele>
        <time>2021-08-12T17:22:56Z</time>
      </trkpt>
      <trkpt lat="42.6119770" lon="1.3965750">
        <ele>2018.9</ele>
        <time>2021-08-12T17:23:29Z</time>
      </trkpt>
      <trkpt lat="42.6119760" lon="1.3965780">
        <ele>2018.9</ele>
        <time>2021-08-12T17:23:37Z</time>
      </trkpt>
      <trkpt lat="42.6119740" lon="1.3965600">
        <ele>2018.9</ele>
        <time>2021-08-12T17:23:55Z</time>
      </trkpt>
      <trkpt lat="42.6119730" lon="1.3965630">
        <ele>2018.9</ele>
        <time>2021-08-12T17:23:59Z</time>
      </trkpt>
      <trkpt lat="42.6119690" lon="1.3965720">
        <ele>2018.9</ele>
        <time>2021-08-12T17:24:13Z</time>
      </trkpt>
      <trkpt lat="42.6119650" lon="1.3965740">
        <ele>2018.9</ele>
        <time>2021-08-12T17:24:17Z</time>
      </trkpt>
      <trkpt lat="42.6119650" lon="1.3965750">
        <ele>2018.9</ele>
        <time>2021-08-12T17:24:18Z</time>
      </trkpt>
      <trkpt lat="42.6119650" lon="1.3965750">
        <ele>2018.9</ele>
        <time>2021-08-12T17:24:19Z</time>
      </trkpt>
      <trkpt lat="42.6119650" lon="1.3965770">
        <ele>2018.9</ele>
        <time>2021-08-12T17:24:24Z</time>
      </trkpt>
      <trkpt lat="42.6119630" lon="1.3966010">
        <ele>2018.9</ele>
        <time>2021-08-12T17:24:36Z</time>
      </trkpt>
      <trkpt lat="42.6119690" lon="1.3966000">
        <ele>2018.9</ele>
        <time>2021-08-12T17:24:39Z</time>
      </trkpt>
      <trkpt lat="42.6119690" lon="1.3966180">
        <ele>2018.9</ele>
        <time>2021-08-12T17:25:02Z</time>
      </trkpt>
      <trkpt lat="42.6119710" lon="1.3966200">
        <ele>2018.9</ele>
        <time>2021-08-12T17:25:03Z</time>
      </trkpt>
      <trkpt lat="42.6119780" lon="1.3966250">
        <ele>2018.9</ele>
        <time>2021-08-12T17:25:14Z</time>
      </trkpt>
      <trkpt lat="42.6119780" lon="1.3966270">
        <ele>2018.9</ele>
        <time>2021-08-12T17:25:15Z</time>
      </trkpt>
      <trkpt lat="42.6119820" lon="1.3966140">
        <ele>2018.8</ele>
        <time>2021-08-12T17:25:21Z</time>
      </trkpt>
      <trkpt lat="42.6119060" lon="1.3964990">
        <ele>2019.8</ele>
        <time>2021-08-13T04:39:18Z</time>
      </trkpt>
      <trkpt lat="42.6119120" lon="1.3965050">
        <ele>2019.5</ele>
        <time>2021-08-13T04:39:19Z</time>
      </trkpt>
      <trkpt lat="42.6120050" lon="1.3965910">
        <ele>2019.5</ele>
        <time>2021-08-13T04:39:33Z</time>
      </trkpt>
      <trkpt lat="42.6120580" lon="1.3965560">
        <ele>2019.5</ele>
        <time>2021-08-13T04:39:40Z</time>
      </trkpt>
      <trkpt lat="42.6120600" lon="1.3965190">
        <ele>2019.5</ele>
        <time>2021-08-13T04:39:43Z</time>
      </trkpt>
      <trkpt lat="42.6120360" lon="1.3964330">
        <ele>2019.5</ele>
        <time>2021-08-13T04:39:50Z</time>
      </trkpt>
      <trkpt lat="42.6119980" lon="1.3963070">
        <ele>2019.5</ele>
        <time>2021-08-13T04:40:02Z</time>
      </trkpt>
      <trkpt lat="42.6119620" lon="1.3962600">
        <ele>2019.8</ele>
        <time>2021-08-13T04:40:09Z</time>
      </trkpt>
      <trkpt lat="42.6119420" lon="1.3962580">
        <ele>2019.8</ele>
        <time>2021-08-13T04:40:11Z</time>
      </trkpt>
      <trkpt lat="42.6119060" lon="1.3962590">
        <ele>2019.8</ele>
        <time>2021-08-13T04:40:14Z</time>
      </trkpt>
      <trkpt lat="42.6118770" lon="1.3962700">
        <ele>2020.0</ele>
        <time>2021-08-13T04:40:17Z</time>
      </trkpt>
      <trkpt lat="42.6118070" lon="1.3963520">
        <ele>2020.1</ele>
        <time>2021-08-13T04:40:34Z</time>
      </trkpt>
      <trkpt lat="42.6117070" lon="1.3964320">
        <ele>2020.3</ele>
        <time>2021-08-13T04:40:57Z</time>
      </trkpt>
      <trkpt lat="42.6115670" lon="1.3965360">
        <ele>2020.5</ele>
        <time>2021-08-13T04:41:23Z</time>
      </trkpt>
      <trkpt lat="42.6114720" lon="1.3966500">
        <ele>2020.7</ele>
        <time>2021-08-13T04:41:56Z</time>
      </trkpt>
      <trkpt lat="42.6114360" lon="1.3967300">
        <ele>2020.7</ele>
        <time>2021-08-13T04:42:11Z</time>
      </trkpt>
      <trkpt lat="42.6114320" lon="1.3967250">
        <ele>2020.7</ele>
        <time>2021-08-13T04:42:12Z</time>
      </trkpt>
      <trkpt lat="42.6114170" lon="1.3967310">
        <ele>2020.7</ele>
        <time>2021-08-13T04:42:16Z</time>
      </trkpt>
      <trkpt lat="42.6114010" lon="1.3967340">
        <ele>2020.6</ele>
        <time>2021-08-13T04:42:19Z</time>
      </trkpt>
      <trkpt lat="42.6113920" lon="1.3967590">
        <ele>2020.6</ele>
        <time>2021-08-13T04:42:22Z</time>
      </trkpt>
      <trkpt lat="42.6113730" lon="1.3967900">
        <ele>2020.6</ele>
        <time>2021-08-13T04:42:26Z</time>
      </trkpt>
      <trkpt lat="42.6112790" lon="1.3969870">
        <ele>2020.6</ele>
        <time>2021-08-13T04:42:48Z</time>
      </trkpt>
      <trkpt lat="42.6112660" lon="1.3970170">
        <ele>2020.7</ele>
        <time>2021-08-13T04:42:52Z</time>
      </trkpt>
      <trkpt lat="42.6112540" lon="1.3970740">
        <ele>2020.7</ele>
        <time>2021-08-13T04:42:58Z</time>
      </trkpt>
      <trkpt lat="42.6112600" lon="1.3972970">
        <ele>2020.7</ele>
        <time>2021-08-13T04:43:25Z</time>
      </trkpt>
      <trkpt lat="42.6112670" lon="1.3974500">
        <ele>2020.8</ele>
        <time>2021-08-13T04:43:38Z</time>
      </trkpt>
      <trkpt lat="42.6112770" lon="1.3974790">
        <ele>2020.8</ele>
        <time>2021-08-13T04:43:41Z</time>
      </trkpt>
      <trkpt lat="42.6113130" lon="1.3975810">
        <ele>2021.0</ele>
        <time>2021-08-13T04:43:50Z</time>
      </trkpt>
      <trkpt lat="42.6113160" lon="1.3975920">
        <ele>2021.0</ele>
        <time>2021-08-13T04:43:51Z</time>
      </trkpt>
      <trkpt lat="42.6113160" lon="1.3976140">
        <ele>2021.1</ele>
        <time>2021-08-13T04:43:53Z</time>
      </trkpt>
      <trkpt lat="42.6113130" lon="1.3976250">
        <ele>2021.1</ele>
        <time>2021-08-13T04:43:54Z</time>
      </trkpt>
      <trkpt lat="42.6113120" lon="1.3976390">
        <ele>2021.1</ele>
        <time>2021-08-13T04:43:55Z</time>
      </trkpt>
      <trkpt lat="42.6113190" lon="1.3976700">
        <ele>2021.2</ele>
        <time>2021-08-13T04:43:58Z</time>
      </trkpt>
      <trkpt lat="42.6113240" lon="1.3976810">
        <ele>2021.3</ele>
        <time>2021-08-13T04:43:59Z</time>
      </trkpt>
      <trkpt lat="42.6113310" lon="1.3976910">
        <ele>2021.3</ele>
        <time>2021-08-13T04:44:00Z</time>
      </trkpt>
      <trkpt lat="42.6113380" lon="1.3977100">
        <ele>2021.4</ele>
        <time>2021-08-13T04:44:02Z</time>
      </trkpt>
      <trkpt lat="42.6114770" lon="1.3978610">
        <ele>2023.1</ele>
        <time>2021-08-13T04:44:27Z</time>
      </trkpt>
      <trkpt lat="42.6114990" lon="1.3979230">
        <ele>2023.8</ele>
        <time>2021-08-13T04:44:37Z</time>
      </trkpt>
      <trkpt lat="42.6114940" lon="1.3981650">
        <ele>2026.8</ele>
        <time>2021-08-13T04:45:04Z</time>
      </trkpt>
      <trkpt lat="42.6114770" lon="1.3983310">
        <ele>2028.7</ele>
        <time>2021-08-13T04:45:18Z</time>
      </trkpt>
      <trkpt lat="42.6114330" lon="1.3984380">
        <ele>2030.3</ele>
        <time>2021-08-13T04:45:33Z</time>
      </trkpt>
      <trkpt lat="42.6114330" lon="1.3985170">
        <ele>2031.6</ele>
        <time>2021-08-13T04:45:49Z</time>
      </trkpt>
      <trkpt lat="42.6114670" lon="1.3987320">
        <ele>2035.6</ele>
        <time>2021-08-13T04:46:23Z</time>
      </trkpt>
      <trkpt lat="42.6114690" lon="1.3989680">
        <ele>2039.1</ele>
        <time>2021-08-13T04:46:51Z</time>
      </trkpt>
      <trkpt lat="42.6114870" lon="1.3990270">
        <ele>2039.7</ele>
        <time>2021-08-13T04:47:01Z</time>
      </trkpt>
      <trkpt lat="42.6115790" lon="1.3992210">
        <ele>2041.2</ele>
        <time>2021-08-13T04:47:26Z</time>
      </trkpt>
      <trkpt lat="42.6116200" lon="1.3993930">
        <ele>2042.2</ele>
        <time>2021-08-13T04:47:48Z</time>
      </trkpt>
      <trkpt lat="42.6115780" lon="1.3996280">
        <ele>2044.9</ele>
        <time>2021-08-13T04:48:16Z</time>
      </trkpt>
      <trkpt lat="42.6115490" lon="1.3997520">
        <ele>2046.4</ele>
        <time>2021-08-13T04:48:32Z</time>
      </trkpt>
      <trkpt lat="42.6115120" lon="1.3998690">
        <ele>2047.9</ele>
        <time>2021-08-13T04:48:59Z</time>
      </trkpt>
      <trkpt lat="42.6116760" lon="1.3999680">
        <ele>2050.7</ele>
        <time>2021-08-13T04:49:17Z</time>
      </trkpt>
      <trkpt lat="42.6117900" lon="1.4001490">
        <ele>2053.4</ele>
        <time>2021-08-13T04:49:47Z</time>
      </trkpt>
      <trkpt lat="42.6118530" lon="1.4001650">
        <ele>2054.4</ele>
        <time>2021-08-13T04:49:54Z</time>
      </trkpt>
      <trkpt lat="42.6119890" lon="1.4002460">
        <ele>2056.7</ele>
        <time>2021-08-13T04:50:19Z</time>
      </trkpt>
      <trkpt lat="42.6120330" lon="1.4004710">
        <ele>2059.4</ele>
        <time>2021-08-13T04:50:54Z</time>
      </trkpt>
      <trkpt lat="42.6120410" lon="1.4005140">
        <ele>2059.9</ele>
        <time>2021-08-13T04:51:00Z</time>
      </trkpt>
      <trkpt lat="42.6120600" lon="1.4007220">
        <ele>2062.3</ele>
        <time>2021-08-13T04:51:32Z</time>
      </trkpt>
      <trkpt lat="42.6120420" lon="1.4009470">
        <ele>2064.9</ele>
        <time>2021-08-13T04:52:12Z</time>
      </trkpt>
      <trkpt lat="42.6120110" lon="1.4011090">
        <ele>2066.8</ele>
        <time>2021-08-13T04:52:57Z</time>
      </trkpt>
      <trkpt lat="42.6120230" lon="1.4011330">
        <ele>2067.1</ele>
        <time>2021-08-13T04:53:04Z</time>
      </trkpt>
      <trkpt lat="42.6120110" lon="1.4011610">
        <ele>2067.5</ele>
        <time>2021-08-13T04:53:12Z</time>
      </trkpt>
      <trkpt lat="42.6120430" lon="1.4012920">
        <ele>2069.1</ele>
        <time>2021-08-13T04:53:32Z</time>
      </trkpt>
      <trkpt lat="42.6120590" lon="1.4013920">
        <ele>2070.3</ele>
        <time>2021-08-13T04:57:09Z</time>
      </trkpt>
      <trkpt lat="42.6120610" lon="1.4013960">
        <ele>2070.3</ele>
        <time>2021-08-13T04:57:10Z</time>
      </trkpt>
      <trkpt lat="42.6120550" lon="1.4015120">
        <ele>2071.6</ele>
        <time>2021-08-13T04:57:27Z</time>
      </trkpt>
      <trkpt lat="42.6120680" lon="1.4015380">
        <ele>2072.0</ele>
        <time>2021-08-13T04:57:31Z</time>
      </trkpt>
      <trkpt lat="42.6120710" lon="1.4015500">
        <ele>2072.2</ele>
        <time>2021-08-13T04:57:33Z</time>
      </trkpt>
      <trkpt lat="42.6120730" lon="1.4015640">
        <ele>2072.3</ele>
        <time>2021-08-13T04:57:35Z</time>
      </trkpt>
      <trkpt lat="42.6120730" lon="1.4015670">
        <ele>2072.3</ele>
        <time>2021-08-13T04:57:36Z</time>
      </trkpt>
      <trkpt lat="42.6120860" lon="1.4016170">
        <ele>2073.0</ele>
        <time>2021-08-13T04:57:45Z</time>
      </trkpt>
      <trkpt lat="42.6120830" lon="1.4016410">
        <ele>2073.2</ele>
        <time>2021-08-13T04:57:47Z</time>
      </trkpt>
      <trkpt lat="42.6120860" lon="1.4016600">
        <ele>2073.5</ele>
        <time>2021-08-13T04:57:49Z</time>
      </trkpt>
      <trkpt lat="42.6120880" lon="1.4016690">
        <ele>2073.6</ele>
        <time>2021-08-13T04:57:50Z</time>
      </trkpt>
      <trkpt lat="42.6120870" lon="1.4017010">
        <ele>2073.9</ele>
        <time>2021-08-13T04:57:54Z</time>
      </trkpt>
      <trkpt lat="42.6120850" lon="1.4017310">
        <ele>2074.3</ele>
        <time>2021-08-13T04:57:59Z</time>
      </trkpt>
      <trkpt lat="42.6120760" lon="1.4017610">
        <ele>2074.7</ele>
        <time>2021-08-13T04:58:03Z</time>
      </trkpt>
      <trkpt lat="42.6120740" lon="1.4017670">
        <ele>2074.7</ele>
        <time>2021-08-13T04:58:04Z</time>
      </trkpt>
      <trkpt lat="42.6120760" lon="1.4017730">
        <ele>2074.8</ele>
        <time>2021-08-13T04:58:05Z</time>
      </trkpt>
      <trkpt lat="42.6120820" lon="1.4018000">
        <ele>2075.1</ele>
        <time>2021-08-13T04:58:08Z</time>
      </trkpt>
      <trkpt lat="42.6120790" lon="1.4018120">
        <ele>2075.3</ele>
        <time>2021-08-13T04:58:09Z</time>
      </trkpt>
      <trkpt lat="42.6120770" lon="1.4018240">
        <ele>2075.4</ele>
        <time>2021-08-13T04:58:10Z</time>
      </trkpt>
      <trkpt lat="42.6120790" lon="1.4018330">
        <ele>2075.5</ele>
        <time>2021-08-13T04:58:11Z</time>
      </trkpt>
      <trkpt lat="42.6120810" lon="1.4018410">
        <ele>2075.6</ele>
        <time>2021-08-13T04:58:12Z</time>
      </trkpt>
      <trkpt lat="42.6120930" lon="1.4018620">
        <ele>2075.9</ele>
        <time>2021-08-13T04:58:14Z</time>
      </trkpt>
      <trkpt lat="42.6121340" lon="1.4020080">
        <ele>2077.7</ele>
        <time>2021-08-13T04:58:34Z</time>
      </trkpt>
      <trkpt lat="42.6121380" lon="1.4020390">
        <ele>2078.1</ele>
        <time>2021-08-13T04:58:37Z</time>
      </trkpt>
      <trkpt lat="42.6120790" lon="1.4022630">
        <ele>2080.8</ele>
        <time>2021-08-13T04:59:03Z</time>
      </trkpt>
      <trkpt lat="42.6120350" lon="1.4023840">
        <ele>2082.3</ele>
        <time>2021-08-13T04:59:16Z</time>
      </trkpt>
      <trkpt lat="42.6119850" lon="1.4025630">
        <ele>2084.5</ele>
        <time>2021-08-13T04:59:33Z</time>
      </trkpt>
      <trkpt lat="42.6119590" lon="1.4025930">
        <ele>2085.1</ele>
        <time>2021-08-13T04:59:37Z</time>
      </trkpt>
      <trkpt lat="42.6119930" lon="1.4028350">
        <ele>2087.9</ele>
        <time>2021-08-13T05:00:04Z</time>
      </trkpt>
      <trkpt lat="42.6120210" lon="1.4029350">
        <ele>2089.1</ele>
        <time>2021-08-13T05:00:14Z</time>
      </trkpt>
      <trkpt lat="42.6119570" lon="1.4031030">
        <ele>2091.3</ele>
        <time>2021-08-13T05:00:41Z</time>
      </trkpt>
      <trkpt lat="42.6118490" lon="1.4032260">
        <ele>2093.5</ele>
        <time>2021-08-13T05:01:11Z</time>
      </trkpt>
      <trkpt lat="42.6117920" lon="1.4034550">
        <ele>2096.3</ele>
        <time>2021-08-13T05:01:38Z</time>
      </trkpt>
      <trkpt lat="42.6117940" lon="1.4036970">
        <ele>2099.0</ele>
        <time>2021-08-13T05:02:04Z</time>
      </trkpt>
      <trkpt lat="42.6117060" lon="1.4038090">
        <ele>2100.9</ele>
        <time>2021-08-13T05:02:23Z</time>
      </trkpt>
      <trkpt lat="42.6115950" lon="1.4039850">
        <ele>2103.6</ele>
        <time>2021-08-13T05:02:52Z</time>
      </trkpt>
      <trkpt lat="42.6114970" lon="1.4041790">
        <ele>2106.3</ele>
        <time>2021-08-13T05:03:21Z</time>
      </trkpt>
      <trkpt lat="42.6115010" lon="1.4042840">
        <ele>2107.5</ele>
        <time>2021-08-13T05:03:30Z</time>
      </trkpt>
      <trkpt lat="42.6114210" lon="1.4044860">
        <ele>2110.1</ele>
        <time>2021-08-13T05:04:01Z</time>
      </trkpt>
      <trkpt lat="42.6113210" lon="1.4046700">
        <ele>2112.7</ele>
        <time>2021-08-13T05:04:42Z</time>
      </trkpt>
      <trkpt lat="42.6113210" lon="1.4046970">
        <ele>2113.0</ele>
        <time>2021-08-13T05:04:46Z</time>
      </trkpt>
      <trkpt lat="42.6112600" lon="1.4048450">
        <ele>2115.0</ele>
        <time>2021-08-13T05:05:12Z</time>
      </trkpt>
      <trkpt lat="42.6112350" lon="1.4048980">
        <ele>2115.7</ele>
        <time>2021-08-13T05:05:27Z</time>
      </trkpt>
      <trkpt lat="42.6112210" lon="1.4048930">
        <ele>2115.9</ele>
        <time>2021-08-13T05:05:30Z</time>
      </trkpt>
      <trkpt lat="42.6111390" lon="1.4049660">
        <ele>2117.4</ele>
        <time>2021-08-13T05:06:07Z</time>
      </trkpt>
      <trkpt lat="42.6111270" lon="1.4051290">
        <ele>2119.3</ele>
        <time>2021-08-13T05:07:14Z</time>
      </trkpt>
      <trkpt lat="42.6110780" lon="1.4051440">
        <ele>2120.1</ele>
        <time>2021-08-13T05:07:23Z</time>
      </trkpt>
      <trkpt lat="42.6110310" lon="1.4051880">
        <ele>2121.0</ele>
        <time>2021-08-13T05:07:31Z</time>
      </trkpt>
      <trkpt lat="42.6110210" lon="1.4052170">
        <ele>2121.4</ele>
        <time>2021-08-13T05:07:36Z</time>
      </trkpt>
      <trkpt lat="42.6109970" lon="1.4052430">
        <ele>2121.8</ele>
        <time>2021-08-13T05:07:39Z</time>
      </trkpt>
      <trkpt lat="42.6109870" lon="1.4052460">
        <ele>2122.0</ele>
        <time>2021-08-13T05:07:40Z</time>
      </trkpt>
      <trkpt lat="42.6109710" lon="1.4052420">
        <ele>2122.2</ele>
        <time>2021-08-13T05:07:41Z</time>
      </trkpt>
      <trkpt lat="42.6109570" lon="1.4052460">
        <ele>2122.5</ele>
        <time>2021-08-13T05:07:42Z</time>
      </trkpt>
      <trkpt lat="42.6109360" lon="1.4052550">
        <ele>2122.8</ele>
        <time>2021-08-13T05:07:44Z</time>
      </trkpt>
      <trkpt lat="42.6109150" lon="1.4052600">
        <ele>2123.1</ele>
        <time>2021-08-13T05:07:46Z</time>
      </trkpt>
      <trkpt lat="42.6109030" lon="1.4052640">
        <ele>2123.3</ele>
        <time>2021-08-13T05:07:47Z</time>
      </trkpt>
      <trkpt lat="42.6108950" lon="1.4052660">
        <ele>2123.5</ele>
        <time>2021-08-13T05:07:48Z</time>
      </trkpt>
      <trkpt lat="42.6108890" lon="1.4052720">
        <ele>2123.6</ele>
        <time>2021-08-13T05:07:49Z</time>
      </trkpt>
      <trkpt lat="42.6108830" lon="1.4052880">
        <ele>2123.8</ele>
        <time>2021-08-13T05:07:51Z</time>
      </trkpt>
      <trkpt lat="42.6108630" lon="1.4053240">
        <ele>2124.3</ele>
        <time>2021-08-13T05:07:55Z</time>
      </trkpt>
      <trkpt lat="42.6108550" lon="1.4053540">
        <ele>2124.7</ele>
        <time>2021-08-13T05:07:58Z</time>
      </trkpt>
      <trkpt lat="42.6108470" lon="1.4053730">
        <ele>2124.9</ele>
        <time>2021-08-13T05:08:00Z</time>
      </trkpt>
      <trkpt lat="42.6108170" lon="1.4054040">
        <ele>2125.5</ele>
        <time>2021-08-13T05:08:04Z</time>
      </trkpt>
      <trkpt lat="42.6107850" lon="1.4056610">
        <ele>2128.5</ele>
        <time>2021-08-13T05:08:27Z</time>
      </trkpt>
      <trkpt lat="42.6107410" lon="1.4056950">
        <ele>2129.3</ele>
        <time>2021-08-13T05:08:33Z</time>
      </trkpt>
      <trkpt lat="42.6107110" lon="1.4057060">
        <ele>2129.8</ele>
        <time>2021-08-13T05:08:39Z</time>
      </trkpt>
      <trkpt lat="42.6106500" lon="1.4057000">
        <ele>2130.7</ele>
        <time>2021-08-13T05:08:49Z</time>
      </trkpt>
      <trkpt lat="42.6106070" lon="1.4057350">
        <ele>2131.5</ele>
        <time>2021-08-13T05:08:54Z</time>
      </trkpt>
      <trkpt lat="42.6105280" lon="1.4057890">
        <ele>2132.9</ele>
        <time>2021-08-13T05:09:07Z</time>
      </trkpt>
      <trkpt lat="42.6104780" lon="1.4058240">
        <ele>2133.8</ele>
        <time>2021-08-13T05:09:18Z</time>
      </trkpt>
      <trkpt lat="42.6104240" lon="1.4058730">
        <ele>2134.8</ele>
        <time>2021-08-13T05:09:27Z</time>
      </trkpt>
      <trkpt lat="42.6103910" lon="1.4059290">
        <ele>2135.6</ele>
        <time>2021-08-13T05:09:37Z</time>
      </trkpt>
      <trkpt lat="42.6103650" lon="1.4059890">
        <ele>2136.4</ele>
        <time>2021-08-13T05:09:46Z</time>
      </trkpt>
      <trkpt lat="42.6103190" lon="1.4060520">
        <ele>2137.4</ele>
        <time>2021-08-13T05:10:05Z</time>
      </trkpt>
      <trkpt lat="42.6102210" lon="1.4061700">
        <ele>2139.4</ele>
        <time>2021-08-13T05:10:50Z</time>
      </trkpt>
      <trkpt lat="42.6101480" lon="1.4064080">
        <ele>2142.4</ele>
        <time>2021-08-13T05:11:09Z</time>
      </trkpt>
      <trkpt lat="42.6100860" lon="1.4065490">
        <ele>2144.3</ele>
        <time>2021-08-13T05:11:21Z</time>
      </trkpt>
      <trkpt lat="42.6100770" lon="1.4065870">
        <ele>2144.7</ele>
        <time>2021-08-13T05:11:24Z</time>
      </trkpt>
      <trkpt lat="42.6100750" lon="1.4067310">
        <ele>2146.4</ele>
        <time>2021-08-13T05:11:34Z</time>
      </trkpt>
      <trkpt lat="42.6100100" lon="1.4069030">
        <ele>2148.6</ele>
        <time>2021-08-13T05:11:48Z</time>
      </trkpt>
      <trkpt lat="42.6099320" lon="1.4069770">
        <ele>2150.1</ele>
        <time>2021-08-13T05:11:59Z</time>
      </trkpt>
      <trkpt lat="42.6099280" lon="1.4071160">
        <ele>2151.7</ele>
        <time>2021-08-13T05:12:19Z</time>
      </trkpt>
      <trkpt lat="42.6099730" lon="1.4072480">
        <ele>2153.3</ele>
        <time>2021-08-13T05:12:31Z</time>
      </trkpt>
      <trkpt lat="42.6099890" lon="1.4074930">
        <ele>2156.2</ele>
        <time>2021-08-13T05:12:53Z</time>
      </trkpt>
      <trkpt lat="42.6100500" lon="1.4076810">
        <ele>2158.5</ele>
        <time>2021-08-13T05:13:29Z</time>
      </trkpt>
      <trkpt lat="42.6101170" lon="1.4078960">
        <ele>2161.2</ele>
        <time>2021-08-13T05:13:52Z</time>
      </trkpt>
      <trkpt lat="42.6101390" lon="1.4079600">
        <ele>2162.0</ele>
        <time>2021-08-13T05:13:58Z</time>
      </trkpt>
      <trkpt lat="42.6101430" lon="1.4082120">
        <ele>2164.9</ele>
        <time>2021-08-13T05:14:19Z</time>
      </trkpt>
      <trkpt lat="42.6102150" lon="1.4084400">
        <ele>2167.7</ele>
        <time>2021-08-13T05:14:39Z</time>
      </trkpt>
      <trkpt lat="42.6102350" lon="1.4084980">
        <ele>2168.5</ele>
        <time>2021-08-13T05:14:44Z</time>
      </trkpt>
      <trkpt lat="42.6102380" lon="1.4085100">
        <ele>2168.6</ele>
        <time>2021-08-13T05:14:45Z</time>
      </trkpt>
      <trkpt lat="42.6102400" lon="1.4085210">
        <ele>2168.7</ele>
        <time>2021-08-13T05:14:46Z</time>
      </trkpt>
      <trkpt lat="42.6102450" lon="1.4085310">
        <ele>2168.9</ele>
        <time>2021-08-13T05:14:47Z</time>
      </trkpt>
      <trkpt lat="42.6102520" lon="1.4085400">
        <ele>2169.0</ele>
        <time>2021-08-13T05:14:48Z</time>
      </trkpt>
      <trkpt lat="42.6102560" lon="1.4085430">
        <ele>2169.1</ele>
        <time>2021-08-13T05:14:49Z</time>
      </trkpt>
      <trkpt lat="42.6103530" lon="1.4086000">
        <ele>2170.8</ele>
        <time>2021-08-13T05:15:07Z</time>
      </trkpt>
      <trkpt lat="42.6103660" lon="1.4086590">
        <ele>2171.5</ele>
        <time>2021-08-13T05:15:15Z</time>
      </trkpt>
      <trkpt lat="42.6103800" lon="1.4087220">
        <ele>2172.2</ele>
        <time>2021-08-13T05:15:26Z</time>
      </trkpt>
      <trkpt lat="42.6104050" lon="1.4087860">
        <ele>2173.0</ele>
        <time>2021-08-13T05:15:35Z</time>
      </trkpt>
      <trkpt lat="42.6104640" lon="1.4088510">
        <ele>2174.2</ele>
        <time>2021-08-13T05:15:52Z</time>
      </trkpt>
      <trkpt lat="42.6104690" lon="1.4088570">
        <ele>2174.3</ele>
        <time>2021-08-13T05:15:53Z</time>
      </trkpt>
      <trkpt lat="42.6104730" lon="1.4088620">
        <ele>2174.4</ele>
        <time>2021-08-13T05:15:54Z</time>
      </trkpt>
      <trkpt lat="42.6104780" lon="1.4088610">
        <ele>2174.5</ele>
        <time>2021-08-13T05:15:55Z</time>
      </trkpt>
      <trkpt lat="42.6106410" lon="1.4089630">
        <ele>2177.3</ele>
        <time>2021-08-13T05:16:23Z</time>
      </trkpt>
      <trkpt lat="42.6106650" lon="1.4089680">
        <ele>2177.7</ele>
        <time>2021-08-13T05:16:27Z</time>
      </trkpt>
      <trkpt lat="42.6107420" lon="1.4090050">
        <ele>2178.9</ele>
        <time>2021-08-13T05:16:38Z</time>
      </trkpt>
      <trkpt lat="42.6108920" lon="1.4091440">
        <ele>2181.8</ele>
        <time>2021-08-13T05:17:02Z</time>
      </trkpt>
      <trkpt lat="42.6110200" lon="1.4093210">
        <ele>2184.6</ele>
        <time>2021-08-13T05:17:23Z</time>
      </trkpt>
      <trkpt lat="42.6111330" lon="1.4093950">
        <ele>2186.2</ele>
        <time>2021-08-13T05:17:40Z</time>
      </trkpt>
      <trkpt lat="42.6112360" lon="1.4091750">
        <ele>2188.7</ele>
        <time>2021-08-13T05:18:07Z</time>
      </trkpt>
      <trkpt lat="42.6113420" lon="1.4091210">
        <ele>2190.1</ele>
        <time>2021-08-13T05:18:21Z</time>
      </trkpt>
      <trkpt lat="42.6114680" lon="1.4091770">
        <ele>2191.9</ele>
        <time>2021-08-13T05:18:35Z</time>
      </trkpt>
      <trkpt lat="42.6115230" lon="1.4092370">
        <ele>2192.8</ele>
        <time>2021-08-13T05:18:42Z</time>
      </trkpt>
      <trkpt lat="42.6116550" lon="1.4094100">
        <ele>2195.2</ele>
        <time>2021-08-13T05:19:04Z</time>
      </trkpt>
      <trkpt lat="42.6117550" lon="1.4096030">
        <ele>2197.4</ele>
        <time>2021-08-13T05:19:29Z</time>
      </trkpt>
      <trkpt lat="42.6117330" lon="1.4098040">
        <ele>2199.4</ele>
        <time>2021-08-13T05:19:50Z</time>
      </trkpt>
      <trkpt lat="42.6117270" lon="1.4098700">
        <ele>2200.0</ele>
        <time>2021-08-13T05:20:00Z</time>
      </trkpt>
      <trkpt lat="42.6117490" lon="1.4099270">
        <ele>2200.6</ele>
        <time>2021-08-13T05:20:13Z</time>
      </trkpt>
      <trkpt lat="42.6117550" lon="1.4099230">
        <ele>2200.7</ele>
        <time>2021-08-13T05:20:14Z</time>
      </trkpt>
      <trkpt lat="42.6117610" lon="1.4099180">
        <ele>2200.8</ele>
        <time>2021-08-13T05:20:15Z</time>
      </trkpt>
      <trkpt lat="42.6117690" lon="1.4099170">
        <ele>2200.9</ele>
        <time>2021-08-13T05:20:16Z</time>
      </trkpt>
      <trkpt lat="42.6118020" lon="1.4100420">
        <ele>2202.2</ele>
        <time>2021-08-13T05:20:35Z</time>
      </trkpt>
      <trkpt lat="42.6118050" lon="1.4100520">
        <ele>2202.3</ele>
        <time>2021-08-13T05:20:36Z</time>
      </trkpt>
      <trkpt lat="42.6118090" lon="1.4100950">
        <ele>2202.7</ele>
        <time>2021-08-13T05:20:41Z</time>
      </trkpt>
      <trkpt lat="42.6118100" lon="1.4101050">
        <ele>2202.8</ele>
        <time>2021-08-13T05:20:42Z</time>
      </trkpt>
      <trkpt lat="42.6118120" lon="1.4101150">
        <ele>2202.9</ele>
        <time>2021-08-13T05:20:43Z</time>
      </trkpt>
      <trkpt lat="42.6118160" lon="1.4101440">
        <ele>2203.2</ele>
        <time>2021-08-13T05:20:46Z</time>
      </trkpt>
      <trkpt lat="42.6118400" lon="1.4101930">
        <ele>2203.7</ele>
        <time>2021-08-13T05:20:52Z</time>
      </trkpt>
      <trkpt lat="42.6118610" lon="1.4104250">
        <ele>2206.0</ele>
        <time>2021-08-13T05:21:21Z</time>
      </trkpt>
      <trkpt lat="42.6118520" lon="1.4105840">
        <ele>2207.5</ele>
        <time>2021-08-13T05:21:36Z</time>
      </trkpt>
      <trkpt lat="42.6118570" lon="1.4106820">
        <ele>2208.5</ele>
        <time>2021-08-13T05:21:45Z</time>
      </trkpt>
      <trkpt lat="42.6118540" lon="1.4106960">
        <ele>2208.6</ele>
        <time>2021-08-13T05:21:51Z</time>
      </trkpt>
      <trkpt lat="42.6118200" lon="1.4107740">
        <ele>2209.5</ele>
        <time>2021-08-13T05:22:02Z</time>
      </trkpt>
      <trkpt lat="42.6119020" lon="1.4109870">
        <ele>2211.8</ele>
        <time>2021-08-13T05:22:26Z</time>
      </trkpt>
      <trkpt lat="42.6119400" lon="1.4111340">
        <ele>2213.3</ele>
        <time>2021-08-13T05:22:45Z</time>
      </trkpt>
      <trkpt lat="42.6119410" lon="1.4112190">
        <ele>2214.1</ele>
        <time>2021-08-13T05:22:53Z</time>
      </trkpt>
      <trkpt lat="42.6119220" lon="1.4112980">
        <ele>2214.9</ele>
        <time>2021-08-13T05:22:59Z</time>
      </trkpt>
      <trkpt lat="42.6119580" lon="1.4114490">
        <ele>2216.4</ele>
        <time>2021-08-13T05:23:11Z</time>
      </trkpt>
      <trkpt lat="42.6120170" lon="1.4115350">
        <ele>2217.5</ele>
        <time>2021-08-13T05:23:20Z</time>
      </trkpt>
      <trkpt lat="42.6121010" lon="1.4117510">
        <ele>2219.9</ele>
        <time>2021-08-13T05:23:38Z</time>
      </trkpt>
      <trkpt lat="42.6121300" lon="1.4119000">
        <ele>2221.3</ele>
        <time>2021-08-13T05:23:51Z</time>
      </trkpt>
      <trkpt lat="42.6121590" lon="1.4119960">
        <ele>2222.3</ele>
        <time>2021-08-13T05:24:03Z</time>
      </trkpt>
      <trkpt lat="42.6121770" lon="1.4122380">
        <ele>2224.7</ele>
        <time>2021-08-13T05:24:27Z</time>
      </trkpt>
      <trkpt lat="42.6121980" lon="1.4123270">
        <ele>2225.6</ele>
        <time>2021-08-13T05:24:35Z</time>
      </trkpt>
      <trkpt lat="42.6122090" lon="1.4123630">
        <ele>2225.9</ele>
        <time>2021-08-13T05:24:39Z</time>
      </trkpt>
      <trkpt lat="42.6122080" lon="1.4123740">
        <ele>2226.0</ele>
        <time>2021-08-13T05:24:40Z</time>
      </trkpt>
      <trkpt lat="42.6121640" lon="1.4125080">
        <ele>2227.5</ele>
        <time>2021-08-13T05:24:53Z</time>
      </trkpt>
      <trkpt lat="42.6121980" lon="1.4127540">
        <ele>2229.9</ele>
        <time>2021-08-13T05:25:17Z</time>
      </trkpt>
      <trkpt lat="42.6121880" lon="1.4129960">
        <ele>2232.2</ele>
        <time>2021-08-13T05:25:49Z</time>
      </trkpt>
      <trkpt lat="42.6121970" lon="1.4130500">
        <ele>2232.7</ele>
        <time>2021-08-13T05:25:55Z</time>
      </trkpt>
      <trkpt lat="42.6122240" lon="1.4132950">
        <ele>2235.1</ele>
        <time>2021-08-13T05:26:17Z</time>
      </trkpt>
      <trkpt lat="42.6120790" lon="1.4134480">
        <ele>2237.5</ele>
        <time>2021-08-13T05:26:46Z</time>
      </trkpt>
      <trkpt lat="42.6120660" lon="1.4135270">
        <ele>2238.2</ele>
        <time>2021-08-13T05:27:10Z</time>
      </trkpt>
      <trkpt lat="42.6120680" lon="1.4135280">
        <ele>2238.3</ele>
        <time>2021-08-13T05:27:16Z</time>
      </trkpt>
      <trkpt lat="42.6120600" lon="1.4135290">
        <ele>2238.4</ele>
        <time>2021-08-13T05:27:36Z</time>
      </trkpt>
      <trkpt lat="42.6119650" lon="1.4135710">
        <ele>2239.7</ele>
        <time>2021-08-13T05:27:53Z</time>
      </trkpt>
      <trkpt lat="42.6119460" lon="1.4135740">
        <ele>2239.9</ele>
        <time>2021-08-13T05:27:55Z</time>
      </trkpt>
      <trkpt lat="42.6119350" lon="1.4135770">
        <ele>2240.1</ele>
        <time>2021-08-13T05:27:56Z</time>
      </trkpt>
      <trkpt lat="42.6119240" lon="1.4135790">
        <ele>2240.2</ele>
        <time>2021-08-13T05:27:57Z</time>
      </trkpt>
      <trkpt lat="42.6119140" lon="1.4135820">
        <ele>2240.4</ele>
        <time>2021-08-13T05:27:58Z</time>
      </trkpt>
      <trkpt lat="42.6118220" lon="1.4136600">
        <ele>2241.8</ele>
        <time>2021-08-13T05:28:12Z</time>
      </trkpt>
      <trkpt lat="42.6117940" lon="1.4136890">
        <ele>2242.2</ele>
        <time>2021-08-13T05:28:17Z</time>
      </trkpt>
      <trkpt lat="42.6117730" lon="1.4137080">
        <ele>2242.6</ele>
        <time>2021-08-13T05:28:20Z</time>
      </trkpt>
      <trkpt lat="42.6117690" lon="1.4137120">
        <ele>2242.6</ele>
        <time>2021-08-13T05:28:21Z</time>
      </trkpt>
      <trkpt lat="42.6117390" lon="1.4137300">
        <ele>2243.0</ele>
        <time>2021-08-13T05:28:25Z</time>
      </trkpt>
      <trkpt lat="42.6117330" lon="1.4137360">
        <ele>2243.1</ele>
        <time>2021-08-13T05:28:26Z</time>
      </trkpt>
      <trkpt lat="42.6117250" lon="1.4137420">
        <ele>2243.3</ele>
        <time>2021-08-13T05:28:27Z</time>
      </trkpt>
      <trkpt lat="42.6116970" lon="1.4137620">
        <ele>2243.7</ele>
        <time>2021-08-13T05:28:31Z</time>
      </trkpt>
      <trkpt lat="42.6116970" lon="1.4137680">
        <ele>2243.7</ele>
        <time>2021-08-13T05:28:32Z</time>
      </trkpt>
      <trkpt lat="42.6116660" lon="1.4138300">
        <ele>2244.4</ele>
        <time>2021-08-13T05:28:46Z</time>
      </trkpt>
      <trkpt lat="42.6116150" lon="1.4138570">
        <ele>2245.2</ele>
        <time>2021-08-13T05:28:56Z</time>
      </trkpt>
      <trkpt lat="42.6115830" lon="1.4138710">
        <ele>2245.6</ele>
        <time>2021-08-13T05:29:01Z</time>
      </trkpt>
      <trkpt lat="42.6114740" lon="1.4139190">
        <ele>2247.1</ele>
        <time>2021-08-13T05:29:15Z</time>
      </trkpt>
      <trkpt lat="42.6114330" lon="1.4139860">
        <ele>2247.9</ele>
        <time>2021-08-13T05:29:22Z</time>
      </trkpt>
      <trkpt lat="42.6113890" lon="1.4140420">
        <ele>2248.7</ele>
        <time>2021-08-13T05:29:28Z</time>
      </trkpt>
      <trkpt lat="42.6112520" lon="1.4141580">
        <ele>2250.8</ele>
        <time>2021-08-13T05:29:52Z</time>
      </trkpt>
      <trkpt lat="42.6112160" lon="1.4141810">
        <ele>2251.3</ele>
        <time>2021-08-13T05:30:00Z</time>
      </trkpt>
      <trkpt lat="42.6112160" lon="1.4141900">
        <ele>2251.4</ele>
        <time>2021-08-13T05:30:01Z</time>
      </trkpt>
      <trkpt lat="42.6112190" lon="1.4141960">
        <ele>2251.5</ele>
        <time>2021-08-13T05:30:02Z</time>
      </trkpt>
      <trkpt lat="42.6112200" lon="1.4142030">
        <ele>2251.6</ele>
        <time>2021-08-13T05:30:04Z</time>
      </trkpt>
      <trkpt lat="42.6112210" lon="1.4142110">
        <ele>2251.6</ele>
        <time>2021-08-13T05:30:05Z</time>
      </trkpt>
      <trkpt lat="42.6112270" lon="1.4142660">
        <ele>2252.2</ele>
        <time>2021-08-13T05:30:11Z</time>
      </trkpt>
      <trkpt lat="42.6112110" lon="1.4143050">
        <ele>2252.6</ele>
        <time>2021-08-13T05:30:18Z</time>
      </trkpt>
      <trkpt lat="42.6111940" lon="1.4143190">
        <ele>2252.9</ele>
        <time>2021-08-13T05:30:24Z</time>
      </trkpt>
      <trkpt lat="42.6111870" lon="1.4143200">
        <ele>2252.9</ele>
        <time>2021-08-13T05:30:26Z</time>
      </trkpt>
      <trkpt lat="42.6111350" lon="1.4143940">
        <ele>2253.9</ele>
        <time>2021-08-13T05:30:43Z</time>
      </trkpt>
      <trkpt lat="42.6111310" lon="1.4143910">
        <ele>2254.0</ele>
        <time>2021-08-13T05:30:45Z</time>
      </trkpt>
      <trkpt lat="42.6110720" lon="1.4144400">
        <ele>2254.9</ele>
        <time>2021-08-13T05:30:56Z</time>
      </trkpt>
      <trkpt lat="42.6109230" lon="1.4145620">
        <ele>2257.1</ele>
        <time>2021-08-13T05:31:26Z</time>
      </trkpt>
      <trkpt lat="42.6108000" lon="1.4147440">
        <ele>2259.5</ele>
        <time>2021-08-13T05:31:49Z</time>
      </trkpt>
      <trkpt lat="42.6107660" lon="1.4149080">
        <ele>2261.2</ele>
        <time>2021-08-13T05:32:08Z</time>
      </trkpt>
      <trkpt lat="42.6107170" lon="1.4149490">
        <ele>2262.2</ele>
        <time>2021-08-13T05:32:17Z</time>
      </trkpt>
      <trkpt lat="42.6106680" lon="1.4149900">
        <ele>2262.8</ele>
        <time>2021-08-13T05:32:27Z</time>
      </trkpt>
      <trkpt lat="42.6105580" lon="1.4150440">
        <ele>2264.1</ele>
        <time>2021-08-13T05:33:07Z</time>
      </trkpt>
      <trkpt lat="42.6104120" lon="1.4150870">
        <ele>2265.8</ele>
        <time>2021-08-13T05:33:32Z</time>
      </trkpt>
      <trkpt lat="42.6102660" lon="1.4152370">
        <ele>2267.8</ele>
        <time>2021-08-13T05:33:58Z</time>
      </trkpt>
      <trkpt lat="42.6101530" lon="1.4154130">
        <ele>2269.7</ele>
        <time>2021-08-13T05:34:32Z</time>
      </trkpt>
      <trkpt lat="42.6100750" lon="1.4154610">
        <ele>2270.7</ele>
        <time>2021-08-13T05:34:53Z</time>
      </trkpt>
      <trkpt lat="42.6100990" lon="1.4155250">
        <ele>2271.3</ele>
        <time>2021-08-13T05:35:10Z</time>
      </trkpt>
      <trkpt lat="42.6100990" lon="1.4155290">
        <ele>2271.3</ele>
        <time>2021-08-13T05:35:20Z</time>
      </trkpt>
      <trkpt lat="42.6101040" lon="1.4155290">
        <ele>2271.4</ele>
        <time>2021-08-13T05:35:27Z</time>
      </trkpt>
      <trkpt lat="42.6101040" lon="1.4155290">
        <ele>2271.4</ele>
        <time>2021-08-13T05:35:29Z</time>
      </trkpt>
      <trkpt lat="42.6101030" lon="1.4155290">
        <ele>2271.4</ele>
        <time>2021-08-13T05:35:32Z</time>
      </trkpt>
      <trkpt lat="42.6101040" lon="1.4155300">
        <ele>2271.4</ele>
        <time>2021-08-13T05:35:35Z</time>
      </trkpt>
      <trkpt lat="42.6101050" lon="1.4155320">
        <ele>2271.4</ele>
        <time>2021-08-13T05:35:42Z</time>
      </trkpt>
      <trkpt lat="42.6101040" lon="1.4155330">
        <ele>2271.4</ele>
        <time>2021-08-13T05:36:07Z</time>
      </trkpt>
      <trkpt lat="42.6100970" lon="1.4155120">
        <ele>2271.6</ele>
        <time>2021-08-13T05:36:26Z</time>
      </trkpt>
      <trkpt lat="42.6101040" lon="1.4155100">
        <ele>2271.7</ele>
        <time>2021-08-13T05:36:36Z</time>
      </trkpt>
      <trkpt lat="42.6101130" lon="1.4155060">
        <ele>2271.8</ele>
        <time>2021-08-13T05:36:48Z</time>
      </trkpt>
      <trkpt lat="42.6101200" lon="1.4155000">
        <ele>2271.9</ele>
        <time>2021-08-13T05:37:08Z</time>
      </trkpt>
      <trkpt lat="42.6101270" lon="1.4154950">
        <ele>2272.0</ele>
        <time>2021-08-13T05:37:25Z</time>
      </trkpt>
      <trkpt lat="42.6101290" lon="1.4155230">
        <ele>2272.2</ele>
        <time>2021-08-13T05:38:58Z</time>
      </trkpt>
      <trkpt lat="42.6101100" lon="1.4155440">
        <ele>2272.5</ele>
        <time>2021-08-13T05:39:03Z</time>
      </trkpt>
      <trkpt lat="42.6101020" lon="1.4155580">
        <ele>2272.6</ele>
        <time>2021-08-13T05:39:05Z</time>
      </trkpt>
      <trkpt lat="42.6100930" lon="1.4155780">
        <ele>2272.8</ele>
        <time>2021-08-13T05:39:10Z</time>
      </trkpt>
      <trkpt lat="42.6099920" lon="1.4156690">
        <ele>2274.1</ele>
        <time>2021-08-13T05:39:38Z</time>
      </trkpt>
      <trkpt lat="42.6099580" lon="1.4157020">
        <ele>2274.6</ele>
        <time>2021-08-13T05:39:45Z</time>
      </trkpt>
      <trkpt lat="42.6099050" lon="1.4157230">
        <ele>2275.2</ele>
        <time>2021-08-13T05:39:52Z</time>
      </trkpt>
      <trkpt lat="42.6098050" lon="1.4157600">
        <ele>2276.4</ele>
        <time>2021-08-13T05:40:08Z</time>
      </trkpt>
      <trkpt lat="42.6098050" lon="1.4157750">
        <ele>2276.5</ele>
        <time>2021-08-13T05:40:11Z</time>
      </trkpt>
      <trkpt lat="42.6098060" lon="1.4157920">
        <ele>2276.6</ele>
        <time>2021-08-13T05:40:16Z</time>
      </trkpt>
      <trkpt lat="42.6097910" lon="1.4158200">
        <ele>2276.9</ele>
        <time>2021-08-13T05:40:20Z</time>
      </trkpt>
      <trkpt lat="42.6097480" lon="1.4158620">
        <ele>2277.5</ele>
        <time>2021-08-13T05:40:28Z</time>
      </trkpt>
      <trkpt lat="42.6097440" lon="1.4158680">
        <ele>2277.6</ele>
        <time>2021-08-13T05:40:29Z</time>
      </trkpt>
      <trkpt lat="42.6096920" lon="1.4159410">
        <ele>2278.4</ele>
        <time>2021-08-13T05:40:42Z</time>
      </trkpt>
      <trkpt lat="42.6096700" lon="1.4159750">
        <ele>2278.8</ele>
        <time>2021-08-13T05:40:48Z</time>
      </trkpt>
      <trkpt lat="42.6096630" lon="1.4159920">
        <ele>2278.9</ele>
        <time>2021-08-13T05:40:50Z</time>
      </trkpt>
      <trkpt lat="42.6096490" lon="1.4160200">
        <ele>2279.2</ele>
        <time>2021-08-13T05:40:54Z</time>
      </trkpt>
      <trkpt lat="42.6095870" lon="1.4160720">
        <ele>2280.0</ele>
        <time>2021-08-13T05:41:10Z</time>
      </trkpt>
      <trkpt lat="42.6094680" lon="1.4162150">
        <ele>2281.8</ele>
        <time>2021-08-13T05:41:32Z</time>
      </trkpt>
      <trkpt lat="42.6093990" lon="1.4163150">
        <ele>2282.9</ele>
        <time>2021-08-13T05:41:49Z</time>
      </trkpt>
      <trkpt lat="42.6093470" lon="1.4164530">
        <ele>2284.2</ele>
        <time>2021-08-13T05:42:01Z</time>
      </trkpt>
      <trkpt lat="42.6091900" lon="1.4165810">
        <ele>2286.2</ele>
        <time>2021-08-13T05:42:24Z</time>
      </trkpt>
      <trkpt lat="42.6091730" lon="1.4165920">
        <ele>2286.4</ele>
        <time>2021-08-13T05:42:26Z</time>
      </trkpt>
      <trkpt lat="42.6090840" lon="1.4166190">
        <ele>2287.4</ele>
        <time>2021-08-13T05:42:37Z</time>
      </trkpt>
      <trkpt lat="42.6089250" lon="1.4166360">
        <ele>2289.2</ele>
        <time>2021-08-13T05:43:13Z</time>
      </trkpt>
      <trkpt lat="42.6088570" lon="1.4167510">
        <ele>2290.4</ele>
        <time>2021-08-13T05:43:30Z</time>
      </trkpt>
      <trkpt lat="42.6087630" lon="1.4168770">
        <ele>2291.9</ele>
        <time>2021-08-13T05:43:59Z</time>
      </trkpt>
      <trkpt lat="42.6087510" lon="1.4168410">
        <ele>2292.2</ele>
        <time>2021-08-13T05:44:04Z</time>
      </trkpt>
      <trkpt lat="42.6087110" lon="1.4168150">
        <ele>2292.7</ele>
        <time>2021-08-13T05:44:12Z</time>
      </trkpt>
      <trkpt lat="42.6087050" lon="1.4168280">
        <ele>2292.8</ele>
        <time>2021-08-13T05:44:14Z</time>
      </trkpt>
      <trkpt lat="42.6087200" lon="1.4168320">
        <ele>2293.0</ele>
        <time>2021-08-13T05:44:41Z</time>
      </trkpt>
      <trkpt lat="42.6087170" lon="1.4168320">
        <ele>2293.0</ele>
        <time>2021-08-13T05:44:44Z</time>
      </trkpt>
      <trkpt lat="42.6087170" lon="1.4168320">
        <ele>2293.0</ele>
        <time>2021-08-13T05:44:45Z</time>
      </trkpt>
      <trkpt lat="42.6087180" lon="1.4168320">
        <ele>2293.0</ele>
        <time>2021-08-13T05:44:48Z</time>
      </trkpt>
      <trkpt lat="42.6087110" lon="1.4168330">
        <ele>2293.1</ele>
        <time>2021-08-13T05:44:57Z</time>
      </trkpt>
      <trkpt lat="42.6087100" lon="1.4168330">
        <ele>2293.1</ele>
        <time>2021-08-13T05:44:59Z</time>
      </trkpt>
      <trkpt lat="42.6086940" lon="1.4169180">
        <ele>2293.8</ele>
        <time>2021-08-13T05:45:18Z</time>
      </trkpt>
      <trkpt lat="42.6085590" lon="1.4170310">
        <ele>2295.6</ele>
        <time>2021-08-13T05:45:35Z</time>
      </trkpt>
      <trkpt lat="42.6085180" lon="1.4170390">
        <ele>2296.0</ele>
        <time>2021-08-13T05:45:39Z</time>
      </trkpt>
      <trkpt lat="42.6084880" lon="1.4170440">
        <ele>2296.4</ele>
        <time>2021-08-13T05:45:42Z</time>
      </trkpt>
      <trkpt lat="42.6084370" lon="1.4170780">
        <ele>2297.0</ele>
        <time>2021-08-13T05:45:49Z</time>
      </trkpt>
      <trkpt lat="42.6084340" lon="1.4170790">
        <ele>2297.0</ele>
        <time>2021-08-13T05:45:50Z</time>
      </trkpt>
      <trkpt lat="42.6084320" lon="1.4170760">
        <ele>2297.1</ele>
        <time>2021-08-13T05:45:52Z</time>
      </trkpt>
      <trkpt lat="42.6084310" lon="1.4170700">
        <ele>2297.1</ele>
        <time>2021-08-13T05:45:53Z</time>
      </trkpt>
      <trkpt lat="42.6084450" lon="1.4170770">
        <ele>2297.3</ele>
        <time>2021-08-13T05:45:59Z</time>
      </trkpt>
      <trkpt lat="42.6084490" lon="1.4170800">
        <ele>2297.3</ele>
        <time>2021-08-13T05:46:01Z</time>
      </trkpt>
      <trkpt lat="42.6084520" lon="1.4170820">
        <ele>2297.4</ele>
        <time>2021-08-13T05:46:02Z</time>
      </trkpt>
      <trkpt lat="42.6084550" lon="1.4170780">
        <ele>2297.4</ele>
        <time>2021-08-13T05:46:03Z</time>
      </trkpt>
      <trkpt lat="42.6084570" lon="1.4170770">
        <ele>2297.4</ele>
        <time>2021-08-13T05:46:04Z</time>
      </trkpt>
      <trkpt lat="42.6085230" lon="1.4170410">
        <ele>2298.2</ele>
        <time>2021-08-13T05:46:14Z</time>
      </trkpt>
      <trkpt lat="42.6085140" lon="1.4170350">
        <ele>2298.3</ele>
        <time>2021-08-13T05:46:22Z</time>
      </trkpt>
      <trkpt lat="42.6085040" lon="1.4170350">
        <ele>2298.4</ele>
        <time>2021-08-13T05:46:23Z</time>
      </trkpt>
      <trkpt lat="42.6084960" lon="1.4170380">
        <ele>2298.5</ele>
        <time>2021-08-13T05:46:24Z</time>
      </trkpt>
      <trkpt lat="42.6084890" lon="1.4170410">
        <ele>2298.6</ele>
        <time>2021-08-13T05:46:25Z</time>
      </trkpt>
      <trkpt lat="42.6084810" lon="1.4170450">
        <ele>2298.7</ele>
        <time>2021-08-13T05:46:26Z</time>
      </trkpt>
      <trkpt lat="42.6084700" lon="1.4170490">
        <ele>2298.8</ele>
        <time>2021-08-13T05:46:27Z</time>
      </trkpt>
      <trkpt lat="42.6084600" lon="1.4170530">
        <ele>2299.0</ele>
        <time>2021-08-13T05:46:28Z</time>
      </trkpt>
      <trkpt lat="42.6084360" lon="1.4170650">
        <ele>2299.2</ele>
        <time>2021-08-13T05:46:31Z</time>
      </trkpt>
      <trkpt lat="42.6084300" lon="1.4170630">
        <ele>2299.3</ele>
        <time>2021-08-13T05:46:33Z</time>
      </trkpt>
      <trkpt lat="42.6084290" lon="1.4170670">
        <ele>2299.3</ele>
        <time>2021-08-13T05:46:36Z</time>
      </trkpt>
      <trkpt lat="42.6084290" lon="1.4170700">
        <ele>2299.4</ele>
        <time>2021-08-13T05:46:37Z</time>
      </trkpt>
      <trkpt lat="42.6084300" lon="1.4170750">
        <ele>2299.4</ele>
        <time>2021-08-13T05:46:38Z</time>
      </trkpt>
      <trkpt lat="42.6084380" lon="1.4170840">
        <ele>2299.5</ele>
        <time>2021-08-13T05:46:41Z</time>
      </trkpt>
      <trkpt lat="42.6084490" lon="1.4170800">
        <ele>2299.7</ele>
        <time>2021-08-13T05:46:47Z</time>
      </trkpt>
      <trkpt lat="42.6085150" lon="1.4170490">
        <ele>2300.4</ele>
        <time>2021-08-13T05:46:57Z</time>
      </trkpt>
      <trkpt lat="42.6085110" lon="1.4170490">
        <ele>2300.5</ele>
        <time>2021-08-13T05:46:58Z</time>
      </trkpt>
      <trkpt lat="42.6084310" lon="1.4170910">
        <ele>2301.4</ele>
        <time>2021-08-13T05:47:09Z</time>
      </trkpt>
      <trkpt lat="42.6083050" lon="1.4170830">
        <ele>2302.8</ele>
        <time>2021-08-13T05:47:24Z</time>
      </trkpt>
      <trkpt lat="42.6082590" lon="1.4170920">
        <ele>2303.3</ele>
        <time>2021-08-13T05:47:29Z</time>
      </trkpt>
      <trkpt lat="42.6082390" lon="1.4170940">
        <ele>2303.6</ele>
        <time>2021-08-13T05:47:31Z</time>
      </trkpt>
      <trkpt lat="42.6081380" lon="1.4170980">
        <ele>2304.7</ele>
        <time>2021-08-13T05:47:42Z</time>
      </trkpt>
      <trkpt lat="42.6079560" lon="1.4170610">
        <ele>2306.7</ele>
        <time>2021-08-13T05:48:07Z</time>
      </trkpt>
      <trkpt lat="42.6077910" lon="1.4169650">
        <ele>2308.7</ele>
        <time>2021-08-13T05:48:26Z</time>
      </trkpt>
      <trkpt lat="42.6076060" lon="1.4169680">
        <ele>2310.8</ele>
        <time>2021-08-13T05:48:48Z</time>
      </trkpt>
      <trkpt lat="42.6074330" lon="1.4168920">
        <ele>2312.8</ele>
        <time>2021-08-13T05:49:10Z</time>
      </trkpt>
      <trkpt lat="42.6072540" lon="1.4168200">
        <ele>2314.9</ele>
        <time>2021-08-13T05:49:30Z</time>
      </trkpt>
      <trkpt lat="42.6072150" lon="1.4168300">
        <ele>2315.3</ele>
        <time>2021-08-13T05:49:36Z</time>
      </trkpt>
      <trkpt lat="42.6070770" lon="1.4168720">
        <ele>2316.9</ele>
        <time>2021-08-13T05:50:00Z</time>
      </trkpt>
      <trkpt lat="42.6070700" lon="1.4168930">
        <ele>2317.1</ele>
        <time>2021-08-13T05:52:17Z</time>
      </trkpt>
      <trkpt lat="42.6070690" lon="1.4168920">
        <ele>2317.1</ele>
        <time>2021-08-13T05:52:18Z</time>
      </trkpt>
      <trkpt lat="42.6070410" lon="1.4169090">
        <ele>2317.4</ele>
        <time>2021-08-13T05:52:25Z</time>
      </trkpt>
      <trkpt lat="42.6070380" lon="1.4169140">
        <ele>2317.5</ele>
        <time>2021-08-13T05:52:26Z</time>
      </trkpt>
      <trkpt lat="42.6070110" lon="1.4169460">
        <ele>2317.9</ele>
        <time>2021-08-13T05:52:31Z</time>
      </trkpt>
      <trkpt lat="42.6069900" lon="1.4169680">
        <ele>2318.2</ele>
        <time>2021-08-13T05:52:36Z</time>
      </trkpt>
      <trkpt lat="42.6069710" lon="1.4169870">
        <ele>2318.4</ele>
        <time>2021-08-13T05:52:42Z</time>
      </trkpt>
      <trkpt lat="42.6069670" lon="1.4170020">
        <ele>2318.5</ele>
        <time>2021-08-13T05:52:45Z</time>
      </trkpt>
      <trkpt lat="42.6069520" lon="1.4170290">
        <ele>2318.8</ele>
        <time>2021-08-13T05:52:52Z</time>
      </trkpt>
      <trkpt lat="42.6069390" lon="1.4170400">
        <ele>2319.0</ele>
        <time>2021-08-13T05:52:54Z</time>
      </trkpt>
      <trkpt lat="42.6069160" lon="1.4170600">
        <ele>2319.3</ele>
        <time>2021-08-13T05:52:59Z</time>
      </trkpt>
      <trkpt lat="42.6069040" lon="1.4170700">
        <ele>2319.4</ele>
        <time>2021-08-13T05:53:01Z</time>
      </trkpt>
      <trkpt lat="42.6067210" lon="1.4171240">
        <ele>2321.5</ele>
        <time>2021-08-13T05:53:26Z</time>
      </trkpt>
      <trkpt lat="42.6065410" lon="1.4171620">
        <ele>2323.5</ele>
        <time>2021-08-13T05:53:47Z</time>
      </trkpt>
      <trkpt lat="42.6063740" lon="1.4172630">
        <ele>2325.6</ele>
        <time>2021-08-13T05:54:10Z</time>
      </trkpt>
      <trkpt lat="42.6063710" lon="1.4172710">
        <ele>2325.6</ele>
        <time>2021-08-13T05:54:11Z</time>
      </trkpt>
      <trkpt lat="42.6062570" lon="1.4174200">
        <ele>2327.4</ele>
        <time>2021-08-13T05:54:42Z</time>
      </trkpt>
      <trkpt lat="42.6062450" lon="1.4174410">
        <ele>2327.6</ele>
        <time>2021-08-13T05:54:44Z</time>
      </trkpt>
      <trkpt lat="42.6062360" lon="1.4174560">
        <ele>2327.8</ele>
        <time>2021-08-13T05:54:46Z</time>
      </trkpt>
      <trkpt lat="42.6062300" lon="1.4174670">
        <ele>2327.9</ele>
        <time>2021-08-13T05:54:47Z</time>
      </trkpt>
      <trkpt lat="42.6062220" lon="1.4174760">
        <ele>2328.0</ele>
        <time>2021-08-13T05:54:48Z</time>
      </trkpt>
      <trkpt lat="42.6061620" lon="1.4175080">
        <ele>2328.7</ele>
        <time>2021-08-13T05:54:55Z</time>
      </trkpt>
      <trkpt lat="42.6060570" lon="1.4176080">
        <ele>2330.1</ele>
        <time>2021-08-13T05:55:11Z</time>
      </trkpt>
      <trkpt lat="42.6060620" lon="1.4176060">
        <ele>2330.2</ele>
        <time>2021-08-13T05:55:18Z</time>
      </trkpt>
      <trkpt lat="42.6060670" lon="1.4176080">
        <ele>2330.3</ele>
        <time>2021-08-13T05:55:25Z</time>
      </trkpt>
      <trkpt lat="42.6059940" lon="1.4176570">
        <ele>2331.2</ele>
        <time>2021-08-13T05:55:42Z</time>
      </trkpt>
      <trkpt lat="42.6059510" lon="1.4177350">
        <ele>2332.0</ele>
        <time>2021-08-13T05:55:57Z</time>
      </trkpt>
      <trkpt lat="42.6059330" lon="1.4177310">
        <ele>2332.2</ele>
        <time>2021-08-13T05:56:00Z</time>
      </trkpt>
      <trkpt lat="42.6058020" lon="1.4177590">
        <ele>2333.6</ele>
        <time>2021-08-13T05:56:17Z</time>
      </trkpt>
      <trkpt lat="42.6057590" lon="1.4177780">
        <ele>2334.1</ele>
        <time>2021-08-13T05:56:23Z</time>
      </trkpt>
      <trkpt lat="42.6057630" lon="1.4177910">
        <ele>2334.2</ele>
        <time>2021-08-13T05:56:30Z</time>
      </trkpt>
      <trkpt lat="42.6057250" lon="1.4178190">
        <ele>2334.7</ele>
        <time>2021-08-13T05:56:53Z</time>
      </trkpt>
      <trkpt lat="42.6057240" lon="1.4178090">
        <ele>2334.8</ele>
        <time>2021-08-13T05:56:59Z</time>
      </trkpt>
      <trkpt lat="42.6057000" lon="1.4177810">
        <ele>2335.2</ele>
        <time>2021-08-13T05:57:14Z</time>
      </trkpt>
      <trkpt lat="42.6056280" lon="1.4177760">
        <ele>2336.0</ele>
        <time>2021-08-13T05:57:22Z</time>
      </trkpt>
      <trkpt lat="42.6056180" lon="1.4177770">
        <ele>2336.1</ele>
        <time>2021-08-13T05:57:23Z</time>
      </trkpt>
      <trkpt lat="42.6055980" lon="1.4177820">
        <ele>2336.3</ele>
        <time>2021-08-13T05:57:25Z</time>
      </trkpt>
      <trkpt lat="42.6055760" lon="1.4177830">
        <ele>2336.5</ele>
        <time>2021-08-13T05:57:27Z</time>
      </trkpt>
      <trkpt lat="42.6055170" lon="1.4177900">
        <ele>2337.2</ele>
        <time>2021-08-13T05:57:33Z</time>
      </trkpt>
      <trkpt lat="42.6053580" lon="1.4178180">
        <ele>2339.0</ele>
        <time>2021-08-13T05:57:47Z</time>
      </trkpt>
      <trkpt lat="42.6052880" lon="1.4178350">
        <ele>2339.8</ele>
        <time>2021-08-13T05:57:54Z</time>
      </trkpt>
      <trkpt lat="42.6051340" lon="1.4179490">
        <ele>2341.7</ele>
        <time>2021-08-13T05:58:21Z</time>
      </trkpt>
      <trkpt lat="42.6050860" lon="1.4180850">
        <ele>2342.9</ele>
        <time>2021-08-13T05:58:41Z</time>
      </trkpt>
      <trkpt lat="42.6050310" lon="1.4181590">
        <ele>2343.8</ele>
        <time>2021-08-13T05:58:53Z</time>
      </trkpt>
      <trkpt lat="42.6050050" lon="1.4181880">
        <ele>2344.2</ele>
        <time>2021-08-13T05:58:58Z</time>
      </trkpt>
      <trkpt lat="42.6049640" lon="1.4182100">
        <ele>2344.7</ele>
        <time>2021-08-13T05:59:05Z</time>
      </trkpt>
      <trkpt lat="42.6049400" lon="1.4182410">
        <ele>2345.0</ele>
        <time>2021-08-13T05:59:11Z</time>
      </trkpt>
      <trkpt lat="42.6049240" lon="1.4182420">
        <ele>2345.2</ele>
        <time>2021-08-13T05:59:14Z</time>
      </trkpt>
      <trkpt lat="42.6049170" lon="1.4182430">
        <ele>2345.3</ele>
        <time>2021-08-13T05:59:15Z</time>
      </trkpt>
      <trkpt lat="42.6049080" lon="1.4182420">
        <ele>2345.4</ele>
        <time>2021-08-13T05:59:16Z</time>
      </trkpt>
      <trkpt lat="42.6048860" lon="1.4182310">
        <ele>2345.6</ele>
        <time>2021-08-13T05:59:19Z</time>
      </trkpt>
      <trkpt lat="42.6048460" lon="1.4182340">
        <ele>2346.1</ele>
        <time>2021-08-13T05:59:25Z</time>
      </trkpt>
      <trkpt lat="42.6047990" lon="1.4182390">
        <ele>2346.6</ele>
        <time>2021-08-13T05:59:32Z</time>
      </trkpt>
      <trkpt lat="42.6046260" lon="1.4182760">
        <ele>2348.6</ele>
        <time>2021-08-13T06:00:01Z</time>
      </trkpt>
      <trkpt lat="42.6045780" lon="1.4183150">
        <ele>2349.2</ele>
        <time>2021-08-13T06:00:07Z</time>
      </trkpt>
      <trkpt lat="42.6044790" lon="1.4183500">
        <ele>2350.3</ele>
        <time>2021-08-13T06:00:19Z</time>
      </trkpt>
      <trkpt lat="42.6044090" lon="1.4183920">
        <ele>2351.2</ele>
        <time>2021-08-13T06:00:28Z</time>
      </trkpt>
      <trkpt lat="42.6042690" lon="1.4184700">
        <ele>2352.8</ele>
        <time>2021-08-13T06:00:43Z</time>
      </trkpt>
      <trkpt lat="42.6041640" lon="1.4185570">
        <ele>2354.2</ele>
        <time>2021-08-13T06:00:58Z</time>
      </trkpt>
      <trkpt lat="42.6041350" lon="1.4185840">
        <ele>2354.6</ele>
        <time>2021-08-13T06:01:02Z</time>
      </trkpt>
      <trkpt lat="42.6040730" lon="1.4186550">
        <ele>2355.5</ele>
        <time>2021-08-13T06:01:11Z</time>
      </trkpt>
      <trkpt lat="42.6040640" lon="1.4186570">
        <ele>2355.6</ele>
        <time>2021-08-13T06:01:12Z</time>
      </trkpt>
      <trkpt lat="42.6040050" lon="1.4186650">
        <ele>2356.3</ele>
        <time>2021-08-13T06:01:18Z</time>
      </trkpt>
      <trkpt lat="42.6039240" lon="1.4186840">
        <ele>2357.2</ele>
        <time>2021-08-13T06:01:26Z</time>
      </trkpt>
      <trkpt lat="42.6039060" lon="1.4186870">
        <ele>2357.4</ele>
        <time>2021-08-13T06:01:28Z</time>
      </trkpt>
      <trkpt lat="42.6038310" lon="1.4187380">
        <ele>2358.3</ele>
        <time>2021-08-13T06:01:38Z</time>
      </trkpt>
      <trkpt lat="42.6037960" lon="1.4187530">
        <ele>2358.7</ele>
        <time>2021-08-13T06:01:42Z</time>
      </trkpt>
      <trkpt lat="42.6037560" lon="1.4187610">
        <ele>2359.2</ele>
        <time>2021-08-13T06:01:46Z</time>
      </trkpt>
      <trkpt lat="42.6036230" lon="1.4187700">
        <ele>2360.6</ele>
        <time>2021-08-13T06:02:04Z</time>
      </trkpt>
      <trkpt lat="42.6034900" lon="1.4189090">
        <ele>2362.5</ele>
        <time>2021-08-13T06:02:25Z</time>
      </trkpt>
      <trkpt lat="42.6034780" lon="1.4189310">
        <ele>2362.7</ele>
        <time>2021-08-13T06:02:27Z</time>
      </trkpt>
      <trkpt lat="42.6034720" lon="1.4189400">
        <ele>2362.8</ele>
        <time>2021-08-13T06:02:28Z</time>
      </trkpt>
      <trkpt lat="42.6034630" lon="1.4189590">
        <ele>2363.0</ele>
        <time>2021-08-13T06:02:30Z</time>
      </trkpt>
      <trkpt lat="42.6034580" lon="1.4189690">
        <ele>2363.1</ele>
        <time>2021-08-13T06:02:31Z</time>
      </trkpt>
      <trkpt lat="42.6034520" lon="1.4189810">
        <ele>2363.2</ele>
        <time>2021-08-13T06:02:32Z</time>
      </trkpt>
      <trkpt lat="42.6034460" lon="1.4189900">
        <ele>2363.3</ele>
        <time>2021-08-13T06:02:33Z</time>
      </trkpt>
      <trkpt lat="42.6034250" lon="1.4190160">
        <ele>2363.6</ele>
        <time>2021-08-13T06:02:37Z</time>
      </trkpt>
      <trkpt lat="42.6033860" lon="1.4190400">
        <ele>2364.1</ele>
        <time>2021-08-13T06:02:41Z</time>
      </trkpt>
      <trkpt lat="42.6032970" lon="1.4190900">
        <ele>2365.2</ele>
        <time>2021-08-13T06:02:50Z</time>
      </trkpt>
      <trkpt lat="42.6031780" lon="1.4191490">
        <ele>2366.6</ele>
        <time>2021-08-13T06:03:02Z</time>
      </trkpt>
      <trkpt lat="42.6031050" lon="1.4192260">
        <ele>2367.6</ele>
        <time>2021-08-13T06:03:17Z</time>
      </trkpt>
      <trkpt lat="42.6029400" lon="1.4192280">
        <ele>2369.8</ele>
        <time>2021-08-13T06:03:46Z</time>
      </trkpt>
      <trkpt lat="42.6029100" lon="1.4192340">
        <ele>2370.2</ele>
        <time>2021-08-13T06:04:02Z</time>
      </trkpt>
      <trkpt lat="42.6028710" lon="1.4192980">
        <ele>2370.9</ele>
        <time>2021-08-13T06:04:18Z</time>
      </trkpt>
      <trkpt lat="42.6028130" lon="1.4195020">
        <ele>2372.8</ele>
        <time>2021-08-13T06:04:40Z</time>
      </trkpt>
      <trkpt lat="42.6027850" lon="1.4196690">
        <ele>2374.3</ele>
        <time>2021-08-13T06:04:58Z</time>
      </trkpt>
      <trkpt lat="42.6027450" lon="1.4197400">
        <ele>2375.1</ele>
        <time>2021-08-13T06:05:12Z</time>
      </trkpt>
      <trkpt lat="42.6026050" lon="1.4198960">
        <ele>2377.2</ele>
        <time>2021-08-13T06:05:30Z</time>
      </trkpt>
      <trkpt lat="42.6024800" lon="1.4200280">
        <ele>2379.1</ele>
        <time>2021-08-13T06:05:55Z</time>
      </trkpt>
      <trkpt lat="42.6024770" lon="1.4200310">
        <ele>2379.2</ele>
        <time>2021-08-13T06:05:56Z</time>
      </trkpt>
      <trkpt lat="42.6024690" lon="1.4200370">
        <ele>2379.3</ele>
        <time>2021-08-13T06:05:57Z</time>
      </trkpt>
      <trkpt lat="42.6024430" lon="1.4200660">
        <ele>2379.7</ele>
        <time>2021-08-13T06:06:01Z</time>
      </trkpt>
      <trkpt lat="42.6024270" lon="1.4201030">
        <ele>2380.0</ele>
        <time>2021-08-13T06:06:04Z</time>
      </trkpt>
      <trkpt lat="42.6024210" lon="1.4201140">
        <ele>2380.2</ele>
        <time>2021-08-13T06:06:05Z</time>
      </trkpt>
      <trkpt lat="42.6024050" lon="1.4201650">
        <ele>2380.6</ele>
        <time>2021-08-13T06:06:09Z</time>
      </trkpt>
      <trkpt lat="42.6024010" lon="1.4201780">
        <ele>2380.8</ele>
        <time>2021-08-13T06:06:10Z</time>
      </trkpt>
      <trkpt lat="42.6023820" lon="1.4202370">
        <ele>2381.3</ele>
        <time>2021-08-13T06:06:14Z</time>
      </trkpt>
      <trkpt lat="42.6023750" lon="1.4202510">
        <ele>2381.5</ele>
        <time>2021-08-13T06:06:15Z</time>
      </trkpt>
      <trkpt lat="42.6023640" lon="1.4202960">
        <ele>2381.9</ele>
        <time>2021-08-13T06:06:18Z</time>
      </trkpt>
      <trkpt lat="42.6022830" lon="1.4205230">
        <ele>2384.1</ele>
        <time>2021-08-13T06:06:38Z</time>
      </trkpt>
      <trkpt lat="42.6021780" lon="1.4206200">
        <ele>2385.6</ele>
        <time>2021-08-13T06:06:55Z</time>
      </trkpt>
      <trkpt lat="42.6020930" lon="1.4206790">
        <ele>2386.7</ele>
        <time>2021-08-13T06:07:04Z</time>
      </trkpt>
      <trkpt lat="42.6020850" lon="1.4206850">
        <ele>2386.8</ele>
        <time>2021-08-13T06:07:05Z</time>
      </trkpt>
      <trkpt lat="42.6020370" lon="1.4207250">
        <ele>2387.5</ele>
        <time>2021-08-13T06:07:10Z</time>
      </trkpt>
      <trkpt lat="42.6019820" lon="1.4207460">
        <ele>2388.2</ele>
        <time>2021-08-13T06:07:16Z</time>
      </trkpt>
      <trkpt lat="42.6018490" lon="1.4208980">
        <ele>2390.3</ele>
        <time>2021-08-13T06:07:32Z</time>
      </trkpt>
      <trkpt lat="42.6018150" lon="1.4209680">
        <ele>2391.0</ele>
        <time>2021-08-13T06:07:38Z</time>
      </trkpt>
      <trkpt lat="42.6016960" lon="1.4211400">
        <ele>2393.1</ele>
        <time>2021-08-13T06:08:08Z</time>
      </trkpt>
      <trkpt lat="42.6016730" lon="1.4211980">
        <ele>2393.6</ele>
        <time>2021-08-13T06:08:13Z</time>
      </trkpt>
      <trkpt lat="42.6016460" lon="1.4213130">
        <ele>2394.7</ele>
        <time>2021-08-13T06:08:26Z</time>
      </trkpt>
      <trkpt lat="42.6016320" lon="1.4215040">
        <ele>2396.4</ele>
        <time>2021-08-13T06:08:56Z</time>
      </trkpt>
      <trkpt lat="42.6015880" lon="1.4216430">
        <ele>2397.7</ele>
        <time>2021-08-13T06:09:11Z</time>
      </trkpt>
      <trkpt lat="42.6015950" lon="1.4217450">
        <ele>2398.6</ele>
        <time>2021-08-13T06:09:19Z</time>
      </trkpt>
      <trkpt lat="42.6016050" lon="1.4217760">
        <ele>2398.9</ele>
        <time>2021-08-13T06:09:22Z</time>
      </trkpt>
      <trkpt lat="42.6016060" lon="1.4217900">
        <ele>2399.0</ele>
        <time>2021-08-13T06:09:23Z</time>
      </trkpt>
      <trkpt lat="42.6015900" lon="1.4220300">
        <ele>2401.1</ele>
        <time>2021-08-13T06:09:53Z</time>
      </trkpt>
      <trkpt lat="42.6015890" lon="1.4220650">
        <ele>2401.4</ele>
        <time>2021-08-13T06:09:57Z</time>
      </trkpt>
      <trkpt lat="42.6015930" lon="1.4220690">
        <ele>2401.5</ele>
        <time>2021-08-13T06:09:58Z</time>
      </trkpt>
      <trkpt lat="42.6015970" lon="1.4220730">
        <ele>2401.5</ele>
        <time>2021-08-13T06:09:59Z</time>
      </trkpt>
      <trkpt lat="42.6015900" lon="1.4220960">
        <ele>2401.7</ele>
        <time>2021-08-13T06:10:04Z</time>
      </trkpt>
      <trkpt lat="42.6015770" lon="1.4221110">
        <ele>2401.9</ele>
        <time>2021-08-13T06:10:06Z</time>
      </trkpt>
      <trkpt lat="42.6015560" lon="1.4221220">
        <ele>2402.2</ele>
        <time>2021-08-13T06:10:09Z</time>
      </trkpt>
      <trkpt lat="42.6015140" lon="1.4221430">
        <ele>2402.7</ele>
        <time>2021-08-13T06:10:15Z</time>
      </trkpt>
      <trkpt lat="42.6015040" lon="1.4221470">
        <ele>2402.9</ele>
        <time>2021-08-13T06:10:16Z</time>
      </trkpt>
      <trkpt lat="42.6013790" lon="1.4222460">
        <ele>2404.6</ele>
        <time>2021-08-13T06:10:37Z</time>
      </trkpt>
      <trkpt lat="42.6013730" lon="1.4222520">
        <ele>2404.7</ele>
        <time>2021-08-13T06:10:38Z</time>
      </trkpt>
      <trkpt lat="42.6013500" lon="1.4222830">
        <ele>2405.1</ele>
        <time>2021-08-13T06:10:43Z</time>
      </trkpt>
      <trkpt lat="42.6013010" lon="1.4224760">
        <ele>2406.8</ele>
        <time>2021-08-13T06:11:04Z</time>
      </trkpt>
      <trkpt lat="42.6012840" lon="1.4225800">
        <ele>2407.8</ele>
        <time>2021-08-13T06:11:14Z</time>
      </trkpt>
      <trkpt lat="42.6012600" lon="1.4226890">
        <ele>2408.8</ele>
        <time>2021-08-13T06:11:27Z</time>
      </trkpt>
      <trkpt lat="42.6012520" lon="1.4227070">
        <ele>2409.0</ele>
        <time>2021-08-13T06:11:29Z</time>
      </trkpt>
      <trkpt lat="42.6012440" lon="1.4227200">
        <ele>2409.1</ele>
        <time>2021-08-13T06:11:31Z</time>
      </trkpt>
      <trkpt lat="42.6012400" lon="1.4227280">
        <ele>2409.2</ele>
        <time>2021-08-13T06:11:32Z</time>
      </trkpt>
      <trkpt lat="42.6012220" lon="1.4228150">
        <ele>2410.0</ele>
        <time>2021-08-13T06:11:42Z</time>
      </trkpt>
      <trkpt lat="42.6011840" lon="1.4229290">
        <ele>2411.1</ele>
        <time>2021-08-13T06:11:55Z</time>
      </trkpt>
      <trkpt lat="42.6011620" lon="1.4231530">
        <ele>2413.1</ele>
        <time>2021-08-13T06:12:19Z</time>
      </trkpt>
      <trkpt lat="42.6011840" lon="1.4233080">
        <ele>2414.4</ele>
        <time>2021-08-13T06:12:33Z</time>
      </trkpt>
      <trkpt lat="42.6011650" lon="1.4235580">
        <ele>2416.6</ele>
        <time>2021-08-13T06:12:56Z</time>
      </trkpt>
      <trkpt lat="42.6011640" lon="1.4238150">
        <ele>2418.9</ele>
        <time>2021-08-13T06:13:16Z</time>
      </trkpt>
      <trkpt lat="42.6011390" lon="1.4240600">
        <ele>2421.0</ele>
        <time>2021-08-13T06:13:39Z</time>
      </trkpt>
      <trkpt lat="42.6011340" lon="1.4241020">
        <ele>2421.4</ele>
        <time>2021-08-13T06:13:43Z</time>
      </trkpt>
      <trkpt lat="42.6010620" lon="1.4243090">
        <ele>2423.4</ele>
        <time>2021-08-13T06:14:03Z</time>
      </trkpt>
      <trkpt lat="42.6010350" lon="1.4243460">
        <ele>2423.9</ele>
        <time>2021-08-13T06:14:07Z</time>
      </trkpt>
      <trkpt lat="42.6009210" lon="1.4245290">
        <ele>2426.0</ele>
        <time>2021-08-13T06:14:26Z</time>
      </trkpt>
      <trkpt lat="42.6008110" lon="1.4247330">
        <ele>2428.2</ele>
        <time>2021-08-13T06:14:45Z</time>
      </trkpt>
      <trkpt lat="42.6007010" lon="1.4249240">
        <ele>2430.3</ele>
        <time>2021-08-13T06:15:06Z</time>
      </trkpt>
      <trkpt lat="42.6005970" lon="1.4251210">
        <ele>2432.4</ele>
        <time>2021-08-13T06:15:32Z</time>
      </trkpt>
      <trkpt lat="42.6005520" lon="1.4253450">
        <ele>2434.4</ele>
        <time>2021-08-13T06:16:00Z</time>
      </trkpt>
      <trkpt lat="42.6005670" lon="1.4253730">
        <ele>2434.7</ele>
        <time>2021-08-13T06:16:03Z</time>
      </trkpt>
      <trkpt lat="42.6005480" lon="1.4254340">
        <ele>2435.3</ele>
        <time>2021-08-13T06:16:08Z</time>
      </trkpt>
      <trkpt lat="42.6004070" lon="1.4254700">
        <ele>2437.0</ele>
        <time>2021-08-13T06:16:29Z</time>
      </trkpt>
      <trkpt lat="42.6003870" lon="1.4254420">
        <ele>2437.4</ele>
        <time>2021-08-13T06:16:32Z</time>
      </trkpt>
      <trkpt lat="42.6002290" lon="1.4253690">
        <ele>2439.4</ele>
        <time>2021-08-13T06:16:52Z</time>
      </trkpt>
      <trkpt lat="42.6001730" lon="1.4253820">
        <ele>2440.0</ele>
        <time>2021-08-13T06:16:58Z</time>
      </trkpt>
      <trkpt lat="42.6000340" lon="1.4255410">
        <ele>2442.2</ele>
        <time>2021-08-13T06:17:20Z</time>
      </trkpt>
      <trkpt lat="42.6000210" lon="1.4256120">
        <ele>2442.8</ele>
        <time>2021-08-13T06:17:26Z</time>
      </trkpt>
      <trkpt lat="42.6000130" lon="1.4256970">
        <ele>2443.6</ele>
        <time>2021-08-13T06:17:36Z</time>
      </trkpt>
      <trkpt lat="42.5999870" lon="1.4257540">
        <ele>2444.2</ele>
        <time>2021-08-13T06:17:43Z</time>
      </trkpt>
      <trkpt lat="42.5999380" lon="1.4258030">
        <ele>2444.9</ele>
        <time>2021-08-13T06:17:52Z</time>
      </trkpt>
      <trkpt lat="42.5999260" lon="1.4258110">
        <ele>2445.0</ele>
        <time>2021-08-13T06:17:54Z</time>
      </trkpt>
      <trkpt lat="42.5999240" lon="1.4258150">
        <ele>2445.1</ele>
        <time>2021-08-13T06:17:55Z</time>
      </trkpt>
      <trkpt lat="42.5998900" lon="1.4258770">
        <ele>2445.8</ele>
        <time>2021-08-13T06:18:03Z</time>
      </trkpt>
      <trkpt lat="42.5998840" lon="1.4258850">
        <ele>2445.9</ele>
        <time>2021-08-13T06:18:04Z</time>
      </trkpt>
      <trkpt lat="42.5998800" lon="1.4258910">
        <ele>2445.9</ele>
        <time>2021-08-13T06:18:05Z</time>
      </trkpt>
      <trkpt lat="42.5998500" lon="1.4259750">
        <ele>2446.7</ele>
        <time>2021-08-13T06:18:21Z</time>
      </trkpt>
      <trkpt lat="42.5998470" lon="1.4259840">
        <ele>2446.8</ele>
        <time>2021-08-13T06:18:22Z</time>
      </trkpt>
      <trkpt lat="42.5998440" lon="1.4260030">
        <ele>2447.0</ele>
        <time>2021-08-13T06:18:24Z</time>
      </trkpt>
      <trkpt lat="42.5998420" lon="1.4260110">
        <ele>2447.1</ele>
        <time>2021-08-13T06:18:25Z</time>
      </trkpt>
      <trkpt lat="42.5998410" lon="1.4260210">
        <ele>2447.2</ele>
        <time>2021-08-13T06:18:26Z</time>
      </trkpt>
      <trkpt lat="42.5998110" lon="1.4260500">
        <ele>2447.6</ele>
        <time>2021-08-13T06:18:35Z</time>
      </trkpt>
      <trkpt lat="42.5998070" lon="1.4260650">
        <ele>2447.7</ele>
        <time>2021-08-13T06:18:37Z</time>
      </trkpt>
      <trkpt lat="42.5996510" lon="1.4261830">
        <ele>2449.9</ele>
        <time>2021-08-13T06:18:56Z</time>
      </trkpt>
      <trkpt lat="42.5996280" lon="1.4261970">
        <ele>2450.2</ele>
        <time>2021-08-13T06:18:59Z</time>
      </trkpt>
      <trkpt lat="42.5995180" lon="1.4263880">
        <ele>2452.3</ele>
        <time>2021-08-13T06:19:16Z</time>
      </trkpt>
      <trkpt lat="42.5994670" lon="1.4264430">
        <ele>2453.1</ele>
        <time>2021-08-13T06:19:22Z</time>
      </trkpt>
      <trkpt lat="42.5992870" lon="1.4264710">
        <ele>2455.2</ele>
        <time>2021-08-13T06:19:40Z</time>
      </trkpt>
      <trkpt lat="42.5991570" lon="1.4265130">
        <ele>2456.8</ele>
        <time>2021-08-13T06:20:12Z</time>
      </trkpt>
      <trkpt lat="42.5990260" lon="1.4265180">
        <ele>2458.3</ele>
        <time>2021-08-13T06:20:26Z</time>
      </trkpt>
      <trkpt lat="42.5989650" lon="1.4265120">
        <ele>2459.1</ele>
        <time>2021-08-13T06:20:32Z</time>
      </trkpt>
      <trkpt lat="42.5987900" lon="1.4265250">
        <ele>2461.2</ele>
        <time>2021-08-13T06:20:51Z</time>
      </trkpt>
      <trkpt lat="42.5986530" lon="1.4265150">
        <ele>2462.8</ele>
        <time>2021-08-13T06:21:10Z</time>
      </trkpt>
      <trkpt lat="42.5984970" lon="1.4264890">
        <ele>2464.7</ele>
        <time>2021-08-13T06:21:33Z</time>
      </trkpt>
      <trkpt lat="42.5984890" lon="1.4264880">
        <ele>2464.7</ele>
        <time>2021-08-13T06:21:34Z</time>
      </trkpt>
      <trkpt lat="42.5984820" lon="1.4264850">
        <ele>2464.8</ele>
        <time>2021-08-13T06:21:35Z</time>
      </trkpt>
      <trkpt lat="42.5983130" lon="1.4264080">
        <ele>2467.0</ele>
        <time>2021-08-13T06:22:02Z</time>
      </trkpt>
      <trkpt lat="42.5983010" lon="1.4264110">
        <ele>2467.1</ele>
        <time>2021-08-13T06:22:08Z</time>
      </trkpt>
      <trkpt lat="42.5981850" lon="1.4264540">
        <ele>2468.5</ele>
        <time>2021-08-13T06:22:33Z</time>
      </trkpt>
      <trkpt lat="42.5980880" lon="1.4265490">
        <ele>2469.9</ele>
        <time>2021-08-13T06:22:50Z</time>
      </trkpt>
      <trkpt lat="42.5980490" lon="1.4266320">
        <ele>2470.8</ele>
        <time>2021-08-13T06:23:02Z</time>
      </trkpt>
      <trkpt lat="42.5980300" lon="1.4266630">
        <ele>2471.2</ele>
        <time>2021-08-13T06:23:09Z</time>
      </trkpt>
      <trkpt lat="42.5980280" lon="1.4267020">
        <ele>2471.5</ele>
        <time>2021-08-13T06:23:14Z</time>
      </trkpt>
      <trkpt lat="42.5980240" lon="1.4267120">
        <ele>2471.6</ele>
        <time>2021-08-13T06:23:16Z</time>
      </trkpt>
      <trkpt lat="42.5979490" lon="1.4267130">
        <ele>2472.5</ele>
        <time>2021-08-13T06:23:35Z</time>
      </trkpt>
      <trkpt lat="42.5979100" lon="1.4267810">
        <ele>2473.2</ele>
        <time>2021-08-13T06:23:42Z</time>
      </trkpt>
      <trkpt lat="42.5979030" lon="1.4267990">
        <ele>2473.4</ele>
        <time>2021-08-13T06:23:43Z</time>
      </trkpt>
      <trkpt lat="42.5977880" lon="1.4269900">
        <ele>2475.6</ele>
        <time>2021-08-13T06:24:04Z</time>
      </trkpt>
      <trkpt lat="42.5976670" lon="1.4271730">
        <ele>2477.7</ele>
        <time>2021-08-13T06:24:27Z</time>
      </trkpt>
      <trkpt lat="42.5975770" lon="1.4272450">
        <ele>2479.0</ele>
        <time>2021-08-13T06:24:43Z</time>
      </trkpt>
      <trkpt lat="42.5974390" lon="1.4274010">
        <ele>2479.3</ele>
        <time>2021-08-13T06:25:02Z</time>
      </trkpt>
      <trkpt lat="42.5973870" lon="1.4276220">
        <ele>2479.1</ele>
        <time>2021-08-13T06:25:23Z</time>
      </trkpt>
      <trkpt lat="42.5973550" lon="1.4276960">
        <ele>2478.8</ele>
        <time>2021-08-13T06:25:30Z</time>
      </trkpt>
      <trkpt lat="42.5971910" lon="1.4277910">
        <ele>2477.2</ele>
        <time>2021-08-13T06:25:54Z</time>
      </trkpt>
      <trkpt lat="42.5971790" lon="1.4278290">
        <ele>2476.9</ele>
        <time>2021-08-13T06:25:58Z</time>
      </trkpt>
      <trkpt lat="42.5971750" lon="1.4280400">
        <ele>2476.0</ele>
        <time>2021-08-13T06:26:30Z</time>
      </trkpt>
      <trkpt lat="42.5972430" lon="1.4281950">
        <ele>2476.9</ele>
        <time>2021-08-13T06:26:53Z</time>
      </trkpt>
      <trkpt lat="42.5972530" lon="1.4282310">
        <ele>2477.3</ele>
        <time>2021-08-13T06:26:59Z</time>
      </trkpt>
      <trkpt lat="42.5972790" lon="1.4283970">
        <ele>2479.7</ele>
        <time>2021-08-13T06:27:32Z</time>
      </trkpt>
      <trkpt lat="42.5972820" lon="1.4284340">
        <ele>2480.3</ele>
        <time>2021-08-13T06:27:37Z</time>
      </trkpt>
      <trkpt lat="42.5972930" lon="1.4284500">
        <ele>2480.7</ele>
        <time>2021-08-13T06:27:39Z</time>
      </trkpt>
      <trkpt lat="42.5973330" lon="1.4285880">
        <ele>2483.6</ele>
        <time>2021-08-13T06:28:03Z</time>
      </trkpt>
      <trkpt lat="42.5973420" lon="1.4286220">
        <ele>2484.3</ele>
        <time>2021-08-13T06:28:10Z</time>
      </trkpt>
      <trkpt lat="42.5973490" lon="1.4286500">
        <ele>2484.9</ele>
        <time>2021-08-13T06:28:16Z</time>
      </trkpt>
      <trkpt lat="42.5975170" lon="1.4286860">
        <ele>2489.3</ele>
        <time>2021-08-13T06:28:58Z</time>
      </trkpt>
      <trkpt lat="42.5975260" lon="1.4286920">
        <ele>2489.5</ele>
        <time>2021-08-13T06:29:01Z</time>
      </trkpt>
      <trkpt lat="42.5975280" lon="1.4286920">
        <ele>2489.6</ele>
        <time>2021-08-13T06:29:02Z</time>
      </trkpt>
      <trkpt lat="42.5975260" lon="1.4286910">
        <ele>2489.6</ele>
        <time>2021-08-13T06:29:03Z</time>
      </trkpt>
      <trkpt lat="42.5975660" lon="1.4287070">
        <ele>2490.7</ele>
        <time>2021-08-13T06:29:10Z</time>
      </trkpt>
      <trkpt lat="42.5975830" lon="1.4287350">
        <ele>2491.5</ele>
        <time>2021-08-13T06:29:25Z</time>
      </trkpt>
      <trkpt lat="42.5975590" lon="1.4287680">
        <ele>2492.4</ele>
        <time>2021-08-13T06:29:32Z</time>
      </trkpt>
      <trkpt lat="42.5975410" lon="1.4287970">
        <ele>2493.1</ele>
        <time>2021-08-13T06:29:37Z</time>
      </trkpt>
      <trkpt lat="42.5975130" lon="1.4289090">
        <ele>2495.3</ele>
        <time>2021-08-13T06:29:54Z</time>
      </trkpt>
      <trkpt lat="42.5975130" lon="1.4289100">
        <ele>2495.3</ele>
        <time>2021-08-13T06:29:55Z</time>
      </trkpt>
      <trkpt lat="42.5975110" lon="1.4289110">
        <ele>2495.3</ele>
        <time>2021-08-13T06:29:56Z</time>
      </trkpt>
      <trkpt lat="42.5975090" lon="1.4289140">
        <ele>2495.4</ele>
        <time>2021-08-13T06:29:57Z</time>
      </trkpt>
      <trkpt lat="42.5974970" lon="1.4289320">
        <ele>2495.7</ele>
        <time>2021-08-13T06:30:00Z</time>
      </trkpt>
      <trkpt lat="42.5975140" lon="1.4290080">
        <ele>2496.4</ele>
        <time>2021-08-13T06:30:13Z</time>
      </trkpt>
      <trkpt lat="42.5975180" lon="1.4290530">
        <ele>2496.6</ele>
        <time>2021-08-13T06:30:20Z</time>
      </trkpt>
      <trkpt lat="42.5975250" lon="1.4291530">
        <ele>2496.5</ele>
        <time>2021-08-13T06:30:32Z</time>
      </trkpt>
      <trkpt lat="42.5975470" lon="1.4292080">
        <ele>2496.3</ele>
        <time>2021-08-13T07:18:57Z</time>
      </trkpt>
      <trkpt lat="42.5975430" lon="1.4292010">
        <ele>2496.2</ele>
        <time>2021-08-13T07:18:58Z</time>
      </trkpt>
      <trkpt lat="42.5974870" lon="1.4291790">
        <ele>2495.8</ele>
        <time>2021-08-13T07:19:02Z</time>
      </trkpt>
      <trkpt lat="42.5974750" lon="1.4291760">
        <ele>2495.7</ele>
        <time>2021-08-13T07:19:03Z</time>
      </trkpt>
      <trkpt lat="42.5974650" lon="1.4291960">
        <ele>2495.5</ele>
        <time>2021-08-13T07:19:06Z</time>
      </trkpt>
      <trkpt lat="42.5974570" lon="1.4292160">
        <ele>2495.3</ele>
        <time>2021-08-13T07:19:08Z</time>
      </trkpt>
      <trkpt lat="42.5974520" lon="1.4292270">
        <ele>2495.2</ele>
        <time>2021-08-13T07:19:09Z</time>
      </trkpt>
      <trkpt lat="42.5974480" lon="1.4292370">
        <ele>2495.2</ele>
        <time>2021-08-13T07:19:10Z</time>
      </trkpt>
      <trkpt lat="42.5974430" lon="1.4292600">
        <ele>2495.0</ele>
        <time>2021-08-13T07:19:12Z</time>
      </trkpt>
      <trkpt lat="42.5974410" lon="1.4292730">
        <ele>2494.9</ele>
        <time>2021-08-13T07:19:13Z</time>
      </trkpt>
      <trkpt lat="42.5974390" lon="1.4292850">
        <ele>2494.8</ele>
        <time>2021-08-13T07:19:14Z</time>
      </trkpt>
      <trkpt lat="42.5974370" lon="1.4292970">
        <ele>2494.7</ele>
        <time>2021-08-13T07:19:15Z</time>
      </trkpt>
      <trkpt lat="42.5974410" lon="1.4293230">
        <ele>2494.5</ele>
        <time>2021-08-13T07:19:17Z</time>
      </trkpt>
      <trkpt lat="42.5974610" lon="1.4293800">
        <ele>2494.7</ele>
        <time>2021-08-13T07:19:22Z</time>
      </trkpt>
      <trkpt lat="42.5974640" lon="1.4293910">
        <ele>2494.7</ele>
        <time>2021-08-13T07:19:23Z</time>
      </trkpt>
      <trkpt lat="42.5974760" lon="1.4294220">
        <ele>2494.8</ele>
        <time>2021-08-13T07:19:25Z</time>
      </trkpt>
      <trkpt lat="42.5974790" lon="1.4294380">
        <ele>2494.9</ele>
        <time>2021-08-13T07:19:26Z</time>
      </trkpt>
      <trkpt lat="42.5974840" lon="1.4294510">
        <ele>2495.0</ele>
        <time>2021-08-13T07:19:27Z</time>
      </trkpt>
      <trkpt lat="42.5974440" lon="1.4296860">
        <ele>2495.6</ele>
        <time>2021-08-13T07:19:50Z</time>
      </trkpt>
      <trkpt lat="42.5974880" lon="1.4299230">
        <ele>2495.9</ele>
        <time>2021-08-13T07:20:09Z</time>
      </trkpt>
      <trkpt lat="42.5974630" lon="1.4301700">
        <ele>2496.2</ele>
        <time>2021-08-13T07:20:30Z</time>
      </trkpt>
      <trkpt lat="42.5974460" lon="1.4304120">
        <ele>2496.3</ele>
        <time>2021-08-13T07:20:51Z</time>
      </trkpt>
      <trkpt lat="42.5973790" lon="1.4305150">
        <ele>2496.2</ele>
        <time>2021-08-13T07:21:08Z</time>
      </trkpt>
      <trkpt lat="42.5973750" lon="1.4305200">
        <ele>2496.2</ele>
        <time>2021-08-13T07:21:41Z</time>
      </trkpt>
      <trkpt lat="42.5974340" lon="1.4304770">
        <ele>2495.8</ele>
        <time>2021-08-13T07:21:49Z</time>
      </trkpt>
      <trkpt lat="42.5974460" lon="1.4305540">
        <ele>2495.4</ele>
        <time>2021-08-13T07:22:02Z</time>
      </trkpt>
      <trkpt lat="42.5974470" lon="1.4306330">
        <ele>2494.9</ele>
        <time>2021-08-13T07:22:10Z</time>
      </trkpt>
      <trkpt lat="42.5974440" lon="1.4306980">
        <ele>2494.5</ele>
        <time>2021-08-13T07:22:15Z</time>
      </trkpt>
      <trkpt lat="42.5974440" lon="1.4307230">
        <ele>2494.3</ele>
        <time>2021-08-13T07:22:17Z</time>
      </trkpt>
      <trkpt lat="42.5974420" lon="1.4307850">
        <ele>2493.9</ele>
        <time>2021-08-13T07:22:25Z</time>
      </trkpt>
      <trkpt lat="42.5974410" lon="1.4308340">
        <ele>2493.6</ele>
        <time>2021-08-13T07:22:31Z</time>
      </trkpt>
      <trkpt lat="42.5974470" lon="1.4308750">
        <ele>2493.4</ele>
        <time>2021-08-13T07:22:35Z</time>
      </trkpt>
      <trkpt lat="42.5974470" lon="1.4308880">
        <ele>2493.4</ele>
        <time>2021-08-13T07:22:37Z</time>
      </trkpt>
      <trkpt lat="42.5974450" lon="1.4308920">
        <ele>2493.3</ele>
        <time>2021-08-13T07:22:38Z</time>
      </trkpt>
      <trkpt lat="42.5974450" lon="1.4308960">
        <ele>2493.3</ele>
        <time>2021-08-13T07:22:39Z</time>
      </trkpt>
      <trkpt lat="42.5974570" lon="1.4309240">
        <ele>2493.1</ele>
        <time>2021-08-13T07:22:55Z</time>
      </trkpt>
      <trkpt lat="42.5974460" lon="1.4308870">
        <ele>2492.9</ele>
        <time>2021-08-13T07:23:15Z</time>
      </trkpt>
      <trkpt lat="42.5974420" lon="1.4309360">
        <ele>2492.7</ele>
        <time>2021-08-13T07:23:35Z</time>
      </trkpt>
      <trkpt lat="42.5974340" lon="1.4309770">
        <ele>2492.4</ele>
        <time>2021-08-13T07:23:45Z</time>
      </trkpt>
      <trkpt lat="42.5974350" lon="1.4309800">
        <ele>2492.4</ele>
        <time>2021-08-13T07:23:48Z</time>
      </trkpt>
      <trkpt lat="42.5974320" lon="1.4309790">
        <ele>2492.4</ele>
        <time>2021-08-13T07:23:49Z</time>
      </trkpt>
      <trkpt lat="42.5974360" lon="1.4309800">
        <ele>2492.3</ele>
        <time>2021-08-13T07:23:56Z</time>
      </trkpt>
      <trkpt lat="42.5974380" lon="1.4309800">
        <ele>2492.3</ele>
        <time>2021-08-13T07:23:57Z</time>
      </trkpt>
      <trkpt lat="42.5974570" lon="1.4309780">
        <ele>2492.1</ele>
        <time>2021-08-13T07:24:18Z</time>
      </trkpt>
      <trkpt lat="42.5975250" lon="1.4310930">
        <ele>2490.7</ele>
        <time>2021-08-13T07:24:36Z</time>
      </trkpt>
      <trkpt lat="42.5975700" lon="1.4311270">
        <ele>2489.8</ele>
        <time>2021-08-13T07:24:47Z</time>
      </trkpt>
      <trkpt lat="42.5975760" lon="1.4311340">
        <ele>2489.7</ele>
        <time>2021-08-13T07:24:49Z</time>
      </trkpt>
      <trkpt lat="42.5975890" lon="1.4311530">
        <ele>2489.3</ele>
        <time>2021-08-13T07:24:54Z</time>
      </trkpt>
      <trkpt lat="42.5975960" lon="1.4311690">
        <ele>2489.1</ele>
        <time>2021-08-13T07:24:56Z</time>
      </trkpt>
      <trkpt lat="42.5976090" lon="1.4312080">
        <ele>2488.5</ele>
        <time>2021-08-13T07:25:09Z</time>
      </trkpt>
      <trkpt lat="42.5976160" lon="1.4312190">
        <ele>2488.3</ele>
        <time>2021-08-13T07:25:10Z</time>
      </trkpt>
      <trkpt lat="42.5976280" lon="1.4312270">
        <ele>2488.1</ele>
        <time>2021-08-13T07:25:12Z</time>
      </trkpt>
      <trkpt lat="42.5976430" lon="1.4312350">
        <ele>2487.9</ele>
        <time>2021-08-13T07:25:14Z</time>
      </trkpt>
      <trkpt lat="42.5976490" lon="1.4312390">
        <ele>2487.8</ele>
        <time>2021-08-13T07:25:15Z</time>
      </trkpt>
      <trkpt lat="42.5976520" lon="1.4312400">
        <ele>2487.7</ele>
        <time>2021-08-13T07:25:16Z</time>
      </trkpt>
      <trkpt lat="42.5976560" lon="1.4312440">
        <ele>2487.6</ele>
        <time>2021-08-13T07:25:17Z</time>
      </trkpt>
      <trkpt lat="42.5976580" lon="1.4312470">
        <ele>2487.6</ele>
        <time>2021-08-13T07:25:18Z</time>
      </trkpt>
      <trkpt lat="42.5976570" lon="1.4312650">
        <ele>2487.4</ele>
        <time>2021-08-13T07:25:21Z</time>
      </trkpt>
      <trkpt lat="42.5976580" lon="1.4312740">
        <ele>2487.3</ele>
        <time>2021-08-13T07:25:24Z</time>
      </trkpt>
      <trkpt lat="42.5976540" lon="1.4313020">
        <ele>2487.1</ele>
        <time>2021-08-13T07:25:29Z</time>
      </trkpt>
      <trkpt lat="42.5976610" lon="1.4313110">
        <ele>2486.9</ele>
        <time>2021-08-13T07:25:31Z</time>
      </trkpt>
      <trkpt lat="42.5976810" lon="1.4313350">
        <ele>2486.7</ele>
        <time>2021-08-13T07:25:41Z</time>
      </trkpt>
      <trkpt lat="42.5976870" lon="1.4313500">
        <ele>2486.6</ele>
        <time>2021-08-13T07:25:44Z</time>
      </trkpt>
      <trkpt lat="42.5977310" lon="1.4314190">
        <ele>2486.1</ele>
        <time>2021-08-13T07:26:01Z</time>
      </trkpt>
      <trkpt lat="42.5977390" lon="1.4314640">
        <ele>2486.0</ele>
        <time>2021-08-13T07:26:12Z</time>
      </trkpt>
      <trkpt lat="42.5978530" lon="1.4316160">
        <ele>2485.9</ele>
        <time>2021-08-13T07:26:47Z</time>
      </trkpt>
      <trkpt lat="42.5978660" lon="1.4316500">
        <ele>2486.0</ele>
        <time>2021-08-13T07:26:51Z</time>
      </trkpt>
      <trkpt lat="42.5978650" lon="1.4317110">
        <ele>2486.1</ele>
        <time>2021-08-13T07:26:56Z</time>
      </trkpt>
      <trkpt lat="42.5978630" lon="1.4317220">
        <ele>2486.2</ele>
        <time>2021-08-13T07:26:57Z</time>
      </trkpt>
      <trkpt lat="42.5978720" lon="1.4318030">
        <ele>2486.5</ele>
        <time>2021-08-13T07:27:06Z</time>
      </trkpt>
      <trkpt lat="42.5978700" lon="1.4318180">
        <ele>2486.6</ele>
        <time>2021-08-13T07:27:07Z</time>
      </trkpt>
      <trkpt lat="42.5978690" lon="1.4318320">
        <ele>2486.6</ele>
        <time>2021-08-13T07:27:08Z</time>
      </trkpt>
      <trkpt lat="42.5978710" lon="1.4318580">
        <ele>2486.8</ele>
        <time>2021-08-13T07:27:10Z</time>
      </trkpt>
      <trkpt lat="42.5978730" lon="1.4318910">
        <ele>2487.0</ele>
        <time>2021-08-13T07:27:13Z</time>
      </trkpt>
      <trkpt lat="42.5978590" lon="1.4319510">
        <ele>2487.5</ele>
        <time>2021-08-13T07:27:18Z</time>
      </trkpt>
      <trkpt lat="42.5978320" lon="1.4319940">
        <ele>2488.0</ele>
        <time>2021-08-13T07:27:22Z</time>
      </trkpt>
      <trkpt lat="42.5978210" lon="1.4320390">
        <ele>2488.4</ele>
        <time>2021-08-13T07:27:26Z</time>
      </trkpt>
      <trkpt lat="42.5978210" lon="1.4320460">
        <ele>2488.5</ele>
        <time>2021-08-13T07:27:27Z</time>
      </trkpt>
      <trkpt lat="42.5977040" lon="1.4322350">
        <ele>2491.4</ele>
        <time>2021-08-13T07:27:49Z</time>
      </trkpt>
      <trkpt lat="42.5976400" lon="1.4323020">
        <ele>2492.7</ele>
        <time>2021-08-13T07:27:57Z</time>
      </trkpt>
      <trkpt lat="42.5975880" lon="1.4323670">
        <ele>2493.8</ele>
        <time>2021-08-13T07:28:06Z</time>
      </trkpt>
      <trkpt lat="42.5975810" lon="1.4323730">
        <ele>2494.0</ele>
        <time>2021-08-13T07:28:07Z</time>
      </trkpt>
      <trkpt lat="42.5975740" lon="1.4323810">
        <ele>2494.1</ele>
        <time>2021-08-13T07:28:08Z</time>
      </trkpt>
      <trkpt lat="42.5975600" lon="1.4323960">
        <ele>2494.4</ele>
        <time>2021-08-13T07:28:10Z</time>
      </trkpt>
      <trkpt lat="42.5975540" lon="1.4324010">
        <ele>2494.5</ele>
        <time>2021-08-13T07:28:11Z</time>
      </trkpt>
      <trkpt lat="42.5975490" lon="1.4324040">
        <ele>2494.6</ele>
        <time>2021-08-13T07:28:12Z</time>
      </trkpt>
      <trkpt lat="42.5975350" lon="1.4323970">
        <ele>2494.8</ele>
        <time>2021-08-13T07:28:14Z</time>
      </trkpt>
      <trkpt lat="42.5975280" lon="1.4323960">
        <ele>2495.0</ele>
        <time>2021-08-13T07:28:17Z</time>
      </trkpt>
      <trkpt lat="42.5975170" lon="1.4323870">
        <ele>2495.2</ele>
        <time>2021-08-13T07:28:19Z</time>
      </trkpt>
      <trkpt lat="42.5975010" lon="1.4323670">
        <ele>2495.5</ele>
        <time>2021-08-13T07:28:21Z</time>
      </trkpt>
      <trkpt lat="42.5974930" lon="1.4323830">
        <ele>2495.7</ele>
        <time>2021-08-13T07:28:24Z</time>
      </trkpt>
      <trkpt lat="42.5974580" lon="1.4324600">
        <ele>2496.8</ele>
        <time>2021-08-13T07:28:31Z</time>
      </trkpt>
      <trkpt lat="42.5974070" lon="1.4325270">
        <ele>2497.9</ele>
        <time>2021-08-13T07:28:39Z</time>
      </trkpt>
      <trkpt lat="42.5973860" lon="1.4325760">
        <ele>2498.6</ele>
        <time>2021-08-13T07:28:43Z</time>
      </trkpt>
      <trkpt lat="42.5973720" lon="1.4326050">
        <ele>2499.0</ele>
        <time>2021-08-13T07:28:46Z</time>
      </trkpt>
      <trkpt lat="42.5972270" lon="1.4327590">
        <ele>2502.0</ele>
        <time>2021-08-13T07:29:03Z</time>
      </trkpt>
      <trkpt lat="42.5971840" lon="1.4328290">
        <ele>2503.0</ele>
        <time>2021-08-13T07:29:12Z</time>
      </trkpt>
      <trkpt lat="42.5971760" lon="1.4328380">
        <ele>2503.2</ele>
        <time>2021-08-13T07:29:17Z</time>
      </trkpt>
      <trkpt lat="42.5971890" lon="1.4328450">
        <ele>2503.4</ele>
        <time>2021-08-13T07:29:27Z</time>
      </trkpt>
      <trkpt lat="42.5971920" lon="1.4328470">
        <ele>2503.5</ele>
        <time>2021-08-13T07:29:33Z</time>
      </trkpt>
      <trkpt lat="42.5971500" lon="1.4328980">
        <ele>2504.4</ele>
        <time>2021-08-13T07:29:46Z</time>
      </trkpt>
      <trkpt lat="42.5969990" lon="1.4329490">
        <ele>2506.9</ele>
        <time>2021-08-13T07:30:23Z</time>
      </trkpt>
      <trkpt lat="42.5969540" lon="1.4329450">
        <ele>2507.6</ele>
        <time>2021-08-13T07:30:30Z</time>
      </trkpt>
      <trkpt lat="42.5968460" lon="1.4329550">
        <ele>2509.3</ele>
        <time>2021-08-13T07:30:50Z</time>
      </trkpt>
      <trkpt lat="42.5967780" lon="1.4329460">
        <ele>2510.4</ele>
        <time>2021-08-13T07:31:06Z</time>
      </trkpt>
      <trkpt lat="42.5967690" lon="1.4329310">
        <ele>2510.6</ele>
        <time>2021-08-13T07:31:13Z</time>
      </trkpt>
      <trkpt lat="42.5967000" lon="1.4329040">
        <ele>2511.8</ele>
        <time>2021-08-13T07:31:29Z</time>
      </trkpt>
      <trkpt lat="42.5966690" lon="1.4328550">
        <ele>2512.6</ele>
        <time>2021-08-13T07:31:35Z</time>
      </trkpt>
      <trkpt lat="42.5966630" lon="1.4328230">
        <ele>2512.9</ele>
        <time>2021-08-13T07:31:39Z</time>
      </trkpt>
      <trkpt lat="42.5966380" lon="1.4327880">
        <ele>2513.5</ele>
        <time>2021-08-13T07:31:46Z</time>
      </trkpt>
      <trkpt lat="42.5966330" lon="1.4327920">
        <ele>2513.6</ele>
        <time>2021-08-13T07:31:47Z</time>
      </trkpt>
      <trkpt lat="42.5966170" lon="1.4327960">
        <ele>2513.9</ele>
        <time>2021-08-13T07:31:53Z</time>
      </trkpt>
      <trkpt lat="42.5966140" lon="1.4327940">
        <ele>2513.9</ele>
        <time>2021-08-13T07:31:54Z</time>
      </trkpt>
      <trkpt lat="42.5966090" lon="1.4327940">
        <ele>2514.0</ele>
        <time>2021-08-13T07:31:55Z</time>
      </trkpt>
      <trkpt lat="42.5965960" lon="1.4327910">
        <ele>2514.2</ele>
        <time>2021-08-13T07:31:58Z</time>
      </trkpt>
      <trkpt lat="42.5965860" lon="1.4327690">
        <ele>2514.5</ele>
        <time>2021-08-13T07:32:02Z</time>
      </trkpt>
      <trkpt lat="42.5965810" lon="1.4327600">
        <ele>2514.7</ele>
        <time>2021-08-13T07:32:05Z</time>
      </trkpt>
      <trkpt lat="42.5965660" lon="1.4327400">
        <ele>2515.0</ele>
        <time>2021-08-13T07:32:09Z</time>
      </trkpt>
      <trkpt lat="42.5965540" lon="1.4327130">
        <ele>2515.4</ele>
        <time>2021-08-13T07:32:14Z</time>
      </trkpt>
      <trkpt lat="42.5965420" lon="1.4327160">
        <ele>2515.6</ele>
        <time>2021-08-13T07:32:16Z</time>
      </trkpt>
      <trkpt lat="42.5965340" lon="1.4327220">
        <ele>2515.7</ele>
        <time>2021-08-13T07:32:18Z</time>
      </trkpt>
      <trkpt lat="42.5965290" lon="1.4327210">
        <ele>2515.8</ele>
        <time>2021-08-13T07:32:19Z</time>
      </trkpt>
      <trkpt lat="42.5965210" lon="1.4327220">
        <ele>2515.9</ele>
        <time>2021-08-13T07:32:23Z</time>
      </trkpt>
      <trkpt lat="42.5965090" lon="1.4327170">
        <ele>2516.1</ele>
        <time>2021-08-13T07:32:25Z</time>
      </trkpt>
      <trkpt lat="42.5964870" lon="1.4327020">
        <ele>2516.5</ele>
        <time>2021-08-13T07:32:29Z</time>
      </trkpt>
      <trkpt lat="42.5964780" lon="1.4326920">
        <ele>2516.7</ele>
        <time>2021-08-13T07:32:31Z</time>
      </trkpt>
      <trkpt lat="42.5964740" lon="1.4326880">
        <ele>2516.8</ele>
        <time>2021-08-13T07:32:32Z</time>
      </trkpt>
      <trkpt lat="42.5964670" lon="1.4326800">
        <ele>2516.9</ele>
        <time>2021-08-13T07:32:33Z</time>
      </trkpt>
      <trkpt lat="42.5964610" lon="1.4326690">
        <ele>2517.1</ele>
        <time>2021-08-13T07:32:34Z</time>
      </trkpt>
      <trkpt lat="42.5963620" lon="1.4326870">
        <ele>2518.7</ele>
        <time>2021-08-13T07:32:54Z</time>
      </trkpt>
      <trkpt lat="42.5963540" lon="1.4326840">
        <ele>2518.8</ele>
        <time>2021-08-13T07:32:55Z</time>
      </trkpt>
      <trkpt lat="42.5963340" lon="1.4326740">
        <ele>2519.2</ele>
        <time>2021-08-13T07:33:03Z</time>
      </trkpt>
      <trkpt lat="42.5963340" lon="1.4326740">
        <ele>2519.2</ele>
        <time>2021-08-13T07:33:04Z</time>
      </trkpt>
      <trkpt lat="42.5963340" lon="1.4326740">
        <ele>2519.2</ele>
        <time>2021-08-13T07:33:05Z</time>
      </trkpt>
      <trkpt lat="42.5963080" lon="1.4326880">
        <ele>2519.6</ele>
        <time>2021-08-13T07:33:12Z</time>
      </trkpt>
      <trkpt lat="42.5962310" lon="1.4327620">
        <ele>2521.1</ele>
        <time>2021-08-13T07:33:28Z</time>
      </trkpt>
      <trkpt lat="42.5961850" lon="1.4328450">
        <ele>2522.3</ele>
        <time>2021-08-13T07:33:49Z</time>
      </trkpt>
      <trkpt lat="42.5960860" lon="1.4330360">
        <ele>2525.1</ele>
        <time>2021-08-13T07:34:33Z</time>
      </trkpt>
      <trkpt lat="42.5961200" lon="1.4332710">
        <ele>2527.9</ele>
        <time>2021-08-13T07:35:14Z</time>
      </trkpt>
      <trkpt lat="42.5961060" lon="1.4335170">
        <ele>2530.8</ele>
        <time>2021-08-13T07:35:52Z</time>
      </trkpt>
      <trkpt lat="42.5960710" lon="1.4335770">
        <ele>2531.7</ele>
        <time>2021-08-13T07:36:16Z</time>
      </trkpt>
      <trkpt lat="42.5961240" lon="1.4336300">
        <ele>2532.8</ele>
        <time>2021-08-13T07:36:44Z</time>
      </trkpt>
      <trkpt lat="42.5961150" lon="1.4336700">
        <ele>2533.3</ele>
        <time>2021-08-13T07:37:01Z</time>
      </trkpt>
      <trkpt lat="42.5961090" lon="1.4337220">
        <ele>2533.9</ele>
        <time>2021-08-13T07:37:13Z</time>
      </trkpt>
      <trkpt lat="42.5961060" lon="1.4337410">
        <ele>2534.1</ele>
        <time>2021-08-13T07:37:22Z</time>
      </trkpt>
      <trkpt lat="42.5961300" lon="1.4337730">
        <ele>2534.7</ele>
        <time>2021-08-13T07:37:33Z</time>
      </trkpt>
      <trkpt lat="42.5961290" lon="1.4337760">
        <ele>2534.7</ele>
        <time>2021-08-13T07:37:35Z</time>
      </trkpt>
      <trkpt lat="42.5961280" lon="1.4337830">
        <ele>2534.8</ele>
        <time>2021-08-13T07:37:36Z</time>
      </trkpt>
      <trkpt lat="42.5961290" lon="1.4337870">
        <ele>2534.8</ele>
        <time>2021-08-13T07:37:37Z</time>
      </trkpt>
      <trkpt lat="42.5961290" lon="1.4337980">
        <ele>2535.0</ele>
        <time>2021-08-13T07:37:39Z</time>
      </trkpt>
      <trkpt lat="42.5961280" lon="1.4338470">
        <ele>2535.5</ele>
        <time>2021-08-13T07:37:51Z</time>
      </trkpt>
      <trkpt lat="42.5961890" lon="1.4338800">
        <ele>2536.6</ele>
        <time>2021-08-13T07:38:11Z</time>
      </trkpt>
      <trkpt lat="42.5962020" lon="1.4339460">
        <ele>2537.4</ele>
        <time>2021-08-13T07:38:24Z</time>
      </trkpt>
      <trkpt lat="42.5962020" lon="1.4339500">
        <ele>2537.4</ele>
        <time>2021-08-13T07:38:25Z</time>
      </trkpt>
      <trkpt lat="42.5962020" lon="1.4339570">
        <ele>2537.5</ele>
        <time>2021-08-13T07:38:26Z</time>
      </trkpt>
      <trkpt lat="42.5962030" lon="1.4339750">
        <ele>2537.7</ele>
        <time>2021-08-13T07:38:32Z</time>
      </trkpt>
      <trkpt lat="42.5962040" lon="1.4339910">
        <ele>2537.9</ele>
        <time>2021-08-13T07:38:35Z</time>
      </trkpt>
      <trkpt lat="42.5962080" lon="1.4340080">
        <ele>2538.1</ele>
        <time>2021-08-13T07:38:40Z</time>
      </trkpt>
      <trkpt lat="42.5961950" lon="1.4340340">
        <ele>2538.5</ele>
        <time>2021-08-13T07:38:46Z</time>
      </trkpt>
      <trkpt lat="42.5962370" lon="1.4342100">
        <ele>2540.7</ele>
        <time>2021-08-13T07:39:26Z</time>
      </trkpt>
      <trkpt lat="42.5962340" lon="1.4344510">
        <ele>2543.5</ele>
        <time>2021-08-13T07:40:02Z</time>
      </trkpt>
      <trkpt lat="42.5961790" lon="1.4346670">
        <ele>2546.2</ele>
        <time>2021-08-13T07:40:35Z</time>
      </trkpt>
      <trkpt lat="42.5961350" lon="1.4347160">
        <ele>2547.1</ele>
        <time>2021-08-13T07:40:50Z</time>
      </trkpt>
      <trkpt lat="42.5961330" lon="1.4347120">
        <ele>2547.2</ele>
        <time>2021-08-13T07:41:14Z</time>
      </trkpt>
      <trkpt lat="42.5961050" lon="1.4347890">
        <ele>2548.2</ele>
        <time>2021-08-13T07:41:31Z</time>
      </trkpt>
      <trkpt lat="42.5960930" lon="1.4349090">
        <ele>2549.6</ele>
        <time>2021-08-13T07:41:44Z</time>
      </trkpt>
      <trkpt lat="42.5960830" lon="1.4349360">
        <ele>2550.0</ele>
        <time>2021-08-13T07:41:46Z</time>
      </trkpt>
      <trkpt lat="42.5960770" lon="1.4349590">
        <ele>2550.3</ele>
        <time>2021-08-13T07:41:48Z</time>
      </trkpt>
      <trkpt lat="42.5960480" lon="1.4350560">
        <ele>2551.5</ele>
        <time>2021-08-13T07:41:55Z</time>
      </trkpt>
      <trkpt lat="42.5960400" lon="1.4350840">
        <ele>2551.9</ele>
        <time>2021-08-13T07:41:57Z</time>
      </trkpt>
      <trkpt lat="42.5960380" lon="1.4351000">
        <ele>2552.1</ele>
        <time>2021-08-13T07:41:58Z</time>
      </trkpt>
      <trkpt lat="42.5960190" lon="1.4351930">
        <ele>2553.2</ele>
        <time>2021-08-13T07:42:04Z</time>
      </trkpt>
      <trkpt lat="42.5960120" lon="1.4352470">
        <ele>2553.8</ele>
        <time>2021-08-13T07:42:09Z</time>
      </trkpt>
      <trkpt lat="42.5960110" lon="1.4352610">
        <ele>2554.0</ele>
        <time>2021-08-13T07:42:10Z</time>
      </trkpt>
      <trkpt lat="42.5960290" lon="1.4353100">
        <ele>2554.6</ele>
        <time>2021-08-13T07:42:14Z</time>
      </trkpt>
      <trkpt lat="42.5960290" lon="1.4353460">
        <ele>2555.1</ele>
        <time>2021-08-13T07:42:17Z</time>
      </trkpt>
      <trkpt lat="42.5960260" lon="1.4353570">
        <ele>2555.2</ele>
        <time>2021-08-13T07:42:18Z</time>
      </trkpt>
      <trkpt lat="42.5960020" lon="1.4353980">
        <ele>2555.8</ele>
        <time>2021-08-13T07:42:23Z</time>
      </trkpt>
      <trkpt lat="42.5959910" lon="1.4354380">
        <ele>2556.3</ele>
        <time>2021-08-13T07:42:27Z</time>
      </trkpt>
      <trkpt lat="42.5959160" lon="1.4356460">
        <ele>2559.1</ele>
        <time>2021-08-13T07:43:03Z</time>
      </trkpt>
      <trkpt lat="42.5959030" lon="1.4357580">
        <ele>2560.4</ele>
        <time>2021-08-13T07:43:23Z</time>
      </trkpt>
      <trkpt lat="42.5957990" lon="1.4358970">
        <ele>2562.7</ele>
        <time>2021-08-13T07:44:05Z</time>
      </trkpt>
      <trkpt lat="42.5956590" lon="1.4359510">
        <ele>2565.1</ele>
        <time>2021-08-13T07:44:50Z</time>
      </trkpt>
      <trkpt lat="42.5956090" lon="1.4359060">
        <ele>2566.0</ele>
        <time>2021-08-13T07:44:57Z</time>
      </trkpt>
      <trkpt lat="42.5955810" lon="1.4358800">
        <ele>2566.6</ele>
        <time>2021-08-13T07:45:00Z</time>
      </trkpt>
      <trkpt lat="42.5955690" lon="1.4358690">
        <ele>2566.8</ele>
        <time>2021-08-13T07:45:01Z</time>
      </trkpt>
      <trkpt lat="42.5955040" lon="1.4357620">
        <ele>2568.4</ele>
        <time>2021-08-13T07:45:11Z</time>
      </trkpt>
      <trkpt lat="42.5954640" lon="1.4356970">
        <ele>2569.4</ele>
        <time>2021-08-13T07:45:18Z</time>
      </trkpt>
      <trkpt lat="42.5954170" lon="1.4356930">
        <ele>2570.2</ele>
        <time>2021-08-13T07:45:28Z</time>
      </trkpt>
      <trkpt lat="42.5953340" lon="1.4356380">
        <ele>2571.7</ele>
        <time>2021-08-13T07:45:40Z</time>
      </trkpt>
      <trkpt lat="42.5952690" lon="1.4357120">
        <ele>2573.0</ele>
        <time>2021-08-13T07:45:51Z</time>
      </trkpt>
      <trkpt lat="42.5951660" lon="1.4358940">
        <ele>2578.6</ele>
        <time>2021-08-13T07:46:15Z</time>
      </trkpt>
      <trkpt lat="42.5951520" lon="1.4359670">
        <ele>2580.8</ele>
        <time>2021-08-13T07:46:30Z</time>
      </trkpt>
      <trkpt lat="42.5950710" lon="1.4361730">
        <ele>2587.5</ele>
        <time>2021-08-13T07:46:59Z</time>
      </trkpt>
      <trkpt lat="42.5950240" lon="1.4361910">
        <ele>2589.4</ele>
        <time>2021-08-13T07:47:17Z</time>
      </trkpt>
      <trkpt lat="42.5950290" lon="1.4361900">
        <ele>2589.6</ele>
        <time>2021-08-13T07:47:26Z</time>
      </trkpt>
      <trkpt lat="42.5950370" lon="1.4361990">
        <ele>2590.0</ele>
        <time>2021-08-13T07:47:54Z</time>
      </trkpt>
      <trkpt lat="42.5950360" lon="1.4362170">
        <ele>2590.5</ele>
        <time>2021-08-13T07:48:00Z</time>
      </trkpt>
      <trkpt lat="42.5950280" lon="1.4362350">
        <ele>2591.1</ele>
        <time>2021-08-13T07:48:05Z</time>
      </trkpt>
      <trkpt lat="42.5950160" lon="1.4362530">
        <ele>2591.8</ele>
        <time>2021-08-13T07:48:13Z</time>
      </trkpt>
      <trkpt lat="42.5950330" lon="1.4363150">
        <ele>2593.7</ele>
        <time>2021-08-13T07:48:27Z</time>
      </trkpt>
      <trkpt lat="42.5950300" lon="1.4363320">
        <ele>2594.2</ele>
        <time>2021-08-13T07:48:30Z</time>
      </trkpt>
      <trkpt lat="42.5950300" lon="1.4363420">
        <ele>2594.5</ele>
        <time>2021-08-13T07:48:32Z</time>
      </trkpt>
      <trkpt lat="42.5950420" lon="1.4363540">
        <ele>2595.1</ele>
        <time>2021-08-13T07:48:36Z</time>
      </trkpt>
      <trkpt lat="42.5950450" lon="1.4363560">
        <ele>2595.2</ele>
        <time>2021-08-13T07:48:37Z</time>
      </trkpt>
      <trkpt lat="42.5950330" lon="1.4363460">
        <ele>2595.7</ele>
        <time>2021-08-13T07:48:42Z</time>
      </trkpt>
      <trkpt lat="42.5950280" lon="1.4363510">
        <ele>2596.0</ele>
        <time>2021-08-13T07:48:43Z</time>
      </trkpt>
      <trkpt lat="42.5950060" lon="1.4363810">
        <ele>2597.2</ele>
        <time>2021-08-13T07:48:48Z</time>
      </trkpt>
      <trkpt lat="42.5950000" lon="1.4363900">
        <ele>2597.5</ele>
        <time>2021-08-13T07:48:52Z</time>
      </trkpt>
      <trkpt lat="42.5949800" lon="1.4364260">
        <ele>2598.8</ele>
        <time>2021-08-13T07:48:58Z</time>
      </trkpt>
      <trkpt lat="42.5949560" lon="1.4364440">
        <ele>2599.9</ele>
        <time>2021-08-13T07:49:03Z</time>
      </trkpt>
      <trkpt lat="42.5949490" lon="1.4364510">
        <ele>2600.2</ele>
        <time>2021-08-13T07:49:05Z</time>
      </trkpt>
      <trkpt lat="42.5949370" lon="1.4364530">
        <ele>2600.7</ele>
        <time>2021-08-13T07:49:08Z</time>
      </trkpt>
      <trkpt lat="42.5949210" lon="1.4364390">
        <ele>2601.4</ele>
        <time>2021-08-13T07:49:15Z</time>
      </trkpt>
      <trkpt lat="42.5948910" lon="1.4364840">
        <ele>2603.2</ele>
        <time>2021-08-13T07:49:28Z</time>
      </trkpt>
      <trkpt lat="42.5948520" lon="1.4365170">
        <ele>2605.0</ele>
        <time>2021-08-13T07:49:39Z</time>
      </trkpt>
      <trkpt lat="42.5948380" lon="1.4365490">
        <ele>2606.0</ele>
        <time>2021-08-13T07:49:46Z</time>
      </trkpt>
      <trkpt lat="42.5948420" lon="1.4365570">
        <ele>2606.3</ele>
        <time>2021-08-13T07:49:49Z</time>
      </trkpt>
      <trkpt lat="42.5948420" lon="1.4365600">
        <ele>2606.4</ele>
        <time>2021-08-13T07:49:50Z</time>
      </trkpt>
      <trkpt lat="42.5948140" lon="1.4365530">
        <ele>2607.5</ele>
        <time>2021-08-13T07:49:56Z</time>
      </trkpt>
      <trkpt lat="42.5948080" lon="1.4365560">
        <ele>2607.7</ele>
        <time>2021-08-13T07:49:57Z</time>
      </trkpt>
      <trkpt lat="42.5947960" lon="1.4366020">
        <ele>2609.1</ele>
        <time>2021-08-13T07:50:06Z</time>
      </trkpt>
      <trkpt lat="42.5947840" lon="1.4366290">
        <ele>2610.0</ele>
        <time>2021-08-13T07:50:11Z</time>
      </trkpt>
      <trkpt lat="42.5947760" lon="1.4366520">
        <ele>2610.8</ele>
        <time>2021-08-13T07:50:15Z</time>
      </trkpt>
      <trkpt lat="42.5947770" lon="1.4366580">
        <ele>2610.9</ele>
        <time>2021-08-13T07:50:19Z</time>
      </trkpt>
      <trkpt lat="42.5947140" lon="1.4366940">
        <ele>2613.6</ele>
        <time>2021-08-13T07:50:47Z</time>
      </trkpt>
      <trkpt lat="42.5946980" lon="1.4367120">
        <ele>2614.4</ele>
        <time>2021-08-13T07:50:53Z</time>
      </trkpt>
      <trkpt lat="42.5946740" lon="1.4367400">
        <ele>2615.6</ele>
        <time>2021-08-13T07:51:00Z</time>
      </trkpt>
      <trkpt lat="42.5946220" lon="1.4367700">
        <ele>2617.8</ele>
        <time>2021-08-13T07:51:15Z</time>
      </trkpt>
      <trkpt lat="42.5946330" lon="1.4368050">
        <ele>2618.9</ele>
        <time>2021-08-13T07:51:22Z</time>
      </trkpt>
      <trkpt lat="42.5946170" lon="1.4368560">
        <ele>2620.5</ele>
        <time>2021-08-13T07:51:35Z</time>
      </trkpt>
      <trkpt lat="42.5945170" lon="1.4369430">
        <ele>2625.1</ele>
        <time>2021-08-13T07:52:29Z</time>
      </trkpt>
      <trkpt lat="42.5944180" lon="1.4369380">
        <ele>2629.0</ele>
        <time>2021-08-13T07:52:51Z</time>
      </trkpt>
      <trkpt lat="42.5942410" lon="1.4369300">
        <ele>2635.8</ele>
        <time>2021-08-13T07:53:28Z</time>
      </trkpt>
      <trkpt lat="42.5940620" lon="1.4369110">
        <ele>2642.8</ele>
        <time>2021-08-13T07:54:06Z</time>
      </trkpt>
      <trkpt lat="42.5940140" lon="1.4369760">
        <ele>2645.5</ele>
        <time>2021-08-13T07:54:21Z</time>
      </trkpt>
      <trkpt lat="42.5940260" lon="1.4370170">
        <ele>2646.7</ele>
        <time>2021-08-13T07:54:41Z</time>
      </trkpt>
      <trkpt lat="42.5940210" lon="1.4370750">
        <ele>2648.4</ele>
        <time>2021-08-13T07:54:51Z</time>
      </trkpt>
      <trkpt lat="42.5940460" lon="1.4371270">
        <ele>2650.2</ele>
        <time>2021-08-13T07:55:03Z</time>
      </trkpt>
      <trkpt lat="42.5940470" lon="1.4371290">
        <ele>2650.2</ele>
        <time>2021-08-13T07:55:04Z</time>
      </trkpt>
      <trkpt lat="42.5940470" lon="1.4371310">
        <ele>2650.3</ele>
        <time>2021-08-13T07:55:06Z</time>
      </trkpt>
      <trkpt lat="42.5940430" lon="1.4371350">
        <ele>2650.5</ele>
        <time>2021-08-13T07:55:08Z</time>
      </trkpt>
      <trkpt lat="42.5940400" lon="1.4371380">
        <ele>2650.6</ele>
        <time>2021-08-13T07:55:09Z</time>
      </trkpt>
      <trkpt lat="42.5940170" lon="1.4371340">
        <ele>2651.5</ele>
        <time>2021-08-13T07:55:18Z</time>
      </trkpt>
      <trkpt lat="42.5939100" lon="1.4372170">
        <ele>2656.3</ele>
        <time>2021-08-13T07:55:47Z</time>
      </trkpt>
      <trkpt lat="42.5938000" lon="1.4371680">
        <ele>2660.8</ele>
        <time>2021-08-13T07:56:16Z</time>
      </trkpt>
      <trkpt lat="42.5938000" lon="1.4371950">
        <ele>2661.6</ele>
        <time>2021-08-13T07:56:24Z</time>
      </trkpt>
      <trkpt lat="42.5937680" lon="1.4372290">
        <ele>2663.2</ele>
        <time>2021-08-13T07:56:40Z</time>
      </trkpt>
      <trkpt lat="42.5937260" lon="1.4372340">
        <ele>2664.8</ele>
        <time>2021-08-13T07:56:52Z</time>
      </trkpt>
      <trkpt lat="42.5935770" lon="1.4372420">
        <ele>2670.6</ele>
        <time>2021-08-13T07:57:41Z</time>
      </trkpt>
      <trkpt lat="42.5935310" lon="1.4372710">
        <ele>2672.6</ele>
        <time>2021-08-13T07:58:06Z</time>
      </trkpt>
      <trkpt lat="42.5935140" lon="1.4372930">
        <ele>2673.5</ele>
        <time>2021-08-13T07:58:12Z</time>
      </trkpt>
      <trkpt lat="42.5935120" lon="1.4373050">
        <ele>2673.8</ele>
        <time>2021-08-13T07:58:15Z</time>
      </trkpt>
      <trkpt lat="42.5935110" lon="1.4373060">
        <ele>2673.9</ele>
        <time>2021-08-13T07:58:16Z</time>
      </trkpt>
      <trkpt lat="42.5935050" lon="1.4373030">
        <ele>2674.1</ele>
        <time>2021-08-13T07:58:17Z</time>
      </trkpt>
      <trkpt lat="42.5934850" lon="1.4373200">
        <ele>2675.1</ele>
        <time>2021-08-13T07:58:28Z</time>
      </trkpt>
      <trkpt lat="42.5933540" lon="1.4373140">
        <ele>2680.1</ele>
        <time>2021-08-13T07:59:14Z</time>
      </trkpt>
      <trkpt lat="42.5932540" lon="1.4372120">
        <ele>2685.0</ele>
        <time>2021-08-13T07:59:24Z</time>
      </trkpt>
      <trkpt lat="42.5932560" lon="1.4372150">
        <ele>2685.1</ele>
        <time>2021-08-13T07:59:25Z</time>
      </trkpt>
      <trkpt lat="42.5932510" lon="1.4372100">
        <ele>2685.4</ele>
        <time>2021-08-13T07:59:29Z</time>
      </trkpt>
      <trkpt lat="42.5932490" lon="1.4372090">
        <ele>2685.4</ele>
        <time>2021-08-13T07:59:30Z</time>
      </trkpt>
      <trkpt lat="42.5932370" lon="1.4372080">
        <ele>2685.9</ele>
        <time>2021-08-13T07:59:34Z</time>
      </trkpt>
      <trkpt lat="42.5932260" lon="1.4372090">
        <ele>2686.3</ele>
        <time>2021-08-13T07:59:37Z</time>
      </trkpt>
      <trkpt lat="42.5932170" lon="1.4372070">
        <ele>2686.7</ele>
        <time>2021-08-13T07:59:38Z</time>
      </trkpt>
      <trkpt lat="42.5932150" lon="1.4372140">
        <ele>2686.9</ele>
        <time>2021-08-13T07:59:39Z</time>
      </trkpt>
      <trkpt lat="42.5932120" lon="1.4372150">
        <ele>2687.0</ele>
        <time>2021-08-13T07:59:40Z</time>
      </trkpt>
      <trkpt lat="42.5932050" lon="1.4372150">
        <ele>2687.3</ele>
        <time>2021-08-13T07:59:41Z</time>
      </trkpt>
      <trkpt lat="42.5932000" lon="1.4372200">
        <ele>2687.5</ele>
        <time>2021-08-13T07:59:42Z</time>
      </trkpt>
      <trkpt lat="42.5931940" lon="1.4372230">
        <ele>2687.8</ele>
        <time>2021-08-13T07:59:44Z</time>
      </trkpt>
      <trkpt lat="42.5932030" lon="1.4372450">
        <ele>2688.5</ele>
        <time>2021-08-13T07:59:47Z</time>
      </trkpt>
      <trkpt lat="42.5931950" lon="1.4372500">
        <ele>2688.9</ele>
        <time>2021-08-13T07:59:51Z</time>
      </trkpt>
      <trkpt lat="42.5931930" lon="1.4372560">
        <ele>2689.0</ele>
        <time>2021-08-13T07:59:53Z</time>
      </trkpt>
      <trkpt lat="42.5932030" lon="1.4372700">
        <ele>2689.6</ele>
        <time>2021-08-13T07:59:56Z</time>
      </trkpt>
      <trkpt lat="42.5932030" lon="1.4372710">
        <ele>2689.6</ele>
        <time>2021-08-13T07:59:58Z</time>
      </trkpt>
      <trkpt lat="42.5932060" lon="1.4372770">
        <ele>2689.8</ele>
        <time>2021-08-13T08:00:01Z</time>
      </trkpt>
      <trkpt lat="42.5932060" lon="1.4372780">
        <ele>2689.9</ele>
        <time>2021-08-13T08:00:02Z</time>
      </trkpt>
      <trkpt lat="42.5932090" lon="1.4372840">
        <ele>2690.1</ele>
        <time>2021-08-13T08:00:03Z</time>
      </trkpt>
      <trkpt lat="42.5931880" lon="1.4372870">
        <ele>2690.9</ele>
        <time>2021-08-13T08:00:07Z</time>
      </trkpt>
      <trkpt lat="42.5931820" lon="1.4372840">
        <ele>2691.1</ele>
        <time>2021-08-13T08:00:08Z</time>
      </trkpt>
      <trkpt lat="42.5930630" lon="1.4373880">
        <ele>2696.6</ele>
        <time>2021-08-13T08:01:14Z</time>
      </trkpt>
      <trkpt lat="42.5930610" lon="1.4375630">
        <ele>2701.7</ele>
        <time>2021-08-13T08:02:10Z</time>
      </trkpt>
      <trkpt lat="42.5930530" lon="1.4376160">
        <ele>2703.2</ele>
        <time>2021-08-13T08:02:22Z</time>
      </trkpt>
      <trkpt lat="42.5930160" lon="1.4376620">
        <ele>2705.1</ele>
        <time>2021-08-13T08:03:07Z</time>
      </trkpt>
      <trkpt lat="42.5930040" lon="1.4376560">
        <ele>2705.6</ele>
        <time>2021-08-13T08:03:18Z</time>
      </trkpt>
      <trkpt lat="42.5930200" lon="1.4377330">
        <ele>2707.9</ele>
        <time>2021-08-13T08:03:43Z</time>
      </trkpt>
      <trkpt lat="42.5930130" lon="1.4377380">
        <ele>2708.2</ele>
        <time>2021-08-13T08:03:45Z</time>
      </trkpt>
      <trkpt lat="42.5929940" lon="1.4377400">
        <ele>2709.0</ele>
        <time>2021-08-13T08:03:49Z</time>
      </trkpt>
      <trkpt lat="42.5929790" lon="1.4377590">
        <ele>2709.8</ele>
        <time>2021-08-13T08:03:54Z</time>
      </trkpt>
      <trkpt lat="42.5929700" lon="1.4377680">
        <ele>2710.2</ele>
        <time>2021-08-13T08:03:59Z</time>
      </trkpt>
      <trkpt lat="42.5929700" lon="1.4377720">
        <ele>2710.3</ele>
        <time>2021-08-13T08:04:05Z</time>
      </trkpt>
      <trkpt lat="42.5929740" lon="1.4377790">
        <ele>2710.6</ele>
        <time>2021-08-13T08:04:07Z</time>
      </trkpt>
      <trkpt lat="42.5929730" lon="1.4377890">
        <ele>2710.9</ele>
        <time>2021-08-13T08:04:13Z</time>
      </trkpt>
      <trkpt lat="42.5928770" lon="1.4377800">
        <ele>2714.6</ele>
        <time>2021-08-13T08:05:15Z</time>
      </trkpt>
      <trkpt lat="42.5929010" lon="1.4378450">
        <ele>2716.7</ele>
        <time>2021-08-13T08:05:31Z</time>
      </trkpt>
      <trkpt lat="42.5929020" lon="1.4378570">
        <ele>2717.0</ele>
        <time>2021-08-13T08:05:36Z</time>
      </trkpt>
      <trkpt lat="42.5929000" lon="1.4378600">
        <ele>2717.1</ele>
        <time>2021-08-13T08:05:44Z</time>
      </trkpt>
      <trkpt lat="42.5928870" lon="1.4378700">
        <ele>2717.7</ele>
        <time>2021-08-13T08:05:50Z</time>
      </trkpt>
      <trkpt lat="42.5928860" lon="1.4378710">
        <ele>2717.8</ele>
        <time>2021-08-13T08:05:51Z</time>
      </trkpt>
      <trkpt lat="42.5928840" lon="1.4378870">
        <ele>2718.2</ele>
        <time>2021-08-13T08:05:59Z</time>
      </trkpt>
      <trkpt lat="42.5928880" lon="1.4378910">
        <ele>2718.4</ele>
        <time>2021-08-13T08:06:00Z</time>
      </trkpt>
      <trkpt lat="42.5928880" lon="1.4378930">
        <ele>2718.5</ele>
        <time>2021-08-13T08:06:01Z</time>
      </trkpt>
      <trkpt lat="42.5928750" lon="1.4379050">
        <ele>2719.1</ele>
        <time>2021-08-13T08:06:11Z</time>
      </trkpt>
      <trkpt lat="42.5928600" lon="1.4379720">
        <ele>2721.1</ele>
        <time>2021-08-13T08:06:31Z</time>
      </trkpt>
      <trkpt lat="42.5928670" lon="1.4379780">
        <ele>2721.4</ele>
        <time>2021-08-13T08:06:34Z</time>
      </trkpt>
      <trkpt lat="42.5928670" lon="1.4379840">
        <ele>2721.6</ele>
        <time>2021-08-13T08:06:37Z</time>
      </trkpt>
      <trkpt lat="42.5928670" lon="1.4379900">
        <ele>2721.8</ele>
        <time>2021-08-13T08:06:40Z</time>
      </trkpt>
      <trkpt lat="42.5928560" lon="1.4379800">
        <ele>2722.3</ele>
        <time>2021-08-13T08:06:44Z</time>
      </trkpt>
      <trkpt lat="42.5928490" lon="1.4379750">
        <ele>2722.6</ele>
        <time>2021-08-13T08:06:46Z</time>
      </trkpt>
      <trkpt lat="42.5928400" lon="1.4379630">
        <ele>2723.1</ele>
        <time>2021-08-13T08:06:48Z</time>
      </trkpt>
      <trkpt lat="42.5928250" lon="1.4379360">
        <ele>2724.1</ele>
        <time>2021-08-13T08:06:53Z</time>
      </trkpt>
      <trkpt lat="42.5929050" lon="1.4380180">
        <ele>2727.9</ele>
        <time>2021-08-13T08:07:27Z</time>
      </trkpt>
      <trkpt lat="42.5929020" lon="1.4380260">
        <ele>2728.2</ele>
        <time>2021-08-13T08:07:29Z</time>
      </trkpt>
      <trkpt lat="42.5928980" lon="1.4380340">
        <ele>2728.5</ele>
        <time>2021-08-13T08:07:35Z</time>
      </trkpt>
      <trkpt lat="42.5928970" lon="1.4380380">
        <ele>2728.6</ele>
        <time>2021-08-13T08:07:37Z</time>
      </trkpt>
      <trkpt lat="42.5928960" lon="1.4380390">
        <ele>2728.6</ele>
        <time>2021-08-13T08:07:38Z</time>
      </trkpt>
      <trkpt lat="42.5928980" lon="1.4380430">
        <ele>2728.8</ele>
        <time>2021-08-13T08:07:39Z</time>
      </trkpt>
      <trkpt lat="42.5929000" lon="1.4380560">
        <ele>2729.2</ele>
        <time>2021-08-13T08:07:46Z</time>
      </trkpt>
      <trkpt lat="42.5928840" lon="1.4380860">
        <ele>2730.2</ele>
        <time>2021-08-13T08:07:55Z</time>
      </trkpt>
      <trkpt lat="42.5928280" lon="1.4380550">
        <ele>2732.6</ele>
        <time>2021-08-13T08:08:18Z</time>
      </trkpt>
      <trkpt lat="42.5928120" lon="1.4380730">
        <ele>2733.4</ele>
        <time>2021-08-13T08:08:34Z</time>
      </trkpt>
      <trkpt lat="42.5928180" lon="1.4381320">
        <ele>2735.1</ele>
        <time>2021-08-13T08:08:43Z</time>
      </trkpt>
      <trkpt lat="42.5928170" lon="1.4381310">
        <ele>2735.1</ele>
        <time>2021-08-13T08:08:44Z</time>
      </trkpt>
      <trkpt lat="42.5928170" lon="1.4381300">
        <ele>2735.2</ele>
        <time>2021-08-13T08:08:48Z</time>
      </trkpt>
      <trkpt lat="42.5928110" lon="1.4381420">
        <ele>2735.6</ele>
        <time>2021-08-13T08:08:50Z</time>
      </trkpt>
      <trkpt lat="42.5928160" lon="1.4381550">
        <ele>2736.0</ele>
        <time>2021-08-13T08:08:51Z</time>
      </trkpt>
      <trkpt lat="42.5928140" lon="1.4381640">
        <ele>2736.3</ele>
        <time>2021-08-13T08:08:55Z</time>
      </trkpt>
      <trkpt lat="42.5928150" lon="1.4381620">
        <ele>2736.3</ele>
        <time>2021-08-13T08:09:01Z</time>
      </trkpt>
      <trkpt lat="42.5928160" lon="1.4381640">
        <ele>2736.4</ele>
        <time>2021-08-13T08:09:03Z</time>
      </trkpt>
      <trkpt lat="42.5928150" lon="1.4381650">
        <ele>2736.5</ele>
        <time>2021-08-13T08:09:04Z</time>
      </trkpt>
      <trkpt lat="42.5928120" lon="1.4381820">
        <ele>2737.0</ele>
        <time>2021-08-13T08:09:13Z</time>
      </trkpt>
      <trkpt lat="42.5928400" lon="1.4382380">
        <ele>2738.9</ele>
        <time>2021-08-13T08:09:29Z</time>
      </trkpt>
      <trkpt lat="42.5928360" lon="1.4384020">
        <ele>2743.6</ele>
        <time>2021-08-13T08:10:41Z</time>
      </trkpt>
      <trkpt lat="42.5927790" lon="1.4385230">
        <ele>2747.7</ele>
        <time>2021-08-13T08:11:23Z</time>
      </trkpt>
      <trkpt lat="42.5927850" lon="1.4385700">
        <ele>2749.1</ele>
        <time>2021-08-13T08:11:40Z</time>
      </trkpt>
      <trkpt lat="42.5927140" lon="1.4387450">
        <ele>2754.8</ele>
        <time>2021-08-13T08:12:45Z</time>
      </trkpt>
      <trkpt lat="42.5926900" lon="1.4387480">
        <ele>2755.7</ele>
        <time>2021-08-13T08:12:51Z</time>
      </trkpt>
      <trkpt lat="42.5927050" lon="1.4386790">
        <ele>2757.8</ele>
        <time>2021-08-13T08:47:24Z</time>
      </trkpt>
      <trkpt lat="42.5926980" lon="1.4386850">
        <ele>2758.1</ele>
        <time>2021-08-13T08:47:25Z</time>
      </trkpt>
      <trkpt lat="42.5926940" lon="1.4387020">
        <ele>2758.6</ele>
        <time>2021-08-13T08:47:28Z</time>
      </trkpt>
      <trkpt lat="42.5926380" lon="1.4388300">
        <ele>2760.1</ele>
        <time>2021-08-13T08:47:34Z</time>
      </trkpt>
      <trkpt lat="42.5926340" lon="1.4388560">
        <ele>2760.1</ele>
        <time>2021-08-13T08:47:36Z</time>
      </trkpt>
      <trkpt lat="42.5926400" lon="1.4388850">
        <ele>2760.0</ele>
        <time>2021-08-13T08:47:39Z</time>
      </trkpt>
      <trkpt lat="42.5926420" lon="1.4389260">
        <ele>2760.0</ele>
        <time>2021-08-13T08:47:43Z</time>
      </trkpt>
      <trkpt lat="42.5926420" lon="1.4389400">
        <ele>2760.0</ele>
        <time>2021-08-13T08:47:44Z</time>
      </trkpt>
      <trkpt lat="42.5926410" lon="1.4389550">
        <ele>2759.9</ele>
        <time>2021-08-13T08:47:45Z</time>
      </trkpt>
      <trkpt lat="42.5926420" lon="1.4389720">
        <ele>2759.9</ele>
        <time>2021-08-13T08:47:46Z</time>
      </trkpt>
      <trkpt lat="42.5926430" lon="1.4390060">
        <ele>2759.8</ele>
        <time>2021-08-13T08:47:48Z</time>
      </trkpt>
      <trkpt lat="42.5926500" lon="1.4390650">
        <ele>2759.6</ele>
        <time>2021-08-13T08:47:52Z</time>
      </trkpt>
      <trkpt lat="42.5926540" lon="1.4390780">
        <ele>2759.5</ele>
        <time>2021-08-13T08:47:53Z</time>
      </trkpt>
      <trkpt lat="42.5926570" lon="1.4390890">
        <ele>2759.4</ele>
        <time>2021-08-13T08:47:54Z</time>
      </trkpt>
      <trkpt lat="42.5926640" lon="1.4391720">
        <ele>2760.0</ele>
        <time>2021-08-13T08:48:00Z</time>
      </trkpt>
      <trkpt lat="42.5926600" lon="1.4393670">
        <ele>2762.3</ele>
        <time>2021-08-13T08:48:13Z</time>
      </trkpt>
      <trkpt lat="42.5926440" lon="1.4394720">
        <ele>2762.6</ele>
        <time>2021-08-13T08:48:20Z</time>
      </trkpt>
      <trkpt lat="42.5926440" lon="1.4395540">
        <ele>2763.2</ele>
        <time>2021-08-13T08:48:26Z</time>
      </trkpt>
      <trkpt lat="42.5926320" lon="1.4396230">
        <ele>2763.3</ele>
        <time>2021-08-13T08:48:31Z</time>
      </trkpt>
      <trkpt lat="42.5926290" lon="1.4396660">
        <ele>2763.4</ele>
        <time>2021-08-13T08:48:34Z</time>
      </trkpt>
      <trkpt lat="42.5926260" lon="1.4396840">
        <ele>2763.6</ele>
        <time>2021-08-13T08:48:35Z</time>
      </trkpt>
      <trkpt lat="42.5926270" lon="1.4396980">
        <ele>2762.9</ele>
        <time>2021-08-13T08:48:36Z</time>
      </trkpt>
      <trkpt lat="42.5926270" lon="1.4397110">
        <ele>2762.3</ele>
        <time>2021-08-13T08:48:37Z</time>
      </trkpt>
      <trkpt lat="42.5926210" lon="1.4398400">
        <ele>2764.2</ele>
        <time>2021-08-13T08:48:46Z</time>
      </trkpt>
      <trkpt lat="42.5926220" lon="1.4398530">
        <ele>2764.4</ele>
        <time>2021-08-13T08:48:47Z</time>
      </trkpt>
      <trkpt lat="42.5926230" lon="1.4398610">
        <ele>2763.7</ele>
        <time>2021-08-13T08:48:48Z</time>
      </trkpt>
      <trkpt lat="42.5926220" lon="1.4399610">
        <ele>2764.5</ele>
        <time>2021-08-13T08:49:01Z</time>
      </trkpt>
      <trkpt lat="42.5926130" lon="1.4399650">
        <ele>2763.0</ele>
        <time>2021-08-13T08:49:21Z</time>
      </trkpt>
      <trkpt lat="42.5927020" lon="1.4399030">
        <ele>2764.1</ele>
        <time>2021-08-13T08:49:37Z</time>
      </trkpt>
      <trkpt lat="42.5927060" lon="1.4399140">
        <ele>2764.3</ele>
        <time>2021-08-13T08:49:45Z</time>
      </trkpt>
      <trkpt lat="42.5927230" lon="1.4399420">
        <ele>2764.7</ele>
        <time>2021-08-13T08:50:31Z</time>
      </trkpt>
      <trkpt lat="42.5927060" lon="1.4399170">
        <ele>2765.2</ele>
        <time>2021-08-13T08:50:46Z</time>
      </trkpt>
      <trkpt lat="42.5926970" lon="1.4399230">
        <ele>2765.4</ele>
        <time>2021-08-13T08:51:01Z</time>
      </trkpt>
      <trkpt lat="42.5926860" lon="1.4399090">
        <ele>2765.7</ele>
        <time>2021-08-13T08:51:10Z</time>
      </trkpt>
      <trkpt lat="42.5926830" lon="1.4399130">
        <ele>2765.8</ele>
        <time>2021-08-13T08:51:12Z</time>
      </trkpt>
      <trkpt lat="42.5926820" lon="1.4399150">
        <ele>2765.8</ele>
        <time>2021-08-13T08:51:17Z</time>
      </trkpt>
      <trkpt lat="42.5926830" lon="1.4399170">
        <ele>2765.8</ele>
        <time>2021-08-13T08:51:20Z</time>
      </trkpt>
      <trkpt lat="42.5926820" lon="1.4399170">
        <ele>2765.8</ele>
        <time>2021-08-13T08:51:21Z</time>
      </trkpt>
      <trkpt lat="42.5926830" lon="1.4399180">
        <ele>2765.9</ele>
        <time>2021-08-13T08:51:23Z</time>
      </trkpt>
      <trkpt lat="42.5926860" lon="1.4399180">
        <ele>2765.9</ele>
        <time>2021-08-13T08:51:24Z</time>
      </trkpt>
      <trkpt lat="42.5926870" lon="1.4399180">
        <ele>2765.9</ele>
        <time>2021-08-13T08:51:25Z</time>
      </trkpt>
      <trkpt lat="42.5926870" lon="1.4399180">
        <ele>2765.9</ele>
        <time>2021-08-13T08:51:28Z</time>
      </trkpt>
      <trkpt lat="42.5926870" lon="1.4399190">
        <ele>2766.0</ele>
        <time>2021-08-13T08:51:30Z</time>
      </trkpt>
      <trkpt lat="42.5926900" lon="1.4399200">
        <ele>2766.0</ele>
        <time>2021-08-13T08:51:34Z</time>
      </trkpt>
      <trkpt lat="42.5926910" lon="1.4399200">
        <ele>2766.0</ele>
        <time>2021-08-13T08:51:36Z</time>
      </trkpt>
      <trkpt lat="42.5926930" lon="1.4399210">
        <ele>2766.1</ele>
        <time>2021-08-13T08:51:37Z</time>
      </trkpt>
      <trkpt lat="42.5926940" lon="1.4399210">
        <ele>2766.1</ele>
        <time>2021-08-13T08:51:38Z</time>
      </trkpt>
      <trkpt lat="42.5926950" lon="1.4399230">
        <ele>2766.1</ele>
        <time>2021-08-13T08:51:41Z</time>
      </trkpt>
      <trkpt lat="42.5926940" lon="1.4399190">
        <ele>2766.2</ele>
        <time>2021-08-13T08:51:46Z</time>
      </trkpt>
      <trkpt lat="42.5926960" lon="1.4399190">
        <ele>2766.2</ele>
        <time>2021-08-13T08:51:50Z</time>
      </trkpt>
      <trkpt lat="42.5926960" lon="1.4399150">
        <ele>2766.3</ele>
        <time>2021-08-13T08:51:54Z</time>
      </trkpt>
      <trkpt lat="42.5926930" lon="1.4399100">
        <ele>2766.4</ele>
        <time>2021-08-13T08:51:59Z</time>
      </trkpt>
      <trkpt lat="42.5926690" lon="1.4399460">
        <ele>2767.1</ele>
        <time>2021-08-13T08:52:15Z</time>
      </trkpt>
      <trkpt lat="42.5926590" lon="1.4399870">
        <ele>2767.8</ele>
        <time>2021-08-13T08:52:21Z</time>
      </trkpt>
      <trkpt lat="42.5926710" lon="1.4401890">
        <ele>2771.3</ele>
        <time>2021-08-13T08:52:44Z</time>
      </trkpt>
      <trkpt lat="42.5926740" lon="1.4401960">
        <ele>2771.5</ele>
        <time>2021-08-13T08:52:47Z</time>
      </trkpt>
      <trkpt lat="42.5926860" lon="1.4403710">
        <ele>2775.0</ele>
        <time>2021-08-13T08:53:11Z</time>
      </trkpt>
      <trkpt lat="42.5926910" lon="1.4404440">
        <ele>2776.5</ele>
        <time>2021-08-13T08:53:21Z</time>
      </trkpt>
      <trkpt lat="42.5926910" lon="1.4405260">
        <ele>2778.2</ele>
        <time>2021-08-13T08:53:37Z</time>
      </trkpt>
      <trkpt lat="42.5926990" lon="1.4405950">
        <ele>2779.6</ele>
        <time>2021-08-13T08:53:44Z</time>
      </trkpt>
      <trkpt lat="42.5926520" lon="1.4407070">
        <ele>2782.3</ele>
        <time>2021-08-13T08:54:12Z</time>
      </trkpt>
      <trkpt lat="42.5926050" lon="1.4407690">
        <ele>2784.2</ele>
        <time>2021-08-13T08:54:22Z</time>
      </trkpt>
      <trkpt lat="42.5925020" lon="1.4408180">
        <ele>2787.7</ele>
        <time>2021-08-13T08:54:35Z</time>
      </trkpt>
      <trkpt lat="42.5924770" lon="1.4408220">
        <ele>2788.6</ele>
        <time>2021-08-13T08:54:37Z</time>
      </trkpt>
      <trkpt lat="42.5924340" lon="1.4409940">
        <ele>2793.7</ele>
        <time>2021-08-13T08:55:08Z</time>
      </trkpt>
      <trkpt lat="42.5924120" lon="1.4410470">
        <ele>2795.5</ele>
        <time>2021-08-13T08:55:19Z</time>
      </trkpt>
      <trkpt lat="42.5924070" lon="1.4410770">
        <ele>2796.4</ele>
        <time>2021-08-13T08:55:24Z</time>
      </trkpt>
      <trkpt lat="42.5924270" lon="1.4411180">
        <ele>2797.8</ele>
        <time>2021-08-13T08:55:32Z</time>
      </trkpt>
      <trkpt lat="42.5924890" lon="1.4411450">
        <ele>2800.4</ele>
        <time>2021-08-13T08:55:45Z</time>
      </trkpt>
      <trkpt lat="42.5925220" lon="1.4412100">
        <ele>2802.8</ele>
        <time>2021-08-13T08:55:56Z</time>
      </trkpt>
      <trkpt lat="42.5925470" lon="1.4412350">
        <ele>2804.0</ele>
        <time>2021-08-13T08:56:02Z</time>
      </trkpt>
      <trkpt lat="42.5925490" lon="1.4412420">
        <ele>2804.3</ele>
        <time>2021-08-13T08:56:03Z</time>
      </trkpt>
      <trkpt lat="42.5925590" lon="1.4412630">
        <ele>2805.1</ele>
        <time>2021-08-13T08:56:07Z</time>
      </trkpt>
      <trkpt lat="42.5925620" lon="1.4412690">
        <ele>2805.3</ele>
        <time>2021-08-13T08:56:08Z</time>
      </trkpt>
      <trkpt lat="42.5925660" lon="1.4412720">
        <ele>2805.5</ele>
        <time>2021-08-13T08:56:09Z</time>
      </trkpt>
      <trkpt lat="42.5925730" lon="1.4412750">
        <ele>2805.8</ele>
        <time>2021-08-13T08:56:10Z</time>
      </trkpt>
      <trkpt lat="42.5925800" lon="1.4412780">
        <ele>2806.1</ele>
        <time>2021-08-13T08:56:11Z</time>
      </trkpt>
      <trkpt lat="42.5925820" lon="1.4413000">
        <ele>2806.8</ele>
        <time>2021-08-13T08:56:15Z</time>
      </trkpt>
      <trkpt lat="42.5925660" lon="1.4413050">
        <ele>2807.5</ele>
        <time>2021-08-13T08:56:18Z</time>
      </trkpt>
      <trkpt lat="42.5925420" lon="1.4413080">
        <ele>2808.5</ele>
        <time>2021-08-13T08:56:33Z</time>
      </trkpt>
      <trkpt lat="42.5925030" lon="1.4413040">
        <ele>2810.2</ele>
        <time>2021-08-13T08:56:40Z</time>
      </trkpt>
      <trkpt lat="42.5924810" lon="1.4413200">
        <ele>2811.2</ele>
        <time>2021-08-13T08:56:44Z</time>
      </trkpt>
      <trkpt lat="42.5924780" lon="1.4413240">
        <ele>2811.4</ele>
        <time>2021-08-13T08:56:45Z</time>
      </trkpt>
      <trkpt lat="42.5924730" lon="1.4413250">
        <ele>2811.7</ele>
        <time>2021-08-13T08:56:46Z</time>
      </trkpt>
      <trkpt lat="42.5924030" lon="1.4414070">
        <ele>2815.8</ele>
        <time>2021-08-13T08:57:05Z</time>
      </trkpt>
      <trkpt lat="42.5923970" lon="1.4414080">
        <ele>2816.1</ele>
        <time>2021-08-13T08:57:08Z</time>
      </trkpt>
      <trkpt lat="42.5923940" lon="1.4414290">
        <ele>2816.8</ele>
        <time>2021-08-13T08:57:18Z</time>
      </trkpt>
      <trkpt lat="42.5924050" lon="1.4414500">
        <ele>2817.7</ele>
        <time>2021-08-13T08:57:30Z</time>
      </trkpt>
      <trkpt lat="42.5924290" lon="1.4415090">
        <ele>2820.1</ele>
        <time>2021-08-13T08:57:42Z</time>
      </trkpt>
      <trkpt lat="42.5923890" lon="1.4415300">
        <ele>2822.1</ele>
        <time>2021-08-13T08:58:05Z</time>
      </trkpt>
      <trkpt lat="42.5923590" lon="1.4415460">
        <ele>2823.8</ele>
        <time>2021-08-13T08:58:12Z</time>
      </trkpt>
      <trkpt lat="42.5923540" lon="1.4415520">
        <ele>2824.1</ele>
        <time>2021-08-13T08:58:13Z</time>
      </trkpt>
      <trkpt lat="42.5923480" lon="1.4415570">
        <ele>2824.4</ele>
        <time>2021-08-13T08:58:14Z</time>
      </trkpt>
      <trkpt lat="42.5923430" lon="1.4415660">
        <ele>2824.8</ele>
        <time>2021-08-13T08:58:15Z</time>
      </trkpt>
      <trkpt lat="42.5923400" lon="1.4415730">
        <ele>2825.1</ele>
        <time>2021-08-13T08:58:16Z</time>
      </trkpt>
      <trkpt lat="42.5923440" lon="1.4416050">
        <ele>2826.3</ele>
        <time>2021-08-13T08:58:21Z</time>
      </trkpt>
      <trkpt lat="42.5923290" lon="1.4416130">
        <ele>2827.1</ele>
        <time>2021-08-13T08:58:24Z</time>
      </trkpt>
      <trkpt lat="42.5923250" lon="1.4416190">
        <ele>2827.4</ele>
        <time>2021-08-13T08:58:25Z</time>
      </trkpt>
      <trkpt lat="42.5923060" lon="1.4416430">
        <ele>2828.7</ele>
        <time>2021-08-13T08:58:31Z</time>
      </trkpt>
      <trkpt lat="42.5922850" lon="1.4416320">
        <ele>2829.8</ele>
        <time>2021-08-13T08:58:47Z</time>
      </trkpt>
      <trkpt lat="42.5922600" lon="1.4417060">
        <ele>2832.8</ele>
        <time>2021-08-13T08:59:00Z</time>
      </trkpt>
      <trkpt lat="42.5922590" lon="1.4417330">
        <ele>2833.8</ele>
        <time>2021-08-13T08:59:07Z</time>
      </trkpt>
      <trkpt lat="42.5922510" lon="1.4417740">
        <ele>2835.3</ele>
        <time>2021-08-13T08:59:13Z</time>
      </trkpt>
      <trkpt lat="42.5922410" lon="1.4417950">
        <ele>2836.2</ele>
        <time>2021-08-13T08:59:18Z</time>
      </trkpt>
      <trkpt lat="42.5922410" lon="1.4418200">
        <ele>2837.1</ele>
        <time>2021-08-13T08:59:24Z</time>
      </trkpt>
      <trkpt lat="42.5922140" lon="1.4418470">
        <ele>2838.7</ele>
        <time>2021-08-13T08:59:41Z</time>
      </trkpt>
      <trkpt lat="42.5922110" lon="1.4418620">
        <ele>2839.3</ele>
        <time>2021-08-13T08:59:52Z</time>
      </trkpt>
      <trkpt lat="42.5921980" lon="1.4418980">
        <ele>2840.6</ele>
        <time>2021-08-13T09:00:21Z</time>
      </trkpt>
      <trkpt lat="42.5921240" lon="1.4420870">
        <ele>2847.7</ele>
        <time>2021-08-13T09:01:05Z</time>
      </trkpt>
      <trkpt lat="42.5920870" lon="1.4421900">
        <ele>2851.5</ele>
        <time>2021-08-13T09:01:24Z</time>
      </trkpt>
      <trkpt lat="42.5920610" lon="1.4422680">
        <ele>2854.4</ele>
        <time>2021-08-13T09:01:47Z</time>
      </trkpt>
      <trkpt lat="42.5920470" lon="1.4423040">
        <ele>2856.6</ele>
        <time>2021-08-13T09:01:56Z</time>
      </trkpt>
      <trkpt lat="42.5920260" lon="1.4423670">
        <ele>2860.4</ele>
        <time>2021-08-13T09:02:17Z</time>
      </trkpt>
      <trkpt lat="42.5919380" lon="1.4425220">
        <ele>2871.0</ele>
        <time>2021-08-13T09:02:54Z</time>
      </trkpt>
      <trkpt lat="42.5919530" lon="1.4425810">
        <ele>2874.4</ele>
        <time>2021-08-13T09:03:11Z</time>
      </trkpt>
      <trkpt lat="42.5919460" lon="1.4425760">
        <ele>2874.9</ele>
        <time>2021-08-13T09:03:20Z</time>
      </trkpt>
      <trkpt lat="42.5919570" lon="1.4426600">
        <ele>2879.6</ele>
        <time>2021-08-13T09:03:38Z</time>
      </trkpt>
      <trkpt lat="42.5919120" lon="1.4426890">
        <ele>2882.6</ele>
        <time>2021-08-13T09:03:52Z</time>
      </trkpt>
      <trkpt lat="42.5919050" lon="1.4426960">
        <ele>2882.7</ele>
        <time>2021-08-13T09:03:56Z</time>
      </trkpt>
      <trkpt lat="42.5918960" lon="1.4427060">
        <ele>2882.9</ele>
        <time>2021-08-13T09:03:58Z</time>
      </trkpt>
      <trkpt lat="42.5918940" lon="1.4427120">
        <ele>2883.0</ele>
        <time>2021-08-13T09:03:59Z</time>
      </trkpt>
      <trkpt lat="42.5918960" lon="1.4427170">
        <ele>2883.0</ele>
        <time>2021-08-13T09:04:00Z</time>
      </trkpt>
      <trkpt lat="42.5918940" lon="1.4427200">
        <ele>2883.1</ele>
        <time>2021-08-13T09:04:01Z</time>
      </trkpt>
      <trkpt lat="42.5918960" lon="1.4427220">
        <ele>2883.1</ele>
        <time>2021-08-13T09:04:02Z</time>
      </trkpt>
      <trkpt lat="42.5919110" lon="1.4427340">
        <ele>2883.3</ele>
        <time>2021-08-13T09:04:07Z</time>
      </trkpt>
      <trkpt lat="42.5919290" lon="1.4427550">
        <ele>2883.6</ele>
        <time>2021-08-13T09:04:12Z</time>
      </trkpt>
      <trkpt lat="42.5919370" lon="1.4427720">
        <ele>2883.8</ele>
        <time>2021-08-13T09:04:14Z</time>
      </trkpt>
      <trkpt lat="42.5919400" lon="1.4427740">
        <ele>2883.9</ele>
        <time>2021-08-13T09:04:15Z</time>
      </trkpt>
      <trkpt lat="42.5919420" lon="1.4427800">
        <ele>2884.0</ele>
        <time>2021-08-13T09:04:17Z</time>
      </trkpt>
      <trkpt lat="42.5919420" lon="1.4427860">
        <ele>2884.0</ele>
        <time>2021-08-13T09:04:19Z</time>
      </trkpt>
      <trkpt lat="42.5919440" lon="1.4427880">
        <ele>2884.0</ele>
        <time>2021-08-13T09:04:20Z</time>
      </trkpt>
      <trkpt lat="42.5919450" lon="1.4427910">
        <ele>2884.1</ele>
        <time>2021-08-13T09:04:21Z</time>
      </trkpt>
      <trkpt lat="42.5919450" lon="1.4427920">
        <ele>2884.1</ele>
        <time>2021-08-13T09:04:22Z</time>
      </trkpt>
      <trkpt lat="42.5919450" lon="1.4427960">
        <ele>2884.1</ele>
        <time>2021-08-13T09:04:23Z</time>
      </trkpt>
      <trkpt lat="42.5919460" lon="1.4427990">
        <ele>2884.2</ele>
        <time>2021-08-13T09:04:24Z</time>
      </trkpt>
      <trkpt lat="42.5919040" lon="1.4428440">
        <ele>2884.9</ele>
        <time>2021-08-13T09:04:44Z</time>
      </trkpt>
      <trkpt lat="42.5918930" lon="1.4430170">
        <ele>2886.6</ele>
        <time>2021-08-13T09:05:26Z</time>
      </trkpt>
      <trkpt lat="42.5918500" lon="1.4431120">
        <ele>2887.6</ele>
        <time>2021-08-13T09:05:48Z</time>
      </trkpt>
      <trkpt lat="42.5918550" lon="1.4431430">
        <ele>2887.9</ele>
        <time>2021-08-13T09:05:51Z</time>
      </trkpt>
      <trkpt lat="42.5918650" lon="1.4431530">
        <ele>2888.1</ele>
        <time>2021-08-13T09:05:53Z</time>
      </trkpt>
      <trkpt lat="42.5918930" lon="1.4431700">
        <ele>2888.5</ele>
        <time>2021-08-13T09:05:58Z</time>
      </trkpt>
      <trkpt lat="42.5918950" lon="1.4431720">
        <ele>2888.5</ele>
        <time>2021-08-13T09:05:59Z</time>
      </trkpt>
      <trkpt lat="42.5918960" lon="1.4431830">
        <ele>2888.6</ele>
        <time>2021-08-13T09:06:00Z</time>
      </trkpt>
      <trkpt lat="42.5918940" lon="1.4432190">
        <ele>2889.0</ele>
        <time>2021-08-13T09:06:06Z</time>
      </trkpt>
      <trkpt lat="42.5918760" lon="1.4432410">
        <ele>2889.2</ele>
        <time>2021-08-13T09:06:12Z</time>
      </trkpt>
      <trkpt lat="42.5918220" lon="1.4433050">
        <ele>2890.1</ele>
        <time>2021-08-13T09:06:30Z</time>
      </trkpt>
      <trkpt lat="42.5918190" lon="1.4433070">
        <ele>2890.2</ele>
        <time>2021-08-13T09:06:31Z</time>
      </trkpt>
      <trkpt lat="42.5918170" lon="1.4433110">
        <ele>2890.2</ele>
        <time>2021-08-13T09:06:32Z</time>
      </trkpt>
      <trkpt lat="42.5918100" lon="1.4433090">
        <ele>2890.3</ele>
        <time>2021-08-13T09:06:33Z</time>
      </trkpt>
      <trkpt lat="42.5918040" lon="1.4433280">
        <ele>2890.5</ele>
        <time>2021-08-13T09:06:37Z</time>
      </trkpt>
      <trkpt lat="42.5918050" lon="1.4433360">
        <ele>2890.6</ele>
        <time>2021-08-13T09:06:38Z</time>
      </trkpt>
      <trkpt lat="42.5918060" lon="1.4433410">
        <ele>2890.6</ele>
        <time>2021-08-13T09:06:39Z</time>
      </trkpt>
      <trkpt lat="42.5918070" lon="1.4433480">
        <ele>2890.7</ele>
        <time>2021-08-13T09:06:40Z</time>
      </trkpt>
      <trkpt lat="42.5918080" lon="1.4433540">
        <ele>2890.7</ele>
        <time>2021-08-13T09:06:41Z</time>
      </trkpt>
      <trkpt lat="42.5918000" lon="1.4433760">
        <ele>2890.9</ele>
        <time>2021-08-13T09:06:46Z</time>
      </trkpt>
      <trkpt lat="42.5917940" lon="1.4433960">
        <ele>2891.1</ele>
        <time>2021-08-13T09:06:50Z</time>
      </trkpt>
      <trkpt lat="42.5917880" lon="1.4434190">
        <ele>2891.3</ele>
        <time>2021-08-13T09:06:54Z</time>
      </trkpt>
      <trkpt lat="42.5917780" lon="1.4435530">
        <ele>2892.4</ele>
        <time>2021-08-13T09:07:10Z</time>
      </trkpt>
      <trkpt lat="42.5917730" lon="1.4436240">
        <ele>2893.0</ele>
        <time>2021-08-13T09:07:21Z</time>
      </trkpt>
      <trkpt lat="42.5918270" lon="1.4437020">
        <ele>2893.9</ele>
        <time>2021-08-13T09:07:41Z</time>
      </trkpt>
      <trkpt lat="42.5918430" lon="1.4437010">
        <ele>2894.1</ele>
        <time>2021-08-13T09:07:49Z</time>
      </trkpt>
      <trkpt lat="42.5918400" lon="1.4436940">
        <ele>2894.1</ele>
        <time>2021-08-13T09:08:04Z</time>
      </trkpt>
      <trkpt lat="42.5918400" lon="1.4436770">
        <ele>2894.3</ele>
        <time>2021-08-13T09:08:29Z</time>
      </trkpt>
      <trkpt lat="42.5918400" lon="1.4436790">
        <ele>2894.3</ele>
        <time>2021-08-13T09:08:40Z</time>
      </trkpt>
      <trkpt lat="42.5918250" lon="1.4436630">
        <ele>2894.5</ele>
        <time>2021-08-13T09:09:00Z</time>
      </trkpt>
      <trkpt lat="42.5918150" lon="1.4436450">
        <ele>2894.6</ele>
        <time>2021-08-13T09:09:21Z</time>
      </trkpt>
      <trkpt lat="42.5918150" lon="1.4436580">
        <ele>2894.7</ele>
        <time>2021-08-13T09:09:30Z</time>
      </trkpt>
      <trkpt lat="42.5918150" lon="1.4436570">
        <ele>2894.7</ele>
        <time>2021-08-13T09:09:38Z</time>
      </trkpt>
      <trkpt lat="42.5918180" lon="1.4436510">
        <ele>2894.8</ele>
        <time>2021-08-13T09:09:47Z</time>
      </trkpt>
      <trkpt lat="42.5918250" lon="1.4436500">
        <ele>2894.9</ele>
        <time>2021-08-13T09:09:58Z</time>
      </trkpt>
      <trkpt lat="42.5918240" lon="1.4436570">
        <ele>2894.9</ele>
        <time>2021-08-13T09:10:04Z</time>
      </trkpt>
      <trkpt lat="42.5918230" lon="1.4436560">
        <ele>2894.9</ele>
        <time>2021-08-13T09:10:11Z</time>
      </trkpt>
      <trkpt lat="42.5918310" lon="1.4436360">
        <ele>2895.1</ele>
        <time>2021-08-13T09:10:23Z</time>
      </trkpt>
      <trkpt lat="42.5918320" lon="1.4436370">
        <ele>2895.1</ele>
        <time>2021-08-13T09:10:25Z</time>
      </trkpt>
      <trkpt lat="42.5918250" lon="1.4436360">
        <ele>2895.2</ele>
        <time>2021-08-13T09:10:28Z</time>
      </trkpt>
      <trkpt lat="42.5918220" lon="1.4436360">
        <ele>2895.2</ele>
        <time>2021-08-13T09:10:30Z</time>
      </trkpt>
      <trkpt lat="42.5918190" lon="1.4436590">
        <ele>2895.4</ele>
        <time>2021-08-13T09:11:15Z</time>
      </trkpt>
      <trkpt lat="42.5918130" lon="1.4436660">
        <ele>2895.5</ele>
        <time>2021-08-13T09:11:25Z</time>
      </trkpt>
      <trkpt lat="42.5918160" lon="1.4436740">
        <ele>2895.5</ele>
        <time>2021-08-13T09:11:44Z</time>
      </trkpt>
      <trkpt lat="42.5918130" lon="1.4436750">
        <ele>2895.6</ele>
        <time>2021-08-13T09:12:00Z</time>
      </trkpt>
      <trkpt lat="42.5918290" lon="1.4436590">
        <ele>2895.8</ele>
        <time>2021-08-13T09:12:27Z</time>
      </trkpt>
      <trkpt lat="42.5917840" lon="1.4436270">
        <ele>2896.3</ele>
        <time>2021-08-13T09:25:00Z</time>
      </trkpt>
      <trkpt lat="42.5917830" lon="1.4436170">
        <ele>2896.4</ele>
        <time>2021-08-13T09:25:01Z</time>
      </trkpt>
      <trkpt lat="42.5917730" lon="1.4435550">
        <ele>2896.8</ele>
        <time>2021-08-13T09:25:13Z</time>
      </trkpt>
      <trkpt lat="42.5917560" lon="1.4435470">
        <ele>2897.0</ele>
        <time>2021-08-13T09:25:18Z</time>
      </trkpt>
      <trkpt lat="42.5917540" lon="1.4435480">
        <ele>2897.0</ele>
        <time>2021-08-13T09:25:19Z</time>
      </trkpt>
      <trkpt lat="42.5917510" lon="1.4435430">
        <ele>2897.1</ele>
        <time>2021-08-13T09:25:20Z</time>
      </trkpt>
      <trkpt lat="42.5917560" lon="1.4434920">
        <ele>2897.4</ele>
        <time>2021-08-13T09:25:27Z</time>
      </trkpt>
      <trkpt lat="42.5917580" lon="1.4434520">
        <ele>2897.7</ele>
        <time>2021-08-13T09:25:32Z</time>
      </trkpt>
      <trkpt lat="42.5917600" lon="1.4434440">
        <ele>2897.7</ele>
        <time>2021-08-13T09:25:33Z</time>
      </trkpt>
      <trkpt lat="42.5917690" lon="1.4434210">
        <ele>2897.3</ele>
        <time>2021-08-13T09:25:36Z</time>
      </trkpt>
      <trkpt lat="42.5917840" lon="1.4433990">
        <ele>2896.9</ele>
        <time>2021-08-13T09:25:39Z</time>
      </trkpt>
      <trkpt lat="42.5917870" lon="1.4433910">
        <ele>2896.8</ele>
        <time>2021-08-13T09:25:40Z</time>
      </trkpt>
      <trkpt lat="42.5917890" lon="1.4433720">
        <ele>2896.5</ele>
        <time>2021-08-13T09:25:43Z</time>
      </trkpt>
      <trkpt lat="42.5917870" lon="1.4433600">
        <ele>2896.3</ele>
        <time>2021-08-13T09:25:45Z</time>
      </trkpt>
      <trkpt lat="42.5918190" lon="1.4432800">
        <ele>2895.0</ele>
        <time>2021-08-13T09:25:58Z</time>
      </trkpt>
      <trkpt lat="42.5918390" lon="1.4432480">
        <ele>2894.4</ele>
        <time>2021-08-13T09:26:03Z</time>
      </trkpt>
      <trkpt lat="42.5918580" lon="1.4432230">
        <ele>2893.8</ele>
        <time>2021-08-13T09:26:08Z</time>
      </trkpt>
      <trkpt lat="42.5918660" lon="1.4432140">
        <ele>2893.6</ele>
        <time>2021-08-13T09:26:10Z</time>
      </trkpt>
      <trkpt lat="42.5918520" lon="1.4431560">
        <ele>2892.6</ele>
        <time>2021-08-13T09:26:52Z</time>
      </trkpt>
      <trkpt lat="42.5918480" lon="1.4431340">
        <ele>2892.3</ele>
        <time>2021-08-13T09:26:57Z</time>
      </trkpt>
      <trkpt lat="42.5918570" lon="1.4431010">
        <ele>2891.7</ele>
        <time>2021-08-13T09:27:02Z</time>
      </trkpt>
      <trkpt lat="42.5918670" lon="1.4430830">
        <ele>2891.3</ele>
        <time>2021-08-13T09:27:05Z</time>
      </trkpt>
      <trkpt lat="42.5918710" lon="1.4430770">
        <ele>2891.2</ele>
        <time>2021-08-13T09:27:06Z</time>
      </trkpt>
      <trkpt lat="42.5918780" lon="1.4430730">
        <ele>2891.0</ele>
        <time>2021-08-13T09:27:07Z</time>
      </trkpt>
      <trkpt lat="42.5918830" lon="1.4430670">
        <ele>2890.9</ele>
        <time>2021-08-13T09:27:08Z</time>
      </trkpt>
      <trkpt lat="42.5918860" lon="1.4430580">
        <ele>2890.7</ele>
        <time>2021-08-13T09:27:10Z</time>
      </trkpt>
      <trkpt lat="42.5918890" lon="1.4430550">
        <ele>2890.6</ele>
        <time>2021-08-13T09:27:11Z</time>
      </trkpt>
      <trkpt lat="42.5918930" lon="1.4430510">
        <ele>2890.5</ele>
        <time>2021-08-13T09:27:13Z</time>
      </trkpt>
      <trkpt lat="42.5919030" lon="1.4430230">
        <ele>2890.0</ele>
        <time>2021-08-13T09:27:24Z</time>
      </trkpt>
      <trkpt lat="42.5918930" lon="1.4429450">
        <ele>2888.6</ele>
        <time>2021-08-13T09:27:54Z</time>
      </trkpt>
      <trkpt lat="42.5919150" lon="1.4428660">
        <ele>2887.0</ele>
        <time>2021-08-13T09:28:15Z</time>
      </trkpt>
      <trkpt lat="42.5919260" lon="1.4428530">
        <ele>2886.6</ele>
        <time>2021-08-13T09:28:19Z</time>
      </trkpt>
      <trkpt lat="42.5919310" lon="1.4428490">
        <ele>2886.5</ele>
        <time>2021-08-13T09:28:20Z</time>
      </trkpt>
      <trkpt lat="42.5919490" lon="1.4428480">
        <ele>2886.0</ele>
        <time>2021-08-13T09:28:24Z</time>
      </trkpt>
      <trkpt lat="42.5919630" lon="1.4428120">
        <ele>2885.2</ele>
        <time>2021-08-13T09:28:37Z</time>
      </trkpt>
      <trkpt lat="42.5919470" lon="1.4427870">
        <ele>2884.6</ele>
        <time>2021-08-13T09:28:45Z</time>
      </trkpt>
      <trkpt lat="42.5919270" lon="1.4427540">
        <ele>2883.8</ele>
        <time>2021-08-13T09:28:52Z</time>
      </trkpt>
      <trkpt lat="42.5919240" lon="1.4427160">
        <ele>2883.0</ele>
        <time>2021-08-13T09:29:03Z</time>
      </trkpt>
      <trkpt lat="42.5919320" lon="1.4426920">
        <ele>2882.5</ele>
        <time>2021-08-13T09:29:10Z</time>
      </trkpt>
      <trkpt lat="42.5919390" lon="1.4426830">
        <ele>2882.3</ele>
        <time>2021-08-13T09:29:12Z</time>
      </trkpt>
      <trkpt lat="42.5919690" lon="1.4426560">
        <ele>2881.3</ele>
        <time>2021-08-13T09:29:18Z</time>
      </trkpt>
      <trkpt lat="42.5919730" lon="1.4426480">
        <ele>2881.1</ele>
        <time>2021-08-13T09:29:19Z</time>
      </trkpt>
      <trkpt lat="42.5919800" lon="1.4426360">
        <ele>2880.8</ele>
        <time>2021-08-13T09:29:21Z</time>
      </trkpt>
      <trkpt lat="42.5919820" lon="1.4426290">
        <ele>2880.7</ele>
        <time>2021-08-13T09:29:22Z</time>
      </trkpt>
      <trkpt lat="42.5919810" lon="1.4426260">
        <ele>2880.6</ele>
        <time>2021-08-13T09:29:24Z</time>
      </trkpt>
      <trkpt lat="42.5919780" lon="1.4426200">
        <ele>2880.5</ele>
        <time>2021-08-13T09:29:26Z</time>
      </trkpt>
      <trkpt lat="42.5919770" lon="1.4426190">
        <ele>2880.5</ele>
        <time>2021-08-13T09:29:27Z</time>
      </trkpt>
      <trkpt lat="42.5919750" lon="1.4426170">
        <ele>2880.4</ele>
        <time>2021-08-13T09:29:29Z</time>
      </trkpt>
      <trkpt lat="42.5919670" lon="1.4426060">
        <ele>2880.1</ele>
        <time>2021-08-13T09:29:32Z</time>
      </trkpt>
      <trkpt lat="42.5919590" lon="1.4425990">
        <ele>2875.7</ele>
        <time>2021-08-13T09:29:34Z</time>
      </trkpt>
      <trkpt lat="42.5919440" lon="1.4425840">
        <ele>2874.4</ele>
        <time>2021-08-13T09:29:39Z</time>
      </trkpt>
      <trkpt lat="42.5919320" lon="1.4425240">
        <ele>2871.2</ele>
        <time>2021-08-13T09:29:58Z</time>
      </trkpt>
      <trkpt lat="42.5920530" lon="1.4423410">
        <ele>2858.6</ele>
        <time>2021-08-13T09:30:25Z</time>
      </trkpt>
      <trkpt lat="42.5920560" lon="1.4423320">
        <ele>2858.1</ele>
        <time>2021-08-13T09:30:26Z</time>
      </trkpt>
      <trkpt lat="42.5920580" lon="1.4423250">
        <ele>2857.7</ele>
        <time>2021-08-13T09:30:27Z</time>
      </trkpt>
      <trkpt lat="42.5920620" lon="1.4423160">
        <ele>2857.2</ele>
        <time>2021-08-13T09:30:28Z</time>
      </trkpt>
      <trkpt lat="42.5920660" lon="1.4423090">
        <ele>2856.7</ele>
        <time>2021-08-13T09:30:29Z</time>
      </trkpt>
      <trkpt lat="42.5920660" lon="1.4422870">
        <ele>2855.8</ele>
        <time>2021-08-13T09:30:31Z</time>
      </trkpt>
      <trkpt lat="42.5920820" lon="1.4422560">
        <ele>2854.6</ele>
        <time>2021-08-13T09:30:36Z</time>
      </trkpt>
      <trkpt lat="42.5920820" lon="1.4422470">
        <ele>2854.3</ele>
        <time>2021-08-13T09:30:38Z</time>
      </trkpt>
      <trkpt lat="42.5920810" lon="1.4422400">
        <ele>2854.0</ele>
        <time>2021-08-13T09:30:41Z</time>
      </trkpt>
      <trkpt lat="42.5920830" lon="1.4422350">
        <ele>2853.8</ele>
        <time>2021-08-13T09:30:42Z</time>
      </trkpt>
      <trkpt lat="42.5920920" lon="1.4422220">
        <ele>2853.3</ele>
        <time>2021-08-13T09:30:45Z</time>
      </trkpt>
      <trkpt lat="42.5920890" lon="1.4421920">
        <ele>2852.3</ele>
        <time>2021-08-13T09:30:50Z</time>
      </trkpt>
      <trkpt lat="42.5920920" lon="1.4421830">
        <ele>2851.9</ele>
        <time>2021-08-13T09:30:51Z</time>
      </trkpt>
      <trkpt lat="42.5920970" lon="1.4421720">
        <ele>2851.5</ele>
        <time>2021-08-13T09:30:52Z</time>
      </trkpt>
      <trkpt lat="42.5921040" lon="1.4421130">
        <ele>2849.6</ele>
        <time>2021-08-13T09:30:58Z</time>
      </trkpt>
      <trkpt lat="42.5921090" lon="1.4420900">
        <ele>2848.8</ele>
        <time>2021-08-13T09:31:01Z</time>
      </trkpt>
      <trkpt lat="42.5921180" lon="1.4420700">
        <ele>2848.0</ele>
        <time>2021-08-13T09:31:04Z</time>
      </trkpt>
      <trkpt lat="42.5921200" lon="1.4420540">
        <ele>2847.5</ele>
        <time>2021-08-13T09:31:06Z</time>
      </trkpt>
      <trkpt lat="42.5921200" lon="1.4420470">
        <ele>2847.2</ele>
        <time>2021-08-13T09:31:07Z</time>
      </trkpt>
      <trkpt lat="42.5921220" lon="1.4420420">
        <ele>2847.1</ele>
        <time>2021-08-13T09:31:08Z</time>
      </trkpt>
      <trkpt lat="42.5921260" lon="1.4420280">
        <ele>2846.6</ele>
        <time>2021-08-13T09:31:10Z</time>
      </trkpt>
      <trkpt lat="42.5921330" lon="1.4420250">
        <ele>2846.2</ele>
        <time>2021-08-13T09:31:11Z</time>
      </trkpt>
      <trkpt lat="42.5921370" lon="1.4420220">
        <ele>2846.0</ele>
        <time>2021-08-13T09:31:12Z</time>
      </trkpt>
      <trkpt lat="42.5921470" lon="1.4420120">
        <ele>2845.5</ele>
        <time>2021-08-13T09:31:16Z</time>
      </trkpt>
      <trkpt lat="42.5921560" lon="1.4420020">
        <ele>2845.0</ele>
        <time>2021-08-13T09:31:19Z</time>
      </trkpt>
      <trkpt lat="42.5921600" lon="1.4419920">
        <ele>2844.6</ele>
        <time>2021-08-13T09:31:21Z</time>
      </trkpt>
      <trkpt lat="42.5922350" lon="1.4419240">
        <ele>2840.6</ele>
        <time>2021-08-13T09:31:43Z</time>
      </trkpt>
      <trkpt lat="42.5922520" lon="1.4418940">
        <ele>2839.3</ele>
        <time>2021-08-13T09:31:49Z</time>
      </trkpt>
      <trkpt lat="42.5922550" lon="1.4418720">
        <ele>2838.5</ele>
        <time>2021-08-13T09:31:53Z</time>
      </trkpt>
      <trkpt lat="42.5922470" lon="1.4418620">
        <ele>2838.0</ele>
        <time>2021-08-13T09:31:57Z</time>
      </trkpt>
      <trkpt lat="42.5922390" lon="1.4418640">
        <ele>2837.6</ele>
        <time>2021-08-13T09:32:03Z</time>
      </trkpt>
      <trkpt lat="42.5922360" lon="1.4418620">
        <ele>2837.5</ele>
        <time>2021-08-13T09:32:04Z</time>
      </trkpt>
      <trkpt lat="42.5922320" lon="1.4418460">
        <ele>2836.9</ele>
        <time>2021-08-13T09:32:07Z</time>
      </trkpt>
      <trkpt lat="42.5922300" lon="1.4418390">
        <ele>2836.6</ele>
        <time>2021-08-13T09:32:08Z</time>
      </trkpt>
      <trkpt lat="42.5922250" lon="1.4418310">
        <ele>2836.2</ele>
        <time>2021-08-13T09:32:09Z</time>
      </trkpt>
      <trkpt lat="42.5922250" lon="1.4418240">
        <ele>2836.0</ele>
        <time>2021-08-13T09:32:10Z</time>
      </trkpt>
      <trkpt lat="42.5922380" lon="1.4418070">
        <ele>2835.1</ele>
        <time>2021-08-13T09:32:15Z</time>
      </trkpt>
      <trkpt lat="42.5922410" lon="1.4417990">
        <ele>2834.8</ele>
        <time>2021-08-13T09:32:17Z</time>
      </trkpt>
      <trkpt lat="42.5922510" lon="1.4417940">
        <ele>2834.3</ele>
        <time>2021-08-13T09:32:19Z</time>
      </trkpt>
      <trkpt lat="42.5922600" lon="1.4417890">
        <ele>2833.8</ele>
        <time>2021-08-13T09:32:24Z</time>
      </trkpt>
      <trkpt lat="42.5922710" lon="1.4417000">
        <ele>2830.6</ele>
        <time>2021-08-13T09:32:48Z</time>
      </trkpt>
      <trkpt lat="42.5922850" lon="1.4416840">
        <ele>2829.7</ele>
        <time>2021-08-13T09:32:52Z</time>
      </trkpt>
      <trkpt lat="42.5923120" lon="1.4416500">
        <ele>2827.9</ele>
        <time>2021-08-13T09:32:56Z</time>
      </trkpt>
      <trkpt lat="42.5923270" lon="1.4416370">
        <ele>2827.0</ele>
        <time>2021-08-13T09:33:00Z</time>
      </trkpt>
      <trkpt lat="42.5923300" lon="1.4416320">
        <ele>2826.8</ele>
        <time>2021-08-13T09:33:01Z</time>
      </trkpt>
      <trkpt lat="42.5923360" lon="1.4416210">
        <ele>2826.3</ele>
        <time>2021-08-13T09:33:03Z</time>
      </trkpt>
      <trkpt lat="42.5923370" lon="1.4416150">
        <ele>2826.1</ele>
        <time>2021-08-13T09:33:05Z</time>
      </trkpt>
      <trkpt lat="42.5923490" lon="1.4415640">
        <ele>2824.1</ele>
        <time>2021-08-13T09:33:12Z</time>
      </trkpt>
      <trkpt lat="42.5923570" lon="1.4415550">
        <ele>2823.6</ele>
        <time>2021-08-13T09:33:13Z</time>
      </trkpt>
      <trkpt lat="42.5923840" lon="1.4415450">
        <ele>2822.2</ele>
        <time>2021-08-13T09:33:18Z</time>
      </trkpt>
      <trkpt lat="42.5923860" lon="1.4415480">
        <ele>2822.1</ele>
        <time>2021-08-13T09:33:19Z</time>
      </trkpt>
      <trkpt lat="42.5923940" lon="1.4415440">
        <ele>2821.7</ele>
        <time>2021-08-13T09:33:25Z</time>
      </trkpt>
      <trkpt lat="42.5923950" lon="1.4415390">
        <ele>2821.5</ele>
        <time>2021-08-13T09:33:26Z</time>
      </trkpt>
      <trkpt lat="42.5923980" lon="1.4415360">
        <ele>2821.3</ele>
        <time>2021-08-13T09:33:27Z</time>
      </trkpt>
      <trkpt lat="42.5924010" lon="1.4415300">
        <ele>2821.1</ele>
        <time>2021-08-13T09:33:28Z</time>
      </trkpt>
      <trkpt lat="42.5924040" lon="1.4415270">
        <ele>2820.9</ele>
        <time>2021-08-13T09:33:30Z</time>
      </trkpt>
      <trkpt lat="42.5924030" lon="1.4415240">
        <ele>2820.8</ele>
        <time>2021-08-13T09:33:31Z</time>
      </trkpt>
      <trkpt lat="42.5924010" lon="1.4415220">
        <ele>2820.7</ele>
        <time>2021-08-13T09:33:33Z</time>
      </trkpt>
      <trkpt lat="42.5923980" lon="1.4415070">
        <ele>2820.1</ele>
        <time>2021-08-13T09:33:35Z</time>
      </trkpt>
      <trkpt lat="42.5924030" lon="1.4414940">
        <ele>2819.6</ele>
        <time>2021-08-13T09:33:37Z</time>
      </trkpt>
      <trkpt lat="42.5924020" lon="1.4414760">
        <ele>2819.0</ele>
        <time>2021-08-13T09:33:40Z</time>
      </trkpt>
      <trkpt lat="42.5924240" lon="1.4414630">
        <ele>2817.9</ele>
        <time>2021-08-13T09:33:53Z</time>
      </trkpt>
      <trkpt lat="42.5924220" lon="1.4414640">
        <ele>2817.8</ele>
        <time>2021-08-13T09:33:56Z</time>
      </trkpt>
      <trkpt lat="42.5924160" lon="1.4414600">
        <ele>2817.5</ele>
        <time>2021-08-13T09:34:00Z</time>
      </trkpt>
      <trkpt lat="42.5924080" lon="1.4414250">
        <ele>2816.2</ele>
        <time>2021-08-13T09:34:04Z</time>
      </trkpt>
      <trkpt lat="42.5924030" lon="1.4413900">
        <ele>2815.0</ele>
        <time>2021-08-13T09:34:07Z</time>
      </trkpt>
      <trkpt lat="42.5924270" lon="1.4413140">
        <ele>2812.3</ele>
        <time>2021-08-13T09:34:17Z</time>
      </trkpt>
      <trkpt lat="42.5924510" lon="1.4412900">
        <ele>2811.0</ele>
        <time>2021-08-13T09:34:24Z</time>
      </trkpt>
      <trkpt lat="42.5924970" lon="1.4413270">
        <ele>2808.8</ele>
        <time>2021-08-13T09:34:31Z</time>
      </trkpt>
      <trkpt lat="42.5925300" lon="1.4413420">
        <ele>2807.3</ele>
        <time>2021-08-13T09:34:36Z</time>
      </trkpt>
      <trkpt lat="42.5925400" lon="1.4412790">
        <ele>2805.3</ele>
        <time>2021-08-13T09:34:45Z</time>
      </trkpt>
      <trkpt lat="42.5924800" lon="1.4411400">
        <ele>2800.5</ele>
        <time>2021-08-13T09:35:05Z</time>
      </trkpt>
      <trkpt lat="42.5924590" lon="1.4411210">
        <ele>2799.5</ele>
        <time>2021-08-13T09:35:10Z</time>
      </trkpt>
      <trkpt lat="42.5924590" lon="1.4411200">
        <ele>2799.5</ele>
        <time>2021-08-13T09:35:12Z</time>
      </trkpt>
      <trkpt lat="42.5924590" lon="1.4411210">
        <ele>2799.5</ele>
        <time>2021-08-13T09:35:13Z</time>
      </trkpt>
      <trkpt lat="42.5924440" lon="1.4411060">
        <ele>2798.7</ele>
        <time>2021-08-13T09:35:17Z</time>
      </trkpt>
      <trkpt lat="42.5924370" lon="1.4411080">
        <ele>2798.4</ele>
        <time>2021-08-13T09:35:18Z</time>
      </trkpt>
      <trkpt lat="42.5924110" lon="1.4410930">
        <ele>2797.3</ele>
        <time>2021-08-13T09:35:21Z</time>
      </trkpt>
      <trkpt lat="42.5924000" lon="1.4410820">
        <ele>2796.8</ele>
        <time>2021-08-13T09:35:22Z</time>
      </trkpt>
      <trkpt lat="42.5923900" lon="1.4410690">
        <ele>2796.2</ele>
        <time>2021-08-13T09:35:23Z</time>
      </trkpt>
      <trkpt lat="42.5923750" lon="1.4410340">
        <ele>2795.0</ele>
        <time>2021-08-13T09:35:26Z</time>
      </trkpt>
      <trkpt lat="42.5923980" lon="1.4409510">
        <ele>2792.5</ele>
        <time>2021-08-13T09:35:34Z</time>
      </trkpt>
      <trkpt lat="42.5923980" lon="1.4409450">
        <ele>2792.4</ele>
        <time>2021-08-13T09:35:35Z</time>
      </trkpt>
      <trkpt lat="42.5924010" lon="1.4409160">
        <ele>2791.6</ele>
        <time>2021-08-13T09:35:38Z</time>
      </trkpt>
      <trkpt lat="42.5924000" lon="1.4409020">
        <ele>2791.2</ele>
        <time>2021-08-13T09:35:40Z</time>
      </trkpt>
      <trkpt lat="42.5924010" lon="1.4408960">
        <ele>2791.0</ele>
        <time>2021-08-13T09:35:41Z</time>
      </trkpt>
      <trkpt lat="42.5924140" lon="1.4408650">
        <ele>2790.0</ele>
        <time>2021-08-13T09:35:45Z</time>
      </trkpt>
      <trkpt lat="42.5924150" lon="1.4408510">
        <ele>2789.6</ele>
        <time>2021-08-13T09:35:47Z</time>
      </trkpt>
      <trkpt lat="42.5924290" lon="1.4408330">
        <ele>2788.9</ele>
        <time>2021-08-13T09:35:50Z</time>
      </trkpt>
      <trkpt lat="42.5924850" lon="1.4408120">
        <ele>2786.9</ele>
        <time>2021-08-13T09:35:55Z</time>
      </trkpt>
      <trkpt lat="42.5926390" lon="1.4407020">
        <ele>2781.6</ele>
        <time>2021-08-13T09:36:10Z</time>
      </trkpt>
      <trkpt lat="42.5927100" lon="1.4405590">
        <ele>2778.2</ele>
        <time>2021-08-13T09:36:19Z</time>
      </trkpt>
      <trkpt lat="42.5927150" lon="1.4405480">
        <ele>2777.9</ele>
        <time>2021-08-13T09:36:20Z</time>
      </trkpt>
      <trkpt lat="42.5927060" lon="1.4405310">
        <ele>2777.5</ele>
        <time>2021-08-13T09:36:23Z</time>
      </trkpt>
      <trkpt lat="42.5927040" lon="1.4405240">
        <ele>2777.3</ele>
        <time>2021-08-13T09:36:24Z</time>
      </trkpt>
      <trkpt lat="42.5927050" lon="1.4405030">
        <ele>2776.9</ele>
        <time>2021-08-13T09:36:26Z</time>
      </trkpt>
      <trkpt lat="42.5926900" lon="1.4404390">
        <ele>2775.6</ele>
        <time>2021-08-13T09:36:33Z</time>
      </trkpt>
      <trkpt lat="42.5926820" lon="1.4404130">
        <ele>2775.0</ele>
        <time>2021-08-13T09:36:35Z</time>
      </trkpt>
      <trkpt lat="42.5926660" lon="1.4403370">
        <ele>2773.4</ele>
        <time>2021-08-13T09:36:42Z</time>
      </trkpt>
      <trkpt lat="42.5926730" lon="1.4401800">
        <ele>2770.4</ele>
        <time>2021-08-13T09:36:57Z</time>
      </trkpt>
      <trkpt lat="42.5926680" lon="1.4401290">
        <ele>2769.5</ele>
        <time>2021-08-13T09:37:02Z</time>
      </trkpt>
      <trkpt lat="42.5926600" lon="1.4400360">
        <ele>2767.9</ele>
        <time>2021-08-13T09:37:11Z</time>
      </trkpt>
      <trkpt lat="42.5926640" lon="1.4399650">
        <ele>2766.9</ele>
        <time>2021-08-13T09:37:18Z</time>
      </trkpt>
      <trkpt lat="42.5926980" lon="1.4398630">
        <ele>2765.3</ele>
        <time>2021-08-13T09:37:39Z</time>
      </trkpt>
      <trkpt lat="42.5927140" lon="1.4398700">
        <ele>2765.0</ele>
        <time>2021-08-13T09:37:43Z</time>
      </trkpt>
      <trkpt lat="42.5926350" lon="1.4398900">
        <ele>2763.5</ele>
        <time>2021-08-13T09:47:14Z</time>
      </trkpt>
      <trkpt lat="42.5926330" lon="1.4398880">
        <ele>2763.5</ele>
        <time>2021-08-13T09:47:15Z</time>
      </trkpt>
      <trkpt lat="42.5926000" lon="1.4398770">
        <ele>2762.9</ele>
        <time>2021-08-13T09:47:22Z</time>
      </trkpt>
      <trkpt lat="42.5925820" lon="1.4398870">
        <ele>2762.5</ele>
        <time>2021-08-13T09:47:32Z</time>
      </trkpt>
      <trkpt lat="42.5925850" lon="1.4398910">
        <ele>2762.5</ele>
        <time>2021-08-13T09:47:34Z</time>
      </trkpt>
      <trkpt lat="42.5925840" lon="1.4398820">
        <ele>2762.3</ele>
        <time>2021-08-13T09:47:37Z</time>
      </trkpt>
      <trkpt lat="42.5925760" lon="1.4398760">
        <ele>2762.2</ele>
        <time>2021-08-13T09:47:47Z</time>
      </trkpt>
      <trkpt lat="42.5925770" lon="1.4398760">
        <ele>2762.2</ele>
        <time>2021-08-13T09:47:48Z</time>
      </trkpt>
      <trkpt lat="42.5925610" lon="1.4398780">
        <ele>2761.9</ele>
        <time>2021-08-13T09:47:52Z</time>
      </trkpt>
      <trkpt lat="42.5925150" lon="1.4398710">
        <ele>2761.1</ele>
        <time>2021-08-13T09:47:58Z</time>
      </trkpt>
      <trkpt lat="42.5924750" lon="1.4398670">
        <ele>2760.3</ele>
        <time>2021-08-13T09:48:03Z</time>
      </trkpt>
      <trkpt lat="42.5924550" lon="1.4398480">
        <ele>2759.9</ele>
        <time>2021-08-13T09:48:06Z</time>
      </trkpt>
      <trkpt lat="42.5924410" lon="1.4398310">
        <ele>2759.6</ele>
        <time>2021-08-13T09:48:08Z</time>
      </trkpt>
      <trkpt lat="42.5924250" lon="1.4397980">
        <ele>2759.1</ele>
        <time>2021-08-13T09:48:11Z</time>
      </trkpt>
      <trkpt lat="42.5924200" lon="1.4397900">
        <ele>2758.9</ele>
        <time>2021-08-13T09:48:12Z</time>
      </trkpt>
      <trkpt lat="42.5922950" lon="1.4396050">
        <ele>2755.8</ele>
        <time>2021-08-13T09:48:31Z</time>
      </trkpt>
      <trkpt lat="42.5921820" lon="1.4394090">
        <ele>2752.8</ele>
        <time>2021-08-13T09:48:50Z</time>
      </trkpt>
      <trkpt lat="42.5921250" lon="1.4393680">
        <ele>2751.7</ele>
        <time>2021-08-13T09:48:57Z</time>
      </trkpt>
      <trkpt lat="42.5919760" lon="1.4393720">
        <ele>2749.1</ele>
        <time>2021-08-13T09:49:23Z</time>
      </trkpt>
      <trkpt lat="42.5918270" lon="1.4394710">
        <ele>2744.8</ele>
        <time>2021-08-13T09:49:56Z</time>
      </trkpt>
      <trkpt lat="42.5916660" lon="1.4393710">
        <ele>2740.7</ele>
        <time>2021-08-13T09:50:25Z</time>
      </trkpt>
      <trkpt lat="42.5915490" lon="1.4392500">
        <ele>2737.4</ele>
        <time>2021-08-13T09:50:44Z</time>
      </trkpt>
      <trkpt lat="42.5915410" lon="1.4392320">
        <ele>2737.0</ele>
        <time>2021-08-13T09:50:47Z</time>
      </trkpt>
      <trkpt lat="42.5914950" lon="1.4391610">
        <ele>2735.0</ele>
        <time>2021-08-13T09:50:57Z</time>
      </trkpt>
      <trkpt lat="42.5914350" lon="1.4391620">
        <ele>2733.2</ele>
        <time>2021-08-13T09:51:11Z</time>
      </trkpt>
      <trkpt lat="42.5914140" lon="1.4391600">
        <ele>2732.5</ele>
        <time>2021-08-13T09:51:13Z</time>
      </trkpt>
      <trkpt lat="42.5912740" lon="1.4390240">
        <ele>2728.3</ele>
        <time>2021-08-13T09:51:29Z</time>
      </trkpt>
      <trkpt lat="42.5911330" lon="1.4389240">
        <ele>2725.0</ele>
        <time>2021-08-13T09:51:40Z</time>
      </trkpt>
      <trkpt lat="42.5911180" lon="1.4388910">
        <ele>2724.3</ele>
        <time>2021-08-13T09:51:42Z</time>
      </trkpt>
      <trkpt lat="42.5911070" lon="1.4388810">
        <ele>2724.0</ele>
        <time>2021-08-13T09:51:43Z</time>
      </trkpt>
      <trkpt lat="42.5909920" lon="1.4388160">
        <ele>2720.7</ele>
        <time>2021-08-13T09:51:55Z</time>
      </trkpt>
      <trkpt lat="42.5909710" lon="1.4388210">
        <ele>2720.1</ele>
        <time>2021-08-13T09:51:58Z</time>
      </trkpt>
      <trkpt lat="42.5909520" lon="1.4387940">
        <ele>2719.3</ele>
        <time>2021-08-13T09:52:02Z</time>
      </trkpt>
      <trkpt lat="42.5909330" lon="1.4387470">
        <ele>2718.1</ele>
        <time>2021-08-13T09:52:05Z</time>
      </trkpt>
      <trkpt lat="42.5908780" lon="1.4387270">
        <ele>2716.3</ele>
        <time>2021-08-13T09:52:11Z</time>
      </trkpt>
      <trkpt lat="42.5908590" lon="1.4387100">
        <ele>2715.6</ele>
        <time>2021-08-13T09:52:13Z</time>
      </trkpt>
      <trkpt lat="42.5907990" lon="1.4387130">
        <ele>2713.7</ele>
        <time>2021-08-13T09:52:18Z</time>
      </trkpt>
      <trkpt lat="42.5907540" lon="1.4387030">
        <ele>2712.4</ele>
        <time>2021-08-13T09:52:27Z</time>
      </trkpt>
      <trkpt lat="42.5907610" lon="1.4386560">
        <ele>2711.5</ele>
        <time>2021-08-13T09:52:44Z</time>
      </trkpt>
      <trkpt lat="42.5907570" lon="1.4386400">
        <ele>2711.1</ele>
        <time>2021-08-13T09:52:45Z</time>
      </trkpt>
      <trkpt lat="42.5907540" lon="1.4386210">
        <ele>2710.8</ele>
        <time>2021-08-13T09:52:46Z</time>
      </trkpt>
      <trkpt lat="42.5907520" lon="1.4386000">
        <ele>2710.4</ele>
        <time>2021-08-13T09:52:47Z</time>
      </trkpt>
      <trkpt lat="42.5907490" lon="1.4385600">
        <ele>2709.7</ele>
        <time>2021-08-13T09:52:49Z</time>
      </trkpt>
      <trkpt lat="42.5907510" lon="1.4384450">
        <ele>2707.5</ele>
        <time>2021-08-13T09:52:55Z</time>
      </trkpt>
      <trkpt lat="42.5907510" lon="1.4384260">
        <ele>2707.1</ele>
        <time>2021-08-13T09:52:56Z</time>
      </trkpt>
      <trkpt lat="42.5907340" lon="1.4384010">
        <ele>2706.4</ele>
        <time>2021-08-13T09:52:58Z</time>
      </trkpt>
      <trkpt lat="42.5907200" lon="1.4383980">
        <ele>2706.0</ele>
        <time>2021-08-13T09:52:59Z</time>
      </trkpt>
      <trkpt lat="42.5906900" lon="1.4383820">
        <ele>2705.1</ele>
        <time>2021-08-13T09:53:02Z</time>
      </trkpt>
      <trkpt lat="42.5906700" lon="1.4383680">
        <ele>2704.4</ele>
        <time>2021-08-13T09:53:04Z</time>
      </trkpt>
      <trkpt lat="42.5905540" lon="1.4383850">
        <ele>2701.0</ele>
        <time>2021-08-13T09:53:15Z</time>
      </trkpt>
      <trkpt lat="42.5905120" lon="1.4383760">
        <ele>2699.8</ele>
        <time>2021-08-13T09:53:20Z</time>
      </trkpt>
      <trkpt lat="42.5904710" lon="1.4383840">
        <ele>2698.8</ele>
        <time>2021-08-13T09:53:23Z</time>
      </trkpt>
      <trkpt lat="42.5903930" lon="1.4383500">
        <ele>2696.8</ele>
        <time>2021-08-13T09:53:30Z</time>
      </trkpt>
      <trkpt lat="42.5903180" lon="1.4383190">
        <ele>2694.9</ele>
        <time>2021-08-13T09:53:40Z</time>
      </trkpt>
      <trkpt lat="42.5903000" lon="1.4383110">
        <ele>2694.4</ele>
        <time>2021-08-13T09:53:42Z</time>
      </trkpt>
      <trkpt lat="42.5902100" lon="1.4382900">
        <ele>2692.0</ele>
        <time>2021-08-13T09:53:51Z</time>
      </trkpt>
      <trkpt lat="42.5900560" lon="1.4381570">
        <ele>2686.6</ele>
        <time>2021-08-13T09:54:11Z</time>
      </trkpt>
      <trkpt lat="42.5900340" lon="1.4381620">
        <ele>2685.9</ele>
        <time>2021-08-13T09:54:13Z</time>
      </trkpt>
      <trkpt lat="42.5899760" lon="1.4381070">
        <ele>2683.7</ele>
        <time>2021-08-13T09:54:21Z</time>
      </trkpt>
      <trkpt lat="42.5898710" lon="1.4380090">
        <ele>2679.8</ele>
        <time>2021-08-13T09:54:40Z</time>
      </trkpt>
      <trkpt lat="42.5897690" lon="1.4380120">
        <ele>2677.0</ele>
        <time>2021-08-13T09:55:02Z</time>
      </trkpt>
      <trkpt lat="42.5897470" lon="1.4380190">
        <ele>2676.4</ele>
        <time>2021-08-13T09:55:19Z</time>
      </trkpt>
      <trkpt lat="42.5896000" lon="1.4379130">
        <ele>2672.5</ele>
        <time>2021-08-13T09:55:46Z</time>
      </trkpt>
      <trkpt lat="42.5894880" lon="1.4378570">
        <ele>2669.8</ele>
        <time>2021-08-13T09:55:55Z</time>
      </trkpt>
      <trkpt lat="42.5893040" lon="1.4377920">
        <ele>2665.3</ele>
        <time>2021-08-13T09:56:09Z</time>
      </trkpt>
      <trkpt lat="42.5891340" lon="1.4376980">
        <ele>2661.4</ele>
        <time>2021-08-13T09:56:24Z</time>
      </trkpt>
      <trkpt lat="42.5889720" lon="1.4375840">
        <ele>2658.3</ele>
        <time>2021-08-13T09:56:40Z</time>
      </trkpt>
      <trkpt lat="42.5889580" lon="1.4375690">
        <ele>2658.0</ele>
        <time>2021-08-13T09:56:42Z</time>
      </trkpt>
      <trkpt lat="42.5889080" lon="1.4375330">
        <ele>2657.0</ele>
        <time>2021-08-13T09:56:46Z</time>
      </trkpt>
      <trkpt lat="42.5888730" lon="1.4375140">
        <ele>2656.4</ele>
        <time>2021-08-13T09:56:49Z</time>
      </trkpt>
      <trkpt lat="42.5888450" lon="1.4375030">
        <ele>2656.0</ele>
        <time>2021-08-13T09:56:52Z</time>
      </trkpt>
      <trkpt lat="42.5888340" lon="1.4375020">
        <ele>2655.8</ele>
        <time>2021-08-13T09:56:53Z</time>
      </trkpt>
      <trkpt lat="42.5888240" lon="1.4375000">
        <ele>2655.7</ele>
        <time>2021-08-13T09:56:54Z</time>
      </trkpt>
      <trkpt lat="42.5888160" lon="1.4374970">
        <ele>2655.6</ele>
        <time>2021-08-13T09:56:55Z</time>
      </trkpt>
      <trkpt lat="42.5887870" lon="1.4374870">
        <ele>2655.3</ele>
        <time>2021-08-13T09:56:58Z</time>
      </trkpt>
      <trkpt lat="42.5887770" lon="1.4374820">
        <ele>2655.2</ele>
        <time>2021-08-13T09:56:59Z</time>
      </trkpt>
      <trkpt lat="42.5887680" lon="1.4374790">
        <ele>2655.1</ele>
        <time>2021-08-13T09:57:00Z</time>
      </trkpt>
      <trkpt lat="42.5887590" lon="1.4374700">
        <ele>2655.0</ele>
        <time>2021-08-13T09:57:03Z</time>
      </trkpt>
      <trkpt lat="42.5886420" lon="1.4374590">
        <ele>2654.4</ele>
        <time>2021-08-13T09:57:23Z</time>
      </trkpt>
      <trkpt lat="42.5884800" lon="1.4375510">
        <ele>2654.9</ele>
        <time>2021-08-13T09:57:45Z</time>
      </trkpt>
      <trkpt lat="42.5884630" lon="1.4375690">
        <ele>2655.0</ele>
        <time>2021-08-13T09:57:47Z</time>
      </trkpt>
      <trkpt lat="42.5882990" lon="1.4376980">
        <ele>2655.0</ele>
        <time>2021-08-13T09:58:04Z</time>
      </trkpt>
      <trkpt lat="42.5881100" lon="1.4377650">
        <ele>2653.3</ele>
        <time>2021-08-13T09:58:16Z</time>
      </trkpt>
      <trkpt lat="42.5879660" lon="1.4379190">
        <ele>2651.6</ele>
        <time>2021-08-13T09:58:29Z</time>
      </trkpt>
      <trkpt lat="42.5878630" lon="1.4381330">
        <ele>2650.6</ele>
        <time>2021-08-13T09:58:41Z</time>
      </trkpt>
      <trkpt lat="42.5878450" lon="1.4381350">
        <ele>2650.6</ele>
        <time>2021-08-13T09:58:43Z</time>
      </trkpt>
      <trkpt lat="42.5877090" lon="1.4379590">
        <ele>2651.1</ele>
        <time>2021-08-13T09:59:00Z</time>
      </trkpt>
      <trkpt lat="42.5875830" lon="1.4377620">
        <ele>2651.5</ele>
        <time>2021-08-13T09:59:24Z</time>
      </trkpt>
      <trkpt lat="42.5875010" lon="1.4376410">
        <ele>2652.3</ele>
        <time>2021-08-13T09:59:37Z</time>
      </trkpt>
      <trkpt lat="42.5874500" lon="1.4375580">
        <ele>2653.0</ele>
        <time>2021-08-13T09:59:45Z</time>
      </trkpt>
      <trkpt lat="42.5873860" lon="1.4374450">
        <ele>2653.7</ele>
        <time>2021-08-13T09:59:52Z</time>
      </trkpt>
      <trkpt lat="42.5873530" lon="1.4373950">
        <ele>2653.9</ele>
        <time>2021-08-13T09:59:56Z</time>
      </trkpt>
      <trkpt lat="42.5872490" lon="1.4371880">
        <ele>2654.2</ele>
        <time>2021-08-13T10:00:16Z</time>
      </trkpt>
      <trkpt lat="42.5871290" lon="1.4370100">
        <ele>2654.5</ele>
        <time>2021-08-13T10:00:33Z</time>
      </trkpt>
      <trkpt lat="42.5870840" lon="1.4369030">
        <ele>2654.5</ele>
        <time>2021-08-13T10:00:40Z</time>
      </trkpt>
      <trkpt lat="42.5869190" lon="1.4368020">
        <ele>2653.9</ele>
        <time>2021-08-13T10:01:04Z</time>
      </trkpt>
      <trkpt lat="42.5867770" lon="1.4366600">
        <ele>2654.2</ele>
        <time>2021-08-13T10:01:37Z</time>
      </trkpt>
      <trkpt lat="42.5867100" lon="1.4366340">
        <ele>2654.5</ele>
        <time>2021-08-13T10:02:00Z</time>
      </trkpt>
      <trkpt lat="42.5866680" lon="1.4366100">
        <ele>2654.6</ele>
        <time>2021-08-13T10:02:15Z</time>
      </trkpt>
      <trkpt lat="42.5866650" lon="1.4366080">
        <ele>2654.6</ele>
        <time>2021-08-13T10:02:21Z</time>
      </trkpt>
      <trkpt lat="42.5866290" lon="1.4366080">
        <ele>2654.6</ele>
        <time>2021-08-13T10:02:28Z</time>
      </trkpt>
      <trkpt lat="42.5865940" lon="1.4365830">
        <ele>2654.5</ele>
        <time>2021-08-13T10:02:35Z</time>
      </trkpt>
      <trkpt lat="42.5865570" lon="1.4365510">
        <ele>2654.3</ele>
        <time>2021-08-13T10:02:43Z</time>
      </trkpt>
      <trkpt lat="42.5865280" lon="1.4365350">
        <ele>2654.1</ele>
        <time>2021-08-13T10:02:48Z</time>
      </trkpt>
      <trkpt lat="42.5864920" lon="1.4365290">
        <ele>2653.8</ele>
        <time>2021-08-13T10:02:53Z</time>
      </trkpt>
      <trkpt lat="42.5864770" lon="1.4365310">
        <ele>2653.6</ele>
        <time>2021-08-13T10:02:55Z</time>
      </trkpt>
      <trkpt lat="42.5864450" lon="1.4365320">
        <ele>2653.2</ele>
        <time>2021-08-13T10:03:00Z</time>
      </trkpt>
      <trkpt lat="42.5864080" lon="1.4364810">
        <ele>2652.5</ele>
        <time>2021-08-13T10:03:06Z</time>
      </trkpt>
      <trkpt lat="42.5864000" lon="1.4364750">
        <ele>2652.3</ele>
        <time>2021-08-13T10:03:07Z</time>
      </trkpt>
      <trkpt lat="42.5863930" lon="1.4364690">
        <ele>2652.2</ele>
        <time>2021-08-13T10:03:08Z</time>
      </trkpt>
      <trkpt lat="42.5863520" lon="1.4364630">
        <ele>2651.5</ele>
        <time>2021-08-13T10:03:15Z</time>
      </trkpt>
      <trkpt lat="42.5863090" lon="1.4364840">
        <ele>2650.7</ele>
        <time>2021-08-13T10:03:21Z</time>
      </trkpt>
      <trkpt lat="42.5863010" lon="1.4364860">
        <ele>2650.5</ele>
        <time>2021-08-13T10:03:22Z</time>
      </trkpt>
      <trkpt lat="42.5862760" lon="1.4364930">
        <ele>2650.0</ele>
        <time>2021-08-13T10:03:25Z</time>
      </trkpt>
      <trkpt lat="42.5862000" lon="1.4365300">
        <ele>2648.6</ele>
        <time>2021-08-13T10:03:35Z</time>
      </trkpt>
      <trkpt lat="42.5861280" lon="1.4364290">
        <ele>2646.8</ele>
        <time>2021-08-13T10:03:52Z</time>
      </trkpt>
      <trkpt lat="42.5859890" lon="1.4363710">
        <ele>2644.7</ele>
        <time>2021-08-13T10:04:09Z</time>
      </trkpt>
      <trkpt lat="42.5857990" lon="1.4363960">
        <ele>2643.2</ele>
        <time>2021-08-13T10:04:24Z</time>
      </trkpt>
      <trkpt lat="42.5856110" lon="1.4363510">
        <ele>2639.7</ele>
        <time>2021-08-13T10:04:41Z</time>
      </trkpt>
      <trkpt lat="42.5855910" lon="1.4363510">
        <ele>2639.2</ele>
        <time>2021-08-13T10:04:43Z</time>
      </trkpt>
      <trkpt lat="42.5855730" lon="1.4363510">
        <ele>2638.8</ele>
        <time>2021-08-13T10:04:45Z</time>
      </trkpt>
      <trkpt lat="42.5855510" lon="1.4363440">
        <ele>2638.2</ele>
        <time>2021-08-13T10:04:48Z</time>
      </trkpt>
      <trkpt lat="42.5855300" lon="1.4363320">
        <ele>2637.6</ele>
        <time>2021-08-13T10:04:51Z</time>
      </trkpt>
      <trkpt lat="42.5855110" lon="1.4363280">
        <ele>2637.1</ele>
        <time>2021-08-13T10:04:53Z</time>
      </trkpt>
      <trkpt lat="42.5855020" lon="1.4363240">
        <ele>2636.8</ele>
        <time>2021-08-13T10:04:54Z</time>
      </trkpt>
      <trkpt lat="42.5854930" lon="1.4363180">
        <ele>2636.6</ele>
        <time>2021-08-13T10:04:55Z</time>
      </trkpt>
      <trkpt lat="42.5854850" lon="1.4363120">
        <ele>2636.3</ele>
        <time>2021-08-13T10:04:56Z</time>
      </trkpt>
      <trkpt lat="42.5854760" lon="1.4363090">
        <ele>2636.1</ele>
        <time>2021-08-13T10:04:57Z</time>
      </trkpt>
      <trkpt lat="42.5854620" lon="1.4363070">
        <ele>2635.7</ele>
        <time>2021-08-13T10:04:59Z</time>
      </trkpt>
      <trkpt lat="42.5854430" lon="1.4363040">
        <ele>2635.2</ele>
        <time>2021-08-13T10:05:01Z</time>
      </trkpt>
      <trkpt lat="42.5854250" lon="1.4363000">
        <ele>2634.8</ele>
        <time>2021-08-13T10:05:03Z</time>
      </trkpt>
      <trkpt lat="42.5854160" lon="1.4362990">
        <ele>2634.5</ele>
        <time>2021-08-13T10:05:04Z</time>
      </trkpt>
      <trkpt lat="42.5854070" lon="1.4362940">
        <ele>2634.3</ele>
        <time>2021-08-13T10:05:05Z</time>
      </trkpt>
      <trkpt lat="42.5853680" lon="1.4362700">
        <ele>2633.2</ele>
        <time>2021-08-13T10:05:09Z</time>
      </trkpt>
      <trkpt lat="42.5853260" lon="1.4362780">
        <ele>2632.0</ele>
        <time>2021-08-13T10:05:20Z</time>
      </trkpt>
      <trkpt lat="42.5853020" lon="1.4362670">
        <ele>2631.4</ele>
        <time>2021-08-13T10:05:23Z</time>
      </trkpt>
      <trkpt lat="42.5852580" lon="1.4362400">
        <ele>2630.1</ele>
        <time>2021-08-13T10:05:34Z</time>
      </trkpt>
      <trkpt lat="42.5852310" lon="1.4362200">
        <ele>2629.3</ele>
        <time>2021-08-13T10:05:40Z</time>
      </trkpt>
      <trkpt lat="42.5852180" lon="1.4362050">
        <ele>2628.9</ele>
        <time>2021-08-13T10:05:46Z</time>
      </trkpt>
      <trkpt lat="42.5852090" lon="1.4362010">
        <ele>2628.6</ele>
        <time>2021-08-13T10:05:52Z</time>
      </trkpt>
      <trkpt lat="42.5852140" lon="1.4361820">
        <ele>2628.3</ele>
        <time>2021-08-13T10:06:01Z</time>
      </trkpt>
      <trkpt lat="42.5851910" lon="1.4361680">
        <ele>2627.6</ele>
        <time>2021-08-13T10:06:06Z</time>
      </trkpt>
      <trkpt lat="42.5851670" lon="1.4361590">
        <ele>2627.0</ele>
        <time>2021-08-13T10:06:14Z</time>
      </trkpt>
      <trkpt lat="42.5851370" lon="1.4361440">
        <ele>2626.1</ele>
        <time>2021-08-13T10:06:23Z</time>
      </trkpt>
      <trkpt lat="42.5851260" lon="1.4361000">
        <ele>2625.2</ele>
        <time>2021-08-13T10:06:35Z</time>
      </trkpt>
      <trkpt lat="42.5851220" lon="1.4360980">
        <ele>2625.1</ele>
        <time>2021-08-13T10:06:39Z</time>
      </trkpt>
      <trkpt lat="42.5851180" lon="1.4360790">
        <ele>2624.7</ele>
        <time>2021-08-13T10:06:43Z</time>
      </trkpt>
      <trkpt lat="42.5850890" lon="1.4360490">
        <ele>2623.8</ele>
        <time>2021-08-13T10:06:49Z</time>
      </trkpt>
      <trkpt lat="42.5849100" lon="1.4360310">
        <ele>2619.1</ele>
        <time>2021-08-13T10:07:02Z</time>
      </trkpt>
      <trkpt lat="42.5848390" lon="1.4360610">
        <ele>2617.2</ele>
        <time>2021-08-13T10:07:14Z</time>
      </trkpt>
      <trkpt lat="42.5848300" lon="1.4360720">
        <ele>2616.9</ele>
        <time>2021-08-13T10:07:16Z</time>
      </trkpt>
      <trkpt lat="42.5848210" lon="1.4360940">
        <ele>2616.4</ele>
        <time>2021-08-13T10:07:19Z</time>
      </trkpt>
      <trkpt lat="42.5848080" lon="1.4361090">
        <ele>2616.0</ele>
        <time>2021-08-13T10:07:22Z</time>
      </trkpt>
      <trkpt lat="42.5848040" lon="1.4361130">
        <ele>2615.8</ele>
        <time>2021-08-13T10:07:23Z</time>
      </trkpt>
      <trkpt lat="42.5847980" lon="1.4361170">
        <ele>2615.7</ele>
        <time>2021-08-13T10:07:24Z</time>
      </trkpt>
      <trkpt lat="42.5847830" lon="1.4361130">
        <ele>2615.3</ele>
        <time>2021-08-13T10:07:28Z</time>
      </trkpt>
      <trkpt lat="42.5847550" lon="1.4361190">
        <ele>2614.5</ele>
        <time>2021-08-13T10:07:33Z</time>
      </trkpt>
      <trkpt lat="42.5847500" lon="1.4361140">
        <ele>2614.4</ele>
        <time>2021-08-13T10:07:38Z</time>
      </trkpt>
      <trkpt lat="42.5846630" lon="1.4359080">
        <ele>2609.8</ele>
        <time>2021-08-13T10:07:57Z</time>
      </trkpt>
      <trkpt lat="42.5845920" lon="1.4356880">
        <ele>2605.2</ele>
        <time>2021-08-13T10:08:15Z</time>
      </trkpt>
      <trkpt lat="42.5845040" lon="1.4354800">
        <ele>2600.6</ele>
        <time>2021-08-13T10:08:37Z</time>
      </trkpt>
      <trkpt lat="42.5844940" lon="1.4354430">
        <ele>2599.9</ele>
        <time>2021-08-13T10:08:40Z</time>
      </trkpt>
      <trkpt lat="42.5844880" lon="1.4354310">
        <ele>2599.6</ele>
        <time>2021-08-13T10:08:41Z</time>
      </trkpt>
      <trkpt lat="42.5844830" lon="1.4354180">
        <ele>2599.3</ele>
        <time>2021-08-13T10:08:42Z</time>
      </trkpt>
      <trkpt lat="42.5844800" lon="1.4354070">
        <ele>2599.1</ele>
        <time>2021-08-13T10:08:43Z</time>
      </trkpt>
      <trkpt lat="42.5844790" lon="1.4353930">
        <ele>2598.8</ele>
        <time>2021-08-13T10:08:44Z</time>
      </trkpt>
      <trkpt lat="42.5844770" lon="1.4353760">
        <ele>2598.5</ele>
        <time>2021-08-13T10:08:45Z</time>
      </trkpt>
      <trkpt lat="42.5844720" lon="1.4353600">
        <ele>2598.1</ele>
        <time>2021-08-13T10:08:46Z</time>
      </trkpt>
      <trkpt lat="42.5844310" lon="1.4351990">
        <ele>2594.9</ele>
        <time>2021-08-13T10:08:58Z</time>
      </trkpt>
      <trkpt lat="42.5844290" lon="1.4351840">
        <ele>2594.6</ele>
        <time>2021-08-13T10:08:59Z</time>
      </trkpt>
      <trkpt lat="42.5844260" lon="1.4351700">
        <ele>2594.3</ele>
        <time>2021-08-13T10:09:00Z</time>
      </trkpt>
      <trkpt lat="42.5844240" lon="1.4351560">
        <ele>2594.0</ele>
        <time>2021-08-13T10:09:01Z</time>
      </trkpt>
      <trkpt lat="42.5844180" lon="1.4351140">
        <ele>2593.2</ele>
        <time>2021-08-13T10:09:04Z</time>
      </trkpt>
      <trkpt lat="42.5843600" lon="1.4350140">
        <ele>2590.8</ele>
        <time>2021-08-13T10:09:13Z</time>
      </trkpt>
      <trkpt lat="42.5843330" lon="1.4349810">
        <ele>2589.8</ele>
        <time>2021-08-13T10:09:17Z</time>
      </trkpt>
      <trkpt lat="42.5842770" lon="1.4349750">
        <ele>2588.4</ele>
        <time>2021-08-13T10:09:23Z</time>
      </trkpt>
      <trkpt lat="42.5842280" lon="1.4349840">
        <ele>2587.1</ele>
        <time>2021-08-13T10:09:29Z</time>
      </trkpt>
      <trkpt lat="42.5841820" lon="1.4349550">
        <ele>2585.8</ele>
        <time>2021-08-13T10:09:33Z</time>
      </trkpt>
      <trkpt lat="42.5841590" lon="1.4349400">
        <ele>2585.1</ele>
        <time>2021-08-13T10:09:35Z</time>
      </trkpt>
      <trkpt lat="42.5840590" lon="1.4348860">
        <ele>2582.3</ele>
        <time>2021-08-13T10:09:44Z</time>
      </trkpt>
      <trkpt lat="42.5839410" lon="1.4348500">
        <ele>2579.2</ele>
        <time>2021-08-13T10:09:53Z</time>
      </trkpt>
      <trkpt lat="42.5838680" lon="1.4347800">
        <ele>2576.8</ele>
        <time>2021-08-13T10:10:00Z</time>
      </trkpt>
      <trkpt lat="42.5838370" lon="1.4347040">
        <ele>2575.2</ele>
        <time>2021-08-13T10:10:05Z</time>
      </trkpt>
      <trkpt lat="42.5837300" lon="1.4346800">
        <ele>2572.3</ele>
        <time>2021-08-13T10:10:12Z</time>
      </trkpt>
      <trkpt lat="42.5835600" lon="1.4345890">
        <ele>2567.6</ele>
        <time>2021-08-13T10:10:29Z</time>
      </trkpt>
      <trkpt lat="42.5835100" lon="1.4345430">
        <ele>2566.0</ele>
        <time>2021-08-13T10:10:35Z</time>
      </trkpt>
      <trkpt lat="42.5834590" lon="1.4345160">
        <ele>2564.6</ele>
        <time>2021-08-13T10:10:40Z</time>
      </trkpt>
      <trkpt lat="42.5833370" lon="1.4343750">
        <ele>2560.4</ele>
        <time>2021-08-13T10:11:19Z</time>
      </trkpt>
      <trkpt lat="42.5833270" lon="1.4343600">
        <ele>2560.0</ele>
        <time>2021-08-13T10:11:21Z</time>
      </trkpt>
      <trkpt lat="42.5833170" lon="1.4343470">
        <ele>2559.7</ele>
        <time>2021-08-13T10:11:23Z</time>
      </trkpt>
      <trkpt lat="42.5832610" lon="1.4342820">
        <ele>2557.8</ele>
        <time>2021-08-13T10:11:31Z</time>
      </trkpt>
      <trkpt lat="42.5831240" lon="1.4341690">
        <ele>2553.6</ele>
        <time>2021-08-13T10:11:49Z</time>
      </trkpt>
      <trkpt lat="42.5830710" lon="1.4341050">
        <ele>2551.8</ele>
        <time>2021-08-13T10:11:57Z</time>
      </trkpt>
      <trkpt lat="42.5829400" lon="1.4339670">
        <ele>2547.4</ele>
        <time>2021-08-13T10:12:26Z</time>
      </trkpt>
      <trkpt lat="42.5829310" lon="1.4339580">
        <ele>2547.2</ele>
        <time>2021-08-13T10:12:27Z</time>
      </trkpt>
      <trkpt lat="42.5827630" lon="1.4339010">
        <ele>2542.7</ele>
        <time>2021-08-13T10:12:58Z</time>
      </trkpt>
      <trkpt lat="42.5826560" lon="1.4338500">
        <ele>2539.7</ele>
        <time>2021-08-13T10:13:19Z</time>
      </trkpt>
      <trkpt lat="42.5825290" lon="1.4337350">
        <ele>2535.7</ele>
        <time>2021-08-13T10:13:45Z</time>
      </trkpt>
      <trkpt lat="42.5824850" lon="1.4335790">
        <ele>2532.0</ele>
        <time>2021-08-13T10:13:58Z</time>
      </trkpt>
      <trkpt lat="42.5823800" lon="1.4334830">
        <ele>2528.2</ele>
        <time>2021-08-13T10:14:18Z</time>
      </trkpt>
      <trkpt lat="42.5822700" lon="1.4335080">
        <ele>2524.9</ele>
        <time>2021-08-13T10:14:34Z</time>
      </trkpt>
      <trkpt lat="42.5822620" lon="1.4335000">
        <ele>2524.6</ele>
        <time>2021-08-13T10:14:35Z</time>
      </trkpt>
      <trkpt lat="42.5822500" lon="1.4334830">
        <ele>2524.0</ele>
        <time>2021-08-13T10:14:37Z</time>
      </trkpt>
      <trkpt lat="42.5822210" lon="1.4333630">
        <ele>2521.2</ele>
        <time>2021-08-13T10:14:50Z</time>
      </trkpt>
      <trkpt lat="42.5821420" lon="1.4331970">
        <ele>2516.9</ele>
        <time>2021-08-13T10:15:15Z</time>
      </trkpt>
      <trkpt lat="42.5821120" lon="1.4329680">
        <ele>2511.7</ele>
        <time>2021-08-13T10:15:50Z</time>
      </trkpt>
      <trkpt lat="42.5820750" lon="1.4328850">
        <ele>2509.6</ele>
        <time>2021-08-13T10:16:04Z</time>
      </trkpt>
      <trkpt lat="42.5820190" lon="1.4327330">
        <ele>2505.8</ele>
        <time>2021-08-13T10:16:22Z</time>
      </trkpt>
      <trkpt lat="42.5819680" lon="1.4324930">
        <ele>2500.3</ele>
        <time>2021-08-13T10:16:41Z</time>
      </trkpt>
      <trkpt lat="42.5819000" lon="1.4325710">
        <ele>2497.6</ele>
        <time>2021-08-13T10:16:55Z</time>
      </trkpt>
      <trkpt lat="42.5818570" lon="1.4326400">
        <ele>2495.6</ele>
        <time>2021-08-13T10:17:03Z</time>
      </trkpt>
      <trkpt lat="42.5817870" lon="1.4327520">
        <ele>2492.4</ele>
        <time>2021-08-13T10:17:17Z</time>
      </trkpt>
      <trkpt lat="42.5816350" lon="1.4328960">
        <ele>2486.8</ele>
        <time>2021-08-13T10:17:40Z</time>
      </trkpt>
      <trkpt lat="42.5815550" lon="1.4331000">
        <ele>2481.7</ele>
        <time>2021-08-13T10:17:55Z</time>
      </trkpt>
      <trkpt lat="42.5814940" lon="1.4332580">
        <ele>2477.7</ele>
        <time>2021-08-13T10:18:08Z</time>
      </trkpt>
      <trkpt lat="42.5814380" lon="1.4334260">
        <ele>2473.6</ele>
        <time>2021-08-13T10:18:40Z</time>
      </trkpt>
      <trkpt lat="42.5814340" lon="1.4334320">
        <ele>2473.5</ele>
        <time>2021-08-13T10:18:49Z</time>
      </trkpt>
      <trkpt lat="42.5814360" lon="1.4334200">
        <ele>2473.2</ele>
        <time>2021-08-13T10:18:55Z</time>
      </trkpt>
      <trkpt lat="42.5814320" lon="1.4334870">
        <ele>2471.7</ele>
        <time>2021-08-13T10:19:11Z</time>
      </trkpt>
      <trkpt lat="42.5814020" lon="1.4335560">
        <ele>2469.9</ele>
        <time>2021-08-13T10:19:23Z</time>
      </trkpt>
      <trkpt lat="42.5813560" lon="1.4337250">
        <ele>2465.9</ele>
        <time>2021-08-13T10:19:33Z</time>
      </trkpt>
      <trkpt lat="42.5813520" lon="1.4337410">
        <ele>2465.6</ele>
        <time>2021-08-13T10:19:34Z</time>
      </trkpt>
      <trkpt lat="42.5813020" lon="1.4338680">
        <ele>2462.4</ele>
        <time>2021-08-13T10:19:44Z</time>
      </trkpt>
      <trkpt lat="42.5812660" lon="1.4338990">
        <ele>2461.1</ele>
        <time>2021-08-13T10:19:51Z</time>
      </trkpt>
      <trkpt lat="42.5812590" lon="1.4338870">
        <ele>2460.7</ele>
        <time>2021-08-13T10:19:52Z</time>
      </trkpt>
      <trkpt lat="42.5812500" lon="1.4338610">
        <ele>2460.1</ele>
        <time>2021-08-13T10:19:54Z</time>
      </trkpt>
      <trkpt lat="42.5812410" lon="1.4338490">
        <ele>2459.7</ele>
        <time>2021-08-13T10:19:55Z</time>
      </trkpt>
      <trkpt lat="42.5812210" lon="1.4338640">
        <ele>2459.0</ele>
        <time>2021-08-13T10:19:58Z</time>
      </trkpt>
      <trkpt lat="42.5812160" lon="1.4338940">
        <ele>2458.4</ele>
        <time>2021-08-13T10:20:00Z</time>
      </trkpt>
      <trkpt lat="42.5812110" lon="1.4339420">
        <ele>2457.3</ele>
        <time>2021-08-13T10:20:04Z</time>
      </trkpt>
      <trkpt lat="42.5812000" lon="1.4339460">
        <ele>2457.0</ele>
        <time>2021-08-13T10:20:06Z</time>
      </trkpt>
      <trkpt lat="42.5811960" lon="1.4339470">
        <ele>2456.8</ele>
        <time>2021-08-13T10:20:07Z</time>
      </trkpt>
      <trkpt lat="42.5811810" lon="1.4339350">
        <ele>2456.3</ele>
        <time>2021-08-13T10:20:09Z</time>
      </trkpt>
      <trkpt lat="42.5811390" lon="1.4338800">
        <ele>2454.6</ele>
        <time>2021-08-13T10:20:14Z</time>
      </trkpt>
      <trkpt lat="42.5809610" lon="1.4338760">
        <ele>2449.2</ele>
        <time>2021-08-13T10:20:32Z</time>
      </trkpt>
      <trkpt lat="42.5809090" lon="1.4339680">
        <ele>2446.6</ele>
        <time>2021-08-13T10:20:49Z</time>
      </trkpt>
      <trkpt lat="42.5808960" lon="1.4339720">
        <ele>2446.2</ele>
        <time>2021-08-13T10:20:53Z</time>
      </trkpt>
      <trkpt lat="42.5808940" lon="1.4339750">
        <ele>2446.1</ele>
        <time>2021-08-13T10:20:58Z</time>
      </trkpt>
      <trkpt lat="42.5808960" lon="1.4339740">
        <ele>2446.1</ele>
        <time>2021-08-13T10:20:59Z</time>
      </trkpt>
      <trkpt lat="42.5808730" lon="1.4340270">
        <ele>2444.7</ele>
        <time>2021-08-13T10:21:08Z</time>
      </trkpt>
      <trkpt lat="42.5808130" lon="1.4341900">
        <ele>2440.7</ele>
        <time>2021-08-13T10:21:23Z</time>
      </trkpt>
      <trkpt lat="42.5808020" lon="1.4342190">
        <ele>2440.0</ele>
        <time>2021-08-13T10:21:26Z</time>
      </trkpt>
      <trkpt lat="42.5807970" lon="1.4342440">
        <ele>2439.4</ele>
        <time>2021-08-13T10:21:28Z</time>
      </trkpt>
      <trkpt lat="42.5807930" lon="1.4342680">
        <ele>2438.8</ele>
        <time>2021-08-13T10:21:30Z</time>
      </trkpt>
      <trkpt lat="42.5807930" lon="1.4342800">
        <ele>2438.6</ele>
        <time>2021-08-13T10:21:31Z</time>
      </trkpt>
      <trkpt lat="42.5807920" lon="1.4342930">
        <ele>2438.3</ele>
        <time>2021-08-13T10:21:32Z</time>
      </trkpt>
      <trkpt lat="42.5807770" lon="1.4343430">
        <ele>2437.1</ele>
        <time>2021-08-13T10:21:36Z</time>
      </trkpt>
      <trkpt lat="42.5807750" lon="1.4343670">
        <ele>2436.6</ele>
        <time>2021-08-13T10:21:38Z</time>
      </trkpt>
      <trkpt lat="42.5808030" lon="1.4344620">
        <ele>2434.3</ele>
        <time>2021-08-13T10:21:47Z</time>
      </trkpt>
      <trkpt lat="42.5807990" lon="1.4344930">
        <ele>2433.6</ele>
        <time>2021-08-13T10:21:50Z</time>
      </trkpt>
      <trkpt lat="42.5807700" lon="1.4347390">
        <ele>2428.1</ele>
        <time>2021-08-13T10:22:12Z</time>
      </trkpt>
      <trkpt lat="42.5807500" lon="1.4348220">
        <ele>2426.1</ele>
        <time>2021-08-13T10:22:21Z</time>
      </trkpt>
      <trkpt lat="42.5807300" lon="1.4350130">
        <ele>2421.9</ele>
        <time>2021-08-13T10:22:46Z</time>
      </trkpt>
      <trkpt lat="42.5807780" lon="1.4352510">
        <ele>2416.4</ele>
        <time>2021-08-13T10:23:08Z</time>
      </trkpt>
      <trkpt lat="42.5807880" lon="1.4355030">
        <ele>2410.8</ele>
        <time>2021-08-13T10:23:25Z</time>
      </trkpt>
      <trkpt lat="42.5807700" lon="1.4355340">
        <ele>2410.0</ele>
        <time>2021-08-13T10:23:28Z</time>
      </trkpt>
      <trkpt lat="42.5807420" lon="1.4355720">
        <ele>2408.8</ele>
        <time>2021-08-13T10:23:32Z</time>
      </trkpt>
      <trkpt lat="42.5807310" lon="1.4355940">
        <ele>2408.2</ele>
        <time>2021-08-13T10:23:34Z</time>
      </trkpt>
      <trkpt lat="42.5806720" lon="1.4358290">
        <ele>2402.7</ele>
        <time>2021-08-13T10:24:04Z</time>
      </trkpt>
      <trkpt lat="42.5806620" lon="1.4359280">
        <ele>2400.5</ele>
        <time>2021-08-13T10:24:11Z</time>
      </trkpt>
      <trkpt lat="42.5806490" lon="1.4361730">
        <ele>2395.0</ele>
        <time>2021-08-13T10:24:31Z</time>
      </trkpt>
      <trkpt lat="42.5806800" lon="1.4363820">
        <ele>2390.3</ele>
        <time>2021-08-13T10:24:54Z</time>
      </trkpt>
      <trkpt lat="42.5806940" lon="1.4364020">
        <ele>2389.7</ele>
        <time>2021-08-13T10:25:03Z</time>
      </trkpt>
      <trkpt lat="42.5806740" lon="1.4364730">
        <ele>2388.0</ele>
        <time>2021-08-13T10:25:13Z</time>
      </trkpt>
      <trkpt lat="42.5806680" lon="1.4364760">
        <ele>2387.8</ele>
        <time>2021-08-13T10:25:14Z</time>
      </trkpt>
      <trkpt lat="42.5806520" lon="1.4365150">
        <ele>2386.8</ele>
        <time>2021-08-13T10:25:19Z</time>
      </trkpt>
      <trkpt lat="42.5806520" lon="1.4365450">
        <ele>2386.2</ele>
        <time>2021-08-13T10:25:23Z</time>
      </trkpt>
      <trkpt lat="42.5806500" lon="1.4365520">
        <ele>2386.0</ele>
        <time>2021-08-13T10:25:24Z</time>
      </trkpt>
      <trkpt lat="42.5806460" lon="1.4365600">
        <ele>2385.8</ele>
        <time>2021-08-13T10:25:25Z</time>
      </trkpt>
      <trkpt lat="42.5806000" lon="1.4366670">
        <ele>2383.0</ele>
        <time>2021-08-13T10:25:39Z</time>
      </trkpt>
      <trkpt lat="42.5805860" lon="1.4368550">
        <ele>2378.9</ele>
        <time>2021-08-13T10:26:05Z</time>
      </trkpt>
      <trkpt lat="42.5805280" lon="1.4369130">
        <ele>2376.7</ele>
        <time>2021-08-13T10:26:15Z</time>
      </trkpt>
      <trkpt lat="42.5803600" lon="1.4369880">
        <ele>2371.4</ele>
        <time>2021-08-13T10:26:38Z</time>
      </trkpt>
      <trkpt lat="42.5803390" lon="1.4370000">
        <ele>2370.7</ele>
        <time>2021-08-13T10:26:40Z</time>
      </trkpt>
      <trkpt lat="42.5802510" lon="1.4371850">
        <ele>2365.8</ele>
        <time>2021-08-13T10:27:01Z</time>
      </trkpt>
      <trkpt lat="42.5802410" lon="1.4372290">
        <ele>2364.8</ele>
        <time>2021-08-13T10:27:06Z</time>
      </trkpt>
      <trkpt lat="42.5802280" lon="1.4372510">
        <ele>2364.2</ele>
        <time>2021-08-13T10:27:10Z</time>
      </trkpt>
      <trkpt lat="42.5801920" lon="1.4372660">
        <ele>2363.0</ele>
        <time>2021-08-13T10:27:15Z</time>
      </trkpt>
      <trkpt lat="42.5801620" lon="1.4373050">
        <ele>2361.8</ele>
        <time>2021-08-13T10:27:22Z</time>
      </trkpt>
      <trkpt lat="42.5801600" lon="1.4373120">
        <ele>2361.6</ele>
        <time>2021-08-13T10:27:23Z</time>
      </trkpt>
      <trkpt lat="42.5801630" lon="1.4373200">
        <ele>2361.4</ele>
        <time>2021-08-13T10:27:24Z</time>
      </trkpt>
      <trkpt lat="42.5801640" lon="1.4373280">
        <ele>2361.3</ele>
        <time>2021-08-13T10:27:25Z</time>
      </trkpt>
      <trkpt lat="42.5801670" lon="1.4373330">
        <ele>2361.1</ele>
        <time>2021-08-13T10:27:26Z</time>
      </trkpt>
      <trkpt lat="42.5801660" lon="1.4373390">
        <ele>2361.0</ele>
        <time>2021-08-13T10:27:27Z</time>
      </trkpt>
      <trkpt lat="42.5801640" lon="1.4373450">
        <ele>2360.8</ele>
        <time>2021-08-13T10:27:28Z</time>
      </trkpt>
      <trkpt lat="42.5801510" lon="1.4373720">
        <ele>2360.1</ele>
        <time>2021-08-13T10:27:32Z</time>
      </trkpt>
      <trkpt lat="42.5801600" lon="1.4374220">
        <ele>2359.0</ele>
        <time>2021-08-13T10:27:42Z</time>
      </trkpt>
      <trkpt lat="42.5801480" lon="1.4374290">
        <ele>2358.6</ele>
        <time>2021-08-13T10:28:25Z</time>
      </trkpt>
      <trkpt lat="42.5801620" lon="1.4376110">
        <ele>2354.5</ele>
        <time>2021-08-13T10:28:42Z</time>
      </trkpt>
      <trkpt lat="42.5801360" lon="1.4376800">
        <ele>2352.8</ele>
        <time>2021-08-13T10:28:48Z</time>
      </trkpt>
      <trkpt lat="42.5801110" lon="1.4376990">
        <ele>2352.0</ele>
        <time>2021-08-13T10:28:51Z</time>
      </trkpt>
      <trkpt lat="42.5801030" lon="1.4377020">
        <ele>2351.7</ele>
        <time>2021-08-13T10:28:52Z</time>
      </trkpt>
      <trkpt lat="42.5800950" lon="1.4377050">
        <ele>2351.5</ele>
        <time>2021-08-13T10:28:53Z</time>
      </trkpt>
      <trkpt lat="42.5800880" lon="1.4377090">
        <ele>2351.2</ele>
        <time>2021-08-13T10:28:54Z</time>
      </trkpt>
      <trkpt lat="42.5800820" lon="1.4377120">
        <ele>2351.0</ele>
        <time>2021-08-13T10:28:55Z</time>
      </trkpt>
      <trkpt lat="42.5800660" lon="1.4377200">
        <ele>2350.5</ele>
        <time>2021-08-13T10:28:57Z</time>
      </trkpt>
      <trkpt lat="42.5800590" lon="1.4377260">
        <ele>2350.3</ele>
        <time>2021-08-13T10:28:58Z</time>
      </trkpt>
      <trkpt lat="42.5800240" lon="1.4377580">
        <ele>2349.0</ele>
        <time>2021-08-13T10:29:03Z</time>
      </trkpt>
      <trkpt lat="42.5799890" lon="1.4377850">
        <ele>2347.8</ele>
        <time>2021-08-13T10:29:07Z</time>
      </trkpt>
      <trkpt lat="42.5799820" lon="1.4377940">
        <ele>2347.5</ele>
        <time>2021-08-13T10:29:08Z</time>
      </trkpt>
      <trkpt lat="42.5799280" lon="1.4378940">
        <ele>2344.8</ele>
        <time>2021-08-13T10:29:24Z</time>
      </trkpt>
      <trkpt lat="42.5799040" lon="1.4379880">
        <ele>2342.6</ele>
        <time>2021-08-13T10:29:35Z</time>
      </trkpt>
      <trkpt lat="42.5799010" lon="1.4382270">
        <ele>2337.3</ele>
        <time>2021-08-13T10:30:02Z</time>
      </trkpt>
      <trkpt lat="42.5798770" lon="1.4382880">
        <ele>2335.7</ele>
        <time>2021-08-13T10:30:08Z</time>
      </trkpt>
      <trkpt lat="42.5798790" lon="1.4383280">
        <ele>2334.8</ele>
        <time>2021-08-13T10:30:12Z</time>
      </trkpt>
      <trkpt lat="42.5798800" lon="1.4383410">
        <ele>2334.6</ele>
        <time>2021-08-13T10:30:13Z</time>
      </trkpt>
      <trkpt lat="42.5799050" lon="1.4385840">
        <ele>2329.1</ele>
        <time>2021-08-13T10:30:36Z</time>
      </trkpt>
      <trkpt lat="42.5799260" lon="1.4386580">
        <ele>2327.4</ele>
        <time>2021-08-13T10:30:42Z</time>
      </trkpt>
      <trkpt lat="42.5799160" lon="1.4388930">
        <ele>2322.2</ele>
        <time>2021-08-13T10:31:03Z</time>
      </trkpt>
      <trkpt lat="42.5798960" lon="1.4389300">
        <ele>2321.1</ele>
        <time>2021-08-13T10:31:07Z</time>
      </trkpt>
      <trkpt lat="42.5798870" lon="1.4389560">
        <ele>2320.5</ele>
        <time>2021-08-13T10:31:09Z</time>
      </trkpt>
      <trkpt lat="42.5798760" lon="1.4390520">
        <ele>2318.4</ele>
        <time>2021-08-13T10:31:16Z</time>
      </trkpt>
      <trkpt lat="42.5798720" lon="1.4390870">
        <ele>2317.6</ele>
        <time>2021-08-13T10:31:19Z</time>
      </trkpt>
      <trkpt lat="42.5798700" lon="1.4391430">
        <ele>2316.3</ele>
        <time>2021-08-13T10:31:23Z</time>
      </trkpt>
      <trkpt lat="42.5798640" lon="1.4393590">
        <ele>2311.5</ele>
        <time>2021-08-13T10:31:36Z</time>
      </trkpt>
      <trkpt lat="42.5799000" lon="1.4395950">
        <ele>2306.2</ele>
        <time>2021-08-13T10:31:59Z</time>
      </trkpt>
      <trkpt lat="42.5799130" lon="1.4396670">
        <ele>2304.6</ele>
        <time>2021-08-13T10:32:03Z</time>
      </trkpt>
      <trkpt lat="42.5799630" lon="1.4399170">
        <ele>2298.8</ele>
        <time>2021-08-13T10:32:17Z</time>
      </trkpt>
      <trkpt lat="42.5800190" lon="1.4401110">
        <ele>2294.2</ele>
        <time>2021-08-13T10:32:37Z</time>
      </trkpt>
      <trkpt lat="42.5800600" lon="1.4403510">
        <ele>2288.8</ele>
        <time>2021-08-13T10:32:52Z</time>
      </trkpt>
      <trkpt lat="42.5801000" lon="1.4405940">
        <ele>2283.3</ele>
        <time>2021-08-13T10:33:06Z</time>
      </trkpt>
      <trkpt lat="42.5801220" lon="1.4407070">
        <ele>2280.7</ele>
        <time>2021-08-13T10:33:12Z</time>
      </trkpt>
      <trkpt lat="42.5801190" lon="1.4408240">
        <ele>2278.1</ele>
        <time>2021-08-13T10:33:28Z</time>
      </trkpt>
      <trkpt lat="42.5801190" lon="1.4408250">
        <ele>2278.1</ele>
        <time>2021-08-13T10:33:30Z</time>
      </trkpt>
      <trkpt lat="42.5801160" lon="1.4408340">
        <ele>2277.8</ele>
        <time>2021-08-13T10:33:34Z</time>
      </trkpt>
      <trkpt lat="42.5801120" lon="1.4410550">
        <ele>2272.9</ele>
        <time>2021-08-13T10:33:47Z</time>
      </trkpt>
      <trkpt lat="42.5801010" lon="1.4411700">
        <ele>2268.8</ele>
        <time>2021-08-13T10:33:54Z</time>
      </trkpt>
      <trkpt lat="42.5800690" lon="1.4412430">
        <ele>2267.9</ele>
        <time>2021-08-13T10:33:59Z</time>
      </trkpt>
      <trkpt lat="42.5800440" lon="1.4413940">
        <ele>2266.5</ele>
        <time>2021-08-13T10:34:08Z</time>
      </trkpt>
      <trkpt lat="42.5800350" lon="1.4415290">
        <ele>2265.5</ele>
        <time>2021-08-13T10:34:16Z</time>
      </trkpt>
      <trkpt lat="42.5800190" lon="1.4417090">
        <ele>2264.4</ele>
        <time>2021-08-13T10:34:35Z</time>
      </trkpt>
      <trkpt lat="42.5799890" lon="1.4418740">
        <ele>2263.4</ele>
        <time>2021-08-13T10:34:45Z</time>
      </trkpt>
      <trkpt lat="42.5799680" lon="1.4421160">
        <ele>2261.9</ele>
        <time>2021-08-13T10:35:00Z</time>
      </trkpt>
      <trkpt lat="42.5799140" lon="1.4423040">
        <ele>2261.2</ele>
        <time>2021-08-13T10:35:20Z</time>
      </trkpt>
      <trkpt lat="42.5797980" lon="1.4424820">
        <ele>2262.8</ele>
        <time>2021-08-13T10:35:41Z</time>
      </trkpt>
      <trkpt lat="42.5797890" lon="1.4424910">
        <ele>2263.0</ele>
        <time>2021-08-13T10:35:44Z</time>
      </trkpt>
      <trkpt lat="42.5797530" lon="1.4424950">
        <ele>2263.6</ele>
        <time>2021-08-13T10:35:49Z</time>
      </trkpt>
      <trkpt lat="42.5797350" lon="1.4425100">
        <ele>2264.0</ele>
        <time>2021-08-13T10:35:52Z</time>
      </trkpt>
      <trkpt lat="42.5796860" lon="1.4426140">
        <ele>2265.1</ele>
        <time>2021-08-13T10:36:27Z</time>
      </trkpt>
      <trkpt lat="42.5796240" lon="1.4426980">
        <ele>2265.7</ele>
        <time>2021-08-13T10:36:36Z</time>
      </trkpt>
      <trkpt lat="42.5795200" lon="1.4427970">
        <ele>2266.0</ele>
        <time>2021-08-13T10:36:51Z</time>
      </trkpt>
      <trkpt lat="42.5795160" lon="1.4428080">
        <ele>2266.1</ele>
        <time>2021-08-13T10:36:52Z</time>
      </trkpt>
      <trkpt lat="42.5795090" lon="1.4428210">
        <ele>2266.1</ele>
        <time>2021-08-13T10:36:53Z</time>
      </trkpt>
      <trkpt lat="42.5794990" lon="1.4428390">
        <ele>2266.1</ele>
        <time>2021-08-13T10:36:54Z</time>
      </trkpt>
      <trkpt lat="42.5794780" lon="1.4428710">
        <ele>2266.3</ele>
        <time>2021-08-13T10:36:56Z</time>
      </trkpt>
      <trkpt lat="42.5794700" lon="1.4428840">
        <ele>2266.3</ele>
        <time>2021-08-13T10:36:57Z</time>
      </trkpt>
      <trkpt lat="42.5794640" lon="1.4428950">
        <ele>2266.3</ele>
        <time>2021-08-13T10:36:58Z</time>
      </trkpt>
      <trkpt lat="42.5794540" lon="1.4429170">
        <ele>2266.4</ele>
        <time>2021-08-13T10:37:00Z</time>
      </trkpt>
      <trkpt lat="42.5794470" lon="1.4429250">
        <ele>2266.5</ele>
        <time>2021-08-13T10:37:01Z</time>
      </trkpt>
      <trkpt lat="42.5794390" lon="1.4429370">
        <ele>2266.5</ele>
        <time>2021-08-13T10:37:02Z</time>
      </trkpt>
      <trkpt lat="42.5794290" lon="1.4429490">
        <ele>2266.6</ele>
        <time>2021-08-13T10:37:03Z</time>
      </trkpt>
      <trkpt lat="42.5794220" lon="1.4429630">
        <ele>2266.6</ele>
        <time>2021-08-13T10:37:04Z</time>
      </trkpt>
      <trkpt lat="42.5794000" lon="1.4430460">
        <ele>2266.9</ele>
        <time>2021-08-13T10:37:13Z</time>
      </trkpt>
      <trkpt lat="42.5793700" lon="1.4431180">
        <ele>2267.0</ele>
        <time>2021-08-13T10:37:30Z</time>
      </trkpt>
      <trkpt lat="42.5794020" lon="1.4433540">
        <ele>2267.5</ele>
        <time>2021-08-13T10:37:48Z</time>
      </trkpt>
      <trkpt lat="42.5793960" lon="1.4434080">
        <ele>2267.6</ele>
        <time>2021-08-13T10:37:52Z</time>
      </trkpt>
      <trkpt lat="42.5793980" lon="1.4434490">
        <ele>2267.8</ele>
        <time>2021-08-13T10:37:55Z</time>
      </trkpt>
      <trkpt lat="42.5794080" lon="1.4434930">
        <ele>2267.9</ele>
        <time>2021-08-13T10:37:58Z</time>
      </trkpt>
      <trkpt lat="42.5794030" lon="1.4435380">
        <ele>2268.1</ele>
        <time>2021-08-13T10:38:01Z</time>
      </trkpt>
      <trkpt lat="42.5794130" lon="1.4436440">
        <ele>2268.5</ele>
        <time>2021-08-13T10:38:08Z</time>
      </trkpt>
      <trkpt lat="42.5794170" lon="1.4436600">
        <ele>2268.6</ele>
        <time>2021-08-13T10:38:09Z</time>
      </trkpt>
      <trkpt lat="42.5794480" lon="1.4437290">
        <ele>2269.1</ele>
        <time>2021-08-13T10:38:14Z</time>
      </trkpt>
      <trkpt lat="42.5794530" lon="1.4437770">
        <ele>2269.4</ele>
        <time>2021-08-13T10:38:17Z</time>
      </trkpt>
      <trkpt lat="42.5794530" lon="1.4437940">
        <ele>2269.5</ele>
        <time>2021-08-13T10:38:18Z</time>
      </trkpt>
      <trkpt lat="42.5794520" lon="1.4438090">
        <ele>2269.6</ele>
        <time>2021-08-13T10:38:19Z</time>
      </trkpt>
      <trkpt lat="42.5794390" lon="1.4439180">
        <ele>2270.3</ele>
        <time>2021-08-13T10:38:27Z</time>
      </trkpt>
      <trkpt lat="42.5794470" lon="1.4440830">
        <ele>2270.8</ele>
        <time>2021-08-13T10:38:39Z</time>
      </trkpt>
      <trkpt lat="42.5794490" lon="1.4440980">
        <ele>2270.7</ele>
        <time>2021-08-13T10:38:40Z</time>
      </trkpt>
      <trkpt lat="42.5794700" lon="1.4442340">
        <ele>2270.0</ele>
        <time>2021-08-13T10:38:49Z</time>
      </trkpt>
      <trkpt lat="42.5794750" lon="1.4442620">
        <ele>2269.7</ele>
        <time>2021-08-13T10:38:51Z</time>
      </trkpt>
      <trkpt lat="42.5794790" lon="1.4442740">
        <ele>2269.5</ele>
        <time>2021-08-13T10:38:52Z</time>
      </trkpt>
      <trkpt lat="42.5794870" lon="1.4442980">
        <ele>2269.2</ele>
        <time>2021-08-13T10:38:54Z</time>
      </trkpt>
      <trkpt lat="42.5794860" lon="1.4444460">
        <ele>2267.5</ele>
        <time>2021-08-13T10:39:04Z</time>
      </trkpt>
      <trkpt lat="42.5794890" lon="1.4445360">
        <ele>2266.6</ele>
        <time>2021-08-13T10:39:10Z</time>
      </trkpt>
      <trkpt lat="42.5794880" lon="1.4446010">
        <ele>2266.1</ele>
        <time>2021-08-13T10:39:14Z</time>
      </trkpt>
      <trkpt lat="42.5794690" lon="1.4446480">
        <ele>2265.8</ele>
        <time>2021-08-13T10:39:18Z</time>
      </trkpt>
      <trkpt lat="42.5794690" lon="1.4446940">
        <ele>2265.7</ele>
        <time>2021-08-13T10:39:21Z</time>
      </trkpt>
      <trkpt lat="42.5794630" lon="1.4447610">
        <ele>2265.6</ele>
        <time>2021-08-13T10:39:26Z</time>
      </trkpt>
      <trkpt lat="42.5794610" lon="1.4448000">
        <ele>2265.5</ele>
        <time>2021-08-13T10:39:29Z</time>
      </trkpt>
      <trkpt lat="42.5794350" lon="1.4448870">
        <ele>2265.5</ele>
        <time>2021-08-13T10:39:36Z</time>
      </trkpt>
      <trkpt lat="42.5793410" lon="1.4450740">
        <ele>2264.9</ele>
        <time>2021-08-13T10:39:53Z</time>
      </trkpt>
      <trkpt lat="42.5793330" lon="1.4451300">
        <ele>2264.7</ele>
        <time>2021-08-13T10:39:57Z</time>
      </trkpt>
      <trkpt lat="42.5793150" lon="1.4452230">
        <ele>2264.1</ele>
        <time>2021-08-13T10:40:03Z</time>
      </trkpt>
      <trkpt lat="42.5793030" lon="1.4454740">
        <ele>2261.5</ele>
        <time>2021-08-13T10:40:20Z</time>
      </trkpt>
      <trkpt lat="42.5792630" lon="1.4457090">
        <ele>2257.9</ele>
        <time>2021-08-13T10:40:45Z</time>
      </trkpt>
      <trkpt lat="42.5791990" lon="1.4459360">
        <ele>2254.7</ele>
        <time>2021-08-13T10:41:01Z</time>
      </trkpt>
      <trkpt lat="42.5791220" lon="1.4461700">
        <ele>2252.7</ele>
        <time>2021-08-13T10:41:15Z</time>
      </trkpt>
      <trkpt lat="42.5791130" lon="1.4462130">
        <ele>2252.6</ele>
        <time>2021-08-13T10:41:18Z</time>
      </trkpt>
      <trkpt lat="42.5791000" lon="1.4463350">
        <ele>2252.7</ele>
        <time>2021-08-13T10:41:26Z</time>
      </trkpt>
      <trkpt lat="42.5790030" lon="1.4464830">
        <ele>2254.0</ele>
        <time>2021-08-13T10:41:42Z</time>
      </trkpt>
      <trkpt lat="42.5789980" lon="1.4464890">
        <ele>2254.1</ele>
        <time>2021-08-13T10:41:43Z</time>
      </trkpt>
      <trkpt lat="42.5789820" lon="1.4465590">
        <ele>2254.7</ele>
        <time>2021-08-13T10:41:50Z</time>
      </trkpt>
      <trkpt lat="42.5789760" lon="1.4466760">
        <ele>2255.5</ele>
        <time>2021-08-13T10:41:58Z</time>
      </trkpt>
      <trkpt lat="42.5789950" lon="1.4468880">
        <ele>2256.4</ele>
        <time>2021-08-13T10:42:13Z</time>
      </trkpt>
      <trkpt lat="42.5789910" lon="1.4470230">
        <ele>2256.7</ele>
        <time>2021-08-13T10:42:23Z</time>
      </trkpt>
      <trkpt lat="42.5789900" lon="1.4470990">
        <ele>2256.6</ele>
        <time>2021-08-13T10:42:29Z</time>
      </trkpt>
      <trkpt lat="42.5789910" lon="1.4471430">
        <ele>2256.6</ele>
        <time>2021-08-13T10:42:32Z</time>
      </trkpt>
      <trkpt lat="42.5789890" lon="1.4471840">
        <ele>2256.6</ele>
        <time>2021-08-13T10:42:36Z</time>
      </trkpt>
      <trkpt lat="42.5789590" lon="1.4472870">
        <ele>2256.7</ele>
        <time>2021-08-13T10:42:44Z</time>
      </trkpt>
      <trkpt lat="42.5789560" lon="1.4473130">
        <ele>2256.7</ele>
        <time>2021-08-13T10:42:46Z</time>
      </trkpt>
      <trkpt lat="42.5789470" lon="1.4473660">
        <ele>2256.8</ele>
        <time>2021-08-13T10:42:49Z</time>
      </trkpt>
      <trkpt lat="42.5789370" lon="1.4473970">
        <ele>2256.8</ele>
        <time>2021-08-13T10:42:51Z</time>
      </trkpt>
      <trkpt lat="42.5789250" lon="1.4474230">
        <ele>2256.8</ele>
        <time>2021-08-13T10:42:53Z</time>
      </trkpt>
      <trkpt lat="42.5789160" lon="1.4474720">
        <ele>2256.8</ele>
        <time>2021-08-13T10:42:56Z</time>
      </trkpt>
      <trkpt lat="42.5788700" lon="1.4477130">
        <ele>2256.9</ele>
        <time>2021-08-13T10:43:10Z</time>
      </trkpt>
      <trkpt lat="42.5788540" lon="1.4478070">
        <ele>2257.0</ele>
        <time>2021-08-13T10:43:16Z</time>
      </trkpt>
      <trkpt lat="42.5788520" lon="1.4478270">
        <ele>2257.0</ele>
        <time>2021-08-13T10:43:17Z</time>
      </trkpt>
      <trkpt lat="42.5788500" lon="1.4478470">
        <ele>2257.1</ele>
        <time>2021-08-13T10:43:18Z</time>
      </trkpt>
      <trkpt lat="42.5788400" lon="1.4478970">
        <ele>2257.2</ele>
        <time>2021-08-13T10:43:21Z</time>
      </trkpt>
      <trkpt lat="42.5788410" lon="1.4479290">
        <ele>2257.2</ele>
        <time>2021-08-13T10:43:23Z</time>
      </trkpt>
      <trkpt lat="42.5788390" lon="1.4479770">
        <ele>2257.3</ele>
        <time>2021-08-13T10:43:26Z</time>
      </trkpt>
      <trkpt lat="42.5788490" lon="1.4480220">
        <ele>2257.4</ele>
        <time>2021-08-13T10:43:29Z</time>
      </trkpt>
      <trkpt lat="42.5788540" lon="1.4480370">
        <ele>2257.4</ele>
        <time>2021-08-13T10:43:30Z</time>
      </trkpt>
      <trkpt lat="42.5788550" lon="1.4480550">
        <ele>2257.4</ele>
        <time>2021-08-13T10:43:31Z</time>
      </trkpt>
      <trkpt lat="42.5788560" lon="1.4480710">
        <ele>2257.5</ele>
        <time>2021-08-13T10:43:32Z</time>
      </trkpt>
      <trkpt lat="42.5788510" lon="1.4481380">
        <ele>2257.5</ele>
        <time>2021-08-13T10:43:36Z</time>
      </trkpt>
      <trkpt lat="42.5789070" lon="1.4483710">
        <ele>2257.4</ele>
        <time>2021-08-13T10:43:51Z</time>
      </trkpt>
      <trkpt lat="42.5789380" lon="1.4485170">
        <ele>2257.3</ele>
        <time>2021-08-13T10:44:00Z</time>
      </trkpt>
      <trkpt lat="42.5789370" lon="1.4485380">
        <ele>2257.3</ele>
        <time>2021-08-13T10:44:01Z</time>
      </trkpt>
      <trkpt lat="42.5789350" lon="1.4485600">
        <ele>2257.3</ele>
        <time>2021-08-13T10:44:02Z</time>
      </trkpt>
      <trkpt lat="42.5789330" lon="1.4485760">
        <ele>2257.3</ele>
        <time>2021-08-13T10:44:03Z</time>
      </trkpt>
      <trkpt lat="42.5789300" lon="1.4485940">
        <ele>2257.3</ele>
        <time>2021-08-13T10:44:04Z</time>
      </trkpt>
      <trkpt lat="42.5788830" lon="1.4488300">
        <ele>2257.3</ele>
        <time>2021-08-13T10:44:18Z</time>
      </trkpt>
      <trkpt lat="42.5788790" lon="1.4489340">
        <ele>2257.0</ele>
        <time>2021-08-13T10:44:24Z</time>
      </trkpt>
      <trkpt lat="42.5788890" lon="1.4491800">
        <ele>2255.5</ele>
        <time>2021-08-13T10:44:38Z</time>
      </trkpt>
      <trkpt lat="42.5789010" lon="1.4492120">
        <ele>2254.9</ele>
        <time>2021-08-13T10:44:40Z</time>
      </trkpt>
      <trkpt lat="42.5789310" lon="1.4492740">
        <ele>2254.4</ele>
        <time>2021-08-13T10:44:45Z</time>
      </trkpt>
      <trkpt lat="42.5791660" lon="1.4491360">
        <ele>2250.5</ele>
        <time>2021-08-13T15:44:07Z</time>
      </trkpt>
      <trkpt lat="42.5791650" lon="1.4491290">
        <ele>2250.3</ele>
        <time>2021-08-13T15:44:13Z</time>
      </trkpt>
      <trkpt lat="42.5792240" lon="1.4490250">
        <ele>2248.3</ele>
        <time>2021-08-13T15:44:46Z</time>
      </trkpt>
      <trkpt lat="42.5792430" lon="1.4489930">
        <ele>2247.5</ele>
        <time>2021-08-13T15:44:51Z</time>
      </trkpt>
      <trkpt lat="42.5792880" lon="1.4489300">
        <ele>2245.8</ele>
        <time>2021-08-13T15:45:00Z</time>
      </trkpt>
      <trkpt lat="42.5793430" lon="1.4488140">
        <ele>2243.2</ele>
        <time>2021-08-13T15:45:27Z</time>
      </trkpt>
      <trkpt lat="42.5794180" lon="1.4487980">
        <ele>2241.3</ele>
        <time>2021-08-13T15:45:48Z</time>
      </trkpt>
      <trkpt lat="42.5794970" lon="1.4487880">
        <ele>2239.6</ele>
        <time>2021-08-13T15:46:13Z</time>
      </trkpt>
      <trkpt lat="42.5795040" lon="1.4486550">
        <ele>2237.7</ele>
        <time>2021-08-13T15:46:24Z</time>
      </trkpt>
      <trkpt lat="42.5794860" lon="1.4485830">
        <ele>2236.6</ele>
        <time>2021-08-13T15:46:32Z</time>
      </trkpt>
      <trkpt lat="42.5794830" lon="1.4485600">
        <ele>2236.3</ele>
        <time>2021-08-13T15:46:36Z</time>
      </trkpt>
      <trkpt lat="42.5794860" lon="1.4485530">
        <ele>2236.2</ele>
        <time>2021-08-13T15:46:37Z</time>
      </trkpt>
      <trkpt lat="42.5794880" lon="1.4485480">
        <ele>2236.1</ele>
        <time>2021-08-13T15:46:38Z</time>
      </trkpt>
      <trkpt lat="42.5795230" lon="1.4485490">
        <ele>2235.4</ele>
        <time>2021-08-13T15:46:44Z</time>
      </trkpt>
      <trkpt lat="42.5795300" lon="1.4485570">
        <ele>2235.2</ele>
        <time>2021-08-13T15:46:47Z</time>
      </trkpt>
      <trkpt lat="42.5796030" lon="1.4486010">
        <ele>2233.6</ele>
        <time>2021-08-13T15:46:57Z</time>
      </trkpt>
      <trkpt lat="42.5796610" lon="1.4486350">
        <ele>2232.3</ele>
        <time>2021-08-13T15:47:06Z</time>
      </trkpt>
      <trkpt lat="42.5796800" lon="1.4486500">
        <ele>2231.9</ele>
        <time>2021-08-13T15:47:10Z</time>
      </trkpt>
      <trkpt lat="42.5797560" lon="1.4486710">
        <ele>2230.4</ele>
        <time>2021-08-13T15:47:28Z</time>
      </trkpt>
      <trkpt lat="42.5797800" lon="1.4486340">
        <ele>2229.6</ele>
        <time>2021-08-13T15:47:36Z</time>
      </trkpt>
      <trkpt lat="42.5798450" lon="1.4485920">
        <ele>2228.6</ele>
        <time>2021-08-13T15:48:01Z</time>
      </trkpt>
      <trkpt lat="42.5799830" lon="1.4487440">
        <ele>2226.0</ele>
        <time>2021-08-13T15:48:24Z</time>
      </trkpt>
      <trkpt lat="42.5800660" lon="1.4488890">
        <ele>2225.3</ele>
        <time>2021-08-13T15:48:41Z</time>
      </trkpt>
      <trkpt lat="42.5800700" lon="1.4489250">
        <ele>2225.3</ele>
        <time>2021-08-13T15:48:44Z</time>
      </trkpt>
      <trkpt lat="42.5800700" lon="1.4489370">
        <ele>2225.0</ele>
        <time>2021-08-13T15:48:45Z</time>
      </trkpt>
      <trkpt lat="42.5800710" lon="1.4489480">
        <ele>2224.7</ele>
        <time>2021-08-13T15:48:46Z</time>
      </trkpt>
      <trkpt lat="42.5800460" lon="1.4489970">
        <ele>2223.3</ele>
        <time>2021-08-13T15:48:49Z</time>
      </trkpt>
      <trkpt lat="42.5800440" lon="1.4490400">
        <ele>2222.2</ele>
        <time>2021-08-13T15:48:52Z</time>
      </trkpt>
      <trkpt lat="42.5800210" lon="1.4492960">
        <ele>2215.8</ele>
        <time>2021-08-13T15:49:16Z</time>
      </trkpt>
      <trkpt lat="42.5800080" lon="1.4493780">
        <ele>2213.7</ele>
        <time>2021-08-13T15:49:27Z</time>
      </trkpt>
      <trkpt lat="42.5800200" lon="1.4494590">
        <ele>2211.6</ele>
        <time>2021-08-13T15:49:46Z</time>
      </trkpt>
      <trkpt lat="42.5800290" lon="1.4496840">
        <ele>2206.0</ele>
        <time>2021-08-13T15:50:14Z</time>
      </trkpt>
      <trkpt lat="42.5799880" lon="1.4499190">
        <ele>2200.0</ele>
        <time>2021-08-13T15:50:44Z</time>
      </trkpt>
      <trkpt lat="42.5800230" lon="1.4500530">
        <ele>2196.5</ele>
        <time>2021-08-13T15:51:04Z</time>
      </trkpt>
      <trkpt lat="42.5799430" lon="1.4502630">
        <ele>2190.6</ele>
        <time>2021-08-13T15:51:39Z</time>
      </trkpt>
      <trkpt lat="42.5799500" lon="1.4504800">
        <ele>2185.2</ele>
        <time>2021-08-13T15:52:16Z</time>
      </trkpt>
      <trkpt lat="42.5799310" lon="1.4507160">
        <ele>2179.4</ele>
        <time>2021-08-13T15:52:51Z</time>
      </trkpt>
      <trkpt lat="42.5799030" lon="1.4508350">
        <ele>2176.2</ele>
        <time>2021-08-13T15:53:16Z</time>
      </trkpt>
      <trkpt lat="42.5798970" lon="1.4508390">
        <ele>2176.0</ele>
        <time>2021-08-13T15:53:17Z</time>
      </trkpt>
      <trkpt lat="42.5798930" lon="1.4508440">
        <ele>2175.8</ele>
        <time>2021-08-13T15:53:18Z</time>
      </trkpt>
      <trkpt lat="42.5799180" lon="1.4508950">
        <ele>2174.3</ele>
        <time>2021-08-13T15:53:29Z</time>
      </trkpt>
      <trkpt lat="42.5799430" lon="1.4509470">
        <ele>2172.8</ele>
        <time>2021-08-13T15:53:35Z</time>
      </trkpt>
      <trkpt lat="42.5799380" lon="1.4511060">
        <ele>2168.8</ele>
        <time>2021-08-13T15:54:04Z</time>
      </trkpt>
      <trkpt lat="42.5798950" lon="1.4511740">
        <ele>2166.6</ele>
        <time>2021-08-13T15:54:18Z</time>
      </trkpt>
      <trkpt lat="42.5797980" lon="1.4513440">
        <ele>2161.3</ele>
        <time>2021-08-13T15:55:03Z</time>
      </trkpt>
      <trkpt lat="42.5798400" lon="1.4515200">
        <ele>2156.7</ele>
        <time>2021-08-13T15:55:37Z</time>
      </trkpt>
      <trkpt lat="42.5797830" lon="1.4516860">
        <ele>2152.1</ele>
        <time>2021-08-13T15:56:06Z</time>
      </trkpt>
      <trkpt lat="42.5797150" lon="1.4519060">
        <ele>2147.1</ele>
        <time>2021-08-13T15:56:21Z</time>
      </trkpt>
      <trkpt lat="42.5797200" lon="1.4519740">
        <ele>2146.3</ele>
        <time>2021-08-13T15:56:29Z</time>
      </trkpt>
      <trkpt lat="42.5797440" lon="1.4520930">
        <ele>2143.9</ele>
        <time>2021-08-13T15:56:41Z</time>
      </trkpt>
      <trkpt lat="42.5798700" lon="1.4522090">
        <ele>2139.9</ele>
        <time>2021-08-13T15:56:57Z</time>
      </trkpt>
      <trkpt lat="42.5799020" lon="1.4522830">
        <ele>2138.3</ele>
        <time>2021-08-13T15:57:05Z</time>
      </trkpt>
      <trkpt lat="42.5799820" lon="1.4523680">
        <ele>2135.6</ele>
        <time>2021-08-13T15:57:21Z</time>
      </trkpt>
      <trkpt lat="42.5800250" lon="1.4524040">
        <ele>2134.3</ele>
        <time>2021-08-13T15:57:28Z</time>
      </trkpt>
      <trkpt lat="42.5801710" lon="1.4525610">
        <ele>2129.4</ele>
        <time>2021-08-13T15:57:50Z</time>
      </trkpt>
      <trkpt lat="42.5802200" lon="1.4526940">
        <ele>2126.5</ele>
        <time>2021-08-13T15:58:02Z</time>
      </trkpt>
      <trkpt lat="42.5802030" lon="1.4527430">
        <ele>2125.4</ele>
        <time>2021-08-13T15:58:05Z</time>
      </trkpt>
      <trkpt lat="42.5802060" lon="1.4527920">
        <ele>2124.5</ele>
        <time>2021-08-13T15:58:09Z</time>
      </trkpt>
      <trkpt lat="42.5802500" lon="1.4528750">
        <ele>2122.5</ele>
        <time>2021-08-13T15:58:16Z</time>
      </trkpt>
      <trkpt lat="42.5802780" lon="1.4529260">
        <ele>2121.3</ele>
        <time>2021-08-13T15:58:20Z</time>
      </trkpt>
      <trkpt lat="42.5802860" lon="1.4529670">
        <ele>2120.5</ele>
        <time>2021-08-13T15:58:24Z</time>
      </trkpt>
      <trkpt lat="42.5803040" lon="1.4529920">
        <ele>2119.8</ele>
        <time>2021-08-13T15:58:27Z</time>
      </trkpt>
      <trkpt lat="42.5803410" lon="1.4531060">
        <ele>2117.4</ele>
        <time>2021-08-13T15:58:40Z</time>
      </trkpt>
      <trkpt lat="42.5803410" lon="1.4531220">
        <ele>2117.1</ele>
        <time>2021-08-13T15:58:42Z</time>
      </trkpt>
      <trkpt lat="42.5803430" lon="1.4531310">
        <ele>2116.9</ele>
        <time>2021-08-13T15:58:43Z</time>
      </trkpt>
      <trkpt lat="42.5803440" lon="1.4531370">
        <ele>2116.8</ele>
        <time>2021-08-13T15:58:44Z</time>
      </trkpt>
      <trkpt lat="42.5803420" lon="1.4531400">
        <ele>2116.7</ele>
        <time>2021-08-13T15:58:48Z</time>
      </trkpt>
      <trkpt lat="42.5803430" lon="1.4531470">
        <ele>2116.5</ele>
        <time>2021-08-13T15:58:53Z</time>
      </trkpt>
      <trkpt lat="42.5803910" lon="1.4532560">
        <ele>2114.1</ele>
        <time>2021-08-13T15:59:18Z</time>
      </trkpt>
      <trkpt lat="42.5804080" lon="1.4534140">
        <ele>2111.0</ele>
        <time>2021-08-13T15:59:39Z</time>
      </trkpt>
      <trkpt lat="42.5803640" lon="1.4536010">
        <ele>2107.2</ele>
        <time>2021-08-13T16:00:04Z</time>
      </trkpt>
      <trkpt lat="42.5804590" lon="1.4537000">
        <ele>2104.0</ele>
        <time>2021-08-13T16:00:32Z</time>
      </trkpt>
      <trkpt lat="42.5805460" lon="1.4536320">
        <ele>2101.4</ele>
        <time>2021-08-13T16:00:59Z</time>
      </trkpt>
      <trkpt lat="42.5806390" lon="1.4537420">
        <ele>2098.2</ele>
        <time>2021-08-13T16:01:37Z</time>
      </trkpt>
      <trkpt lat="42.5806320" lon="1.4538130">
        <ele>2096.8</ele>
        <time>2021-08-13T16:01:44Z</time>
      </trkpt>
      <trkpt lat="42.5806240" lon="1.4538380">
        <ele>2096.3</ele>
        <time>2021-08-13T16:01:46Z</time>
      </trkpt>
      <trkpt lat="42.5806330" lon="1.4538430">
        <ele>2096.0</ele>
        <time>2021-08-13T16:01:47Z</time>
      </trkpt>
      <trkpt lat="42.5806220" lon="1.4538550">
        <ele>2095.6</ele>
        <time>2021-08-13T16:01:48Z</time>
      </trkpt>
      <trkpt lat="42.5806120" lon="1.4538610">
        <ele>2095.3</ele>
        <time>2021-08-13T16:01:49Z</time>
      </trkpt>
      <trkpt lat="42.5806240" lon="1.4538610">
        <ele>2095.0</ele>
        <time>2021-08-13T16:01:51Z</time>
      </trkpt>
      <trkpt lat="42.5806230" lon="1.4538810">
        <ele>2094.6</ele>
        <time>2021-08-13T16:01:54Z</time>
      </trkpt>
      <trkpt lat="42.5806150" lon="1.4539070">
        <ele>2094.1</ele>
        <time>2021-08-13T16:01:56Z</time>
      </trkpt>
      <trkpt lat="42.5806470" lon="1.4541080">
        <ele>2090.1</ele>
        <time>2021-08-13T16:02:26Z</time>
      </trkpt>
      <trkpt lat="42.5807140" lon="1.4542450">
        <ele>2086.9</ele>
        <time>2021-08-13T16:02:46Z</time>
      </trkpt>
      <trkpt lat="42.5807540" lon="1.4542630">
        <ele>2085.8</ele>
        <time>2021-08-13T16:02:48Z</time>
      </trkpt>
      <trkpt lat="42.5808350" lon="1.4544380">
        <ele>2081.8</ele>
        <time>2021-08-13T16:03:12Z</time>
      </trkpt>
      <trkpt lat="42.5808410" lon="1.4545750">
        <ele>2079.2</ele>
        <time>2021-08-13T16:03:29Z</time>
      </trkpt>
      <trkpt lat="42.5809100" lon="1.4547360">
        <ele>2075.6</ele>
        <time>2021-08-13T16:04:01Z</time>
      </trkpt>
      <trkpt lat="42.5809530" lon="1.4548260">
        <ele>2073.5</ele>
        <time>2021-08-13T16:04:11Z</time>
      </trkpt>
      <trkpt lat="42.5809590" lon="1.4549080">
        <ele>2071.9</ele>
        <time>2021-08-13T16:04:19Z</time>
      </trkpt>
      <trkpt lat="42.5809650" lon="1.4549390">
        <ele>2071.3</ele>
        <time>2021-08-13T16:04:22Z</time>
      </trkpt>
      <trkpt lat="42.5809730" lon="1.4549580">
        <ele>2070.8</ele>
        <time>2021-08-13T16:04:25Z</time>
      </trkpt>
      <trkpt lat="42.5810000" lon="1.4550120">
        <ele>2069.6</ele>
        <time>2021-08-13T16:04:31Z</time>
      </trkpt>
      <trkpt lat="42.5810290" lon="1.4550780">
        <ele>2068.1</ele>
        <time>2021-08-13T16:04:37Z</time>
      </trkpt>
      <trkpt lat="42.5810350" lon="1.4550970">
        <ele>2067.7</ele>
        <time>2021-08-13T16:04:39Z</time>
      </trkpt>
      <trkpt lat="42.5810410" lon="1.4551060">
        <ele>2067.5</ele>
        <time>2021-08-13T16:04:40Z</time>
      </trkpt>
      <trkpt lat="42.5810570" lon="1.4551230">
        <ele>2066.9</ele>
        <time>2021-08-13T16:04:41Z</time>
      </trkpt>
      <trkpt lat="42.5810690" lon="1.4551280">
        <ele>2066.6</ele>
        <time>2021-08-13T16:04:42Z</time>
      </trkpt>
      <trkpt lat="42.5810770" lon="1.4551390">
        <ele>2066.3</ele>
        <time>2021-08-13T16:04:43Z</time>
      </trkpt>
      <trkpt lat="42.5811100" lon="1.4551460">
        <ele>2065.4</ele>
        <time>2021-08-13T16:04:46Z</time>
      </trkpt>
      <trkpt lat="42.5811160" lon="1.4551470">
        <ele>2065.3</ele>
        <time>2021-08-13T16:04:47Z</time>
      </trkpt>
      <trkpt lat="42.5811210" lon="1.4551540">
        <ele>2065.1</ele>
        <time>2021-08-13T16:04:49Z</time>
      </trkpt>
      <trkpt lat="42.5811120" lon="1.4551590">
        <ele>2064.8</ele>
        <time>2021-08-13T16:04:53Z</time>
      </trkpt>
      <trkpt lat="42.5811080" lon="1.4551800">
        <ele>2064.4</ele>
        <time>2021-08-13T16:04:55Z</time>
      </trkpt>
      <trkpt lat="42.5811000" lon="1.4552600">
        <ele>2062.8</ele>
        <time>2021-08-13T16:04:58Z</time>
      </trkpt>
      <trkpt lat="42.5811210" lon="1.4552820">
        <ele>2062.1</ele>
        <time>2021-08-13T16:05:01Z</time>
      </trkpt>
      <trkpt lat="42.5811240" lon="1.4554020">
        <ele>2059.8</ele>
        <time>2021-08-13T16:05:07Z</time>
      </trkpt>
      <trkpt lat="42.5810950" lon="1.4554920">
        <ele>2057.9</ele>
        <time>2021-08-13T16:05:10Z</time>
      </trkpt>
      <trkpt lat="42.5810320" lon="1.4556570">
        <ele>2054.3</ele>
        <time>2021-08-13T16:05:21Z</time>
      </trkpt>
      <trkpt lat="42.5810040" lon="1.4557420">
        <ele>2052.5</ele>
        <time>2021-08-13T16:05:26Z</time>
      </trkpt>
      <trkpt lat="42.5810390" lon="1.4558270">
        <ele>2050.6</ele>
        <time>2021-08-13T16:05:35Z</time>
      </trkpt>
      <trkpt lat="42.5810810" lon="1.4558940">
        <ele>2048.9</ele>
        <time>2021-08-13T16:05:44Z</time>
      </trkpt>
      <trkpt lat="42.5811830" lon="1.4558820">
        <ele>2046.2</ele>
        <time>2021-08-13T16:05:56Z</time>
      </trkpt>
      <trkpt lat="42.5812050" lon="1.4558800">
        <ele>2045.7</ele>
        <time>2021-08-13T16:05:59Z</time>
      </trkpt>
      <trkpt lat="42.5812030" lon="1.4559050">
        <ele>2045.2</ele>
        <time>2021-08-13T16:06:03Z</time>
      </trkpt>
      <trkpt lat="42.5812020" lon="1.4559280">
        <ele>2044.7</ele>
        <time>2021-08-13T16:06:05Z</time>
      </trkpt>
      <trkpt lat="42.5812020" lon="1.4559350">
        <ele>2044.6</ele>
        <time>2021-08-13T16:06:06Z</time>
      </trkpt>
      <trkpt lat="42.5812660" lon="1.4560100">
        <ele>2042.4</ele>
        <time>2021-08-13T16:06:22Z</time>
      </trkpt>
      <trkpt lat="42.5811980" lon="1.4560720">
        <ele>2040.2</ele>
        <time>2021-08-13T16:06:28Z</time>
      </trkpt>
      <trkpt lat="42.5812120" lon="1.4562950">
        <ele>2035.9</ele>
        <time>2021-08-13T16:06:49Z</time>
      </trkpt>
      <trkpt lat="42.5812880" lon="1.4563620">
        <ele>2033.5</ele>
        <time>2021-08-13T16:06:59Z</time>
      </trkpt>
      <trkpt lat="42.5813010" lon="1.4563950">
        <ele>2032.8</ele>
        <time>2021-08-13T16:07:03Z</time>
      </trkpt>
      <trkpt lat="42.5813020" lon="1.4566150">
        <ele>2026.9</ele>
        <time>2021-08-13T16:07:28Z</time>
      </trkpt>
      <trkpt lat="42.5813100" lon="1.4566210">
        <ele>2026.7</ele>
        <time>2021-08-13T16:07:29Z</time>
      </trkpt>
      <trkpt lat="42.5813480" lon="1.4568350">
        <ele>2023.4</ele>
        <time>2021-08-13T16:07:54Z</time>
      </trkpt>
      <trkpt lat="42.5813400" lon="1.4570060">
        <ele>2020.8</ele>
        <time>2021-08-13T16:08:09Z</time>
      </trkpt>
      <trkpt lat="42.5813650" lon="1.4570350">
        <ele>2020.1</ele>
        <time>2021-08-13T16:08:17Z</time>
      </trkpt>
      <trkpt lat="42.5813360" lon="1.4572350">
        <ele>2017.0</ele>
        <time>2021-08-13T16:08:43Z</time>
      </trkpt>
      <trkpt lat="42.5813550" lon="1.4574200">
        <ele>2014.1</ele>
        <time>2021-08-13T16:09:13Z</time>
      </trkpt>
      <trkpt lat="42.5813630" lon="1.4573950">
        <ele>2013.7</ele>
        <time>2021-08-13T16:09:57Z</time>
      </trkpt>
      <trkpt lat="42.5813250" lon="1.4574720">
        <ele>2012.3</ele>
        <time>2021-08-13T16:10:14Z</time>
      </trkpt>
      <trkpt lat="42.5813040" lon="1.4574970">
        <ele>2011.7</ele>
        <time>2021-08-13T16:10:26Z</time>
      </trkpt>
      <trkpt lat="42.5812510" lon="1.4575570">
        <ele>2010.3</ele>
        <time>2021-08-13T16:10:34Z</time>
      </trkpt>
      <trkpt lat="42.5812970" lon="1.4575780">
        <ele>2009.3</ele>
        <time>2021-08-13T16:10:40Z</time>
      </trkpt>
      <trkpt lat="42.5813100" lon="1.4576760">
        <ele>2007.8</ele>
        <time>2021-08-13T16:10:54Z</time>
      </trkpt>
      <trkpt lat="42.5813020" lon="1.4576820">
        <ele>2007.6</ele>
        <time>2021-08-13T16:10:55Z</time>
      </trkpt>
      <trkpt lat="42.5813020" lon="1.4576930">
        <ele>2007.4</ele>
        <time>2021-08-13T16:10:56Z</time>
      </trkpt>
      <trkpt lat="42.5813200" lon="1.4577170">
        <ele>2006.9</ele>
        <time>2021-08-13T16:11:01Z</time>
      </trkpt>
      <trkpt lat="42.5813200" lon="1.4577150">
        <ele>2006.9</ele>
        <time>2021-08-13T16:11:02Z</time>
      </trkpt>
      <trkpt lat="42.5813190" lon="1.4577150">
        <ele>2006.9</ele>
        <time>2021-08-13T16:11:03Z</time>
      </trkpt>
      <trkpt lat="42.5813170" lon="1.4577170">
        <ele>2006.8</ele>
        <time>2021-08-13T16:11:04Z</time>
      </trkpt>
      <trkpt lat="42.5813130" lon="1.4577220">
        <ele>2006.7</ele>
        <time>2021-08-13T16:11:05Z</time>
      </trkpt>
      <trkpt lat="42.5813140" lon="1.4577360">
        <ele>2006.5</ele>
        <time>2021-08-13T16:11:08Z</time>
      </trkpt>
      <trkpt lat="42.5813260" lon="1.4577490">
        <ele>2006.2</ele>
        <time>2021-08-13T16:11:11Z</time>
      </trkpt>
      <trkpt lat="42.5813510" lon="1.4577330">
        <ele>2005.6</ele>
        <time>2021-08-13T16:11:15Z</time>
      </trkpt>
      <trkpt lat="42.5813780" lon="1.4577260">
        <ele>2005.0</ele>
        <time>2021-08-13T16:11:20Z</time>
      </trkpt>
      <trkpt lat="42.5813850" lon="1.4577230">
        <ele>2004.9</ele>
        <time>2021-08-13T16:11:21Z</time>
      </trkpt>
      <trkpt lat="42.5813930" lon="1.4577240">
        <ele>2004.7</ele>
        <time>2021-08-13T16:11:22Z</time>
      </trkpt>
      <trkpt lat="42.5814020" lon="1.4577280">
        <ele>2004.5</ele>
        <time>2021-08-13T16:11:24Z</time>
      </trkpt>
      <trkpt lat="42.5814080" lon="1.4577350">
        <ele>2004.4</ele>
        <time>2021-08-13T16:11:25Z</time>
      </trkpt>
      <trkpt lat="42.5814380" lon="1.4579140">
        <ele>2001.6</ele>
        <time>2021-08-13T16:11:41Z</time>
      </trkpt>
      <trkpt lat="42.5814520" lon="1.4579840">
        <ele>2000.5</ele>
        <time>2021-08-13T16:11:46Z</time>
      </trkpt>
      <trkpt lat="42.5814370" lon="1.4580450">
        <ele>1999.5</ele>
        <time>2021-08-13T16:11:51Z</time>
      </trkpt>
      <trkpt lat="42.5814260" lon="1.4581230">
        <ele>1998.3</ele>
        <time>2021-08-13T16:11:59Z</time>
      </trkpt>
      <trkpt lat="42.5814920" lon="1.4582640">
        <ele>1995.8</ele>
        <time>2021-08-13T16:12:19Z</time>
      </trkpt>
      <trkpt lat="42.5815090" lon="1.4583330">
        <ele>1994.6</ele>
        <time>2021-08-13T16:12:27Z</time>
      </trkpt>
      <trkpt lat="42.5814590" lon="1.4584730">
        <ele>1992.3</ele>
        <time>2021-08-13T16:12:39Z</time>
      </trkpt>
      <trkpt lat="42.5814720" lon="1.4584990">
        <ele>1991.8</ele>
        <time>2021-08-13T16:12:42Z</time>
      </trkpt>
      <trkpt lat="42.5815040" lon="1.4585430">
        <ele>1990.9</ele>
        <time>2021-08-13T16:12:48Z</time>
      </trkpt>
      <trkpt lat="42.5815130" lon="1.4585500">
        <ele>1990.7</ele>
        <time>2021-08-13T16:12:49Z</time>
      </trkpt>
      <trkpt lat="42.5815110" lon="1.4585610">
        <ele>1990.5</ele>
        <time>2021-08-13T16:12:50Z</time>
      </trkpt>
      <trkpt lat="42.5815110" lon="1.4585750">
        <ele>1990.3</ele>
        <time>2021-08-13T16:12:51Z</time>
      </trkpt>
      <trkpt lat="42.5815120" lon="1.4585900">
        <ele>1990.0</ele>
        <time>2021-08-13T16:12:52Z</time>
      </trkpt>
      <trkpt lat="42.5815230" lon="1.4586390">
        <ele>1989.3</ele>
        <time>2021-08-13T16:12:57Z</time>
      </trkpt>
      <trkpt lat="42.5815260" lon="1.4586870">
        <ele>1988.5</ele>
        <time>2021-08-13T16:13:02Z</time>
      </trkpt>
      <trkpt lat="42.5815360" lon="1.4586960">
        <ele>1988.3</ele>
        <time>2021-08-13T16:13:03Z</time>
      </trkpt>
      <trkpt lat="42.5815400" lon="1.4587630">
        <ele>1987.3</ele>
        <time>2021-08-13T16:13:20Z</time>
      </trkpt>
      <trkpt lat="42.5816050" lon="1.4588890">
        <ele>1984.9</ele>
        <time>2021-08-13T16:13:45Z</time>
      </trkpt>
      <trkpt lat="42.5815880" lon="1.4590110">
        <ele>1983.0</ele>
        <time>2021-08-13T16:14:02Z</time>
      </trkpt>
      <trkpt lat="42.5815890" lon="1.4590540">
        <ele>1982.4</ele>
        <time>2021-08-13T16:14:14Z</time>
      </trkpt>
      <trkpt lat="42.5816140" lon="1.4590590">
        <ele>1981.9</ele>
        <time>2021-08-13T16:14:19Z</time>
      </trkpt>
      <trkpt lat="42.5816280" lon="1.4590820">
        <ele>1981.4</ele>
        <time>2021-08-13T16:14:26Z</time>
      </trkpt>
      <trkpt lat="42.5816780" lon="1.4590850">
        <ele>1980.4</ele>
        <time>2021-08-13T16:14:31Z</time>
      </trkpt>
      <trkpt lat="42.5816890" lon="1.4590860">
        <ele>1980.1</ele>
        <time>2021-08-13T16:14:32Z</time>
      </trkpt>
      <trkpt lat="42.5816940" lon="1.4590920">
        <ele>1980.0</ele>
        <time>2021-08-13T16:14:33Z</time>
      </trkpt>
      <trkpt lat="42.5817030" lon="1.4591030">
        <ele>1979.8</ele>
        <time>2021-08-13T16:14:34Z</time>
      </trkpt>
      <trkpt lat="42.5817120" lon="1.4591150">
        <ele>1979.5</ele>
        <time>2021-08-13T16:14:35Z</time>
      </trkpt>
      <trkpt lat="42.5817250" lon="1.4591170">
        <ele>1979.2</ele>
        <time>2021-08-13T16:14:36Z</time>
      </trkpt>
      <trkpt lat="42.5817470" lon="1.4591250">
        <ele>1978.8</ele>
        <time>2021-08-13T16:14:38Z</time>
      </trkpt>
      <trkpt lat="42.5817570" lon="1.4591660">
        <ele>1978.1</ele>
        <time>2021-08-13T16:14:41Z</time>
      </trkpt>
      <trkpt lat="42.5817520" lon="1.4592130">
        <ele>1977.4</ele>
        <time>2021-08-13T16:14:45Z</time>
      </trkpt>
      <trkpt lat="42.5817320" lon="1.4593070">
        <ele>1975.9</ele>
        <time>2021-08-13T16:14:51Z</time>
      </trkpt>
      <trkpt lat="42.5817160" lon="1.4593360">
        <ele>1975.3</ele>
        <time>2021-08-13T16:14:55Z</time>
      </trkpt>
      <trkpt lat="42.5817290" lon="1.4593600">
        <ele>1974.9</ele>
        <time>2021-08-13T16:14:58Z</time>
      </trkpt>
      <trkpt lat="42.5817250" lon="1.4593950">
        <ele>1974.4</ele>
        <time>2021-08-13T16:15:01Z</time>
      </trkpt>
      <trkpt lat="42.5817820" lon="1.4595370">
        <ele>1971.9</ele>
        <time>2021-08-13T16:15:15Z</time>
      </trkpt>
      <trkpt lat="42.5817440" lon="1.4596390">
        <ele>1970.2</ele>
        <time>2021-08-13T16:15:24Z</time>
      </trkpt>
      <trkpt lat="42.5817420" lon="1.4596580">
        <ele>1969.9</ele>
        <time>2021-08-13T16:15:26Z</time>
      </trkpt>
      <trkpt lat="42.5817850" lon="1.4596730">
        <ele>1968.9</ele>
        <time>2021-08-13T16:15:30Z</time>
      </trkpt>
      <trkpt lat="42.5817920" lon="1.4598260">
        <ele>1966.6</ele>
        <time>2021-08-13T16:15:56Z</time>
      </trkpt>
      <trkpt lat="42.5818240" lon="1.4598650">
        <ele>1965.7</ele>
        <time>2021-08-13T16:16:00Z</time>
      </trkpt>
      <trkpt lat="42.5818630" lon="1.4599260">
        <ele>1964.5</ele>
        <time>2021-08-13T16:16:22Z</time>
      </trkpt>
      <trkpt lat="42.5818580" lon="1.4598450">
        <ele>1963.3</ele>
        <time>2021-08-13T16:16:50Z</time>
      </trkpt>
      <trkpt lat="42.5817810" lon="1.4598180">
        <ele>1961.6</ele>
        <time>2021-08-13T16:17:12Z</time>
      </trkpt>
      <trkpt lat="42.5818610" lon="1.4597980">
        <ele>1959.9</ele>
        <time>2021-08-13T16:17:19Z</time>
      </trkpt>
      <trkpt lat="42.5818200" lon="1.4598590">
        <ele>1958.7</ele>
        <time>2021-08-13T16:17:25Z</time>
      </trkpt>
      <trkpt lat="42.5818110" lon="1.4599120">
        <ele>1957.9</ele>
        <time>2021-08-13T16:17:39Z</time>
      </trkpt>
      <trkpt lat="42.5817960" lon="1.4599180">
        <ele>1957.5</ele>
        <time>2021-08-13T16:17:45Z</time>
      </trkpt>
      <trkpt lat="42.5817850" lon="1.4599490">
        <ele>1957.0</ele>
        <time>2021-08-13T16:17:51Z</time>
      </trkpt>
      <trkpt lat="42.5817810" lon="1.4599600">
        <ele>1956.8</ele>
        <time>2021-08-13T16:17:53Z</time>
      </trkpt>
      <trkpt lat="42.5818170" lon="1.4599610">
        <ele>1956.1</ele>
        <time>2021-08-13T16:18:00Z</time>
      </trkpt>
      <trkpt lat="42.5818860" lon="1.4599560">
        <ele>1954.7</ele>
        <time>2021-08-13T16:18:06Z</time>
      </trkpt>
      <trkpt lat="42.5818520" lon="1.4600740">
        <ele>1952.7</ele>
        <time>2021-08-13T16:18:26Z</time>
      </trkpt>
      <trkpt lat="42.5818610" lon="1.4600840">
        <ele>1952.5</ele>
        <time>2021-08-13T16:18:28Z</time>
      </trkpt>
      <trkpt lat="42.5818530" lon="1.4601650">
        <ele>1951.3</ele>
        <time>2021-08-13T16:18:37Z</time>
      </trkpt>
      <trkpt lat="42.5818570" lon="1.4601770">
        <ele>1951.1</ele>
        <time>2021-08-13T16:18:39Z</time>
      </trkpt>
      <trkpt lat="42.5818440" lon="1.4603110">
        <ele>1949.0</ele>
        <time>2021-08-13T16:18:54Z</time>
      </trkpt>
      <trkpt lat="42.5817720" lon="1.4604110">
        <ele>1946.9</ele>
        <time>2021-08-13T16:19:03Z</time>
      </trkpt>
      <trkpt lat="42.5817630" lon="1.4604590">
        <ele>1946.1</ele>
        <time>2021-08-13T16:19:06Z</time>
      </trkpt>
      <trkpt lat="42.5817570" lon="1.4604750">
        <ele>1945.9</ele>
        <time>2021-08-13T16:19:07Z</time>
      </trkpt>
      <trkpt lat="42.5817420" lon="1.4605320">
        <ele>1944.9</ele>
        <time>2021-08-13T16:19:11Z</time>
      </trkpt>
      <trkpt lat="42.5817490" lon="1.4606850">
        <ele>1942.6</ele>
        <time>2021-08-13T16:19:38Z</time>
      </trkpt>
      <trkpt lat="42.5817370" lon="1.4608040">
        <ele>1940.8</ele>
        <time>2021-08-13T16:19:51Z</time>
      </trkpt>
      <trkpt lat="42.5817000" lon="1.4610430">
        <ele>1937.1</ele>
        <time>2021-08-13T16:20:07Z</time>
      </trkpt>
      <trkpt lat="42.5817690" lon="1.4612700">
        <ele>1933.3</ele>
        <time>2021-08-13T16:20:25Z</time>
      </trkpt>
      <trkpt lat="42.5817870" lon="1.4614900">
        <ele>1930.0</ele>
        <time>2021-08-13T16:20:49Z</time>
      </trkpt>
      <trkpt lat="42.5818270" lon="1.4615500">
        <ele>1928.7</ele>
        <time>2021-08-13T16:21:03Z</time>
      </trkpt>
      <trkpt lat="42.5820030" lon="1.4616070">
        <ele>1925.0</ele>
        <time>2021-08-13T16:21:16Z</time>
      </trkpt>
      <trkpt lat="42.5820570" lon="1.4616320">
        <ele>1923.8</ele>
        <time>2021-08-13T16:21:21Z</time>
      </trkpt>
      <trkpt lat="42.5820870" lon="1.4616290">
        <ele>1923.2</ele>
        <time>2021-08-13T16:21:23Z</time>
      </trkpt>
      <trkpt lat="42.5820870" lon="1.4616290">
        <ele>1923.2</ele>
        <time>2021-08-13T16:21:31Z</time>
      </trkpt>
      <trkpt lat="42.5820870" lon="1.4616290">
        <ele>1923.2</ele>
        <time>2021-08-13T16:21:36Z</time>
      </trkpt>
      <trkpt lat="42.5820870" lon="1.4616290">
        <ele>1923.2</ele>
        <time>2021-08-13T16:21:43Z</time>
      </trkpt>
      <trkpt lat="42.5823760" lon="1.4618210">
        <ele>1916.6</ele>
        <time>2021-08-13T16:21:57Z</time>
      </trkpt>
      <trkpt lat="42.5824010" lon="1.4618930">
        <ele>1915.4</ele>
        <time>2021-08-13T16:22:04Z</time>
      </trkpt>
      <trkpt lat="42.5823990" lon="1.4619320">
        <ele>1914.8</ele>
        <time>2021-08-13T16:22:07Z</time>
      </trkpt>
      <trkpt lat="42.5823970" lon="1.4619710">
        <ele>1914.2</ele>
        <time>2021-08-13T16:22:14Z</time>
      </trkpt>
      <trkpt lat="42.5823950" lon="1.4620100">
        <ele>1913.6</ele>
        <time>2021-08-13T16:22:30Z</time>
      </trkpt>
      <trkpt lat="42.5823930" lon="1.4620500">
        <ele>1913.0</ele>
        <time>2021-08-13T16:22:32Z</time>
      </trkpt>
      <trkpt lat="42.5823900" lon="1.4620890">
        <ele>1912.4</ele>
        <time>2021-08-13T16:22:51Z</time>
      </trkpt>
      <trkpt lat="42.5823880" lon="1.4621280">
        <ele>1911.8</ele>
        <time>2021-08-13T16:22:53Z</time>
      </trkpt>
      <trkpt lat="42.5823860" lon="1.4621670">
        <ele>1911.2</ele>
        <time>2021-08-13T16:23:02Z</time>
      </trkpt>
      <trkpt lat="42.5823840" lon="1.4622060">
        <ele>1910.6</ele>
        <time>2021-08-13T16:23:04Z</time>
      </trkpt>
      <trkpt lat="42.5823820" lon="1.4622450">
        <ele>1910.0</ele>
        <time>2021-08-13T16:23:06Z</time>
      </trkpt>
      <trkpt lat="42.5822210" lon="1.4624260">
        <ele>1905.7</ele>
        <time>2021-08-13T16:23:09Z</time>
      </trkpt>
      <trkpt lat="42.5822010" lon="1.4626090">
        <ele>1902.9</ele>
        <time>2021-08-13T16:23:14Z</time>
      </trkpt>
      <trkpt lat="42.5822060" lon="1.4626300">
        <ele>1902.5</ele>
        <time>2021-08-13T16:23:15Z</time>
      </trkpt>
      <trkpt lat="42.5822100" lon="1.4626760">
        <ele>1901.8</ele>
        <time>2021-08-13T16:23:17Z</time>
      </trkpt>
      <trkpt lat="42.5821980" lon="1.4627410">
        <ele>1900.8</ele>
        <time>2021-08-13T16:23:19Z</time>
      </trkpt>
      <trkpt lat="42.5821650" lon="1.4628470">
        <ele>1899.1</ele>
        <time>2021-08-13T16:23:25Z</time>
      </trkpt>
      <trkpt lat="42.5821670" lon="1.4628640">
        <ele>1898.8</ele>
        <time>2021-08-13T16:23:26Z</time>
      </trkpt>
      <trkpt lat="42.5821600" lon="1.4630660">
        <ele>1895.7</ele>
        <time>2021-08-13T16:23:49Z</time>
      </trkpt>
      <trkpt lat="42.5821880" lon="1.4631570">
        <ele>1894.2</ele>
        <time>2021-08-13T16:24:00Z</time>
      </trkpt>
      <trkpt lat="42.5822020" lon="1.4632370">
        <ele>1893.0</ele>
        <time>2021-08-13T16:24:11Z</time>
      </trkpt>
      <trkpt lat="42.5821980" lon="1.4632490">
        <ele>1892.8</ele>
        <time>2021-08-13T16:24:21Z</time>
      </trkpt>
      <trkpt lat="42.5821690" lon="1.4633020">
        <ele>1891.8</ele>
        <time>2021-08-13T16:24:34Z</time>
      </trkpt>
      <trkpt lat="42.5821860" lon="1.4633550">
        <ele>1890.9</ele>
        <time>2021-08-13T16:24:49Z</time>
      </trkpt>
      <trkpt lat="42.5821090" lon="1.4634440">
        <ele>1888.8</ele>
        <time>2021-08-13T16:25:18Z</time>
      </trkpt>
      <trkpt lat="42.5821900" lon="1.4634430">
        <ele>1887.1</ele>
        <time>2021-08-13T16:25:30Z</time>
      </trkpt>
      <trkpt lat="42.5821470" lon="1.4634430">
        <ele>1886.3</ele>
        <time>2021-08-13T16:25:33Z</time>
      </trkpt>
      <trkpt lat="42.5820340" lon="1.4634840">
        <ele>1883.8</ele>
        <time>2021-08-13T16:25:38Z</time>
      </trkpt>
      <trkpt lat="42.5820090" lon="1.4635670">
        <ele>1882.5</ele>
        <time>2021-08-13T16:25:56Z</time>
      </trkpt>
      <trkpt lat="42.5821130" lon="1.4636610">
        <ele>1879.9</ele>
        <time>2021-08-13T16:26:15Z</time>
      </trkpt>
      <trkpt lat="42.5821000" lon="1.4639050">
        <ele>1876.2</ele>
        <time>2021-08-13T16:26:33Z</time>
      </trkpt>
      <trkpt lat="42.5820390" lon="1.4639580">
        <ele>1874.7</ele>
        <time>2021-08-13T16:26:39Z</time>
      </trkpt>
      <trkpt lat="42.5819370" lon="1.4640890">
        <ele>1871.8</ele>
        <time>2021-08-13T16:26:53Z</time>
      </trkpt>
      <trkpt lat="42.5819330" lon="1.4640930">
        <ele>1871.7</ele>
        <time>2021-08-13T16:26:54Z</time>
      </trkpt>
      <trkpt lat="42.5819260" lon="1.4641070">
        <ele>1871.4</ele>
        <time>2021-08-13T16:26:55Z</time>
      </trkpt>
      <trkpt lat="42.5819180" lon="1.4641150">
        <ele>1871.2</ele>
        <time>2021-08-13T16:26:56Z</time>
      </trkpt>
      <trkpt lat="42.5819020" lon="1.4641420">
        <ele>1870.7</ele>
        <time>2021-08-13T16:26:58Z</time>
      </trkpt>
      <trkpt lat="42.5818750" lon="1.4641580">
        <ele>1870.1</ele>
        <time>2021-08-13T16:27:03Z</time>
      </trkpt>
      <trkpt lat="42.5818890" lon="1.4641380">
        <ele>1869.7</ele>
        <time>2021-08-13T16:27:08Z</time>
      </trkpt>
      <trkpt lat="42.5818880" lon="1.4641440">
        <ele>1869.6</ele>
        <time>2021-08-13T16:27:09Z</time>
      </trkpt>
      <trkpt lat="42.5819130" lon="1.4641960">
        <ele>1868.6</ele>
        <time>2021-08-13T16:27:15Z</time>
      </trkpt>
      <trkpt lat="42.5818870" lon="1.4642520">
        <ele>1867.6</ele>
        <time>2021-08-13T16:27:23Z</time>
      </trkpt>
      <trkpt lat="42.5818840" lon="1.4643150">
        <ele>1866.7</ele>
        <time>2021-08-13T16:27:34Z</time>
      </trkpt>
      <trkpt lat="42.5818560" lon="1.4643860">
        <ele>1865.5</ele>
        <time>2021-08-13T16:27:40Z</time>
      </trkpt>
      <trkpt lat="42.5818670" lon="1.4644460">
        <ele>1864.5</ele>
        <time>2021-08-13T16:27:49Z</time>
      </trkpt>
      <trkpt lat="42.5819620" lon="1.4644040">
        <ele>1862.5</ele>
        <time>2021-08-13T16:28:01Z</time>
      </trkpt>
      <trkpt lat="42.5819750" lon="1.4643970">
        <ele>1862.2</ele>
        <time>2021-08-13T16:28:02Z</time>
      </trkpt>
      <trkpt lat="42.5819930" lon="1.4643840">
        <ele>1861.7</ele>
        <time>2021-08-13T16:28:04Z</time>
      </trkpt>
      <trkpt lat="42.5820000" lon="1.4643830">
        <ele>1861.6</ele>
        <time>2021-08-13T16:28:05Z</time>
      </trkpt>
      <trkpt lat="42.5820050" lon="1.4643860">
        <ele>1861.5</ele>
        <time>2021-08-13T16:28:06Z</time>
      </trkpt>
      <trkpt lat="42.5820250" lon="1.4643900">
        <ele>1861.1</ele>
        <time>2021-08-13T16:28:10Z</time>
      </trkpt>
      <trkpt lat="42.5820320" lon="1.4643800">
        <ele>1860.9</ele>
        <time>2021-08-13T16:28:11Z</time>
      </trkpt>
      <trkpt lat="42.5820360" lon="1.4643730">
        <ele>1860.7</ele>
        <time>2021-08-13T16:28:12Z</time>
      </trkpt>
      <trkpt lat="42.5820780" lon="1.4643220">
        <ele>1859.6</ele>
        <time>2021-08-13T16:28:19Z</time>
      </trkpt>
      <trkpt lat="42.5821150" lon="1.4642890">
        <ele>1858.6</ele>
        <time>2021-08-13T16:28:25Z</time>
      </trkpt>
      <trkpt lat="42.5822430" lon="1.4641400">
        <ele>1855.2</ele>
        <time>2021-08-13T16:28:52Z</time>
      </trkpt>
      <trkpt lat="42.5822660" lon="1.4641760">
        <ele>1854.4</ele>
        <time>2021-08-13T16:29:03Z</time>
      </trkpt>
      <trkpt lat="42.5822410" lon="1.4641880">
        <ele>1853.9</ele>
        <time>2021-08-13T16:29:14Z</time>
      </trkpt>
      <trkpt lat="42.5822430" lon="1.4642070">
        <ele>1853.6</ele>
        <time>2021-08-13T16:29:28Z</time>
      </trkpt>
      <trkpt lat="42.5823140" lon="1.4643550">
        <ele>1850.9</ele>
        <time>2021-08-13T16:30:02Z</time>
      </trkpt>
      <trkpt lat="42.5823620" lon="1.4644850">
        <ele>1848.7</ele>
        <time>2021-08-13T16:30:28Z</time>
      </trkpt>
      <trkpt lat="42.5823260" lon="1.4644910">
        <ele>1848.0</ele>
        <time>2021-08-13T16:30:35Z</time>
      </trkpt>
      <trkpt lat="42.5822870" lon="1.4647270">
        <ele>1844.3</ele>
        <time>2021-08-13T16:31:05Z</time>
      </trkpt>
      <trkpt lat="42.5823620" lon="1.4648800">
        <ele>1841.5</ele>
        <time>2021-08-13T16:31:37Z</time>
      </trkpt>
      <trkpt lat="42.5823910" lon="1.4647550">
        <ele>1839.5</ele>
        <time>2021-08-13T16:31:51Z</time>
      </trkpt>
      <trkpt lat="42.5824090" lon="1.4647340">
        <ele>1839.0</ele>
        <time>2021-08-13T16:31:55Z</time>
      </trkpt>
      <trkpt lat="42.5824120" lon="1.4647350">
        <ele>1839.0</ele>
        <time>2021-08-13T16:31:56Z</time>
      </trkpt>
      <trkpt lat="42.5824200" lon="1.4647260">
        <ele>1838.7</ele>
        <time>2021-08-13T16:31:57Z</time>
      </trkpt>
      <trkpt lat="42.5824390" lon="1.4647640">
        <ele>1838.0</ele>
        <time>2021-08-13T16:32:01Z</time>
      </trkpt>
      <trkpt lat="42.5824460" lon="1.4647570">
        <ele>1837.9</ele>
        <time>2021-08-13T16:32:02Z</time>
      </trkpt>
      <trkpt lat="42.5824500" lon="1.4647530">
        <ele>1837.8</ele>
        <time>2021-08-13T16:32:03Z</time>
      </trkpt>
      <trkpt lat="42.5824550" lon="1.4647490">
        <ele>1837.6</ele>
        <time>2021-08-13T16:32:05Z</time>
      </trkpt>
      <trkpt lat="42.5824590" lon="1.4647440">
        <ele>1837.5</ele>
        <time>2021-08-13T16:32:06Z</time>
      </trkpt>
      <trkpt lat="42.5824560" lon="1.4647660">
        <ele>1837.2</ele>
        <time>2021-08-13T16:32:07Z</time>
      </trkpt>
      <trkpt lat="42.5824640" lon="1.4647360">
        <ele>1836.7</ele>
        <time>2021-08-13T16:32:12Z</time>
      </trkpt>
      <trkpt lat="42.5824740" lon="1.4647280">
        <ele>1836.5</ele>
        <time>2021-08-13T16:32:14Z</time>
      </trkpt>
      <trkpt lat="42.5824850" lon="1.4647230">
        <ele>1836.2</ele>
        <time>2021-08-13T16:32:15Z</time>
      </trkpt>
      <trkpt lat="42.5825090" lon="1.4647080">
        <ele>1835.7</ele>
        <time>2021-08-13T16:32:17Z</time>
      </trkpt>
      <trkpt lat="42.5825250" lon="1.4647050">
        <ele>1835.3</ele>
        <time>2021-08-13T16:32:18Z</time>
      </trkpt>
      <trkpt lat="42.5826530" lon="1.4647530">
        <ele>1832.6</ele>
        <time>2021-08-13T16:32:44Z</time>
      </trkpt>
      <trkpt lat="42.5827120" lon="1.4648310">
        <ele>1830.9</ele>
        <time>2021-08-13T16:32:58Z</time>
      </trkpt>
      <trkpt lat="42.5828240" lon="1.4647070">
        <ele>1827.9</ele>
        <time>2021-08-13T16:33:09Z</time>
      </trkpt>
      <trkpt lat="42.5828360" lon="1.4647670">
        <ele>1827.0</ele>
        <time>2021-08-13T16:33:18Z</time>
      </trkpt>
      <trkpt lat="42.5827790" lon="1.4648290">
        <ele>1825.5</ele>
        <time>2021-08-13T16:33:32Z</time>
      </trkpt>
      <trkpt lat="42.5828460" lon="1.4650010">
        <ele>1822.5</ele>
        <time>2021-08-13T16:33:54Z</time>
      </trkpt>
      <trkpt lat="42.5828740" lon="1.4650710">
        <ele>1821.3</ele>
        <time>2021-08-13T16:34:03Z</time>
      </trkpt>
      <trkpt lat="42.5829150" lon="1.4652320">
        <ele>1818.7</ele>
        <time>2021-08-13T16:34:22Z</time>
      </trkpt>
      <trkpt lat="42.5830710" lon="1.4649720">
        <ele>1813.6</ele>
        <time>2021-08-13T16:34:54Z</time>
      </trkpt>
      <trkpt lat="42.5831010" lon="1.4647190">
        <ele>1809.7</ele>
        <time>2021-08-13T16:35:10Z</time>
      </trkpt>
      <trkpt lat="42.5831940" lon="1.4644900">
        <ele>1803.7</ele>
        <time>2021-08-13T16:35:31Z</time>
      </trkpt>
      <trkpt lat="42.5832240" lon="1.4645090">
        <ele>1803.4</ele>
        <time>2021-08-13T16:35:37Z</time>
      </trkpt>
      <trkpt lat="42.5832250" lon="1.4645150">
        <ele>1803.3</ele>
        <time>2021-08-13T16:35:38Z</time>
      </trkpt>
      <trkpt lat="42.5832250" lon="1.4645230">
        <ele>1803.2</ele>
        <time>2021-08-13T16:35:39Z</time>
      </trkpt>
      <trkpt lat="42.5832300" lon="1.4645370">
        <ele>1803.1</ele>
        <time>2021-08-13T16:35:40Z</time>
      </trkpt>
      <trkpt lat="42.5832310" lon="1.4645670">
        <ele>1802.8</ele>
        <time>2021-08-13T16:35:42Z</time>
      </trkpt>
      <trkpt lat="42.5832620" lon="1.4646800">
        <ele>1801.8</ele>
        <time>2021-08-13T16:35:56Z</time>
      </trkpt>
      <trkpt lat="42.5832980" lon="1.4647310">
        <ele>1801.2</ele>
        <time>2021-08-13T16:36:01Z</time>
      </trkpt>
      <trkpt lat="42.5833410" lon="1.4647610">
        <ele>1800.7</ele>
        <time>2021-08-13T16:36:07Z</time>
      </trkpt>
      <trkpt lat="42.5833670" lon="1.4647910">
        <ele>1800.2</ele>
        <time>2021-08-13T16:36:11Z</time>
      </trkpt>
      <trkpt lat="42.5833770" lon="1.4648020">
        <ele>1800.1</ele>
        <time>2021-08-13T16:36:12Z</time>
      </trkpt>
      <trkpt lat="42.5833870" lon="1.4648070">
        <ele>1799.9</ele>
        <time>2021-08-13T16:36:13Z</time>
      </trkpt>
      <trkpt lat="42.5834150" lon="1.4648360">
        <ele>1799.5</ele>
        <time>2021-08-13T16:36:16Z</time>
      </trkpt>
      <trkpt lat="42.5834230" lon="1.4648430">
        <ele>1799.4</ele>
        <time>2021-08-13T16:36:17Z</time>
      </trkpt>
      <trkpt lat="42.5834310" lon="1.4648500">
        <ele>1799.3</ele>
        <time>2021-08-13T16:36:18Z</time>
      </trkpt>
      <trkpt lat="42.5834390" lon="1.4648580">
        <ele>1799.2</ele>
        <time>2021-08-13T16:36:19Z</time>
      </trkpt>
      <trkpt lat="42.5834620" lon="1.4648810">
        <ele>1798.8</ele>
        <time>2021-08-13T16:36:22Z</time>
      </trkpt>
      <trkpt lat="42.5835040" lon="1.4649010">
        <ele>1798.3</ele>
        <time>2021-08-13T16:36:28Z</time>
      </trkpt>
      <trkpt lat="42.5836270" lon="1.4649480">
        <ele>1797.2</ele>
        <time>2021-08-13T16:36:42Z</time>
      </trkpt>
      <trkpt lat="42.5836530" lon="1.4650000">
        <ele>1797.0</ele>
        <time>2021-08-13T16:36:46Z</time>
      </trkpt>
      <trkpt lat="42.5837060" lon="1.4650520">
        <ele>1797.0</ele>
        <time>2021-08-13T16:36:52Z</time>
      </trkpt>
      <trkpt lat="42.5837720" lon="1.4650420">
        <ele>1797.3</ele>
        <time>2021-08-13T16:36:59Z</time>
      </trkpt>
      <trkpt lat="42.5838040" lon="1.4650550">
        <ele>1797.5</ele>
        <time>2021-08-13T16:37:03Z</time>
      </trkpt>
      <trkpt lat="42.5839010" lon="1.4651490">
        <ele>1798.4</ele>
        <time>2021-08-13T16:37:18Z</time>
      </trkpt>
      <trkpt lat="42.5839050" lon="1.4651640">
        <ele>1798.4</ele>
        <time>2021-08-13T16:37:19Z</time>
      </trkpt>
      <trkpt lat="42.5838820" lon="1.4653120">
        <ele>1797.0</ele>
        <time>2021-08-13T16:37:36Z</time>
      </trkpt>
      <trkpt lat="42.5838610" lon="1.4653110">
        <ele>1796.7</ele>
        <time>2021-08-13T16:37:46Z</time>
      </trkpt>
      <trkpt lat="42.5838590" lon="1.4653060">
        <ele>1796.7</ele>
        <time>2021-08-13T16:37:52Z</time>
      </trkpt>
      <trkpt lat="42.5837970" lon="1.4652880">
        <ele>1796.0</ele>
        <time>2021-08-13T16:38:03Z</time>
      </trkpt>
      <trkpt lat="42.5838340" lon="1.4652990">
        <ele>1795.6</ele>
        <time>2021-08-13T16:38:17Z</time>
      </trkpt>
      <trkpt lat="42.5838390" lon="1.4653130">
        <ele>1795.5</ele>
        <time>2021-08-13T16:38:22Z</time>
      </trkpt>
      <trkpt lat="42.5838540" lon="1.4653230">
        <ele>1795.4</ele>
        <time>2021-08-13T16:38:26Z</time>
      </trkpt>
      <trkpt lat="42.5838340" lon="1.4653180">
        <ele>1795.2</ele>
        <time>2021-08-13T16:38:52Z</time>
      </trkpt>
      <trkpt lat="42.5838350" lon="1.4653440">
        <ele>1794.9</ele>
        <time>2021-08-13T16:39:10Z</time>
      </trkpt>
      <trkpt lat="42.5838390" lon="1.4653480">
        <ele>1794.9</ele>
        <time>2021-08-13T16:39:11Z</time>
      </trkpt>
      <trkpt lat="42.5838430" lon="1.4653500">
        <ele>1794.8</ele>
        <time>2021-08-13T16:39:12Z</time>
      </trkpt>
      <trkpt lat="42.5838440" lon="1.4653520">
        <ele>1794.8</ele>
        <time>2021-08-13T16:39:13Z</time>
      </trkpt>
      <trkpt lat="42.5838490" lon="1.4653490">
        <ele>1794.7</ele>
        <time>2021-08-13T16:39:16Z</time>
      </trkpt>
      <trkpt lat="42.5838590" lon="1.4653640">
        <ele>1794.5</ele>
        <time>2021-08-13T16:39:19Z</time>
      </trkpt>
      <trkpt lat="42.5838480" lon="1.4654580">
        <ele>1793.3</ele>
        <time>2021-08-13T16:39:31Z</time>
      </trkpt>
      <trkpt lat="42.5838590" lon="1.4655450">
        <ele>1792.2</ele>
        <time>2021-08-13T16:39:38Z</time>
      </trkpt>
      <trkpt lat="42.5838670" lon="1.4655760">
        <ele>1791.7</ele>
        <time>2021-08-13T16:39:44Z</time>
      </trkpt>
      <trkpt lat="42.5838500" lon="1.4656130">
        <ele>1791.2</ele>
        <time>2021-08-13T16:39:48Z</time>
      </trkpt>
      <trkpt lat="42.5838210" lon="1.4656540">
        <ele>1790.4</ele>
        <time>2021-08-13T16:39:57Z</time>
      </trkpt>
      <trkpt lat="42.5838100" lon="1.4658730">
        <ele>1787.4</ele>
        <time>2021-08-13T16:40:19Z</time>
      </trkpt>
      <trkpt lat="42.5838010" lon="1.4659150">
        <ele>1786.7</ele>
        <time>2021-08-13T16:40:24Z</time>
      </trkpt>
      <trkpt lat="42.5837960" lon="1.4659480">
        <ele>1786.1</ele>
        <time>2021-08-13T16:40:29Z</time>
      </trkpt>
      <trkpt lat="42.5837910" lon="1.4660410">
        <ele>1784.5</ele>
        <time>2021-08-13T16:40:40Z</time>
      </trkpt>
      <trkpt lat="42.5837600" lon="1.4662480">
        <ele>1780.1</ele>
        <time>2021-08-13T16:41:00Z</time>
      </trkpt>
      <trkpt lat="42.5837600" lon="1.4662620">
        <ele>1779.8</ele>
        <time>2021-08-13T16:41:01Z</time>
      </trkpt>
      <trkpt lat="42.5837560" lon="1.4662880">
        <ele>1779.2</ele>
        <time>2021-08-13T16:41:04Z</time>
      </trkpt>
      <trkpt lat="42.5837800" lon="1.4663170">
        <ele>1778.3</ele>
        <time>2021-08-13T16:41:12Z</time>
      </trkpt>
      <trkpt lat="42.5837660" lon="1.4665520">
        <ele>1772.5</ele>
        <time>2021-08-13T16:41:39Z</time>
      </trkpt>
      <trkpt lat="42.5838300" lon="1.4667540">
        <ele>1767.6</ele>
        <time>2021-08-13T16:42:12Z</time>
      </trkpt>
      <trkpt lat="42.5838560" lon="1.4669200">
        <ele>1765.0</ele>
        <time>2021-08-13T16:42:51Z</time>
      </trkpt>
      <trkpt lat="42.5838820" lon="1.4669280">
        <ele>1764.5</ele>
        <time>2021-08-13T16:42:54Z</time>
      </trkpt>
      <trkpt lat="42.5839510" lon="1.4669630">
        <ele>1763.3</ele>
        <time>2021-08-13T16:43:05Z</time>
      </trkpt>
      <trkpt lat="42.5839570" lon="1.4669750">
        <ele>1763.1</ele>
        <time>2021-08-13T16:43:08Z</time>
      </trkpt>
      <trkpt lat="42.5839410" lon="1.4672220">
        <ele>1761.2</ele>
        <time>2021-08-13T16:43:26Z</time>
      </trkpt>
      <trkpt lat="42.5839970" lon="1.4673100">
        <ele>1760.6</ele>
        <time>2021-08-13T16:43:38Z</time>
      </trkpt>
      <trkpt lat="42.5840030" lon="1.4673160">
        <ele>1760.5</ele>
        <time>2021-08-13T16:43:39Z</time>
      </trkpt>
      <trkpt lat="42.5840250" lon="1.4673220">
        <ele>1760.3</ele>
        <time>2021-08-13T16:43:41Z</time>
      </trkpt>
      <trkpt lat="42.5840450" lon="1.4673310">
        <ele>1760.1</ele>
        <time>2021-08-13T16:43:43Z</time>
      </trkpt>
      <trkpt lat="42.5840640" lon="1.4673490">
        <ele>1759.8</ele>
        <time>2021-08-13T16:43:46Z</time>
      </trkpt>
      <trkpt lat="42.5840760" lon="1.4673520">
        <ele>1759.6</ele>
        <time>2021-08-13T16:43:48Z</time>
      </trkpt>
      <trkpt lat="42.5840800" lon="1.4673600">
        <ele>1759.5</ele>
        <time>2021-08-13T16:43:49Z</time>
      </trkpt>
      <trkpt lat="42.5840730" lon="1.4674230">
        <ele>1758.6</ele>
        <time>2021-08-13T16:43:53Z</time>
      </trkpt>
      <trkpt lat="42.5840600" lon="1.4675810">
        <ele>1755.4</ele>
        <time>2021-08-13T16:44:05Z</time>
      </trkpt>
      <trkpt lat="42.5840250" lon="1.4677130">
        <ele>1751.9</ele>
        <time>2021-08-13T16:44:23Z</time>
      </trkpt>
      <trkpt lat="42.5839700" lon="1.4676800">
        <ele>1749.9</ele>
        <time>2021-08-13T16:44:38Z</time>
      </trkpt>
      <trkpt lat="42.5838520" lon="1.4676860">
        <ele>1746.4</ele>
        <time>2021-08-13T16:45:06Z</time>
      </trkpt>
      <trkpt lat="42.5838250" lon="1.4677870">
        <ele>1744.6</ele>
        <time>2021-08-13T16:45:22Z</time>
      </trkpt>
      <trkpt lat="42.5837830" lon="1.4679520">
        <ele>1742.8</ele>
        <time>2021-08-13T16:45:46Z</time>
      </trkpt>
      <trkpt lat="42.5838070" lon="1.4679750">
        <ele>1742.6</ele>
        <time>2021-08-13T16:45:49Z</time>
      </trkpt>
      <trkpt lat="42.5838140" lon="1.4679920">
        <ele>1742.6</ele>
        <time>2021-08-13T16:45:50Z</time>
      </trkpt>
      <trkpt lat="42.5838200" lon="1.4680030">
        <ele>1742.5</ele>
        <time>2021-08-13T16:45:51Z</time>
      </trkpt>
      <trkpt lat="42.5838500" lon="1.4680370">
        <ele>1742.4</ele>
        <time>2021-08-13T16:45:55Z</time>
      </trkpt>
      <trkpt lat="42.5838610" lon="1.4680610">
        <ele>1742.5</ele>
        <time>2021-08-13T16:45:57Z</time>
      </trkpt>
      <trkpt lat="42.5838700" lon="1.4680690">
        <ele>1742.5</ele>
        <time>2021-08-13T16:45:59Z</time>
      </trkpt>
      <trkpt lat="42.5838720" lon="1.4680760">
        <ele>1742.5</ele>
        <time>2021-08-13T16:46:00Z</time>
      </trkpt>
      <trkpt lat="42.5838760" lon="1.4680930">
        <ele>1742.5</ele>
        <time>2021-08-13T16:46:02Z</time>
      </trkpt>
      <trkpt lat="42.5838810" lon="1.4681040">
        <ele>1742.5</ele>
        <time>2021-08-13T16:46:03Z</time>
      </trkpt>
      <trkpt lat="42.5838830" lon="1.4681050">
        <ele>1742.6</ele>
        <time>2021-08-13T16:46:04Z</time>
      </trkpt>
      <trkpt lat="42.5838870" lon="1.4681050">
        <ele>1742.6</ele>
        <time>2021-08-13T16:46:05Z</time>
      </trkpt>
      <trkpt lat="42.5838890" lon="1.4681510">
        <ele>1742.7</ele>
        <time>2021-08-13T16:46:12Z</time>
      </trkpt>
      <trkpt lat="42.5838840" lon="1.4681870">
        <ele>1743.0</ele>
        <time>2021-08-13T16:46:15Z</time>
      </trkpt>
      <trkpt lat="42.5838550" lon="1.4682780">
        <ele>1743.7</ele>
        <time>2021-08-13T16:46:25Z</time>
      </trkpt>
      <trkpt lat="42.5838490" lon="1.4682830">
        <ele>1743.8</ele>
        <time>2021-08-13T16:46:27Z</time>
      </trkpt>
      <trkpt lat="42.5838570" lon="1.4683470">
        <ele>1744.5</ele>
        <time>2021-08-13T16:46:33Z</time>
      </trkpt>
      <trkpt lat="42.5838540" lon="1.4684130">
        <ele>1745.2</ele>
        <time>2021-08-13T16:46:37Z</time>
      </trkpt>
      <trkpt lat="42.5838340" lon="1.4685030">
        <ele>1746.0</ele>
        <time>2021-08-13T16:46:43Z</time>
      </trkpt>
      <trkpt lat="42.5838090" lon="1.4685880">
        <ele>1746.6</ele>
        <time>2021-08-13T16:46:49Z</time>
      </trkpt>
      <trkpt lat="42.5838010" lon="1.4686510">
        <ele>1746.9</ele>
        <time>2021-08-13T16:46:53Z</time>
      </trkpt>
      <trkpt lat="42.5838090" lon="1.4687700">
        <ele>1747.2</ele>
        <time>2021-08-13T16:47:04Z</time>
      </trkpt>
      <trkpt lat="42.5837970" lon="1.4688260">
        <ele>1747.3</ele>
        <time>2021-08-13T16:47:11Z</time>
      </trkpt>
      <trkpt lat="42.5837750" lon="1.4688870">
        <ele>1747.3</ele>
        <time>2021-08-13T16:47:16Z</time>
      </trkpt>
      <trkpt lat="42.5837410" lon="1.4689590">
        <ele>1747.3</ele>
        <time>2021-08-13T16:47:21Z</time>
      </trkpt>
      <trkpt lat="42.5837040" lon="1.4690280">
        <ele>1747.3</ele>
        <time>2021-08-13T16:47:28Z</time>
      </trkpt>
      <trkpt lat="42.5836430" lon="1.4691530">
        <ele>1747.5</ele>
        <time>2021-08-13T16:47:49Z</time>
      </trkpt>
      <trkpt lat="42.5836370" lon="1.4691520">
        <ele>1747.5</ele>
        <time>2021-08-13T16:47:51Z</time>
      </trkpt>
      <trkpt lat="42.5836320" lon="1.4691530">
        <ele>1747.5</ele>
        <time>2021-08-13T16:47:52Z</time>
      </trkpt>
      <trkpt lat="42.5836290" lon="1.4691560">
        <ele>1747.6</ele>
        <time>2021-08-13T16:47:53Z</time>
      </trkpt>
      <trkpt lat="42.5836310" lon="1.4691620">
        <ele>1747.6</ele>
        <time>2021-08-13T16:47:55Z</time>
      </trkpt>
      <trkpt lat="42.5835460" lon="1.4692700">
        <ele>1747.9</ele>
        <time>2021-08-13T16:48:12Z</time>
      </trkpt>
      <trkpt lat="42.5834000" lon="1.4693760">
        <ele>1749.1</ele>
        <time>2021-08-13T16:48:30Z</time>
      </trkpt>
      <trkpt lat="42.5833760" lon="1.4693850">
        <ele>1749.4</ele>
        <time>2021-08-13T16:48:32Z</time>
      </trkpt>
      <trkpt lat="42.5833450" lon="1.4694710">
        <ele>1750.1</ele>
        <time>2021-08-13T16:48:41Z</time>
      </trkpt>
      <trkpt lat="42.5833170" lon="1.4697170">
        <ele>1750.6</ele>
        <time>2021-08-13T16:48:59Z</time>
      </trkpt>
      <trkpt lat="42.5833050" lon="1.4697640">
        <ele>1750.5</ele>
        <time>2021-08-13T16:49:05Z</time>
      </trkpt>
      <trkpt lat="42.5833030" lon="1.4697760">
        <ele>1750.5</ele>
        <time>2021-08-13T16:49:07Z</time>
      </trkpt>
      <trkpt lat="42.5833340" lon="1.4698540">
        <ele>1750.8</ele>
        <time>2021-08-13T16:49:29Z</time>
      </trkpt>
      <trkpt lat="42.5833010" lon="1.4698940">
        <ele>1751.5</ele>
        <time>2021-08-13T16:49:38Z</time>
      </trkpt>
      <trkpt lat="42.5832810" lon="1.4701300">
        <ele>1754.3</ele>
        <time>2021-08-13T16:50:04Z</time>
      </trkpt>
      <trkpt lat="42.5832910" lon="1.4702010">
        <ele>1755.1</ele>
        <time>2021-08-13T16:50:12Z</time>
      </trkpt>
      <trkpt lat="42.5833200" lon="1.4704240">
        <ele>1757.9</ele>
        <time>2021-08-13T16:50:34Z</time>
      </trkpt>
      <trkpt lat="42.5833050" lon="1.4705870">
        <ele>1760.2</ele>
        <time>2021-08-13T16:50:47Z</time>
      </trkpt>
      <trkpt lat="42.5833040" lon="1.4706510">
        <ele>1761.2</ele>
        <time>2021-08-13T16:50:55Z</time>
      </trkpt>
      <trkpt lat="42.5832720" lon="1.4706790">
        <ele>1762.1</ele>
        <time>2021-08-13T16:51:08Z</time>
      </trkpt>
      <trkpt lat="42.5832020" lon="1.4709190">
        <ele>1766.3</ele>
        <time>2021-08-13T16:51:34Z</time>
      </trkpt>
      <trkpt lat="42.5831140" lon="1.4711410">
        <ele>1769.8</ele>
        <time>2021-08-13T16:52:03Z</time>
      </trkpt>
      <trkpt lat="42.5830560" lon="1.4713130">
        <ele>1771.3</ele>
        <time>2021-08-13T16:52:33Z</time>
      </trkpt>
      <trkpt lat="42.5829770" lon="1.4715010">
        <ele>1772.4</ele>
        <time>2021-08-13T16:52:53Z</time>
      </trkpt>
      <trkpt lat="42.5829540" lon="1.4715540">
        <ele>1772.8</ele>
        <time>2021-08-13T16:52:59Z</time>
      </trkpt>
      <trkpt lat="42.5829280" lon="1.4716650">
        <ele>1773.7</ele>
        <time>2021-08-13T16:53:07Z</time>
      </trkpt>
      <trkpt lat="42.5828990" lon="1.4718300">
        <ele>1775.7</ele>
        <time>2021-08-13T16:53:25Z</time>
      </trkpt>
      <trkpt lat="42.5828810" lon="1.4718440">
        <ele>1776.1</ele>
        <time>2021-08-13T16:53:28Z</time>
      </trkpt>
      <trkpt lat="42.5828630" lon="1.4718630">
        <ele>1776.5</ele>
        <time>2021-08-13T16:53:31Z</time>
      </trkpt>
      <trkpt lat="42.5828670" lon="1.4718700">
        <ele>1776.6</ele>
        <time>2021-08-13T16:53:32Z</time>
      </trkpt>
      <trkpt lat="42.5828710" lon="1.4718740">
        <ele>1776.7</ele>
        <time>2021-08-13T16:53:33Z</time>
      </trkpt>
      <trkpt lat="42.5828730" lon="1.4718750">
        <ele>1776.7</ele>
        <time>2021-08-13T16:53:34Z</time>
      </trkpt>
      <trkpt lat="42.5828760" lon="1.4718620">
        <ele>1777.0</ele>
        <time>2021-08-13T16:53:36Z</time>
      </trkpt>
      <trkpt lat="42.5828750" lon="1.4718530">
        <ele>1777.1</ele>
        <time>2021-08-13T16:53:37Z</time>
      </trkpt>
      <trkpt lat="42.5828850" lon="1.4718770">
        <ele>1777.5</ele>
        <time>2021-08-13T16:53:38Z</time>
      </trkpt>
      <trkpt lat="42.5828870" lon="1.4718970">
        <ele>1777.8</ele>
        <time>2021-08-13T16:53:40Z</time>
      </trkpt>
      <trkpt lat="42.5829060" lon="1.4719610">
        <ele>1779.0</ele>
        <time>2021-08-13T16:53:47Z</time>
      </trkpt>
      <trkpt lat="42.5829020" lon="1.4719750">
        <ele>1779.3</ele>
        <time>2021-08-13T16:53:49Z</time>
      </trkpt>
      <trkpt lat="42.5829280" lon="1.4720280">
        <ele>1780.4</ele>
        <time>2021-08-13T16:53:59Z</time>
      </trkpt>
      <trkpt lat="42.5828920" lon="1.4720740">
        <ele>1781.5</ele>
        <time>2021-08-13T16:54:06Z</time>
      </trkpt>
      <trkpt lat="42.5828900" lon="1.4721010">
        <ele>1782.0</ele>
        <time>2021-08-13T16:54:09Z</time>
      </trkpt>
      <trkpt lat="42.5828840" lon="1.4721320">
        <ele>1782.5</ele>
        <time>2021-08-13T16:54:12Z</time>
      </trkpt>
      <trkpt lat="42.5828920" lon="1.4721500">
        <ele>1782.9</ele>
        <time>2021-08-13T16:54:15Z</time>
      </trkpt>
      <trkpt lat="42.5828960" lon="1.4721660">
        <ele>1783.1</ele>
        <time>2021-08-13T16:54:17Z</time>
      </trkpt>
      <trkpt lat="42.5828970" lon="1.4721670">
        <ele>1783.2</ele>
        <time>2021-08-13T16:54:20Z</time>
      </trkpt>
      <trkpt lat="42.5829010" lon="1.4721460">
        <ele>1783.5</ele>
        <time>2021-08-13T16:54:24Z</time>
      </trkpt>
      <trkpt lat="42.5829030" lon="1.4720960">
        <ele>1784.2</ele>
        <time>2021-08-13T16:54:28Z</time>
      </trkpt>
      <trkpt lat="42.5829350" lon="1.4720460">
        <ele>1785.2</ele>
        <time>2021-08-13T16:54:35Z</time>
      </trkpt>
      <trkpt lat="42.5829920" lon="1.4720320">
        <ele>1786.3</ele>
        <time>2021-08-13T16:54:41Z</time>
      </trkpt>
      <trkpt lat="42.5831170" lon="1.4719040">
        <ele>1789.6</ele>
        <time>2021-08-13T16:55:10Z</time>
      </trkpt>
      <trkpt lat="42.5832340" lon="1.4719700">
        <ele>1792.1</ele>
        <time>2021-08-13T16:55:38Z</time>
      </trkpt>
      <trkpt lat="42.5831880" lon="1.4720900">
        <ele>1793.9</ele>
        <time>2021-08-13T16:55:50Z</time>
      </trkpt>
      <trkpt lat="42.5832040" lon="1.4722260">
        <ele>1795.0</ele>
        <time>2021-08-13T16:56:12Z</time>
      </trkpt>
      <trkpt lat="42.5831680" lon="1.4721440">
        <ele>1796.4</ele>
        <time>2021-08-13T17:01:10Z</time>
      </trkpt>
      <trkpt lat="42.5831700" lon="1.4721280">
        <ele>1796.6</ele>
        <time>2021-08-13T17:01:12Z</time>
      </trkpt>
      <trkpt lat="42.5831690" lon="1.4721100">
        <ele>1796.9</ele>
        <time>2021-08-13T17:01:13Z</time>
      </trkpt>
      <trkpt lat="42.5831860" lon="1.4720580">
        <ele>1797.6</ele>
        <time>2021-08-13T17:01:18Z</time>
      </trkpt>
      <trkpt lat="42.5832370" lon="1.4720500">
        <ele>1798.5</ele>
        <time>2021-08-13T17:01:24Z</time>
      </trkpt>
      <trkpt lat="42.5832450" lon="1.4720390">
        <ele>1798.6</ele>
        <time>2021-08-13T17:01:26Z</time>
      </trkpt>
      <trkpt lat="42.5832550" lon="1.4720240">
        <ele>1798.9</ele>
        <time>2021-08-13T17:01:30Z</time>
      </trkpt>
      <trkpt lat="42.5832680" lon="1.4720110">
        <ele>1799.1</ele>
        <time>2021-08-13T17:01:33Z</time>
      </trkpt>
      <trkpt lat="42.5832850" lon="1.4719960">
        <ele>1799.4</ele>
        <time>2021-08-13T17:01:37Z</time>
      </trkpt>
      <trkpt lat="42.5832950" lon="1.4719740">
        <ele>1799.6</ele>
        <time>2021-08-13T17:01:40Z</time>
      </trkpt>
      <trkpt lat="42.5833030" lon="1.4719710">
        <ele>1799.7</ele>
        <time>2021-08-13T17:01:41Z</time>
      </trkpt>
      <trkpt lat="42.5833090" lon="1.4719630">
        <ele>1799.8</ele>
        <time>2021-08-13T17:01:42Z</time>
      </trkpt>
      <trkpt lat="42.5833230" lon="1.4719380">
        <ele>1800.1</ele>
        <time>2021-08-13T17:01:45Z</time>
      </trkpt>
      <trkpt lat="42.5833320" lon="1.4718970">
        <ele>1800.5</ele>
        <time>2021-08-13T17:01:48Z</time>
      </trkpt>
      <trkpt lat="42.5833430" lon="1.4718590">
        <ele>1800.9</ele>
        <time>2021-08-13T17:01:51Z</time>
      </trkpt>
      <trkpt lat="42.5833650" lon="1.4718460">
        <ele>1801.2</ele>
        <time>2021-08-13T17:01:54Z</time>
      </trkpt>
      <trkpt lat="42.5833740" lon="1.4718420">
        <ele>1801.3</ele>
        <time>2021-08-13T17:01:55Z</time>
      </trkpt>
      <trkpt lat="42.5833770" lon="1.4718320">
        <ele>1801.4</ele>
        <time>2021-08-13T17:01:56Z</time>
      </trkpt>
      <trkpt lat="42.5834280" lon="1.4718010">
        <ele>1802.1</ele>
        <time>2021-08-13T17:02:01Z</time>
      </trkpt>
      <trkpt lat="42.5834800" lon="1.4717620">
        <ele>1803.1</ele>
        <time>2021-08-13T17:02:07Z</time>
      </trkpt>
      <trkpt lat="42.5834900" lon="1.4717610">
        <ele>1803.2</ele>
        <time>2021-08-13T17:02:08Z</time>
      </trkpt>
      <trkpt lat="42.5834990" lon="1.4717620">
        <ele>1803.4</ele>
        <time>2021-08-13T17:02:09Z</time>
      </trkpt>
      <trkpt lat="42.5836070" lon="1.4717240">
        <ele>1805.6</ele>
        <time>2021-08-13T17:02:25Z</time>
      </trkpt>
      <trkpt lat="42.5836930" lon="1.4716470">
        <ele>1807.9</ele>
        <time>2021-08-13T17:02:38Z</time>
      </trkpt>
      <trkpt lat="42.5837650" lon="1.4715760">
        <ele>1809.9</ele>
        <time>2021-08-13T17:02:52Z</time>
      </trkpt>
      <trkpt lat="42.5837960" lon="1.4715560">
        <ele>1810.7</ele>
        <time>2021-08-13T17:02:57Z</time>
      </trkpt>
      <trkpt lat="42.5838050" lon="1.4715500">
        <ele>1810.9</ele>
        <time>2021-08-13T17:02:58Z</time>
      </trkpt>
      <trkpt lat="42.5838120" lon="1.4715450">
        <ele>1811.1</ele>
        <time>2021-08-13T17:02:59Z</time>
      </trkpt>
      <trkpt lat="42.5838160" lon="1.4715380">
        <ele>1811.2</ele>
        <time>2021-08-13T17:03:00Z</time>
      </trkpt>
      <trkpt lat="42.5839140" lon="1.4713200">
        <ele>1815.6</ele>
        <time>2021-08-13T17:03:23Z</time>
      </trkpt>
      <trkpt lat="42.5840500" lon="1.4711620">
        <ele>1819.6</ele>
        <time>2021-08-13T17:03:54Z</time>
      </trkpt>
      <trkpt lat="42.5840590" lon="1.4711590">
        <ele>1819.8</ele>
        <time>2021-08-13T17:03:55Z</time>
      </trkpt>
      <trkpt lat="42.5840720" lon="1.4711480">
        <ele>1820.1</ele>
        <time>2021-08-13T17:03:57Z</time>
      </trkpt>
      <trkpt lat="42.5841230" lon="1.4710760">
        <ele>1821.4</ele>
        <time>2021-08-13T17:04:08Z</time>
      </trkpt>
      <trkpt lat="42.5841670" lon="1.4709640">
        <ele>1822.9</ele>
        <time>2021-08-13T17:04:20Z</time>
      </trkpt>
      <trkpt lat="42.5841840" lon="1.4708720">
        <ele>1823.8</ele>
        <time>2021-08-13T17:04:28Z</time>
      </trkpt>
      <trkpt lat="42.5842880" lon="1.4707060">
        <ele>1826.3</ele>
        <time>2021-08-13T17:04:52Z</time>
      </trkpt>
      <trkpt lat="42.5843630" lon="1.4706820">
        <ele>1827.5</ele>
        <time>2021-08-13T17:05:04Z</time>
      </trkpt>
      <trkpt lat="42.5844500" lon="1.4707080">
        <ele>1829.2</ele>
        <time>2021-08-13T17:05:19Z</time>
      </trkpt>
      <trkpt lat="42.5844630" lon="1.4707100">
        <ele>1829.3</ele>
        <time>2021-08-13T17:05:22Z</time>
      </trkpt>
      <trkpt lat="42.5844790" lon="1.4707220">
        <ele>1829.5</ele>
        <time>2021-08-13T17:05:28Z</time>
      </trkpt>
      <trkpt lat="42.5845230" lon="1.4707340">
        <ele>1829.8</ele>
        <time>2021-08-13T17:05:48Z</time>
      </trkpt>
      <trkpt lat="42.5845380" lon="1.4707670">
        <ele>1830.1</ele>
        <time>2021-08-13T17:06:01Z</time>
      </trkpt>
      <trkpt lat="42.5845310" lon="1.4707710">
        <ele>1830.1</ele>
        <time>2021-08-13T17:06:09Z</time>
      </trkpt>
      <trkpt lat="42.5846160" lon="1.4707700">
        <ele>1830.6</ele>
        <time>2021-08-13T17:06:23Z</time>
      </trkpt>
      <trkpt lat="42.5847100" lon="1.4707230">
        <ele>1831.1</ele>
        <time>2021-08-13T17:06:37Z</time>
      </trkpt>
      <trkpt lat="42.5847430" lon="1.4707000">
        <ele>1831.2</ele>
        <time>2021-08-13T17:06:41Z</time>
      </trkpt>
      <trkpt lat="42.5847970" lon="1.4706470">
        <ele>1831.3</ele>
        <time>2021-08-13T17:06:49Z</time>
      </trkpt>
      <trkpt lat="42.5848360" lon="1.4706120">
        <ele>1831.4</ele>
        <time>2021-08-13T17:06:53Z</time>
      </trkpt>
      <trkpt lat="42.5848890" lon="1.4705220">
        <ele>1831.5</ele>
        <time>2021-08-13T17:07:01Z</time>
      </trkpt>
      <trkpt lat="42.5849070" lon="1.4704840">
        <ele>1831.5</ele>
        <time>2021-08-13T17:07:04Z</time>
      </trkpt>
      <trkpt lat="42.5849290" lon="1.4703790">
        <ele>1831.4</ele>
        <time>2021-08-13T17:07:11Z</time>
      </trkpt>
      <trkpt lat="42.5849300" lon="1.4703540">
        <ele>1831.4</ele>
        <time>2021-08-13T17:07:12Z</time>
      </trkpt>
      <trkpt lat="42.5849520" lon="1.4703040">
        <ele>1831.4</ele>
        <time>2021-08-13T17:07:16Z</time>
      </trkpt>
      <trkpt lat="42.5849620" lon="1.4702670">
        <ele>1831.3</ele>
        <time>2021-08-13T17:07:18Z</time>
      </trkpt>
      <trkpt lat="42.5849690" lon="1.4702390">
        <ele>1831.3</ele>
        <time>2021-08-13T17:07:20Z</time>
      </trkpt>
      <trkpt lat="42.5849750" lon="1.4702270">
        <ele>1831.3</ele>
        <time>2021-08-13T17:07:21Z</time>
      </trkpt>
      <trkpt lat="42.5850140" lon="1.4701680">
        <ele>1831.4</ele>
        <time>2021-08-13T17:07:26Z</time>
      </trkpt>
      <trkpt lat="42.5850460" lon="1.4701140">
        <ele>1831.4</ele>
        <time>2021-08-13T17:07:30Z</time>
      </trkpt>
      <trkpt lat="42.5850920" lon="1.4699990">
        <ele>1831.5</ele>
        <time>2021-08-13T17:07:38Z</time>
      </trkpt>
      <trkpt lat="42.5852410" lon="1.4698270">
        <ele>1831.8</ele>
        <time>2021-08-13T17:07:55Z</time>
      </trkpt>
      <trkpt lat="42.5852800" lon="1.4697100">
        <ele>1832.1</ele>
        <time>2021-08-13T17:08:05Z</time>
      </trkpt>
      <trkpt lat="42.5853210" lon="1.4696320">
        <ele>1832.2</ele>
        <time>2021-08-13T17:08:12Z</time>
      </trkpt>
      <trkpt lat="42.5853400" lon="1.4695930">
        <ele>1832.3</ele>
        <time>2021-08-13T17:08:17Z</time>
      </trkpt>
      <trkpt lat="42.5853530" lon="1.4695690">
        <ele>1832.4</ele>
        <time>2021-08-13T17:08:34Z</time>
      </trkpt>
      <trkpt lat="42.5853410" lon="1.4695010">
        <ele>1832.5</ele>
        <time>2021-08-13T17:08:39Z</time>
      </trkpt>
      <trkpt lat="42.5853420" lon="1.4694670">
        <ele>1832.6</ele>
        <time>2021-08-13T17:08:41Z</time>
      </trkpt>
      <trkpt lat="42.5853520" lon="1.4693340">
        <ele>1832.8</ele>
        <time>2021-08-13T17:08:50Z</time>
      </trkpt>
      <trkpt lat="42.5853450" lon="1.4694830">
        <ele>1833.0</ele>
        <time>2021-08-13T17:09:08Z</time>
      </trkpt>
      <trkpt lat="42.5853440" lon="1.4694960">
        <ele>1833.0</ele>
        <time>2021-08-13T17:09:09Z</time>
      </trkpt>
      <trkpt lat="42.5853110" lon="1.4695640">
        <ele>1833.2</ele>
        <time>2021-08-13T17:09:21Z</time>
      </trkpt>
      <trkpt lat="42.5853270" lon="1.4695540">
        <ele>1833.3</ele>
        <time>2021-08-13T17:09:39Z</time>
      </trkpt>
      <trkpt lat="42.5853560" lon="1.4693500">
        <ele>1834.2</ele>
        <time>2021-08-13T17:10:10Z</time>
      </trkpt>
      <trkpt lat="42.5854070" lon="1.4691830">
        <ele>1835.8</ele>
        <time>2021-08-13T17:10:20Z</time>
      </trkpt>
      <trkpt lat="42.5854100" lon="1.4691670">
        <ele>1836.0</ele>
        <time>2021-08-13T17:10:21Z</time>
      </trkpt>
      <trkpt lat="42.5854210" lon="1.4691300">
        <ele>1836.5</ele>
        <time>2021-08-13T17:10:24Z</time>
      </trkpt>
      <trkpt lat="42.5854320" lon="1.4690950">
        <ele>1837.0</ele>
        <time>2021-08-13T17:10:27Z</time>
      </trkpt>
      <trkpt lat="42.5854320" lon="1.4690630">
        <ele>1837.4</ele>
        <time>2021-08-13T17:10:30Z</time>
      </trkpt>
      <trkpt lat="42.5854340" lon="1.4690520">
        <ele>1837.6</ele>
        <time>2021-08-13T17:10:31Z</time>
      </trkpt>
      <trkpt lat="42.5854390" lon="1.4690360">
        <ele>1837.8</ele>
        <time>2021-08-13T17:10:33Z</time>
      </trkpt>
      <trkpt lat="42.5854780" lon="1.4689050">
        <ele>1839.9</ele>
        <time>2021-08-13T17:10:50Z</time>
      </trkpt>
      <trkpt lat="42.5854710" lon="1.4688250">
        <ele>1841.1</ele>
        <time>2021-08-13T17:10:59Z</time>
      </trkpt>
      <trkpt lat="42.5854700" lon="1.4688170">
        <ele>1841.2</ele>
        <time>2021-08-13T17:11:00Z</time>
      </trkpt>
      <trkpt lat="42.5854690" lon="1.4688100">
        <ele>1841.3</ele>
        <time>2021-08-13T17:11:01Z</time>
      </trkpt>
      <trkpt lat="42.5854630" lon="1.4687630">
        <ele>1842.1</ele>
        <time>2021-08-13T17:11:06Z</time>
      </trkpt>
      <trkpt lat="42.5854750" lon="1.4687200">
        <ele>1842.9</ele>
        <time>2021-08-13T17:11:13Z</time>
      </trkpt>
      <trkpt lat="42.5854780" lon="1.4687130">
        <ele>1843.0</ele>
        <time>2021-08-13T17:11:14Z</time>
      </trkpt>
      <trkpt lat="42.5854820" lon="1.4687030">
        <ele>1843.2</ele>
        <time>2021-08-13T17:11:15Z</time>
      </trkpt>
      <trkpt lat="42.5854850" lon="1.4685610">
        <ele>1845.6</ele>
        <time>2021-08-13T17:11:30Z</time>
      </trkpt>
      <trkpt lat="42.5854850" lon="1.4685530">
        <ele>1845.8</ele>
        <time>2021-08-13T17:11:31Z</time>
      </trkpt>
      <trkpt lat="42.5854790" lon="1.4685320">
        <ele>1846.1</ele>
        <time>2021-08-13T17:11:32Z</time>
      </trkpt>
      <trkpt lat="42.5854700" lon="1.4685120">
        <ele>1846.5</ele>
        <time>2021-08-13T17:11:33Z</time>
      </trkpt>
      <trkpt lat="42.5854660" lon="1.4685020">
        <ele>1846.7</ele>
        <time>2021-08-13T17:11:34Z</time>
      </trkpt>
      <trkpt lat="42.5854560" lon="1.4684720">
        <ele>1847.3</ele>
        <time>2021-08-13T17:11:36Z</time>
      </trkpt>
      <trkpt lat="42.5854430" lon="1.4684420">
        <ele>1847.9</ele>
        <time>2021-08-13T17:11:39Z</time>
      </trkpt>
      <trkpt lat="42.5854310" lon="1.4684000">
        <ele>1848.7</ele>
        <time>2021-08-13T17:11:44Z</time>
      </trkpt>
      <trkpt lat="42.5854230" lon="1.4682760">
        <ele>1850.8</ele>
        <time>2021-08-13T17:11:55Z</time>
      </trkpt>
      <trkpt lat="42.5854200" lon="1.4682620">
        <ele>1851.1</ele>
        <time>2021-08-13T17:11:56Z</time>
      </trkpt>
      <trkpt lat="42.5854030" lon="1.4682070">
        <ele>1852.1</ele>
        <time>2021-08-13T17:12:00Z</time>
      </trkpt>
      <trkpt lat="42.5853770" lon="1.4681200">
        <ele>1853.9</ele>
        <time>2021-08-13T17:12:06Z</time>
      </trkpt>
      <trkpt lat="42.5853990" lon="1.4681200">
        <ele>1854.4</ele>
        <time>2021-08-13T17:12:14Z</time>
      </trkpt>
      <trkpt lat="42.5854250" lon="1.4682230">
        <ele>1856.5</ele>
        <time>2021-08-13T17:12:21Z</time>
      </trkpt>
      <trkpt lat="42.5854260" lon="1.4682420">
        <ele>1856.9</ele>
        <time>2021-08-13T17:12:22Z</time>
      </trkpt>
      <trkpt lat="42.5854340" lon="1.4683160">
        <ele>1858.5</ele>
        <time>2021-08-13T17:12:26Z</time>
      </trkpt>
      <trkpt lat="42.5854390" lon="1.4683340">
        <ele>1858.9</ele>
        <time>2021-08-13T17:12:27Z</time>
      </trkpt>
      <trkpt lat="42.5854600" lon="1.4683710">
        <ele>1859.8</ele>
        <time>2021-08-13T17:12:30Z</time>
      </trkpt>
      <trkpt lat="42.5856440" lon="1.4683380">
        <ele>1865.0</ele>
        <time>2021-08-13T17:12:57Z</time>
      </trkpt>
      <trkpt lat="42.5856940" lon="1.4683110">
        <ele>1866.5</ele>
        <time>2021-08-13T17:13:03Z</time>
      </trkpt>
      <trkpt lat="42.5857130" lon="1.4682810">
        <ele>1867.3</ele>
        <time>2021-08-13T17:13:08Z</time>
      </trkpt>
      <trkpt lat="42.5857230" lon="1.4682620">
        <ele>1867.8</ele>
        <time>2021-08-13T17:13:13Z</time>
      </trkpt>
      <trkpt lat="42.5857340" lon="1.4682530">
        <ele>1868.1</ele>
        <time>2021-08-13T17:13:15Z</time>
      </trkpt>
      <trkpt lat="42.5857400" lon="1.4682530">
        <ele>1868.3</ele>
        <time>2021-08-13T17:13:16Z</time>
      </trkpt>
      <trkpt lat="42.5857680" lon="1.4682220">
        <ele>1869.2</ele>
        <time>2021-08-13T17:13:27Z</time>
      </trkpt>
      <trkpt lat="42.5857800" lon="1.4682040">
        <ele>1869.7</ele>
        <time>2021-08-13T17:13:30Z</time>
      </trkpt>
      <trkpt lat="42.5857920" lon="1.4681050">
        <ele>1871.7</ele>
        <time>2021-08-13T17:13:42Z</time>
      </trkpt>
      <trkpt lat="42.5858010" lon="1.4680930">
        <ele>1872.1</ele>
        <time>2021-08-13T17:13:45Z</time>
      </trkpt>
      <trkpt lat="42.5858060" lon="1.4680850">
        <ele>1872.3</ele>
        <time>2021-08-13T17:13:46Z</time>
      </trkpt>
      <trkpt lat="42.5858080" lon="1.4680730">
        <ele>1872.5</ele>
        <time>2021-08-13T17:13:47Z</time>
      </trkpt>
      <trkpt lat="42.5858110" lon="1.4680400">
        <ele>1873.2</ele>
        <time>2021-08-13T17:13:52Z</time>
      </trkpt>
      <trkpt lat="42.5858540" lon="1.4679260">
        <ele>1875.8</ele>
        <time>2021-08-13T17:14:08Z</time>
      </trkpt>
      <trkpt lat="42.5859110" lon="1.4678320">
        <ele>1878.1</ele>
        <time>2021-08-13T17:14:27Z</time>
      </trkpt>
      <trkpt lat="42.5859140" lon="1.4678080">
        <ele>1878.5</ele>
        <time>2021-08-13T17:14:32Z</time>
      </trkpt>
      <trkpt lat="42.5859450" lon="1.4677390">
        <ele>1879.9</ele>
        <time>2021-08-13T17:14:53Z</time>
      </trkpt>
      <trkpt lat="42.5860120" lon="1.4676170">
        <ele>1882.1</ele>
        <time>2021-08-13T17:15:12Z</time>
      </trkpt>
      <trkpt lat="42.5861500" lon="1.4674590">
        <ele>1884.8</ele>
        <time>2021-08-13T17:15:39Z</time>
      </trkpt>
      <trkpt lat="42.5862260" lon="1.4674580">
        <ele>1885.7</ele>
        <time>2021-08-13T17:15:56Z</time>
      </trkpt>
      <trkpt lat="42.5862460" lon="1.4674990">
        <ele>1886.2</ele>
        <time>2021-08-13T17:16:00Z</time>
      </trkpt>
      <trkpt lat="42.5862610" lon="1.4675080">
        <ele>1886.4</ele>
        <time>2021-08-13T17:16:02Z</time>
      </trkpt>
      <trkpt lat="42.5862740" lon="1.4675200">
        <ele>1886.5</ele>
        <time>2021-08-13T17:16:04Z</time>
      </trkpt>
      <trkpt lat="42.5862830" lon="1.4675250">
        <ele>1886.6</ele>
        <time>2021-08-13T17:16:05Z</time>
      </trkpt>
      <trkpt lat="42.5863120" lon="1.4675590">
        <ele>1887.1</ele>
        <time>2021-08-13T17:16:08Z</time>
      </trkpt>
      <trkpt lat="42.5863190" lon="1.4675800">
        <ele>1887.2</ele>
        <time>2021-08-13T17:16:09Z</time>
      </trkpt>
      <trkpt lat="42.5863270" lon="1.4675970">
        <ele>1887.4</ele>
        <time>2021-08-13T17:16:10Z</time>
      </trkpt>
      <trkpt lat="42.5863350" lon="1.4676120">
        <ele>1887.5</ele>
        <time>2021-08-13T17:16:11Z</time>
      </trkpt>
      <trkpt lat="42.5863470" lon="1.4676180">
        <ele>1887.7</ele>
        <time>2021-08-13T17:16:12Z</time>
      </trkpt>
      <trkpt lat="42.5863520" lon="1.4676200">
        <ele>1887.7</ele>
        <time>2021-08-13T17:16:13Z</time>
      </trkpt>
      <trkpt lat="42.5863640" lon="1.4676200">
        <ele>1887.8</ele>
        <time>2021-08-13T17:16:16Z</time>
      </trkpt>
      <trkpt lat="42.5863700" lon="1.4676250">
        <ele>1887.9</ele>
        <time>2021-08-13T17:16:17Z</time>
      </trkpt>
      <trkpt lat="42.5863740" lon="1.4676280">
        <ele>1888.0</ele>
        <time>2021-08-13T17:16:18Z</time>
      </trkpt>
      <trkpt lat="42.5863840" lon="1.4676430">
        <ele>1888.1</ele>
        <time>2021-08-13T17:16:23Z</time>
      </trkpt>
      <trkpt lat="42.5863890" lon="1.4676460">
        <ele>1888.3</ele>
        <time>2021-08-13T17:16:24Z</time>
      </trkpt>
      <trkpt lat="42.5864040" lon="1.4676610">
        <ele>1888.6</ele>
        <time>2021-08-13T17:16:31Z</time>
      </trkpt>
      <trkpt lat="42.5865580" lon="1.4675160">
        <ele>1891.5</ele>
        <time>2021-08-13T17:16:53Z</time>
      </trkpt>
      <trkpt lat="42.5866250" lon="1.4674350">
        <ele>1893.2</ele>
        <time>2021-08-13T17:17:00Z</time>
      </trkpt>
      <trkpt lat="42.5866780" lon="1.4674410">
        <ele>1894.2</ele>
        <time>2021-08-13T17:17:05Z</time>
      </trkpt>
      <trkpt lat="42.5867140" lon="1.4674450">
        <ele>1894.9</ele>
        <time>2021-08-13T17:17:10Z</time>
      </trkpt>
      <trkpt lat="42.5867400" lon="1.4674420">
        <ele>1894.6</ele>
        <time>2021-08-13T17:17:14Z</time>
      </trkpt>
      <trkpt lat="42.5867850" lon="1.4674380">
        <ele>1894.1</ele>
        <time>2021-08-13T17:17:18Z</time>
      </trkpt>
      <trkpt lat="42.5867960" lon="1.4674370">
        <ele>1894.0</ele>
        <time>2021-08-13T17:17:19Z</time>
      </trkpt>
      <trkpt lat="42.5868100" lon="1.4674400">
        <ele>1893.9</ele>
        <time>2021-08-13T17:17:20Z</time>
      </trkpt>
      <trkpt lat="42.5868210" lon="1.4674430">
        <ele>1893.8</ele>
        <time>2021-08-13T17:17:21Z</time>
      </trkpt>
      <trkpt lat="42.5868520" lon="1.4674880">
        <ele>1893.4</ele>
        <time>2021-08-13T17:17:25Z</time>
      </trkpt>
      <trkpt lat="42.5868230" lon="1.4674870">
        <ele>1893.1</ele>
        <time>2021-08-13T17:17:31Z</time>
      </trkpt>
      <trkpt lat="42.5867900" lon="1.4674640">
        <ele>1892.8</ele>
        <time>2021-08-13T17:17:34Z</time>
      </trkpt>
      <trkpt lat="42.5867150" lon="1.4673940">
        <ele>1892.0</ele>
        <time>2021-08-13T17:17:44Z</time>
      </trkpt>
      <trkpt lat="42.5866810" lon="1.4673670">
        <ele>1891.7</ele>
        <time>2021-08-13T17:17:51Z</time>
      </trkpt>
      <trkpt lat="42.5866380" lon="1.4673590">
        <ele>1891.3</ele>
        <time>2021-08-13T17:17:56Z</time>
      </trkpt>
      <trkpt lat="42.5864590" lon="1.4673830">
        <ele>1890.0</ele>
        <time>2021-08-13T17:18:09Z</time>
      </trkpt>
      <trkpt lat="42.5862710" lon="1.4674160">
        <ele>1887.1</ele>
        <time>2021-08-13T17:18:21Z</time>
      </trkpt>
      <trkpt lat="42.5860970" lon="1.4675170">
        <ele>1884.4</ele>
        <time>2021-08-13T17:18:34Z</time>
      </trkpt>
      <trkpt lat="42.5860520" lon="1.4675910">
        <ele>1883.2</ele>
        <time>2021-08-13T17:18:40Z</time>
      </trkpt>
      <trkpt lat="42.5860220" lon="1.4676660">
        <ele>1882.1</ele>
        <time>2021-08-13T17:18:45Z</time>
      </trkpt>
      <trkpt lat="42.5860200" lon="1.4676830">
        <ele>1881.8</ele>
        <time>2021-08-13T17:18:46Z</time>
      </trkpt>
      <trkpt lat="42.5859930" lon="1.4677250">
        <ele>1880.9</ele>
        <time>2021-08-13T17:18:50Z</time>
      </trkpt>
      <trkpt lat="42.5859530" lon="1.4677970">
        <ele>1879.3</ele>
        <time>2021-08-13T17:19:00Z</time>
      </trkpt>
      <trkpt lat="42.5858390" lon="1.4679750">
        <ele>1874.2</ele>
        <time>2021-08-13T17:19:32Z</time>
      </trkpt>
      <trkpt lat="42.5858020" lon="1.4680910">
        <ele>1871.2</ele>
        <time>2021-08-13T17:19:49Z</time>
      </trkpt>
      <trkpt lat="42.5857220" lon="1.4682920">
        <ele>1866.0</ele>
        <time>2021-08-13T17:20:15Z</time>
      </trkpt>
      <trkpt lat="42.5856530" lon="1.4682800">
        <ele>1863.8</ele>
        <time>2021-08-13T17:20:27Z</time>
      </trkpt>
      <trkpt lat="42.5854910" lon="1.4684000">
        <ele>1857.8</ele>
        <time>2021-08-13T17:20:57Z</time>
      </trkpt>
      <trkpt lat="42.5854500" lon="1.4685000">
        <ele>1855.1</ele>
        <time>2021-08-13T17:21:09Z</time>
      </trkpt>
      <trkpt lat="42.5854550" lon="1.4685170">
        <ele>1854.7</ele>
        <time>2021-08-13T17:21:11Z</time>
      </trkpt>
      <trkpt lat="42.5855180" lon="1.4686620">
        <ele>1851.2</ele>
        <time>2021-08-13T17:21:22Z</time>
      </trkpt>
      <trkpt lat="42.5855130" lon="1.4687470">
        <ele>1849.5</ele>
        <time>2021-08-13T17:21:32Z</time>
      </trkpt>
      <trkpt lat="42.5854930" lon="1.4688170">
        <ele>1848.0</ele>
        <time>2021-08-13T17:21:42Z</time>
      </trkpt>
      <trkpt lat="42.5854750" lon="1.4689640">
        <ele>1845.0</ele>
        <time>2021-08-13T17:21:52Z</time>
      </trkpt>
      <trkpt lat="42.5854520" lon="1.4690950">
        <ele>1842.4</ele>
        <time>2021-08-13T17:22:01Z</time>
      </trkpt>
      <trkpt lat="42.5854090" lon="1.4693380">
        <ele>1838.0</ele>
        <time>2021-08-13T17:22:15Z</time>
      </trkpt>
      <trkpt lat="42.5853390" lon="1.4695650">
        <ele>1834.7</ele>
        <time>2021-08-13T17:22:34Z</time>
      </trkpt>
      <trkpt lat="42.5853350" lon="1.4695650">
        <ele>1834.7</ele>
        <time>2021-08-13T17:22:35Z</time>
      </trkpt>
      <trkpt lat="42.5853220" lon="1.4695410">
        <ele>1834.4</ele>
        <time>2021-08-13T17:22:59Z</time>
      </trkpt>
      <trkpt lat="42.5853220" lon="1.4695440">
        <ele>1834.4</ele>
        <time>2021-08-13T17:23:11Z</time>
      </trkpt>
      <trkpt lat="42.5853270" lon="1.4695490">
        <ele>1834.3</ele>
        <time>2021-08-13T17:23:13Z</time>
      </trkpt>
      <trkpt lat="42.5853220" lon="1.4695620">
        <ele>1834.2</ele>
        <time>2021-08-13T17:23:20Z</time>
      </trkpt>
      <trkpt lat="42.5853220" lon="1.4695750">
        <ele>1834.1</ele>
        <time>2021-08-13T17:23:25Z</time>
      </trkpt>
      <trkpt lat="42.5853240" lon="1.4695760">
        <ele>1834.1</ele>
        <time>2021-08-13T17:23:29Z</time>
      </trkpt>
      <trkpt lat="42.5853260" lon="1.4695880">
        <ele>1834.0</ele>
        <time>2021-08-13T17:23:43Z</time>
      </trkpt>
      <trkpt lat="42.5853260" lon="1.4695870">
        <ele>1834.0</ele>
        <time>2021-08-13T17:23:44Z</time>
      </trkpt>
      <trkpt lat="42.5853400" lon="1.4695190">
        <ele>1833.6</ele>
        <time>2021-08-13T17:24:07Z</time>
      </trkpt>
      <trkpt lat="42.5853430" lon="1.4694900">
        <ele>1833.4</ele>
        <time>2021-08-13T17:24:12Z</time>
      </trkpt>
      <trkpt lat="42.5853560" lon="1.4693220">
        <ele>1834.5</ele>
        <time>2021-08-13T17:24:43Z</time>
      </trkpt>
      <trkpt lat="42.5854160" lon="1.4690860">
        <ele>1837.9</ele>
        <time>2021-08-13T17:25:01Z</time>
      </trkpt>
      <trkpt lat="42.5854440" lon="1.4689990">
        <ele>1839.5</ele>
        <time>2021-08-13T17:25:09Z</time>
      </trkpt>
      <trkpt lat="42.5854800" lon="1.4689160">
        <ele>1841.3</ele>
        <time>2021-08-13T17:25:21Z</time>
      </trkpt>
      <trkpt lat="42.5854800" lon="1.4689100">
        <ele>1841.4</ele>
        <time>2021-08-13T17:25:22Z</time>
      </trkpt>
      <trkpt lat="42.5854770" lon="1.4687930">
        <ele>1843.8</ele>
        <time>2021-08-13T17:25:35Z</time>
      </trkpt>
      <trkpt lat="42.5854730" lon="1.4685820">
        <ele>1848.1</ele>
        <time>2021-08-13T17:25:59Z</time>
      </trkpt>
      <trkpt lat="42.5854750" lon="1.4683800">
        <ele>1852.3</ele>
        <time>2021-08-13T17:26:24Z</time>
      </trkpt>
      <trkpt lat="42.5856410" lon="1.4682800">
        <ele>1858.1</ele>
        <time>2021-08-13T17:26:53Z</time>
      </trkpt>
      <trkpt lat="42.5857900" lon="1.4681560">
        <ele>1864.1</ele>
        <time>2021-08-13T17:27:23Z</time>
      </trkpt>
      <trkpt lat="42.5858570" lon="1.4679290">
        <ele>1869.9</ele>
        <time>2021-08-13T17:27:55Z</time>
      </trkpt>
      <trkpt lat="42.5859390" lon="1.4677110">
        <ele>1875.8</ele>
        <time>2021-08-13T17:28:26Z</time>
      </trkpt>
      <trkpt lat="42.5860530" lon="1.4675640">
        <ele>1880.4</ele>
        <time>2021-08-13T17:28:50Z</time>
      </trkpt>
      <trkpt lat="42.5861600" lon="1.4674650">
        <ele>1883.2</ele>
        <time>2021-08-13T17:29:04Z</time>
      </trkpt>
      <trkpt lat="42.5862610" lon="1.4675050">
        <ele>1885.0</ele>
        <time>2021-08-13T17:29:16Z</time>
      </trkpt>
      <trkpt lat="42.5863330" lon="1.4677000">
        <ele>1887.2</ele>
        <time>2021-08-13T17:29:41Z</time>
      </trkpt>
      <trkpt lat="42.5863410" lon="1.4676850">
        <ele>1887.4</ele>
        <time>2021-08-13T17:29:43Z</time>
      </trkpt>
      <trkpt lat="42.5863460" lon="1.4676710">
        <ele>1887.5</ele>
        <time>2021-08-13T17:29:45Z</time>
      </trkpt>
      <trkpt lat="42.5863500" lon="1.4676660">
        <ele>1887.6</ele>
        <time>2021-08-13T17:29:46Z</time>
      </trkpt>
      <trkpt lat="42.5863530" lon="1.4676600">
        <ele>1887.7</ele>
        <time>2021-08-13T17:29:47Z</time>
      </trkpt>
      <trkpt lat="42.5863630" lon="1.4676500">
        <ele>1887.8</ele>
        <time>2021-08-13T17:29:51Z</time>
      </trkpt>
      <trkpt lat="42.5863240" lon="1.4677360">
        <ele>1885.6</ele>
        <time>2021-08-14T04:44:41Z</time>
      </trkpt>
      <trkpt lat="42.5863230" lon="1.4677400">
        <ele>1885.6</ele>
        <time>2021-08-14T04:44:42Z</time>
      </trkpt>
      <trkpt lat="42.5863160" lon="1.4677940">
        <ele>1885.1</ele>
        <time>2021-08-14T04:44:50Z</time>
      </trkpt>
      <trkpt lat="42.5863190" lon="1.4678030">
        <ele>1885.0</ele>
        <time>2021-08-14T04:44:51Z</time>
      </trkpt>
      <trkpt lat="42.5863220" lon="1.4678110">
        <ele>1884.9</ele>
        <time>2021-08-14T04:44:52Z</time>
      </trkpt>
      <trkpt lat="42.5863210" lon="1.4678770">
        <ele>1884.4</ele>
        <time>2021-08-14T04:44:58Z</time>
      </trkpt>
      <trkpt lat="42.5863230" lon="1.4679060">
        <ele>1884.1</ele>
        <time>2021-08-14T04:45:00Z</time>
      </trkpt>
      <trkpt lat="42.5863090" lon="1.4679560">
        <ele>1883.7</ele>
        <time>2021-08-14T04:45:04Z</time>
      </trkpt>
      <trkpt lat="42.5862550" lon="1.4682040">
        <ele>1881.6</ele>
        <time>2021-08-14T04:45:25Z</time>
      </trkpt>
      <trkpt lat="42.5862770" lon="1.4683060">
        <ele>1882.9</ele>
        <time>2021-08-14T04:45:37Z</time>
      </trkpt>
      <trkpt lat="42.5862870" lon="1.4683280">
        <ele>1883.3</ele>
        <time>2021-08-14T04:45:40Z</time>
      </trkpt>
      <trkpt lat="42.5863220" lon="1.4684020">
        <ele>1884.2</ele>
        <time>2021-08-14T04:45:50Z</time>
      </trkpt>
      <trkpt lat="42.5863210" lon="1.4684280">
        <ele>1884.5</ele>
        <time>2021-08-14T04:45:52Z</time>
      </trkpt>
      <trkpt lat="42.5863100" lon="1.4685000">
        <ele>1885.1</ele>
        <time>2021-08-14T04:45:57Z</time>
      </trkpt>
      <trkpt lat="42.5862460" lon="1.4686820">
        <ele>1885.5</ele>
        <time>2021-08-14T04:46:13Z</time>
      </trkpt>
      <trkpt lat="42.5862190" lon="1.4688150">
        <ele>1885.4</ele>
        <time>2021-08-14T04:46:23Z</time>
      </trkpt>
      <trkpt lat="42.5862140" lon="1.4688550">
        <ele>1885.4</ele>
        <time>2021-08-14T04:46:26Z</time>
      </trkpt>
      <trkpt lat="42.5862110" lon="1.4688690">
        <ele>1885.4</ele>
        <time>2021-08-14T04:46:27Z</time>
      </trkpt>
      <trkpt lat="42.5862050" lon="1.4688820">
        <ele>1885.4</ele>
        <time>2021-08-14T04:46:28Z</time>
      </trkpt>
      <trkpt lat="42.5861990" lon="1.4689120">
        <ele>1885.4</ele>
        <time>2021-08-14T04:46:30Z</time>
      </trkpt>
      <trkpt lat="42.5861960" lon="1.4689270">
        <ele>1885.4</ele>
        <time>2021-08-14T04:46:31Z</time>
      </trkpt>
      <trkpt lat="42.5861820" lon="1.4689980">
        <ele>1885.5</ele>
        <time>2021-08-14T04:46:38Z</time>
      </trkpt>
      <trkpt lat="42.5861290" lon="1.4692220">
        <ele>1885.8</ele>
        <time>2021-08-14T04:47:00Z</time>
      </trkpt>
      <trkpt lat="42.5861240" lon="1.4692330">
        <ele>1885.8</ele>
        <time>2021-08-14T04:47:01Z</time>
      </trkpt>
      <trkpt lat="42.5861180" lon="1.4692440">
        <ele>1885.8</ele>
        <time>2021-08-14T04:47:02Z</time>
      </trkpt>
      <trkpt lat="42.5860970" lon="1.4693520">
        <ele>1885.4</ele>
        <time>2021-08-14T04:47:11Z</time>
      </trkpt>
      <trkpt lat="42.5860970" lon="1.4694990">
        <ele>1884.6</ele>
        <time>2021-08-14T04:47:27Z</time>
      </trkpt>
      <trkpt lat="42.5860460" lon="1.4697300">
        <ele>1882.9</ele>
        <time>2021-08-14T04:47:59Z</time>
      </trkpt>
      <trkpt lat="42.5860180" lon="1.4699710">
        <ele>1881.8</ele>
        <time>2021-08-14T04:48:19Z</time>
      </trkpt>
      <trkpt lat="42.5859700" lon="1.4702030">
        <ele>1881.1</ele>
        <time>2021-08-14T04:48:42Z</time>
      </trkpt>
      <trkpt lat="42.5859740" lon="1.4704520">
        <ele>1881.3</ele>
        <time>2021-08-14T04:49:04Z</time>
      </trkpt>
      <trkpt lat="42.5858490" lon="1.4705530">
        <ele>1882.5</ele>
        <time>2021-08-14T04:49:27Z</time>
      </trkpt>
      <trkpt lat="42.5858450" lon="1.4705740">
        <ele>1882.7</ele>
        <time>2021-08-14T04:49:29Z</time>
      </trkpt>
      <trkpt lat="42.5858320" lon="1.4705930">
        <ele>1883.0</ele>
        <time>2021-08-14T04:49:32Z</time>
      </trkpt>
      <trkpt lat="42.5858110" lon="1.4706190">
        <ele>1883.6</ele>
        <time>2021-08-14T04:49:36Z</time>
      </trkpt>
      <trkpt lat="42.5857940" lon="1.4706420">
        <ele>1884.0</ele>
        <time>2021-08-14T04:49:39Z</time>
      </trkpt>
      <trkpt lat="42.5857790" lon="1.4706560">
        <ele>1884.3</ele>
        <time>2021-08-14T04:49:42Z</time>
      </trkpt>
      <trkpt lat="42.5857600" lon="1.4706780">
        <ele>1884.8</ele>
        <time>2021-08-14T04:49:47Z</time>
      </trkpt>
      <trkpt lat="42.5857150" lon="1.4708250">
        <ele>1887.1</ele>
        <time>2021-08-14T04:50:04Z</time>
      </trkpt>
      <trkpt lat="42.5857120" lon="1.4708360">
        <ele>1887.2</ele>
        <time>2021-08-14T04:50:05Z</time>
      </trkpt>
      <trkpt lat="42.5857100" lon="1.4708510">
        <ele>1887.5</ele>
        <time>2021-08-14T04:50:06Z</time>
      </trkpt>
      <trkpt lat="42.5857060" lon="1.4708710">
        <ele>1887.7</ele>
        <time>2021-08-14T04:50:08Z</time>
      </trkpt>
      <trkpt lat="42.5856810" lon="1.4709170">
        <ele>1888.6</ele>
        <time>2021-08-14T04:50:15Z</time>
      </trkpt>
      <trkpt lat="42.5856470" lon="1.4711640">
        <ele>1891.7</ele>
        <time>2021-08-14T04:50:44Z</time>
      </trkpt>
      <trkpt lat="42.5856570" lon="1.4713200">
        <ele>1893.5</ele>
        <time>2021-08-14T04:50:59Z</time>
      </trkpt>
      <trkpt lat="42.5856540" lon="1.4715640">
        <ele>1896.4</ele>
        <time>2021-08-14T04:51:20Z</time>
      </trkpt>
      <trkpt lat="42.5856610" lon="1.4718120">
        <ele>1899.6</ele>
        <time>2021-08-14T04:51:47Z</time>
      </trkpt>
      <trkpt lat="42.5856380" lon="1.4718760">
        <ele>1900.5</ele>
        <time>2021-08-14T04:51:53Z</time>
      </trkpt>
      <trkpt lat="42.5856020" lon="1.4719470">
        <ele>1901.8</ele>
        <time>2021-08-14T04:52:01Z</time>
      </trkpt>
      <trkpt lat="42.5855310" lon="1.4721120">
        <ele>1905.4</ele>
        <time>2021-08-14T04:52:28Z</time>
      </trkpt>
      <trkpt lat="42.5855150" lon="1.4721530">
        <ele>1906.4</ele>
        <time>2021-08-14T04:52:35Z</time>
      </trkpt>
      <trkpt lat="42.5854710" lon="1.4721870">
        <ele>1908.0</ele>
        <time>2021-08-14T04:52:44Z</time>
      </trkpt>
      <trkpt lat="42.5854530" lon="1.4722190">
        <ele>1908.9</ele>
        <time>2021-08-14T04:52:49Z</time>
      </trkpt>
      <trkpt lat="42.5853800" lon="1.4723080">
        <ele>1911.9</ele>
        <time>2021-08-14T04:53:09Z</time>
      </trkpt>
      <trkpt lat="42.5853120" lon="1.4723820">
        <ele>1914.7</ele>
        <time>2021-08-14T04:53:27Z</time>
      </trkpt>
      <trkpt lat="42.5852710" lon="1.4724210">
        <ele>1916.4</ele>
        <time>2021-08-14T04:53:35Z</time>
      </trkpt>
      <trkpt lat="42.5852640" lon="1.4724410">
        <ele>1916.9</ele>
        <time>2021-08-14T04:53:37Z</time>
      </trkpt>
      <trkpt lat="42.5852480" lon="1.4725250">
        <ele>1919.1</ele>
        <time>2021-08-14T04:53:52Z</time>
      </trkpt>
      <trkpt lat="42.5852680" lon="1.4726570">
        <ele>1922.6</ele>
        <time>2021-08-14T04:54:05Z</time>
      </trkpt>
      <trkpt lat="42.5852780" lon="1.4727230">
        <ele>1924.3</ele>
        <time>2021-08-14T04:54:11Z</time>
      </trkpt>
      <trkpt lat="42.5852910" lon="1.4727590">
        <ele>1925.4</ele>
        <time>2021-08-14T04:54:15Z</time>
      </trkpt>
      <trkpt lat="42.5852760" lon="1.4729300">
        <ele>1930.2</ele>
        <time>2021-08-14T04:54:37Z</time>
      </trkpt>
      <trkpt lat="42.5852650" lon="1.4729890">
        <ele>1931.9</ele>
        <time>2021-08-14T04:54:44Z</time>
      </trkpt>
      <trkpt lat="42.5852590" lon="1.4730020">
        <ele>1932.4</ele>
        <time>2021-08-14T04:54:49Z</time>
      </trkpt>
      <trkpt lat="42.5852990" lon="1.4730710">
        <ele>1934.7</ele>
        <time>2021-08-14T04:54:57Z</time>
      </trkpt>
      <trkpt lat="42.5852830" lon="1.4731320">
        <ele>1936.3</ele>
        <time>2021-08-14T04:55:19Z</time>
      </trkpt>
      <trkpt lat="42.5852770" lon="1.4731810">
        <ele>1937.6</ele>
        <time>2021-08-14T04:55:28Z</time>
      </trkpt>
      <trkpt lat="42.5852840" lon="1.4731860">
        <ele>1937.8</ele>
        <time>2021-08-14T04:55:30Z</time>
      </trkpt>
      <trkpt lat="42.5852910" lon="1.4732390">
        <ele>1939.1</ele>
        <time>2021-08-14T04:55:40Z</time>
      </trkpt>
      <trkpt lat="42.5852890" lon="1.4733670">
        <ele>1941.9</ele>
        <time>2021-08-14T04:55:56Z</time>
      </trkpt>
      <trkpt lat="42.5852740" lon="1.4734110">
        <ele>1943.0</ele>
        <time>2021-08-14T04:56:02Z</time>
      </trkpt>
      <trkpt lat="42.5852720" lon="1.4734220">
        <ele>1943.2</ele>
        <time>2021-08-14T04:56:05Z</time>
      </trkpt>
      <trkpt lat="42.5852630" lon="1.4736550">
        <ele>1948.4</ele>
        <time>2021-08-14T04:56:42Z</time>
      </trkpt>
      <trkpt lat="42.5852800" lon="1.4736990">
        <ele>1949.5</ele>
        <time>2021-08-14T04:56:58Z</time>
      </trkpt>
      <trkpt lat="42.5852970" lon="1.4738420">
        <ele>1953.0</ele>
        <time>2021-08-14T04:57:28Z</time>
      </trkpt>
      <trkpt lat="42.5852960" lon="1.4738900">
        <ele>1954.1</ele>
        <time>2021-08-14T04:57:34Z</time>
      </trkpt>
      <trkpt lat="42.5853020" lon="1.4741210">
        <ele>1959.3</ele>
        <time>2021-08-14T04:58:06Z</time>
      </trkpt>
      <trkpt lat="42.5853110" lon="1.4742270">
        <ele>1961.2</ele>
        <time>2021-08-14T04:58:19Z</time>
      </trkpt>
      <trkpt lat="42.5852570" lon="1.4743860">
        <ele>1963.9</ele>
        <time>2021-08-14T04:58:56Z</time>
      </trkpt>
      <trkpt lat="42.5852560" lon="1.4745420">
        <ele>1966.4</ele>
        <time>2021-08-14T04:59:15Z</time>
      </trkpt>
      <trkpt lat="42.5852560" lon="1.4745510">
        <ele>1966.5</ele>
        <time>2021-08-14T04:59:16Z</time>
      </trkpt>
      <trkpt lat="42.5852510" lon="1.4745840">
        <ele>1967.2</ele>
        <time>2021-08-14T04:59:20Z</time>
      </trkpt>
      <trkpt lat="42.5852670" lon="1.4746740">
        <ele>1969.0</ele>
        <time>2021-08-14T04:59:32Z</time>
      </trkpt>
      <trkpt lat="42.5852430" lon="1.4747140">
        <ele>1970.1</ele>
        <time>2021-08-14T04:59:44Z</time>
      </trkpt>
      <trkpt lat="42.5852210" lon="1.4748640">
        <ele>1973.4</ele>
        <time>2021-08-14T05:00:07Z</time>
      </trkpt>
      <trkpt lat="42.5852140" lon="1.4749020">
        <ele>1974.2</ele>
        <time>2021-08-14T05:00:11Z</time>
      </trkpt>
      <trkpt lat="42.5851690" lon="1.4750910">
        <ele>1978.0</ele>
        <time>2021-08-14T05:00:41Z</time>
      </trkpt>
      <trkpt lat="42.5851650" lon="1.4750910">
        <ele>1978.1</ele>
        <time>2021-08-14T05:00:42Z</time>
      </trkpt>
      <trkpt lat="42.5851810" lon="1.4751620">
        <ele>1979.6</ele>
        <time>2021-08-14T05:00:52Z</time>
      </trkpt>
      <trkpt lat="42.5852350" lon="1.4752430">
        <ele>1981.6</ele>
        <time>2021-08-14T05:01:04Z</time>
      </trkpt>
      <trkpt lat="42.5852340" lon="1.4752550">
        <ele>1981.8</ele>
        <time>2021-08-14T05:01:06Z</time>
      </trkpt>
      <trkpt lat="42.5852410" lon="1.4753740">
        <ele>1983.7</ele>
        <time>2021-08-14T05:01:24Z</time>
      </trkpt>
      <trkpt lat="42.5852800" lon="1.4755700">
        <ele>1986.7</ele>
        <time>2021-08-14T05:01:54Z</time>
      </trkpt>
      <trkpt lat="42.5853010" lon="1.4757440">
        <ele>1988.3</ele>
        <time>2021-08-14T05:02:10Z</time>
      </trkpt>
      <trkpt lat="42.5853060" lon="1.4758500">
        <ele>1989.0</ele>
        <time>2021-08-14T05:02:21Z</time>
      </trkpt>
      <trkpt lat="42.5853100" lon="1.4759110">
        <ele>1989.3</ele>
        <time>2021-08-14T05:02:25Z</time>
      </trkpt>
      <trkpt lat="42.5853080" lon="1.4761520">
        <ele>1991.0</ele>
        <time>2021-08-14T05:02:51Z</time>
      </trkpt>
      <trkpt lat="42.5853020" lon="1.4762330">
        <ele>1991.7</ele>
        <time>2021-08-14T05:03:02Z</time>
      </trkpt>
      <trkpt lat="42.5853090" lon="1.4764100">
        <ele>1994.1</ele>
        <time>2021-08-14T05:03:23Z</time>
      </trkpt>
      <trkpt lat="42.5852570" lon="1.4765890">
        <ele>1997.9</ele>
        <time>2021-08-14T05:03:56Z</time>
      </trkpt>
      <trkpt lat="42.5852360" lon="1.4765890">
        <ele>1998.5</ele>
        <time>2021-08-14T05:04:02Z</time>
      </trkpt>
      <trkpt lat="42.5852160" lon="1.4765860">
        <ele>1999.1</ele>
        <time>2021-08-14T05:04:06Z</time>
      </trkpt>
      <trkpt lat="42.5852060" lon="1.4766050">
        <ele>1999.7</ele>
        <time>2021-08-14T05:04:09Z</time>
      </trkpt>
      <trkpt lat="42.5852150" lon="1.4766240">
        <ele>2000.2</ele>
        <time>2021-08-14T05:04:11Z</time>
      </trkpt>
      <trkpt lat="42.5852410" lon="1.4767520">
        <ele>2003.3</ele>
        <time>2021-08-14T05:04:25Z</time>
      </trkpt>
      <trkpt lat="42.5852470" lon="1.4767640">
        <ele>2003.7</ele>
        <time>2021-08-14T05:04:26Z</time>
      </trkpt>
      <trkpt lat="42.5852400" lon="1.4768520">
        <ele>2005.8</ele>
        <time>2021-08-14T05:04:43Z</time>
      </trkpt>
      <trkpt lat="42.5852610" lon="1.4770600">
        <ele>2010.8</ele>
        <time>2021-08-14T05:05:08Z</time>
      </trkpt>
      <trkpt lat="42.5852540" lon="1.4771600">
        <ele>2013.1</ele>
        <time>2021-08-14T05:05:20Z</time>
      </trkpt>
      <trkpt lat="42.5852340" lon="1.4771890">
        <ele>2013.9</ele>
        <time>2021-08-14T05:05:31Z</time>
      </trkpt>
      <trkpt lat="42.5852190" lon="1.4772340">
        <ele>2015.0</ele>
        <time>2021-08-14T05:05:36Z</time>
      </trkpt>
      <trkpt lat="42.5852180" lon="1.4772900">
        <ele>2016.3</ele>
        <time>2021-08-14T05:05:41Z</time>
      </trkpt>
      <trkpt lat="42.5852030" lon="1.4773830">
        <ele>2018.6</ele>
        <time>2021-08-14T05:05:50Z</time>
      </trkpt>
      <trkpt lat="42.5851970" lon="1.4774240">
        <ele>2019.6</ele>
        <time>2021-08-14T05:05:57Z</time>
      </trkpt>
      <trkpt lat="42.5852000" lon="1.4774980">
        <ele>2021.4</ele>
        <time>2021-08-14T05:06:19Z</time>
      </trkpt>
      <trkpt lat="42.5852350" lon="1.4775140">
        <ele>2022.6</ele>
        <time>2021-08-14T05:06:27Z</time>
      </trkpt>
      <trkpt lat="42.5852440" lon="1.4775350">
        <ele>2023.1</ele>
        <time>2021-08-14T05:06:32Z</time>
      </trkpt>
      <trkpt lat="42.5852420" lon="1.4776040">
        <ele>2024.6</ele>
        <time>2021-08-14T05:06:42Z</time>
      </trkpt>
      <trkpt lat="42.5852370" lon="1.4776390">
        <ele>2025.3</ele>
        <time>2021-08-14T05:06:47Z</time>
      </trkpt>
      <trkpt lat="42.5852280" lon="1.4776840">
        <ele>2026.2</ele>
        <time>2021-08-14T05:06:53Z</time>
      </trkpt>
      <trkpt lat="42.5850930" lon="1.4778410">
        <ele>2029.7</ele>
        <time>2021-08-14T05:07:14Z</time>
      </trkpt>
      <trkpt lat="42.5850870" lon="1.4778560">
        <ele>2029.9</ele>
        <time>2021-08-14T05:07:15Z</time>
      </trkpt>
      <trkpt lat="42.5850850" lon="1.4778640">
        <ele>2029.9</ele>
        <time>2021-08-14T05:07:16Z</time>
      </trkpt>
      <trkpt lat="42.5850790" lon="1.4778690">
        <ele>2030.0</ele>
        <time>2021-08-14T05:07:17Z</time>
      </trkpt>
      <trkpt lat="42.5850740" lon="1.4778920">
        <ele>2030.2</ele>
        <time>2021-08-14T05:07:19Z</time>
      </trkpt>
      <trkpt lat="42.5850800" lon="1.4779200">
        <ele>2030.4</ele>
        <time>2021-08-14T05:07:22Z</time>
      </trkpt>
      <trkpt lat="42.5851000" lon="1.4779710">
        <ele>2030.8</ele>
        <time>2021-08-14T05:07:25Z</time>
      </trkpt>
      <trkpt lat="42.5851000" lon="1.4779840">
        <ele>2030.9</ele>
        <time>2021-08-14T05:07:26Z</time>
      </trkpt>
      <trkpt lat="42.5851000" lon="1.4779900">
        <ele>2031.0</ele>
        <time>2021-08-14T05:07:27Z</time>
      </trkpt>
      <trkpt lat="42.5850920" lon="1.4779950">
        <ele>2031.1</ele>
        <time>2021-08-14T05:07:28Z</time>
      </trkpt>
      <trkpt lat="42.5850880" lon="1.4780010">
        <ele>2031.1</ele>
        <time>2021-08-14T05:07:29Z</time>
      </trkpt>
      <trkpt lat="42.5850840" lon="1.4780080">
        <ele>2031.2</ele>
        <time>2021-08-14T05:07:30Z</time>
      </trkpt>
      <trkpt lat="42.5850840" lon="1.4780410">
        <ele>2031.4</ele>
        <time>2021-08-14T05:07:33Z</time>
      </trkpt>
      <trkpt lat="42.5850600" lon="1.4781240">
        <ele>2032.0</ele>
        <time>2021-08-14T05:07:41Z</time>
      </trkpt>
      <trkpt lat="42.5851200" lon="1.4783500">
        <ele>2033.5</ele>
        <time>2021-08-14T05:08:04Z</time>
      </trkpt>
      <trkpt lat="42.5851310" lon="1.4783990">
        <ele>2033.7</ele>
        <time>2021-08-14T05:08:09Z</time>
      </trkpt>
      <trkpt lat="42.5851310" lon="1.4783970">
        <ele>2033.7</ele>
        <time>2021-08-14T05:08:10Z</time>
      </trkpt>
      <trkpt lat="42.5851430" lon="1.4784380">
        <ele>2033.9</ele>
        <time>2021-08-14T05:08:20Z</time>
      </trkpt>
      <trkpt lat="42.5851560" lon="1.4784520">
        <ele>2034.0</ele>
        <time>2021-08-14T05:08:24Z</time>
      </trkpt>
      <trkpt lat="42.5851550" lon="1.4784640">
        <ele>2034.0</ele>
        <time>2021-08-14T05:08:27Z</time>
      </trkpt>
      <trkpt lat="42.5851590" lon="1.4784660">
        <ele>2034.0</ele>
        <time>2021-08-14T05:08:29Z</time>
      </trkpt>
      <trkpt lat="42.5851590" lon="1.4784650">
        <ele>2034.0</ele>
        <time>2021-08-14T05:08:30Z</time>
      </trkpt>
      <trkpt lat="42.5851590" lon="1.4784650">
        <ele>2034.0</ele>
        <time>2021-08-14T05:08:32Z</time>
      </trkpt>
      <trkpt lat="42.5851560" lon="1.4784680">
        <ele>2034.1</ele>
        <time>2021-08-14T05:08:33Z</time>
      </trkpt>
      <trkpt lat="42.5851580" lon="1.4784670">
        <ele>2034.1</ele>
        <time>2021-08-14T05:08:34Z</time>
      </trkpt>
      <trkpt lat="42.5851810" lon="1.4784830">
        <ele>2034.2</ele>
        <time>2021-08-14T05:08:39Z</time>
      </trkpt>
      <trkpt lat="42.5851780" lon="1.4784880">
        <ele>2034.2</ele>
        <time>2021-08-14T05:08:45Z</time>
      </trkpt>
      <trkpt lat="42.5851660" lon="1.4784480">
        <ele>2034.3</ele>
        <time>2021-08-14T05:08:56Z</time>
      </trkpt>
      <trkpt lat="42.5851540" lon="1.4784520">
        <ele>2034.3</ele>
        <time>2021-08-14T05:09:03Z</time>
      </trkpt>
      <trkpt lat="42.5851530" lon="1.4784410">
        <ele>2034.3</ele>
        <time>2021-08-14T05:09:10Z</time>
      </trkpt>
      <trkpt lat="42.5851500" lon="1.4784650">
        <ele>2034.4</ele>
        <time>2021-08-14T05:09:22Z</time>
      </trkpt>
      <trkpt lat="42.5851400" lon="1.4785190">
        <ele>2034.4</ele>
        <time>2021-08-14T05:09:46Z</time>
      </trkpt>
      <trkpt lat="42.5851180" lon="1.4785400">
        <ele>2034.5</ele>
        <time>2021-08-14T05:10:02Z</time>
      </trkpt>
      <trkpt lat="42.5851270" lon="1.4785500">
        <ele>2034.5</ele>
        <time>2021-08-14T05:10:05Z</time>
      </trkpt>
      <trkpt lat="42.5852320" lon="1.4787140">
        <ele>2035.3</ele>
        <time>2021-08-14T05:10:27Z</time>
      </trkpt>
      <trkpt lat="42.5852430" lon="1.4787260">
        <ele>2035.5</ele>
        <time>2021-08-14T05:10:29Z</time>
      </trkpt>
      <trkpt lat="42.5852470" lon="1.4787350">
        <ele>2035.5</ele>
        <time>2021-08-14T05:10:30Z</time>
      </trkpt>
      <trkpt lat="42.5852990" lon="1.4787640">
        <ele>2036.0</ele>
        <time>2021-08-14T05:10:35Z</time>
      </trkpt>
      <trkpt lat="42.5853010" lon="1.4787700">
        <ele>2036.0</ele>
        <time>2021-08-14T05:10:36Z</time>
      </trkpt>
      <trkpt lat="42.5853130" lon="1.4787880">
        <ele>2036.2</ele>
        <time>2021-08-14T05:10:38Z</time>
      </trkpt>
      <trkpt lat="42.5853300" lon="1.4788030">
        <ele>2036.4</ele>
        <time>2021-08-14T05:10:40Z</time>
      </trkpt>
      <trkpt lat="42.5853600" lon="1.4788610">
        <ele>2036.9</ele>
        <time>2021-08-14T05:10:47Z</time>
      </trkpt>
      <trkpt lat="42.5853870" lon="1.4788900">
        <ele>2037.3</ele>
        <time>2021-08-14T05:10:52Z</time>
      </trkpt>
      <trkpt lat="42.5854430" lon="1.4789490">
        <ele>2038.2</ele>
        <time>2021-08-14T05:11:02Z</time>
      </trkpt>
      <trkpt lat="42.5854520" lon="1.4789660">
        <ele>2038.4</ele>
        <time>2021-08-14T05:11:04Z</time>
      </trkpt>
      <trkpt lat="42.5854670" lon="1.4789870">
        <ele>2038.8</ele>
        <time>2021-08-14T05:11:07Z</time>
      </trkpt>
      <trkpt lat="42.5855420" lon="1.4792150">
        <ele>2043.1</ele>
        <time>2021-08-14T05:11:36Z</time>
      </trkpt>
      <trkpt lat="42.5855550" lon="1.4792230">
        <ele>2043.5</ele>
        <time>2021-08-14T05:11:38Z</time>
      </trkpt>
      <trkpt lat="42.5855770" lon="1.4792330">
        <ele>2044.2</ele>
        <time>2021-08-14T05:11:41Z</time>
      </trkpt>
      <trkpt lat="42.5856380" lon="1.4792560">
        <ele>2046.2</ele>
        <time>2021-08-14T05:11:51Z</time>
      </trkpt>
      <trkpt lat="42.5856990" lon="1.4792950">
        <ele>2048.4</ele>
        <time>2021-08-14T05:12:02Z</time>
      </trkpt>
      <trkpt lat="42.5858510" lon="1.4794240">
        <ele>2050.5</ele>
        <time>2021-08-14T05:12:31Z</time>
      </trkpt>
      <trkpt lat="42.5858580" lon="1.4794250">
        <ele>2050.6</ele>
        <time>2021-08-14T05:12:32Z</time>
      </trkpt>
      <trkpt lat="42.5858930" lon="1.4794810">
        <ele>2051.2</ele>
        <time>2021-08-14T05:12:40Z</time>
      </trkpt>
      <trkpt lat="42.5859080" lon="1.4794830">
        <ele>2051.4</ele>
        <time>2021-08-14T05:12:44Z</time>
      </trkpt>
      <trkpt lat="42.5859270" lon="1.4795010">
        <ele>2051.8</ele>
        <time>2021-08-14T05:12:49Z</time>
      </trkpt>
      <trkpt lat="42.5859930" lon="1.4795820">
        <ele>2053.3</ele>
        <time>2021-08-14T05:13:01Z</time>
      </trkpt>
      <trkpt lat="42.5860130" lon="1.4795900">
        <ele>2053.7</ele>
        <time>2021-08-14T05:13:03Z</time>
      </trkpt>
      <trkpt lat="42.5860220" lon="1.4795920">
        <ele>2053.8</ele>
        <time>2021-08-14T05:13:04Z</time>
      </trkpt>
      <trkpt lat="42.5861090" lon="1.4795990">
        <ele>2055.5</ele>
        <time>2021-08-14T05:13:17Z</time>
      </trkpt>
      <trkpt lat="42.5861220" lon="1.4796220">
        <ele>2055.9</ele>
        <time>2021-08-14T05:13:21Z</time>
      </trkpt>
      <trkpt lat="42.5861800" lon="1.4797030">
        <ele>2057.2</ele>
        <time>2021-08-14T05:13:46Z</time>
      </trkpt>
      <trkpt lat="42.5861840" lon="1.4797100">
        <ele>2057.3</ele>
        <time>2021-08-14T05:13:47Z</time>
      </trkpt>
      <trkpt lat="42.5861980" lon="1.4797390">
        <ele>2057.7</ele>
        <time>2021-08-14T05:13:51Z</time>
      </trkpt>
      <trkpt lat="42.5862080" lon="1.4797610">
        <ele>2058.0</ele>
        <time>2021-08-14T05:13:54Z</time>
      </trkpt>
      <trkpt lat="42.5862120" lon="1.4797710">
        <ele>2058.1</ele>
        <time>2021-08-14T05:13:55Z</time>
      </trkpt>
      <trkpt lat="42.5862200" lon="1.4797790">
        <ele>2058.2</ele>
        <time>2021-08-14T05:13:56Z</time>
      </trkpt>
      <trkpt lat="42.5862290" lon="1.4797840">
        <ele>2058.4</ele>
        <time>2021-08-14T05:13:57Z</time>
      </trkpt>
      <trkpt lat="42.5862500" lon="1.4797920">
        <ele>2058.7</ele>
        <time>2021-08-14T05:14:01Z</time>
      </trkpt>
      <trkpt lat="42.5862480" lon="1.4797920">
        <ele>2058.7</ele>
        <time>2021-08-14T05:14:03Z</time>
      </trkpt>
      <trkpt lat="42.5862610" lon="1.4798010">
        <ele>2058.9</ele>
        <time>2021-08-14T05:14:06Z</time>
      </trkpt>
      <trkpt lat="42.5862760" lon="1.4798030">
        <ele>2059.1</ele>
        <time>2021-08-14T05:14:08Z</time>
      </trkpt>
      <trkpt lat="42.5862790" lon="1.4798000">
        <ele>2059.2</ele>
        <time>2021-08-14T05:14:09Z</time>
      </trkpt>
      <trkpt lat="42.5863020" lon="1.4798090">
        <ele>2059.5</ele>
        <time>2021-08-14T05:14:15Z</time>
      </trkpt>
      <trkpt lat="42.5863120" lon="1.4798220">
        <ele>2059.7</ele>
        <time>2021-08-14T05:14:17Z</time>
      </trkpt>
      <trkpt lat="42.5863910" lon="1.4799330">
        <ele>2061.2</ele>
        <time>2021-08-14T05:14:32Z</time>
      </trkpt>
      <trkpt lat="42.5865020" lon="1.4801160">
        <ele>2063.4</ele>
        <time>2021-08-14T05:15:01Z</time>
      </trkpt>
      <trkpt lat="42.5865450" lon="1.4801540">
        <ele>2064.0</ele>
        <time>2021-08-14T05:15:08Z</time>
      </trkpt>
      <trkpt lat="42.5866740" lon="1.4803250">
        <ele>2066.4</ele>
        <time>2021-08-14T05:15:35Z</time>
      </trkpt>
      <trkpt lat="42.5867900" lon="1.4803780">
        <ele>2067.7</ele>
        <time>2021-08-14T05:15:52Z</time>
      </trkpt>
      <trkpt lat="42.5868650" lon="1.4804230">
        <ele>2068.5</ele>
        <time>2021-08-14T05:16:08Z</time>
      </trkpt>
      <trkpt lat="42.5870020" lon="1.4805380">
        <ele>2070.2</ele>
        <time>2021-08-14T05:16:39Z</time>
      </trkpt>
      <trkpt lat="42.5870350" lon="1.4805730">
        <ele>2070.6</ele>
        <time>2021-08-14T05:16:44Z</time>
      </trkpt>
      <trkpt lat="42.5870830" lon="1.4806770">
        <ele>2071.7</ele>
        <time>2021-08-14T05:16:57Z</time>
      </trkpt>
      <trkpt lat="42.5871110" lon="1.4807040">
        <ele>2072.0</ele>
        <time>2021-08-14T05:17:07Z</time>
      </trkpt>
      <trkpt lat="42.5871150" lon="1.4807070">
        <ele>2072.0</ele>
        <time>2021-08-14T05:17:08Z</time>
      </trkpt>
      <trkpt lat="42.5871240" lon="1.4807070">
        <ele>2072.1</ele>
        <time>2021-08-14T05:17:10Z</time>
      </trkpt>
      <trkpt lat="42.5871260" lon="1.4807140">
        <ele>2072.1</ele>
        <time>2021-08-14T05:17:11Z</time>
      </trkpt>
      <trkpt lat="42.5871280" lon="1.4807170">
        <ele>2072.2</ele>
        <time>2021-08-14T05:17:12Z</time>
      </trkpt>
      <trkpt lat="42.5871910" lon="1.4807450">
        <ele>2072.7</ele>
        <time>2021-08-14T05:17:19Z</time>
      </trkpt>
      <trkpt lat="42.5872140" lon="1.4807760">
        <ele>2073.0</ele>
        <time>2021-08-14T05:17:23Z</time>
      </trkpt>
      <trkpt lat="42.5872620" lon="1.4808430">
        <ele>2073.6</ele>
        <time>2021-08-14T05:17:31Z</time>
      </trkpt>
      <trkpt lat="42.5872720" lon="1.4808820">
        <ele>2074.0</ele>
        <time>2021-08-14T05:17:40Z</time>
      </trkpt>
      <trkpt lat="42.5872730" lon="1.4808760">
        <ele>2074.0</ele>
        <time>2021-08-14T05:17:41Z</time>
      </trkpt>
      <trkpt lat="42.5873370" lon="1.4809670">
        <ele>2075.2</ele>
        <time>2021-08-14T05:17:52Z</time>
      </trkpt>
      <trkpt lat="42.5873430" lon="1.4809720">
        <ele>2075.3</ele>
        <time>2021-08-14T05:17:53Z</time>
      </trkpt>
      <trkpt lat="42.5873480" lon="1.4809770">
        <ele>2075.4</ele>
        <time>2021-08-14T05:17:54Z</time>
      </trkpt>
      <trkpt lat="42.5873900" lon="1.4810300">
        <ele>2076.3</ele>
        <time>2021-08-14T05:18:15Z</time>
      </trkpt>
      <trkpt lat="42.5873880" lon="1.4810330">
        <ele>2076.3</ele>
        <time>2021-08-14T05:18:16Z</time>
      </trkpt>
      <trkpt lat="42.5873700" lon="1.4810430">
        <ele>2076.7</ele>
        <time>2021-08-14T05:18:34Z</time>
      </trkpt>
      <trkpt lat="42.5873660" lon="1.4810470">
        <ele>2076.7</ele>
        <time>2021-08-14T05:18:40Z</time>
      </trkpt>
      <trkpt lat="42.5873560" lon="1.4810260">
        <ele>2077.0</ele>
        <time>2021-08-14T05:18:46Z</time>
      </trkpt>
      <trkpt lat="42.5873010" lon="1.4808410">
        <ele>2079.2</ele>
        <time>2021-08-14T05:19:02Z</time>
      </trkpt>
      <trkpt lat="42.5873630" lon="1.4809600">
        <ele>2080.4</ele>
        <time>2021-08-14T05:19:44Z</time>
      </trkpt>
      <trkpt lat="42.5873710" lon="1.4809770">
        <ele>2080.6</ele>
        <time>2021-08-14T05:19:51Z</time>
      </trkpt>
      <trkpt lat="42.5873720" lon="1.4809760">
        <ele>2080.6</ele>
        <time>2021-08-14T05:19:53Z</time>
      </trkpt>
      <trkpt lat="42.5873720" lon="1.4809760">
        <ele>2080.6</ele>
        <time>2021-08-14T05:19:54Z</time>
      </trkpt>
      <trkpt lat="42.5873750" lon="1.4809750">
        <ele>2080.6</ele>
        <time>2021-08-14T05:19:55Z</time>
      </trkpt>
      <trkpt lat="42.5873850" lon="1.4809650">
        <ele>2080.8</ele>
        <time>2021-08-14T05:19:58Z</time>
      </trkpt>
      <trkpt lat="42.5873980" lon="1.4810060">
        <ele>2080.7</ele>
        <time>2021-08-14T05:20:05Z</time>
      </trkpt>
      <trkpt lat="42.5874370" lon="1.4811190">
        <ele>2079.0</ele>
        <time>2021-08-14T05:20:16Z</time>
      </trkpt>
      <trkpt lat="42.5874650" lon="1.4812280">
        <ele>2077.3</ele>
        <time>2021-08-14T05:20:27Z</time>
      </trkpt>
      <trkpt lat="42.5874950" lon="1.4813630">
        <ele>2075.2</ele>
        <time>2021-08-14T05:20:41Z</time>
      </trkpt>
      <trkpt lat="42.5874890" lon="1.4814290">
        <ele>2074.2</ele>
        <time>2021-08-14T05:20:47Z</time>
      </trkpt>
      <trkpt lat="42.5875260" lon="1.4815680">
        <ele>2072.2</ele>
        <time>2021-08-14T05:21:01Z</time>
      </trkpt>
      <trkpt lat="42.5875320" lon="1.4815910">
        <ele>2071.9</ele>
        <time>2021-08-14T05:21:03Z</time>
      </trkpt>
      <trkpt lat="42.5875390" lon="1.4816010">
        <ele>2071.7</ele>
        <time>2021-08-14T05:21:04Z</time>
      </trkpt>
      <trkpt lat="42.5875450" lon="1.4816140">
        <ele>2071.5</ele>
        <time>2021-08-14T05:21:05Z</time>
      </trkpt>
      <trkpt lat="42.5875550" lon="1.4816440">
        <ele>2071.1</ele>
        <time>2021-08-14T05:21:07Z</time>
      </trkpt>
      <trkpt lat="42.5876130" lon="1.4817480">
        <ele>2069.7</ele>
        <time>2021-08-14T05:21:17Z</time>
      </trkpt>
      <trkpt lat="42.5876290" lon="1.4817650">
        <ele>2069.4</ele>
        <time>2021-08-14T05:21:20Z</time>
      </trkpt>
      <trkpt lat="42.5877380" lon="1.4818570">
        <ele>2067.6</ele>
        <time>2021-08-14T05:21:37Z</time>
      </trkpt>
      <trkpt lat="42.5877360" lon="1.4818600">
        <ele>2067.5</ele>
        <time>2021-08-14T05:21:41Z</time>
      </trkpt>
      <trkpt lat="42.5878130" lon="1.4820000">
        <ele>2065.3</ele>
        <time>2021-08-14T05:22:09Z</time>
      </trkpt>
      <trkpt lat="42.5878150" lon="1.4820050">
        <ele>2065.2</ele>
        <time>2021-08-14T05:22:10Z</time>
      </trkpt>
      <trkpt lat="42.5878210" lon="1.4820200">
        <ele>2065.0</ele>
        <time>2021-08-14T05:22:13Z</time>
      </trkpt>
      <trkpt lat="42.5878240" lon="1.4820270">
        <ele>2064.9</ele>
        <time>2021-08-14T05:22:15Z</time>
      </trkpt>
      <trkpt lat="42.5878470" lon="1.4820690">
        <ele>2064.1</ele>
        <time>2021-08-14T05:22:21Z</time>
      </trkpt>
      <trkpt lat="42.5879590" lon="1.4822410">
        <ele>2061.3</ele>
        <time>2021-08-14T05:22:47Z</time>
      </trkpt>
      <trkpt lat="42.5880110" lon="1.4823430">
        <ele>2059.5</ele>
        <time>2021-08-14T05:23:03Z</time>
      </trkpt>
      <trkpt lat="42.5880140" lon="1.4823500">
        <ele>2059.4</ele>
        <time>2021-08-14T05:23:04Z</time>
      </trkpt>
      <trkpt lat="42.5880150" lon="1.4823590">
        <ele>2059.2</ele>
        <time>2021-08-14T05:23:05Z</time>
      </trkpt>
      <trkpt lat="42.5880170" lon="1.4823660">
        <ele>2059.1</ele>
        <time>2021-08-14T05:23:06Z</time>
      </trkpt>
      <trkpt lat="42.5880030" lon="1.4824080">
        <ele>2058.2</ele>
        <time>2021-08-14T05:23:12Z</time>
      </trkpt>
      <trkpt lat="42.5880020" lon="1.4824150">
        <ele>2058.1</ele>
        <time>2021-08-14T05:23:14Z</time>
      </trkpt>
      <trkpt lat="42.5880040" lon="1.4826150">
        <ele>2053.9</ele>
        <time>2021-08-14T05:23:46Z</time>
      </trkpt>
      <trkpt lat="42.5880860" lon="1.4828350">
        <ele>2049.7</ele>
        <time>2021-08-14T05:24:09Z</time>
      </trkpt>
      <trkpt lat="42.5881620" lon="1.4830610">
        <ele>2045.4</ele>
        <time>2021-08-14T05:24:36Z</time>
      </trkpt>
      <trkpt lat="42.5881820" lon="1.4831720">
        <ele>2043.6</ele>
        <time>2021-08-14T05:24:51Z</time>
      </trkpt>
      <trkpt lat="42.5881780" lon="1.4832000">
        <ele>2043.2</ele>
        <time>2021-08-14T05:24:56Z</time>
      </trkpt>
      <trkpt lat="42.5881770" lon="1.4834100">
        <ele>2040.8</ele>
        <time>2021-08-14T05:25:15Z</time>
      </trkpt>
      <trkpt lat="42.5881330" lon="1.4835760">
        <ele>2039.9</ele>
        <time>2021-08-14T05:25:27Z</time>
      </trkpt>
      <trkpt lat="42.5880770" lon="1.4837900">
        <ele>2039.2</ele>
        <time>2021-08-14T05:25:49Z</time>
      </trkpt>
      <trkpt lat="42.5880590" lon="1.4837920">
        <ele>2039.1</ele>
        <time>2021-08-14T05:26:11Z</time>
      </trkpt>
      <trkpt lat="42.5879650" lon="1.4838560">
        <ele>2038.7</ele>
        <time>2021-08-14T05:26:47Z</time>
      </trkpt>
      <trkpt lat="42.5878470" lon="1.4838850">
        <ele>2038.7</ele>
        <time>2021-08-14T05:27:07Z</time>
      </trkpt>
      <trkpt lat="42.5878050" lon="1.4838950">
        <ele>2038.8</ele>
        <time>2021-08-14T05:27:11Z</time>
      </trkpt>
      <trkpt lat="42.5877800" lon="1.4839470">
        <ele>2038.9</ele>
        <time>2021-08-14T05:27:16Z</time>
      </trkpt>
      <trkpt lat="42.5877440" lon="1.4840160">
        <ele>2039.2</ele>
        <time>2021-08-14T05:27:23Z</time>
      </trkpt>
      <trkpt lat="42.5876650" lon="1.4841660">
        <ele>2039.4</ele>
        <time>2021-08-14T05:27:39Z</time>
      </trkpt>
      <trkpt lat="42.5875390" lon="1.4843430">
        <ele>2039.5</ele>
        <time>2021-08-14T05:27:56Z</time>
      </trkpt>
      <trkpt lat="42.5874200" lon="1.4843960">
        <ele>2039.7</ele>
        <time>2021-08-14T05:28:14Z</time>
      </trkpt>
      <trkpt lat="42.5872690" lon="1.4845320">
        <ele>2039.7</ele>
        <time>2021-08-14T05:28:35Z</time>
      </trkpt>
      <trkpt lat="42.5871060" lon="1.4845680">
        <ele>2039.2</ele>
        <time>2021-08-14T05:28:55Z</time>
      </trkpt>
      <trkpt lat="42.5870540" lon="1.4845460">
        <ele>2039.0</ele>
        <time>2021-08-14T05:29:00Z</time>
      </trkpt>
      <trkpt lat="42.5870020" lon="1.4845340">
        <ele>2038.7</ele>
        <time>2021-08-14T05:29:04Z</time>
      </trkpt>
      <trkpt lat="42.5869850" lon="1.4845260">
        <ele>2038.7</ele>
        <time>2021-08-14T05:29:05Z</time>
      </trkpt>
      <trkpt lat="42.5869550" lon="1.4845270">
        <ele>2038.5</ele>
        <time>2021-08-14T05:29:07Z</time>
      </trkpt>
      <trkpt lat="42.5869350" lon="1.4845280">
        <ele>2038.4</ele>
        <time>2021-08-14T05:29:09Z</time>
      </trkpt>
      <trkpt lat="42.5869300" lon="1.4845290">
        <ele>2038.4</ele>
        <time>2021-08-14T05:29:10Z</time>
      </trkpt>
      <trkpt lat="42.5869210" lon="1.4845280">
        <ele>2038.3</ele>
        <time>2021-08-14T05:29:11Z</time>
      </trkpt>
      <trkpt lat="42.5869150" lon="1.4845160">
        <ele>2038.3</ele>
        <time>2021-08-14T05:29:12Z</time>
      </trkpt>
      <trkpt lat="42.5869020" lon="1.4845080">
        <ele>2038.2</ele>
        <time>2021-08-14T05:29:14Z</time>
      </trkpt>
      <trkpt lat="42.5868910" lon="1.4845010">
        <ele>2038.1</ele>
        <time>2021-08-14T05:29:16Z</time>
      </trkpt>
      <trkpt lat="42.5868670" lon="1.4844840">
        <ele>2037.9</ele>
        <time>2021-08-14T05:29:20Z</time>
      </trkpt>
      <trkpt lat="42.5868570" lon="1.4844830">
        <ele>2037.9</ele>
        <time>2021-08-14T05:29:21Z</time>
      </trkpt>
      <trkpt lat="42.5868440" lon="1.4844860">
        <ele>2037.8</ele>
        <time>2021-08-14T05:29:22Z</time>
      </trkpt>
      <trkpt lat="42.5866570" lon="1.4845180">
        <ele>2036.6</ele>
        <time>2021-08-14T05:29:39Z</time>
      </trkpt>
      <trkpt lat="42.5865230" lon="1.4845580">
        <ele>2035.6</ele>
        <time>2021-08-14T05:29:51Z</time>
      </trkpt>
      <trkpt lat="42.5864600" lon="1.4845650">
        <ele>2035.0</ele>
        <time>2021-08-14T05:29:59Z</time>
      </trkpt>
      <trkpt lat="42.5863460" lon="1.4845960">
        <ele>2033.6</ele>
        <time>2021-08-14T05:30:14Z</time>
      </trkpt>
      <trkpt lat="42.5863300" lon="1.4845860">
        <ele>2033.4</ele>
        <time>2021-08-14T05:30:23Z</time>
      </trkpt>
      <trkpt lat="42.5862980" lon="1.4846390">
        <ele>2032.8</ele>
        <time>2021-08-14T05:30:43Z</time>
      </trkpt>
      <trkpt lat="42.5861280" lon="1.4847080">
        <ele>2031.1</ele>
        <time>2021-08-14T05:31:09Z</time>
      </trkpt>
      <trkpt lat="42.5860740" lon="1.4847860">
        <ele>2030.5</ele>
        <time>2021-08-14T05:31:15Z</time>
      </trkpt>
      <trkpt lat="42.5860110" lon="1.4848680">
        <ele>2029.7</ele>
        <time>2021-08-14T05:31:22Z</time>
      </trkpt>
      <trkpt lat="42.5859700" lon="1.4849420">
        <ele>2028.9</ele>
        <time>2021-08-14T05:31:28Z</time>
      </trkpt>
      <trkpt lat="42.5857920" lon="1.4850330">
        <ele>2027.0</ele>
        <time>2021-08-14T05:31:48Z</time>
      </trkpt>
      <trkpt lat="42.5857470" lon="1.4850200">
        <ele>2026.6</ele>
        <time>2021-08-14T05:31:55Z</time>
      </trkpt>
      <trkpt lat="42.5856260" lon="1.4849940">
        <ele>2025.9</ele>
        <time>2021-08-14T05:32:57Z</time>
      </trkpt>
      <trkpt lat="42.5855170" lon="1.4850250">
        <ele>2025.5</ele>
        <time>2021-08-14T05:33:09Z</time>
      </trkpt>
      <trkpt lat="42.5854840" lon="1.4850330">
        <ele>2025.3</ele>
        <time>2021-08-14T05:33:12Z</time>
      </trkpt>
      <trkpt lat="42.5854540" lon="1.4850570">
        <ele>2025.1</ele>
        <time>2021-08-14T05:33:15Z</time>
      </trkpt>
      <trkpt lat="42.5854200" lon="1.4850840">
        <ele>2024.8</ele>
        <time>2021-08-14T05:33:19Z</time>
      </trkpt>
      <trkpt lat="42.5853580" lon="1.4851230">
        <ele>2024.3</ele>
        <time>2021-08-14T05:33:25Z</time>
      </trkpt>
      <trkpt lat="42.5852760" lon="1.4851470">
        <ele>2023.7</ele>
        <time>2021-08-14T05:33:33Z</time>
      </trkpt>
      <trkpt lat="42.5851770" lon="1.4852330">
        <ele>2023.1</ele>
        <time>2021-08-14T05:33:44Z</time>
      </trkpt>
      <trkpt lat="42.5851670" lon="1.4852380">
        <ele>2023.0</ele>
        <time>2021-08-14T05:33:45Z</time>
      </trkpt>
      <trkpt lat="42.5850270" lon="1.4853990">
        <ele>2022.1</ele>
        <time>2021-08-14T05:34:06Z</time>
      </trkpt>
      <trkpt lat="42.5849180" lon="1.4855920">
        <ele>2020.4</ele>
        <time>2021-08-14T05:34:27Z</time>
      </trkpt>
      <trkpt lat="42.5848050" lon="1.4857930">
        <ele>2018.2</ele>
        <time>2021-08-14T05:34:44Z</time>
      </trkpt>
      <trkpt lat="42.5846910" lon="1.4859960">
        <ele>2016.5</ele>
        <time>2021-08-14T05:35:01Z</time>
      </trkpt>
      <trkpt lat="42.5845550" lon="1.4861660">
        <ele>2014.2</ele>
        <time>2021-08-14T05:35:16Z</time>
      </trkpt>
      <trkpt lat="42.5845110" lon="1.4863230">
        <ele>2011.9</ele>
        <time>2021-08-14T05:35:33Z</time>
      </trkpt>
      <trkpt lat="42.5844950" lon="1.4863410">
        <ele>2011.5</ele>
        <time>2021-08-14T05:35:52Z</time>
      </trkpt>
      <trkpt lat="42.5845080" lon="1.4863450">
        <ele>2011.3</ele>
        <time>2021-08-14T05:36:01Z</time>
      </trkpt>
      <trkpt lat="42.5845380" lon="1.4863310">
        <ele>2010.7</ele>
        <time>2021-08-14T05:36:13Z</time>
      </trkpt>
      <trkpt lat="42.5845410" lon="1.4863320">
        <ele>2010.7</ele>
        <time>2021-08-14T05:36:14Z</time>
      </trkpt>
      <trkpt lat="42.5845410" lon="1.4863310">
        <ele>2010.7</ele>
        <time>2021-08-14T05:36:15Z</time>
      </trkpt>
      <trkpt lat="42.5845410" lon="1.4863320">
        <ele>2010.6</ele>
        <time>2021-08-14T05:36:16Z</time>
      </trkpt>
      <trkpt lat="42.5845350" lon="1.4863290">
        <ele>2010.5</ele>
        <time>2021-08-14T05:36:19Z</time>
      </trkpt>
      <trkpt lat="42.5844670" lon="1.4864950">
        <ele>2008.6</ele>
        <time>2021-08-14T05:36:45Z</time>
      </trkpt>
      <trkpt lat="42.5844660" lon="1.4865050">
        <ele>2008.5</ele>
        <time>2021-08-14T05:36:48Z</time>
      </trkpt>
      <trkpt lat="42.5844700" lon="1.4865170">
        <ele>2008.4</ele>
        <time>2021-08-14T05:36:53Z</time>
      </trkpt>
      <trkpt lat="42.5844710" lon="1.4865180">
        <ele>2008.4</ele>
        <time>2021-08-14T05:36:54Z</time>
      </trkpt>
      <trkpt lat="42.5844730" lon="1.4865180">
        <ele>2008.4</ele>
        <time>2021-08-14T05:36:57Z</time>
      </trkpt>
      <trkpt lat="42.5844700" lon="1.4865330">
        <ele>2008.3</ele>
        <time>2021-08-14T05:37:00Z</time>
      </trkpt>
      <trkpt lat="42.5843360" lon="1.4866290">
        <ele>2007.1</ele>
        <time>2021-08-14T05:37:16Z</time>
      </trkpt>
      <trkpt lat="42.5842880" lon="1.4866440">
        <ele>2006.9</ele>
        <time>2021-08-14T05:37:20Z</time>
      </trkpt>
      <trkpt lat="42.5842820" lon="1.4866500">
        <ele>2006.8</ele>
        <time>2021-08-14T05:37:21Z</time>
      </trkpt>
      <trkpt lat="42.5842780" lon="1.4866520">
        <ele>2006.8</ele>
        <time>2021-08-14T05:37:22Z</time>
      </trkpt>
      <trkpt lat="42.5842730" lon="1.4866540">
        <ele>2006.8</ele>
        <time>2021-08-14T05:37:23Z</time>
      </trkpt>
      <trkpt lat="42.5842680" lon="1.4866550">
        <ele>2006.7</ele>
        <time>2021-08-14T05:37:24Z</time>
      </trkpt>
      <trkpt lat="42.5842590" lon="1.4866600">
        <ele>2006.7</ele>
        <time>2021-08-14T05:37:27Z</time>
      </trkpt>
      <trkpt lat="42.5842570" lon="1.4866620">
        <ele>2006.7</ele>
        <time>2021-08-14T05:37:28Z</time>
      </trkpt>
      <trkpt lat="42.5842560" lon="1.4866680">
        <ele>2006.7</ele>
        <time>2021-08-14T05:37:30Z</time>
      </trkpt>
      <trkpt lat="42.5842530" lon="1.4866750">
        <ele>2006.6</ele>
        <time>2021-08-14T05:37:32Z</time>
      </trkpt>
      <trkpt lat="42.5842520" lon="1.4866750">
        <ele>2006.6</ele>
        <time>2021-08-14T05:37:33Z</time>
      </trkpt>
      <trkpt lat="42.5842500" lon="1.4866720">
        <ele>2006.6</ele>
        <time>2021-08-14T05:37:35Z</time>
      </trkpt>
      <trkpt lat="42.5842500" lon="1.4866740">
        <ele>2006.6</ele>
        <time>2021-08-14T05:37:36Z</time>
      </trkpt>
      <trkpt lat="42.5842500" lon="1.4866670">
        <ele>2006.6</ele>
        <time>2021-08-14T05:37:38Z</time>
      </trkpt>
      <trkpt lat="42.5842550" lon="1.4866630">
        <ele>2006.5</ele>
        <time>2021-08-14T05:37:39Z</time>
      </trkpt>
      <trkpt lat="42.5842030" lon="1.4866930">
        <ele>2006.3</ele>
        <time>2021-08-14T05:37:49Z</time>
      </trkpt>
      <trkpt lat="42.5841710" lon="1.4867160">
        <ele>2006.1</ele>
        <time>2021-08-14T05:37:53Z</time>
      </trkpt>
      <trkpt lat="42.5841340" lon="1.4867430">
        <ele>2005.9</ele>
        <time>2021-08-14T05:37:57Z</time>
      </trkpt>
      <trkpt lat="42.5841250" lon="1.4867510">
        <ele>2005.9</ele>
        <time>2021-08-14T05:37:58Z</time>
      </trkpt>
      <trkpt lat="42.5841160" lon="1.4867570">
        <ele>2005.8</ele>
        <time>2021-08-14T05:37:59Z</time>
      </trkpt>
      <trkpt lat="42.5841000" lon="1.4867670">
        <ele>2005.8</ele>
        <time>2021-08-14T05:38:01Z</time>
      </trkpt>
      <trkpt lat="42.5840770" lon="1.4867770">
        <ele>2005.6</ele>
        <time>2021-08-14T05:38:04Z</time>
      </trkpt>
      <trkpt lat="42.5840520" lon="1.4867930">
        <ele>2005.3</ele>
        <time>2021-08-14T05:38:07Z</time>
      </trkpt>
      <trkpt lat="42.5840440" lon="1.4867980">
        <ele>2005.3</ele>
        <time>2021-08-14T05:38:08Z</time>
      </trkpt>
      <trkpt lat="42.5840340" lon="1.4868030">
        <ele>2005.2</ele>
        <time>2021-08-14T05:38:09Z</time>
      </trkpt>
      <trkpt lat="42.5840020" lon="1.4868190">
        <ele>2004.9</ele>
        <time>2021-08-14T05:38:12Z</time>
      </trkpt>
      <trkpt lat="42.5839730" lon="1.4868290">
        <ele>2004.6</ele>
        <time>2021-08-14T05:38:15Z</time>
      </trkpt>
      <trkpt lat="42.5839190" lon="1.4868270">
        <ele>2004.1</ele>
        <time>2021-08-14T05:38:22Z</time>
      </trkpt>
      <trkpt lat="42.5839140" lon="1.4868280">
        <ele>2004.1</ele>
        <time>2021-08-14T05:38:23Z</time>
      </trkpt>
      <trkpt lat="42.5838900" lon="1.4868150">
        <ele>2003.8</ele>
        <time>2021-08-14T05:38:27Z</time>
      </trkpt>
      <trkpt lat="42.5838840" lon="1.4868090">
        <ele>2003.7</ele>
        <time>2021-08-14T05:38:28Z</time>
      </trkpt>
      <trkpt lat="42.5838680" lon="1.4867960">
        <ele>2003.5</ele>
        <time>2021-08-14T05:38:31Z</time>
      </trkpt>
      <trkpt lat="42.5838660" lon="1.4867930">
        <ele>2003.5</ele>
        <time>2021-08-14T05:38:32Z</time>
      </trkpt>
      <trkpt lat="42.5838550" lon="1.4867880">
        <ele>2003.4</ele>
        <time>2021-08-14T05:38:36Z</time>
      </trkpt>
      <trkpt lat="42.5838440" lon="1.4867880">
        <ele>2003.2</ele>
        <time>2021-08-14T05:38:47Z</time>
      </trkpt>
      <trkpt lat="42.5838220" lon="1.4867860">
        <ele>2003.0</ele>
        <time>2021-08-14T05:38:51Z</time>
      </trkpt>
      <trkpt lat="42.5837830" lon="1.4868040">
        <ele>2002.5</ele>
        <time>2021-08-14T05:38:55Z</time>
      </trkpt>
      <trkpt lat="42.5837340" lon="1.4868230">
        <ele>2001.9</ele>
        <time>2021-08-14T05:38:58Z</time>
      </trkpt>
      <trkpt lat="42.5836980" lon="1.4868570">
        <ele>2001.4</ele>
        <time>2021-08-14T05:39:02Z</time>
      </trkpt>
      <trkpt lat="42.5836480" lon="1.4869070">
        <ele>2000.8</ele>
        <time>2021-08-14T05:39:08Z</time>
      </trkpt>
      <trkpt lat="42.5835530" lon="1.4870340">
        <ele>1999.5</ele>
        <time>2021-08-14T05:39:23Z</time>
      </trkpt>
      <trkpt lat="42.5835050" lon="1.4871240">
        <ele>1998.9</ele>
        <time>2021-08-14T05:39:30Z</time>
      </trkpt>
      <trkpt lat="42.5834480" lon="1.4872170">
        <ele>1998.6</ele>
        <time>2021-08-14T05:39:40Z</time>
      </trkpt>
      <trkpt lat="42.5833480" lon="1.4874260">
        <ele>1999.2</ele>
        <time>2021-08-14T05:40:03Z</time>
      </trkpt>
      <trkpt lat="42.5832770" lon="1.4875020">
        <ele>1999.6</ele>
        <time>2021-08-14T05:40:15Z</time>
      </trkpt>
      <trkpt lat="42.5832480" lon="1.4875200">
        <ele>1999.7</ele>
        <time>2021-08-14T05:40:19Z</time>
      </trkpt>
      <trkpt lat="42.5832320" lon="1.4875270">
        <ele>1999.8</ele>
        <time>2021-08-14T05:40:22Z</time>
      </trkpt>
      <trkpt lat="42.5830870" lon="1.4876670">
        <ele>2000.4</ele>
        <time>2021-08-14T05:40:46Z</time>
      </trkpt>
      <trkpt lat="42.5829630" lon="1.4877410">
        <ele>2001.7</ele>
        <time>2021-08-14T05:41:08Z</time>
      </trkpt>
      <trkpt lat="42.5829290" lon="1.4877920">
        <ele>2002.3</ele>
        <time>2021-08-14T05:41:16Z</time>
      </trkpt>
      <trkpt lat="42.5829200" lon="1.4879250">
        <ele>2003.9</ele>
        <time>2021-08-14T05:41:33Z</time>
      </trkpt>
      <trkpt lat="42.5829210" lon="1.4880350">
        <ele>2005.3</ele>
        <time>2021-08-14T05:41:47Z</time>
      </trkpt>
      <trkpt lat="42.5829190" lon="1.4880460">
        <ele>2005.5</ele>
        <time>2021-08-14T05:41:48Z</time>
      </trkpt>
      <trkpt lat="42.5829180" lon="1.4881400">
        <ele>2006.7</ele>
        <time>2021-08-14T05:41:57Z</time>
      </trkpt>
      <trkpt lat="42.5829520" lon="1.4882980">
        <ele>2009.0</ele>
        <time>2021-08-14T05:42:10Z</time>
      </trkpt>
      <trkpt lat="42.5830810" lon="1.4884720">
        <ele>2011.6</ele>
        <time>2021-08-14T05:42:34Z</time>
      </trkpt>
      <trkpt lat="42.5831050" lon="1.4885300">
        <ele>2012.0</ele>
        <time>2021-08-14T05:42:39Z</time>
      </trkpt>
      <trkpt lat="42.5831590" lon="1.4886220">
        <ele>2012.7</ele>
        <time>2021-08-14T05:42:49Z</time>
      </trkpt>
      <trkpt lat="42.5831950" lon="1.4886860">
        <ele>2013.1</ele>
        <time>2021-08-14T05:42:58Z</time>
      </trkpt>
      <trkpt lat="42.5832200" lon="1.4889070">
        <ele>2014.7</ele>
        <time>2021-08-14T05:43:22Z</time>
      </trkpt>
      <trkpt lat="42.5831690" lon="1.4891430">
        <ele>2016.8</ele>
        <time>2021-08-14T05:43:41Z</time>
      </trkpt>
      <trkpt lat="42.5830470" lon="1.4893140">
        <ele>2020.1</ele>
        <time>2021-08-14T05:44:19Z</time>
      </trkpt>
      <trkpt lat="42.5829950" lon="1.4893130">
        <ele>2021.1</ele>
        <time>2021-08-14T05:44:29Z</time>
      </trkpt>
      <trkpt lat="42.5829900" lon="1.4893180">
        <ele>2021.2</ele>
        <time>2021-08-14T05:44:30Z</time>
      </trkpt>
      <trkpt lat="42.5829860" lon="1.4893260">
        <ele>2021.4</ele>
        <time>2021-08-14T05:44:31Z</time>
      </trkpt>
      <trkpt lat="42.5829550" lon="1.4893960">
        <ele>2022.6</ele>
        <time>2021-08-14T05:44:44Z</time>
      </trkpt>
      <trkpt lat="42.5828390" lon="1.4895940">
        <ele>2026.1</ele>
        <time>2021-08-14T05:45:19Z</time>
      </trkpt>
      <trkpt lat="42.5828060" lon="1.4896790">
        <ele>2027.2</ele>
        <time>2021-08-14T05:45:32Z</time>
      </trkpt>
      <trkpt lat="42.5828380" lon="1.4898060">
        <ele>2028.5</ele>
        <time>2021-08-14T05:45:42Z</time>
      </trkpt>
      <trkpt lat="42.5828280" lon="1.4898340">
        <ele>2028.8</ele>
        <time>2021-08-14T05:45:48Z</time>
      </trkpt>
      <trkpt lat="42.5828110" lon="1.4898620">
        <ele>2029.2</ele>
        <time>2021-08-14T05:45:51Z</time>
      </trkpt>
      <trkpt lat="42.5828040" lon="1.4898690">
        <ele>2029.3</ele>
        <time>2021-08-14T05:45:52Z</time>
      </trkpt>
      <trkpt lat="42.5828000" lon="1.4898830">
        <ele>2029.4</ele>
        <time>2021-08-14T05:45:53Z</time>
      </trkpt>
      <trkpt lat="42.5827990" lon="1.4899000">
        <ele>2029.5</ele>
        <time>2021-08-14T05:45:55Z</time>
      </trkpt>
      <trkpt lat="42.5828030" lon="1.4899370">
        <ele>2029.9</ele>
        <time>2021-08-14T05:46:03Z</time>
      </trkpt>
      <trkpt lat="42.5828040" lon="1.4899400">
        <ele>2029.9</ele>
        <time>2021-08-14T05:46:04Z</time>
      </trkpt>
      <trkpt lat="42.5827980" lon="1.4901890">
        <ele>2031.6</ele>
        <time>2021-08-14T05:46:29Z</time>
      </trkpt>
      <trkpt lat="42.5827310" lon="1.4904140">
        <ele>2032.4</ele>
        <time>2021-08-14T05:46:52Z</time>
      </trkpt>
      <trkpt lat="42.5827650" lon="1.4906640">
        <ele>2032.7</ele>
        <time>2021-08-14T05:47:13Z</time>
      </trkpt>
      <trkpt lat="42.5827490" lon="1.4907170">
        <ele>2032.9</ele>
        <time>2021-08-14T05:47:16Z</time>
      </trkpt>
      <trkpt lat="42.5826520" lon="1.4909350">
        <ele>2034.1</ele>
        <time>2021-08-14T05:47:36Z</time>
      </trkpt>
      <trkpt lat="42.5826290" lon="1.4910000">
        <ele>2034.4</ele>
        <time>2021-08-14T05:47:43Z</time>
      </trkpt>
      <trkpt lat="42.5826260" lon="1.4912490">
        <ele>2035.9</ele>
        <time>2021-08-14T05:48:04Z</time>
      </trkpt>
      <trkpt lat="42.5826100" lon="1.4914850">
        <ele>2038.0</ele>
        <time>2021-08-14T05:48:25Z</time>
      </trkpt>
      <trkpt lat="42.5825970" lon="1.4915570">
        <ele>2038.7</ele>
        <time>2021-08-14T05:48:30Z</time>
      </trkpt>
      <trkpt lat="42.5825080" lon="1.4917870">
        <ele>2040.5</ele>
        <time>2021-08-14T05:48:48Z</time>
      </trkpt>
      <trkpt lat="42.5824740" lon="1.4920230">
        <ele>2042.4</ele>
        <time>2021-08-14T05:49:18Z</time>
      </trkpt>
      <trkpt lat="42.5823950" lon="1.4920950">
        <ele>2043.2</ele>
        <time>2021-08-14T05:49:42Z</time>
      </trkpt>
      <trkpt lat="42.5823500" lon="1.4921190">
        <ele>2043.5</ele>
        <time>2021-08-14T05:49:49Z</time>
      </trkpt>
      <trkpt lat="42.5822980" lon="1.4921440">
        <ele>2043.9</ele>
        <time>2021-08-14T05:49:56Z</time>
      </trkpt>
      <trkpt lat="42.5821440" lon="1.4922730">
        <ele>2045.8</ele>
        <time>2021-08-14T05:50:25Z</time>
      </trkpt>
      <trkpt lat="42.5819790" lon="1.4922770">
        <ele>2048.0</ele>
        <time>2021-08-14T05:50:49Z</time>
      </trkpt>
      <trkpt lat="42.5819580" lon="1.4922990">
        <ele>2048.4</ele>
        <time>2021-08-14T05:50:53Z</time>
      </trkpt>
      <trkpt lat="42.5818020" lon="1.4924210">
        <ele>2051.1</ele>
        <time>2021-08-14T05:51:19Z</time>
      </trkpt>
      <trkpt lat="42.5817910" lon="1.4924230">
        <ele>2051.3</ele>
        <time>2021-08-14T05:51:21Z</time>
      </trkpt>
      <trkpt lat="42.5817860" lon="1.4924270">
        <ele>2051.4</ele>
        <time>2021-08-14T05:51:22Z</time>
      </trkpt>
      <trkpt lat="42.5816540" lon="1.4925220">
        <ele>2053.9</ele>
        <time>2021-08-14T05:51:54Z</time>
      </trkpt>
      <trkpt lat="42.5816290" lon="1.4925550">
        <ele>2054.6</ele>
        <time>2021-08-14T05:52:03Z</time>
      </trkpt>
      <trkpt lat="42.5815610" lon="1.4926190">
        <ele>2056.3</ele>
        <time>2021-08-14T05:52:15Z</time>
      </trkpt>
      <trkpt lat="42.5814560" lon="1.4926470">
        <ele>2058.7</ele>
        <time>2021-08-14T05:52:34Z</time>
      </trkpt>
      <trkpt lat="42.5812820" lon="1.4926690">
        <ele>2062.6</ele>
        <time>2021-08-14T05:53:03Z</time>
      </trkpt>
      <trkpt lat="42.5812260" lon="1.4926930">
        <ele>2063.9</ele>
        <time>2021-08-14T05:53:15Z</time>
      </trkpt>
      <trkpt lat="42.5811980" lon="1.4926810">
        <ele>2064.4</ele>
        <time>2021-08-14T05:53:19Z</time>
      </trkpt>
      <trkpt lat="42.5811670" lon="1.4926570">
        <ele>2065.1</ele>
        <time>2021-08-14T05:53:24Z</time>
      </trkpt>
      <trkpt lat="42.5811120" lon="1.4926310">
        <ele>2066.1</ele>
        <time>2021-08-14T05:53:38Z</time>
      </trkpt>
      <trkpt lat="42.5811000" lon="1.4926160">
        <ele>2066.3</ele>
        <time>2021-08-14T05:53:40Z</time>
      </trkpt>
      <trkpt lat="42.5810710" lon="1.4926280">
        <ele>2066.8</ele>
        <time>2021-08-14T05:53:46Z</time>
      </trkpt>
      <trkpt lat="42.5809360" lon="1.4927930">
        <ele>2069.1</ele>
        <time>2021-08-14T05:54:15Z</time>
      </trkpt>
      <trkpt lat="42.5809170" lon="1.4928350">
        <ele>2069.5</ele>
        <time>2021-08-14T05:54:21Z</time>
      </trkpt>
      <trkpt lat="42.5808840" lon="1.4928990">
        <ele>2070.0</ele>
        <time>2021-08-14T05:54:34Z</time>
      </trkpt>
      <trkpt lat="42.5808840" lon="1.4929070">
        <ele>2070.1</ele>
        <time>2021-08-14T05:54:35Z</time>
      </trkpt>
      <trkpt lat="42.5808840" lon="1.4929150">
        <ele>2070.1</ele>
        <time>2021-08-14T05:54:36Z</time>
      </trkpt>
      <trkpt lat="42.5808860" lon="1.4929220">
        <ele>2070.2</ele>
        <time>2021-08-14T05:54:37Z</time>
      </trkpt>
      <trkpt lat="42.5808880" lon="1.4929270">
        <ele>2070.2</ele>
        <time>2021-08-14T05:54:38Z</time>
      </trkpt>
      <trkpt lat="42.5808950" lon="1.4929470">
        <ele>2070.4</ele>
        <time>2021-08-14T05:54:42Z</time>
      </trkpt>
      <trkpt lat="42.5808950" lon="1.4929540">
        <ele>2070.4</ele>
        <time>2021-08-14T05:54:43Z</time>
      </trkpt>
      <trkpt lat="42.5808970" lon="1.4929590">
        <ele>2070.5</ele>
        <time>2021-08-14T05:54:44Z</time>
      </trkpt>
      <trkpt lat="42.5808850" lon="1.4929560">
        <ele>2070.6</ele>
        <time>2021-08-14T05:54:47Z</time>
      </trkpt>
      <trkpt lat="42.5808660" lon="1.4929790">
        <ele>2070.9</ele>
        <time>2021-08-14T05:54:49Z</time>
      </trkpt>
      <trkpt lat="42.5808510" lon="1.4929930">
        <ele>2071.1</ele>
        <time>2021-08-14T05:54:50Z</time>
      </trkpt>
      <trkpt lat="42.5808420" lon="1.4930050">
        <ele>2071.2</ele>
        <time>2021-08-14T05:54:51Z</time>
      </trkpt>
      <trkpt lat="42.5808300" lon="1.4930150">
        <ele>2071.4</ele>
        <time>2021-08-14T05:54:52Z</time>
      </trkpt>
      <trkpt lat="42.5807970" lon="1.4930580">
        <ele>2072.0</ele>
        <time>2021-08-14T05:54:57Z</time>
      </trkpt>
      <trkpt lat="42.5807940" lon="1.4930710">
        <ele>2072.1</ele>
        <time>2021-08-14T05:54:58Z</time>
      </trkpt>
      <trkpt lat="42.5807710" lon="1.4931790">
        <ele>2073.0</ele>
        <time>2021-08-14T05:55:08Z</time>
      </trkpt>
      <trkpt lat="42.5807590" lon="1.4932310">
        <ele>2073.5</ele>
        <time>2021-08-14T05:55:14Z</time>
      </trkpt>
      <trkpt lat="42.5807510" lon="1.4932850">
        <ele>2073.9</ele>
        <time>2021-08-14T05:55:21Z</time>
      </trkpt>
      <trkpt lat="42.5807530" lon="1.4933050">
        <ele>2074.1</ele>
        <time>2021-08-14T05:55:26Z</time>
      </trkpt>
      <trkpt lat="42.5807260" lon="1.4933360">
        <ele>2074.6</ele>
        <time>2021-08-14T05:55:33Z</time>
      </trkpt>
      <trkpt lat="42.5807320" lon="1.4934420">
        <ele>2075.9</ele>
        <time>2021-08-14T05:55:44Z</time>
      </trkpt>
      <trkpt lat="42.5806450" lon="1.4936660">
        <ele>2080.1</ele>
        <time>2021-08-14T05:56:06Z</time>
      </trkpt>
      <trkpt lat="42.5806430" lon="1.4937220">
        <ele>2081.2</ele>
        <time>2021-08-14T05:56:12Z</time>
      </trkpt>
      <trkpt lat="42.5806740" lon="1.4938320">
        <ele>2083.5</ele>
        <time>2021-08-14T05:56:25Z</time>
      </trkpt>
      <trkpt lat="42.5806650" lon="1.4939310">
        <ele>2085.6</ele>
        <time>2021-08-14T05:57:00Z</time>
      </trkpt>
      <trkpt lat="42.5806520" lon="1.4939880">
        <ele>2086.8</ele>
        <time>2021-08-14T05:57:12Z</time>
      </trkpt>
      <trkpt lat="42.5806690" lon="1.4942190">
        <ele>2091.2</ele>
        <time>2021-08-14T05:57:50Z</time>
      </trkpt>
      <trkpt lat="42.5807280" lon="1.4944540">
        <ele>2096.0</ele>
        <time>2021-08-14T05:58:29Z</time>
      </trkpt>
      <trkpt lat="42.5807250" lon="1.4944650">
        <ele>2096.2</ele>
        <time>2021-08-14T05:58:30Z</time>
      </trkpt>
      <trkpt lat="42.5807410" lon="1.4947110">
        <ele>2100.0</ele>
        <time>2021-08-14T05:58:49Z</time>
      </trkpt>
      <trkpt lat="42.5807300" lon="1.4947780">
        <ele>2100.8</ele>
        <time>2021-08-14T05:58:57Z</time>
      </trkpt>
      <trkpt lat="42.5807220" lon="1.4948010">
        <ele>2101.1</ele>
        <time>2021-08-14T05:58:59Z</time>
      </trkpt>
      <trkpt lat="42.5806950" lon="1.4948410">
        <ele>2101.7</ele>
        <time>2021-08-14T05:59:02Z</time>
      </trkpt>
      <trkpt lat="42.5806450" lon="1.4949310">
        <ele>2103.2</ele>
        <time>2021-08-14T05:59:12Z</time>
      </trkpt>
      <trkpt lat="42.5806250" lon="1.4949830">
        <ele>2104.0</ele>
        <time>2021-08-14T05:59:19Z</time>
      </trkpt>
      <trkpt lat="42.5806180" lon="1.4950240">
        <ele>2104.7</ele>
        <time>2021-08-14T05:59:23Z</time>
      </trkpt>
      <trkpt lat="42.5806060" lon="1.4950510">
        <ele>2105.2</ele>
        <time>2021-08-14T05:59:26Z</time>
      </trkpt>
      <trkpt lat="42.5805460" lon="1.4952860">
        <ele>2109.7</ele>
        <time>2021-08-14T06:00:01Z</time>
      </trkpt>
      <trkpt lat="42.5805390" lon="1.4953030">
        <ele>2110.0</ele>
        <time>2021-08-14T06:00:04Z</time>
      </trkpt>
      <trkpt lat="42.5805360" lon="1.4953100">
        <ele>2110.2</ele>
        <time>2021-08-14T06:00:05Z</time>
      </trkpt>
      <trkpt lat="42.5805190" lon="1.4953540">
        <ele>2111.0</ele>
        <time>2021-08-14T06:00:11Z</time>
      </trkpt>
      <trkpt lat="42.5805000" lon="1.4954070">
        <ele>2111.9</ele>
        <time>2021-08-14T06:00:17Z</time>
      </trkpt>
      <trkpt lat="42.5804820" lon="1.4954530">
        <ele>2112.6</ele>
        <time>2021-08-14T06:00:21Z</time>
      </trkpt>
      <trkpt lat="42.5804430" lon="1.4954610">
        <ele>2113.2</ele>
        <time>2021-08-14T06:00:32Z</time>
      </trkpt>
      <trkpt lat="42.5804960" lon="1.4955560">
        <ele>2114.6</ele>
        <time>2021-08-14T06:01:04Z</time>
      </trkpt>
      <trkpt lat="42.5804780" lon="1.4955710">
        <ele>2114.9</ele>
        <time>2021-08-14T06:01:25Z</time>
      </trkpt>
      <trkpt lat="42.5803460" lon="1.4957290">
        <ele>2117.2</ele>
        <time>2021-08-14T06:01:56Z</time>
      </trkpt>
      <trkpt lat="42.5803330" lon="1.4957520">
        <ele>2117.4</ele>
        <time>2021-08-14T06:01:59Z</time>
      </trkpt>
      <trkpt lat="42.5803060" lon="1.4957930">
        <ele>2117.9</ele>
        <time>2021-08-14T06:02:04Z</time>
      </trkpt>
      <trkpt lat="42.5802660" lon="1.4958060">
        <ele>2118.3</ele>
        <time>2021-08-14T06:02:09Z</time>
      </trkpt>
      <trkpt lat="42.5802420" lon="1.4958030">
        <ele>2118.6</ele>
        <time>2021-08-14T06:02:13Z</time>
      </trkpt>
      <trkpt lat="42.5802010" lon="1.4958130">
        <ele>2119.1</ele>
        <time>2021-08-14T06:02:16Z</time>
      </trkpt>
      <trkpt lat="42.5801740" lon="1.4958160">
        <ele>2119.5</ele>
        <time>2021-08-14T06:02:18Z</time>
      </trkpt>
      <trkpt lat="42.5801660" lon="1.4958300">
        <ele>2119.7</ele>
        <time>2021-08-14T06:02:19Z</time>
      </trkpt>
      <trkpt lat="42.5801500" lon="1.4958440">
        <ele>2120.0</ele>
        <time>2021-08-14T06:02:21Z</time>
      </trkpt>
      <trkpt lat="42.5801330" lon="1.4958420">
        <ele>2120.3</ele>
        <time>2021-08-14T06:02:23Z</time>
      </trkpt>
      <trkpt lat="42.5801280" lon="1.4958510">
        <ele>2120.5</ele>
        <time>2021-08-14T06:02:24Z</time>
      </trkpt>
      <trkpt lat="42.5801220" lon="1.4958710">
        <ele>2120.8</ele>
        <time>2021-08-14T06:02:26Z</time>
      </trkpt>
      <trkpt lat="42.5801030" lon="1.4958850">
        <ele>2121.2</ele>
        <time>2021-08-14T06:02:30Z</time>
      </trkpt>
      <trkpt lat="42.5800920" lon="1.4958990">
        <ele>2121.5</ele>
        <time>2021-08-14T06:02:32Z</time>
      </trkpt>
      <trkpt lat="42.5800730" lon="1.4959240">
        <ele>2122.1</ele>
        <time>2021-08-14T06:02:36Z</time>
      </trkpt>
      <trkpt lat="42.5800660" lon="1.4959350">
        <ele>2122.4</ele>
        <time>2021-08-14T06:02:38Z</time>
      </trkpt>
      <trkpt lat="42.5800000" lon="1.4960240">
        <ele>2124.7</ele>
        <time>2021-08-14T06:02:55Z</time>
      </trkpt>
      <trkpt lat="42.5799800" lon="1.4960500">
        <ele>2125.5</ele>
        <time>2021-08-14T06:03:04Z</time>
      </trkpt>
      <trkpt lat="42.5799690" lon="1.4960770">
        <ele>2126.2</ele>
        <time>2021-08-14T06:03:11Z</time>
      </trkpt>
      <trkpt lat="42.5799380" lon="1.4960830">
        <ele>2127.2</ele>
        <time>2021-08-14T06:03:16Z</time>
      </trkpt>
      <trkpt lat="42.5799310" lon="1.4960850">
        <ele>2127.4</ele>
        <time>2021-08-14T06:03:17Z</time>
      </trkpt>
      <trkpt lat="42.5799250" lon="1.4960820">
        <ele>2127.6</ele>
        <time>2021-08-14T06:03:18Z</time>
      </trkpt>
      <trkpt lat="42.5799190" lon="1.4960770">
        <ele>2127.8</ele>
        <time>2021-08-14T06:03:19Z</time>
      </trkpt>
      <trkpt lat="42.5798880" lon="1.4960960">
        <ele>2129.0</ele>
        <time>2021-08-14T06:03:25Z</time>
      </trkpt>
      <trkpt lat="42.5797930" lon="1.4963040">
        <ele>2134.6</ele>
        <time>2021-08-14T06:03:56Z</time>
      </trkpt>
      <trkpt lat="42.5797240" lon="1.4963280">
        <ele>2136.4</ele>
        <time>2021-08-14T06:04:20Z</time>
      </trkpt>
      <trkpt lat="42.5795850" lon="1.4964400">
        <ele>2139.4</ele>
        <time>2021-08-14T06:04:49Z</time>
      </trkpt>
      <trkpt lat="42.5794220" lon="1.4965400">
        <ele>2141.4</ele>
        <time>2021-08-14T06:05:21Z</time>
      </trkpt>
      <trkpt lat="42.5793840" lon="1.4965670">
        <ele>2141.7</ele>
        <time>2021-08-14T06:05:29Z</time>
      </trkpt>
      <trkpt lat="42.5792070" lon="1.4966170">
        <ele>2141.9</ele>
        <time>2021-08-14T06:05:57Z</time>
      </trkpt>
      <trkpt lat="42.5790760" lon="1.4967530">
        <ele>2140.9</ele>
        <time>2021-08-14T06:06:35Z</time>
      </trkpt>
      <trkpt lat="42.5790520" lon="1.4967610">
        <ele>2140.7</ele>
        <time>2021-08-14T06:06:40Z</time>
      </trkpt>
      <trkpt lat="42.5789610" lon="1.4968490">
        <ele>2138.4</ele>
        <time>2021-08-14T06:15:30Z</time>
      </trkpt>
      <trkpt lat="42.5789620" lon="1.4968560">
        <ele>2138.3</ele>
        <time>2021-08-14T06:15:31Z</time>
      </trkpt>
      <trkpt lat="42.5789620" lon="1.4968720">
        <ele>2138.0</ele>
        <time>2021-08-14T06:15:33Z</time>
      </trkpt>
      <trkpt lat="42.5789890" lon="1.4970160">
        <ele>2135.0</ele>
        <time>2021-08-14T06:15:49Z</time>
      </trkpt>
      <trkpt lat="42.5789940" lon="1.4970390">
        <ele>2134.4</ele>
        <time>2021-08-14T06:15:51Z</time>
      </trkpt>
      <trkpt lat="42.5789970" lon="1.4970480">
        <ele>2134.2</ele>
        <time>2021-08-14T06:15:52Z</time>
      </trkpt>
      <trkpt lat="42.5789970" lon="1.4970560">
        <ele>2134.0</ele>
        <time>2021-08-14T06:15:53Z</time>
      </trkpt>
      <trkpt lat="42.5789990" lon="1.4970700">
        <ele>2133.7</ele>
        <time>2021-08-14T06:15:55Z</time>
      </trkpt>
      <trkpt lat="42.5789880" lon="1.4970950">
        <ele>2132.9</ele>
        <time>2021-08-14T06:16:00Z</time>
      </trkpt>
      <trkpt lat="42.5789520" lon="1.4971120">
        <ele>2131.5</ele>
        <time>2021-08-14T06:16:06Z</time>
      </trkpt>
      <trkpt lat="42.5788970" lon="1.4971100">
        <ele>2129.3</ele>
        <time>2021-08-14T06:16:20Z</time>
      </trkpt>
      <trkpt lat="42.5788930" lon="1.4971730">
        <ele>2127.4</ele>
        <time>2021-08-14T06:16:35Z</time>
      </trkpt>
      <trkpt lat="42.5788930" lon="1.4971760">
        <ele>2127.3</ele>
        <time>2021-08-14T06:16:36Z</time>
      </trkpt>
      <trkpt lat="42.5788700" lon="1.4971960">
        <ele>2126.0</ele>
        <time>2021-08-14T06:16:45Z</time>
      </trkpt>
      <trkpt lat="42.5788650" lon="1.4972120">
        <ele>2125.5</ele>
        <time>2021-08-14T06:16:52Z</time>
      </trkpt>
      <trkpt lat="42.5786920" lon="1.4972080">
        <ele>2117.9</ele>
        <time>2021-08-14T06:17:33Z</time>
      </trkpt>
      <trkpt lat="42.5786530" lon="1.4970530">
        <ele>2113.3</ele>
        <time>2021-08-14T06:18:24Z</time>
      </trkpt>
      <trkpt lat="42.5786520" lon="1.4970440">
        <ele>2113.1</ele>
        <time>2021-08-14T06:18:30Z</time>
      </trkpt>
      <trkpt lat="42.5786130" lon="1.4971420">
        <ele>2110.5</ele>
        <time>2021-08-14T06:20:01Z</time>
      </trkpt>
      <trkpt lat="42.5786120" lon="1.4971370">
        <ele>2110.4</ele>
        <time>2021-08-14T06:20:02Z</time>
      </trkpt>
      <trkpt lat="42.5786070" lon="1.4971280">
        <ele>2110.1</ele>
        <time>2021-08-14T06:20:07Z</time>
      </trkpt>
      <trkpt lat="42.5785980" lon="1.4971280">
        <ele>2109.9</ele>
        <time>2021-08-14T06:20:11Z</time>
      </trkpt>
      <trkpt lat="42.5785940" lon="1.4971590">
        <ele>2109.2</ele>
        <time>2021-08-14T06:20:17Z</time>
      </trkpt>
      <trkpt lat="42.5785970" lon="1.4971650">
        <ele>2109.1</ele>
        <time>2021-08-14T06:20:19Z</time>
      </trkpt>
      <trkpt lat="42.5785970" lon="1.4971650">
        <ele>2109.1</ele>
        <time>2021-08-14T06:20:20Z</time>
      </trkpt>
      <trkpt lat="42.5785960" lon="1.4971680">
        <ele>2109.0</ele>
        <time>2021-08-14T06:20:21Z</time>
      </trkpt>
      <trkpt lat="42.5785860" lon="1.4971880">
        <ele>2108.5</ele>
        <time>2021-08-14T06:20:24Z</time>
      </trkpt>
      <trkpt lat="42.5785700" lon="1.4971840">
        <ele>2108.1</ele>
        <time>2021-08-14T06:20:28Z</time>
      </trkpt>
      <trkpt lat="42.5785440" lon="1.4972000">
        <ele>2107.5</ele>
        <time>2021-08-14T06:20:33Z</time>
      </trkpt>
      <trkpt lat="42.5785450" lon="1.4973570">
        <ele>2104.7</ele>
        <time>2021-08-14T06:20:49Z</time>
      </trkpt>
      <trkpt lat="42.5785390" lon="1.4973910">
        <ele>2104.0</ele>
        <time>2021-08-14T06:20:53Z</time>
      </trkpt>
      <trkpt lat="42.5785370" lon="1.4974130">
        <ele>2103.6</ele>
        <time>2021-08-14T06:20:55Z</time>
      </trkpt>
      <trkpt lat="42.5785330" lon="1.4974610">
        <ele>2102.5</ele>
        <time>2021-08-14T06:21:00Z</time>
      </trkpt>
      <trkpt lat="42.5785210" lon="1.4974920">
        <ele>2101.7</ele>
        <time>2021-08-14T06:21:06Z</time>
      </trkpt>
      <trkpt lat="42.5785180" lon="1.4975010">
        <ele>2101.5</ele>
        <time>2021-08-14T06:21:07Z</time>
      </trkpt>
      <trkpt lat="42.5785150" lon="1.4975100">
        <ele>2101.2</ele>
        <time>2021-08-14T06:21:08Z</time>
      </trkpt>
      <trkpt lat="42.5785180" lon="1.4975230">
        <ele>2100.8</ele>
        <time>2021-08-14T06:21:09Z</time>
      </trkpt>
      <trkpt lat="42.5785210" lon="1.4975350">
        <ele>2100.5</ele>
        <time>2021-08-14T06:21:10Z</time>
      </trkpt>
      <trkpt lat="42.5785040" lon="1.4975820">
        <ele>2099.1</ele>
        <time>2021-08-14T06:21:14Z</time>
      </trkpt>
      <trkpt lat="42.5785070" lon="1.4975910">
        <ele>2098.8</ele>
        <time>2021-08-14T06:21:15Z</time>
      </trkpt>
      <trkpt lat="42.5785050" lon="1.4976130">
        <ele>2098.2</ele>
        <time>2021-08-14T06:21:19Z</time>
      </trkpt>
      <trkpt lat="42.5785050" lon="1.4976180">
        <ele>2098.1</ele>
        <time>2021-08-14T06:21:20Z</time>
      </trkpt>
      <trkpt lat="42.5785090" lon="1.4976250">
        <ele>2097.8</ele>
        <time>2021-08-14T06:21:21Z</time>
      </trkpt>
      <trkpt lat="42.5785100" lon="1.4976300">
        <ele>2097.7</ele>
        <time>2021-08-14T06:21:22Z</time>
      </trkpt>
      <trkpt lat="42.5785030" lon="1.4976370">
        <ele>2097.3</ele>
        <time>2021-08-14T06:21:25Z</time>
      </trkpt>
      <trkpt lat="42.5785010" lon="1.4976430">
        <ele>2097.1</ele>
        <time>2021-08-14T06:21:27Z</time>
      </trkpt>
      <trkpt lat="42.5785000" lon="1.4976490">
        <ele>2097.0</ele>
        <time>2021-08-14T06:21:28Z</time>
      </trkpt>
      <trkpt lat="42.5784950" lon="1.4976540">
        <ele>2096.7</ele>
        <time>2021-08-14T06:21:29Z</time>
      </trkpt>
      <trkpt lat="42.5784920" lon="1.4977240">
        <ele>2094.6</ele>
        <time>2021-08-14T06:21:42Z</time>
      </trkpt>
      <trkpt lat="42.5784840" lon="1.4978450">
        <ele>2090.9</ele>
        <time>2021-08-14T06:22:01Z</time>
      </trkpt>
      <trkpt lat="42.5784550" lon="1.4980800">
        <ele>2082.9</ele>
        <time>2021-08-14T06:22:40Z</time>
      </trkpt>
      <trkpt lat="42.5783810" lon="1.4981230">
        <ele>2079.2</ele>
        <time>2021-08-14T06:23:02Z</time>
      </trkpt>
      <trkpt lat="42.5783720" lon="1.4981180">
        <ele>2078.7</ele>
        <time>2021-08-14T06:23:06Z</time>
      </trkpt>
      <trkpt lat="42.5783710" lon="1.4981200">
        <ele>2078.6</ele>
        <time>2021-08-14T06:23:07Z</time>
      </trkpt>
      <trkpt lat="42.5783690" lon="1.4981240">
        <ele>2078.5</ele>
        <time>2021-08-14T06:23:08Z</time>
      </trkpt>
      <trkpt lat="42.5783670" lon="1.4981270">
        <ele>2078.3</ele>
        <time>2021-08-14T06:23:09Z</time>
      </trkpt>
      <trkpt lat="42.5783610" lon="1.4981470">
        <ele>2077.6</ele>
        <time>2021-08-14T06:23:13Z</time>
      </trkpt>
      <trkpt lat="42.5783340" lon="1.4981490">
        <ele>2076.3</ele>
        <time>2021-08-14T06:23:16Z</time>
      </trkpt>
      <trkpt lat="42.5782820" lon="1.4982780">
        <ele>2071.5</ele>
        <time>2021-08-14T06:23:38Z</time>
      </trkpt>
      <trkpt lat="42.5782180" lon="1.4982670">
        <ele>2068.8</ele>
        <time>2021-08-14T06:23:47Z</time>
      </trkpt>
      <trkpt lat="42.5782120" lon="1.4982640">
        <ele>2068.5</ele>
        <time>2021-08-14T06:23:48Z</time>
      </trkpt>
      <trkpt lat="42.5782070" lon="1.4982590">
        <ele>2068.2</ele>
        <time>2021-08-14T06:23:49Z</time>
      </trkpt>
      <trkpt lat="42.5781930" lon="1.4982480">
        <ele>2067.5</ele>
        <time>2021-08-14T06:23:58Z</time>
      </trkpt>
      <trkpt lat="42.5781930" lon="1.4982470">
        <ele>2067.5</ele>
        <time>2021-08-14T06:23:59Z</time>
      </trkpt>
      <trkpt lat="42.5780810" lon="1.4983880">
        <ele>2061.1</ele>
        <time>2021-08-14T06:24:44Z</time>
      </trkpt>
      <trkpt lat="42.5779700" lon="1.4983960">
        <ele>2056.5</ele>
        <time>2021-08-14T06:25:02Z</time>
      </trkpt>
      <trkpt lat="42.5779200" lon="1.4984180">
        <ele>2054.4</ele>
        <time>2021-08-14T06:25:09Z</time>
      </trkpt>
      <trkpt lat="42.5778960" lon="1.4984270">
        <ele>2053.4</ele>
        <time>2021-08-14T06:25:15Z</time>
      </trkpt>
      <trkpt lat="42.5778780" lon="1.4984520">
        <ele>2052.4</ele>
        <time>2021-08-14T06:25:22Z</time>
      </trkpt>
      <trkpt lat="42.5778700" lon="1.4985200">
        <ele>2050.4</ele>
        <time>2021-08-14T06:25:31Z</time>
      </trkpt>
      <trkpt lat="42.5778800" lon="1.4986860">
        <ele>2046.3</ele>
        <time>2021-08-14T06:25:47Z</time>
      </trkpt>
      <trkpt lat="42.5778840" lon="1.4987040">
        <ele>2045.8</ele>
        <time>2021-08-14T06:25:49Z</time>
      </trkpt>
      <trkpt lat="42.5779300" lon="1.4989440">
        <ele>2040.7</ele>
        <time>2021-08-14T06:26:22Z</time>
      </trkpt>
      <trkpt lat="42.5779170" lon="1.4991270">
        <ele>2036.2</ele>
        <time>2021-08-14T06:26:32Z</time>
      </trkpt>
      <trkpt lat="42.5777620" lon="1.4990180">
        <ele>2030.2</ele>
        <time>2021-08-14T06:27:05Z</time>
      </trkpt>
      <trkpt lat="42.5776220" lon="1.4988670">
        <ele>2025.1</ele>
        <time>2021-08-14T06:27:26Z</time>
      </trkpt>
      <trkpt lat="42.5775870" lon="1.4988540">
        <ele>2024.1</ele>
        <time>2021-08-14T06:27:34Z</time>
      </trkpt>
      <trkpt lat="42.5775760" lon="1.4988120">
        <ele>2023.2</ele>
        <time>2021-08-14T06:27:44Z</time>
      </trkpt>
      <trkpt lat="42.5775760" lon="1.4988100">
        <ele>2023.1</ele>
        <time>2021-08-14T06:27:48Z</time>
      </trkpt>
      <trkpt lat="42.5775750" lon="1.4988090">
        <ele>2023.1</ele>
        <time>2021-08-14T06:27:50Z</time>
      </trkpt>
      <trkpt lat="42.5775720" lon="1.4988100">
        <ele>2023.0</ele>
        <time>2021-08-14T06:27:51Z</time>
      </trkpt>
      <trkpt lat="42.5775700" lon="1.4988090">
        <ele>2022.9</ele>
        <time>2021-08-14T06:27:52Z</time>
      </trkpt>
      <trkpt lat="42.5775670" lon="1.4988110">
        <ele>2022.8</ele>
        <time>2021-08-14T06:27:53Z</time>
      </trkpt>
      <trkpt lat="42.5775110" lon="1.4988140">
        <ele>2021.0</ele>
        <time>2021-08-14T06:28:07Z</time>
      </trkpt>
      <trkpt lat="42.5774400" lon="1.4988730">
        <ele>2017.9</ele>
        <time>2021-08-14T06:28:17Z</time>
      </trkpt>
      <trkpt lat="42.5774230" lon="1.4988840">
        <ele>2017.1</ele>
        <time>2021-08-14T06:28:21Z</time>
      </trkpt>
      <trkpt lat="42.5773280" lon="1.4990250">
        <ele>2010.8</ele>
        <time>2021-08-14T06:28:43Z</time>
      </trkpt>
      <trkpt lat="42.5772330" lon="1.4990140">
        <ele>2006.6</ele>
        <time>2021-08-14T06:29:06Z</time>
      </trkpt>
      <trkpt lat="42.5772260" lon="1.4991850">
        <ele>2001.6</ele>
        <time>2021-08-14T06:29:40Z</time>
      </trkpt>
      <trkpt lat="42.5772160" lon="1.4992160">
        <ele>2000.7</ele>
        <time>2021-08-14T06:29:45Z</time>
      </trkpt>
      <trkpt lat="42.5771940" lon="1.4992440">
        <ele>1999.7</ele>
        <time>2021-08-14T06:29:51Z</time>
      </trkpt>
      <trkpt lat="42.5771920" lon="1.4992490">
        <ele>1999.5</ele>
        <time>2021-08-14T06:29:52Z</time>
      </trkpt>
      <trkpt lat="42.5771900" lon="1.4992550">
        <ele>1999.3</ele>
        <time>2021-08-14T06:29:53Z</time>
      </trkpt>
      <trkpt lat="42.5771900" lon="1.4992610">
        <ele>1999.2</ele>
        <time>2021-08-14T06:29:54Z</time>
      </trkpt>
      <trkpt lat="42.5771900" lon="1.4992640">
        <ele>1999.1</ele>
        <time>2021-08-14T06:29:55Z</time>
      </trkpt>
      <trkpt lat="42.5771890" lon="1.4992660">
        <ele>1999.1</ele>
        <time>2021-08-14T06:29:56Z</time>
      </trkpt>
      <trkpt lat="42.5771820" lon="1.4992800">
        <ele>1998.6</ele>
        <time>2021-08-14T06:30:00Z</time>
      </trkpt>
      <trkpt lat="42.5771840" lon="1.4992860">
        <ele>1998.4</ele>
        <time>2021-08-14T06:30:01Z</time>
      </trkpt>
      <trkpt lat="42.5771750" lon="1.4993250">
        <ele>1997.3</ele>
        <time>2021-08-14T06:30:04Z</time>
      </trkpt>
      <trkpt lat="42.5771740" lon="1.4993350">
        <ele>1997.1</ele>
        <time>2021-08-14T06:30:05Z</time>
      </trkpt>
      <trkpt lat="42.5771520" lon="1.4993750">
        <ele>1995.7</ele>
        <time>2021-08-14T06:30:09Z</time>
      </trkpt>
      <trkpt lat="42.5771420" lon="1.4993870">
        <ele>1995.1</ele>
        <time>2021-08-14T06:30:11Z</time>
      </trkpt>
      <trkpt lat="42.5770700" lon="1.4994590">
        <ele>1991.5</ele>
        <time>2021-08-14T06:30:25Z</time>
      </trkpt>
      <trkpt lat="42.5770410" lon="1.4995300">
        <ele>1988.9</ele>
        <time>2021-08-14T06:30:38Z</time>
      </trkpt>
      <trkpt lat="42.5770090" lon="1.4995600">
        <ele>1987.3</ele>
        <time>2021-08-14T06:30:42Z</time>
      </trkpt>
      <trkpt lat="42.5769570" lon="1.4996780">
        <ele>1983.1</ele>
        <time>2021-08-14T06:30:57Z</time>
      </trkpt>
      <trkpt lat="42.5768550" lon="1.4995930">
        <ele>1978.5</ele>
        <time>2021-08-14T06:31:19Z</time>
      </trkpt>
      <trkpt lat="42.5768340" lon="1.4997530">
        <ele>1974.3</ele>
        <time>2021-08-14T06:31:33Z</time>
      </trkpt>
      <trkpt lat="42.5767710" lon="1.4999920">
        <ele>1969.1</ele>
        <time>2021-08-14T06:31:51Z</time>
      </trkpt>
      <trkpt lat="42.5767620" lon="1.5000110">
        <ele>1968.6</ele>
        <time>2021-08-14T06:31:53Z</time>
      </trkpt>
      <trkpt lat="42.5767220" lon="1.5000990">
        <ele>1966.6</ele>
        <time>2021-08-14T06:32:02Z</time>
      </trkpt>
      <trkpt lat="42.5766750" lon="1.5001770">
        <ele>1964.9</ele>
        <time>2021-08-14T06:32:14Z</time>
      </trkpt>
      <trkpt lat="42.5766590" lon="1.5002070">
        <ele>1964.4</ele>
        <time>2021-08-14T06:32:20Z</time>
      </trkpt>
      <trkpt lat="42.5766210" lon="1.5002900">
        <ele>1963.1</ele>
        <time>2021-08-14T06:32:31Z</time>
      </trkpt>
      <trkpt lat="42.5764570" lon="1.5004030">
        <ele>1961.9</ele>
        <time>2021-08-14T06:32:53Z</time>
      </trkpt>
      <trkpt lat="42.5764310" lon="1.5004190">
        <ele>1961.9</ele>
        <time>2021-08-14T06:32:56Z</time>
      </trkpt>
      <trkpt lat="42.5764190" lon="1.5004220">
        <ele>1962.0</ele>
        <time>2021-08-14T06:32:57Z</time>
      </trkpt>
      <trkpt lat="42.5763990" lon="1.5004390">
        <ele>1962.0</ele>
        <time>2021-08-14T06:33:00Z</time>
      </trkpt>
      <trkpt lat="42.5763270" lon="1.5005120">
        <ele>1962.3</ele>
        <time>2021-08-14T06:33:12Z</time>
      </trkpt>
      <trkpt lat="42.5763180" lon="1.5005130">
        <ele>1962.3</ele>
        <time>2021-08-14T06:33:13Z</time>
      </trkpt>
      <trkpt lat="42.5763130" lon="1.5005130">
        <ele>1962.3</ele>
        <time>2021-08-14T06:33:14Z</time>
      </trkpt>
      <trkpt lat="42.5763010" lon="1.5005140">
        <ele>1962.3</ele>
        <time>2021-08-14T06:33:15Z</time>
      </trkpt>
      <trkpt lat="42.5762850" lon="1.5005200">
        <ele>1962.4</ele>
        <time>2021-08-14T06:33:17Z</time>
      </trkpt>
      <trkpt lat="42.5762410" lon="1.5005280">
        <ele>1962.4</ele>
        <time>2021-08-14T06:33:21Z</time>
      </trkpt>
      <trkpt lat="42.5762080" lon="1.5005300">
        <ele>1962.3</ele>
        <time>2021-08-14T06:33:24Z</time>
      </trkpt>
      <trkpt lat="42.5761970" lon="1.5005300">
        <ele>1962.3</ele>
        <time>2021-08-14T06:33:25Z</time>
      </trkpt>
      <trkpt lat="42.5761760" lon="1.5005260">
        <ele>1962.2</ele>
        <time>2021-08-14T06:33:27Z</time>
      </trkpt>
      <trkpt lat="42.5761420" lon="1.5005430">
        <ele>1962.1</ele>
        <time>2021-08-14T06:33:30Z</time>
      </trkpt>
      <trkpt lat="42.5761400" lon="1.5005400">
        <ele>1962.0</ele>
        <time>2021-08-14T06:34:07Z</time>
      </trkpt>
      <trkpt lat="42.5761460" lon="1.5005430">
        <ele>1962.0</ele>
        <time>2021-08-14T06:34:14Z</time>
      </trkpt>
      <trkpt lat="42.5761500" lon="1.5005380">
        <ele>1962.0</ele>
        <time>2021-08-14T06:34:17Z</time>
      </trkpt>
      <trkpt lat="42.5761510" lon="1.5005360">
        <ele>1962.0</ele>
        <time>2021-08-14T06:34:18Z</time>
      </trkpt>
      <trkpt lat="42.5761450" lon="1.5005530">
        <ele>1961.5</ele>
        <time>2021-08-14T06:34:24Z</time>
      </trkpt>
      <trkpt lat="42.5761390" lon="1.5005600">
        <ele>1961.5</ele>
        <time>2021-08-14T06:34:29Z</time>
      </trkpt>
      <trkpt lat="42.5761340" lon="1.5005600">
        <ele>1961.4</ele>
        <time>2021-08-14T06:34:37Z</time>
      </trkpt>
      <trkpt lat="42.5761330" lon="1.5005580">
        <ele>1961.4</ele>
        <time>2021-08-14T06:34:44Z</time>
      </trkpt>
      <trkpt lat="42.5761820" lon="1.5006180">
        <ele>1960.8</ele>
        <time>2021-08-14T06:35:00Z</time>
      </trkpt>
      <trkpt lat="42.5763450" lon="1.5007260">
        <ele>1958.4</ele>
        <time>2021-08-14T06:35:17Z</time>
      </trkpt>
      <trkpt lat="42.5764600" lon="1.5007890">
        <ele>1955.6</ele>
        <time>2021-08-14T06:35:31Z</time>
      </trkpt>
      <trkpt lat="42.5764680" lon="1.5007920">
        <ele>1955.4</ele>
        <time>2021-08-14T06:35:32Z</time>
      </trkpt>
      <trkpt lat="42.5764840" lon="1.5008090">
        <ele>1954.9</ele>
        <time>2021-08-14T06:35:35Z</time>
      </trkpt>
      <trkpt lat="42.5764900" lon="1.5008120">
        <ele>1954.8</ele>
        <time>2021-08-14T06:35:36Z</time>
      </trkpt>
      <trkpt lat="42.5764960" lon="1.5008170">
        <ele>1954.6</ele>
        <time>2021-08-14T06:35:37Z</time>
      </trkpt>
      <trkpt lat="42.5766210" lon="1.5009120">
        <ele>1950.7</ele>
        <time>2021-08-14T06:35:56Z</time>
      </trkpt>
      <trkpt lat="42.5766280" lon="1.5009420">
        <ele>1950.1</ele>
        <time>2021-08-14T06:35:59Z</time>
      </trkpt>
      <trkpt lat="42.5766540" lon="1.5010280">
        <ele>1948.5</ele>
        <time>2021-08-14T06:36:11Z</time>
      </trkpt>
      <trkpt lat="42.5766110" lon="1.5012490">
        <ele>1944.6</ele>
        <time>2021-08-14T06:36:28Z</time>
      </trkpt>
      <trkpt lat="42.5766060" lon="1.5012990">
        <ele>1943.5</ele>
        <time>2021-08-14T06:36:36Z</time>
      </trkpt>
      <trkpt lat="42.5766080" lon="1.5013130">
        <ele>1943.2</ele>
        <time>2021-08-14T06:36:38Z</time>
      </trkpt>
      <trkpt lat="42.5766090" lon="1.5013190">
        <ele>1943.0</ele>
        <time>2021-08-14T06:36:40Z</time>
      </trkpt>
      <trkpt lat="42.5766100" lon="1.5013210">
        <ele>1943.0</ele>
        <time>2021-08-14T06:36:41Z</time>
      </trkpt>
      <trkpt lat="42.5766120" lon="1.5013220">
        <ele>1942.9</ele>
        <time>2021-08-14T06:36:42Z</time>
      </trkpt>
      <trkpt lat="42.5766140" lon="1.5013240">
        <ele>1942.8</ele>
        <time>2021-08-14T06:36:43Z</time>
      </trkpt>
      <trkpt lat="42.5766190" lon="1.5013250">
        <ele>1942.7</ele>
        <time>2021-08-14T06:36:44Z</time>
      </trkpt>
      <trkpt lat="42.5766550" lon="1.5013110">
        <ele>1941.4</ele>
        <time>2021-08-14T06:36:51Z</time>
      </trkpt>
      <trkpt lat="42.5766870" lon="1.5012990">
        <ele>1940.2</ele>
        <time>2021-08-14T06:36:55Z</time>
      </trkpt>
      <trkpt lat="42.5766990" lon="1.5012680">
        <ele>1939.3</ele>
        <time>2021-08-14T06:36:59Z</time>
      </trkpt>
      <trkpt lat="42.5767050" lon="1.5012910">
        <ele>1938.7</ele>
        <time>2021-08-14T06:37:02Z</time>
      </trkpt>
      <trkpt lat="42.5767330" lon="1.5013630">
        <ele>1936.5</ele>
        <time>2021-08-14T06:37:08Z</time>
      </trkpt>
      <trkpt lat="42.5767750" lon="1.5013770">
        <ele>1935.1</ele>
        <time>2021-08-14T06:37:18Z</time>
      </trkpt>
      <trkpt lat="42.5768060" lon="1.5014360">
        <ele>1933.4</ele>
        <time>2021-08-14T06:37:27Z</time>
      </trkpt>
      <trkpt lat="42.5768810" lon="1.5016590">
        <ele>1927.5</ele>
        <time>2021-08-14T06:37:47Z</time>
      </trkpt>
      <trkpt lat="42.5769350" lon="1.5016770">
        <ele>1925.6</ele>
        <time>2021-08-14T06:38:00Z</time>
      </trkpt>
      <trkpt lat="42.5769700" lon="1.5016930">
        <ele>1924.4</ele>
        <time>2021-08-14T06:38:04Z</time>
      </trkpt>
      <trkpt lat="42.5770040" lon="1.5017690">
        <ele>1922.6</ele>
        <time>2021-08-14T06:38:15Z</time>
      </trkpt>
      <trkpt lat="42.5770060" lon="1.5018190">
        <ele>1921.7</ele>
        <time>2021-08-14T06:38:18Z</time>
      </trkpt>
      <trkpt lat="42.5769670" lon="1.5019210">
        <ele>1919.8</ele>
        <time>2021-08-14T06:38:26Z</time>
      </trkpt>
      <trkpt lat="42.5769640" lon="1.5019350">
        <ele>1919.6</ele>
        <time>2021-08-14T06:38:27Z</time>
      </trkpt>
      <trkpt lat="42.5769690" lon="1.5019610">
        <ele>1919.1</ele>
        <time>2021-08-14T06:38:28Z</time>
      </trkpt>
      <trkpt lat="42.5769650" lon="1.5020670">
        <ele>1917.4</ele>
        <time>2021-08-14T06:38:35Z</time>
      </trkpt>
      <trkpt lat="42.5769680" lon="1.5023100">
        <ele>1912.6</ele>
        <time>2021-08-14T06:38:59Z</time>
      </trkpt>
      <trkpt lat="42.5769190" lon="1.5024380">
        <ele>1909.7</ele>
        <time>2021-08-14T06:39:08Z</time>
      </trkpt>
      <trkpt lat="42.5769200" lon="1.5024700">
        <ele>1909.1</ele>
        <time>2021-08-14T06:39:10Z</time>
      </trkpt>
      <trkpt lat="42.5769230" lon="1.5027410">
        <ele>1904.6</ele>
        <time>2021-08-14T06:39:31Z</time>
      </trkpt>
      <trkpt lat="42.5769340" lon="1.5029900">
        <ele>1900.0</ele>
        <time>2021-08-14T06:39:47Z</time>
      </trkpt>
      <trkpt lat="42.5769490" lon="1.5030900">
        <ele>1898.3</ele>
        <time>2021-08-14T06:39:56Z</time>
      </trkpt>
      <trkpt lat="42.5769400" lon="1.5031920">
        <ele>1896.9</ele>
        <time>2021-08-14T06:40:06Z</time>
      </trkpt>
      <trkpt lat="42.5768730" lon="1.5034330">
        <ele>1893.5</ele>
        <time>2021-08-14T06:40:22Z</time>
      </trkpt>
      <trkpt lat="42.5768930" lon="1.5036790">
        <ele>1889.5</ele>
        <time>2021-08-14T06:40:36Z</time>
      </trkpt>
      <trkpt lat="42.5768800" lon="1.5039370">
        <ele>1884.1</ele>
        <time>2021-08-14T06:40:57Z</time>
      </trkpt>
      <trkpt lat="42.5769150" lon="1.5040510">
        <ele>1881.6</ele>
        <time>2021-08-14T06:41:08Z</time>
      </trkpt>
      <trkpt lat="42.5768920" lon="1.5043030">
        <ele>1876.5</ele>
        <time>2021-08-14T06:41:31Z</time>
      </trkpt>
      <trkpt lat="42.5768950" lon="1.5044290">
        <ele>1873.9</ele>
        <time>2021-08-14T06:41:41Z</time>
      </trkpt>
      <trkpt lat="42.5768920" lon="1.5044580">
        <ele>1873.3</ele>
        <time>2021-08-14T06:41:45Z</time>
      </trkpt>
      <trkpt lat="42.5769140" lon="1.5047100">
        <ele>1867.9</ele>
        <time>2021-08-14T06:41:59Z</time>
      </trkpt>
      <trkpt lat="42.5769940" lon="1.5048360">
        <ele>1864.7</ele>
        <time>2021-08-14T06:42:35Z</time>
      </trkpt>
      <trkpt lat="42.5770040" lon="1.5050310">
        <ele>1861.0</ele>
        <time>2021-08-14T06:42:58Z</time>
      </trkpt>
      <trkpt lat="42.5770010" lon="1.5050680">
        <ele>1860.3</ele>
        <time>2021-08-14T06:43:02Z</time>
      </trkpt>
      <trkpt lat="42.5770060" lon="1.5051040">
        <ele>1859.5</ele>
        <time>2021-08-14T06:43:05Z</time>
      </trkpt>
      <trkpt lat="42.5769160" lon="1.5052750">
        <ele>1855.8</ele>
        <time>2021-08-14T06:43:23Z</time>
      </trkpt>
      <trkpt lat="42.5768820" lon="1.5053200">
        <ele>1854.9</ele>
        <time>2021-08-14T06:43:27Z</time>
      </trkpt>
      <trkpt lat="42.5767650" lon="1.5054820">
        <ele>1851.4</ele>
        <time>2021-08-14T06:43:45Z</time>
      </trkpt>
      <trkpt lat="42.5767580" lon="1.5055090">
        <ele>1850.8</ele>
        <time>2021-08-14T06:43:47Z</time>
      </trkpt>
      <trkpt lat="42.5767570" lon="1.5055190">
        <ele>1850.6</ele>
        <time>2021-08-14T06:43:49Z</time>
      </trkpt>
      <trkpt lat="42.5767800" lon="1.5055530">
        <ele>1849.7</ele>
        <time>2021-08-14T06:43:53Z</time>
      </trkpt>
      <trkpt lat="42.5767820" lon="1.5055580">
        <ele>1849.6</ele>
        <time>2021-08-14T06:43:54Z</time>
      </trkpt>
      <trkpt lat="42.5766950" lon="1.5056950">
        <ele>1845.7</ele>
        <time>2021-08-14T06:44:13Z</time>
      </trkpt>
      <trkpt lat="42.5766510" lon="1.5059380">
        <ele>1840.9</ele>
        <time>2021-08-14T06:44:33Z</time>
      </trkpt>
      <trkpt lat="42.5766510" lon="1.5061860">
        <ele>1835.4</ele>
        <time>2021-08-14T06:44:55Z</time>
      </trkpt>
      <trkpt lat="42.5766220" lon="1.5063980">
        <ele>1830.8</ele>
        <time>2021-08-14T06:45:10Z</time>
      </trkpt>
      <trkpt lat="42.5767520" lon="1.5065660">
        <ele>1825.5</ele>
        <time>2021-08-14T06:45:30Z</time>
      </trkpt>
      <trkpt lat="42.5767820" lon="1.5066240">
        <ele>1824.0</ele>
        <time>2021-08-14T06:45:38Z</time>
      </trkpt>
      <trkpt lat="42.5769390" lon="1.5066660">
        <ele>1819.7</ele>
        <time>2021-08-14T06:46:01Z</time>
      </trkpt>
      <trkpt lat="42.5770620" lon="1.5066640">
        <ele>1817.0</ele>
        <time>2021-08-14T06:46:23Z</time>
      </trkpt>
      <trkpt lat="42.5771550" lon="1.5066500">
        <ele>1815.4</ele>
        <time>2021-08-14T06:46:32Z</time>
      </trkpt>
      <trkpt lat="42.5772010" lon="1.5066710">
        <ele>1814.7</ele>
        <time>2021-08-14T06:46:36Z</time>
      </trkpt>
      <trkpt lat="42.5772240" lon="1.5066830">
        <ele>1814.3</ele>
        <time>2021-08-14T06:46:39Z</time>
      </trkpt>
      <trkpt lat="42.5772310" lon="1.5066830">
        <ele>1814.2</ele>
        <time>2021-08-14T06:46:41Z</time>
      </trkpt>
      <trkpt lat="42.5772350" lon="1.5066840">
        <ele>1814.1</ele>
        <time>2021-08-14T06:46:42Z</time>
      </trkpt>
      <trkpt lat="42.5772460" lon="1.5066910">
        <ele>1813.9</ele>
        <time>2021-08-14T06:46:43Z</time>
      </trkpt>
      <trkpt lat="42.5772510" lon="1.5066890">
        <ele>1813.9</ele>
        <time>2021-08-14T06:46:44Z</time>
      </trkpt>
      <trkpt lat="42.5773300" lon="1.5066680">
        <ele>1812.3</ele>
        <time>2021-08-14T06:46:52Z</time>
      </trkpt>
      <trkpt lat="42.5773350" lon="1.5066630">
        <ele>1812.2</ele>
        <time>2021-08-14T06:46:53Z</time>
      </trkpt>
      <trkpt lat="42.5773410" lon="1.5066610">
        <ele>1812.0</ele>
        <time>2021-08-14T06:46:54Z</time>
      </trkpt>
      <trkpt lat="42.5773470" lon="1.5066590">
        <ele>1811.9</ele>
        <time>2021-08-14T06:46:55Z</time>
      </trkpt>
      <trkpt lat="42.5773540" lon="1.5066570">
        <ele>1811.7</ele>
        <time>2021-08-14T06:46:56Z</time>
      </trkpt>
      <trkpt lat="42.5773850" lon="1.5066690">
        <ele>1810.9</ele>
        <time>2021-08-14T06:46:59Z</time>
      </trkpt>
      <trkpt lat="42.5774210" lon="1.5066930">
        <ele>1810.0</ele>
        <time>2021-08-14T06:47:04Z</time>
      </trkpt>
      <trkpt lat="42.5774510" lon="1.5067160">
        <ele>1809.1</ele>
        <time>2021-08-14T06:47:08Z</time>
      </trkpt>
      <trkpt lat="42.5774900" lon="1.5067090">
        <ele>1808.0</ele>
        <time>2021-08-14T06:47:14Z</time>
      </trkpt>
      <trkpt lat="42.5775170" lon="1.5066950">
        <ele>1807.2</ele>
        <time>2021-08-14T06:47:20Z</time>
      </trkpt>
      <trkpt lat="42.5775690" lon="1.5066990">
        <ele>1805.6</ele>
        <time>2021-08-14T06:47:25Z</time>
      </trkpt>
      <trkpt lat="42.5776320" lon="1.5066960">
        <ele>1803.7</ele>
        <time>2021-08-14T06:47:33Z</time>
      </trkpt>
      <trkpt lat="42.5776800" lon="1.5066740">
        <ele>1802.2</ele>
        <time>2021-08-14T06:47:40Z</time>
      </trkpt>
      <trkpt lat="42.5777160" lon="1.5066340">
        <ele>1800.9</ele>
        <time>2021-08-14T06:47:45Z</time>
      </trkpt>
      <trkpt lat="42.5777900" lon="1.5065860">
        <ele>1798.5</ele>
        <time>2021-08-14T06:47:52Z</time>
      </trkpt>
      <trkpt lat="42.5778480" lon="1.5066020">
        <ele>1796.7</ele>
        <time>2021-08-14T06:48:02Z</time>
      </trkpt>
      <trkpt lat="42.5779210" lon="1.5065120">
        <ele>1786.9</ele>
        <time>2021-08-14T06:48:39Z</time>
      </trkpt>
      <trkpt lat="42.5779470" lon="1.5065180">
        <ele>1785.9</ele>
        <time>2021-08-14T06:48:42Z</time>
      </trkpt>
      <trkpt lat="42.5779540" lon="1.5065260">
        <ele>1785.5</ele>
        <time>2021-08-14T06:48:43Z</time>
      </trkpt>
      <trkpt lat="42.5780070" lon="1.5066240">
        <ele>1782.0</ele>
        <time>2021-08-14T06:48:54Z</time>
      </trkpt>
      <trkpt lat="42.5780130" lon="1.5066330">
        <ele>1781.6</ele>
        <time>2021-08-14T06:48:55Z</time>
      </trkpt>
      <trkpt lat="42.5780340" lon="1.5066500">
        <ele>1780.7</ele>
        <time>2021-08-14T06:48:58Z</time>
      </trkpt>
      <trkpt lat="42.5780400" lon="1.5066540">
        <ele>1780.4</ele>
        <time>2021-08-14T06:48:59Z</time>
      </trkpt>
      <trkpt lat="42.5780530" lon="1.5066650">
        <ele>1779.9</ele>
        <time>2021-08-14T06:49:02Z</time>
      </trkpt>
      <trkpt lat="42.5780540" lon="1.5066710">
        <ele>1779.7</ele>
        <time>2021-08-14T06:49:03Z</time>
      </trkpt>
      <trkpt lat="42.5780840" lon="1.5067810">
        <ele>1776.5</ele>
        <time>2021-08-14T06:49:12Z</time>
      </trkpt>
      <trkpt lat="42.5780800" lon="1.5069220">
        <ele>1772.0</ele>
        <time>2021-08-14T06:49:28Z</time>
      </trkpt>
      <trkpt lat="42.5780830" lon="1.5069340">
        <ele>1771.7</ele>
        <time>2021-08-14T06:49:29Z</time>
      </trkpt>
      <trkpt lat="42.5780970" lon="1.5069490">
        <ele>1771.2</ele>
        <time>2021-08-14T06:49:30Z</time>
      </trkpt>
      <trkpt lat="42.5780980" lon="1.5069540">
        <ele>1771.1</ele>
        <time>2021-08-14T06:49:31Z</time>
      </trkpt>
      <trkpt lat="42.5781000" lon="1.5069860">
        <ele>1770.3</ele>
        <time>2021-08-14T06:49:33Z</time>
      </trkpt>
      <trkpt lat="42.5781000" lon="1.5069990">
        <ele>1768.5</ele>
        <time>2021-08-14T06:49:34Z</time>
      </trkpt>
      <trkpt lat="42.5781010" lon="1.5070260">
        <ele>1768.1</ele>
        <time>2021-08-14T06:49:37Z</time>
      </trkpt>
      <trkpt lat="42.5780970" lon="1.5070340">
        <ele>1768.0</ele>
        <time>2021-08-14T06:49:38Z</time>
      </trkpt>
      <trkpt lat="42.5780880" lon="1.5070360">
        <ele>1767.8</ele>
        <time>2021-08-14T06:49:39Z</time>
      </trkpt>
      <trkpt lat="42.5780830" lon="1.5070360">
        <ele>1767.7</ele>
        <time>2021-08-14T06:49:40Z</time>
      </trkpt>
      <trkpt lat="42.5780760" lon="1.5070370">
        <ele>1767.5</ele>
        <time>2021-08-14T06:49:41Z</time>
      </trkpt>
      <trkpt lat="42.5780710" lon="1.5070460">
        <ele>1767.3</ele>
        <time>2021-08-14T06:49:46Z</time>
      </trkpt>
      <trkpt lat="42.5780720" lon="1.5070480">
        <ele>1767.3</ele>
        <time>2021-08-14T06:49:48Z</time>
      </trkpt>
      <trkpt lat="42.5780860" lon="1.5070490">
        <ele>1767.0</ele>
        <time>2021-08-14T06:49:51Z</time>
      </trkpt>
      <trkpt lat="42.5780990" lon="1.5070530">
        <ele>1766.7</ele>
        <time>2021-08-14T06:49:53Z</time>
      </trkpt>
      <trkpt lat="42.5781050" lon="1.5070540">
        <ele>1766.6</ele>
        <time>2021-08-14T06:49:54Z</time>
      </trkpt>
      <trkpt lat="42.5781140" lon="1.5070530">
        <ele>1766.4</ele>
        <time>2021-08-14T06:49:56Z</time>
      </trkpt>
      <trkpt lat="42.5781480" lon="1.5070970">
        <ele>1765.3</ele>
        <time>2021-08-14T06:50:06Z</time>
      </trkpt>
      <trkpt lat="42.5781360" lon="1.5070930">
        <ele>1765.1</ele>
        <time>2021-08-14T06:50:16Z</time>
      </trkpt>
      <trkpt lat="42.5781490" lon="1.5071170">
        <ele>1764.5</ele>
        <time>2021-08-14T06:50:20Z</time>
      </trkpt>
      <trkpt lat="42.5781320" lon="1.5072330">
        <ele>1762.5</ele>
        <time>2021-08-14T06:50:35Z</time>
      </trkpt>
      <trkpt lat="42.5781350" lon="1.5072480">
        <ele>1762.2</ele>
        <time>2021-08-14T06:50:37Z</time>
      </trkpt>
      <trkpt lat="42.5781320" lon="1.5072510">
        <ele>1757.3</ele>
        <time>2021-08-14T06:50:38Z</time>
      </trkpt>
      <trkpt lat="42.5781290" lon="1.5072510">
        <ele>1757.2</ele>
        <time>2021-08-14T06:50:40Z</time>
      </trkpt>
      <trkpt lat="42.5781620" lon="1.5072770">
        <ele>1756.4</ele>
        <time>2021-08-14T06:50:53Z</time>
      </trkpt>
      <trkpt lat="42.5781750" lon="1.5073000">
        <ele>1756.0</ele>
        <time>2021-08-14T06:50:58Z</time>
      </trkpt>
      <trkpt lat="42.5781800" lon="1.5073030">
        <ele>1755.9</ele>
        <time>2021-08-14T06:50:59Z</time>
      </trkpt>
      <trkpt lat="42.5781890" lon="1.5073120">
        <ele>1755.6</ele>
        <time>2021-08-14T06:51:00Z</time>
      </trkpt>
      <trkpt lat="42.5782110" lon="1.5073220">
        <ele>1755.2</ele>
        <time>2021-08-14T06:51:04Z</time>
      </trkpt>
      <trkpt lat="42.5782450" lon="1.5073520">
        <ele>1754.4</ele>
        <time>2021-08-14T06:51:10Z</time>
      </trkpt>
      <trkpt lat="42.5782670" lon="1.5073840">
        <ele>1753.8</ele>
        <time>2021-08-14T06:51:14Z</time>
      </trkpt>
      <trkpt lat="42.5782680" lon="1.5073910">
        <ele>1753.8</ele>
        <time>2021-08-14T06:51:15Z</time>
      </trkpt>
      <trkpt lat="42.5782610" lon="1.5074020">
        <ele>1753.6</ele>
        <time>2021-08-14T06:51:17Z</time>
      </trkpt>
      <trkpt lat="42.5782620" lon="1.5074060">
        <ele>1753.5</ele>
        <time>2021-08-14T06:51:18Z</time>
      </trkpt>
      <trkpt lat="42.5782610" lon="1.5074090">
        <ele>1753.5</ele>
        <time>2021-08-14T06:51:19Z</time>
      </trkpt>
      <trkpt lat="42.5782580" lon="1.5074110">
        <ele>1753.4</ele>
        <time>2021-08-14T06:51:21Z</time>
      </trkpt>
      <trkpt lat="42.5782560" lon="1.5074100">
        <ele>1753.4</ele>
        <time>2021-08-14T06:51:22Z</time>
      </trkpt>
      <trkpt lat="42.5782580" lon="1.5074100">
        <ele>1753.3</ele>
        <time>2021-08-14T06:51:23Z</time>
      </trkpt>
      <trkpt lat="42.5782300" lon="1.5074690">
        <ele>1752.5</ele>
        <time>2021-08-14T06:51:35Z</time>
      </trkpt>
      <trkpt lat="42.5781820" lon="1.5075040">
        <ele>1751.6</ele>
        <time>2021-08-14T06:51:40Z</time>
      </trkpt>
      <trkpt lat="42.5781570" lon="1.5075460">
        <ele>1750.9</ele>
        <time>2021-08-14T06:51:45Z</time>
      </trkpt>
      <trkpt lat="42.5781150" lon="1.5075770">
        <ele>1750.1</ele>
        <time>2021-08-14T06:51:51Z</time>
      </trkpt>
      <trkpt lat="42.5780850" lon="1.5075920">
        <ele>1749.5</ele>
        <time>2021-08-14T06:51:55Z</time>
      </trkpt>
      <trkpt lat="42.5779620" lon="1.5077550">
        <ele>1746.1</ele>
        <time>2021-08-14T06:52:13Z</time>
      </trkpt>
      <trkpt lat="42.5779150" lon="1.5079860">
        <ele>1742.5</ele>
        <time>2021-08-14T06:52:35Z</time>
      </trkpt>
      <trkpt lat="42.5778740" lon="1.5080380">
        <ele>1741.4</ele>
        <time>2021-08-14T06:52:45Z</time>
      </trkpt>
      <trkpt lat="42.5778510" lon="1.5080480">
        <ele>1740.9</ele>
        <time>2021-08-14T06:52:48Z</time>
      </trkpt>
      <trkpt lat="42.5778210" lon="1.5080650">
        <ele>1740.3</ele>
        <time>2021-08-14T06:52:55Z</time>
      </trkpt>
      <trkpt lat="42.5777730" lon="1.5080800">
        <ele>1739.4</ele>
        <time>2021-08-14T06:53:02Z</time>
      </trkpt>
      <trkpt lat="42.5777330" lon="1.5081250">
        <ele>1738.5</ele>
        <time>2021-08-14T06:53:10Z</time>
      </trkpt>
      <trkpt lat="42.5777250" lon="1.5081310">
        <ele>1738.3</ele>
        <time>2021-08-14T06:53:11Z</time>
      </trkpt>
      <trkpt lat="42.5777190" lon="1.5081400">
        <ele>1738.2</ele>
        <time>2021-08-14T06:53:12Z</time>
      </trkpt>
      <trkpt lat="42.5777010" lon="1.5081540">
        <ele>1737.7</ele>
        <time>2021-08-14T06:53:15Z</time>
      </trkpt>
      <trkpt lat="42.5776810" lon="1.5081770">
        <ele>1736.7</ele>
        <time>2021-08-14T06:53:18Z</time>
      </trkpt>
      <trkpt lat="42.5776580" lon="1.5081970">
        <ele>1735.7</ele>
        <time>2021-08-14T06:53:21Z</time>
      </trkpt>
      <trkpt lat="42.5776540" lon="1.5082050">
        <ele>1735.5</ele>
        <time>2021-08-14T06:53:22Z</time>
      </trkpt>
      <trkpt lat="42.5776480" lon="1.5082190">
        <ele>1735.0</ele>
        <time>2021-08-14T06:53:24Z</time>
      </trkpt>
      <trkpt lat="42.5776100" lon="1.5083050">
        <ele>1732.3</ele>
        <time>2021-08-14T06:53:28Z</time>
      </trkpt>
      <trkpt lat="42.5774770" lon="1.5084850">
        <ele>1725.5</ele>
        <time>2021-08-14T06:53:40Z</time>
      </trkpt>
      <trkpt lat="42.5774840" lon="1.5084950">
        <ele>1725.1</ele>
        <time>2021-08-14T06:53:48Z</time>
      </trkpt>
      <trkpt lat="42.5775470" lon="1.5084800">
        <ele>1725.6</ele>
        <time>2021-08-14T06:54:06Z</time>
      </trkpt>
      <trkpt lat="42.5775760" lon="1.5084920">
        <ele>1724.4</ele>
        <time>2021-08-14T06:54:11Z</time>
      </trkpt>
      <trkpt lat="42.5776390" lon="1.5085230">
        <ele>1723.1</ele>
        <time>2021-08-14T06:54:19Z</time>
      </trkpt>
      <trkpt lat="42.5776530" lon="1.5085310">
        <ele>1722.7</ele>
        <time>2021-08-14T06:54:20Z</time>
      </trkpt>
      <trkpt lat="42.5776630" lon="1.5085340">
        <ele>1721.6</ele>
        <time>2021-08-14T06:54:21Z</time>
      </trkpt>
      <trkpt lat="42.5777630" lon="1.5085520">
        <ele>1722.5</ele>
        <time>2021-08-14T06:54:30Z</time>
      </trkpt>
      <trkpt lat="42.5779350" lon="1.5085830">
        <ele>1722.6</ele>
        <time>2021-08-14T06:54:54Z</time>
      </trkpt>
      <trkpt lat="42.5780140" lon="1.5085960">
        <ele>1722.3</ele>
        <time>2021-08-14T06:55:02Z</time>
      </trkpt>
      <trkpt lat="42.5780950" lon="1.5087010">
        <ele>1718.0</ele>
        <time>2021-08-14T06:55:18Z</time>
      </trkpt>
      <trkpt lat="42.5780840" lon="1.5087530">
        <ele>1716.8</ele>
        <time>2021-08-14T06:55:31Z</time>
      </trkpt>
      <trkpt lat="42.5780450" lon="1.5088250">
        <ele>1714.8</ele>
        <time>2021-08-14T06:55:42Z</time>
      </trkpt>
      <trkpt lat="42.5780440" lon="1.5088310">
        <ele>1714.7</ele>
        <time>2021-08-14T06:55:43Z</time>
      </trkpt>
      <trkpt lat="42.5780450" lon="1.5088400">
        <ele>1714.5</ele>
        <time>2021-08-14T06:55:44Z</time>
      </trkpt>
      <trkpt lat="42.5780490" lon="1.5088510">
        <ele>1714.2</ele>
        <time>2021-08-14T06:55:45Z</time>
      </trkpt>
      <trkpt lat="42.5780330" lon="1.5089100">
        <ele>1712.8</ele>
        <time>2021-08-14T06:55:50Z</time>
      </trkpt>
      <trkpt lat="42.5780300" lon="1.5089370">
        <ele>1712.2</ele>
        <time>2021-08-14T06:55:54Z</time>
      </trkpt>
      <trkpt lat="42.5780260" lon="1.5089850">
        <ele>1711.1</ele>
        <time>2021-08-14T06:56:00Z</time>
      </trkpt>
      <trkpt lat="42.5779960" lon="1.5091510">
        <ele>1707.1</ele>
        <time>2021-08-14T06:56:17Z</time>
      </trkpt>
      <trkpt lat="42.5780750" lon="1.5093580">
        <ele>1701.9</ele>
        <time>2021-08-14T06:56:37Z</time>
      </trkpt>
      <trkpt lat="42.5781510" lon="1.5095880">
        <ele>1696.3</ele>
        <time>2021-08-14T06:56:59Z</time>
      </trkpt>
      <trkpt lat="42.5781710" lon="1.5098370">
        <ele>1690.3</ele>
        <time>2021-08-14T06:57:16Z</time>
      </trkpt>
      <trkpt lat="42.5782060" lon="1.5099260">
        <ele>1687.9</ele>
        <time>2021-08-14T06:57:28Z</time>
      </trkpt>
      <trkpt lat="42.5782360" lon="1.5102010">
        <ele>1680.8</ele>
        <time>2021-08-14T06:58:06Z</time>
      </trkpt>
      <trkpt lat="42.5782670" lon="1.5102990">
        <ele>1678.2</ele>
        <time>2021-08-14T06:58:16Z</time>
      </trkpt>
      <trkpt lat="42.5782730" lon="1.5103610">
        <ele>1676.7</ele>
        <time>2021-08-14T06:58:21Z</time>
      </trkpt>
      <trkpt lat="42.5782800" lon="1.5103980">
        <ele>1675.8</ele>
        <time>2021-08-14T06:58:24Z</time>
      </trkpt>
      <trkpt lat="42.5782810" lon="1.5104280">
        <ele>1675.0</ele>
        <time>2021-08-14T06:58:26Z</time>
      </trkpt>
      <trkpt lat="42.5782870" lon="1.5104510">
        <ele>1674.4</ele>
        <time>2021-08-14T06:58:27Z</time>
      </trkpt>
      <trkpt lat="42.5782920" lon="1.5104730">
        <ele>1673.9</ele>
        <time>2021-08-14T06:58:28Z</time>
      </trkpt>
      <trkpt lat="42.5783000" lon="1.5105010">
        <ele>1673.1</ele>
        <time>2021-08-14T06:58:30Z</time>
      </trkpt>
      <trkpt lat="42.5783140" lon="1.5105390">
        <ele>1672.0</ele>
        <time>2021-08-14T06:58:33Z</time>
      </trkpt>
      <trkpt lat="42.5783210" lon="1.5105500">
        <ele>1671.6</ele>
        <time>2021-08-14T06:58:34Z</time>
      </trkpt>
      <trkpt lat="42.5783280" lon="1.5105610">
        <ele>1671.3</ele>
        <time>2021-08-14T06:58:35Z</time>
      </trkpt>
      <trkpt lat="42.5783410" lon="1.5106040">
        <ele>1670.0</ele>
        <time>2021-08-14T06:58:39Z</time>
      </trkpt>
      <trkpt lat="42.5783390" lon="1.5106210">
        <ele>1669.6</ele>
        <time>2021-08-14T06:58:41Z</time>
      </trkpt>
      <trkpt lat="42.5783510" lon="1.5106500">
        <ele>1668.6</ele>
        <time>2021-08-14T06:58:45Z</time>
      </trkpt>
      <trkpt lat="42.5783530" lon="1.5106600">
        <ele>1668.3</ele>
        <time>2021-08-14T06:58:46Z</time>
      </trkpt>
      <trkpt lat="42.5783540" lon="1.5106680">
        <ele>1668.1</ele>
        <time>2021-08-14T06:58:47Z</time>
      </trkpt>
      <trkpt lat="42.5783550" lon="1.5106770">
        <ele>1667.8</ele>
        <time>2021-08-14T06:58:48Z</time>
      </trkpt>
      <trkpt lat="42.5783600" lon="1.5106910">
        <ele>1667.3</ele>
        <time>2021-08-14T06:58:49Z</time>
      </trkpt>
      <trkpt lat="42.5784140" lon="1.5107750">
        <ele>1663.9</ele>
        <time>2021-08-14T06:58:59Z</time>
      </trkpt>
      <trkpt lat="42.5784400" lon="1.5107760">
        <ele>1662.7</ele>
        <time>2021-08-14T06:59:04Z</time>
      </trkpt>
      <trkpt lat="42.5784600" lon="1.5107710">
        <ele>1661.8</ele>
        <time>2021-08-14T06:59:09Z</time>
      </trkpt>
      <trkpt lat="42.5784780" lon="1.5107950">
        <ele>1660.7</ele>
        <time>2021-08-14T06:59:12Z</time>
      </trkpt>
      <trkpt lat="42.5784920" lon="1.5108210">
        <ele>1659.7</ele>
        <time>2021-08-14T06:59:15Z</time>
      </trkpt>
      <trkpt lat="42.5785100" lon="1.5108550">
        <ele>1658.3</ele>
        <time>2021-08-14T06:59:19Z</time>
      </trkpt>
      <trkpt lat="42.5785300" lon="1.5108890">
        <ele>1656.9</ele>
        <time>2021-08-14T06:59:25Z</time>
      </trkpt>
      <trkpt lat="42.5785650" lon="1.5110060">
        <ele>1653.0</ele>
        <time>2021-08-14T06:59:36Z</time>
      </trkpt>
      <trkpt lat="42.5785740" lon="1.5110320">
        <ele>1652.2</ele>
        <time>2021-08-14T06:59:39Z</time>
      </trkpt>
      <trkpt lat="42.5785760" lon="1.5110570">
        <ele>1651.5</ele>
        <time>2021-08-14T06:59:44Z</time>
      </trkpt>
      <trkpt lat="42.5785920" lon="1.5110870">
        <ele>1650.5</ele>
        <time>2021-08-14T06:59:49Z</time>
      </trkpt>
      <trkpt lat="42.5785950" lon="1.5111320">
        <ele>1649.3</ele>
        <time>2021-08-14T06:59:57Z</time>
      </trkpt>
      <trkpt lat="42.5785910" lon="1.5111790">
        <ele>1648.1</ele>
        <time>2021-08-14T07:00:06Z</time>
      </trkpt>
      <trkpt lat="42.5785940" lon="1.5112200">
        <ele>1647.0</ele>
        <time>2021-08-14T07:00:12Z</time>
      </trkpt>
      <trkpt lat="42.5786050" lon="1.5113310">
        <ele>1644.2</ele>
        <time>2021-08-14T07:00:19Z</time>
      </trkpt>
      <trkpt lat="42.5786540" lon="1.5115750">
        <ele>1637.2</ele>
        <time>2021-08-14T07:00:45Z</time>
      </trkpt>
      <trkpt lat="42.5786540" lon="1.5116170">
        <ele>1635.9</ele>
        <time>2021-08-14T07:00:58Z</time>
      </trkpt>
      <trkpt lat="42.5786510" lon="1.5116270">
        <ele>1635.6</ele>
        <time>2021-08-14T07:00:59Z</time>
      </trkpt>
      <trkpt lat="42.5786490" lon="1.5116300">
        <ele>1635.5</ele>
        <time>2021-08-14T07:01:00Z</time>
      </trkpt>
      <trkpt lat="42.5786480" lon="1.5116350">
        <ele>1635.3</ele>
        <time>2021-08-14T07:01:01Z</time>
      </trkpt>
      <trkpt lat="42.5786380" lon="1.5116470">
        <ele>1634.7</ele>
        <time>2021-08-14T07:01:03Z</time>
      </trkpt>
      <trkpt lat="42.5786400" lon="1.5116970">
        <ele>1633.1</ele>
        <time>2021-08-14T07:01:07Z</time>
      </trkpt>
      <trkpt lat="42.5786370" lon="1.5117130">
        <ele>1632.6</ele>
        <time>2021-08-14T07:01:08Z</time>
      </trkpt>
      <trkpt lat="42.5786330" lon="1.5117330">
        <ele>1631.9</ele>
        <time>2021-08-14T07:01:13Z</time>
      </trkpt>
      <trkpt lat="42.5785850" lon="1.5119710">
        <ele>1624.0</ele>
        <time>2021-08-14T07:01:43Z</time>
      </trkpt>
      <trkpt lat="42.5785410" lon="1.5121130">
        <ele>1619.3</ele>
        <time>2021-08-14T07:01:58Z</time>
      </trkpt>
      <trkpt lat="42.5786140" lon="1.5122090">
        <ele>1615.1</ele>
        <time>2021-08-14T07:02:18Z</time>
      </trkpt>
      <trkpt lat="42.5786130" lon="1.5122050">
        <ele>1615.0</ele>
        <time>2021-08-14T07:02:27Z</time>
      </trkpt>
      <trkpt lat="42.5785820" lon="1.5121670">
        <ele>1613.3</ele>
        <time>2021-08-14T07:02:42Z</time>
      </trkpt>
      <trkpt lat="42.5785530" lon="1.5121800">
        <ele>1612.1</ele>
        <time>2021-08-14T07:06:37Z</time>
      </trkpt>
      <trkpt lat="42.5785590" lon="1.5121830">
        <ele>1611.8</ele>
        <time>2021-08-14T07:06:38Z</time>
      </trkpt>
      <trkpt lat="42.5785670" lon="1.5121920">
        <ele>1611.4</ele>
        <time>2021-08-14T07:06:39Z</time>
      </trkpt>
      <trkpt lat="42.5785810" lon="1.5122080">
        <ele>1610.6</ele>
        <time>2021-08-14T07:06:43Z</time>
      </trkpt>
      <trkpt lat="42.5785860" lon="1.5122090">
        <ele>1610.4</ele>
        <time>2021-08-14T07:06:44Z</time>
      </trkpt>
      <trkpt lat="42.5785920" lon="1.5122190">
        <ele>1610.0</ele>
        <time>2021-08-14T07:06:45Z</time>
      </trkpt>
      <trkpt lat="42.5786310" lon="1.5122440">
        <ele>1608.3</ele>
        <time>2021-08-14T07:06:50Z</time>
      </trkpt>
      <trkpt lat="42.5786460" lon="1.5122500">
        <ele>1607.7</ele>
        <time>2021-08-14T07:06:54Z</time>
      </trkpt>
      <trkpt lat="42.5786610" lon="1.5122570">
        <ele>1607.0</ele>
        <time>2021-08-14T07:07:01Z</time>
      </trkpt>
      <trkpt lat="42.5786670" lon="1.5122790">
        <ele>1606.3</ele>
        <time>2021-08-14T07:07:07Z</time>
      </trkpt>
      <trkpt lat="42.5786670" lon="1.5122850">
        <ele>1606.1</ele>
        <time>2021-08-14T07:07:08Z</time>
      </trkpt>
      <trkpt lat="42.5786710" lon="1.5122900">
        <ele>1605.9</ele>
        <time>2021-08-14T07:07:09Z</time>
      </trkpt>
      <trkpt lat="42.5787150" lon="1.5123530">
        <ele>1603.4</ele>
        <time>2021-08-14T07:07:21Z</time>
      </trkpt>
      <trkpt lat="42.5787150" lon="1.5123560">
        <ele>1603.3</ele>
        <time>2021-08-14T07:07:23Z</time>
      </trkpt>
      <trkpt lat="42.5787480" lon="1.5124150">
        <ele>1601.1</ele>
        <time>2021-08-14T07:07:29Z</time>
      </trkpt>
      <trkpt lat="42.5788480" lon="1.5125120">
        <ele>1596.0</ele>
        <time>2021-08-14T07:07:49Z</time>
      </trkpt>
      <trkpt lat="42.5790050" lon="1.5126260">
        <ele>1588.7</ele>
        <time>2021-08-14T07:08:09Z</time>
      </trkpt>
      <trkpt lat="42.5790480" lon="1.5126980">
        <ele>1586.1</ele>
        <time>2021-08-14T07:08:17Z</time>
      </trkpt>
      <trkpt lat="42.5790520" lon="1.5127060">
        <ele>1585.8</ele>
        <time>2021-08-14T07:08:18Z</time>
      </trkpt>
      <trkpt lat="42.5790570" lon="1.5127170">
        <ele>1585.4</ele>
        <time>2021-08-14T07:08:19Z</time>
      </trkpt>
      <trkpt lat="42.5791990" lon="1.5128750">
        <ele>1578.5</ele>
        <time>2021-08-14T07:08:47Z</time>
      </trkpt>
      <trkpt lat="42.5792170" lon="1.5129480">
        <ele>1576.3</ele>
        <time>2021-08-14T07:09:00Z</time>
      </trkpt>
      <trkpt lat="42.5793420" lon="1.5131410">
        <ele>1569.0</ele>
        <time>2021-08-14T07:09:24Z</time>
      </trkpt>
      <trkpt lat="42.5794040" lon="1.5132730">
        <ele>1564.5</ele>
        <time>2021-08-14T07:09:38Z</time>
      </trkpt>
      <trkpt lat="42.5795200" lon="1.5134580">
        <ele>1557.7</ele>
        <time>2021-08-14T07:09:58Z</time>
      </trkpt>
      <trkpt lat="42.5795460" lon="1.5135130">
        <ele>1555.9</ele>
        <time>2021-08-14T07:10:08Z</time>
      </trkpt>
      <trkpt lat="42.5796440" lon="1.5137370">
        <ele>1549.0</ele>
        <time>2021-08-14T07:10:27Z</time>
      </trkpt>
      <trkpt lat="42.5796590" lon="1.5137690">
        <ele>1548.0</ele>
        <time>2021-08-14T07:10:31Z</time>
      </trkpt>
      <trkpt lat="42.5796690" lon="1.5137780">
        <ele>1547.5</ele>
        <time>2021-08-14T07:10:34Z</time>
      </trkpt>
      <trkpt lat="42.5796810" lon="1.5137860">
        <ele>1547.1</ele>
        <time>2021-08-14T07:10:36Z</time>
      </trkpt>
      <trkpt lat="42.5796850" lon="1.5137880">
        <ele>1546.9</ele>
        <time>2021-08-14T07:10:37Z</time>
      </trkpt>
      <trkpt lat="42.5796980" lon="1.5138010">
        <ele>1546.3</ele>
        <time>2021-08-14T07:10:40Z</time>
      </trkpt>
      <trkpt lat="42.5797020" lon="1.5138070">
        <ele>1546.1</ele>
        <time>2021-08-14T07:10:41Z</time>
      </trkpt>
      <trkpt lat="42.5797130" lon="1.5138080">
        <ele>1545.7</ele>
        <time>2021-08-14T07:10:43Z</time>
      </trkpt>
      <trkpt lat="42.5797240" lon="1.5138110">
        <ele>1545.3</ele>
        <time>2021-08-14T07:10:45Z</time>
      </trkpt>
      <trkpt lat="42.5797300" lon="1.5138140">
        <ele>1545.1</ele>
        <time>2021-08-14T07:10:46Z</time>
      </trkpt>
      <trkpt lat="42.5797360" lon="1.5138180">
        <ele>1544.8</ele>
        <time>2021-08-14T07:10:47Z</time>
      </trkpt>
      <trkpt lat="42.5797420" lon="1.5138230">
        <ele>1544.6</ele>
        <time>2021-08-14T07:10:48Z</time>
      </trkpt>
      <trkpt lat="42.5797450" lon="1.5138260">
        <ele>1544.4</ele>
        <time>2021-08-14T07:10:49Z</time>
      </trkpt>
      <trkpt lat="42.5797470" lon="1.5138270">
        <ele>1544.4</ele>
        <time>2021-08-14T07:10:51Z</time>
      </trkpt>
      <trkpt lat="42.5797480" lon="1.5138270">
        <ele>1544.3</ele>
        <time>2021-08-14T07:10:52Z</time>
      </trkpt>
      <trkpt lat="42.5797490" lon="1.5138280">
        <ele>1544.3</ele>
        <time>2021-08-14T07:10:53Z</time>
      </trkpt>
      <trkpt lat="42.5797530" lon="1.5138300">
        <ele>1544.1</ele>
        <time>2021-08-14T07:10:54Z</time>
      </trkpt>
      <trkpt lat="42.5797660" lon="1.5138400">
        <ele>1543.6</ele>
        <time>2021-08-14T07:10:56Z</time>
      </trkpt>
      <trkpt lat="42.5798860" lon="1.5139210">
        <ele>1538.9</ele>
        <time>2021-08-14T07:11:19Z</time>
      </trkpt>
      <trkpt lat="42.5799840" lon="1.5139720">
        <ele>1535.5</ele>
        <time>2021-08-14T07:11:31Z</time>
      </trkpt>
      <trkpt lat="42.5800150" lon="1.5140000">
        <ele>1534.0</ele>
        <time>2021-08-14T07:11:37Z</time>
      </trkpt>
      <trkpt lat="42.5800530" lon="1.5140050">
        <ele>1532.6</ele>
        <time>2021-08-14T07:11:45Z</time>
      </trkpt>
      <trkpt lat="42.5800710" lon="1.5139670">
        <ele>1532.6</ele>
        <time>2021-08-14T07:11:53Z</time>
      </trkpt>
      <trkpt lat="42.5800760" lon="1.5139240">
        <ele>1532.5</ele>
        <time>2021-08-14T07:12:00Z</time>
      </trkpt>
      <trkpt lat="42.5801090" lon="1.5139060">
        <ele>1531.2</ele>
        <time>2021-08-14T07:12:05Z</time>
      </trkpt>
      <trkpt lat="42.5801120" lon="1.5138930">
        <ele>1530.0</ele>
        <time>2021-08-14T07:12:07Z</time>
      </trkpt>
      <trkpt lat="42.5801360" lon="1.5138690">
        <ele>1530.0</ele>
        <time>2021-08-14T07:12:15Z</time>
      </trkpt>
      <trkpt lat="42.5801470" lon="1.5138700">
        <ele>1528.8</ele>
        <time>2021-08-14T07:12:17Z</time>
      </trkpt>
      <trkpt lat="42.5801820" lon="1.5138640">
        <ele>1527.5</ele>
        <time>2021-08-14T07:12:20Z</time>
      </trkpt>
      <trkpt lat="42.5802180" lon="1.5138530">
        <ele>1526.3</ele>
        <time>2021-08-14T07:12:23Z</time>
      </trkpt>
      <trkpt lat="42.5802320" lon="1.5138450">
        <ele>1525.1</ele>
        <time>2021-08-14T07:12:24Z</time>
      </trkpt>
      <trkpt lat="42.5802410" lon="1.5138390">
        <ele>1523.9</ele>
        <time>2021-08-14T07:12:25Z</time>
      </trkpt>
      <trkpt lat="42.5802690" lon="1.5138110">
        <ele>1524.0</ele>
        <time>2021-08-14T07:12:28Z</time>
      </trkpt>
      <trkpt lat="42.5802820" lon="1.5137590">
        <ele>1524.0</ele>
        <time>2021-08-14T07:12:32Z</time>
      </trkpt>
      <trkpt lat="42.5802970" lon="1.5137500">
        <ele>1524.0</ele>
        <time>2021-08-14T07:12:34Z</time>
      </trkpt>
      <trkpt lat="42.5803110" lon="1.5137590">
        <ele>1521.7</ele>
        <time>2021-08-14T07:12:40Z</time>
      </trkpt>
      <trkpt lat="42.5803070" lon="1.5137570">
        <ele>1520.5</ele>
        <time>2021-08-14T07:12:41Z</time>
      </trkpt>
      <trkpt lat="42.5803090" lon="1.5137540">
        <ele>1519.3</ele>
        <time>2021-08-14T07:12:42Z</time>
      </trkpt>
      <trkpt lat="42.5803460" lon="1.5136510">
        <ele>1521.8</ele>
        <time>2021-08-14T07:12:50Z</time>
      </trkpt>
      <trkpt lat="42.5803600" lon="1.5135840">
        <ele>1522.3</ele>
        <time>2021-08-14T07:12:54Z</time>
      </trkpt>
      <trkpt lat="42.5803700" lon="1.5135290">
        <ele>1524.6</ele>
        <time>2021-08-14T07:12:58Z</time>
      </trkpt>
      <trkpt lat="42.5803720" lon="1.5135160">
        <ele>1523.4</ele>
        <time>2021-08-14T07:12:59Z</time>
      </trkpt>
      <trkpt lat="42.5803730" lon="1.5135040">
        <ele>1522.2</ele>
        <time>2021-08-14T07:13:00Z</time>
      </trkpt>
      <trkpt lat="42.5803740" lon="1.5134910">
        <ele>1523.2</ele>
        <time>2021-08-14T07:13:01Z</time>
      </trkpt>
      <trkpt lat="42.5803750" lon="1.5134530">
        <ele>1522.0</ele>
        <time>2021-08-14T07:13:04Z</time>
      </trkpt>
      <trkpt lat="42.5803750" lon="1.5134170">
        <ele>1523.3</ele>
        <time>2021-08-14T07:13:07Z</time>
      </trkpt>
      <trkpt lat="42.5803760" lon="1.5133900">
        <ele>1524.9</ele>
        <time>2021-08-14T07:13:11Z</time>
      </trkpt>
      <trkpt lat="42.5803950" lon="1.5133490">
        <ele>1526.9</ele>
        <time>2021-08-14T07:13:18Z</time>
      </trkpt>
      <trkpt lat="42.5804070" lon="1.5133260">
        <ele>1525.7</ele>
        <time>2021-08-14T07:13:24Z</time>
      </trkpt>
      <trkpt lat="42.5805860" lon="1.5133690">
        <ele>1522.7</ele>
        <time>2021-08-14T07:13:46Z</time>
      </trkpt>
      <trkpt lat="42.5806960" lon="1.5134870">
        <ele>1517.2</ele>
        <time>2021-08-14T07:14:06Z</time>
      </trkpt>
      <trkpt lat="42.5807400" lon="1.5135250">
        <ele>1514.4</ele>
        <time>2021-08-14T07:14:12Z</time>
      </trkpt>
      <trkpt lat="42.5807650" lon="1.5135470">
        <ele>1511.5</ele>
        <time>2021-08-14T07:14:17Z</time>
      </trkpt>
      <trkpt lat="42.5807870" lon="1.5136360">
        <ele>1507.3</ele>
        <time>2021-08-14T07:14:45Z</time>
      </trkpt>
      <trkpt lat="42.5807540" lon="1.5136460">
        <ele>1505.9</ele>
        <time>2021-08-14T07:14:48Z</time>
      </trkpt>
      <trkpt lat="42.5808250" lon="1.5136670">
        <ele>1505.2</ele>
        <time>2021-08-14T07:15:04Z</time>
      </trkpt>
      <trkpt lat="42.5809960" lon="1.5135700">
        <ele>1508.2</ele>
        <time>2021-08-14T07:15:19Z</time>
      </trkpt>
      <trkpt lat="42.5810760" lon="1.5137200">
        <ele>1502.0</ele>
        <time>2021-08-14T07:15:38Z</time>
      </trkpt>
      <trkpt lat="42.5810040" lon="1.5137420">
        <ele>1500.3</ele>
        <time>2021-08-14T07:15:48Z</time>
      </trkpt>
      <trkpt lat="42.5808520" lon="1.5138880">
        <ele>1492.1</ele>
        <time>2021-08-14T07:16:14Z</time>
      </trkpt>
      <trkpt lat="42.5807970" lon="1.5138900">
        <ele>1490.3</ele>
        <time>2021-08-14T07:16:46Z</time>
      </trkpt>
      <trkpt lat="42.5808150" lon="1.5139070">
        <ele>1489.4</ele>
        <time>2021-08-14T07:16:51Z</time>
      </trkpt>
      <trkpt lat="42.5809050" lon="1.5141050">
        <ele>1483.7</ele>
        <time>2021-08-14T07:17:09Z</time>
      </trkpt>
      <trkpt lat="42.5809260" lon="1.5141300">
        <ele>1482.9</ele>
        <time>2021-08-14T07:17:16Z</time>
      </trkpt>
      <trkpt lat="42.5809270" lon="1.5141280">
        <ele>1481.8</ele>
        <time>2021-08-14T07:17:17Z</time>
      </trkpt>
      <trkpt lat="42.5810480" lon="1.5141670">
        <ele>1481.0</ele>
        <time>2021-08-14T07:17:40Z</time>
      </trkpt>
      <trkpt lat="42.5810550" lon="1.5141680">
        <ele>1480.4</ele>
        <time>2021-08-14T07:17:41Z</time>
      </trkpt>
      <trkpt lat="42.5810770" lon="1.5141700">
        <ele>1479.2</ele>
        <time>2021-08-14T07:17:44Z</time>
      </trkpt>
      <trkpt lat="42.5811050" lon="1.5141870">
        <ele>1477.6</ele>
        <time>2021-08-14T07:17:49Z</time>
      </trkpt>
      <trkpt lat="42.5811790" lon="1.5142470">
        <ele>1477.1</ele>
        <time>2021-08-14T07:18:14Z</time>
      </trkpt>
      <trkpt lat="42.5812180" lon="1.5142410">
        <ele>1476.4</ele>
        <time>2021-08-14T07:18:22Z</time>
      </trkpt>
      <trkpt lat="42.5813070" lon="1.5142960">
        <ele>1475.4</ele>
        <time>2021-08-14T07:18:43Z</time>
      </trkpt>
      <trkpt lat="42.5814390" lon="1.5143070">
        <ele>1476.9</ele>
        <time>2021-08-14T07:19:13Z</time>
      </trkpt>
      <trkpt lat="42.5814600" lon="1.5143080">
        <ele>1475.7</ele>
        <time>2021-08-14T07:19:40Z</time>
      </trkpt>
      <trkpt lat="42.5814530" lon="1.5142980">
        <ele>1474.5</ele>
        <time>2021-08-14T07:19:43Z</time>
      </trkpt>
      <trkpt lat="42.5814540" lon="1.5142980">
        <ele>1473.4</ele>
        <time>2021-08-14T07:19:44Z</time>
      </trkpt>
      <trkpt lat="42.5814550" lon="1.5142950">
        <ele>1472.2</ele>
        <time>2021-08-14T07:19:45Z</time>
      </trkpt>
      <trkpt lat="42.5814550" lon="1.5142930">
        <ele>1471.0</ele>
        <time>2021-08-14T07:19:46Z</time>
      </trkpt>
      <trkpt lat="42.5814500" lon="1.5142830">
        <ele>1469.8</ele>
        <time>2021-08-14T07:19:47Z</time>
      </trkpt>
      <trkpt lat="42.5814510" lon="1.5142760">
        <ele>1468.6</ele>
        <time>2021-08-14T07:19:48Z</time>
      </trkpt>
      <trkpt lat="42.5815170" lon="1.5142790">
        <ele>1468.8</ele>
        <time>2021-08-14T07:20:04Z</time>
      </trkpt>
      <trkpt lat="42.5815210" lon="1.5142780">
        <ele>1467.6</ele>
        <time>2021-08-14T07:20:05Z</time>
      </trkpt>
      <trkpt lat="42.5815200" lon="1.5142790">
        <ele>1466.4</ele>
        <time>2021-08-14T07:20:06Z</time>
      </trkpt>
      <trkpt lat="42.5815250" lon="1.5142800">
        <ele>1465.3</ele>
        <time>2021-08-14T07:20:07Z</time>
      </trkpt>
      <trkpt lat="42.5815350" lon="1.5142650">
        <ele>1466.0</ele>
        <time>2021-08-14T07:20:10Z</time>
      </trkpt>
      <trkpt lat="42.5815430" lon="1.5142530">
        <ele>1464.8</ele>
        <time>2021-08-14T07:20:13Z</time>
      </trkpt>
      <trkpt lat="42.5815440" lon="1.5142450">
        <ele>1463.7</ele>
        <time>2021-08-14T07:20:14Z</time>
      </trkpt>
      <trkpt lat="42.5815550" lon="1.5142230">
        <ele>1463.7</ele>
        <time>2021-08-14T07:20:17Z</time>
      </trkpt>
      <trkpt lat="42.5815820" lon="1.5141550">
        <ele>1464.5</ele>
        <time>2021-08-14T07:20:27Z</time>
      </trkpt>
      <trkpt lat="42.5816020" lon="1.5141470">
        <ele>1465.1</ele>
        <time>2021-08-14T07:20:30Z</time>
      </trkpt>
      <trkpt lat="42.5816300" lon="1.5141410">
        <ele>1465.9</ele>
        <time>2021-08-14T07:20:35Z</time>
      </trkpt>
      <trkpt lat="42.5816370" lon="1.5141720">
        <ele>1466.5</ele>
        <time>2021-08-14T07:20:39Z</time>
      </trkpt>
      <trkpt lat="42.5816350" lon="1.5141970">
        <ele>1466.9</ele>
        <time>2021-08-14T07:20:41Z</time>
      </trkpt>
      <trkpt lat="42.5816450" lon="1.5142490">
        <ele>1467.8</ele>
        <time>2021-08-14T07:20:45Z</time>
      </trkpt>
      <trkpt lat="42.5816700" lon="1.5142880">
        <ele>1468.5</ele>
        <time>2021-08-14T07:20:51Z</time>
      </trkpt>
      <trkpt lat="42.5816760" lon="1.5142940">
        <ele>1468.6</ele>
        <time>2021-08-14T07:20:52Z</time>
      </trkpt>
      <trkpt lat="42.5816970" lon="1.5143140">
        <ele>1469.0</ele>
        <time>2021-08-14T07:20:55Z</time>
      </trkpt>
      <trkpt lat="42.5817150" lon="1.5143140">
        <ele>1469.2</ele>
        <time>2021-08-14T07:20:58Z</time>
      </trkpt>
      <trkpt lat="42.5817400" lon="1.5143170">
        <ele>1469.5</ele>
        <time>2021-08-14T07:21:02Z</time>
      </trkpt>
      <trkpt lat="42.5817590" lon="1.5143230">
        <ele>1469.7</ele>
        <time>2021-08-14T07:21:06Z</time>
      </trkpt>
      <trkpt lat="42.5817820" lon="1.5143460">
        <ele>1469.9</ele>
        <time>2021-08-14T07:21:10Z</time>
      </trkpt>
      <trkpt lat="42.5818990" lon="1.5145470">
        <ele>1469.4</ele>
        <time>2021-08-14T07:21:27Z</time>
      </trkpt>
      <trkpt lat="42.5819310" lon="1.5146230">
        <ele>1468.7</ele>
        <time>2021-08-14T07:21:33Z</time>
      </trkpt>
      <trkpt lat="42.5819450" lon="1.5146550">
        <ele>1468.3</ele>
        <time>2021-08-14T07:21:37Z</time>
      </trkpt>
      <trkpt lat="42.5819550" lon="1.5147280">
        <ele>1467.6</ele>
        <time>2021-08-14T07:21:47Z</time>
      </trkpt>
      <trkpt lat="42.5819560" lon="1.5147430">
        <ele>1467.4</ele>
        <time>2021-08-14T07:21:48Z</time>
      </trkpt>
      <trkpt lat="42.5819720" lon="1.5148140">
        <ele>1466.4</ele>
        <time>2021-08-14T07:21:53Z</time>
      </trkpt>
      <trkpt lat="42.5819980" lon="1.5148980">
        <ele>1465.1</ele>
        <time>2021-08-14T07:21:59Z</time>
      </trkpt>
      <trkpt lat="42.5820190" lon="1.5151410">
        <ele>1459.5</ele>
        <time>2021-08-14T07:22:19Z</time>
      </trkpt>
      <trkpt lat="42.5819860" lon="1.5152370">
        <ele>1456.2</ele>
        <time>2021-08-14T07:22:35Z</time>
      </trkpt>
      <trkpt lat="42.5819950" lon="1.5154790">
        <ele>1447.9</ele>
        <time>2021-08-14T07:23:22Z</time>
      </trkpt>
      <trkpt lat="42.5819810" lon="1.5156590">
        <ele>1441.5</ele>
        <time>2021-08-14T07:23:58Z</time>
      </trkpt>
      <trkpt lat="42.5819790" lon="1.5156620">
        <ele>1441.4</ele>
        <time>2021-08-14T07:23:59Z</time>
      </trkpt>
      <trkpt lat="42.5819210" lon="1.5157480">
        <ele>1437.2</ele>
        <time>2021-08-14T07:24:23Z</time>
      </trkpt>
      <trkpt lat="42.5819110" lon="1.5159080">
        <ele>1431.9</ele>
        <time>2021-08-14T07:24:42Z</time>
      </trkpt>
      <trkpt lat="42.5819320" lon="1.5160600">
        <ele>1427.7</ele>
        <time>2021-08-14T07:25:32Z</time>
      </trkpt>
      <trkpt lat="42.5819400" lon="1.5160800">
        <ele>1427.2</ele>
        <time>2021-08-14T07:25:34Z</time>
      </trkpt>
      <trkpt lat="42.5819570" lon="1.5161270">
        <ele>1426.0</ele>
        <time>2021-08-14T07:25:38Z</time>
      </trkpt>
      <trkpt lat="42.5819950" lon="1.5161930">
        <ele>1424.2</ele>
        <time>2021-08-14T07:25:46Z</time>
      </trkpt>
      <trkpt lat="42.5820220" lon="1.5162470">
        <ele>1422.9</ele>
        <time>2021-08-14T07:25:52Z</time>
      </trkpt>
      <trkpt lat="42.5820480" lon="1.5162790">
        <ele>1421.9</ele>
        <time>2021-08-14T07:25:56Z</time>
      </trkpt>
      <trkpt lat="42.5820650" lon="1.5163150">
        <ele>1421.1</ele>
        <time>2021-08-14T07:26:00Z</time>
      </trkpt>
      <trkpt lat="42.5821370" lon="1.5165440">
        <ele>1416.4</ele>
        <time>2021-08-14T07:26:27Z</time>
      </trkpt>
      <trkpt lat="42.5822220" lon="1.5167560">
        <ele>1412.1</ele>
        <time>2021-08-14T07:26:52Z</time>
      </trkpt>
      <trkpt lat="42.5822270" lon="1.5167620">
        <ele>1411.9</ele>
        <time>2021-08-14T07:26:57Z</time>
      </trkpt>
      <trkpt lat="42.5822270" lon="1.5167860">
        <ele>1411.6</ele>
        <time>2021-08-14T07:27:17Z</time>
      </trkpt>
      <trkpt lat="42.5822500" lon="1.5168140">
        <ele>1411.0</ele>
        <time>2021-08-14T07:27:24Z</time>
      </trkpt>
      <trkpt lat="42.5823400" lon="1.5168420">
        <ele>1409.3</ele>
        <time>2021-08-14T07:27:37Z</time>
      </trkpt>
      <trkpt lat="42.5823520" lon="1.5168460">
        <ele>1409.1</ele>
        <time>2021-08-14T07:27:39Z</time>
      </trkpt>
      <trkpt lat="42.5823560" lon="1.5168480">
        <ele>1409.0</ele>
        <time>2021-08-14T07:27:40Z</time>
      </trkpt>
      <trkpt lat="42.5823600" lon="1.5168490">
        <ele>1408.9</ele>
        <time>2021-08-14T07:27:41Z</time>
      </trkpt>
      <trkpt lat="42.5823670" lon="1.5168480">
        <ele>1408.8</ele>
        <time>2021-08-14T07:27:43Z</time>
      </trkpt>
      <trkpt lat="42.5823800" lon="1.5168490">
        <ele>1408.6</ele>
        <time>2021-08-14T07:27:45Z</time>
      </trkpt>
      <trkpt lat="42.5823940" lon="1.5168500">
        <ele>1408.4</ele>
        <time>2021-08-14T07:27:47Z</time>
      </trkpt>
      <trkpt lat="42.5824080" lon="1.5168610">
        <ele>1408.1</ele>
        <time>2021-08-14T07:27:49Z</time>
      </trkpt>
      <trkpt lat="42.5824310" lon="1.5168790">
        <ele>1407.7</ele>
        <time>2021-08-14T07:27:52Z</time>
      </trkpt>
      <trkpt lat="42.5824380" lon="1.5168830">
        <ele>1407.5</ele>
        <time>2021-08-14T07:27:53Z</time>
      </trkpt>
      <trkpt lat="42.5824440" lon="1.5168880">
        <ele>1407.4</ele>
        <time>2021-08-14T07:27:54Z</time>
      </trkpt>
      <trkpt lat="42.5824650" lon="1.5169050">
        <ele>1407.0</ele>
        <time>2021-08-14T07:27:56Z</time>
      </trkpt>
      <trkpt lat="42.5824740" lon="1.5169110">
        <ele>1406.8</ele>
        <time>2021-08-14T07:27:57Z</time>
      </trkpt>
      <trkpt lat="42.5824930" lon="1.5169230">
        <ele>1406.5</ele>
        <time>2021-08-14T07:27:59Z</time>
      </trkpt>
      <trkpt lat="42.5825130" lon="1.5169400">
        <ele>1406.0</ele>
        <time>2021-08-14T07:28:01Z</time>
      </trkpt>
      <trkpt lat="42.5825320" lon="1.5169510">
        <ele>1405.7</ele>
        <time>2021-08-14T07:28:03Z</time>
      </trkpt>
      <trkpt lat="42.5825440" lon="1.5169530">
        <ele>1405.5</ele>
        <time>2021-08-14T07:28:04Z</time>
      </trkpt>
      <trkpt lat="42.5826200" lon="1.5170590">
        <ele>1403.3</ele>
        <time>2021-08-14T07:28:13Z</time>
      </trkpt>
      <trkpt lat="42.5826280" lon="1.5170610">
        <ele>1403.1</ele>
        <time>2021-08-14T07:28:14Z</time>
      </trkpt>
      <trkpt lat="42.5826340" lon="1.5170640">
        <ele>1403.0</ele>
        <time>2021-08-14T07:28:15Z</time>
      </trkpt>
      <trkpt lat="42.5826420" lon="1.5170690">
        <ele>1402.8</ele>
        <time>2021-08-14T07:28:16Z</time>
      </trkpt>
      <trkpt lat="42.5826820" lon="1.5172590">
        <ele>1400.0</ele>
        <time>2021-08-14T07:28:36Z</time>
      </trkpt>
      <trkpt lat="42.5826350" lon="1.5172820">
        <ele>1399.6</ele>
        <time>2021-08-14T07:28:41Z</time>
      </trkpt>
      <trkpt lat="42.5825710" lon="1.5172690">
        <ele>1398.9</ele>
        <time>2021-08-14T07:28:58Z</time>
      </trkpt>
      <trkpt lat="42.5825170" lon="1.5172650">
        <ele>1398.2</ele>
        <time>2021-08-14T07:29:06Z</time>
      </trkpt>
      <trkpt lat="42.5824920" lon="1.5172770">
        <ele>1397.9</ele>
        <time>2021-08-14T07:29:10Z</time>
      </trkpt>
      <trkpt lat="42.5824640" lon="1.5172820">
        <ele>1397.6</ele>
        <time>2021-08-14T07:29:13Z</time>
      </trkpt>
      <trkpt lat="42.5824170" lon="1.5172970">
        <ele>1396.9</ele>
        <time>2021-08-14T07:29:18Z</time>
      </trkpt>
      <trkpt lat="42.5823880" lon="1.5173090">
        <ele>1396.5</ele>
        <time>2021-08-14T07:29:21Z</time>
      </trkpt>
      <trkpt lat="42.5823660" lon="1.5173250">
        <ele>1396.2</ele>
        <time>2021-08-14T07:29:25Z</time>
      </trkpt>
      <trkpt lat="42.5824620" lon="1.5174300">
        <ele>1391.9</ele>
        <time>2021-08-14T07:29:43Z</time>
      </trkpt>
      <trkpt lat="42.5824020" lon="1.5175420">
        <ele>1388.9</ele>
        <time>2021-08-14T07:29:56Z</time>
      </trkpt>
      <trkpt lat="42.5824450" lon="1.5175850">
        <ele>1387.4</ele>
        <time>2021-08-14T07:30:37Z</time>
      </trkpt>
      <trkpt lat="42.5824520" lon="1.5176260">
        <ele>1386.5</ele>
        <time>2021-08-14T07:30:49Z</time>
      </trkpt>
      <trkpt lat="42.5824670" lon="1.5176930">
        <ele>1385.1</ele>
        <time>2021-08-14T07:30:56Z</time>
      </trkpt>
      <trkpt lat="42.5825120" lon="1.5177850">
        <ele>1389.8</ele>
        <time>2021-08-14T07:31:11Z</time>
      </trkpt>
      <trkpt lat="42.5826490" lon="1.5177660">
        <ele>1389.3</ele>
        <time>2021-08-14T07:31:44Z</time>
      </trkpt>
      <trkpt lat="42.5826530" lon="1.5177620">
        <ele>1389.3</ele>
        <time>2021-08-14T07:31:46Z</time>
      </trkpt>
      <trkpt lat="42.5826600" lon="1.5177670">
        <ele>1389.2</ele>
        <time>2021-08-14T07:31:49Z</time>
      </trkpt>
      <trkpt lat="42.5826610" lon="1.5177680">
        <ele>1389.2</ele>
        <time>2021-08-14T07:31:50Z</time>
      </trkpt>
      <trkpt lat="42.5826620" lon="1.5177700">
        <ele>1389.2</ele>
        <time>2021-08-14T07:31:51Z</time>
      </trkpt>
      <trkpt lat="42.5826630" lon="1.5177730">
        <ele>1389.2</ele>
        <time>2021-08-14T07:31:52Z</time>
      </trkpt>
      <trkpt lat="42.5826640" lon="1.5177780">
        <ele>1389.2</ele>
        <time>2021-08-14T07:31:54Z</time>
      </trkpt>
      <trkpt lat="42.5826710" lon="1.5177700">
        <ele>1389.2</ele>
        <time>2021-08-14T07:32:01Z</time>
      </trkpt>
      <trkpt lat="42.5826190" lon="1.5178030">
        <ele>1388.9</ele>
        <time>2021-08-14T07:32:20Z</time>
      </trkpt>
      <trkpt lat="42.5825720" lon="1.5178360">
        <ele>1388.6</ele>
        <time>2021-08-14T07:32:25Z</time>
      </trkpt>
      <trkpt lat="42.5825300" lon="1.5178560">
        <ele>1387.6</ele>
        <time>2021-08-14T07:32:30Z</time>
      </trkpt>
      <trkpt lat="42.5824980" lon="1.5178860">
        <ele>1386.6</ele>
        <time>2021-08-14T07:32:35Z</time>
      </trkpt>
      <trkpt lat="42.5824770" lon="1.5179000">
        <ele>1386.0</ele>
        <time>2021-08-14T07:32:38Z</time>
      </trkpt>
      <trkpt lat="42.5824760" lon="1.5179220">
        <ele>1385.6</ele>
        <time>2021-08-14T07:32:40Z</time>
      </trkpt>
      <trkpt lat="42.5824680" lon="1.5179660">
        <ele>1384.8</ele>
        <time>2021-08-14T07:32:45Z</time>
      </trkpt>
      <trkpt lat="42.5824670" lon="1.5179740">
        <ele>1384.6</ele>
        <time>2021-08-14T07:32:46Z</time>
      </trkpt>
      <trkpt lat="42.5824700" lon="1.5179870">
        <ele>1384.4</ele>
        <time>2021-08-14T07:32:47Z</time>
      </trkpt>
      <trkpt lat="42.5824730" lon="1.5179980">
        <ele>1384.2</ele>
        <time>2021-08-14T07:32:48Z</time>
      </trkpt>
      <trkpt lat="42.5824780" lon="1.5180100">
        <ele>1383.9</ele>
        <time>2021-08-14T07:32:49Z</time>
      </trkpt>
      <trkpt lat="42.5824840" lon="1.5180370">
        <ele>1383.4</ele>
        <time>2021-08-14T07:32:52Z</time>
      </trkpt>
      <trkpt lat="42.5824880" lon="1.5180440">
        <ele>1383.2</ele>
        <time>2021-08-14T07:32:53Z</time>
      </trkpt>
      <trkpt lat="42.5824890" lon="1.5180530">
        <ele>1383.1</ele>
        <time>2021-08-14T07:32:54Z</time>
      </trkpt>
      <trkpt lat="42.5824900" lon="1.5180620">
        <ele>1382.9</ele>
        <time>2021-08-14T07:32:55Z</time>
      </trkpt>
      <trkpt lat="42.5824930" lon="1.5180750">
        <ele>1382.6</ele>
        <time>2021-08-14T07:32:56Z</time>
      </trkpt>
      <trkpt lat="42.5824420" lon="1.5181940">
        <ele>1379.7</ele>
        <time>2021-08-14T07:33:07Z</time>
      </trkpt>
      <trkpt lat="42.5824420" lon="1.5182060">
        <ele>1379.4</ele>
        <time>2021-08-14T07:33:08Z</time>
      </trkpt>
      <trkpt lat="42.5824420" lon="1.5182180">
        <ele>1379.1</ele>
        <time>2021-08-14T07:33:09Z</time>
      </trkpt>
      <trkpt lat="42.5824410" lon="1.5182250">
        <ele>1378.9</ele>
        <time>2021-08-14T07:33:10Z</time>
      </trkpt>
      <trkpt lat="42.5824390" lon="1.5182330">
        <ele>1378.6</ele>
        <time>2021-08-14T07:33:11Z</time>
      </trkpt>
      <trkpt lat="42.5824310" lon="1.5182700">
        <ele>1377.5</ele>
        <time>2021-08-14T07:33:14Z</time>
      </trkpt>
      <trkpt lat="42.5824210" lon="1.5183030">
        <ele>1376.5</ele>
        <time>2021-08-14T07:33:16Z</time>
      </trkpt>
      <trkpt lat="42.5823830" lon="1.5184670">
        <ele>1371.6</ele>
        <time>2021-08-14T07:33:33Z</time>
      </trkpt>
      <trkpt lat="42.5823630" lon="1.5185110">
        <ele>1371.2</ele>
        <time>2021-08-14T07:33:42Z</time>
      </trkpt>
      <trkpt lat="42.5823750" lon="1.5185230">
        <ele>1371.1</ele>
        <time>2021-08-14T07:33:53Z</time>
      </trkpt>
      <trkpt lat="42.5823690" lon="1.5185320">
        <ele>1371.0</ele>
        <time>2021-08-14T07:34:08Z</time>
      </trkpt>
      <trkpt lat="42.5823810" lon="1.5186430">
        <ele>1370.3</ele>
        <time>2021-08-14T07:34:28Z</time>
      </trkpt>
      <trkpt lat="42.5823740" lon="1.5186950">
        <ele>1370.0</ele>
        <time>2021-08-14T07:34:33Z</time>
      </trkpt>
      <trkpt lat="42.5823650" lon="1.5187530">
        <ele>1369.7</ele>
        <time>2021-08-14T07:34:37Z</time>
      </trkpt>
      <trkpt lat="42.5823490" lon="1.5188460">
        <ele>1369.3</ele>
        <time>2021-08-14T07:34:44Z</time>
      </trkpt>
      <trkpt lat="42.5823460" lon="1.5189060">
        <ele>1369.0</ele>
        <time>2021-08-14T07:34:49Z</time>
      </trkpt>
      <trkpt lat="42.5823320" lon="1.5189790">
        <ele>1368.7</ele>
        <time>2021-08-14T07:34:54Z</time>
      </trkpt>
      <trkpt lat="42.5823230" lon="1.5190180">
        <ele>1368.5</ele>
        <time>2021-08-14T07:34:56Z</time>
      </trkpt>
      <trkpt lat="42.5823200" lon="1.5190330">
        <ele>1368.5</ele>
        <time>2021-08-14T07:34:57Z</time>
      </trkpt>
      <trkpt lat="42.5823190" lon="1.5190510">
        <ele>1368.4</ele>
        <time>2021-08-14T07:34:58Z</time>
      </trkpt>
      <trkpt lat="42.5823200" lon="1.5190660">
        <ele>1368.3</ele>
        <time>2021-08-14T07:34:59Z</time>
      </trkpt>
      <trkpt lat="42.5823230" lon="1.5190830">
        <ele>1368.3</ele>
        <time>2021-08-14T07:35:00Z</time>
      </trkpt>
      <trkpt lat="42.5823690" lon="1.5191150">
        <ele>1368.2</ele>
        <time>2021-08-14T07:35:06Z</time>
      </trkpt>
      <trkpt lat="42.5823720" lon="1.5191250">
        <ele>1368.2</ele>
        <time>2021-08-14T07:35:09Z</time>
      </trkpt>
      <trkpt lat="42.5823730" lon="1.5191360">
        <ele>1368.1</ele>
        <time>2021-08-14T07:35:11Z</time>
      </trkpt>
      <trkpt lat="42.5823710" lon="1.5191670">
        <ele>1368.0</ele>
        <time>2021-08-14T07:35:14Z</time>
      </trkpt>
      <trkpt lat="42.5823080" lon="1.5192840">
        <ele>1367.2</ele>
        <time>2021-08-14T07:35:25Z</time>
      </trkpt>
      <trkpt lat="42.5823000" lon="1.5192950">
        <ele>1367.2</ele>
        <time>2021-08-14T07:35:26Z</time>
      </trkpt>
      <trkpt lat="42.5822800" lon="1.5193350">
        <ele>1367.0</ele>
        <time>2021-08-14T07:35:29Z</time>
      </trkpt>
      <trkpt lat="42.5822760" lon="1.5193620">
        <ele>1366.9</ele>
        <time>2021-08-14T07:35:31Z</time>
      </trkpt>
      <trkpt lat="42.5822430" lon="1.5194590">
        <ele>1366.5</ele>
        <time>2021-08-14T07:35:40Z</time>
      </trkpt>
      <trkpt lat="42.5822490" lon="1.5194650">
        <ele>1366.5</ele>
        <time>2021-08-14T07:35:42Z</time>
      </trkpt>
      <trkpt lat="42.5822510" lon="1.5194660">
        <ele>1366.5</ele>
        <time>2021-08-14T07:35:43Z</time>
      </trkpt>
      <trkpt lat="42.5822740" lon="1.5194960">
        <ele>1366.4</ele>
        <time>2021-08-14T07:35:47Z</time>
      </trkpt>
      <trkpt lat="42.5822800" lon="1.5195830">
        <ele>1366.3</ele>
        <time>2021-08-14T07:35:54Z</time>
      </trkpt>
      <trkpt lat="42.5822680" lon="1.5197030">
        <ele>1366.3</ele>
        <time>2021-08-14T07:36:02Z</time>
      </trkpt>
      <trkpt lat="42.5822680" lon="1.5197770">
        <ele>1366.3</ele>
        <time>2021-08-14T07:36:08Z</time>
      </trkpt>
      <trkpt lat="42.5822640" lon="1.5198510">
        <ele>1366.4</ele>
        <time>2021-08-14T07:36:15Z</time>
      </trkpt>
      <trkpt lat="42.5822790" lon="1.5199140">
        <ele>1366.4</ele>
        <time>2021-08-14T07:36:20Z</time>
      </trkpt>
      <trkpt lat="42.5822820" lon="1.5199600">
        <ele>1366.4</ele>
        <time>2021-08-14T07:36:24Z</time>
      </trkpt>
      <trkpt lat="42.5822740" lon="1.5200170">
        <ele>1366.5</ele>
        <time>2021-08-14T07:36:29Z</time>
      </trkpt>
      <trkpt lat="42.5822690" lon="1.5200380">
        <ele>1366.5</ele>
        <time>2021-08-14T07:36:35Z</time>
      </trkpt>
      <trkpt lat="42.5822700" lon="1.5200380">
        <ele>1366.5</ele>
        <time>2021-08-14T07:36:43Z</time>
      </trkpt>
      <trkpt lat="42.5822700" lon="1.5200380">
        <ele>1366.5</ele>
        <time>2021-08-14T07:36:44Z</time>
      </trkpt>
      <trkpt lat="42.5822700" lon="1.5200380">
        <ele>1366.5</ele>
        <time>2021-08-14T07:36:45Z</time>
      </trkpt>
      <trkpt lat="42.5822700" lon="1.5200390">
        <ele>1366.5</ele>
        <time>2021-08-14T07:36:46Z</time>
      </trkpt>
      <trkpt lat="42.5822680" lon="1.5200440">
        <ele>1366.5</ele>
        <time>2021-08-14T07:36:50Z</time>
      </trkpt>
      <trkpt lat="42.5822680" lon="1.5200450">
        <ele>1366.5</ele>
        <time>2021-08-14T07:36:52Z</time>
      </trkpt>
      <trkpt lat="42.5822660" lon="1.5200450">
        <ele>1366.5</ele>
        <time>2021-08-14T07:36:53Z</time>
      </trkpt>
      <trkpt lat="42.5822660" lon="1.5200460">
        <ele>1366.5</ele>
        <time>2021-08-14T07:36:54Z</time>
      </trkpt>
      <trkpt lat="42.5822610" lon="1.5200570">
        <ele>1366.5</ele>
        <time>2021-08-14T07:37:06Z</time>
      </trkpt>
      <trkpt lat="42.5822780" lon="1.5200590">
        <ele>1366.5</ele>
        <time>2021-08-14T07:37:13Z</time>
      </trkpt>
      <trkpt lat="42.5823200" lon="1.5201420">
        <ele>1366.6</ele>
        <time>2021-08-14T07:37:21Z</time>
      </trkpt>
      <trkpt lat="42.5823610" lon="1.5202800">
        <ele>1366.7</ele>
        <time>2021-08-14T07:37:31Z</time>
      </trkpt>
      <trkpt lat="42.5823610" lon="1.5203530">
        <ele>1366.7</ele>
        <time>2021-08-14T07:37:36Z</time>
      </trkpt>
      <trkpt lat="42.5823600" lon="1.5203690">
        <ele>1366.7</ele>
        <time>2021-08-14T07:37:37Z</time>
      </trkpt>
      <trkpt lat="42.5823600" lon="1.5203860">
        <ele>1366.8</ele>
        <time>2021-08-14T07:37:38Z</time>
      </trkpt>
      <trkpt lat="42.5823320" lon="1.5204770">
        <ele>1366.9</ele>
        <time>2021-08-14T07:37:46Z</time>
      </trkpt>
      <trkpt lat="42.5823290" lon="1.5204910">
        <ele>1366.9</ele>
        <time>2021-08-14T07:37:47Z</time>
      </trkpt>
      <trkpt lat="42.5823190" lon="1.5205650">
        <ele>1367.2</ele>
        <time>2021-08-14T07:37:53Z</time>
      </trkpt>
      <trkpt lat="42.5823130" lon="1.5205890">
        <ele>1367.3</ele>
        <time>2021-08-14T07:37:55Z</time>
      </trkpt>
      <trkpt lat="42.5823030" lon="1.5206150">
        <ele>1367.5</ele>
        <time>2021-08-14T07:37:57Z</time>
      </trkpt>
      <trkpt lat="42.5822890" lon="1.5206800">
        <ele>1368.2</ele>
        <time>2021-08-14T07:38:02Z</time>
      </trkpt>
      <trkpt lat="42.5822810" lon="1.5207360">
        <ele>1369.3</ele>
        <time>2021-08-14T07:38:06Z</time>
      </trkpt>
      <trkpt lat="42.5822840" lon="1.5207820">
        <ele>1369.4</ele>
        <time>2021-08-14T07:38:10Z</time>
      </trkpt>
      <trkpt lat="42.5822820" lon="1.5208050">
        <ele>1369.4</ele>
        <time>2021-08-14T07:38:14Z</time>
      </trkpt>
      <trkpt lat="42.5822910" lon="1.5208260">
        <ele>1369.4</ele>
        <time>2021-08-14T07:38:18Z</time>
      </trkpt>
      <trkpt lat="42.5820570" lon="1.5207000">
        <ele>1369.9</ele>
        <time>2021-08-14T08:11:39Z</time>
      </trkpt>
      <trkpt lat="42.5820880" lon="1.5207250">
        <ele>1370.0</ele>
        <time>2021-08-14T08:11:40Z</time>
      </trkpt>
      <trkpt lat="42.5822030" lon="1.5209050">
        <ele>1369.3</ele>
        <time>2021-08-14T08:11:50Z</time>
      </trkpt>
      <trkpt lat="42.5823770" lon="1.5210000">
        <ele>1370.7</ele>
        <time>2021-08-14T08:12:01Z</time>
      </trkpt>
      <trkpt lat="42.5823910" lon="1.5210310">
        <ele>1371.0</ele>
        <time>2021-08-14T08:12:04Z</time>
      </trkpt>
      <trkpt lat="42.5824190" lon="1.5210820">
        <ele>1371.5</ele>
        <time>2021-08-14T08:12:10Z</time>
      </trkpt>
      <trkpt lat="42.5824280" lon="1.5211350">
        <ele>1371.9</ele>
        <time>2021-08-14T08:12:16Z</time>
      </trkpt>
      <trkpt lat="42.5824300" lon="1.5211590">
        <ele>1372.1</ele>
        <time>2021-08-14T08:12:19Z</time>
      </trkpt>
      <trkpt lat="42.5824310" lon="1.5211840">
        <ele>1372.3</ele>
        <time>2021-08-14T08:12:22Z</time>
      </trkpt>
      <trkpt lat="42.5824370" lon="1.5212270">
        <ele>1372.7</ele>
        <time>2021-08-14T08:12:27Z</time>
      </trkpt>
      <trkpt lat="42.5825400" lon="1.5214270">
        <ele>1374.3</ele>
        <time>2021-08-14T08:12:53Z</time>
      </trkpt>
      <trkpt lat="42.5825930" lon="1.5214730">
        <ele>1374.6</ele>
        <time>2021-08-14T08:12:59Z</time>
      </trkpt>
      <trkpt lat="42.5826010" lon="1.5214840">
        <ele>1374.7</ele>
        <time>2021-08-14T08:13:00Z</time>
      </trkpt>
      <trkpt lat="42.5826450" lon="1.5215470">
        <ele>1375.0</ele>
        <time>2021-08-14T08:13:07Z</time>
      </trkpt>
      <trkpt lat="42.5826600" lon="1.5215620">
        <ele>1375.0</ele>
        <time>2021-08-14T08:13:09Z</time>
      </trkpt>
      <trkpt lat="42.5826730" lon="1.5215760">
        <ele>1375.1</ele>
        <time>2021-08-14T08:13:11Z</time>
      </trkpt>
      <trkpt lat="42.5826850" lon="1.5215890">
        <ele>1375.2</ele>
        <time>2021-08-14T08:13:14Z</time>
      </trkpt>
      <trkpt lat="42.5827190" lon="1.5216260">
        <ele>1375.3</ele>
        <time>2021-08-14T08:13:19Z</time>
      </trkpt>
      <trkpt lat="42.5828720" lon="1.5217350">
        <ele>1375.9</ele>
        <time>2021-08-14T08:13:39Z</time>
      </trkpt>
      <trkpt lat="42.5830410" lon="1.5218480">
        <ele>1376.6</ele>
        <time>2021-08-14T08:13:55Z</time>
      </trkpt>
      <trkpt lat="42.5831660" lon="1.5219660">
        <ele>1377.3</ele>
        <time>2021-08-14T08:14:08Z</time>
      </trkpt>
      <trkpt lat="42.5832440" lon="1.5220110">
        <ele>1377.8</ele>
        <time>2021-08-14T08:14:15Z</time>
      </trkpt>
      <trkpt lat="42.5832540" lon="1.5220180">
        <ele>1377.9</ele>
        <time>2021-08-14T08:14:16Z</time>
      </trkpt>
      <trkpt lat="42.5832700" lon="1.5220320">
        <ele>1378.0</ele>
        <time>2021-08-14T08:14:18Z</time>
      </trkpt>
      <trkpt lat="42.5832910" lon="1.5220460">
        <ele>1378.1</ele>
        <time>2021-08-14T08:14:20Z</time>
      </trkpt>
      <trkpt lat="42.5833340" lon="1.5220690">
        <ele>1378.4</ele>
        <time>2021-08-14T08:14:24Z</time>
      </trkpt>
      <trkpt lat="42.5834450" lon="1.5222040">
        <ele>1379.4</ele>
        <time>2021-08-14T08:14:40Z</time>
      </trkpt>
      <trkpt lat="42.5834490" lon="1.5222130">
        <ele>1379.4</ele>
        <time>2021-08-14T08:14:41Z</time>
      </trkpt>
      <trkpt lat="42.5834520" lon="1.5222250">
        <ele>1379.5</ele>
        <time>2021-08-14T08:14:42Z</time>
      </trkpt>
      <trkpt lat="42.5834670" lon="1.5222490">
        <ele>1379.6</ele>
        <time>2021-08-14T08:14:44Z</time>
      </trkpt>
      <trkpt lat="42.5834810" lon="1.5222720">
        <ele>1379.8</ele>
        <time>2021-08-14T08:14:46Z</time>
      </trkpt>
      <trkpt lat="42.5835700" lon="1.5223840">
        <ele>1380.6</ele>
        <time>2021-08-14T08:14:56Z</time>
      </trkpt>
      <trkpt lat="42.5836060" lon="1.5224330">
        <ele>1380.6</ele>
        <time>2021-08-14T08:15:01Z</time>
      </trkpt>
      <trkpt lat="42.5836440" lon="1.5224830">
        <ele>1380.7</ele>
        <time>2021-08-14T08:15:06Z</time>
      </trkpt>
      <trkpt lat="42.5837240" lon="1.5226080">
        <ele>1380.6</ele>
        <time>2021-08-14T08:15:17Z</time>
      </trkpt>
      <trkpt lat="42.5838440" lon="1.5228030">
        <ele>1381.0</ele>
        <time>2021-08-14T08:15:36Z</time>
      </trkpt>
      <trkpt lat="42.5839960" lon="1.5229440">
        <ele>1381.8</ele>
        <time>2021-08-14T08:15:53Z</time>
      </trkpt>
      <trkpt lat="42.5840670" lon="1.5229820">
        <ele>1382.1</ele>
        <time>2021-08-14T08:16:00Z</time>
      </trkpt>
      <trkpt lat="42.5842350" lon="1.5230130">
        <ele>1382.3</ele>
        <time>2021-08-14T08:16:15Z</time>
      </trkpt>
      <trkpt lat="42.5842480" lon="1.5230140">
        <ele>1382.3</ele>
        <time>2021-08-14T08:16:16Z</time>
      </trkpt>
      <trkpt lat="42.5842740" lon="1.5230170">
        <ele>1382.3</ele>
        <time>2021-08-14T08:16:18Z</time>
      </trkpt>
      <trkpt lat="42.5843060" lon="1.5230250">
        <ele>1382.3</ele>
        <time>2021-08-14T08:16:21Z</time>
      </trkpt>
      <trkpt lat="42.5843530" lon="1.5230310">
        <ele>1382.4</ele>
        <time>2021-08-14T08:16:26Z</time>
      </trkpt>
      <trkpt lat="42.5845270" lon="1.5230910">
        <ele>1382.6</ele>
        <time>2021-08-14T08:16:40Z</time>
      </trkpt>
      <trkpt lat="42.5846040" lon="1.5231280">
        <ele>1382.7</ele>
        <time>2021-08-14T08:16:47Z</time>
      </trkpt>
      <trkpt lat="42.5846800" lon="1.5231530">
        <ele>1382.8</ele>
        <time>2021-08-14T08:16:55Z</time>
      </trkpt>
      <trkpt lat="42.5848570" lon="1.5231900">
        <ele>1382.9</ele>
        <time>2021-08-14T08:17:13Z</time>
      </trkpt>
      <trkpt lat="42.5850440" lon="1.5231810">
        <ele>1383.0</ele>
        <time>2021-08-14T08:17:33Z</time>
      </trkpt>
      <trkpt lat="42.5852250" lon="1.5231660">
        <ele>1383.1</ele>
        <time>2021-08-14T08:17:51Z</time>
      </trkpt>
      <trkpt lat="42.5854080" lon="1.5231640">
        <ele>1383.4</ele>
        <time>2021-08-14T08:18:09Z</time>
      </trkpt>
      <trkpt lat="42.5855900" lon="1.5231820">
        <ele>1383.8</ele>
        <time>2021-08-14T08:18:27Z</time>
      </trkpt>
      <trkpt lat="42.5856380" lon="1.5231820">
        <ele>1383.9</ele>
        <time>2021-08-14T08:18:32Z</time>
      </trkpt>
      <trkpt lat="42.5858250" lon="1.5232060">
        <ele>1384.7</ele>
        <time>2021-08-14T08:18:50Z</time>
      </trkpt>
      <trkpt lat="42.5859110" lon="1.5232650">
        <ele>1385.3</ele>
        <time>2021-08-14T08:18:59Z</time>
      </trkpt>
      <trkpt lat="42.5859240" lon="1.5232700">
        <ele>1385.3</ele>
        <time>2021-08-14T08:19:00Z</time>
      </trkpt>
      <trkpt lat="42.5860740" lon="1.5232960">
        <ele>1386.5</ele>
        <time>2021-08-14T08:19:14Z</time>
      </trkpt>
      <trkpt lat="42.5861560" lon="1.5233010">
        <ele>1387.2</ele>
        <time>2021-08-14T08:19:23Z</time>
      </trkpt>
      <trkpt lat="42.5862100" lon="1.5233660">
        <ele>1387.9</ele>
        <time>2021-08-14T08:19:31Z</time>
      </trkpt>
      <trkpt lat="42.5862190" lon="1.5233760">
        <ele>1388.0</ele>
        <time>2021-08-14T08:19:32Z</time>
      </trkpt>
      <trkpt lat="42.5862920" lon="1.5235240">
        <ele>1389.4</ele>
        <time>2021-08-14T08:19:45Z</time>
      </trkpt>
      <trkpt lat="42.5863760" lon="1.5237520">
        <ele>1391.7</ele>
        <time>2021-08-14T08:20:06Z</time>
      </trkpt>
      <trkpt lat="42.5863780" lon="1.5237720">
        <ele>1391.9</ele>
        <time>2021-08-14T08:20:08Z</time>
      </trkpt>
      <trkpt lat="42.5863760" lon="1.5237780">
        <ele>1392.0</ele>
        <time>2021-08-14T08:20:09Z</time>
      </trkpt>
      <trkpt lat="42.5863770" lon="1.5238000">
        <ele>1392.2</ele>
        <time>2021-08-14T08:20:12Z</time>
      </trkpt>
      <trkpt lat="42.5863980" lon="1.5238420">
        <ele>1392.8</ele>
        <time>2021-08-14T08:20:16Z</time>
      </trkpt>
      <trkpt lat="42.5864660" lon="1.5240770">
        <ele>1395.5</ele>
        <time>2021-08-14T08:20:38Z</time>
      </trkpt>
      <trkpt lat="42.5864810" lon="1.5241030">
        <ele>1396.1</ele>
        <time>2021-08-14T08:20:41Z</time>
      </trkpt>
      <trkpt lat="42.5864910" lon="1.5241150">
        <ele>1396.1</ele>
        <time>2021-08-14T08:20:43Z</time>
      </trkpt>
      <trkpt lat="42.5864990" lon="1.5241210">
        <ele>1396.2</ele>
        <time>2021-08-14T08:20:45Z</time>
      </trkpt>
      <trkpt lat="42.5865060" lon="1.5241260">
        <ele>1396.2</ele>
        <time>2021-08-14T08:20:46Z</time>
      </trkpt>
      <trkpt lat="42.5865140" lon="1.5241340">
        <ele>1396.2</ele>
        <time>2021-08-14T08:20:47Z</time>
      </trkpt>
      <trkpt lat="42.5865390" lon="1.5241370">
        <ele>1396.3</ele>
        <time>2021-08-14T08:20:50Z</time>
      </trkpt>
      <trkpt lat="42.5865480" lon="1.5241350">
        <ele>1396.3</ele>
        <time>2021-08-14T08:20:51Z</time>
      </trkpt>
      <trkpt lat="42.5865690" lon="1.5241350">
        <ele>1396.4</ele>
        <time>2021-08-14T08:20:53Z</time>
      </trkpt>
      <trkpt lat="42.5865800" lon="1.5241260">
        <ele>1396.4</ele>
        <time>2021-08-14T08:20:54Z</time>
      </trkpt>
      <trkpt lat="42.5865910" lon="1.5241140">
        <ele>1396.4</ele>
        <time>2021-08-14T08:20:55Z</time>
      </trkpt>
      <trkpt lat="42.5866020" lon="1.5241040">
        <ele>1396.4</ele>
        <time>2021-08-14T08:20:56Z</time>
      </trkpt>
      <trkpt lat="42.5867810" lon="1.5240080">
        <ele>1396.6</ele>
        <time>2021-08-14T08:21:10Z</time>
      </trkpt>
      <trkpt lat="42.5868660" lon="1.5239580">
        <ele>1396.6</ele>
        <time>2021-08-14T08:21:19Z</time>
      </trkpt>
      <trkpt lat="42.5869010" lon="1.5239480">
        <ele>1396.6</ele>
        <time>2021-08-14T08:21:26Z</time>
      </trkpt>
      <trkpt lat="42.5869420" lon="1.5239410">
        <ele>1396.6</ele>
        <time>2021-08-14T08:21:31Z</time>
      </trkpt>
      <trkpt lat="42.5869900" lon="1.5239370">
        <ele>1396.7</ele>
        <time>2021-08-14T08:21:36Z</time>
      </trkpt>
      <trkpt lat="42.5870740" lon="1.5239340">
        <ele>1396.8</ele>
        <time>2021-08-14T08:21:44Z</time>
      </trkpt>
      <trkpt lat="42.5871570" lon="1.5239850">
        <ele>1397.0</ele>
        <time>2021-08-14T08:21:52Z</time>
      </trkpt>
      <trkpt lat="42.5871650" lon="1.5239930">
        <ele>1397.0</ele>
        <time>2021-08-14T08:21:53Z</time>
      </trkpt>
      <trkpt lat="42.5871730" lon="1.5240010">
        <ele>1397.0</ele>
        <time>2021-08-14T08:21:54Z</time>
      </trkpt>
      <trkpt lat="42.5873470" lon="1.5240680">
        <ele>1397.1</ele>
        <time>2021-08-14T08:22:10Z</time>
      </trkpt>
      <trkpt lat="42.5873930" lon="1.5240760">
        <ele>1397.1</ele>
        <time>2021-08-14T08:22:14Z</time>
      </trkpt>
      <trkpt lat="42.5875710" lon="1.5241480">
        <ele>1397.1</ele>
        <time>2021-08-14T08:22:31Z</time>
      </trkpt>
      <trkpt lat="42.5877460" lon="1.5242230">
        <ele>1397.0</ele>
        <time>2021-08-14T08:22:47Z</time>
      </trkpt>
      <trkpt lat="42.5877700" lon="1.5242280">
        <ele>1397.0</ele>
        <time>2021-08-14T08:22:49Z</time>
      </trkpt>
      <trkpt lat="42.5877830" lon="1.5242310">
        <ele>1397.0</ele>
        <time>2021-08-14T08:22:50Z</time>
      </trkpt>
      <trkpt lat="42.5877970" lon="1.5242310">
        <ele>1397.0</ele>
        <time>2021-08-14T08:22:51Z</time>
      </trkpt>
      <trkpt lat="42.5879480" lon="1.5243450">
        <ele>1396.8</ele>
        <time>2021-08-14T08:23:09Z</time>
      </trkpt>
      <trkpt lat="42.5880430" lon="1.5244590">
        <ele>1396.4</ele>
        <time>2021-08-14T08:23:22Z</time>
      </trkpt>
      <trkpt lat="42.5881850" lon="1.5246230">
        <ele>1395.0</ele>
        <time>2021-08-14T08:23:39Z</time>
      </trkpt>
      <trkpt lat="42.5882230" lon="1.5246660">
        <ele>1394.5</ele>
        <time>2021-08-14T08:23:44Z</time>
      </trkpt>
      <trkpt lat="42.5882530" lon="1.5247080">
        <ele>1394.1</ele>
        <time>2021-08-14T08:23:48Z</time>
      </trkpt>
      <trkpt lat="42.5882600" lon="1.5247190">
        <ele>1394.0</ele>
        <time>2021-08-14T08:23:49Z</time>
      </trkpt>
      <trkpt lat="42.5882670" lon="1.5247300">
        <ele>1393.9</ele>
        <time>2021-08-14T08:23:50Z</time>
      </trkpt>
      <trkpt lat="42.5882730" lon="1.5247440">
        <ele>1393.8</ele>
        <time>2021-08-14T08:23:51Z</time>
      </trkpt>
      <trkpt lat="42.5882800" lon="1.5247550">
        <ele>1393.7</ele>
        <time>2021-08-14T08:23:52Z</time>
      </trkpt>
      <trkpt lat="42.5882870" lon="1.5247630">
        <ele>1393.6</ele>
        <time>2021-08-14T08:23:53Z</time>
      </trkpt>
      <trkpt lat="42.5882970" lon="1.5247650">
        <ele>1393.5</ele>
        <time>2021-08-14T08:23:54Z</time>
      </trkpt>
      <trkpt lat="42.5883080" lon="1.5247700">
        <ele>1393.4</ele>
        <time>2021-08-14T08:23:55Z</time>
      </trkpt>
      <trkpt lat="42.5883760" lon="1.5247910">
        <ele>1392.7</ele>
        <time>2021-08-14T08:24:00Z</time>
      </trkpt>
      <trkpt lat="42.5883870" lon="1.5247960">
        <ele>1392.6</ele>
        <time>2021-08-14T08:24:01Z</time>
      </trkpt>
      <trkpt lat="42.5883990" lon="1.5247990">
        <ele>1392.5</ele>
        <time>2021-08-14T08:24:02Z</time>
      </trkpt>
      <trkpt lat="42.5884510" lon="1.5247980">
        <ele>1392.0</ele>
        <time>2021-08-14T08:24:07Z</time>
      </trkpt>
      <trkpt lat="42.5884620" lon="1.5247900">
        <ele>1391.9</ele>
        <time>2021-08-14T08:24:08Z</time>
      </trkpt>
      <trkpt lat="42.5885560" lon="1.5247380">
        <ele>1391.2</ele>
        <time>2021-08-14T08:24:17Z</time>
      </trkpt>
      <trkpt lat="42.5886100" lon="1.5247480">
        <ele>1390.9</ele>
        <time>2021-08-14T08:24:22Z</time>
      </trkpt>
      <trkpt lat="42.5886660" lon="1.5247890">
        <ele>1390.7</ele>
        <time>2021-08-14T08:24:28Z</time>
      </trkpt>
      <trkpt lat="42.5886880" lon="1.5248250">
        <ele>1390.6</ele>
        <time>2021-08-14T08:24:31Z</time>
      </trkpt>
      <trkpt lat="42.5887010" lon="1.5248650">
        <ele>1390.5</ele>
        <time>2021-08-14T08:24:34Z</time>
      </trkpt>
      <trkpt lat="42.5887460" lon="1.5250590">
        <ele>1390.4</ele>
        <time>2021-08-14T08:24:48Z</time>
      </trkpt>
      <trkpt lat="42.5888350" lon="1.5252810">
        <ele>1390.5</ele>
        <time>2021-08-14T08:25:04Z</time>
      </trkpt>
      <trkpt lat="42.5889600" lon="1.5254640">
        <ele>1390.8</ele>
        <time>2021-08-14T08:25:22Z</time>
      </trkpt>
      <trkpt lat="42.5891060" lon="1.5256190">
        <ele>1391.3</ele>
        <time>2021-08-14T08:25:36Z</time>
      </trkpt>
      <trkpt lat="42.5891410" lon="1.5256470">
        <ele>1391.5</ele>
        <time>2021-08-14T08:25:40Z</time>
      </trkpt>
      <trkpt lat="42.5891820" lon="1.5256830">
        <ele>1391.8</ele>
        <time>2021-08-14T08:25:46Z</time>
      </trkpt>
      <trkpt lat="42.5891850" lon="1.5256850">
        <ele>1391.8</ele>
        <time>2021-08-14T08:25:47Z</time>
      </trkpt>
      <trkpt lat="42.5893440" lon="1.5257880">
        <ele>1393.1</ele>
        <time>2021-08-14T08:26:05Z</time>
      </trkpt>
      <trkpt lat="42.5893540" lon="1.5257890">
        <ele>1393.1</ele>
        <time>2021-08-14T08:26:06Z</time>
      </trkpt>
      <trkpt lat="42.5893670" lon="1.5257900">
        <ele>1393.3</ele>
        <time>2021-08-14T08:26:07Z</time>
      </trkpt>
      <trkpt lat="42.5893780" lon="1.5257890">
        <ele>1393.4</ele>
        <time>2021-08-14T08:26:08Z</time>
      </trkpt>
      <trkpt lat="42.5893880" lon="1.5257870">
        <ele>1393.5</ele>
        <time>2021-08-14T08:26:09Z</time>
      </trkpt>
      <trkpt lat="42.5893980" lon="1.5257850">
        <ele>1393.5</ele>
        <time>2021-08-14T08:26:10Z</time>
      </trkpt>
      <trkpt lat="42.5895170" lon="1.5257290">
        <ele>1394.7</ele>
        <time>2021-08-14T08:26:21Z</time>
      </trkpt>
      <trkpt lat="42.5896530" lon="1.5257240">
        <ele>1395.5</ele>
        <time>2021-08-14T08:26:30Z</time>
      </trkpt>
      <trkpt lat="42.5898360" lon="1.5257620">
        <ele>1395.8</ele>
        <time>2021-08-14T08:26:48Z</time>
      </trkpt>
      <trkpt lat="42.5898940" lon="1.5257440">
        <ele>1395.8</ele>
        <time>2021-08-14T08:26:54Z</time>
      </trkpt>
      <trkpt lat="42.5899520" lon="1.5257620">
        <ele>1395.8</ele>
        <time>2021-08-14T08:26:59Z</time>
      </trkpt>
      <trkpt lat="42.5900100" lon="1.5257850">
        <ele>1395.8</ele>
        <time>2021-08-14T08:27:03Z</time>
      </trkpt>
      <trkpt lat="42.5901840" lon="1.5258530">
        <ele>1395.7</ele>
        <time>2021-08-14T08:27:17Z</time>
      </trkpt>
      <trkpt lat="42.5903600" lon="1.5259160">
        <ele>1395.2</ele>
        <time>2021-08-14T08:27:34Z</time>
      </trkpt>
      <trkpt lat="42.5905350" lon="1.5260020">
        <ele>1395.1</ele>
        <time>2021-08-14T08:27:51Z</time>
      </trkpt>
      <trkpt lat="42.5906360" lon="1.5260140">
        <ele>1395.2</ele>
        <time>2021-08-14T08:27:58Z</time>
      </trkpt>
      <trkpt lat="42.5906650" lon="1.5259940">
        <ele>1395.3</ele>
        <time>2021-08-14T08:28:00Z</time>
      </trkpt>
      <trkpt lat="42.5907890" lon="1.5259800">
        <ele>1395.5</ele>
        <time>2021-08-14T08:28:09Z</time>
      </trkpt>
      <trkpt lat="42.5909770" lon="1.5260290">
        <ele>1395.7</ele>
        <time>2021-08-14T08:28:23Z</time>
      </trkpt>
      <trkpt lat="42.5911200" lon="1.5261360">
        <ele>1395.9</ele>
        <time>2021-08-14T08:28:38Z</time>
      </trkpt>
      <trkpt lat="42.5912490" lon="1.5263090">
        <ele>1396.3</ele>
        <time>2021-08-14T08:28:55Z</time>
      </trkpt>
      <trkpt lat="42.5913100" lon="1.5264020">
        <ele>1396.4</ele>
        <time>2021-08-14T08:29:05Z</time>
      </trkpt>
      <trkpt lat="42.5913380" lon="1.5264350">
        <ele>1396.5</ele>
        <time>2021-08-14T08:29:08Z</time>
      </trkpt>
      <trkpt lat="42.5913490" lon="1.5264490">
        <ele>1396.5</ele>
        <time>2021-08-14T08:29:09Z</time>
      </trkpt>
      <trkpt lat="42.5913700" lon="1.5264730">
        <ele>1396.5</ele>
        <time>2021-08-14T08:29:11Z</time>
      </trkpt>
      <trkpt lat="42.5914200" lon="1.5265360">
        <ele>1396.7</ele>
        <time>2021-08-14T08:29:17Z</time>
      </trkpt>
      <trkpt lat="42.5914520" lon="1.5265650">
        <ele>1396.8</ele>
        <time>2021-08-14T08:29:21Z</time>
      </trkpt>
      <trkpt lat="42.5915020" lon="1.5266290">
        <ele>1397.1</ele>
        <time>2021-08-14T08:29:27Z</time>
      </trkpt>
      <trkpt lat="42.5915810" lon="1.5267080">
        <ele>1397.7</ele>
        <time>2021-08-14T08:29:39Z</time>
      </trkpt>
      <trkpt lat="42.5916040" lon="1.5267330">
        <ele>1397.9</ele>
        <time>2021-08-14T08:29:42Z</time>
      </trkpt>
      <trkpt lat="42.5916180" lon="1.5267650">
        <ele>1398.2</ele>
        <time>2021-08-14T08:29:45Z</time>
      </trkpt>
      <trkpt lat="42.5916170" lon="1.5267730">
        <ele>1398.3</ele>
        <time>2021-08-14T08:29:48Z</time>
      </trkpt>
      <trkpt lat="42.5916360" lon="1.5268240">
        <ele>1398.7</ele>
        <time>2021-08-14T08:29:53Z</time>
      </trkpt>
      <trkpt lat="42.5916420" lon="1.5268320">
        <ele>1398.8</ele>
        <time>2021-08-14T08:29:54Z</time>
      </trkpt>
      <trkpt lat="42.5916510" lon="1.5268350">
        <ele>1398.9</ele>
        <time>2021-08-14T08:29:55Z</time>
      </trkpt>
      <trkpt lat="42.5916500" lon="1.5268410">
        <ele>1399.0</ele>
        <time>2021-08-14T08:29:56Z</time>
      </trkpt>
      <trkpt lat="42.5916600" lon="1.5268560">
        <ele>1399.2</ele>
        <time>2021-08-14T08:29:58Z</time>
      </trkpt>
      <trkpt lat="42.5916660" lon="1.5268640">
        <ele>1399.3</ele>
        <time>2021-08-14T08:29:59Z</time>
      </trkpt>
      <trkpt lat="42.5916730" lon="1.5268730">
        <ele>1399.4</ele>
        <time>2021-08-14T08:30:00Z</time>
      </trkpt>
      <trkpt lat="42.5916970" lon="1.5268950">
        <ele>1399.8</ele>
        <time>2021-08-14T08:30:03Z</time>
      </trkpt>
      <trkpt lat="42.5917140" lon="1.5268980">
        <ele>1400.1</ele>
        <time>2021-08-14T08:30:05Z</time>
      </trkpt>
      <trkpt lat="42.5917220" lon="1.5268980">
        <ele>1400.2</ele>
        <time>2021-08-14T08:30:06Z</time>
      </trkpt>
      <trkpt lat="42.5917180" lon="1.5268970">
        <ele>1400.2</ele>
        <time>2021-08-14T08:30:08Z</time>
      </trkpt>
      <trkpt lat="42.5917870" lon="1.5269670">
        <ele>1401.5</ele>
        <time>2021-08-14T08:30:17Z</time>
      </trkpt>
      <trkpt lat="42.5919540" lon="1.5271040">
        <ele>1402.9</ele>
        <time>2021-08-14T08:30:29Z</time>
      </trkpt>
      <trkpt lat="42.5920410" lon="1.5271500">
        <ele>1402.5</ele>
        <time>2021-08-14T08:30:35Z</time>
      </trkpt>
      <trkpt lat="42.5921970" lon="1.5270720">
        <ele>1400.9</ele>
        <time>2021-08-14T08:30:47Z</time>
      </trkpt>
      <trkpt lat="42.5922080" lon="1.5270680">
        <ele>1400.8</ele>
        <time>2021-08-14T08:30:48Z</time>
      </trkpt>
      <trkpt lat="42.5922340" lon="1.5270460">
        <ele>1400.5</ele>
        <time>2021-08-14T08:30:50Z</time>
      </trkpt>
      <trkpt lat="42.5923050" lon="1.5270170">
        <ele>1400.1</ele>
        <time>2021-08-14T08:30:55Z</time>
      </trkpt>
      <trkpt lat="42.5923120" lon="1.5270040">
        <ele>1400.1</ele>
        <time>2021-08-14T08:30:56Z</time>
      </trkpt>
      <trkpt lat="42.5923350" lon="1.5269700">
        <ele>1400.2</ele>
        <time>2021-08-14T08:30:59Z</time>
      </trkpt>
      <trkpt lat="42.5924990" lon="1.5269130">
        <ele>1400.5</ele>
        <time>2021-08-14T08:31:13Z</time>
      </trkpt>
      <trkpt lat="42.5926130" lon="1.5268580">
        <ele>1400.8</ele>
        <time>2021-08-14T08:31:25Z</time>
      </trkpt>
      <trkpt lat="42.5927000" lon="1.5268400">
        <ele>1401.1</ele>
        <time>2021-08-14T08:31:32Z</time>
      </trkpt>
      <trkpt lat="42.5927550" lon="1.5268250">
        <ele>1401.3</ele>
        <time>2021-08-14T08:31:36Z</time>
      </trkpt>
      <trkpt lat="42.5927780" lon="1.5268240">
        <ele>1401.4</ele>
        <time>2021-08-14T08:31:38Z</time>
      </trkpt>
      <trkpt lat="42.5927920" lon="1.5268240">
        <ele>1401.4</ele>
        <time>2021-08-14T08:31:39Z</time>
      </trkpt>
      <trkpt lat="42.5928190" lon="1.5268200">
        <ele>1401.5</ele>
        <time>2021-08-14T08:31:41Z</time>
      </trkpt>
      <trkpt lat="42.5929020" lon="1.5268300">
        <ele>1401.8</ele>
        <time>2021-08-14T08:31:49Z</time>
      </trkpt>
      <trkpt lat="42.5930580" lon="1.5268910">
        <ele>1402.6</ele>
        <time>2021-08-14T08:32:06Z</time>
      </trkpt>
      <trkpt lat="42.5930670" lon="1.5268950">
        <ele>1402.6</ele>
        <time>2021-08-14T08:32:07Z</time>
      </trkpt>
      <trkpt lat="42.5931230" lon="1.5269430">
        <ele>1402.9</ele>
        <time>2021-08-14T08:32:13Z</time>
      </trkpt>
      <trkpt lat="42.5931700" lon="1.5269610">
        <ele>1403.1</ele>
        <time>2021-08-14T08:32:18Z</time>
      </trkpt>
      <trkpt lat="42.5932770" lon="1.5269940">
        <ele>1403.5</ele>
        <time>2021-08-14T08:32:28Z</time>
      </trkpt>
      <trkpt lat="42.5934520" lon="1.5270920">
        <ele>1404.2</ele>
        <time>2021-08-14T08:32:41Z</time>
      </trkpt>
      <trkpt lat="42.5936170" lon="1.5271830">
        <ele>1404.8</ele>
        <time>2021-08-14T08:32:57Z</time>
      </trkpt>
      <trkpt lat="42.5936980" lon="1.5272490">
        <ele>1405.2</ele>
        <time>2021-08-14T08:33:06Z</time>
      </trkpt>
      <trkpt lat="42.5938690" lon="1.5273270">
        <ele>1405.8</ele>
        <time>2021-08-14T08:33:24Z</time>
      </trkpt>
      <trkpt lat="42.5939950" lon="1.5273780">
        <ele>1406.3</ele>
        <time>2021-08-14T08:33:36Z</time>
      </trkpt>
      <trkpt lat="42.5940070" lon="1.5273830">
        <ele>1406.3</ele>
        <time>2021-08-14T08:33:37Z</time>
      </trkpt>
      <trkpt lat="42.5940380" lon="1.5273840">
        <ele>1406.5</ele>
        <time>2021-08-14T08:33:40Z</time>
      </trkpt>
      <trkpt lat="42.5941180" lon="1.5274100">
        <ele>1406.9</ele>
        <time>2021-08-14T08:33:47Z</time>
      </trkpt>
      <trkpt lat="42.5942190" lon="1.5274600">
        <ele>1407.5</ele>
        <time>2021-08-14T08:33:57Z</time>
      </trkpt>
      <trkpt lat="42.5942260" lon="1.5274640">
        <ele>1407.5</ele>
        <time>2021-08-14T08:33:58Z</time>
      </trkpt>
      <trkpt lat="42.5942370" lon="1.5274710">
        <ele>1407.6</ele>
        <time>2021-08-14T08:33:59Z</time>
      </trkpt>
      <trkpt lat="42.5944120" lon="1.5275370">
        <ele>1408.6</ele>
        <time>2021-08-14T08:34:16Z</time>
      </trkpt>
      <trkpt lat="42.5944300" lon="1.5275360">
        <ele>1408.7</ele>
        <time>2021-08-14T08:34:18Z</time>
      </trkpt>
      <trkpt lat="42.5944670" lon="1.5275360">
        <ele>1408.9</ele>
        <time>2021-08-14T08:34:22Z</time>
      </trkpt>
      <trkpt lat="42.5946120" lon="1.5275470">
        <ele>1410.1</ele>
        <time>2021-08-14T08:34:35Z</time>
      </trkpt>
      <trkpt lat="42.5947120" lon="1.5275890">
        <ele>1411.2</ele>
        <time>2021-08-14T08:34:46Z</time>
      </trkpt>
      <trkpt lat="42.5947740" lon="1.5276250">
        <ele>1412.0</ele>
        <time>2021-08-14T08:34:53Z</time>
      </trkpt>
      <trkpt lat="42.5949170" lon="1.5277590">
        <ele>1414.3</ele>
        <time>2021-08-14T08:35:12Z</time>
      </trkpt>
      <trkpt lat="42.5949380" lon="1.5277600">
        <ele>1414.5</ele>
        <time>2021-08-14T08:35:14Z</time>
      </trkpt>
      <trkpt lat="42.5949700" lon="1.5277630">
        <ele>1414.9</ele>
        <time>2021-08-14T08:35:17Z</time>
      </trkpt>
      <trkpt lat="42.5949790" lon="1.5277650">
        <ele>1415.0</ele>
        <time>2021-08-14T08:35:18Z</time>
      </trkpt>
      <trkpt lat="42.5949860" lon="1.5277700">
        <ele>1415.1</ele>
        <time>2021-08-14T08:35:19Z</time>
      </trkpt>
      <trkpt lat="42.5951400" lon="1.5278660">
        <ele>1416.8</ele>
        <time>2021-08-14T08:35:36Z</time>
      </trkpt>
      <trkpt lat="42.5952040" lon="1.5279580">
        <ele>1417.4</ele>
        <time>2021-08-14T08:35:44Z</time>
      </trkpt>
      <trkpt lat="42.5952340" lon="1.5279830">
        <ele>1417.6</ele>
        <time>2021-08-14T08:35:48Z</time>
      </trkpt>
      <trkpt lat="42.5953120" lon="1.5280580">
        <ele>1417.6</ele>
        <time>2021-08-14T08:35:56Z</time>
      </trkpt>
      <trkpt lat="42.5953500" lon="1.5281180">
        <ele>1417.5</ele>
        <time>2021-08-14T08:36:04Z</time>
      </trkpt>
      <trkpt lat="42.5953860" lon="1.5281630">
        <ele>1417.4</ele>
        <time>2021-08-14T08:36:11Z</time>
      </trkpt>
      <trkpt lat="42.5953890" lon="1.5281730">
        <ele>1417.4</ele>
        <time>2021-08-14T08:36:12Z</time>
      </trkpt>
      <trkpt lat="42.5953940" lon="1.5281820">
        <ele>1417.4</ele>
        <time>2021-08-14T08:36:13Z</time>
      </trkpt>
      <trkpt lat="42.5954020" lon="1.5281860">
        <ele>1417.3</ele>
        <time>2021-08-14T08:36:14Z</time>
      </trkpt>
      <trkpt lat="42.5954300" lon="1.5281970">
        <ele>1417.3</ele>
        <time>2021-08-14T08:36:19Z</time>
      </trkpt>
      <trkpt lat="42.5954480" lon="1.5282090">
        <ele>1417.2</ele>
        <time>2021-08-14T08:36:21Z</time>
      </trkpt>
      <trkpt lat="42.5955280" lon="1.5282630">
        <ele>1417.2</ele>
        <time>2021-08-14T08:36:31Z</time>
      </trkpt>
      <trkpt lat="42.5955870" lon="1.5282750">
        <ele>1417.3</ele>
        <time>2021-08-14T08:36:36Z</time>
      </trkpt>
      <trkpt lat="42.5956180" lon="1.5282740">
        <ele>1417.4</ele>
        <time>2021-08-14T08:36:39Z</time>
      </trkpt>
      <trkpt lat="42.5956280" lon="1.5282750">
        <ele>1417.4</ele>
        <time>2021-08-14T08:36:40Z</time>
      </trkpt>
      <trkpt lat="42.5956450" lon="1.5282830">
        <ele>1417.5</ele>
        <time>2021-08-14T08:36:41Z</time>
      </trkpt>
      <trkpt lat="42.5956610" lon="1.5282870">
        <ele>1417.5</ele>
        <time>2021-08-14T08:36:42Z</time>
      </trkpt>
      <trkpt lat="42.5956750" lon="1.5282930">
        <ele>1417.6</ele>
        <time>2021-08-14T08:36:43Z</time>
      </trkpt>
      <trkpt lat="42.5957020" lon="1.5283070">
        <ele>1417.7</ele>
        <time>2021-08-14T08:36:45Z</time>
      </trkpt>
      <trkpt lat="42.5957410" lon="1.5283320">
        <ele>1417.8</ele>
        <time>2021-08-14T08:36:48Z</time>
      </trkpt>
      <trkpt lat="42.5958170" lon="1.5283550">
        <ele>1418.1</ele>
        <time>2021-08-14T08:36:55Z</time>
      </trkpt>
      <trkpt lat="42.5958600" lon="1.5283850">
        <ele>1418.3</ele>
        <time>2021-08-14T08:36:58Z</time>
      </trkpt>
      <trkpt lat="42.5958850" lon="1.5284140">
        <ele>1418.4</ele>
        <time>2021-08-14T08:37:00Z</time>
      </trkpt>
      <trkpt lat="42.5959440" lon="1.5284690">
        <ele>1418.4</ele>
        <time>2021-08-14T08:37:05Z</time>
      </trkpt>
      <trkpt lat="42.5959550" lon="1.5284810">
        <ele>1418.4</ele>
        <time>2021-08-14T08:37:06Z</time>
      </trkpt>
      <trkpt lat="42.5959760" lon="1.5285030">
        <ele>1418.5</ele>
        <time>2021-08-14T08:37:08Z</time>
      </trkpt>
      <trkpt lat="42.5959830" lon="1.5285150">
        <ele>1418.5</ele>
        <time>2021-08-14T08:37:09Z</time>
      </trkpt>
      <trkpt lat="42.5959900" lon="1.5285240">
        <ele>1418.5</ele>
        <time>2021-08-14T08:37:10Z</time>
      </trkpt>
      <trkpt lat="42.5960010" lon="1.5285350">
        <ele>1418.5</ele>
        <time>2021-08-14T08:37:11Z</time>
      </trkpt>
      <trkpt lat="42.5960100" lon="1.5285490">
        <ele>1418.6</ele>
        <time>2021-08-14T08:37:12Z</time>
      </trkpt>
      <trkpt lat="42.5960180" lon="1.5285600">
        <ele>1418.6</ele>
        <time>2021-08-14T08:37:13Z</time>
      </trkpt>
      <trkpt lat="42.5960280" lon="1.5285730">
        <ele>1418.6</ele>
        <time>2021-08-14T08:37:14Z</time>
      </trkpt>
      <trkpt lat="42.5960780" lon="1.5286160">
        <ele>1418.7</ele>
        <time>2021-08-14T08:37:19Z</time>
      </trkpt>
      <trkpt lat="42.5961050" lon="1.5286420">
        <ele>1418.7</ele>
        <time>2021-08-14T08:37:22Z</time>
      </trkpt>
      <trkpt lat="42.5961960" lon="1.5287720">
        <ele>1418.9</ele>
        <time>2021-08-14T08:37:33Z</time>
      </trkpt>
      <trkpt lat="42.5962630" lon="1.5288520">
        <ele>1419.1</ele>
        <time>2021-08-14T08:37:41Z</time>
      </trkpt>
      <trkpt lat="42.5962790" lon="1.5288840">
        <ele>1419.2</ele>
        <time>2021-08-14T08:37:43Z</time>
      </trkpt>
      <trkpt lat="42.5962850" lon="1.5289060">
        <ele>1419.2</ele>
        <time>2021-08-14T08:37:44Z</time>
      </trkpt>
      <trkpt lat="42.5963610" lon="1.5290220">
        <ele>1419.5</ele>
        <time>2021-08-14T08:37:53Z</time>
      </trkpt>
      <trkpt lat="42.5964980" lon="1.5291940">
        <ele>1419.9</ele>
        <time>2021-08-14T08:38:09Z</time>
      </trkpt>
      <trkpt lat="42.5965850" lon="1.5294070">
        <ele>1420.4</ele>
        <time>2021-08-14T08:38:25Z</time>
      </trkpt>
      <trkpt lat="42.5967130" lon="1.5295820">
        <ele>1420.8</ele>
        <time>2021-08-14T08:38:41Z</time>
      </trkpt>
      <trkpt lat="42.5968440" lon="1.5297640">
        <ele>1421.3</ele>
        <time>2021-08-14T08:38:59Z</time>
      </trkpt>
      <trkpt lat="42.5969610" lon="1.5299280">
        <ele>1421.8</ele>
        <time>2021-08-14T08:39:14Z</time>
      </trkpt>
      <trkpt lat="42.5970780" lon="1.5301100">
        <ele>1422.5</ele>
        <time>2021-08-14T08:39:30Z</time>
      </trkpt>
      <trkpt lat="42.5971140" lon="1.5301440">
        <ele>1422.7</ele>
        <time>2021-08-14T08:39:34Z</time>
      </trkpt>
      <trkpt lat="42.5972600" lon="1.5302840">
        <ele>1423.5</ele>
        <time>2021-08-14T08:39:48Z</time>
      </trkpt>
      <trkpt lat="42.5973240" lon="1.5303590">
        <ele>1423.9</ele>
        <time>2021-08-14T08:39:55Z</time>
      </trkpt>
      <trkpt lat="42.5973590" lon="1.5304050">
        <ele>1424.1</ele>
        <time>2021-08-14T08:39:59Z</time>
      </trkpt>
      <trkpt lat="42.5973710" lon="1.5304090">
        <ele>1424.2</ele>
        <time>2021-08-14T08:40:00Z</time>
      </trkpt>
      <trkpt lat="42.5973840" lon="1.5304150">
        <ele>1424.2</ele>
        <time>2021-08-14T08:40:01Z</time>
      </trkpt>
      <trkpt lat="42.5975120" lon="1.5304850">
        <ele>1424.6</ele>
        <time>2021-08-14T08:40:12Z</time>
      </trkpt>
      <trkpt lat="42.5976070" lon="1.5305540">
        <ele>1424.8</ele>
        <time>2021-08-14T08:40:19Z</time>
      </trkpt>
      <trkpt lat="42.5977600" lon="1.5306950">
        <ele>1425.4</ele>
        <time>2021-08-14T08:40:36Z</time>
      </trkpt>
      <trkpt lat="42.5977710" lon="1.5307260">
        <ele>1425.5</ele>
        <time>2021-08-14T08:40:38Z</time>
      </trkpt>
      <trkpt lat="42.5977960" lon="1.5307590">
        <ele>1425.8</ele>
        <time>2021-08-14T08:40:41Z</time>
      </trkpt>
      <trkpt lat="42.5979570" lon="1.5308860">
        <ele>1427.3</ele>
        <time>2021-08-14T08:40:56Z</time>
      </trkpt>
      <trkpt lat="42.5981020" lon="1.5309990">
        <ele>1428.7</ele>
        <time>2021-08-14T08:41:11Z</time>
      </trkpt>
      <trkpt lat="42.5981160" lon="1.5310160">
        <ele>1428.9</ele>
        <time>2021-08-14T08:41:13Z</time>
      </trkpt>
      <trkpt lat="42.5981330" lon="1.5310410">
        <ele>1429.1</ele>
        <time>2021-08-14T08:41:15Z</time>
      </trkpt>
      <trkpt lat="42.5982610" lon="1.5311190">
        <ele>1430.0</ele>
        <time>2021-08-14T08:41:28Z</time>
      </trkpt>
      <trkpt lat="42.5982840" lon="1.5311380">
        <ele>1430.1</ele>
        <time>2021-08-14T08:41:30Z</time>
      </trkpt>
      <trkpt lat="42.5982930" lon="1.5311530">
        <ele>1430.2</ele>
        <time>2021-08-14T08:41:31Z</time>
      </trkpt>
      <trkpt lat="42.5983040" lon="1.5311590">
        <ele>1430.2</ele>
        <time>2021-08-14T08:41:32Z</time>
      </trkpt>
      <trkpt lat="42.5983270" lon="1.5311730">
        <ele>1430.3</ele>
        <time>2021-08-14T08:41:34Z</time>
      </trkpt>
      <trkpt lat="42.5984590" lon="1.5312260">
        <ele>1430.5</ele>
        <time>2021-08-14T08:41:44Z</time>
      </trkpt>
      <trkpt lat="42.5985300" lon="1.5312800">
        <ele>1430.8</ele>
        <time>2021-08-14T08:41:51Z</time>
      </trkpt>
      <trkpt lat="42.5987100" lon="1.5313670">
        <ele>1431.2</ele>
        <time>2021-08-14T08:42:06Z</time>
      </trkpt>
      <trkpt lat="42.5987490" lon="1.5313930">
        <ele>1431.3</ele>
        <time>2021-08-14T08:42:10Z</time>
      </trkpt>
      <trkpt lat="42.5988380" lon="1.5314420">
        <ele>1431.5</ele>
        <time>2021-08-14T08:42:18Z</time>
      </trkpt>
      <trkpt lat="42.5988790" lon="1.5314760">
        <ele>1431.5</ele>
        <time>2021-08-14T08:42:22Z</time>
      </trkpt>
      <trkpt lat="42.5988910" lon="1.5314810">
        <ele>1431.5</ele>
        <time>2021-08-14T08:42:23Z</time>
      </trkpt>
      <trkpt lat="42.5989040" lon="1.5314880">
        <ele>1431.5</ele>
        <time>2021-08-14T08:42:24Z</time>
      </trkpt>
      <trkpt lat="42.5990080" lon="1.5315800">
        <ele>1431.5</ele>
        <time>2021-08-14T08:42:34Z</time>
      </trkpt>
      <trkpt lat="42.5991600" lon="1.5317120">
        <ele>1431.5</ele>
        <time>2021-08-14T08:42:49Z</time>
      </trkpt>
      <trkpt lat="42.5992700" lon="1.5319120">
        <ele>1431.7</ele>
        <time>2021-08-14T08:43:05Z</time>
      </trkpt>
      <trkpt lat="42.5993220" lon="1.5319990">
        <ele>1432.0</ele>
        <time>2021-08-14T08:43:13Z</time>
      </trkpt>
      <trkpt lat="42.5994300" lon="1.5321170">
        <ele>1433.2</ele>
        <time>2021-08-14T08:43:28Z</time>
      </trkpt>
      <trkpt lat="42.5996150" lon="1.5321510">
        <ele>1435.0</ele>
        <time>2021-08-14T08:43:45Z</time>
      </trkpt>
      <trkpt lat="42.5996650" lon="1.5321220">
        <ele>1435.5</ele>
        <time>2021-08-14T08:43:51Z</time>
      </trkpt>
      <trkpt lat="42.5996640" lon="1.5320540">
        <ele>1437.0</ele>
        <time>2021-08-14T08:43:57Z</time>
      </trkpt>
      <trkpt lat="42.5996230" lon="1.5319450">
        <ele>1436.9</ele>
        <time>2021-08-14T08:44:07Z</time>
      </trkpt>
      <trkpt lat="42.5996110" lon="1.5318990">
        <ele>1436.9</ele>
        <time>2021-08-14T08:44:12Z</time>
      </trkpt>
      <trkpt lat="42.5996050" lon="1.5318830">
        <ele>1436.9</ele>
        <time>2021-08-14T08:44:14Z</time>
      </trkpt>
      <trkpt lat="42.5995770" lon="1.5318370">
        <ele>1436.9</ele>
        <time>2021-08-14T08:44:19Z</time>
      </trkpt>
      <trkpt lat="42.5995660" lon="1.5318250">
        <ele>1436.9</ele>
        <time>2021-08-14T08:44:20Z</time>
      </trkpt>
      <trkpt lat="42.5995430" lon="1.5317530">
        <ele>1436.9</ele>
        <time>2021-08-14T08:44:24Z</time>
      </trkpt>
      <trkpt lat="42.5995010" lon="1.5315090">
        <ele>1436.9</ele>
        <time>2021-08-14T08:44:43Z</time>
      </trkpt>
      <trkpt lat="42.5994430" lon="1.5314160">
        <ele>1436.9</ele>
        <time>2021-08-14T08:44:51Z</time>
      </trkpt>
      <trkpt lat="42.5993780" lon="1.5312940">
        <ele>1436.9</ele>
        <time>2021-08-14T08:45:00Z</time>
      </trkpt>
      <trkpt lat="42.5994250" lon="1.5312440">
        <ele>1437.8</ele>
        <time>2021-08-14T08:45:07Z</time>
      </trkpt>
      <trkpt lat="42.5995080" lon="1.5312790">
        <ele>1438.4</ele>
        <time>2021-08-14T08:45:14Z</time>
      </trkpt>
      <trkpt lat="42.5995640" lon="1.5313160">
        <ele>1438.9</ele>
        <time>2021-08-14T08:45:20Z</time>
      </trkpt>
      <trkpt lat="42.5996900" lon="1.5315000">
        <ele>1440.3</ele>
        <time>2021-08-14T08:45:39Z</time>
      </trkpt>
      <trkpt lat="42.5996960" lon="1.5315090">
        <ele>1440.3</ele>
        <time>2021-08-14T08:45:40Z</time>
      </trkpt>
      <trkpt lat="42.5998690" lon="1.5316210">
        <ele>1440.8</ele>
        <time>2021-08-14T08:45:58Z</time>
      </trkpt>
      <trkpt lat="42.5999000" lon="1.5316410">
        <ele>1440.9</ele>
        <time>2021-08-14T08:46:01Z</time>
      </trkpt>
      <trkpt lat="42.6000350" lon="1.5318130">
        <ele>1441.0</ele>
        <time>2021-08-14T08:46:15Z</time>
      </trkpt>
      <trkpt lat="42.6000860" lon="1.5318510">
        <ele>1441.1</ele>
        <time>2021-08-14T08:46:20Z</time>
      </trkpt>
      <trkpt lat="42.6002300" lon="1.5320120">
        <ele>1441.2</ele>
        <time>2021-08-14T08:46:36Z</time>
      </trkpt>
      <trkpt lat="42.6002470" lon="1.5320880">
        <ele>1441.3</ele>
        <time>2021-08-14T08:46:46Z</time>
      </trkpt>
      <trkpt lat="42.6003730" lon="1.5322250">
        <ele>1441.7</ele>
        <time>2021-08-14T08:47:11Z</time>
      </trkpt>
      <trkpt lat="42.6005470" lon="1.5323240">
        <ele>1442.6</ele>
        <time>2021-08-14T08:47:28Z</time>
      </trkpt>
      <trkpt lat="42.6006850" lon="1.5324870">
        <ele>1443.5</ele>
        <time>2021-08-14T08:47:44Z</time>
      </trkpt>
      <trkpt lat="42.6007600" lon="1.5325770">
        <ele>1444.2</ele>
        <time>2021-08-14T08:47:55Z</time>
      </trkpt>
      <trkpt lat="42.6007660" lon="1.5326090">
        <ele>1444.3</ele>
        <time>2021-08-14T08:47:57Z</time>
      </trkpt>
      <trkpt lat="42.6008110" lon="1.5328510">
        <ele>1445.4</ele>
        <time>2021-08-14T08:48:13Z</time>
      </trkpt>
      <trkpt lat="42.6009220" lon="1.5330500">
        <ele>1446.1</ele>
        <time>2021-08-14T08:48:28Z</time>
      </trkpt>
      <trkpt lat="42.6010110" lon="1.5331880">
        <ele>1446.3</ele>
        <time>2021-08-14T08:48:39Z</time>
      </trkpt>
      <trkpt lat="42.6011200" lon="1.5333870">
        <ele>1446.5</ele>
        <time>2021-08-14T08:48:54Z</time>
      </trkpt>
      <trkpt lat="42.6011610" lon="1.5335160">
        <ele>1446.6</ele>
        <time>2021-08-14T08:49:02Z</time>
      </trkpt>
      <trkpt lat="42.6011690" lon="1.5335320">
        <ele>1446.6</ele>
        <time>2021-08-14T08:49:03Z</time>
      </trkpt>
      <trkpt lat="42.6011810" lon="1.5335590">
        <ele>1446.6</ele>
        <time>2021-08-14T08:49:05Z</time>
      </trkpt>
      <trkpt lat="42.6013370" lon="1.5336900">
        <ele>1446.4</ele>
        <time>2021-08-14T08:49:20Z</time>
      </trkpt>
      <trkpt lat="42.6015060" lon="1.5337810">
        <ele>1446.1</ele>
        <time>2021-08-14T08:49:33Z</time>
      </trkpt>
      <trkpt lat="42.6016620" lon="1.5339080">
        <ele>1445.8</ele>
        <time>2021-08-14T08:49:48Z</time>
      </trkpt>
      <trkpt lat="42.6018280" lon="1.5340380">
        <ele>1445.4</ele>
        <time>2021-08-14T08:50:04Z</time>
      </trkpt>
      <trkpt lat="42.6019310" lon="1.5341090">
        <ele>1445.0</ele>
        <time>2021-08-14T08:50:13Z</time>
      </trkpt>
      <trkpt lat="42.6021070" lon="1.5341850">
        <ele>1444.8</ele>
        <time>2021-08-14T08:50:26Z</time>
      </trkpt>
      <trkpt lat="42.6022970" lon="1.5341900">
        <ele>1445.2</ele>
        <time>2021-08-14T08:50:41Z</time>
      </trkpt>
      <trkpt lat="42.6024810" lon="1.5342690">
        <ele>1445.5</ele>
        <time>2021-08-14T08:50:55Z</time>
      </trkpt>
      <trkpt lat="42.6026560" lon="1.5343690">
        <ele>1446.1</ele>
        <time>2021-08-14T08:51:11Z</time>
      </trkpt>
      <trkpt lat="42.6027910" lon="1.5345220">
        <ele>1446.9</ele>
        <time>2021-08-14T08:51:26Z</time>
      </trkpt>
      <trkpt lat="42.6029660" lon="1.5346260">
        <ele>1447.7</ele>
        <time>2021-08-14T08:51:41Z</time>
      </trkpt>
      <trkpt lat="42.6031100" lon="1.5347260">
        <ele>1448.7</ele>
        <time>2021-08-14T08:51:54Z</time>
      </trkpt>
      <trkpt lat="42.6032700" lon="1.5347800">
        <ele>1450.3</ele>
        <time>2021-08-14T08:52:09Z</time>
      </trkpt>
      <trkpt lat="42.6032980" lon="1.5348030">
        <ele>1450.6</ele>
        <time>2021-08-14T08:52:12Z</time>
      </trkpt>
      <trkpt lat="42.6033300" lon="1.5348200">
        <ele>1450.9</ele>
        <time>2021-08-14T08:52:15Z</time>
      </trkpt>
      <trkpt lat="42.6033580" lon="1.5348310">
        <ele>1451.1</ele>
        <time>2021-08-14T08:52:18Z</time>
      </trkpt>
      <trkpt lat="42.6033670" lon="1.5348400">
        <ele>1451.2</ele>
        <time>2021-08-14T08:52:19Z</time>
      </trkpt>
      <trkpt lat="42.6033760" lon="1.5348460">
        <ele>1451.3</ele>
        <time>2021-08-14T08:52:20Z</time>
      </trkpt>
      <trkpt lat="42.6034130" lon="1.5348660">
        <ele>1451.5</ele>
        <time>2021-08-14T08:52:24Z</time>
      </trkpt>
      <trkpt lat="42.6035860" lon="1.5349480">
        <ele>1452.2</ele>
        <time>2021-08-14T08:52:40Z</time>
      </trkpt>
      <trkpt lat="42.6036330" lon="1.5349460">
        <ele>1452.3</ele>
        <time>2021-08-14T08:52:44Z</time>
      </trkpt>
      <trkpt lat="42.6036990" lon="1.5349370">
        <ele>1452.5</ele>
        <time>2021-08-14T08:52:49Z</time>
      </trkpt>
      <trkpt lat="42.6037410" lon="1.5349410">
        <ele>1452.6</ele>
        <time>2021-08-14T08:52:52Z</time>
      </trkpt>
      <trkpt lat="42.6038770" lon="1.5349650">
        <ele>1452.9</ele>
        <time>2021-08-14T08:53:03Z</time>
      </trkpt>
      <trkpt lat="42.6038950" lon="1.5349840">
        <ele>1453.0</ele>
        <time>2021-08-14T08:53:05Z</time>
      </trkpt>
      <trkpt lat="42.6039910" lon="1.5350440">
        <ele>1453.2</ele>
        <time>2021-08-14T08:53:13Z</time>
      </trkpt>
      <trkpt lat="42.6040210" lon="1.5350710">
        <ele>1453.3</ele>
        <time>2021-08-14T08:53:16Z</time>
      </trkpt>
      <trkpt lat="42.6040290" lon="1.5350780">
        <ele>1453.3</ele>
        <time>2021-08-14T08:53:17Z</time>
      </trkpt>
      <trkpt lat="42.6040390" lon="1.5350840">
        <ele>1453.3</ele>
        <time>2021-08-14T08:53:18Z</time>
      </trkpt>
      <trkpt lat="42.6040500" lon="1.5350870">
        <ele>1453.4</ele>
        <time>2021-08-14T08:53:19Z</time>
      </trkpt>
      <trkpt lat="42.6040630" lon="1.5350910">
        <ele>1453.4</ele>
        <time>2021-08-14T08:53:20Z</time>
      </trkpt>
      <trkpt lat="42.6041220" lon="1.5351100">
        <ele>1453.5</ele>
        <time>2021-08-14T08:53:25Z</time>
      </trkpt>
      <trkpt lat="42.6041490" lon="1.5351330">
        <ele>1453.6</ele>
        <time>2021-08-14T08:53:27Z</time>
      </trkpt>
      <trkpt lat="42.6041720" lon="1.5351570">
        <ele>1453.7</ele>
        <time>2021-08-14T08:53:29Z</time>
      </trkpt>
      <trkpt lat="42.6041950" lon="1.5351750">
        <ele>1453.8</ele>
        <time>2021-08-14T08:53:31Z</time>
      </trkpt>
      <trkpt lat="42.6042780" lon="1.5351920">
        <ele>1454.1</ele>
        <time>2021-08-14T08:53:38Z</time>
      </trkpt>
      <trkpt lat="42.6044500" lon="1.5351360">
        <ele>1454.4</ele>
        <time>2021-08-14T08:53:53Z</time>
      </trkpt>
      <trkpt lat="42.6045970" lon="1.5351370">
        <ele>1454.3</ele>
        <time>2021-08-14T08:54:07Z</time>
      </trkpt>
      <trkpt lat="42.6047490" lon="1.5351950">
        <ele>1454.1</ele>
        <time>2021-08-14T08:54:19Z</time>
      </trkpt>
      <trkpt lat="42.6048370" lon="1.5352480">
        <ele>1454.1</ele>
        <time>2021-08-14T08:54:26Z</time>
      </trkpt>
      <trkpt lat="42.6048790" lon="1.5352580">
        <ele>1454.0</ele>
        <time>2021-08-14T08:54:29Z</time>
      </trkpt>
      <trkpt lat="42.6049420" lon="1.5352940">
        <ele>1454.0</ele>
        <time>2021-08-14T08:54:34Z</time>
      </trkpt>
      <trkpt lat="42.6049900" lon="1.5353270">
        <ele>1454.0</ele>
        <time>2021-08-14T08:54:38Z</time>
      </trkpt>
      <trkpt lat="42.6051030" lon="1.5353950">
        <ele>1454.0</ele>
        <time>2021-08-14T08:54:49Z</time>
      </trkpt>
      <trkpt lat="42.6051630" lon="1.5354310">
        <ele>1454.1</ele>
        <time>2021-08-14T08:54:55Z</time>
      </trkpt>
      <trkpt lat="42.6052900" lon="1.5355960">
        <ele>1454.5</ele>
        <time>2021-08-14T08:55:07Z</time>
      </trkpt>
      <trkpt lat="42.6054200" lon="1.5357880">
        <ele>1455.1</ele>
        <time>2021-08-14T08:55:22Z</time>
      </trkpt>
      <trkpt lat="42.6055610" lon="1.5359500">
        <ele>1456.3</ele>
        <time>2021-08-14T08:55:41Z</time>
      </trkpt>
      <trkpt lat="42.6055760" lon="1.5359590">
        <ele>1456.4</ele>
        <time>2021-08-14T08:55:43Z</time>
      </trkpt>
      <trkpt lat="42.6055810" lon="1.5359690">
        <ele>1456.4</ele>
        <time>2021-08-14T08:55:44Z</time>
      </trkpt>
      <trkpt lat="42.6055940" lon="1.5359770">
        <ele>1456.5</ele>
        <time>2021-08-14T08:55:46Z</time>
      </trkpt>
      <trkpt lat="42.6056130" lon="1.5359740">
        <ele>1456.6</ele>
        <time>2021-08-14T08:55:50Z</time>
      </trkpt>
      <trkpt lat="42.6056150" lon="1.5359690">
        <ele>1456.6</ele>
        <time>2021-08-14T08:55:51Z</time>
      </trkpt>
      <trkpt lat="42.6056180" lon="1.5359650">
        <ele>1456.7</ele>
        <time>2021-08-14T08:55:52Z</time>
      </trkpt>
      <trkpt lat="42.6056240" lon="1.5359620">
        <ele>1456.7</ele>
        <time>2021-08-14T08:55:53Z</time>
      </trkpt>
      <trkpt lat="42.6056440" lon="1.5359580">
        <ele>1456.8</ele>
        <time>2021-08-14T08:55:55Z</time>
      </trkpt>
      <trkpt lat="42.6058090" lon="1.5360200">
        <ele>1457.3</ele>
        <time>2021-08-14T08:56:08Z</time>
      </trkpt>
      <trkpt lat="42.6059300" lon="1.5361160">
        <ele>1457.5</ele>
        <time>2021-08-14T08:56:19Z</time>
      </trkpt>
      <trkpt lat="42.6059630" lon="1.5361610">
        <ele>1457.6</ele>
        <time>2021-08-14T08:56:23Z</time>
      </trkpt>
      <trkpt lat="42.6059720" lon="1.5361710">
        <ele>1457.6</ele>
        <time>2021-08-14T08:56:24Z</time>
      </trkpt>
      <trkpt lat="42.6059820" lon="1.5361830">
        <ele>1457.6</ele>
        <time>2021-08-14T08:56:25Z</time>
      </trkpt>
      <trkpt lat="42.6060010" lon="1.5362050">
        <ele>1457.6</ele>
        <time>2021-08-14T08:56:27Z</time>
      </trkpt>
      <trkpt lat="42.6060100" lon="1.5362160">
        <ele>1457.6</ele>
        <time>2021-08-14T08:56:28Z</time>
      </trkpt>
      <trkpt lat="42.6060350" lon="1.5362650">
        <ele>1457.7</ele>
        <time>2021-08-14T08:56:31Z</time>
      </trkpt>
      <trkpt lat="42.6060860" lon="1.5363270">
        <ele>1457.8</ele>
        <time>2021-08-14T08:56:37Z</time>
      </trkpt>
      <trkpt lat="42.6060960" lon="1.5363370">
        <ele>1457.9</ele>
        <time>2021-08-14T08:56:38Z</time>
      </trkpt>
      <trkpt lat="42.6061060" lon="1.5363430">
        <ele>1457.9</ele>
        <time>2021-08-14T08:56:39Z</time>
      </trkpt>
      <trkpt lat="42.6061580" lon="1.5363840">
        <ele>1458.1</ele>
        <time>2021-08-14T08:56:44Z</time>
      </trkpt>
      <trkpt lat="42.6061670" lon="1.5363900">
        <ele>1458.1</ele>
        <time>2021-08-14T08:56:45Z</time>
      </trkpt>
      <trkpt lat="42.6061760" lon="1.5363960">
        <ele>1458.1</ele>
        <time>2021-08-14T08:56:46Z</time>
      </trkpt>
      <trkpt lat="42.6062450" lon="1.5364500">
        <ele>1458.4</ele>
        <time>2021-08-14T08:56:53Z</time>
      </trkpt>
      <trkpt lat="42.6063390" lon="1.5365850">
        <ele>1458.9</ele>
        <time>2021-08-14T08:57:04Z</time>
      </trkpt>
      <trkpt lat="42.6064430" lon="1.5366860">
        <ele>1459.4</ele>
        <time>2021-08-14T08:57:14Z</time>
      </trkpt>
      <trkpt lat="42.6064980" lon="1.5367270">
        <ele>1459.6</ele>
        <time>2021-08-14T08:57:19Z</time>
      </trkpt>
      <trkpt lat="42.6065620" lon="1.5367830">
        <ele>1459.9</ele>
        <time>2021-08-14T08:57:25Z</time>
      </trkpt>
      <trkpt lat="42.6066450" lon="1.5368540">
        <ele>1460.2</ele>
        <time>2021-08-14T08:57:32Z</time>
      </trkpt>
      <trkpt lat="42.6067520" lon="1.5369270">
        <ele>1460.4</ele>
        <time>2021-08-14T08:57:42Z</time>
      </trkpt>
      <trkpt lat="42.6068390" lon="1.5369450">
        <ele>1460.7</ele>
        <time>2021-08-14T08:57:50Z</time>
      </trkpt>
      <trkpt lat="42.6069330" lon="1.5368970">
        <ele>1460.9</ele>
        <time>2021-08-14T08:57:59Z</time>
      </trkpt>
      <trkpt lat="42.6070510" lon="1.5367520">
        <ele>1461.3</ele>
        <time>2021-08-14T08:58:12Z</time>
      </trkpt>
      <trkpt lat="42.6071700" lon="1.5366940">
        <ele>1461.6</ele>
        <time>2021-08-14T08:58:24Z</time>
      </trkpt>
      <trkpt lat="42.6071820" lon="1.5366880">
        <ele>1461.7</ele>
        <time>2021-08-14T08:58:25Z</time>
      </trkpt>
      <trkpt lat="42.6073010" lon="1.5366480">
        <ele>1462.0</ele>
        <time>2021-08-14T08:58:34Z</time>
      </trkpt>
      <trkpt lat="42.6073230" lon="1.5366370">
        <ele>1462.1</ele>
        <time>2021-08-14T08:58:36Z</time>
      </trkpt>
      <trkpt lat="42.6074530" lon="1.5365920">
        <ele>1462.4</ele>
        <time>2021-08-14T08:58:47Z</time>
      </trkpt>
      <trkpt lat="42.6075260" lon="1.5365790">
        <ele>1462.6</ele>
        <time>2021-08-14T08:58:52Z</time>
      </trkpt>
      <trkpt lat="42.6075620" lon="1.5365650">
        <ele>1462.7</ele>
        <time>2021-08-14T08:58:55Z</time>
      </trkpt>
      <trkpt lat="42.6075730" lon="1.5365610">
        <ele>1462.7</ele>
        <time>2021-08-14T08:58:56Z</time>
      </trkpt>
      <trkpt lat="42.6076630" lon="1.5365370">
        <ele>1463.0</ele>
        <time>2021-08-14T08:59:02Z</time>
      </trkpt>
      <trkpt lat="42.6077020" lon="1.5365320">
        <ele>1463.1</ele>
        <time>2021-08-14T08:59:05Z</time>
      </trkpt>
      <trkpt lat="42.6077770" lon="1.5365090">
        <ele>1463.3</ele>
        <time>2021-08-14T08:59:11Z</time>
      </trkpt>
      <trkpt lat="42.6078210" lon="1.5364990">
        <ele>1463.5</ele>
        <time>2021-08-14T08:59:15Z</time>
      </trkpt>
      <trkpt lat="42.6078480" lon="1.5364880">
        <ele>1463.6</ele>
        <time>2021-08-14T08:59:17Z</time>
      </trkpt>
      <trkpt lat="42.6079590" lon="1.5364510">
        <ele>1464.1</ele>
        <time>2021-08-14T08:59:26Z</time>
      </trkpt>
      <trkpt lat="42.6081380" lon="1.5364420">
        <ele>1465.0</ele>
        <time>2021-08-14T08:59:42Z</time>
      </trkpt>
      <trkpt lat="42.6083230" lon="1.5365100">
        <ele>1465.8</ele>
        <time>2021-08-14T09:00:00Z</time>
      </trkpt>
      <trkpt lat="42.6083930" lon="1.5365720">
        <ele>1466.0</ele>
        <time>2021-08-14T09:00:06Z</time>
      </trkpt>
      <trkpt lat="42.6084140" lon="1.5365970">
        <ele>1466.1</ele>
        <time>2021-08-14T09:00:08Z</time>
      </trkpt>
      <trkpt lat="42.6085710" lon="1.5367360">
        <ele>1466.5</ele>
        <time>2021-08-14T09:00:21Z</time>
      </trkpt>
      <trkpt lat="42.6087060" lon="1.5369120">
        <ele>1467.0</ele>
        <time>2021-08-14T09:00:36Z</time>
      </trkpt>
      <trkpt lat="42.6087430" lon="1.5369390">
        <ele>1467.1</ele>
        <time>2021-08-14T09:00:39Z</time>
      </trkpt>
      <trkpt lat="42.6087700" lon="1.5369710">
        <ele>1467.3</ele>
        <time>2021-08-14T09:00:42Z</time>
      </trkpt>
      <trkpt lat="42.6088170" lon="1.5370590">
        <ele>1467.6</ele>
        <time>2021-08-14T09:00:48Z</time>
      </trkpt>
      <trkpt lat="42.6088760" lon="1.5371620">
        <ele>1468.0</ele>
        <time>2021-08-14T09:00:56Z</time>
      </trkpt>
      <trkpt lat="42.6089790" lon="1.5372740">
        <ele>1468.8</ele>
        <time>2021-08-14T09:01:08Z</time>
      </trkpt>
      <trkpt lat="42.6090610" lon="1.5373370">
        <ele>1469.4</ele>
        <time>2021-08-14T09:01:16Z</time>
      </trkpt>
      <trkpt lat="42.6091810" lon="1.5374500">
        <ele>1470.5</ele>
        <time>2021-08-14T09:01:29Z</time>
      </trkpt>
      <trkpt lat="42.6093160" lon="1.5376290">
        <ele>1472.1</ele>
        <time>2021-08-14T09:01:46Z</time>
      </trkpt>
      <trkpt lat="42.6093400" lon="1.5376840">
        <ele>1472.5</ele>
        <time>2021-08-14T09:01:50Z</time>
      </trkpt>
      <trkpt lat="42.6093940" lon="1.5378600">
        <ele>1473.8</ele>
        <time>2021-08-14T09:02:02Z</time>
      </trkpt>
      <trkpt lat="42.6094070" lon="1.5378850">
        <ele>1474.0</ele>
        <time>2021-08-14T09:02:04Z</time>
      </trkpt>
      <trkpt lat="42.6094560" lon="1.5379540">
        <ele>1474.7</ele>
        <time>2021-08-14T09:02:10Z</time>
      </trkpt>
      <trkpt lat="42.6096200" lon="1.5380430">
        <ele>1476.7</ele>
        <time>2021-08-14T09:02:27Z</time>
      </trkpt>
      <trkpt lat="42.6097410" lon="1.5380080">
        <ele>1477.9</ele>
        <time>2021-08-14T09:02:38Z</time>
      </trkpt>
      <trkpt lat="42.6098340" lon="1.5379920">
        <ele>1478.1</ele>
        <time>2021-08-14T09:02:47Z</time>
      </trkpt>
      <trkpt lat="42.6099640" lon="1.5379740">
        <ele>1478.0</ele>
        <time>2021-08-14T09:02:58Z</time>
      </trkpt>
      <trkpt lat="42.6100060" lon="1.5379810">
        <ele>1478.0</ele>
        <time>2021-08-14T09:03:01Z</time>
      </trkpt>
      <trkpt lat="42.6100740" lon="1.5380010">
        <ele>1477.9</ele>
        <time>2021-08-14T09:03:06Z</time>
      </trkpt>
      <trkpt lat="42.6101060" lon="1.5380100">
        <ele>1477.8</ele>
        <time>2021-08-14T09:03:08Z</time>
      </trkpt>
      <trkpt lat="42.6101290" lon="1.5380210">
        <ele>1477.8</ele>
        <time>2021-08-14T09:03:10Z</time>
      </trkpt>
      <trkpt lat="42.6101530" lon="1.5380300">
        <ele>1477.8</ele>
        <time>2021-08-14T09:03:12Z</time>
      </trkpt>
      <trkpt lat="42.6101650" lon="1.5380330">
        <ele>1477.7</ele>
        <time>2021-08-14T09:03:13Z</time>
      </trkpt>
      <trkpt lat="42.6101770" lon="1.5380420">
        <ele>1477.7</ele>
        <time>2021-08-14T09:03:14Z</time>
      </trkpt>
      <trkpt lat="42.6102080" lon="1.5380600">
        <ele>1477.7</ele>
        <time>2021-08-14T09:03:17Z</time>
      </trkpt>
      <trkpt lat="42.6102140" lon="1.5380590">
        <ele>1477.7</ele>
        <time>2021-08-14T09:03:18Z</time>
      </trkpt>
      <trkpt lat="42.6102210" lon="1.5380620">
        <ele>1477.7</ele>
        <time>2021-08-14T09:03:19Z</time>
      </trkpt>
      <trkpt lat="42.6103930" lon="1.5381410">
        <ele>1477.6</ele>
        <time>2021-08-14T09:03:34Z</time>
      </trkpt>
      <trkpt lat="42.6105540" lon="1.5382690">
        <ele>1478.5</ele>
        <time>2021-08-14T09:03:54Z</time>
      </trkpt>
      <trkpt lat="42.6106190" lon="1.5383090">
        <ele>1478.9</ele>
        <time>2021-08-14T09:04:03Z</time>
      </trkpt>
      <trkpt lat="42.6106330" lon="1.5383240">
        <ele>1478.8</ele>
        <time>2021-08-14T09:04:07Z</time>
      </trkpt>
      <trkpt lat="42.6106440" lon="1.5383510">
        <ele>1479.4</ele>
        <time>2021-08-14T09:04:10Z</time>
      </trkpt>
      <trkpt lat="42.6106650" lon="1.5383540">
        <ele>1479.4</ele>
        <time>2021-08-14T09:04:12Z</time>
      </trkpt>
      <trkpt lat="42.6107700" lon="1.5383190">
        <ele>1478.8</ele>
        <time>2021-08-14T09:04:22Z</time>
      </trkpt>
      <trkpt lat="42.6107830" lon="1.5383130">
        <ele>1478.8</ele>
        <time>2021-08-14T09:04:23Z</time>
      </trkpt>
      <trkpt lat="42.6107960" lon="1.5383050">
        <ele>1478.9</ele>
        <time>2021-08-14T09:04:24Z</time>
      </trkpt>
      <trkpt lat="42.6108790" lon="1.5382720">
        <ele>1478.5</ele>
        <time>2021-08-14T09:04:31Z</time>
      </trkpt>
      <trkpt lat="42.6110550" lon="1.5383250">
        <ele>1478.7</ele>
        <time>2021-08-14T09:04:48Z</time>
      </trkpt>
      <trkpt lat="42.6111240" lon="1.5383490">
        <ele>1478.7</ele>
        <time>2021-08-14T09:04:55Z</time>
      </trkpt>
      <trkpt lat="42.6111890" lon="1.5381440">
        <ele>1478.1</ele>
        <time>2021-08-14T09:05:13Z</time>
      </trkpt>
      <trkpt lat="42.6111930" lon="1.5381140">
        <ele>1478.2</ele>
        <time>2021-08-14T09:05:15Z</time>
      </trkpt>
      <trkpt lat="42.6112400" lon="1.5380030">
        <ele>1479.0</ele>
        <time>2021-08-14T09:05:23Z</time>
      </trkpt>
      <trkpt lat="42.6112980" lon="1.5379480">
        <ele>1479.7</ele>
        <time>2021-08-14T09:05:30Z</time>
      </trkpt>
      <trkpt lat="42.6113040" lon="1.5379470">
        <ele>1479.8</ele>
        <time>2021-08-14T09:05:31Z</time>
      </trkpt>
      <trkpt lat="42.6113100" lon="1.5379430">
        <ele>1479.8</ele>
        <time>2021-08-14T09:05:32Z</time>
      </trkpt>
      <trkpt lat="42.6113310" lon="1.5379350">
        <ele>1479.8</ele>
        <time>2021-08-14T09:05:34Z</time>
      </trkpt>
      <trkpt lat="42.6115280" lon="1.5379460">
        <ele>1479.2</ele>
        <time>2021-08-14T09:05:47Z</time>
      </trkpt>
      <trkpt lat="42.6115840" lon="1.5379550">
        <ele>1479.1</ele>
        <time>2021-08-14T09:05:51Z</time>
      </trkpt>
      <trkpt lat="42.6116030" lon="1.5379620">
        <ele>1478.6</ele>
        <time>2021-08-14T09:05:53Z</time>
      </trkpt>
      <trkpt lat="42.6116440" lon="1.5379690">
        <ele>1478.6</ele>
        <time>2021-08-14T09:05:57Z</time>
      </trkpt>
      <trkpt lat="42.6117090" lon="1.5379710">
        <ele>1478.6</ele>
        <time>2021-08-14T09:06:03Z</time>
      </trkpt>
      <trkpt lat="42.6117850" lon="1.5379750">
        <ele>1478.6</ele>
        <time>2021-08-14T09:06:10Z</time>
      </trkpt>
      <trkpt lat="42.6119290" lon="1.5379780">
        <ele>1478.8</ele>
        <time>2021-08-14T09:06:22Z</time>
      </trkpt>
      <trkpt lat="42.6120940" lon="1.5379650">
        <ele>1479.4</ele>
        <time>2021-08-14T09:06:34Z</time>
      </trkpt>
      <trkpt lat="42.6121250" lon="1.5379590">
        <ele>1479.5</ele>
        <time>2021-08-14T09:06:38Z</time>
      </trkpt>
      <trkpt lat="42.6122560" lon="1.5379520">
        <ele>1480.2</ele>
        <time>2021-08-14T09:06:53Z</time>
      </trkpt>
      <trkpt lat="42.6122960" lon="1.5379520">
        <ele>1480.4</ele>
        <time>2021-08-14T09:06:56Z</time>
      </trkpt>
      <trkpt lat="42.6123450" lon="1.5379450">
        <ele>1480.7</ele>
        <time>2021-08-14T09:06:59Z</time>
      </trkpt>
      <trkpt lat="42.6124030" lon="1.5379220">
        <ele>1481.0</ele>
        <time>2021-08-14T09:07:04Z</time>
      </trkpt>
      <trkpt lat="42.6124130" lon="1.5379120">
        <ele>1481.3</ele>
        <time>2021-08-14T09:07:05Z</time>
      </trkpt>
      <trkpt lat="42.6125680" lon="1.5377670">
        <ele>1483.7</ele>
        <time>2021-08-14T09:07:20Z</time>
      </trkpt>
      <trkpt lat="42.6125840" lon="1.5377420">
        <ele>1484.7</ele>
        <time>2021-08-14T09:07:23Z</time>
      </trkpt>
      <trkpt lat="42.6126440" lon="1.5377120">
        <ele>1485.2</ele>
        <time>2021-08-14T09:07:30Z</time>
      </trkpt>
      <trkpt lat="42.6127050" lon="1.5376400">
        <ele>1487.0</ele>
        <time>2021-08-14T09:07:39Z</time>
      </trkpt>
      <trkpt lat="42.6127480" lon="1.5375880">
        <ele>1488.4</ele>
        <time>2021-08-14T09:07:46Z</time>
      </trkpt>
      <trkpt lat="42.6128670" lon="1.5375500">
        <ele>1490.2</ele>
        <time>2021-08-14T09:07:56Z</time>
      </trkpt>
      <trkpt lat="42.6129470" lon="1.5375240">
        <ele>1491.5</ele>
        <time>2021-08-14T09:08:03Z</time>
      </trkpt>
      <trkpt lat="42.6131190" lon="1.5374500">
        <ele>1493.9</ele>
        <time>2021-08-14T09:08:22Z</time>
      </trkpt>
      <trkpt lat="42.6133080" lon="1.5374290">
        <ele>1497.5</ele>
        <time>2021-08-14T09:08:40Z</time>
      </trkpt>
      <trkpt lat="42.6133890" lon="1.5374500">
        <ele>1497.6</ele>
        <time>2021-08-14T09:08:46Z</time>
      </trkpt>
      <trkpt lat="42.6134380" lon="1.5374610">
        <ele>1498.6</ele>
        <time>2021-08-14T09:08:50Z</time>
      </trkpt>
      <trkpt lat="42.6134480" lon="1.5374630">
        <ele>1498.6</ele>
        <time>2021-08-14T09:08:51Z</time>
      </trkpt>
      <trkpt lat="42.6134550" lon="1.5374650">
        <ele>1498.7</ele>
        <time>2021-08-14T09:08:52Z</time>
      </trkpt>
      <trkpt lat="42.6134600" lon="1.5374660">
        <ele>1498.7</ele>
        <time>2021-08-14T09:08:53Z</time>
      </trkpt>
      <trkpt lat="42.6134740" lon="1.5374870">
        <ele>1498.2</ele>
        <time>2021-08-14T09:08:57Z</time>
      </trkpt>
      <trkpt lat="42.6134950" lon="1.5375060">
        <ele>1498.2</ele>
        <time>2021-08-14T09:08:59Z</time>
      </trkpt>
      <trkpt lat="42.6135370" lon="1.5375350">
        <ele>1497.9</ele>
        <time>2021-08-14T09:09:04Z</time>
      </trkpt>
      <trkpt lat="42.6136150" lon="1.5375570">
        <ele>1498.5</ele>
        <time>2021-08-14T09:09:10Z</time>
      </trkpt>
      <trkpt lat="42.6136640" lon="1.5375670">
        <ele>1499.0</ele>
        <time>2021-08-14T09:09:14Z</time>
      </trkpt>
      <trkpt lat="42.6137040" lon="1.5375720">
        <ele>1498.4</ele>
        <time>2021-08-14T09:09:17Z</time>
      </trkpt>
      <trkpt lat="42.6137810" lon="1.5376460">
        <ele>1498.2</ele>
        <time>2021-08-14T09:09:27Z</time>
      </trkpt>
      <trkpt lat="42.6139360" lon="1.5376470">
        <ele>1499.6</ele>
        <time>2021-08-14T09:09:40Z</time>
      </trkpt>
      <trkpt lat="42.6139460" lon="1.5376400">
        <ele>1499.9</ele>
        <time>2021-08-14T09:09:41Z</time>
      </trkpt>
      <trkpt lat="42.6141410" lon="1.5376430">
        <ele>1501.3</ele>
        <time>2021-08-14T09:09:58Z</time>
      </trkpt>
      <trkpt lat="42.6142510" lon="1.5376470">
        <ele>1502.0</ele>
        <time>2021-08-14T09:10:06Z</time>
      </trkpt>
      <trkpt lat="42.6142760" lon="1.5376450">
        <ele>1502.3</ele>
        <time>2021-08-14T09:10:08Z</time>
      </trkpt>
      <trkpt lat="42.6144510" lon="1.5376840">
        <ele>1503.3</ele>
        <time>2021-08-14T09:10:26Z</time>
      </trkpt>
      <trkpt lat="42.6144970" lon="1.5376830">
        <ele>1503.7</ele>
        <time>2021-08-14T09:10:29Z</time>
      </trkpt>
      <trkpt lat="42.6145420" lon="1.5376860">
        <ele>1504.4</ele>
        <time>2021-08-14T09:10:33Z</time>
      </trkpt>
      <trkpt lat="42.6145950" lon="1.5376920">
        <ele>1504.7</ele>
        <time>2021-08-14T09:10:39Z</time>
      </trkpt>
      <trkpt lat="42.6146120" lon="1.5376970">
        <ele>1504.9</ele>
        <time>2021-08-14T09:10:41Z</time>
      </trkpt>
      <trkpt lat="42.6146600" lon="1.5376950">
        <ele>1505.2</ele>
        <time>2021-08-14T09:10:46Z</time>
      </trkpt>
      <trkpt lat="42.6148440" lon="1.5377200">
        <ele>1505.5</ele>
        <time>2021-08-14T09:11:04Z</time>
      </trkpt>
      <trkpt lat="42.6149050" lon="1.5377140">
        <ele>1506.0</ele>
        <time>2021-08-14T09:11:10Z</time>
      </trkpt>
      <trkpt lat="42.6149160" lon="1.5377150">
        <ele>1506.0</ele>
        <time>2021-08-14T09:11:11Z</time>
      </trkpt>
      <trkpt lat="42.6149640" lon="1.5377040">
        <ele>1506.7</ele>
        <time>2021-08-14T09:11:16Z</time>
      </trkpt>
      <trkpt lat="42.6149710" lon="1.5377000">
        <ele>1506.7</ele>
        <time>2021-08-14T09:11:17Z</time>
      </trkpt>
      <trkpt lat="42.6149790" lon="1.5376950">
        <ele>1507.7</ele>
        <time>2021-08-14T09:11:18Z</time>
      </trkpt>
      <trkpt lat="42.6150330" lon="1.5376480">
        <ele>1509.7</ele>
        <time>2021-08-14T09:11:26Z</time>
      </trkpt>
      <trkpt lat="42.6150710" lon="1.5375550">
        <ele>1512.3</ele>
        <time>2021-08-14T09:11:36Z</time>
      </trkpt>
      <trkpt lat="42.6152420" lon="1.5375490">
        <ele>1514.5</ele>
        <time>2021-08-14T09:12:00Z</time>
      </trkpt>
      <trkpt lat="42.6152570" lon="1.5375740">
        <ele>1513.5</ele>
        <time>2021-08-14T09:12:03Z</time>
      </trkpt>
      <trkpt lat="42.6152960" lon="1.5375930">
        <ele>1513.9</ele>
        <time>2021-08-14T09:12:07Z</time>
      </trkpt>
      <trkpt lat="42.6153730" lon="1.5376200">
        <ele>1514.0</ele>
        <time>2021-08-14T09:12:14Z</time>
      </trkpt>
      <trkpt lat="42.6154100" lon="1.5376100">
        <ele>1515.4</ele>
        <time>2021-08-14T09:12:18Z</time>
      </trkpt>
      <trkpt lat="42.6154300" lon="1.5376070">
        <ele>1515.8</ele>
        <time>2021-08-14T09:12:21Z</time>
      </trkpt>
      <trkpt lat="42.6154730" lon="1.5375710">
        <ele>1516.2</ele>
        <time>2021-08-14T09:12:27Z</time>
      </trkpt>
      <trkpt lat="42.6154830" lon="1.5375700">
        <ele>1517.3</ele>
        <time>2021-08-14T09:12:31Z</time>
      </trkpt>
      <trkpt lat="42.6154860" lon="1.5375770">
        <ele>1516.7</ele>
        <time>2021-08-14T09:12:34Z</time>
      </trkpt>
      <trkpt lat="42.6155030" lon="1.5375640">
        <ele>1517.8</ele>
        <time>2021-08-14T09:12:38Z</time>
      </trkpt>
      <trkpt lat="42.6155150" lon="1.5375540">
        <ele>1517.8</ele>
        <time>2021-08-14T09:12:40Z</time>
      </trkpt>
      <trkpt lat="42.6155310" lon="1.5375530">
        <ele>1518.3</ele>
        <time>2021-08-14T09:12:43Z</time>
      </trkpt>
      <trkpt lat="42.6156190" lon="1.5375230">
        <ele>1520.7</ele>
        <time>2021-08-14T09:12:57Z</time>
      </trkpt>
      <trkpt lat="42.6156490" lon="1.5374810">
        <ele>1522.3</ele>
        <time>2021-08-14T09:13:02Z</time>
      </trkpt>
      <trkpt lat="42.6156690" lon="1.5374660">
        <ele>1522.3</ele>
        <time>2021-08-14T09:13:04Z</time>
      </trkpt>
      <trkpt lat="42.6157180" lon="1.5374710">
        <ele>1523.2</ele>
        <time>2021-08-14T09:13:09Z</time>
      </trkpt>
      <trkpt lat="42.6157930" lon="1.5374690">
        <ele>1524.1</ele>
        <time>2021-08-14T09:13:20Z</time>
      </trkpt>
      <trkpt lat="42.6159350" lon="1.5374190">
        <ele>1527.0</ele>
        <time>2021-08-14T09:13:40Z</time>
      </trkpt>
      <trkpt lat="42.6159870" lon="1.5374390">
        <ele>1527.4</ele>
        <time>2021-08-14T09:13:45Z</time>
      </trkpt>
      <trkpt lat="42.6159950" lon="1.5374400">
        <ele>1527.7</ele>
        <time>2021-08-14T09:13:46Z</time>
      </trkpt>
      <trkpt lat="42.6160050" lon="1.5374440">
        <ele>1526.7</ele>
        <time>2021-08-14T09:13:48Z</time>
      </trkpt>
      <trkpt lat="42.6160080" lon="1.5374460">
        <ele>1526.8</ele>
        <time>2021-08-14T09:13:49Z</time>
      </trkpt>
      <trkpt lat="42.6160180" lon="1.5374450">
        <ele>1526.8</ele>
        <time>2021-08-14T09:13:51Z</time>
      </trkpt>
      <trkpt lat="42.6160480" lon="1.5374320">
        <ele>1528.1</ele>
        <time>2021-08-14T09:13:55Z</time>
      </trkpt>
      <trkpt lat="42.6161180" lon="1.5374470">
        <ele>1527.8</ele>
        <time>2021-08-14T09:14:02Z</time>
      </trkpt>
      <trkpt lat="42.6162260" lon="1.5374050">
        <ele>1529.3</ele>
        <time>2021-08-14T09:14:14Z</time>
      </trkpt>
      <trkpt lat="42.6163430" lon="1.5373810">
        <ele>1530.7</ele>
        <time>2021-08-14T09:14:29Z</time>
      </trkpt>
      <trkpt lat="42.6164880" lon="1.5373740">
        <ele>1531.2</ele>
        <time>2021-08-14T09:14:49Z</time>
      </trkpt>
      <trkpt lat="42.6165260" lon="1.5373470">
        <ele>1532.0</ele>
        <time>2021-08-14T09:14:59Z</time>
      </trkpt>
      <trkpt lat="42.6165300" lon="1.5373390">
        <ele>1532.1</ele>
        <time>2021-08-14T09:15:00Z</time>
      </trkpt>
      <trkpt lat="42.6165700" lon="1.5373390">
        <ele>1532.2</ele>
        <time>2021-08-14T09:15:05Z</time>
      </trkpt>
      <trkpt lat="42.6165810" lon="1.5373430">
        <ele>1532.2</ele>
        <time>2021-08-14T09:15:07Z</time>
      </trkpt>
      <trkpt lat="42.6166080" lon="1.5373310">
        <ele>1532.2</ele>
        <time>2021-08-14T09:15:10Z</time>
      </trkpt>
      <trkpt lat="42.6166980" lon="1.5373000">
        <ele>1533.1</ele>
        <time>2021-08-14T09:15:24Z</time>
      </trkpt>
      <trkpt lat="42.6167060" lon="1.5372910">
        <ele>1533.2</ele>
        <time>2021-08-14T09:15:25Z</time>
      </trkpt>
      <trkpt lat="42.6168050" lon="1.5371860">
        <ele>1534.7</ele>
        <time>2021-08-14T09:15:39Z</time>
      </trkpt>
      <trkpt lat="42.6168200" lon="1.5371680">
        <ele>1535.4</ele>
        <time>2021-08-14T09:15:41Z</time>
      </trkpt>
      <trkpt lat="42.6168210" lon="1.5371460">
        <ele>1535.5</ele>
        <time>2021-08-14T09:15:43Z</time>
      </trkpt>
      <trkpt lat="42.6168930" lon="1.5369940">
        <ele>1538.4</ele>
        <time>2021-08-14T09:15:56Z</time>
      </trkpt>
      <trkpt lat="42.6169430" lon="1.5369340">
        <ele>1538.3</ele>
        <time>2021-08-14T09:16:06Z</time>
      </trkpt>
      <trkpt lat="42.6169460" lon="1.5369290">
        <ele>1538.3</ele>
        <time>2021-08-14T09:16:07Z</time>
      </trkpt>
      <trkpt lat="42.6170050" lon="1.5368620">
        <ele>1538.2</ele>
        <time>2021-08-14T09:16:28Z</time>
      </trkpt>
      <trkpt lat="42.6170020" lon="1.5368490">
        <ele>1538.2</ele>
        <time>2021-08-14T09:16:36Z</time>
      </trkpt>
      <trkpt lat="42.6169990" lon="1.5368450">
        <ele>1538.2</ele>
        <time>2021-08-14T09:16:40Z</time>
      </trkpt>
      <trkpt lat="42.6169930" lon="1.5368340">
        <ele>1538.2</ele>
        <time>2021-08-14T09:16:45Z</time>
      </trkpt>
      <trkpt lat="42.6170550" lon="1.5367950">
        <ele>1538.1</ele>
        <time>2021-08-14T09:16:56Z</time>
      </trkpt>
      <trkpt lat="42.6170650" lon="1.5367940">
        <ele>1538.1</ele>
        <time>2021-08-14T09:16:57Z</time>
      </trkpt>
      <trkpt lat="42.6170900" lon="1.5367840">
        <ele>1538.1</ele>
        <time>2021-08-14T09:17:00Z</time>
      </trkpt>
      <trkpt lat="42.6171400" lon="1.5367760">
        <ele>1538.1</ele>
        <time>2021-08-14T09:17:05Z</time>
      </trkpt>
      <trkpt lat="42.6171820" lon="1.5367650">
        <ele>1538.0</ele>
        <time>2021-08-14T09:17:09Z</time>
      </trkpt>
      <trkpt lat="42.6172030" lon="1.5367550">
        <ele>1537.9</ele>
        <time>2021-08-14T09:17:11Z</time>
      </trkpt>
      <trkpt lat="42.6173620" lon="1.5367650">
        <ele>1537.2</ele>
        <time>2021-08-14T09:17:23Z</time>
      </trkpt>
      <trkpt lat="42.6173740" lon="1.5367670">
        <ele>1537.1</ele>
        <time>2021-08-14T09:17:24Z</time>
      </trkpt>
      <trkpt lat="42.6174130" lon="1.5367790">
        <ele>1536.8</ele>
        <time>2021-08-14T09:17:27Z</time>
      </trkpt>
      <trkpt lat="42.6174390" lon="1.5367830">
        <ele>1536.6</ele>
        <time>2021-08-14T09:17:29Z</time>
      </trkpt>
      <trkpt lat="42.6174510" lon="1.5367850">
        <ele>1536.5</ele>
        <time>2021-08-14T09:17:30Z</time>
      </trkpt>
      <trkpt lat="42.6174630" lon="1.5367850">
        <ele>1536.4</ele>
        <time>2021-08-14T09:17:31Z</time>
      </trkpt>
      <trkpt lat="42.6174760" lon="1.5367860">
        <ele>1536.2</ele>
        <time>2021-08-14T09:17:32Z</time>
      </trkpt>
      <trkpt lat="42.6174950" lon="1.5367960">
        <ele>1536.0</ele>
        <time>2021-08-14T09:17:34Z</time>
      </trkpt>
      <trkpt lat="42.6175110" lon="1.5368120">
        <ele>1535.8</ele>
        <time>2021-08-14T09:17:36Z</time>
      </trkpt>
      <trkpt lat="42.6175720" lon="1.5368730">
        <ele>1534.9</ele>
        <time>2021-08-14T09:17:44Z</time>
      </trkpt>
      <trkpt lat="42.6175880" lon="1.5368900">
        <ele>1534.7</ele>
        <time>2021-08-14T09:17:46Z</time>
      </trkpt>
      <trkpt lat="42.6176480" lon="1.5369510">
        <ele>1534.0</ele>
        <time>2021-08-14T09:17:54Z</time>
      </trkpt>
      <trkpt lat="42.6176560" lon="1.5369750">
        <ele>1533.8</ele>
        <time>2021-08-14T09:17:56Z</time>
      </trkpt>
      <trkpt lat="42.6176640" lon="1.5370310">
        <ele>1533.5</ele>
        <time>2021-08-14T09:17:59Z</time>
      </trkpt>
      <trkpt lat="42.6176810" lon="1.5371700">
        <ele>1533.1</ele>
        <time>2021-08-14T09:18:06Z</time>
      </trkpt>
      <trkpt lat="42.6177240" lon="1.5373440">
        <ele>1533.1</ele>
        <time>2021-08-14T09:18:19Z</time>
      </trkpt>
      <trkpt lat="42.6177240" lon="1.5373920">
        <ele>1533.1</ele>
        <time>2021-08-14T09:18:23Z</time>
      </trkpt>
      <trkpt lat="42.6177240" lon="1.5374640">
        <ele>1533.3</ele>
        <time>2021-08-14T09:18:29Z</time>
      </trkpt>
      <trkpt lat="42.6177450" lon="1.5375900">
        <ele>1533.8</ele>
        <time>2021-08-14T09:18:38Z</time>
      </trkpt>
      <trkpt lat="42.6177120" lon="1.5378310">
        <ele>1535.2</ele>
        <time>2021-08-14T09:18:55Z</time>
      </trkpt>
      <trkpt lat="42.6177180" lon="1.5379110">
        <ele>1535.8</ele>
        <time>2021-08-14T09:19:03Z</time>
      </trkpt>
      <trkpt lat="42.6177260" lon="1.5379180">
        <ele>1535.9</ele>
        <time>2021-08-14T09:19:04Z</time>
      </trkpt>
      <trkpt lat="42.6177420" lon="1.5379340">
        <ele>1536.0</ele>
        <time>2021-08-14T09:19:06Z</time>
      </trkpt>
      <trkpt lat="42.6177530" lon="1.5379550">
        <ele>1536.4</ele>
        <time>2021-08-14T09:19:08Z</time>
      </trkpt>
      <trkpt lat="42.6178140" lon="1.5379670">
        <ele>1537.4</ele>
        <time>2021-08-14T09:19:16Z</time>
      </trkpt>
      <trkpt lat="42.6178380" lon="1.5379440">
        <ele>1538.0</ele>
        <time>2021-08-14T09:19:19Z</time>
      </trkpt>
      <trkpt lat="42.6178470" lon="1.5379350">
        <ele>1538.1</ele>
        <time>2021-08-14T09:19:20Z</time>
      </trkpt>
      <trkpt lat="42.6178540" lon="1.5379290">
        <ele>1538.3</ele>
        <time>2021-08-14T09:19:21Z</time>
      </trkpt>
      <trkpt lat="42.6178590" lon="1.5379240">
        <ele>1538.4</ele>
        <time>2021-08-14T09:19:22Z</time>
      </trkpt>
      <trkpt lat="42.6178670" lon="1.5379180">
        <ele>1538.6</ele>
        <time>2021-08-14T09:19:23Z</time>
      </trkpt>
      <trkpt lat="42.6178760" lon="1.5379120">
        <ele>1538.8</ele>
        <time>2021-08-14T09:19:24Z</time>
      </trkpt>
      <trkpt lat="42.6178850" lon="1.5379060">
        <ele>1538.9</ele>
        <time>2021-08-14T09:19:25Z</time>
      </trkpt>
      <trkpt lat="42.6178940" lon="1.5379000">
        <ele>1539.1</ele>
        <time>2021-08-14T09:19:26Z</time>
      </trkpt>
      <trkpt lat="42.6179010" lon="1.5378930">
        <ele>1539.3</ele>
        <time>2021-08-14T09:19:27Z</time>
      </trkpt>
      <trkpt lat="42.6179150" lon="1.5378820">
        <ele>1539.6</ele>
        <time>2021-08-14T09:19:29Z</time>
      </trkpt>
      <trkpt lat="42.6179420" lon="1.5378650">
        <ele>1540.1</ele>
        <time>2021-08-14T09:19:33Z</time>
      </trkpt>
      <trkpt lat="42.6179630" lon="1.5378370">
        <ele>1540.7</ele>
        <time>2021-08-14T09:19:36Z</time>
      </trkpt>
      <trkpt lat="42.6179660" lon="1.5378330">
        <ele>1540.8</ele>
        <time>2021-08-14T09:19:37Z</time>
      </trkpt>
      <trkpt lat="42.6179710" lon="1.5378310">
        <ele>1540.9</ele>
        <time>2021-08-14T09:19:38Z</time>
      </trkpt>
      <trkpt lat="42.6179760" lon="1.5378320">
        <ele>1541.0</ele>
        <time>2021-08-14T09:19:39Z</time>
      </trkpt>
      <trkpt lat="42.6179810" lon="1.5378370">
        <ele>1541.1</ele>
        <time>2021-08-14T09:19:40Z</time>
      </trkpt>
      <trkpt lat="42.6179890" lon="1.5378320">
        <ele>1541.2</ele>
        <time>2021-08-14T09:19:41Z</time>
      </trkpt>
      <trkpt lat="42.6179940" lon="1.5378330">
        <ele>1541.3</ele>
        <time>2021-08-14T09:19:42Z</time>
      </trkpt>
      <trkpt lat="42.6180000" lon="1.5378340">
        <ele>1541.4</ele>
        <time>2021-08-14T09:19:43Z</time>
      </trkpt>
      <trkpt lat="42.6180050" lon="1.5378310">
        <ele>1541.6</ele>
        <time>2021-08-14T09:19:44Z</time>
      </trkpt>
      <trkpt lat="42.6180380" lon="1.5378170">
        <ele>1542.2</ele>
        <time>2021-08-14T09:19:48Z</time>
      </trkpt>
      <trkpt lat="42.6181410" lon="1.5378080">
        <ele>1544.3</ele>
        <time>2021-08-14T09:19:59Z</time>
      </trkpt>
      <trkpt lat="42.6181740" lon="1.5378500">
        <ele>1545.2</ele>
        <time>2021-08-14T09:20:08Z</time>
      </trkpt>
      <trkpt lat="42.6181790" lon="1.5378540">
        <ele>1545.3</ele>
        <time>2021-08-14T09:20:09Z</time>
      </trkpt>
      <trkpt lat="42.6181810" lon="1.5380840">
        <ele>1548.8</ele>
        <time>2021-08-14T09:20:30Z</time>
      </trkpt>
      <trkpt lat="42.6181760" lon="1.5380930">
        <ele>1549.0</ele>
        <time>2021-08-14T09:20:31Z</time>
      </trkpt>
      <trkpt lat="42.6181720" lon="1.5381000">
        <ele>1549.1</ele>
        <time>2021-08-14T09:20:32Z</time>
      </trkpt>
      <trkpt lat="42.6181680" lon="1.5381070">
        <ele>1549.2</ele>
        <time>2021-08-14T09:20:33Z</time>
      </trkpt>
      <trkpt lat="42.6181640" lon="1.5381170">
        <ele>1549.4</ele>
        <time>2021-08-14T09:20:34Z</time>
      </trkpt>
      <trkpt lat="42.6181580" lon="1.5381270">
        <ele>1549.6</ele>
        <time>2021-08-14T09:20:35Z</time>
      </trkpt>
      <trkpt lat="42.6181490" lon="1.5381530">
        <ele>1550.0</ele>
        <time>2021-08-14T09:20:38Z</time>
      </trkpt>
      <trkpt lat="42.6181480" lon="1.5381670">
        <ele>1550.2</ele>
        <time>2021-08-14T09:20:40Z</time>
      </trkpt>
      <trkpt lat="42.6181500" lon="1.5382010">
        <ele>1550.7</ele>
        <time>2021-08-14T09:20:43Z</time>
      </trkpt>
      <trkpt lat="42.6181550" lon="1.5382420">
        <ele>1551.3</ele>
        <time>2021-08-14T09:20:46Z</time>
      </trkpt>
      <trkpt lat="42.6181590" lon="1.5382740">
        <ele>1551.7</ele>
        <time>2021-08-14T09:20:49Z</time>
      </trkpt>
      <trkpt lat="42.6182280" lon="1.5383640">
        <ele>1553.2</ele>
        <time>2021-08-14T09:21:00Z</time>
      </trkpt>
      <trkpt lat="42.6182650" lon="1.5384140">
        <ele>1553.9</ele>
        <time>2021-08-14T09:21:05Z</time>
      </trkpt>
      <trkpt lat="42.6182850" lon="1.5384490">
        <ele>1554.3</ele>
        <time>2021-08-14T09:21:09Z</time>
      </trkpt>
      <trkpt lat="42.6182910" lon="1.5384600">
        <ele>1554.4</ele>
        <time>2021-08-14T09:21:10Z</time>
      </trkpt>
      <trkpt lat="42.6182980" lon="1.5384720">
        <ele>1554.5</ele>
        <time>2021-08-14T09:21:11Z</time>
      </trkpt>
      <trkpt lat="42.6183060" lon="1.5384810">
        <ele>1554.7</ele>
        <time>2021-08-14T09:21:12Z</time>
      </trkpt>
      <trkpt lat="42.6183110" lon="1.5384890">
        <ele>1554.8</ele>
        <time>2021-08-14T09:21:13Z</time>
      </trkpt>
      <trkpt lat="42.6183160" lon="1.5385040">
        <ele>1554.9</ele>
        <time>2021-08-14T09:21:14Z</time>
      </trkpt>
      <trkpt lat="42.6183210" lon="1.5385170">
        <ele>1555.0</ele>
        <time>2021-08-14T09:21:15Z</time>
      </trkpt>
      <trkpt lat="42.6183270" lon="1.5385290">
        <ele>1555.2</ele>
        <time>2021-08-14T09:21:16Z</time>
      </trkpt>
      <trkpt lat="42.6183360" lon="1.5385800">
        <ele>1555.6</ele>
        <time>2021-08-14T09:21:20Z</time>
      </trkpt>
      <trkpt lat="42.6183370" lon="1.5386090">
        <ele>1555.9</ele>
        <time>2021-08-14T09:21:22Z</time>
      </trkpt>
      <trkpt lat="42.6183420" lon="1.5386410">
        <ele>1556.2</ele>
        <time>2021-08-14T09:21:27Z</time>
      </trkpt>
      <trkpt lat="42.6183430" lon="1.5386510">
        <ele>1556.3</ele>
        <time>2021-08-14T09:21:29Z</time>
      </trkpt>
      <trkpt lat="42.6183580" lon="1.5386860">
        <ele>1556.7</ele>
        <time>2021-08-14T09:21:38Z</time>
      </trkpt>
      <trkpt lat="42.6183660" lon="1.5386970">
        <ele>1556.8</ele>
        <time>2021-08-14T09:21:49Z</time>
      </trkpt>
      <trkpt lat="42.6183750" lon="1.5386840">
        <ele>1557.0</ele>
        <time>2021-08-14T09:21:54Z</time>
      </trkpt>
      <trkpt lat="42.6183720" lon="1.5386830">
        <ele>1557.0</ele>
        <time>2021-08-14T09:21:59Z</time>
      </trkpt>
      <trkpt lat="42.6183940" lon="1.5386180">
        <ele>1557.7</ele>
        <time>2021-08-14T09:22:13Z</time>
      </trkpt>
      <trkpt lat="42.6184000" lon="1.5386070">
        <ele>1558.2</ele>
        <time>2021-08-14T09:22:14Z</time>
      </trkpt>
      <trkpt lat="42.6184280" lon="1.5385680">
        <ele>1558.0</ele>
        <time>2021-08-14T09:22:18Z</time>
      </trkpt>
      <trkpt lat="42.6184530" lon="1.5384850">
        <ele>1557.7</ele>
        <time>2021-08-14T09:22:24Z</time>
      </trkpt>
      <trkpt lat="42.6185030" lon="1.5383590">
        <ele>1557.9</ele>
        <time>2021-08-14T09:22:34Z</time>
      </trkpt>
      <trkpt lat="42.6186310" lon="1.5382660">
        <ele>1559.6</ele>
        <time>2021-08-14T09:22:48Z</time>
      </trkpt>
      <trkpt lat="42.6187530" lon="1.5381570">
        <ele>1561.5</ele>
        <time>2021-08-14T09:23:01Z</time>
      </trkpt>
      <trkpt lat="42.6187740" lon="1.5381210">
        <ele>1562.0</ele>
        <time>2021-08-14T09:23:04Z</time>
      </trkpt>
      <trkpt lat="42.6187850" lon="1.5381070">
        <ele>1562.2</ele>
        <time>2021-08-14T09:23:05Z</time>
      </trkpt>
      <trkpt lat="42.6187940" lon="1.5380920">
        <ele>1562.4</ele>
        <time>2021-08-14T09:23:06Z</time>
      </trkpt>
      <trkpt lat="42.6188080" lon="1.5380610">
        <ele>1562.7</ele>
        <time>2021-08-14T09:23:08Z</time>
      </trkpt>
      <trkpt lat="42.6189030" lon="1.5379210">
        <ele>1564.7</ele>
        <time>2021-08-14T09:23:20Z</time>
      </trkpt>
      <trkpt lat="42.6189690" lon="1.5378900">
        <ele>1567.5</ele>
        <time>2021-08-14T09:23:26Z</time>
      </trkpt>
      <trkpt lat="42.6190210" lon="1.5379030">
        <ele>1568.0</ele>
        <time>2021-08-14T09:23:31Z</time>
      </trkpt>
      <trkpt lat="42.6190850" lon="1.5379600">
        <ele>1568.7</ele>
        <time>2021-08-14T09:23:40Z</time>
      </trkpt>
      <trkpt lat="42.6190910" lon="1.5379670">
        <ele>1568.7</ele>
        <time>2021-08-14T09:23:41Z</time>
      </trkpt>
      <trkpt lat="42.6190960" lon="1.5379770">
        <ele>1568.8</ele>
        <time>2021-08-14T09:23:42Z</time>
      </trkpt>
      <trkpt lat="42.6190970" lon="1.5380070">
        <ele>1569.0</ele>
        <time>2021-08-14T09:23:44Z</time>
      </trkpt>
      <trkpt lat="42.6190830" lon="1.5380730">
        <ele>1569.4</ele>
        <time>2021-08-14T09:23:49Z</time>
      </trkpt>
      <trkpt lat="42.6190570" lon="1.5382270">
        <ele>1570.2</ele>
        <time>2021-08-14T09:24:00Z</time>
      </trkpt>
    </trkseg>
  </trk>
</gpx>
